<?xml version='1.0' encoding='UTF-8'?><gpx version="1.1" creator="JPX - https://github.com/jenetics/jpx" xmlns="http://www.topografix.com/GPX/1/1"><trk><trkseg><trkpt lat="44.454435009051764" lon="11.424062280059129"><ele>75.0</ele><time>2026-04-12T07:39:16.997Z</time></trkpt><trkpt lat="44.45435396651365" lon="11.424064097485218"><ele>75.0</ele><time>2026-04-12T07:39:18.997Z</time></trkpt><trkpt lat="44.45429690549264" lon="11.424023681552972"><ele>75.0</ele><time>2026-04-12T07:39:26Z</time></trkpt><trkpt lat="44.4542727633989" lon="11.423940386478309"><ele>75.0</ele><time>2026-04-12T07:39:37Z</time></trkpt><trkpt lat="44.45437708983975" lon="11.423838734413792"><ele>75.0</ele><time>2026-04-12T07:39:39Z</time></trkpt><trkpt lat="44.45445176868595" lon="11.423785377215927"><ele>75.0</ele><time>2026-04-12T07:39:40Z</time></trkpt><trkpt lat="44.454513128561594" lon="11.423735123991918"><ele>74.8</ele><time>2026-04-12T07:39:41Z</time></trkpt><trkpt lat="44.45458414518067" lon="11.42367297181609"><ele>74.6</ele><time>2026-04-12T07:39:42Z</time></trkpt><trkpt lat="44.45466116262305" lon="11.423605413401356"><ele>74.4</ele><time>2026-04-12T07:39:43Z</time></trkpt><trkpt lat="44.45474236033062" lon="11.423529790448612"><ele>74.2</ele><time>2026-04-12T07:39:44Z</time></trkpt><trkpt lat="44.45482641348627" lon="11.423450658905146"><ele>74.0</ele><time>2026-04-12T07:39:45Z</time></trkpt><trkpt lat="44.4549023680802" lon="11.423376835242797"><ele>73.33333333333334</ele><time>2026-04-12T07:39:46Z</time></trkpt><trkpt lat="44.45497211614492" lon="11.42331966472591"><ele>72.66666666666667</ele><time>2026-04-12T07:39:47Z</time></trkpt><trkpt lat="44.45503042982968" lon="11.423270583838129"><ele>72.0</ele><time>2026-04-12T07:39:48Z</time></trkpt><trkpt lat="44.45513919055835" lon="11.423285626543546"><ele>71.33333333333333</ele><time>2026-04-12T07:39:49Z</time></trkpt><trkpt lat="44.4552140976519" lon="11.423331709501701"><ele>70.66666666666666</ele><time>2026-04-12T07:39:50Z</time></trkpt><trkpt lat="44.4553110358169" lon="11.423347127044687"><ele>70.0</ele><time>2026-04-12T07:39:51Z</time></trkpt><trkpt lat="44.45540995002849" lon="11.423368003309365"><ele>70.6</ele><time>2026-04-12T07:39:52Z</time></trkpt><trkpt lat="44.455495846154854" lon="11.423323394068094"><ele>71.2</ele><time>2026-04-12T07:39:53Z</time></trkpt><trkpt lat="44.4555962914513" lon="11.423453647498107"><ele>71.8</ele><time>2026-04-12T07:39:54Z</time></trkpt><trkpt lat="44.45565794959804" lon="11.423486538054782"><ele>72.4</ele><time>2026-04-12T07:39:55Z</time></trkpt><trkpt lat="44.45574127346013" lon="11.423603279653586"><ele>73.0</ele><time>2026-04-12T07:39:56Z</time></trkpt><trkpt lat="44.455832333602594" lon="11.42372126416607"><ele>73.25</ele><time>2026-04-12T07:39:57Z</time></trkpt><trkpt lat="44.45589859968018" lon="11.423843062613505"><ele>73.5</ele><time>2026-04-12T07:39:58Z</time></trkpt><trkpt lat="44.45600314204837" lon="11.423988240434802"><ele>73.75</ele><time>2026-04-12T07:39:59Z</time></trkpt><trkpt lat="44.45609630078527" lon="11.42412384784111"><ele>74.0</ele><time>2026-04-12T07:40:00Z</time></trkpt><trkpt lat="44.45619203171876" lon="11.424260422725398"><ele>74.0</ele><time>2026-04-12T07:40:01Z</time></trkpt><trkpt lat="44.45628389086192" lon="11.424397639646246"><ele>74.0</ele><time>2026-04-12T07:40:02Z</time></trkpt><trkpt lat="44.456373295327865" lon="11.424520818094816"><ele>74.0</ele><time>2026-04-12T07:40:03Z</time></trkpt><trkpt lat="44.45646330589695" lon="11.424651072081732"><ele>74.0</ele><time>2026-04-12T07:40:04Z</time></trkpt><trkpt lat="44.456558319447126" lon="11.424781684764577"><ele>74.25</ele><time>2026-04-12T07:40:05Z</time></trkpt><trkpt lat="44.45665437302917" lon="11.424919555676912"><ele>74.5</ele><time>2026-04-12T07:40:06Z</time></trkpt><trkpt lat="44.456752233101206" lon="11.425056953168726"><ele>74.75</ele><time>2026-04-12T07:40:07Z</time></trkpt><trkpt lat="44.456847562872355" lon="11.425197780753374"><ele>75.0</ele><time>2026-04-12T07:40:08Z</time></trkpt><trkpt lat="44.45694443132245" lon="11.425338182226362"><ele>75.0</ele><time>2026-04-12T07:40:09Z</time></trkpt><trkpt lat="44.457043296847395" lon="11.425477761727564"><ele>75.0</ele><time>2026-04-12T07:40:10Z</time></trkpt><trkpt lat="44.45714022978145" lon="11.425617326571242"><ele>75.0</ele><time>2026-04-12T07:40:11Z</time></trkpt><trkpt lat="44.45724210646205" lon="11.425756329822054"><ele>75.0</ele><time>2026-04-12T07:40:12Z</time></trkpt><trkpt lat="44.45734405062631" lon="11.42588983847317"><ele>75.25</ele><time>2026-04-12T07:40:13Z</time></trkpt><trkpt lat="44.45744253839306" lon="11.426028886130418"><ele>75.5</ele><time>2026-04-12T07:40:14Z</time></trkpt><trkpt lat="44.45753976143098" lon="11.426169706537328"><ele>75.75</ele><time>2026-04-12T07:40:15Z</time></trkpt><trkpt lat="44.4576363022506" lon="11.426310644858946"><ele>76.0</ele><time>2026-04-12T07:40:16Z</time></trkpt><trkpt lat="44.45773276470613" lon="11.426451341368471"><ele>74.75</ele><time>2026-04-12T07:40:17Z</time></trkpt><trkpt lat="44.45782780352717" lon="11.426594398099715"><ele>73.5</ele><time>2026-04-12T07:40:18Z</time></trkpt><trkpt lat="44.45790942336814" lon="11.426750165550319"><ele>72.25</ele><time>2026-04-12T07:40:19Z</time></trkpt><trkpt lat="44.45798062405101" lon="11.426905873566602"><ele>71.0</ele><time>2026-04-12T07:40:20Z</time></trkpt><trkpt lat="44.4580345078758" lon="11.427062494701854"><ele>70.8</ele><time>2026-04-12T07:40:20.999Z</time></trkpt><trkpt lat="44.458083016198806" lon="11.427209222821158"><ele>70.6</ele><time>2026-04-12T07:40:21.999Z</time></trkpt><trkpt lat="44.45811961332378" lon="11.427319113952693"><ele>70.4</ele><time>2026-04-12T07:40:22.999Z</time></trkpt><trkpt lat="44.45814369158652" lon="11.427408362942797"><ele>70.2</ele><time>2026-04-12T07:40:23.999Z</time></trkpt><trkpt lat="44.45817383701462" lon="11.427525355879057"><ele>70.0</ele><time>2026-04-12T07:40:25.999Z</time></trkpt><trkpt lat="44.458218196207525" lon="11.427642694546483"><ele>70.0</ele><time>2026-04-12T07:40:46.999Z</time></trkpt><trkpt lat="44.458272658885676" lon="11.427827271127923"><ele>70.0</ele><time>2026-04-12T07:40:48.999Z</time></trkpt><trkpt lat="44.45831386199746" lon="11.427946638492532"><ele>70.0</ele><time>2026-04-12T07:40:49.999Z</time></trkpt><trkpt lat="44.45836452455708" lon="11.428089702215804"><ele>70.0</ele><time>2026-04-12T07:40:50.999Z</time></trkpt><trkpt lat="44.45841858077349" lon="11.428239853634507"><ele>69.5</ele><time>2026-04-12T07:40:51.999Z</time></trkpt><trkpt lat="44.45849336690823" lon="11.428394644443125"><ele>69.0</ele><time>2026-04-12T07:40:52.999Z</time></trkpt><trkpt lat="44.45858281426882" lon="11.428556403834062"><ele>68.5</ele><time>2026-04-12T07:40:53.999Z</time></trkpt><trkpt lat="44.458684975490954" lon="11.428708020951975"><ele>68.0</ele><time>2026-04-12T07:40:54.999Z</time></trkpt><trkpt lat="44.45879472153572" lon="11.428845288231974"><ele>67.33333333333334</ele><time>2026-04-12T07:40:55.999Z</time></trkpt><trkpt lat="44.45890915164697" lon="11.428978211049253"><ele>66.66666666666667</ele><time>2026-04-12T07:40:56.999Z</time></trkpt><trkpt lat="44.4590296007837" lon="11.429105031644506"><ele>66.0</ele><time>2026-04-12T07:40:57.999Z</time></trkpt><trkpt lat="44.459154275901945" lon="11.429230247722115"><ele>66.0</ele><time>2026-04-12T07:40:58.999Z</time></trkpt><trkpt lat="44.45928266508286" lon="11.429351511110404"><ele>66.0</ele><time>2026-04-12T07:40:59.999Z</time></trkpt><trkpt lat="44.45941956163071" lon="11.429464468428822"><ele>66.0</ele><time>2026-04-12T07:41:00.999Z</time></trkpt><trkpt lat="44.4595606726272" lon="11.42956936247956"><ele>66.0</ele><time>2026-04-12T07:41:01.999Z</time></trkpt><trkpt lat="44.45969887509456" lon="11.429665962006178"><ele>66.0</ele><time>2026-04-12T07:41:02.999Z</time></trkpt><trkpt lat="44.45984304383734" lon="11.429765239380002"><ele>66.0</ele><time>2026-04-12T07:41:03.999Z</time></trkpt><trkpt lat="44.459985868835545" lon="11.429858758918318"><ele>66.0</ele><time>2026-04-12T07:41:04.999Z</time></trkpt><trkpt lat="44.46012793994234" lon="11.429955082384941"><ele>66.0</ele><time>2026-04-12T07:41:05.999Z</time></trkpt><trkpt lat="44.46026600117109" lon="11.430049318062498"><ele>66.0</ele><time>2026-04-12T07:41:06.999Z</time></trkpt><trkpt lat="44.46040013125766" lon="11.430137781510394"><ele>66.0</ele><time>2026-04-12T07:41:07.999Z</time></trkpt><trkpt lat="44.460533860075216" lon="11.430228884596035"><ele>66.0</ele><time>2026-04-12T07:41:08.999Z</time></trkpt><trkpt lat="44.46066302682876" lon="11.430316488332268"><ele>66.0</ele><time>2026-04-12T07:41:09.999Z</time></trkpt><trkpt lat="44.46079306144979" lon="11.430402380596643"><ele>66.0</ele><time>2026-04-12T07:41:10.999Z</time></trkpt><trkpt lat="44.46092545223641" lon="11.430487395318114"><ele>66.0</ele><time>2026-04-12T07:41:11.999Z</time></trkpt><trkpt lat="44.46105395048174" lon="11.430561633887208"><ele>66.0</ele><time>2026-04-12T07:41:12.999Z</time></trkpt><trkpt lat="44.46118198080925" lon="11.430630156116646"><ele>66.0</ele><time>2026-04-12T07:41:13.999Z</time></trkpt><trkpt lat="44.46130954410563" lon="11.430696112408238"><ele>66.0</ele><time>2026-04-12T07:41:14.999Z</time></trkpt><trkpt lat="44.46142897591385" lon="11.43075298142206"><ele>66.0</ele><time>2026-04-12T07:41:15.999Z</time></trkpt><trkpt lat="44.46153987411256" lon="11.430811594895749"><ele>66.0</ele><time>2026-04-12T07:41:16.998Z</time></trkpt><trkpt lat="44.46164309998386" lon="11.430868499406438"><ele>66.0</ele><time>2026-04-12T07:41:17.998Z</time></trkpt><trkpt lat="44.46173999151658" lon="11.430917359207758"><ele>66.0</ele><time>2026-04-12T07:41:18.998Z</time></trkpt><trkpt lat="44.461826102537295" lon="11.430973990242329"><ele>66.0</ele><time>2026-04-12T07:41:19.998Z</time></trkpt><trkpt lat="44.46188915175321" lon="11.43104040664784"><ele>66.0</ele><time>2026-04-12T07:41:20.998Z</time></trkpt><trkpt lat="44.461944344698836" lon="11.431123580145798"><ele>66.0</ele><time>2026-04-12T07:41:21.998Z</time></trkpt><trkpt lat="44.461963405708325" lon="11.431224530190244"><ele>66.0</ele><time>2026-04-12T07:41:22.998Z</time></trkpt><trkpt lat="44.46197481458935" lon="11.431353560356854"><ele>66.0</ele><time>2026-04-12T07:41:23.998Z</time></trkpt><trkpt lat="44.46196708537611" lon="11.431489365229062"><ele>66.0</ele><time>2026-04-12T07:41:24.998Z</time></trkpt><trkpt lat="44.46193779832183" lon="11.43162669073936"><ele>66.0</ele><time>2026-04-12T07:41:26Z</time></trkpt><trkpt lat="44.461877853051924" lon="11.431758533974056"><ele>66.25</ele><time>2026-04-12T07:41:27Z</time></trkpt><trkpt lat="44.46179927977774" lon="11.431880745491213"><ele>66.5</ele><time>2026-04-12T07:41:28Z</time></trkpt><trkpt lat="44.46171999517232" lon="11.432010820804791"><ele>66.75</ele><time>2026-04-12T07:41:29Z</time></trkpt><trkpt lat="44.461645735605316" lon="11.432148276444988"><ele>67.0</ele><time>2026-04-12T07:41:30Z</time></trkpt><trkpt lat="44.46157575564716" lon="11.432292682125869"><ele>67.0</ele><time>2026-04-12T07:41:31Z</time></trkpt><trkpt lat="44.46151116953459" lon="11.43243452416208"><ele>67.0</ele><time>2026-04-12T07:41:32Z</time></trkpt><trkpt lat="44.46145480196096" lon="11.43257941484176"><ele>67.0</ele><time>2026-04-12T07:41:33Z</time></trkpt><trkpt lat="44.46139979656522" lon="11.432725783199293"><ele>67.0</ele><time>2026-04-12T07:41:34Z</time></trkpt><trkpt lat="44.461347798964646" lon="11.432873339849584"><ele>67.2</ele><time>2026-04-12T07:41:35Z</time></trkpt><trkpt lat="44.461293609079995" lon="11.433016539996375"><ele>67.4</ele><time>2026-04-12T07:41:36Z</time></trkpt><trkpt lat="44.461240972940715" lon="11.433158101929104"><ele>67.6</ele><time>2026-04-12T07:41:37Z</time></trkpt><trkpt lat="44.46119023894501" lon="11.433292716136844"><ele>67.8</ele><time>2026-04-12T07:41:38Z</time></trkpt><trkpt lat="44.461146414662814" lon="11.433412676944416"><ele>68.0</ele><time>2026-04-12T07:41:39Z</time></trkpt><trkpt lat="44.461107988943" lon="11.433525130209832"><ele>68.0</ele><time>2026-04-12T07:41:40Z</time></trkpt><trkpt lat="44.46107177305407" lon="11.43362469683141"><ele>68.0</ele><time>2026-04-12T07:41:41Z</time></trkpt><trkpt lat="44.46103728496266" lon="11.433717955838564"><ele>68.0</ele><time>2026-04-12T07:41:42Z</time></trkpt><trkpt lat="44.46100531623392" lon="11.433799893674438"><ele>68.0</ele><time>2026-04-12T07:41:43Z</time></trkpt><trkpt lat="44.460974780558644" lon="11.43387796543031"><ele>68.0</ele><time>2026-04-12T07:41:44Z</time></trkpt><trkpt lat="44.46092405936066" lon="11.434019834817384"><ele>68.0</ele><time>2026-04-12T07:41:46Z</time></trkpt><trkpt lat="44.46086490404816" lon="11.434191770037502"><ele>67.8</ele><time>2026-04-12T07:41:48Z</time></trkpt><trkpt lat="44.460824882786554" lon="11.43430437156087"><ele>67.6</ele><time>2026-04-12T07:41:49Z</time></trkpt><trkpt lat="44.460781085620525" lon="11.434435811149926"><ele>67.4</ele><time>2026-04-12T07:41:50Z</time></trkpt><trkpt lat="44.46073272618415" lon="11.434590113085866"><ele>67.2</ele><time>2026-04-12T07:41:51Z</time></trkpt><trkpt lat="44.460683863291806" lon="11.434744004119969"><ele>67.0</ele><time>2026-04-12T07:41:52Z</time></trkpt><trkpt lat="44.460636722280704" lon="11.43488646721849"><ele>66.5</ele><time>2026-04-12T07:41:53Z</time></trkpt><trkpt lat="44.46058436656859" lon="11.435033116606396"><ele>66.0</ele><time>2026-04-12T07:41:54Z</time></trkpt><trkpt lat="44.460528647326676" lon="11.435187800246263"><ele>65.5</ele><time>2026-04-12T07:41:55Z</time></trkpt><trkpt lat="44.46047323096733" lon="11.435350802944786"><ele>65.0</ele><time>2026-04-12T07:41:56Z</time></trkpt><trkpt lat="44.460415357209214" lon="11.435517001358361"><ele>64.5</ele><time>2026-04-12T07:41:57Z</time></trkpt><trkpt lat="44.46035390733883" lon="11.435672684255955"><ele>64.0</ele><time>2026-04-12T07:41:58Z</time></trkpt><trkpt lat="44.4602961839608" lon="11.435812159913604"><ele>63.5</ele><time>2026-04-12T07:41:59Z</time></trkpt><trkpt lat="44.460241898276124" lon="11.43594690583135"><ele>63.0</ele><time>2026-04-12T07:42:00Z</time></trkpt><trkpt lat="44.460185241676214" lon="11.436072060722047"><ele>63.0</ele><time>2026-04-12T07:42:01Z</time></trkpt><trkpt lat="44.46012533347388" lon="11.43620067514574"><ele>63.0</ele><time>2026-04-12T07:42:02Z</time></trkpt><trkpt lat="44.46006964485956" lon="11.43632703861459"><ele>63.0</ele><time>2026-04-12T07:42:03Z</time></trkpt><trkpt lat="44.46000988244199" lon="11.436451446856674"><ele>63.0</ele><time>2026-04-12T07:42:04Z</time></trkpt><trkpt lat="44.45994946889357" lon="11.43657415637579"><ele>63.0</ele><time>2026-04-12T07:42:05Z</time></trkpt><trkpt lat="44.45989258655571" lon="11.43669440510817"><ele>63.0</ele><time>2026-04-12T07:42:06Z</time></trkpt><trkpt lat="44.45983504732984" lon="11.436812676558361"><ele>63.0</ele><time>2026-04-12T07:42:07Z</time></trkpt><trkpt lat="44.459779504173106" lon="11.43691710576032"><ele>63.0</ele><time>2026-04-12T07:42:08Z</time></trkpt><trkpt lat="44.45972806040014" lon="11.437016884693275"><ele>63.0</ele><time>2026-04-12T07:42:09Z</time></trkpt><trkpt lat="44.45967201254517" lon="11.437108113333595"><ele>63.0</ele><time>2026-04-12T07:42:10Z</time></trkpt><trkpt lat="44.45961833453003" lon="11.437203824282324"><ele>62.5</ele><time>2026-04-12T07:42:11Z</time></trkpt><trkpt lat="44.459565467613295" lon="11.437297962816583"><ele>62.0</ele><time>2026-04-12T07:42:12Z</time></trkpt><trkpt lat="44.45950877939475" lon="11.43739321639517"><ele>61.5</ele><time>2026-04-12T07:42:13Z</time></trkpt><trkpt lat="44.45945073083451" lon="11.437487358833845"><ele>61.0</ele><time>2026-04-12T07:42:14Z</time></trkpt><trkpt lat="44.45939515794091" lon="11.437582534915729"><ele>60.5</ele><time>2026-04-12T07:42:15Z</time></trkpt><trkpt lat="44.45934100786887" lon="11.437676236464474"><ele>60.0</ele><time>2026-04-12T07:42:16Z</time></trkpt><trkpt lat="44.4592861256533" lon="11.437766928212593"><ele>60.0</ele><time>2026-04-12T07:42:17Z</time></trkpt><trkpt lat="44.459232247675864" lon="11.437855681607003"><ele>60.0</ele><time>2026-04-12T07:42:18Z</time></trkpt><trkpt lat="44.459179460571754" lon="11.437945045123906"><ele>60.0</ele><time>2026-04-12T07:42:19Z</time></trkpt><trkpt lat="44.45912921672801" lon="11.438035214945103"><ele>60.0</ele><time>2026-04-12T07:42:20Z</time></trkpt><trkpt lat="44.459080072564575" lon="11.438123155313788"><ele>60.0</ele><time>2026-04-12T07:42:21Z</time></trkpt><trkpt lat="44.459029919480315" lon="11.438212892993254"><ele>60.0</ele><time>2026-04-12T07:42:22Z</time></trkpt><trkpt lat="44.458979134098264" lon="11.438303768826318"><ele>59.833333333333336</ele><time>2026-04-12T07:42:23Z</time></trkpt><trkpt lat="44.45892612173051" lon="11.438394412337423"><ele>59.66666666666667</ele><time>2026-04-12T07:42:23.999Z</time></trkpt><trkpt lat="44.458870414544116" lon="11.438489239665584"><ele>59.5</ele><time>2026-04-12T07:42:24.999Z</time></trkpt><trkpt lat="44.45881178235113" lon="11.438583939093805"><ele>59.333333333333336</ele><time>2026-04-12T07:42:25.999Z</time></trkpt><trkpt lat="44.458752104492085" lon="11.438683798726117"><ele>59.16666666666667</ele><time>2026-04-12T07:42:26.999Z</time></trkpt><trkpt lat="44.45868979678833" lon="11.438784452475128"><ele>59.0</ele><time>2026-04-12T07:42:27.999Z</time></trkpt><trkpt lat="44.4586267031977" lon="11.438891617901946"><ele>58.800000000000004</ele><time>2026-04-12T07:42:28.999Z</time></trkpt><trkpt lat="44.45856763426115" lon="11.439001919550236"><ele>58.60000000000001</ele><time>2026-04-12T07:42:29.999Z</time></trkpt><trkpt lat="44.45850837878542" lon="11.439125859552682"><ele>58.4</ele><time>2026-04-12T07:42:30.999Z</time></trkpt><trkpt lat="44.45845022720581" lon="11.43925909308216"><ele>58.2</ele><time>2026-04-12T07:42:31.999Z</time></trkpt><trkpt lat="44.45839318837515" lon="11.439403779247113"><ele>58.0</ele><time>2026-04-12T07:42:32.999Z</time></trkpt><trkpt lat="44.45833651495566" lon="11.439547578402799"><ele>57.25</ele><time>2026-04-12T07:42:33.999Z</time></trkpt><trkpt lat="44.458278750724276" lon="11.439698199870094"><ele>56.5</ele><time>2026-04-12T07:42:34.999Z</time></trkpt><trkpt lat="44.45822249282272" lon="11.4398536248515"><ele>55.75</ele><time>2026-04-12T07:42:35.999Z</time></trkpt><trkpt lat="44.45816852592614" lon="11.440013365601562"><ele>55.0</ele><time>2026-04-12T07:42:36.999Z</time></trkpt><trkpt lat="44.45811520825436" lon="11.440171832770123"><ele>55.0</ele><time>2026-04-12T07:42:37.999Z</time></trkpt><trkpt lat="44.458061344491405" lon="11.44033210037217"><ele>55.0</ele><time>2026-04-12T07:42:38.999Z</time></trkpt><trkpt lat="44.45800820292902" lon="11.440490845460339"><ele>55.0</ele><time>2026-04-12T07:42:39.999Z</time></trkpt><trkpt lat="44.45795511833929" lon="11.440650861586255"><ele>55.0</ele><time>2026-04-12T07:42:40.999Z</time></trkpt><trkpt lat="44.45790248172078" lon="11.44080931187645"><ele>55.25</ele><time>2026-04-12T07:42:41.999Z</time></trkpt><trkpt lat="44.4578491346911" lon="11.440968573767755"><ele>55.5</ele><time>2026-04-12T07:42:42.999Z</time></trkpt><trkpt lat="44.45779682831074" lon="11.441126350506378"><ele>55.75</ele><time>2026-04-12T07:42:43.999Z</time></trkpt><trkpt lat="44.45774357464578" lon="11.441285699462503"><ele>56.0</ele><time>2026-04-12T07:42:44.999Z</time></trkpt><trkpt lat="44.45769074103531" lon="11.441443799048422"><ele>56.0</ele><time>2026-04-12T07:42:45.999Z</time></trkpt><trkpt lat="44.45763618078263" lon="11.441605811363823"><ele>56.0</ele><time>2026-04-12T07:42:46.999Z</time></trkpt><trkpt lat="44.45758379876828" lon="11.441767875537481"><ele>56.0</ele><time>2026-04-12T07:42:47.999Z</time></trkpt><trkpt lat="44.45753209995938" lon="11.441931938991361"><ele>56.0</ele><time>2026-04-12T07:42:48.999Z</time></trkpt><trkpt lat="44.457478621004306" lon="11.442091708983007"><ele>56.5</ele><time>2026-04-12T07:42:49.999Z</time></trkpt><trkpt lat="44.45742629399941" lon="11.442245690383862"><ele>57.0</ele><time>2026-04-12T07:42:50.999Z</time></trkpt><trkpt lat="44.457373165809194" lon="11.442402410470256"><ele>57.5</ele><time>2026-04-12T07:42:51.999Z</time></trkpt><trkpt lat="44.457318740660426" lon="11.442565457781672"><ele>58.0</ele><time>2026-04-12T07:42:52.999Z</time></trkpt><trkpt lat="44.45726126312273" lon="11.442737783734716"><ele>58.0</ele><time>2026-04-12T07:42:53.999Z</time></trkpt><trkpt lat="44.457202549844524" lon="11.442909251175287"><ele>58.0</ele><time>2026-04-12T07:42:54.999Z</time></trkpt><trkpt lat="44.457143767959614" lon="11.443082171484368"><ele>58.0</ele><time>2026-04-12T07:42:55.999Z</time></trkpt><trkpt lat="44.45708619306979" lon="11.443242374478869"><ele>58.0</ele><time>2026-04-12T07:42:56.999Z</time></trkpt><trkpt lat="44.457025573161474" lon="11.443415743336647"><ele>59.33333333333333</ele><time>2026-04-12T07:42:57.999Z</time></trkpt><trkpt lat="44.45696002020445" lon="11.443611452488446"><ele>60.66666666666667</ele><time>2026-04-12T07:42:58.999Z</time></trkpt><trkpt lat="44.45688983572442" lon="11.443816172507612"><ele>62.0</ele><time>2026-04-12T07:42:59.999Z</time></trkpt><trkpt lat="44.45682266076626" lon="11.44400887820884"><ele>62.0</ele><time>2026-04-12T07:43:00.999Z</time></trkpt><trkpt lat="44.456763361872696" lon="11.444186892098154"><ele>62.0</ele><time>2026-04-12T07:43:01.999Z</time></trkpt><trkpt lat="44.4567105073753" lon="11.444355857383071"><ele>62.0</ele><time>2026-04-12T07:43:02.999Z</time></trkpt><trkpt lat="44.45665368485846" lon="11.444520124630097"><ele>62.0</ele><time>2026-04-12T07:43:03.999Z</time></trkpt><trkpt lat="44.456596786451215" lon="11.444699119992858"><ele>61.5</ele><time>2026-04-12T07:43:04.999Z</time></trkpt><trkpt lat="44.456544642271524" lon="11.444869519656802"><ele>61.0</ele><time>2026-04-12T07:43:05.999Z</time></trkpt><trkpt lat="44.45648847678689" lon="11.445034130931997"><ele>60.5</ele><time>2026-04-12T07:43:06.999Z</time></trkpt><trkpt lat="44.45644001997539" lon="11.44517992337763"><ele>60.0</ele><time>2026-04-12T07:43:07.999Z</time></trkpt><trkpt lat="44.45639484132116" lon="11.445311651562545"><ele>60.0</ele><time>2026-04-12T07:43:08.999Z</time></trkpt><trkpt lat="44.45635453734587" lon="11.445438441164425"><ele>60.0</ele><time>2026-04-12T07:43:09.999Z</time></trkpt><trkpt lat="44.45631509084876" lon="11.44554636523415"><ele>60.0</ele><time>2026-04-12T07:43:10.999Z</time></trkpt><trkpt lat="44.456283255672666" lon="11.445635496228636"><ele>60.0</ele><time>2026-04-12T07:43:11.999Z</time></trkpt><trkpt lat="44.45625367402505" lon="11.445722335190696"><ele>60.0</ele><time>2026-04-12T07:43:12.999Z</time></trkpt><trkpt lat="44.45622612813397" lon="11.445809328027435"><ele>60.0</ele><time>2026-04-12T07:43:13.999Z</time></trkpt><trkpt lat="44.45618264720672" lon="11.445934467672515"><ele>61.0</ele><time>2026-04-12T07:43:14.999Z</time></trkpt><trkpt lat="44.45612346134632" lon="11.446115157760559"><ele>62.0</ele><time>2026-04-12T07:43:15.999Z</time></trkpt><trkpt lat="44.45605365850415" lon="11.446318981329268"><ele>63.0</ele><time>2026-04-12T07:43:16.999Z</time></trkpt><trkpt lat="44.45598692060416" lon="11.446528891340703"><ele>63.66666666666667</ele><time>2026-04-12T07:43:17.999Z</time></trkpt><trkpt lat="44.45591833960693" lon="11.44675170590347"><ele>64.33333333333334</ele><time>2026-04-12T07:43:18.998Z</time></trkpt><trkpt lat="44.455856480288176" lon="11.446959335219558"><ele>65.0</ele><time>2026-04-12T07:43:19.998Z</time></trkpt><trkpt lat="44.4557942929075" lon="11.447142794805409"><ele>65.0</ele><time>2026-04-12T07:43:20.998Z</time></trkpt><trkpt lat="44.45573547497272" lon="11.447306754997296"><ele>65.0</ele><time>2026-04-12T07:43:21.998Z</time></trkpt><trkpt lat="44.45567898364386" lon="11.447455362191867"><ele>65.0</ele><time>2026-04-12T07:43:22.998Z</time></trkpt><trkpt lat="44.45563389788726" lon="11.44759386347626"><ele>65.0</ele><time>2026-04-12T07:43:23.998Z</time></trkpt><trkpt lat="44.45558782725848" lon="11.447732414012872"><ele>65.0</ele><time>2026-04-12T07:43:24.998Z</time></trkpt><trkpt lat="44.45554011917918" lon="11.447869881694617"><ele>65.0</ele><time>2026-04-12T07:43:25.998Z</time></trkpt><trkpt lat="44.45549640478275" lon="11.448000942458393"><ele>65.0</ele><time>2026-04-12T07:43:26.998Z</time></trkpt><trkpt lat="44.4554554053101" lon="11.448116424709882"><ele>65.0</ele><time>2026-04-12T07:43:27.998Z</time></trkpt><trkpt lat="44.455414623280284" lon="11.448235076158007"><ele>65.0</ele><time>2026-04-12T07:43:28.998Z</time></trkpt><trkpt lat="44.45537875960155" lon="11.448341528895748"><ele>64.8</ele><time>2026-04-12T07:43:29.998Z</time></trkpt><trkpt lat="44.45533190709595" lon="11.448446839493904"><ele>64.6</ele><time>2026-04-12T07:43:30.998Z</time></trkpt><trkpt lat="44.45527010821344" lon="11.448551618958362"><ele>64.4</ele><time>2026-04-12T07:43:32Z</time></trkpt><trkpt lat="44.45524375377801" lon="11.448676120969573"><ele>64.2</ele><time>2026-04-12T07:43:33Z</time></trkpt><trkpt lat="44.4551442341626" lon="11.448765362114525"><ele>64.0</ele><time>2026-04-12T07:43:34Z</time></trkpt><trkpt lat="44.455107475111575" lon="11.448886250464525"><ele>63.400000000000006</ele><time>2026-04-12T07:43:35Z</time></trkpt><trkpt lat="44.45507357408496" lon="11.449026479329579"><ele>62.800000000000004</ele><time>2026-04-12T07:43:36Z</time></trkpt><trkpt lat="44.45504489251771" lon="11.449169176013331"><ele>62.199999999999996</ele><time>2026-04-12T07:43:37Z</time></trkpt><trkpt lat="44.45500866338746" lon="11.449319986977043"><ele>61.599999999999994</ele><time>2026-04-12T07:43:38Z</time></trkpt><trkpt lat="44.45496695713939" lon="11.449468332799091"><ele>61.0</ele><time>2026-04-12T07:43:39Z</time></trkpt><trkpt lat="44.45491655346616" lon="11.449618094094824"><ele>61.25</ele><time>2026-04-12T07:43:40Z</time></trkpt><trkpt lat="44.45485956257346" lon="11.449763804486626"><ele>61.5</ele><time>2026-04-12T07:43:41Z</time></trkpt><trkpt lat="44.4548006135922" lon="11.44991075231264"><ele>61.75</ele><time>2026-04-12T07:43:42Z</time></trkpt><trkpt lat="44.45474428570395" lon="11.450060548395195"><ele>62.0</ele><time>2026-04-12T07:43:43Z</time></trkpt><trkpt lat="44.45468668950258" lon="11.450211347256655"><ele>62.0</ele><time>2026-04-12T07:43:44Z</time></trkpt><trkpt lat="44.454629961328926" lon="11.45036374129122"><ele>62.0</ele><time>2026-04-12T07:43:45Z</time></trkpt><trkpt lat="44.45457215910644" lon="11.45051782803903"><ele>62.0</ele><time>2026-04-12T07:43:46Z</time></trkpt><trkpt lat="44.4545160409054" lon="11.4506681721213"><ele>62.0</ele><time>2026-04-12T07:43:47Z</time></trkpt><trkpt lat="44.454460199548286" lon="11.450818649397506"><ele>62.5</ele><time>2026-04-12T07:43:48Z</time></trkpt><trkpt lat="44.45440741999292" lon="11.450962863919164"><ele>63.0</ele><time>2026-04-12T07:43:49Z</time></trkpt><trkpt lat="44.454355144907176" lon="11.451104335220396"><ele>63.5</ele><time>2026-04-12T07:43:50Z</time></trkpt><trkpt lat="44.45430357192548" lon="11.451243895747362"><ele>64.0</ele><time>2026-04-12T07:43:51Z</time></trkpt><trkpt lat="44.45424926000341" lon="11.451385357204536"><ele>64.0</ele><time>2026-04-12T07:43:52Z</time></trkpt><trkpt lat="44.4541959640277" lon="11.451524994058644"><ele>64.0</ele><time>2026-04-12T07:43:53Z</time></trkpt><trkpt lat="44.45414416159614" lon="11.45166762268433"><ele>64.0</ele><time>2026-04-12T07:43:54Z</time></trkpt><trkpt lat="44.45409126337544" lon="11.45180136868852"><ele>64.0</ele><time>2026-04-12T07:43:55Z</time></trkpt><trkpt lat="44.45404181590638" lon="11.451924105031766"><ele>64.0</ele><time>2026-04-12T07:43:56Z</time></trkpt><trkpt lat="44.4540013461155" lon="11.452042288290258"><ele>64.60000000000001</ele><time>2026-04-12T07:43:57Z</time></trkpt><trkpt lat="44.453960878965155" lon="11.452149813868779"><ele>65.2</ele><time>2026-04-12T07:43:58Z</time></trkpt><trkpt lat="44.45392563308896" lon="11.452247288746404"><ele>65.80000000000001</ele><time>2026-04-12T07:43:59Z</time></trkpt><trkpt lat="44.45389129705711" lon="11.45232178954068"><ele>66.4</ele><time>2026-04-12T07:44:00Z</time></trkpt><trkpt lat="44.45379628333204" lon="11.452386025961802"><ele>67.0</ele><time>2026-04-12T07:44:02Z</time></trkpt><trkpt lat="44.45367994983974" lon="11.452337160039262"><ele>67.0</ele><time>2026-04-12T07:44:04Z</time></trkpt><trkpt lat="44.453611473495094" lon="11.452276736425365"><ele>67.0</ele><time>2026-04-12T07:44:05Z</time></trkpt><trkpt lat="44.453537029414214" lon="11.452203052821114"><ele>67.0</ele><time>2026-04-12T07:44:06Z</time></trkpt><trkpt lat="44.45344878591672" lon="11.452122175795678"><ele>67.0</ele><time>2026-04-12T07:44:07Z</time></trkpt><trkpt lat="44.453365965669164" lon="11.452046684876963"><ele>67.0</ele><time>2026-04-12T07:44:08Z</time></trkpt><trkpt lat="44.45328100173635" lon="11.45197547502767"><ele>67.0</ele><time>2026-04-12T07:44:09Z</time></trkpt><trkpt lat="44.45319924775196" lon="11.451891039727126"><ele>67.0</ele><time>2026-04-12T07:44:10Z</time></trkpt><trkpt lat="44.4531107918573" lon="11.45180390556175"><ele>67.0</ele><time>2026-04-12T07:44:11Z</time></trkpt><trkpt lat="44.45302236136528" lon="11.451723276675681"><ele>67.0</ele><time>2026-04-12T07:44:12Z</time></trkpt><trkpt lat="44.4529308636219" lon="11.451642934121816"><ele>67.0</ele><time>2026-04-12T07:44:13Z</time></trkpt><trkpt lat="44.452838167314646" lon="11.451567025692277"><ele>67.25</ele><time>2026-04-12T07:44:14Z</time></trkpt><trkpt lat="44.452743671940844" lon="11.451484515836999"><ele>67.5</ele><time>2026-04-12T07:44:15Z</time></trkpt><trkpt lat="44.452634952743956" lon="11.45141467998058"><ele>67.75</ele><time>2026-04-12T07:44:16Z</time></trkpt><trkpt lat="44.45252097205945" lon="11.451348603525119"><ele>68.0</ele><time>2026-04-12T07:44:17Z</time></trkpt><trkpt lat="44.45240196244611" lon="11.45128353658859"><ele>68.75</ele><time>2026-04-12T07:44:18Z</time></trkpt><trkpt lat="44.452279620968284" lon="11.451225691979273"><ele>69.5</ele><time>2026-04-12T07:44:19Z</time></trkpt><trkpt lat="44.45215488637152" lon="11.45116724307501"><ele>70.25</ele><time>2026-04-12T07:44:20Z</time></trkpt><trkpt lat="44.45202801488315" lon="11.451106048783307"><ele>71.0</ele><time>2026-04-12T07:44:21Z</time></trkpt><trkpt lat="44.45189722612422" lon="11.451057039960853"><ele>71.0</ele><time>2026-04-12T07:44:22Z</time></trkpt><trkpt lat="44.45176539342919" lon="11.451016850182555"><ele>71.0</ele><time>2026-04-12T07:44:23Z</time></trkpt><trkpt lat="44.451637767585154" lon="11.450978736226912"><ele>71.0</ele><time>2026-04-12T07:44:24Z</time></trkpt><trkpt lat="44.451510980186754" lon="11.450953367149394"><ele>71.0</ele><time>2026-04-12T07:44:25Z</time></trkpt><trkpt lat="44.45138325869654" lon="11.450903670531567"><ele>70.75</ele><time>2026-04-12T07:44:26Z</time></trkpt><trkpt lat="44.451254107303534" lon="11.450894616428792"><ele>70.5</ele><time>2026-04-12T07:44:27Z</time></trkpt><trkpt lat="44.45113213494693" lon="11.450841776501125"><ele>70.25</ele><time>2026-04-12T07:44:27.999Z</time></trkpt><trkpt lat="44.451008505546646" lon="11.450812210316645"><ele>70.0</ele><time>2026-04-12T07:44:28.999Z</time></trkpt><trkpt lat="44.450888206432694" lon="11.45078363246766"><ele>70.0</ele><time>2026-04-12T07:44:29.999Z</time></trkpt><trkpt lat="44.450769049214784" lon="11.450756082975262"><ele>70.0</ele><time>2026-04-12T07:44:30.999Z</time></trkpt><trkpt lat="44.45065032026534" lon="11.450729088134766"><ele>70.0</ele><time>2026-04-12T07:44:31.999Z</time></trkpt><trkpt lat="44.45054175084615" lon="11.450704403217243"><ele>70.0</ele><time>2026-04-12T07:44:32.999Z</time></trkpt><trkpt lat="44.45044307463289" lon="11.450681967692493"><ele>70.0</ele><time>2026-04-12T07:44:33.999Z</time></trkpt><trkpt lat="44.45034799350432" lon="11.450660349550608"><ele>70.0</ele><time>2026-04-12T07:44:34.999Z</time></trkpt><trkpt lat="44.45026423387152" lon="11.450641305495783"><ele>70.0</ele><time>2026-04-12T07:44:35.999Z</time></trkpt><trkpt lat="44.45018006125898" lon="11.45064471769787"><ele>70.0</ele><time>2026-04-12T07:44:36.999Z</time></trkpt><trkpt lat="44.45010584609017" lon="11.450604181711038"><ele>70.0</ele><time>2026-04-12T07:44:37.999Z</time></trkpt><trkpt lat="44.45003626145096" lon="11.450587836625651"><ele>70.0</ele><time>2026-04-12T07:44:38.999Z</time></trkpt><trkpt lat="44.44995993258521" lon="11.450586388933093"><ele>70.0</ele><time>2026-04-12T07:44:39.999Z</time></trkpt><trkpt lat="44.44987671735222" lon="11.450567844408566"><ele>70.0</ele><time>2026-04-12T07:44:40.999Z</time></trkpt><trkpt lat="44.449787151450856" lon="11.450542669070856"><ele>70.0</ele><time>2026-04-12T07:44:41.999Z</time></trkpt><trkpt lat="44.44969259445891" lon="11.450524882620275"><ele>70.0</ele><time>2026-04-12T07:44:42.999Z</time></trkpt><trkpt lat="44.4496007772407" lon="11.45050155298993"><ele>70.0</ele><time>2026-04-12T07:44:43.999Z</time></trkpt><trkpt lat="44.44951070416715" lon="11.450481601237977"><ele>70.0</ele><time>2026-04-12T07:44:44.999Z</time></trkpt><trkpt lat="44.449421169716956" lon="11.450460878105762"><ele>70.0</ele><time>2026-04-12T07:44:45.999Z</time></trkpt><trkpt lat="44.44933115855999" lon="11.450435700805526"><ele>70.0</ele><time>2026-04-12T07:44:46.999Z</time></trkpt><trkpt lat="44.449243450195524" lon="11.450403054645584"><ele>70.0</ele><time>2026-04-12T07:44:47.999Z</time></trkpt><trkpt lat="44.44916540364734" lon="11.450366765621402"><ele>70.0</ele><time>2026-04-12T07:44:48.999Z</time></trkpt><trkpt lat="44.44909606976765" lon="11.450341214734191"><ele>70.0</ele><time>2026-04-12T07:44:49.999Z</time></trkpt><trkpt lat="44.44902620777462" lon="11.450316382277535"><ele>70.0</ele><time>2026-04-12T07:44:50.999Z</time></trkpt><trkpt lat="44.448953831411536" lon="11.450283837449662"><ele>70.0</ele><time>2026-04-12T07:44:51.999Z</time></trkpt><trkpt lat="44.448880921351616" lon="11.450250706274625"><ele>70.0</ele><time>2026-04-12T07:44:52.999Z</time></trkpt><trkpt lat="44.448808203708126" lon="11.450222806770036"><ele>70.0</ele><time>2026-04-12T07:44:53.999Z</time></trkpt><trkpt lat="44.44873724631923" lon="11.45019911664512"><ele>70.0</ele><time>2026-04-12T07:44:54.999Z</time></trkpt><trkpt lat="44.448662779269824" lon="11.450164229026358"><ele>70.0</ele><time>2026-04-12T07:44:55.999Z</time></trkpt><trkpt lat="44.448582852735974" lon="11.450136016242771"><ele>70.0</ele><time>2026-04-12T07:44:56.999Z</time></trkpt><trkpt lat="44.44850855048764" lon="11.450108386472909"><ele>70.0</ele><time>2026-04-12T07:44:57.999Z</time></trkpt><trkpt lat="44.448441036864956" lon="11.450086421320721"><ele>70.0</ele><time>2026-04-12T07:44:58.999Z</time></trkpt><trkpt lat="44.44837119219069" lon="11.450063108969879"><ele>70.0</ele><time>2026-04-12T07:44:59.999Z</time></trkpt><trkpt lat="44.448295106135845" lon="11.450040531838786"><ele>70.0</ele><time>2026-04-12T07:45:00.999Z</time></trkpt><trkpt lat="44.448210299298914" lon="11.450018813772248"><ele>70.0</ele><time>2026-04-12T07:45:01.999Z</time></trkpt><trkpt lat="44.44812532427257" lon="11.449992742569387"><ele>70.0</ele><time>2026-04-12T07:45:02.999Z</time></trkpt><trkpt lat="44.44803890039481" lon="11.449964437586587"><ele>70.0</ele><time>2026-04-12T07:45:03.999Z</time></trkpt><trkpt lat="44.44795154951953" lon="11.449937989980814"><ele>70.0</ele><time>2026-04-12T07:45:04.999Z</time></trkpt><trkpt lat="44.447864878889106" lon="11.449910293108461"><ele>70.0</ele><time>2026-04-12T07:45:05.999Z</time></trkpt><trkpt lat="44.44777915642267" lon="11.44988323826807"><ele>70.0</ele><time>2026-04-12T07:45:06.999Z</time></trkpt><trkpt lat="44.44769223833781" lon="11.449857259091035"><ele>70.0</ele><time>2026-04-12T07:45:07.999Z</time></trkpt><trkpt lat="44.447604130727214" lon="11.449830427544637"><ele>70.0</ele><time>2026-04-12T07:45:08.999Z</time></trkpt><trkpt lat="44.44751989032649" lon="11.449802779739105"><ele>70.0</ele><time>2026-04-12T07:45:09.999Z</time></trkpt><trkpt lat="44.447434137650106" lon="11.449771299999384"><ele>70.0</ele><time>2026-04-12T07:45:10.999Z</time></trkpt><trkpt lat="44.44735008779447" lon="11.449740976033615"><ele>70.0</ele><time>2026-04-12T07:45:11.999Z</time></trkpt><trkpt lat="44.44727078522622" lon="11.44968119767484"><ele>70.0</ele><time>2026-04-12T07:45:12.999Z</time></trkpt><trkpt lat="44.44718624490749" lon="11.449654717107206"><ele>70.0</ele><time>2026-04-12T07:45:13.999Z</time></trkpt><trkpt lat="44.447105507091244" lon="11.449600422168812"><ele>70.0</ele><time>2026-04-12T07:45:14.999Z</time></trkpt><trkpt lat="44.44703774639741" lon="11.44955676798663"><ele>70.0</ele><time>2026-04-12T07:45:15.999Z</time></trkpt><trkpt lat="44.446977328312144" lon="11.449518845499876"><ele>70.0</ele><time>2026-04-12T07:45:16.999Z</time></trkpt><trkpt lat="44.446872031586324" lon="11.449448880177414"><ele>70.0</ele><time>2026-04-12T07:45:18.999Z</time></trkpt><trkpt lat="44.446804985991676" lon="11.449408101868796"><ele>70.0</ele><time>2026-04-12T07:45:20.999Z</time></trkpt><trkpt lat="44.44672405833243" lon="11.44935578284195"><ele>70.0</ele><time>2026-04-12T07:45:22.998Z</time></trkpt><trkpt lat="44.4466638828036" lon="11.449320829500923"><ele>70.0</ele><time>2026-04-12T07:45:23.998Z</time></trkpt><trkpt lat="44.44659754225106" lon="11.44927515503072"><ele>70.0</ele><time>2026-04-12T07:45:24.998Z</time></trkpt><trkpt lat="44.4465275260065" lon="11.449229403886905"><ele>70.0</ele><time>2026-04-12T07:45:25.998Z</time></trkpt><trkpt lat="44.44645665459445" lon="11.449185607514156"><ele>70.0</ele><time>2026-04-12T07:45:26.998Z</time></trkpt><trkpt lat="44.44638790180513" lon="11.449142886216508"><ele>70.0</ele><time>2026-04-12T07:45:27.998Z</time></trkpt><trkpt lat="44.44630479962095" lon="11.449087793994389"><ele>70.0</ele><time>2026-04-12T07:45:28.998Z</time></trkpt><trkpt lat="44.44619983933561" lon="11.44902896033811"><ele>70.75</ele><time>2026-04-12T07:45:29.998Z</time></trkpt><trkpt lat="44.44607769203815" lon="11.448954143721494"><ele>71.5</ele><time>2026-04-12T07:45:30.998Z</time></trkpt><trkpt lat="44.44595875913736" lon="11.448874652858553"><ele>72.25</ele><time>2026-04-12T07:45:31.998Z</time></trkpt><trkpt lat="44.44583642898537" lon="11.448800835987006"><ele>73.0</ele><time>2026-04-12T07:45:32.998Z</time></trkpt><trkpt lat="44.445713900077905" lon="11.448719972740756"><ele>73.75</ele><time>2026-04-12T07:45:33.998Z</time></trkpt><trkpt lat="44.44559368714475" lon="11.448645349193852"><ele>74.5</ele><time>2026-04-12T07:45:34.998Z</time></trkpt><trkpt lat="44.44545991480607" lon="11.448526943610338"><ele>75.25</ele><time>2026-04-12T07:45:35.998Z</time></trkpt><trkpt lat="44.445321587921434" lon="11.448439130374704"><ele>76.0</ele><time>2026-04-12T07:45:36.998Z</time></trkpt><trkpt lat="44.445193018885206" lon="11.448357511679866"><ele>76.25</ele><time>2026-04-12T07:45:38Z</time></trkpt><trkpt lat="44.44507469408519" lon="11.448282395995786"><ele>76.5</ele><time>2026-04-12T07:45:39Z</time></trkpt><trkpt lat="44.44496801988703" lon="11.448211571952701"><ele>76.75</ele><time>2026-04-12T07:45:40Z</time></trkpt><trkpt lat="44.444867529954394" lon="11.448145220688701"><ele>77.0</ele><time>2026-04-12T07:45:41Z</time></trkpt><trkpt lat="44.4447722302144" lon="11.448083427930237"><ele>77.0</ele><time>2026-04-12T07:45:42Z</time></trkpt><trkpt lat="44.44468604785962" lon="11.448033047424646"><ele>77.0</ele><time>2026-04-12T07:45:43Z</time></trkpt><trkpt lat="44.444594995512176" lon="11.448031642116339"><ele>77.0</ele><time>2026-04-12T07:45:44Z</time></trkpt><trkpt lat="44.44452014182721" lon="11.448023821833795"><ele>77.0</ele><time>2026-04-12T07:45:45Z</time></trkpt><trkpt lat="44.444448029415824" lon="11.448009659229832"><ele>77.0</ele><time>2026-04-12T07:45:46Z</time></trkpt><trkpt lat="44.44437768340362" lon="11.448053825134792"><ele>77.0</ele><time>2026-04-12T07:45:47Z</time></trkpt><trkpt lat="44.444312736151936" lon="11.448078731476496"><ele>76.6</ele><time>2026-04-12T07:45:48Z</time></trkpt><trkpt lat="44.44421985331586" lon="11.448115634102244"><ele>76.2</ele><time>2026-04-12T07:45:50Z</time></trkpt><trkpt lat="44.44414233061594" lon="11.448154034661778"><ele>75.8</ele><time>2026-04-12T07:45:58Z</time></trkpt><trkpt lat="44.4441654648553" lon="11.448367034669456"><ele>75.4</ele><time>2026-04-12T07:46:00Z</time></trkpt><trkpt lat="44.44419127226481" lon="11.448474150077043"><ele>75.0</ele><time>2026-04-12T07:46:01Z</time></trkpt><trkpt lat="44.444214957577984" lon="11.44858311635663"><ele>75.0</ele><time>2026-04-12T07:46:02Z</time></trkpt><trkpt lat="44.44423971665395" lon="11.448708337307577"><ele>75.0</ele><time>2026-04-12T07:46:03Z</time></trkpt><trkpt lat="44.44425113288315" lon="11.448848977108172"><ele>75.0</ele><time>2026-04-12T07:46:04Z</time></trkpt><trkpt lat="44.444238325798764" lon="11.44899273608499"><ele>75.0</ele><time>2026-04-12T07:46:05Z</time></trkpt><trkpt lat="44.44420019778444" lon="11.449121292398432"><ele>75.0</ele><time>2026-04-12T07:46:06Z</time></trkpt><trkpt lat="44.44415087772176" lon="11.449254942399511"><ele>74.25</ele><time>2026-04-12T07:46:07Z</time></trkpt><trkpt lat="44.44409596115448" lon="11.449397893658723"><ele>73.5</ele><time>2026-04-12T07:46:08Z</time></trkpt><trkpt lat="44.444028488528176" lon="11.449540562008703"><ele>72.75</ele><time>2026-04-12T07:46:09Z</time></trkpt><trkpt lat="44.4439559296687" lon="11.449683937079264"><ele>72.0</ele><time>2026-04-12T07:46:10Z</time></trkpt><trkpt lat="44.44391074791233" lon="11.449850082019516"><ele>72.0</ele><time>2026-04-12T07:46:11Z</time></trkpt><trkpt lat="44.4438732233515" lon="11.45001826489443"><ele>72.0</ele><time>2026-04-12T07:46:12Z</time></trkpt><trkpt lat="44.44381591960153" lon="11.450180873884738"><ele>72.0</ele><time>2026-04-12T07:46:13Z</time></trkpt><trkpt lat="44.44376249439559" lon="11.450332545013875"><ele>72.0</ele><time>2026-04-12T07:46:14Z</time></trkpt><trkpt lat="44.443708908502764" lon="11.450486908465"><ele>72.5</ele><time>2026-04-12T07:46:15Z</time></trkpt><trkpt lat="44.44365067482307" lon="11.450646482893534"><ele>73.0</ele><time>2026-04-12T07:46:16Z</time></trkpt><trkpt lat="44.44359397871673" lon="11.450799975996091"><ele>73.5</ele><time>2026-04-12T07:46:17Z</time></trkpt><trkpt lat="44.44353694338153" lon="11.450952533729813"><ele>74.0</ele><time>2026-04-12T07:46:18Z</time></trkpt><trkpt lat="44.44348292582612" lon="11.451105849139248"><ele>74.0</ele><time>2026-04-12T07:46:19Z</time></trkpt><trkpt lat="44.443428615623596" lon="11.451258916610337"><ele>74.0</ele><time>2026-04-12T07:46:20Z</time></trkpt><trkpt lat="44.44337606321905" lon="11.45141458903313"><ele>74.0</ele><time>2026-04-12T07:46:21Z</time></trkpt><trkpt lat="44.44332322117027" lon="11.451561194941887"><ele>74.0</ele><time>2026-04-12T07:46:22Z</time></trkpt><trkpt lat="44.443269745048916" lon="11.45170684560934"><ele>74.4</ele><time>2026-04-12T07:46:23Z</time></trkpt><trkpt lat="44.443211966624595" lon="11.45185606475132"><ele>74.80000000000001</ele><time>2026-04-12T07:46:24Z</time></trkpt><trkpt lat="44.44316183947946" lon="11.452000456756144"><ele>75.19999999999999</ele><time>2026-04-12T07:46:25Z</time></trkpt><trkpt lat="44.44311361714461" lon="11.452127778386178"><ele>75.6</ele><time>2026-04-12T07:46:26Z</time></trkpt><trkpt lat="44.443069295645586" lon="11.452248623330123"><ele>76.0</ele><time>2026-04-12T07:46:27Z</time></trkpt><trkpt lat="44.443027616999935" lon="11.452361394243253"><ele>76.0</ele><time>2026-04-12T07:46:28Z</time></trkpt><trkpt lat="44.442988350828784" lon="11.452472476351796"><ele>76.0</ele><time>2026-04-12T07:46:29Z</time></trkpt><trkpt lat="44.44295510979339" lon="11.452568724078453"><ele>76.0</ele><time>2026-04-12T07:46:30Z</time></trkpt><trkpt lat="44.442924461303065" lon="11.45265115755239"><ele>76.0</ele><time>2026-04-12T07:46:30.999Z</time></trkpt><trkpt lat="44.44286225263738" lon="11.452773012003917"><ele>76.0</ele><time>2026-04-12T07:46:32.999Z</time></trkpt><trkpt lat="44.44277430310872" lon="11.452752216103901"><ele>76.0</ele><time>2026-04-12T07:46:34.999Z</time></trkpt><trkpt lat="44.44271477738205" lon="11.452707386716192"><ele>76.0</ele><time>2026-04-12T07:46:35.999Z</time></trkpt><trkpt lat="44.44265102712804" lon="11.452643805853086"><ele>76.0</ele><time>2026-04-12T07:46:36.999Z</time></trkpt><trkpt lat="44.4425751667772" lon="11.452572120597992"><ele>76.0</ele><time>2026-04-12T07:46:37.999Z</time></trkpt><trkpt lat="44.442488545616655" lon="11.452494641524348"><ele>76.0</ele><time>2026-04-12T07:46:38.999Z</time></trkpt><trkpt lat="44.44239191594271" lon="11.452411330270328"><ele>76.0</ele><time>2026-04-12T07:46:39.999Z</time></trkpt><trkpt lat="44.44229889279095" lon="11.452331096235469"><ele>76.0</ele><time>2026-04-12T07:46:40.999Z</time></trkpt><trkpt lat="44.44220403894883" lon="11.452246330030874"><ele>76.0</ele><time>2026-04-12T07:46:41.999Z</time></trkpt><trkpt lat="44.44209923175264" lon="11.452157462798494"><ele>76.0</ele><time>2026-04-12T07:46:42.999Z</time></trkpt><trkpt lat="44.441991220766695" lon="11.452065086421397"><ele>76.0</ele><time>2026-04-12T07:46:43.999Z</time></trkpt><trkpt lat="44.44187661740929" lon="11.45196974741846"><ele>76.5</ele><time>2026-04-12T07:46:44.999Z</time></trkpt><trkpt lat="44.44176225318302" lon="11.451871209146127"><ele>77.0</ele><time>2026-04-12T07:46:45.999Z</time></trkpt><trkpt lat="44.441652130223396" lon="11.45177616422076"><ele>77.5</ele><time>2026-04-12T07:46:46.999Z</time></trkpt><trkpt lat="44.441552115213106" lon="11.451691052249657"><ele>78.0</ele><time>2026-04-12T07:46:47.999Z</time></trkpt><trkpt lat="44.441458397426864" lon="11.451620568430004"><ele>78.0</ele><time>2026-04-12T07:46:48.999Z</time></trkpt><trkpt lat="44.44137681381002" lon="11.451573988170239"><ele>78.0</ele><time>2026-04-12T07:46:49.999Z</time></trkpt><trkpt lat="44.441296420225555" lon="11.451558382382645"><ele>78.0</ele><time>2026-04-12T07:46:50.999Z</time></trkpt><trkpt lat="44.44122341874985" lon="11.451586366677645"><ele>78.0</ele><time>2026-04-12T07:46:51.999Z</time></trkpt><trkpt lat="44.44115763031766" lon="11.451655595381812"><ele>78.0</ele><time>2026-04-12T07:46:52.999Z</time></trkpt><trkpt lat="44.44109785179027" lon="11.451757973511203"><ele>78.0</ele><time>2026-04-12T07:46:53.999Z</time></trkpt><trkpt lat="44.44105236521691" lon="11.451874584136705"><ele>77.8</ele><time>2026-04-12T07:46:54.999Z</time></trkpt><trkpt lat="44.44101669889027" lon="11.45201050152605"><ele>77.6</ele><time>2026-04-12T07:46:55.999Z</time></trkpt><trkpt lat="44.440975384423645" lon="11.452151300649865"><ele>77.4</ele><time>2026-04-12T07:46:56.999Z</time></trkpt><trkpt lat="44.44093079089447" lon="11.452298956005858"><ele>77.2</ele><time>2026-04-12T07:46:57.999Z</time></trkpt><trkpt lat="44.44088189720288" lon="11.452452235650236"><ele>77.0</ele><time>2026-04-12T07:46:58.999Z</time></trkpt><trkpt lat="44.440830305444514" lon="11.452609999367978"><ele>77.0</ele><time>2026-04-12T07:46:59.999Z</time></trkpt><trkpt lat="44.44077701953461" lon="11.45277356643913"><ele>77.0</ele><time>2026-04-12T07:47:00.999Z</time></trkpt><trkpt lat="44.440724339399" lon="11.452939539936512"><ele>77.0</ele><time>2026-04-12T07:47:01.999Z</time></trkpt><trkpt lat="44.44067083208845" lon="11.453104060592167"><ele>77.0</ele><time>2026-04-12T07:47:02.999Z</time></trkpt><trkpt lat="44.440613076003046" lon="11.453281433625339"><ele>77.66666666666667</ele><time>2026-04-12T07:47:03.999Z</time></trkpt><trkpt lat="44.44054332510018" lon="11.453499382769117"><ele>78.33333333333333</ele><time>2026-04-12T07:47:04.999Z</time></trkpt><trkpt lat="44.44047116541763" lon="11.453731319579816"><ele>79.0</ele><time>2026-04-12T07:47:05.999Z</time></trkpt><trkpt lat="44.44040347149402" lon="11.453935765261152"><ele>80.0</ele><time>2026-04-12T07:47:06.999Z</time></trkpt><trkpt lat="44.44034425520216" lon="11.454118748545728"><ele>81.0</ele><time>2026-04-12T07:47:07.999Z</time></trkpt><trkpt lat="44.4402828434465" lon="11.45432533580803"><ele>82.0</ele><time>2026-04-12T07:47:08.999Z</time></trkpt><trkpt lat="44.44021740738013" lon="11.45458900744259"><ele>81.33333333333333</ele><time>2026-04-12T07:47:09.999Z</time></trkpt><trkpt lat="44.440149877822236" lon="11.454878968187325"><ele>80.66666666666667</ele><time>2026-04-12T07:47:10.999Z</time></trkpt><trkpt lat="44.4400900435286" lon="11.455142190338965"><ele>80.0</ele><time>2026-04-12T07:47:11.999Z</time></trkpt><trkpt lat="44.44003787548669" lon="11.45537178718162"><ele>80.25</ele><time>2026-04-12T07:47:12.999Z</time></trkpt><trkpt lat="44.43999081495024" lon="11.455587673359801"><ele>80.5</ele><time>2026-04-12T07:47:13.999Z</time></trkpt><trkpt lat="44.43994923019719" lon="11.455786479511175"><ele>80.75</ele><time>2026-04-12T07:47:14.999Z</time></trkpt><trkpt lat="44.43988999564232" lon="11.455963915441778"><ele>81.0</ele><time>2026-04-12T07:47:15.999Z</time></trkpt><trkpt lat="44.4398463176651" lon="11.4561462206714"><ele>81.25</ele><time>2026-04-12T07:47:16.999Z</time></trkpt><trkpt lat="44.439801631956776" lon="11.456333569940686"><ele>81.5</ele><time>2026-04-12T07:47:17.999Z</time></trkpt><trkpt lat="44.43976951963709" lon="11.45651767877982"><ele>81.75</ele><time>2026-04-12T07:47:18.999Z</time></trkpt><trkpt lat="44.439723916942825" lon="11.456696726860587"><ele>82.0</ele><time>2026-04-12T07:47:19.999Z</time></trkpt><trkpt lat="44.43968205049763" lon="11.456875540410113"><ele>82.0</ele><time>2026-04-12T07:47:20.999Z</time></trkpt><trkpt lat="44.43964009313524" lon="11.45705253475286"><ele>82.0</ele><time>2026-04-12T07:47:21.999Z</time></trkpt><trkpt lat="44.439598788753834" lon="11.457228163149537"><ele>82.0</ele><time>2026-04-12T07:47:22.999Z</time></trkpt><trkpt lat="44.439557305653516" lon="11.457402984159698"><ele>82.0</ele><time>2026-04-12T07:47:23.999Z</time></trkpt><trkpt lat="44.439517113064106" lon="11.457577175673851"><ele>82.25</ele><time>2026-04-12T07:47:24.998Z</time></trkpt><trkpt lat="44.439476624558345" lon="11.457751900827727"><ele>82.5</ele><time>2026-04-12T07:47:25.998Z</time></trkpt><trkpt lat="44.43943497428962" lon="11.45792239617656"><ele>82.75</ele><time>2026-04-12T07:47:26.998Z</time></trkpt><trkpt lat="44.4393928643961" lon="11.45808993697671"><ele>83.0</ele><time>2026-04-12T07:47:27.998Z</time></trkpt><trkpt lat="44.43935263211895" lon="11.45825895038825"><ele>83.75</ele><time>2026-04-12T07:47:28.998Z</time></trkpt><trkpt lat="44.43931561802882" lon="11.458429189449177"><ele>84.5</ele><time>2026-04-12T07:47:29.998Z</time></trkpt><trkpt lat="44.439281401257865" lon="11.45859294458258"><ele>85.25</ele><time>2026-04-12T07:47:30.998Z</time></trkpt><trkpt lat="44.439245890400606" lon="11.458745492570566"><ele>86.0</ele><time>2026-04-12T07:47:31.998Z</time></trkpt><trkpt lat="44.43920757623076" lon="11.458900111264125"><ele>86.0</ele><time>2026-04-12T07:47:32.998Z</time></trkpt><trkpt lat="44.439165467111216" lon="11.459056412957445"><ele>86.0</ele><time>2026-04-12T07:47:33.998Z</time></trkpt><trkpt lat="44.439118890211894" lon="11.459215654007767"><ele>86.0</ele><time>2026-04-12T07:47:34.998Z</time></trkpt><trkpt lat="44.43906953899229" lon="11.459375339855999"><ele>86.0</ele><time>2026-04-12T07:47:35.998Z</time></trkpt><trkpt lat="44.439016506996474" lon="11.459527306633813"><ele>85.0</ele><time>2026-04-12T07:47:36.998Z</time></trkpt><trkpt lat="44.438954674067816" lon="11.459679123202639"><ele>84.0</ele><time>2026-04-12T07:47:37.998Z</time></trkpt><trkpt lat="44.438893198705586" lon="11.459833180143312"><ele>83.0</ele><time>2026-04-12T07:47:38.998Z</time></trkpt><trkpt lat="44.43883557990158" lon="11.459984850752733"><ele>82.0</ele><time>2026-04-12T07:47:39.998Z</time></trkpt><trkpt lat="44.43877381688822" lon="11.46014007707271"><ele>81.75</ele><time>2026-04-12T07:47:40.998Z</time></trkpt><trkpt lat="44.438710165144656" lon="11.460297249351871"><ele>81.5</ele><time>2026-04-12T07:47:41.998Z</time></trkpt><trkpt lat="44.43864736219418" lon="11.460453578816965"><ele>81.25</ele><time>2026-04-12T07:47:43Z</time></trkpt><trkpt lat="44.43858249048071" lon="11.460605318210034"><ele>81.0</ele><time>2026-04-12T07:47:44Z</time></trkpt><trkpt lat="44.43848543710048" lon="11.460724437635227"><ele>81.66666666666667</ele><time>2026-04-12T07:47:45Z</time></trkpt><trkpt lat="44.438377442499046" lon="11.4608668018399"><ele>82.33333333333334</ele><time>2026-04-12T07:47:46Z</time></trkpt><trkpt lat="44.438256267331916" lon="11.461019134882784"><ele>83.0</ele><time>2026-04-12T07:47:47Z</time></trkpt><trkpt lat="44.438155924902524" lon="11.461168024175294"><ele>82.25</ele><time>2026-04-12T07:47:48Z</time></trkpt><trkpt lat="44.4380481299987" lon="11.461283212330294"><ele>81.5</ele><time>2026-04-12T07:47:49Z</time></trkpt><trkpt lat="44.43794228451107" lon="11.461381686396807"><ele>80.75</ele><time>2026-04-12T07:47:50Z</time></trkpt><trkpt lat="44.437841112397145" lon="11.461470604072373"><ele>80.0</ele><time>2026-04-12T07:47:51Z</time></trkpt><trkpt lat="44.43774696192557" lon="11.461550081070946"><ele>80.0</ele><time>2026-04-12T07:47:52Z</time></trkpt><trkpt lat="44.43765586273933" lon="11.461620964704869"><ele>80.0</ele><time>2026-04-12T07:47:53Z</time></trkpt><trkpt lat="44.43756965161216" lon="11.461695213741937"><ele>80.0</ele><time>2026-04-12T07:47:54Z</time></trkpt><trkpt lat="44.43749230285202" lon="11.461778572778044"><ele>80.0</ele><time>2026-04-12T07:47:55Z</time></trkpt><trkpt lat="44.43742255559976" lon="11.461872217846736"><ele>80.0</ele><time>2026-04-12T07:47:56Z</time></trkpt><trkpt lat="44.43735922484244" lon="11.461984154240385"><ele>80.0</ele><time>2026-04-12T07:47:57Z</time></trkpt><trkpt lat="44.437295847908764" lon="11.462111290180067"><ele>80.0</ele><time>2026-04-12T07:47:58Z</time></trkpt><trkpt lat="44.437226961984365" lon="11.462240925895387"><ele>80.0</ele><time>2026-04-12T07:47:59Z</time></trkpt><trkpt lat="44.437157904929535" lon="11.462372940493067"><ele>80.0</ele><time>2026-04-12T07:48:00Z</time></trkpt><trkpt lat="44.4370905276445" lon="11.462503048773737"><ele>80.6</ele><time>2026-04-12T07:48:01Z</time></trkpt><trkpt lat="44.43702320735579" lon="11.462633931006792"><ele>81.2</ele><time>2026-04-12T07:48:02Z</time></trkpt><trkpt lat="44.43696141547734" lon="11.46276659476161"><ele>81.80000000000001</ele><time>2026-04-12T07:48:03Z</time></trkpt><trkpt lat="44.43690761945745" lon="11.462889139681842"><ele>82.4</ele><time>2026-04-12T07:48:04Z</time></trkpt><trkpt lat="44.43685928272345" lon="11.462988335893236"><ele>83.0</ele><time>2026-04-12T07:48:05Z</time></trkpt><trkpt lat="44.43681470957243" lon="11.46306648273188"><ele>83.0</ele><time>2026-04-12T07:48:06Z</time></trkpt><trkpt lat="44.436722480389406" lon="11.463136172593211"><ele>83.0</ele><time>2026-04-12T07:48:08Z</time></trkpt><trkpt lat="44.4366259541346" lon="11.463032911276265"><ele>83.0</ele><time>2026-04-12T07:48:10Z</time></trkpt><trkpt lat="44.436587466788765" lon="11.462950091935411"><ele>83.0</ele><time>2026-04-12T07:48:11Z</time></trkpt><trkpt lat="44.43652226428179" lon="11.462856927506321"><ele>83.0</ele><time>2026-04-12T07:48:12Z</time></trkpt><trkpt lat="44.43646233675262" lon="11.462721149239469"><ele>83.0</ele><time>2026-04-12T07:48:13Z</time></trkpt><trkpt lat="44.43640137306442" lon="11.46258481038266"><ele>83.0</ele><time>2026-04-12T07:48:14Z</time></trkpt><trkpt lat="44.43633185568339" lon="11.462464890369674"><ele>83.0</ele><time>2026-04-12T07:48:15Z</time></trkpt><trkpt lat="44.4362600308526" lon="11.462327885031266"><ele>83.0</ele><time>2026-04-12T07:48:16Z</time></trkpt><trkpt lat="44.436182873117076" lon="11.462179966041193"><ele>85.0</ele><time>2026-04-12T07:48:17Z</time></trkpt><trkpt lat="44.4361009739835" lon="11.462026241936256"><ele>87.0</ele><time>2026-04-12T07:48:18Z</time></trkpt><trkpt lat="44.43601662838747" lon="11.461878409651852"><ele>89.0</ele><time>2026-04-12T07:48:19Z</time></trkpt><trkpt lat="44.435927975242784" lon="11.461750050577358"><ele>91.0</ele><time>2026-04-12T07:48:20Z</time></trkpt><trkpt lat="44.4358238314143" lon="11.46164007014607"><ele>91.0</ele><time>2026-04-12T07:48:21Z</time></trkpt><trkpt lat="44.43570390245885" lon="11.461534281468225"><ele>91.0</ele><time>2026-04-12T07:48:22Z</time></trkpt><trkpt lat="44.43557600823826" lon="11.461422178888142"><ele>91.0</ele><time>2026-04-12T07:48:23Z</time></trkpt><trkpt lat="44.435456103301426" lon="11.461304547959156"><ele>91.0</ele><time>2026-04-12T07:48:24Z</time></trkpt><trkpt lat="44.43535745839764" lon="11.461170018291353"><ele>92.5</ele><time>2026-04-12T07:48:25Z</time></trkpt><trkpt lat="44.43525643366854" lon="11.461040403493156"><ele>94.0</ele><time>2026-04-12T07:48:26Z</time></trkpt><trkpt lat="44.435152189357275" lon="11.460920045692863"><ele>95.5</ele><time>2026-04-12T07:48:27Z</time></trkpt><trkpt lat="44.43505844949901" lon="11.460782810484499"><ele>97.0</ele><time>2026-04-12T07:48:28Z</time></trkpt><trkpt lat="44.434964584681225" lon="11.460650081300543"><ele>97.0</ele><time>2026-04-12T07:48:29Z</time></trkpt><trkpt lat="44.43487239020352" lon="11.460516473790504"><ele>97.0</ele><time>2026-04-12T07:48:30Z</time></trkpt><trkpt lat="44.43479318086277" lon="11.460375946852324"><ele>97.0</ele><time>2026-04-12T07:48:31Z</time></trkpt><trkpt lat="44.43470345019893" lon="11.460250530721098"><ele>97.0</ele><time>2026-04-12T07:48:32Z</time></trkpt><trkpt lat="44.43461512871433" lon="11.460131069278958"><ele>99.5</ele><time>2026-04-12T07:48:33Z</time></trkpt><trkpt lat="44.43452828856732" lon="11.460013611537015"><ele>102.0</ele><time>2026-04-12T07:48:33.999Z</time></trkpt><trkpt lat="44.43444232964269" lon="11.459897345586633"><ele>104.5</ele><time>2026-04-12T07:48:34.999Z</time></trkpt><trkpt lat="44.434344659910835" lon="11.459796689583962"><ele>107.0</ele><time>2026-04-12T07:48:35.999Z</time></trkpt><trkpt lat="44.434256080970876" lon="11.459676965068633"><ele>107.66666666666666</ele><time>2026-04-12T07:48:36.999Z</time></trkpt><trkpt lat="44.43415882587198" lon="11.459550414898782"><ele>108.33333333333334</ele><time>2026-04-12T07:48:37.999Z</time></trkpt><trkpt lat="44.434017806046704" lon="11.459438551018767"><ele>109.0</ele><time>2026-04-12T07:48:38.999Z</time></trkpt><trkpt lat="44.43386576202522" lon="11.459310834132976"><ele>109.75</ele><time>2026-04-12T07:48:39.999Z</time></trkpt><trkpt lat="44.43372875305125" lon="11.459201351144651"><ele>110.5</ele><time>2026-04-12T07:48:40.999Z</time></trkpt><trkpt lat="44.433610868954254" lon="11.45910631239536"><ele>111.25</ele><time>2026-04-12T07:48:41.999Z</time></trkpt><trkpt lat="44.43349723967441" lon="11.459016745764208"><ele>112.0</ele><time>2026-04-12T07:48:42.999Z</time></trkpt><trkpt lat="44.43340139950066" lon="11.458913787998389"><ele>112.0</ele><time>2026-04-12T07:48:43.999Z</time></trkpt><trkpt lat="44.433291315749315" lon="11.458850542037363"><ele>112.0</ele><time>2026-04-12T07:48:44.999Z</time></trkpt><trkpt lat="44.433200945596674" lon="11.458749792501209"><ele>112.0</ele><time>2026-04-12T07:48:45.999Z</time></trkpt><trkpt lat="44.43310257154212" lon="11.458669031602717"><ele>112.0</ele><time>2026-04-12T07:48:46.999Z</time></trkpt><trkpt lat="44.43300699697245" lon="11.458590411012684"><ele>112.6</ele><time>2026-04-12T07:48:47.999Z</time></trkpt><trkpt lat="44.432911508932456" lon="11.45851186164871"><ele>113.19999999999999</ele><time>2026-04-12T07:48:48.999Z</time></trkpt><trkpt lat="44.432816761930134" lon="11.458433921848087"><ele>113.8</ele><time>2026-04-12T07:48:49.999Z</time></trkpt><trkpt lat="44.432722410825725" lon="11.458356307716652"><ele>114.4</ele><time>2026-04-12T07:48:50.999Z</time></trkpt><trkpt lat="44.4326272692644" lon="11.45827842556913"><ele>115.0</ele><time>2026-04-12T07:48:51.999Z</time></trkpt><trkpt lat="44.43253441325471" lon="11.458202962027359"><ele>115.0</ele><time>2026-04-12T07:48:52.999Z</time></trkpt><trkpt lat="44.432437143967036" lon="11.458123911890137"><ele>115.0</ele><time>2026-04-12T07:48:53.999Z</time></trkpt><trkpt lat="44.43234224652668" lon="11.458046789271606"><ele>115.0</ele><time>2026-04-12T07:48:54.999Z</time></trkpt><trkpt lat="44.432246323486076" lon="11.45796883319641"><ele>115.0</ele><time>2026-04-12T07:48:55.999Z</time></trkpt><trkpt lat="44.432151323809656" lon="11.457891627518283"><ele>115.0</ele><time>2026-04-12T07:48:56.999Z</time></trkpt><trkpt lat="44.43205852154909" lon="11.457816207700589"><ele>115.6</ele><time>2026-04-12T07:48:57.999Z</time></trkpt><trkpt lat="44.43196521232621" lon="11.45774037584201"><ele>116.2</ele><time>2026-04-12T07:48:58.999Z</time></trkpt><trkpt lat="44.43187227929052" lon="11.45766484977686"><ele>116.80000000000001</ele><time>2026-04-12T07:48:59.999Z</time></trkpt><trkpt lat="44.43178111048148" lon="11.457590513175457"><ele>117.4</ele><time>2026-04-12T07:49:00.999Z</time></trkpt><trkpt lat="44.431690385713786" lon="11.457515307589356"><ele>118.0</ele><time>2026-04-12T07:49:01.999Z</time></trkpt><trkpt lat="44.431599427282904" lon="11.457439908301255"><ele>118.0</ele><time>2026-04-12T07:49:02.999Z</time></trkpt><trkpt lat="44.43151092194586" lon="11.457366542523141"><ele>118.00000000000001</ele><time>2026-04-12T07:49:03.999Z</time></trkpt><trkpt lat="44.43142259775112" lon="11.457293326850014"><ele>118.00000000000001</ele><time>2026-04-12T07:49:04.999Z</time></trkpt><trkpt lat="44.431335304355905" lon="11.457220965668512"><ele>118.0</ele><time>2026-04-12T07:49:05.999Z</time></trkpt><trkpt lat="44.4312495119657" lon="11.457150163542405"><ele>118.0</ele><time>2026-04-12T07:49:06.999Z</time></trkpt><trkpt lat="44.431160602491374" lon="11.457077382067817"><ele>118.4</ele><time>2026-04-12T07:49:07.999Z</time></trkpt><trkpt lat="44.431071308466905" lon="11.457004285674683"><ele>118.80000000000001</ele><time>2026-04-12T07:49:08.999Z</time></trkpt><trkpt lat="44.4309806544281" lon="11.456929829138861"><ele>119.2</ele><time>2026-04-12T07:49:09.999Z</time></trkpt><trkpt lat="44.43088755437657" lon="11.45685324459931"><ele>119.6</ele><time>2026-04-12T07:49:10.999Z</time></trkpt><trkpt lat="44.43078538934789" lon="11.456794416393725"><ele>120.0</ele><time>2026-04-12T07:49:11.999Z</time></trkpt><trkpt lat="44.43068764225894" lon="11.456705738543306"><ele>120.0</ele><time>2026-04-12T07:49:12.999Z</time></trkpt><trkpt lat="44.430591505075675" lon="11.456606063692035"><ele>120.0</ele><time>2026-04-12T07:49:13.999Z</time></trkpt><trkpt lat="44.43048967042667" lon="11.45651902410234"><ele>120.0</ele><time>2026-04-12T07:49:14.999Z</time></trkpt><trkpt lat="44.43039082423867" lon="11.456430383495936"><ele>120.0</ele><time>2026-04-12T07:49:15.999Z</time></trkpt><trkpt lat="44.430284888569695" lon="11.456357106936782"><ele>122.25</ele><time>2026-04-12T07:49:16.999Z</time></trkpt><trkpt lat="44.43018699021939" lon="11.456255373679646"><ele>124.5</ele><time>2026-04-12T07:49:17.999Z</time></trkpt><trkpt lat="44.43007886050634" lon="11.456163277077449"><ele>126.75</ele><time>2026-04-12T07:49:18.999Z</time></trkpt><trkpt lat="44.42998219263964" lon="11.456045232985561"><ele>129.0</ele><time>2026-04-12T07:49:19.999Z</time></trkpt><trkpt lat="44.42987119310154" lon="11.455969375232536"><ele>129.0</ele><time>2026-04-12T07:49:20.999Z</time></trkpt><trkpt lat="44.429770109061515" lon="11.455877343819022"><ele>129.0</ele><time>2026-04-12T07:49:21.999Z</time></trkpt><trkpt lat="44.42967009449986" lon="11.455779944156964"><ele>129.0</ele><time>2026-04-12T07:49:22.999Z</time></trkpt><trkpt lat="44.42956431376063" lon="11.455682900684955"><ele>129.0</ele><time>2026-04-12T07:49:23.999Z</time></trkpt><trkpt lat="44.42947266385961" lon="11.455604292252662"><ele>131.2</ele><time>2026-04-12T07:49:24.999Z</time></trkpt><trkpt lat="44.429396022326934" lon="11.455528482966269"><ele>133.4</ele><time>2026-04-12T07:49:25.999Z</time></trkpt><trkpt lat="44.4292975831437" lon="11.455522825620129"><ele>135.6</ele><time>2026-04-12T07:49:26.999Z</time></trkpt><trkpt lat="44.4292053003465" lon="11.455525275634685"><ele>137.8</ele><time>2026-04-12T07:49:27.998Z</time></trkpt><trkpt lat="44.42911557641723" lon="11.455545704480018"><ele>140.0</ele><time>2026-04-12T07:49:28.998Z</time></trkpt><trkpt lat="44.429031345549696" lon="11.455577002893543"><ele>140.0</ele><time>2026-04-12T07:49:29.998Z</time></trkpt><trkpt lat="44.428948564509476" lon="11.45561333594646"><ele>140.0</ele><time>2026-04-12T07:49:30.998Z</time></trkpt><trkpt lat="44.42886073114325" lon="11.455622467061758"><ele>140.0</ele><time>2026-04-12T07:49:31.998Z</time></trkpt><trkpt lat="44.42877472405075" lon="11.455647656876524"><ele>140.0</ele><time>2026-04-12T07:49:32.998Z</time></trkpt><trkpt lat="44.42868817667964" lon="11.455655241826374"><ele>140.0</ele><time>2026-04-12T07:49:33.998Z</time></trkpt><trkpt lat="44.42859150616919" lon="11.455629266762239"><ele>140.0</ele><time>2026-04-12T07:49:34.998Z</time></trkpt><trkpt lat="44.42849376280263" lon="11.45558896252581"><ele>140.4</ele><time>2026-04-12T07:49:35.998Z</time></trkpt><trkpt lat="44.42839004936347" lon="11.455545251033538"><ele>140.8</ele><time>2026-04-12T07:49:36.998Z</time></trkpt><trkpt lat="44.428285600980175" lon="11.455501673323953"><ele>141.2</ele><time>2026-04-12T07:49:37.998Z</time></trkpt><trkpt lat="44.428182556476266" lon="11.455458681489274"><ele>141.6</ele><time>2026-04-12T07:49:38.998Z</time></trkpt><trkpt lat="44.42809037381499" lon="11.455420221208884"><ele>142.0</ele><time>2026-04-12T07:49:39.998Z</time></trkpt><trkpt lat="44.42800104739658" lon="11.45538295266689"><ele>142.79999999999998</ele><time>2026-04-12T07:49:40.998Z</time></trkpt><trkpt lat="44.42791032498436" lon="11.455347665948608"><ele>143.6</ele><time>2026-04-12T07:49:41.998Z</time></trkpt><trkpt lat="44.42781677958038" lon="11.455315430069453"><ele>144.39999999999998</ele><time>2026-04-12T07:49:42.998Z</time></trkpt><trkpt lat="44.42772476313028" lon="11.455283779928694"><ele>145.2</ele><time>2026-04-12T07:49:43.998Z</time></trkpt><trkpt lat="44.42763340702514" lon="11.45525345208726"><ele>146.0</ele><time>2026-04-12T07:49:44.998Z</time></trkpt><trkpt lat="44.42754336237859" lon="11.455223335410999"><ele>146.0</ele><time>2026-04-12T07:49:45.998Z</time></trkpt><trkpt lat="44.42745668070693" lon="11.455194343571403"><ele>146.0</ele><time>2026-04-12T07:49:46.998Z</time></trkpt><trkpt lat="44.42737345933168" lon="11.455166509055813"><ele>146.0</ele><time>2026-04-12T07:49:47.998Z</time></trkpt><trkpt lat="44.42729321920971" lon="11.455138798560295"><ele>146.0</ele><time>2026-04-12T07:49:49Z</time></trkpt><trkpt lat="44.42721462781939" lon="11.455110904580229"><ele>146.0</ele><time>2026-04-12T07:49:50Z</time></trkpt><trkpt lat="44.4271359147784" lon="11.455082386731158"><ele>146.0</ele><time>2026-04-12T07:49:51Z</time></trkpt><trkpt lat="44.42705914817079" lon="11.455054227925782"><ele>146.5</ele><time>2026-04-12T07:49:52Z</time></trkpt><trkpt lat="44.426991087353656" lon="11.45502926246326"><ele>147.0</ele><time>2026-04-12T07:49:53Z</time></trkpt><trkpt lat="44.426928564659846" lon="11.45500632849679"><ele>147.5</ele><time>2026-04-12T07:49:54Z</time></trkpt><trkpt lat="44.42681361603134" lon="11.454961696065043"><ele>148.0</ele><time>2026-04-12T07:49:56Z</time></trkpt><trkpt lat="44.42675438627454" lon="11.454927717246925"><ele>148.5</ele><time>2026-04-12T07:49:57Z</time></trkpt><trkpt lat="44.42669462370321" lon="11.454879548699576"><ele>149.0</ele><time>2026-04-12T07:49:58Z</time></trkpt><trkpt lat="44.42663043092253" lon="11.454826903301102"><ele>149.0</ele><time>2026-04-12T07:49:59Z</time></trkpt><trkpt lat="44.42657323795306" lon="11.45475827748813"><ele>149.0</ele><time>2026-04-12T07:50:00Z</time></trkpt><trkpt lat="44.426496819328484" lon="11.454733786623063"><ele>149.0</ele><time>2026-04-12T07:50:01Z</time></trkpt><trkpt lat="44.426433197413125" lon="11.454677900334369"><ele>149.0</ele><time>2026-04-12T07:50:02Z</time></trkpt><trkpt lat="44.426367523432226" lon="11.454626061799749"><ele>149.0</ele><time>2026-04-12T07:50:03Z</time></trkpt><trkpt lat="44.42629782756274" lon="11.454581807903255"><ele>149.0</ele><time>2026-04-12T07:50:04Z</time></trkpt><trkpt lat="44.42622246838396" lon="11.454546322055677"><ele>149.33333333333331</ele><time>2026-04-12T07:50:05Z</time></trkpt><trkpt lat="44.42614094366612" lon="11.45451573810704"><ele>149.66666666666666</ele><time>2026-04-12T07:50:06Z</time></trkpt><trkpt lat="44.42605459416382" lon="11.454488922779172"><ele>150.0</ele><time>2026-04-12T07:50:07Z</time></trkpt><trkpt lat="44.42596759222883" lon="11.454462543154305"><ele>150.33333333333334</ele><time>2026-04-12T07:50:08Z</time></trkpt><trkpt lat="44.42588238487138" lon="11.454433534222591"><ele>150.66666666666669</ele><time>2026-04-12T07:50:09Z</time></trkpt><trkpt lat="44.42579800497325" lon="11.45440414007746"><ele>151.0</ele><time>2026-04-12T07:50:10Z</time></trkpt><trkpt lat="44.42571289929246" lon="11.454370886332699"><ele>151.0</ele><time>2026-04-12T07:50:11Z</time></trkpt><trkpt lat="44.42559639554407" lon="11.454426233988494"><ele>151.0</ele><time>2026-04-12T07:50:12Z</time></trkpt><trkpt lat="44.42550389681262" lon="11.454423685543379"><ele>151.0</ele><time>2026-04-12T07:50:13Z</time></trkpt><trkpt lat="44.42541137347932" lon="11.45441321763197"><ele>151.0</ele><time>2026-04-12T07:50:14Z</time></trkpt><trkpt lat="44.425318288843904" lon="11.454413002061791"><ele>151.0</ele><time>2026-04-12T07:50:15Z</time></trkpt><trkpt lat="44.42522462341663" lon="11.454406114314244"><ele>152.8</ele><time>2026-04-12T07:50:16Z</time></trkpt><trkpt lat="44.42513213639533" lon="11.45439128432538"><ele>154.6</ele><time>2026-04-12T07:50:17Z</time></trkpt><trkpt lat="44.425038646498194" lon="11.454386770371126"><ele>156.4</ele><time>2026-04-12T07:50:18Z</time></trkpt><trkpt lat="44.42494705706653" lon="11.454378363099845"><ele>158.2</ele><time>2026-04-12T07:50:19Z</time></trkpt><trkpt lat="44.42485683901523" lon="11.454400653585182"><ele>160.0</ele><time>2026-04-12T07:50:20Z</time></trkpt><trkpt lat="44.42476725634752" lon="11.45437702019648"><ele>160.0</ele><time>2026-04-12T07:50:21Z</time></trkpt><trkpt lat="44.42467831001035" lon="11.454365100828188"><ele>160.0</ele><time>2026-04-12T07:50:22Z</time></trkpt><trkpt lat="44.4245947837706" lon="11.454350114682633"><ele>160.0</ele><time>2026-04-12T07:50:23Z</time></trkpt><trkpt lat="44.4245220453606" lon="11.45435852426133"><ele>160.0</ele><time>2026-04-12T07:50:24Z</time></trkpt><trkpt lat="44.42446221244269" lon="11.454389800999849"><ele>160.0</ele><time>2026-04-12T07:50:25Z</time></trkpt><trkpt lat="44.42439963796288" lon="11.454449279460338"><ele>160.0</ele><time>2026-04-12T07:50:26Z</time></trkpt><trkpt lat="44.424329896242995" lon="11.454522400882691"><ele>162.83333333333334</ele><time>2026-04-12T07:50:27Z</time></trkpt><trkpt lat="44.42427489485753" lon="11.454607125491002"><ele>165.66666666666669</ele><time>2026-04-12T07:50:28Z</time></trkpt><trkpt lat="44.42420691550058" lon="11.454673211798347"><ele>168.5</ele><time>2026-04-12T07:50:29Z</time></trkpt><trkpt lat="44.42415418213927" lon="11.454756238614317"><ele>171.33333333333334</ele><time>2026-04-12T07:50:30Z</time></trkpt><trkpt lat="44.42409855598192" lon="11.454848839259995"><ele>174.16666666666666</ele><time>2026-04-12T07:50:31Z</time></trkpt><trkpt lat="44.4240487169027" lon="11.454935167050717"><ele>177.0</ele><time>2026-04-12T07:50:32Z</time></trkpt><trkpt lat="44.42400515700399" lon="11.45502123789461"><ele>177.33333333333334</ele><time>2026-04-12T07:50:33Z</time></trkpt><trkpt lat="44.423966207019944" lon="11.455107174007905"><ele>177.66666666666666</ele><time>2026-04-12T07:50:34Z</time></trkpt><trkpt lat="44.423932554910785" lon="11.455189472365761"><ele>178.0</ele><time>2026-04-12T07:50:35Z</time></trkpt><trkpt lat="44.42390226265985" lon="11.45530760579073"><ele>178.33333333333331</ele><time>2026-04-12T07:50:36Z</time></trkpt><trkpt lat="44.423870060535116" lon="11.455404663690041"><ele>178.66666666666666</ele><time>2026-04-12T07:50:37Z</time></trkpt><trkpt lat="44.42382507443709" lon="11.455529492452335"><ele>179.0</ele><time>2026-04-12T07:50:38.999Z</time></trkpt><trkpt lat="44.423797058531925" lon="11.455633946042886"><ele>182.5</ele><time>2026-04-12T07:50:40.999Z</time></trkpt><trkpt lat="44.423682154179836" lon="11.455811978729368"><ele>186.0</ele><time>2026-04-12T07:50:41.999Z</time></trkpt><trkpt lat="44.423610946760185" lon="11.455911869037083"><ele>189.5</ele><time>2026-04-12T07:50:42.999Z</time></trkpt><trkpt lat="44.423542070335934" lon="11.456010702153264"><ele>193.0</ele><time>2026-04-12T07:50:43.999Z</time></trkpt><trkpt lat="44.42346994065099" lon="11.456118014747892"><ele>193.0</ele><time>2026-04-12T07:50:44.999Z</time></trkpt><trkpt lat="44.423408179633284" lon="11.456209901389704"><ele>193.0</ele><time>2026-04-12T07:50:45.999Z</time></trkpt><trkpt lat="44.42334483538068" lon="11.456305803527215"><ele>193.0</ele><time>2026-04-12T07:50:46.999Z</time></trkpt><trkpt lat="44.42327983018144" lon="11.456404933347807"><ele>193.0</ele><time>2026-04-12T07:50:47.999Z</time></trkpt><trkpt lat="44.42321399854077" lon="11.456512031043259"><ele>193.0</ele><time>2026-04-12T07:50:48.999Z</time></trkpt><trkpt lat="44.42315096580817" lon="11.45664654914888"><ele>193.8</ele><time>2026-04-12T07:50:49.999Z</time></trkpt><trkpt lat="44.423062488604586" lon="11.456770358971198"><ele>194.60000000000002</ele><time>2026-04-12T07:50:50.999Z</time></trkpt><trkpt lat="44.42297868700085" lon="11.456884364827227"><ele>195.39999999999998</ele><time>2026-04-12T07:50:51.999Z</time></trkpt><trkpt lat="44.42290631631898" lon="11.45697859381002"><ele>196.2</ele><time>2026-04-12T07:50:52.999Z</time></trkpt><trkpt lat="44.42284228167988" lon="11.457067313021579"><ele>197.0</ele><time>2026-04-12T07:50:53.999Z</time></trkpt><trkpt lat="44.42277688728656" lon="11.457155223570734"><ele>193.0</ele><time>2026-04-12T07:50:54.999Z</time></trkpt><trkpt lat="44.42269675170556" lon="11.457263457195111"><ele>189.0</ele><time>2026-04-12T07:50:55.999Z</time></trkpt><trkpt lat="44.42261239309613" lon="11.457395123473237"><ele>185.0</ele><time>2026-04-12T07:50:56.999Z</time></trkpt><trkpt lat="44.42251068937203" lon="11.4575398200797"><ele>181.0</ele><time>2026-04-12T07:50:57.999Z</time></trkpt><trkpt lat="44.422413846591155" lon="11.457688317777931"><ele>181.0</ele><time>2026-04-12T07:50:58.999Z</time></trkpt><trkpt lat="44.42232622613924" lon="11.457812213948117"><ele>181.0</ele><time>2026-04-12T07:50:59.999Z</time></trkpt><trkpt lat="44.422251631450976" lon="11.457914610439762"><ele>181.0</ele><time>2026-04-12T07:51:00.999Z</time></trkpt><trkpt lat="44.42218663819621" lon="11.458002966700334"><ele>181.0</ele><time>2026-04-12T07:51:01.999Z</time></trkpt><trkpt lat="44.42212489064875" lon="11.458092813168438"><ele>181.0</ele><time>2026-04-12T07:51:02.999Z</time></trkpt><trkpt lat="44.422063745036056" lon="11.458178960061664"><ele>182.4</ele><time>2026-04-12T07:51:03.999Z</time></trkpt><trkpt lat="44.42201130237994" lon="11.458252753329957"><ele>183.8</ele><time>2026-04-12T07:51:04.999Z</time></trkpt><trkpt lat="44.42193109062245" lon="11.458371867576487"><ele>185.20000000000002</ele><time>2026-04-12T07:51:06.999Z</time></trkpt><trkpt lat="44.42186112579414" lon="11.458403868243748"><ele>186.60000000000002</ele><time>2026-04-12T07:51:09.999Z</time></trkpt><trkpt lat="44.42181689722218" lon="11.458319128013297"><ele>188.0</ele><time>2026-04-12T07:51:10.999Z</time></trkpt><trkpt lat="44.42174138623236" lon="11.45819215907431"><ele>188.0</ele><time>2026-04-12T07:51:12.999Z</time></trkpt><trkpt lat="44.42168788852474" lon="11.458048584624667"><ele>188.0</ele><time>2026-04-12T07:51:14.999Z</time></trkpt><trkpt lat="44.42174118388566" lon="11.457888426234128"><ele>188.0</ele><time>2026-04-12T07:51:16.999Z</time></trkpt><trkpt lat="44.42177525045543" lon="11.457769950183065"><ele>188.0</ele><time>2026-04-12T07:51:17.999Z</time></trkpt><trkpt lat="44.421828716776275" lon="11.457656656822905"><ele>188.0</ele><time>2026-04-12T07:51:18.999Z</time></trkpt><trkpt lat="44.42187134679281" lon="11.457546076078513"><ele>192.25</ele><time>2026-04-12T07:51:19.999Z</time></trkpt><trkpt lat="44.421909865306475" lon="11.457429671922315"><ele>196.5</ele><time>2026-04-12T07:51:20.999Z</time></trkpt><trkpt lat="44.42196149085781" lon="11.457245852448025"><ele>200.75</ele><time>2026-04-12T07:51:21.999Z</time></trkpt><trkpt lat="44.422008746496296" lon="11.457073777061874"><ele>205.0</ele><time>2026-04-12T07:51:22.999Z</time></trkpt><trkpt lat="44.42204009452505" lon="11.456900495488087"><ele>208.0</ele><time>2026-04-12T07:51:23.999Z</time></trkpt><trkpt lat="44.42207651655252" lon="11.456698285373303"><ele>211.0</ele><time>2026-04-12T07:51:24.999Z</time></trkpt><trkpt lat="44.42210877233646" lon="11.456598951665416"><ele>214.0</ele><time>2026-04-12T07:51:25.999Z</time></trkpt><trkpt lat="44.422134293285524" lon="11.456458454722972"><ele>217.0</ele><time>2026-04-12T07:51:26.999Z</time></trkpt><trkpt lat="44.42218733467017" lon="11.456279115349183"><ele>217.0</ele><time>2026-04-12T07:51:27.999Z</time></trkpt><trkpt lat="44.42222057254126" lon="11.456178708622808"><ele>217.0</ele><time>2026-04-12T07:51:28.999Z</time></trkpt><trkpt lat="44.422242824857996" lon="11.456074779021161"><ele>217.0</ele><time>2026-04-12T07:51:29.999Z</time></trkpt><trkpt lat="44.422291560931335" lon="11.456009203671611"><ele>217.0</ele><time>2026-04-12T07:51:30.999Z</time></trkpt><trkpt lat="44.42225839371339" lon="11.455905205445536"><ele>217.0</ele><time>2026-04-12T07:51:33.998Z</time></trkpt><trkpt lat="44.422106465385816" lon="11.455948172070356"><ele>217.8</ele><time>2026-04-12T07:51:35.998Z</time></trkpt><trkpt lat="44.42202096843411" lon="11.456013798219756"><ele>218.6</ele><time>2026-04-12T07:51:36.998Z</time></trkpt><trkpt lat="44.42192678578133" lon="11.456109049392483"><ele>219.40000000000003</ele><time>2026-04-12T07:51:37.998Z</time></trkpt><trkpt lat="44.42184978088544" lon="11.456197068969509"><ele>220.20000000000002</ele><time>2026-04-12T07:51:38.998Z</time></trkpt><trkpt lat="44.42176522873376" lon="11.456302883860964"><ele>221.0</ele><time>2026-04-12T07:51:39.998Z</time></trkpt><trkpt lat="44.421684383003495" lon="11.456421441108228"><ele>221.0</ele><time>2026-04-12T07:51:40.998Z</time></trkpt><trkpt lat="44.42160739311204" lon="11.456561534772161"><ele>221.0</ele><time>2026-04-12T07:51:41.998Z</time></trkpt><trkpt lat="44.42153699077736" lon="11.456710261143702"><ele>221.0</ele><time>2026-04-12T07:51:42.998Z</time></trkpt><trkpt lat="44.42146002450158" lon="11.456862613462471"><ele>221.0</ele><time>2026-04-12T07:51:43.998Z</time></trkpt><trkpt lat="44.42138836620248" lon="11.456972516172309"><ele>221.00000000000003</ele><time>2026-04-12T07:51:44.998Z</time></trkpt><trkpt lat="44.421319035793815" lon="11.457040732076214"><ele>221.0</ele><time>2026-04-12T07:51:45.998Z</time></trkpt><trkpt lat="44.42124989967" lon="11.457082883205976"><ele>221.0</ele><time>2026-04-12T07:51:46.998Z</time></trkpt><trkpt lat="44.42117498202084" lon="11.457091987932717"><ele>221.0</ele><time>2026-04-12T07:51:47.998Z</time></trkpt><trkpt lat="44.42108588097754" lon="11.457088385442693"><ele>221.00000000000003</ele><time>2026-04-12T07:51:48.998Z</time></trkpt><trkpt lat="44.42101185503706" lon="11.457054018255192"><ele>221.0</ele><time>2026-04-12T07:51:49.998Z</time></trkpt><trkpt lat="44.420931578187954" lon="11.457002977432762"><ele>223.8</ele><time>2026-04-12T07:51:50.998Z</time></trkpt><trkpt lat="44.42084408230259" lon="11.45693319521209"><ele>226.60000000000002</ele><time>2026-04-12T07:51:51.998Z</time></trkpt><trkpt lat="44.420752130341825" lon="11.45685003962054"><ele>229.4</ele><time>2026-04-12T07:51:52.998Z</time></trkpt><trkpt lat="44.420658518414" lon="11.45675679279488"><ele>232.2</ele><time>2026-04-12T07:51:53.998Z</time></trkpt><trkpt lat="44.420571780117434" lon="11.456664659017179"><ele>235.0</ele><time>2026-04-12T07:51:55Z</time></trkpt><trkpt lat="44.42050399933636" lon="11.456576490907706"><ele>233.0</ele><time>2026-04-12T07:51:56Z</time></trkpt><trkpt lat="44.420443510668385" lon="11.456477803705726"><ele>231.0</ele><time>2026-04-12T07:51:57Z</time></trkpt><trkpt lat="44.420373110522455" lon="11.456374808746206"><ele>229.0</ele><time>2026-04-12T07:51:58Z</time></trkpt><trkpt lat="44.42033198265174" lon="11.456270322273049"><ele>227.0</ele><time>2026-04-12T07:51:59Z</time></trkpt><trkpt lat="44.42026798108289" lon="11.456184003459748"><ele>225.0</ele><time>2026-04-12T07:52:00Z</time></trkpt><trkpt lat="44.42018617889631" lon="11.456119457186045"><ele>232.25</ele><time>2026-04-12T07:52:01Z</time></trkpt><trkpt lat="44.42007037174964" lon="11.456064863689626"><ele>239.5</ele><time>2026-04-12T07:52:02Z</time></trkpt><trkpt lat="44.419945401743156" lon="11.455972932909798"><ele>246.75</ele><time>2026-04-12T07:52:03Z</time></trkpt><trkpt lat="44.41984171207301" lon="11.455917067646473"><ele>254.0</ele><time>2026-04-12T07:52:04Z</time></trkpt><trkpt lat="44.41975778149374" lon="11.455864955414084"><ele>254.0</ele><time>2026-04-12T07:52:05Z</time></trkpt><trkpt lat="44.41965707007733" lon="11.455811063210344"><ele>253.99999999999997</ele><time>2026-04-12T07:52:06Z</time></trkpt><trkpt lat="44.41958132266175" lon="11.455721230638192"><ele>253.99999999999997</ele><time>2026-04-12T07:52:07Z</time></trkpt><trkpt lat="44.41950359421948" lon="11.455626260660265"><ele>254.0</ele><time>2026-04-12T07:52:08Z</time></trkpt><trkpt lat="44.41943252310458" lon="11.455535267477272"><ele>254.0</ele><time>2026-04-12T07:52:09Z</time></trkpt><trkpt lat="44.41936313116191" lon="11.455454951735309"><ele>257.4</ele><time>2026-04-12T07:52:10Z</time></trkpt><trkpt lat="44.41929685228587" lon="11.455377578928422"><ele>260.79999999999995</ele><time>2026-04-12T07:52:11Z</time></trkpt><trkpt lat="44.41921737585318" lon="11.455312182641682"><ele>264.20000000000005</ele><time>2026-04-12T07:52:12Z</time></trkpt><trkpt lat="44.41911718119597" lon="11.455242743712748"><ele>267.6</ele><time>2026-04-12T07:52:13Z</time></trkpt><trkpt lat="44.419000097057356" lon="11.455178632633016"><ele>271.0</ele><time>2026-04-12T07:52:14Z</time></trkpt><trkpt lat="44.41886742482735" lon="11.455092734847971"><ele>269.6</ele><time>2026-04-12T07:52:15Z</time></trkpt><trkpt lat="44.41874503204248" lon="11.455025870202272"><ele>268.20000000000005</ele><time>2026-04-12T07:52:16Z</time></trkpt><trkpt lat="44.4186566583055" lon="11.454979045013928"><ele>266.79999999999995</ele><time>2026-04-12T07:52:17Z</time></trkpt><trkpt lat="44.418565002108444" lon="11.454928930346913"><ele>265.4</ele><time>2026-04-12T07:52:18Z</time></trkpt><trkpt lat="44.41846665454918" lon="11.454881737571336"><ele>264.0</ele><time>2026-04-12T07:52:19Z</time></trkpt><trkpt lat="44.41838763470934" lon="11.454817496040388"><ele>264.0</ele><time>2026-04-12T07:52:20Z</time></trkpt><trkpt lat="44.41833134966713" lon="11.454749974314431"><ele>264.0</ele><time>2026-04-12T07:52:21Z</time></trkpt><trkpt lat="44.41827751518742" lon="11.45468324667072"><ele>264.0</ele><time>2026-04-12T07:52:22Z</time></trkpt><trkpt lat="44.41822829081722" lon="11.45460598014776"><ele>264.0</ele><time>2026-04-12T07:52:23Z</time></trkpt><trkpt lat="44.41820012822669" lon="11.454473160950977"><ele>264.0</ele><time>2026-04-12T07:52:24Z</time></trkpt><trkpt lat="44.41816638640267" lon="11.45433573381289"><ele>264.0</ele><time>2026-04-12T07:52:25Z</time></trkpt><trkpt lat="44.4181260775953" lon="11.45418690972609"><ele>266.3333333333333</ele><time>2026-04-12T07:52:26Z</time></trkpt><trkpt lat="44.41808111277364" lon="11.454052019870394"><ele>268.6666666666667</ele><time>2026-04-12T07:52:27Z</time></trkpt><trkpt lat="44.41804156954355" lon="11.453925166434917"><ele>271.0</ele><time>2026-04-12T07:52:28Z</time></trkpt><trkpt lat="44.41801468645367" lon="11.453828833155828"><ele>273.33333333333337</ele><time>2026-04-12T07:52:29Z</time></trkpt><trkpt lat="44.41796838257547" lon="11.453747400365282"><ele>275.6666666666667</ele><time>2026-04-12T07:52:30Z</time></trkpt><trkpt lat="44.41791811487757" lon="11.453679245620835"><ele>278.0</ele><time>2026-04-12T07:52:31Z</time></trkpt><trkpt lat="44.41784811165808" lon="11.453623518409513"><ele>279.5</ele><time>2026-04-12T07:52:32Z</time></trkpt><trkpt lat="44.41776292167274" lon="11.453595693536856"><ele>281.0</ele><time>2026-04-12T07:52:33Z</time></trkpt><trkpt lat="44.417647349702506" lon="11.453520926752512"><ele>282.5</ele><time>2026-04-12T07:52:34Z</time></trkpt><trkpt lat="44.41751147701714" lon="11.45346424164786"><ele>284.0</ele><time>2026-04-12T07:52:35Z</time></trkpt><trkpt lat="44.41740604559963" lon="11.453423194457898"><ele>284.0</ele><time>2026-04-12T07:52:36Z</time></trkpt><trkpt lat="44.41731489829881" lon="11.453388288069966"><ele>284.0</ele><time>2026-04-12T07:52:37Z</time></trkpt><trkpt lat="44.41722053463535" lon="11.453356056681649"><ele>284.0</ele><time>2026-04-12T07:52:38Z</time></trkpt><trkpt lat="44.41710881532734" lon="11.453323080103077"><ele>284.0</ele><time>2026-04-12T07:52:39Z</time></trkpt><trkpt lat="44.41700612309983" lon="11.453317539565493"><ele>284.0</ele><time>2026-04-12T07:52:40Z</time></trkpt><trkpt lat="44.41693105918121" lon="11.453273789128618"><ele>283.5</ele><time>2026-04-12T07:52:41Z</time></trkpt><trkpt lat="44.41685978389146" lon="11.453251199901324"><ele>283.0</ele><time>2026-04-12T07:52:41.999Z</time></trkpt><trkpt lat="44.416769477393686" lon="11.453218284186613"><ele>282.5</ele><time>2026-04-12T07:52:42.999Z</time></trkpt><trkpt lat="44.41664025144751" lon="11.453149642473644"><ele>282.0</ele><time>2026-04-12T07:52:43.999Z</time></trkpt><trkpt lat="44.41649936892033" lon="11.453059779323237"><ele>282.0</ele><time>2026-04-12T07:52:44.999Z</time></trkpt><trkpt lat="44.416356854228724" lon="11.452962909398735"><ele>282.0</ele><time>2026-04-12T07:52:45.999Z</time></trkpt><trkpt lat="44.41622106514982" lon="11.452884660006026"><ele>282.0</ele><time>2026-04-12T07:52:46.999Z</time></trkpt><trkpt lat="44.41610368610086" lon="11.452790184406954"><ele>282.0</ele><time>2026-04-12T07:52:47.999Z</time></trkpt><trkpt lat="44.415993033346204" lon="11.452713421121759"><ele>280.2</ele><time>2026-04-12T07:52:48.999Z</time></trkpt><trkpt lat="44.41587964406566" lon="11.452655261757368"><ele>278.4</ele><time>2026-04-12T07:52:49.999Z</time></trkpt><trkpt lat="44.41578790179305" lon="11.452582685833605"><ele>276.6</ele><time>2026-04-12T07:52:50.999Z</time></trkpt><trkpt lat="44.41570572711123" lon="11.452532084892335"><ele>274.8</ele><time>2026-04-12T07:52:51.999Z</time></trkpt><trkpt lat="44.4156445995083" lon="11.452475241519469"><ele>273.0</ele><time>2026-04-12T07:52:52.999Z</time></trkpt><trkpt lat="44.415592465345945" lon="11.452403691623989"><ele>273.0</ele><time>2026-04-12T07:52:53.999Z</time></trkpt><trkpt lat="44.41557081282422" lon="11.4523054418248"><ele>273.0</ele><time>2026-04-12T07:52:54.999Z</time></trkpt><trkpt lat="44.415547242029454" lon="11.45219347505045"><ele>273.0</ele><time>2026-04-12T07:52:55.999Z</time></trkpt><trkpt lat="44.41552608784952" lon="11.452065810297412"><ele>273.0</ele><time>2026-04-12T07:52:56.999Z</time></trkpt><trkpt lat="44.41550999343653" lon="11.451942269868105"><ele>273.0</ele><time>2026-04-12T07:52:57.999Z</time></trkpt><trkpt lat="44.41548316227992" lon="11.451826294796128"><ele>273.0</ele><time>2026-04-12T07:52:58.999Z</time></trkpt><trkpt lat="44.41547489669216" lon="11.451707410717026"><ele>274.0</ele><time>2026-04-12T07:52:59.999Z</time></trkpt><trkpt lat="44.41547660837501" lon="11.45158493328338"><ele>275.0</ele><time>2026-04-12T07:53:00.999Z</time></trkpt><trkpt lat="44.41544494709426" lon="11.451457937464932"><ele>276.0</ele><time>2026-04-12T07:53:01.999Z</time></trkpt><trkpt lat="44.415422390066794" lon="11.451318727039418"><ele>277.0</ele><time>2026-04-12T07:53:02.999Z</time></trkpt><trkpt lat="44.41539125637857" lon="11.451185797820614"><ele>278.0</ele><time>2026-04-12T07:53:03.999Z</time></trkpt><trkpt lat="44.4153547313477" lon="11.451058725118402"><ele>279.0</ele><time>2026-04-12T07:53:04.999Z</time></trkpt><trkpt lat="44.415307878841936" lon="11.45094596734659"><ele>280.0</ele><time>2026-04-12T07:53:05.999Z</time></trkpt><trkpt lat="44.41525183690855" lon="11.45084507993433"><ele>281.0</ele><time>2026-04-12T07:53:06.999Z</time></trkpt><trkpt lat="44.41518298217017" lon="11.450749596298408"><ele>282.0</ele><time>2026-04-12T07:53:07.999Z</time></trkpt><trkpt lat="44.41511225047212" lon="11.450672947095265"><ele>283.0</ele><time>2026-04-12T07:53:08.999Z</time></trkpt><trkpt lat="44.4150627997935" lon="11.450586569386768"><ele>283.0</ele><time>2026-04-12T07:53:09.999Z</time></trkpt><trkpt lat="44.415008672963296" lon="11.450524961288288"><ele>283.0</ele><time>2026-04-12T07:53:10.999Z</time></trkpt><trkpt lat="44.41494407873627" lon="11.450451438981553"><ele>283.0</ele><time>2026-04-12T07:53:11.999Z</time></trkpt><trkpt lat="44.414855087691926" lon="11.450372651207584"><ele>283.0</ele><time>2026-04-12T07:53:12.999Z</time></trkpt><trkpt lat="44.414756258358864" lon="11.450252602891728"><ele>283.0</ele><time>2026-04-12T07:53:13.999Z</time></trkpt><trkpt lat="44.41465762109147" lon="11.450144322336183"><ele>282.8</ele><time>2026-04-12T07:53:14.999Z</time></trkpt><trkpt lat="44.414586920226206" lon="11.450030108534941"><ele>282.6</ele><time>2026-04-12T07:53:15.999Z</time></trkpt><trkpt lat="44.41448644907549" lon="11.449947467713427"><ele>282.4</ele><time>2026-04-12T07:53:16.999Z</time></trkpt><trkpt lat="44.41439741295701" lon="11.44985163011403"><ele>282.2</ele><time>2026-04-12T07:53:17.999Z</time></trkpt><trkpt lat="44.414306747836676" lon="11.449765990988652"><ele>282.0</ele><time>2026-04-12T07:53:18.999Z</time></trkpt><trkpt lat="44.414228756273644" lon="11.44967589367531"><ele>281.2</ele><time>2026-04-12T07:53:19.999Z</time></trkpt><trkpt lat="44.414157473544016" lon="11.449593361174307"><ele>280.4</ele><time>2026-04-12T07:53:20.999Z</time></trkpt><trkpt lat="44.41407980974453" lon="11.449524240183004"><ele>279.6</ele><time>2026-04-12T07:53:21.999Z</time></trkpt><trkpt lat="44.41402049685772" lon="11.449437470632382"><ele>278.8</ele><time>2026-04-12T07:53:22.999Z</time></trkpt><trkpt lat="44.4139464730262" lon="11.449371776611752"><ele>278.0</ele><time>2026-04-12T07:53:23.999Z</time></trkpt><trkpt lat="44.41386662321021" lon="11.449308941010091"><ele>277.1428571428571</ele><time>2026-04-12T07:53:24.999Z</time></trkpt><trkpt lat="44.41379200045693" lon="11.449256665398686"><ele>276.2857142857143</ele><time>2026-04-12T07:53:25.999Z</time></trkpt><trkpt lat="44.41372151481987" lon="11.449211365310925"><ele>275.42857142857144</ele><time>2026-04-12T07:53:26.999Z</time></trkpt><trkpt lat="44.41365359559724" lon="11.44917212391384"><ele>274.57142857142856</ele><time>2026-04-12T07:53:27.999Z</time></trkpt><trkpt lat="44.4135900214824" lon="11.449135567307108"><ele>273.7142857142857</ele><time>2026-04-12T07:53:28.999Z</time></trkpt><trkpt lat="44.41352725520879" lon="11.449099475259583"><ele>272.85714285714283</ele><time>2026-04-12T07:53:29.999Z</time></trkpt><trkpt lat="44.413462805679224" lon="11.449062584552824"><ele>272.0</ele><time>2026-04-12T07:53:30.999Z</time></trkpt><trkpt lat="44.413399154872906" lon="11.449026249766007"><ele>272.0</ele><time>2026-04-12T07:53:31.999Z</time></trkpt><trkpt lat="44.41333333647928" lon="11.448988677663525"><ele>272.0</ele><time>2026-04-12T07:53:32.999Z</time></trkpt><trkpt lat="44.413270917385404" lon="11.448951545746036"><ele>272.0</ele><time>2026-04-12T07:53:33.999Z</time></trkpt><trkpt lat="44.4132120127395" lon="11.448912093785058"><ele>272.0</ele><time>2026-04-12T07:53:34.998Z</time></trkpt><trkpt lat="44.41315108081161" lon="11.448883734352528"><ele>272.0</ele><time>2026-04-12T07:53:35.998Z</time></trkpt><trkpt lat="44.413065380257535" lon="11.44875977381456"><ele>272.0</ele><time>2026-04-12T07:53:37.998Z</time></trkpt><trkpt lat="44.41302851652292" lon="11.448683161545988"><ele>271.83333333333337</ele><time>2026-04-12T07:53:38.998Z</time></trkpt><trkpt lat="44.41302130388947" lon="11.4485945015272"><ele>271.6666666666667</ele><time>2026-04-12T07:53:39.998Z</time></trkpt><trkpt lat="44.41300915509168" lon="11.44850790457596"><ele>271.5</ele><time>2026-04-12T07:53:40.998Z</time></trkpt><trkpt lat="44.4129882067654" lon="11.448415364211508"><ele>271.3333333333333</ele><time>2026-04-12T07:53:41.998Z</time></trkpt><trkpt lat="44.41296388559547" lon="11.448314950099817"><ele>271.16666666666663</ele><time>2026-04-12T07:53:42.998Z</time></trkpt><trkpt lat="44.41293481741258" lon="11.44819580918993"><ele>271.0</ele><time>2026-04-12T07:53:43.998Z</time></trkpt><trkpt lat="44.41290139652314" lon="11.448068559285197"><ele>275.40000000000003</ele><time>2026-04-12T07:53:44.998Z</time></trkpt><trkpt lat="44.412857488720086" lon="11.447943164862068"><ele>279.8</ele><time>2026-04-12T07:53:45.998Z</time></trkpt><trkpt lat="44.41281911782059" lon="11.447840696178671"><ele>284.20000000000005</ele><time>2026-04-12T07:53:46.998Z</time></trkpt><trkpt lat="44.4127960876486" lon="11.447676476155474"><ele>288.6</ele><time>2026-04-12T07:53:48.998Z</time></trkpt><trkpt lat="44.41281117189382" lon="11.447547245883122"><ele>293.0</ele><time>2026-04-12T07:53:49.998Z</time></trkpt><trkpt lat="44.412817557996775" lon="11.447346539572187"><ele>293.0</ele><time>2026-04-12T07:53:50.998Z</time></trkpt><trkpt lat="44.41282083226125" lon="11.447183557209316"><ele>293.0</ele><time>2026-04-12T07:53:51.998Z</time></trkpt><trkpt lat="44.41280232431906" lon="11.44707783365536"><ele>293.0</ele><time>2026-04-12T07:53:52.998Z</time></trkpt><trkpt lat="44.412793598846534" lon="11.446903957247438"><ele>293.0</ele><time>2026-04-12T07:53:54.998Z</time></trkpt><trkpt lat="44.412788977750914" lon="11.446808864655095"><ele>293.0</ele><time>2026-04-12T07:53:55.998Z</time></trkpt><trkpt lat="44.41274481503871" lon="11.44670996606664"><ele>293.4</ele><time>2026-04-12T07:53:56.998Z</time></trkpt><trkpt lat="44.412696753703116" lon="11.44662826383757"><ele>293.8</ele><time>2026-04-12T07:53:57.998Z</time></trkpt><trkpt lat="44.412622033222604" lon="11.44656280226476"><ele>294.2</ele><time>2026-04-12T07:53:58.998Z</time></trkpt><trkpt lat="44.412536906694925" lon="11.446455072762983"><ele>294.6</ele><time>2026-04-12T07:53:59.998Z</time></trkpt><trkpt lat="44.41244694847031" lon="11.446388663194403"><ele>295.0</ele><time>2026-04-12T07:54:01Z</time></trkpt><trkpt lat="44.41237009727819" lon="11.446341518286921"><ele>295.0</ele><time>2026-04-12T07:54:02Z</time></trkpt><trkpt lat="44.4123018112666" lon="11.446301734371628"><ele>295.0</ele><time>2026-04-12T07:54:03Z</time></trkpt><trkpt lat="44.41223209256186" lon="11.446262944751217"><ele>295.0</ele><time>2026-04-12T07:54:04Z</time></trkpt><trkpt lat="44.412159551611275" lon="11.446222484490324"><ele>295.0</ele><time>2026-04-12T07:54:05Z</time></trkpt><trkpt lat="44.412087193608286" lon="11.446182442637095"><ele>295.0</ele><time>2026-04-12T07:54:06Z</time></trkpt><trkpt lat="44.41201212027213" lon="11.446142662171837"><ele>295.0</ele><time>2026-04-12T07:54:07Z</time></trkpt><trkpt lat="44.41193361952188" lon="11.446106120101375"><ele>293.8333333333333</ele><time>2026-04-12T07:54:08Z</time></trkpt><trkpt lat="44.41185718240591" lon="11.446075774481582"><ele>292.66666666666663</ele><time>2026-04-12T07:54:09Z</time></trkpt><trkpt lat="44.41177615006363" lon="11.446051582209977"><ele>291.5</ele><time>2026-04-12T07:54:10Z</time></trkpt><trkpt lat="44.41169508575583" lon="11.44604553924211"><ele>290.3333333333333</ele><time>2026-04-12T07:54:11Z</time></trkpt><trkpt lat="44.41161489982032" lon="11.446056016980316"><ele>289.1666666666667</ele><time>2026-04-12T07:54:12Z</time></trkpt><trkpt lat="44.411533744176076" lon="11.446075797309554"><ele>288.0</ele><time>2026-04-12T07:54:13Z</time></trkpt><trkpt lat="44.411459464371724" lon="11.446097242283786"><ele>288.0</ele><time>2026-04-12T07:54:14Z</time></trkpt><trkpt lat="44.41138967874251" lon="11.44613106147598"><ele>288.0</ele><time>2026-04-12T07:54:15Z</time></trkpt><trkpt lat="44.41131420908659" lon="11.446107773232434"><ele>288.0</ele><time>2026-04-12T07:54:16Z</time></trkpt><trkpt lat="44.411235989246556" lon="11.446083950743771"><ele>288.0</ele><time>2026-04-12T07:54:17Z</time></trkpt><trkpt lat="44.41115814684823" lon="11.446053044646954"><ele>288.0</ele><time>2026-04-12T07:54:18Z</time></trkpt><trkpt lat="44.41108500712709" lon="11.446022331766878"><ele>288.0</ele><time>2026-04-12T07:54:19Z</time></trkpt><trkpt lat="44.41101933752094" lon="11.445982396432647"><ele>289.75</ele><time>2026-04-12T07:54:20Z</time></trkpt><trkpt lat="44.41097661784776" lon="11.445851551028683"><ele>291.5</ele><time>2026-04-12T07:54:22Z</time></trkpt><trkpt lat="44.410965825424384" lon="11.445685660987126"><ele>293.25</ele><time>2026-04-12T07:54:24Z</time></trkpt><trkpt lat="44.41092239189183" lon="11.445542582872484"><ele>295.0</ele><time>2026-04-12T07:54:26Z</time></trkpt><trkpt lat="44.4108114018622" lon="11.445458480599257"><ele>296.6</ele><time>2026-04-12T07:54:28Z</time></trkpt><trkpt lat="44.41073681986156" lon="11.445492261854156"><ele>298.2</ele><time>2026-04-12T07:54:29Z</time></trkpt><trkpt lat="44.41063551739449" lon="11.445508380643295"><ele>299.8</ele><time>2026-04-12T07:54:30Z</time></trkpt><trkpt lat="44.410522177531305" lon="11.445546877472939"><ele>301.4</ele><time>2026-04-12T07:54:31Z</time></trkpt><trkpt lat="44.410384815832096" lon="11.445588947702152"><ele>303.0</ele><time>2026-04-12T07:54:32Z</time></trkpt><trkpt lat="44.41026558149924" lon="11.44561924564398"><ele>305.6</ele><time>2026-04-12T07:54:33Z</time></trkpt><trkpt lat="44.41017589575661" lon="11.445627112529744"><ele>308.20000000000005</ele><time>2026-04-12T07:54:34Z</time></trkpt><trkpt lat="44.410103258532565" lon="11.445625690749358"><ele>310.8</ele><time>2026-04-12T07:54:35Z</time></trkpt><trkpt lat="44.41002141825295" lon="11.445686525605307"><ele>313.40000000000003</ele><time>2026-04-12T07:54:37Z</time></trkpt><trkpt lat="44.41001209705372" lon="11.445867234306016"><ele>316.0</ele><time>2026-04-12T07:54:39Z</time></trkpt><trkpt lat="44.41001423626595" lon="11.446029767532359"><ele>316.0</ele><time>2026-04-12T07:54:41Z</time></trkpt><trkpt lat="44.40992172621663" lon="11.44612968110438"><ele>316.0</ele><time>2026-04-12T07:54:43Z</time></trkpt><trkpt lat="44.409865523303395" lon="11.44616938744408"><ele>316.0</ele><time>2026-04-12T07:54:44Z</time></trkpt><trkpt lat="44.409791834116646" lon="11.446155874828758"><ele>316.0</ele><time>2026-04-12T07:54:44.999Z</time></trkpt><trkpt lat="44.409722005305774" lon="11.446103195267227"><ele>316.0</ele><time>2026-04-12T07:54:45.999Z</time></trkpt><trkpt lat="44.409652696163555" lon="11.446038802408882"><ele>316.0</ele><time>2026-04-12T07:54:46.999Z</time></trkpt><trkpt lat="44.409584116676584" lon="11.445979668637921"><ele>317.16666666666663</ele><time>2026-04-12T07:54:47.999Z</time></trkpt><trkpt lat="44.40951878956227" lon="11.445929166448803"><ele>318.3333333333333</ele><time>2026-04-12T07:54:48.999Z</time></trkpt><trkpt lat="44.40944711743184" lon="11.445869267047334"><ele>319.5</ele><time>2026-04-12T07:54:49.999Z</time></trkpt><trkpt lat="44.40937982036423" lon="11.4457891314476"><ele>320.6666666666667</ele><time>2026-04-12T07:54:50.999Z</time></trkpt><trkpt lat="44.40930761203597" lon="11.445722978786968"><ele>321.83333333333337</ele><time>2026-04-12T07:54:51.999Z</time></trkpt><trkpt lat="44.40924709042616" lon="11.445663110465032"><ele>323.0</ele><time>2026-04-12T07:54:52.999Z</time></trkpt><trkpt lat="44.40919224484744" lon="11.445587559670315"><ele>323.0</ele><time>2026-04-12T07:54:53.999Z</time></trkpt><trkpt lat="44.409184887634034" lon="11.445479284648162"><ele>323.0</ele><time>2026-04-12T07:54:54.999Z</time></trkpt><trkpt lat="44.40915156455234" lon="11.445377927521456"><ele>323.0</ele><time>2026-04-12T07:54:55.999Z</time></trkpt><trkpt lat="44.40912425739178" lon="11.445272979254852"><ele>323.0</ele><time>2026-04-12T07:54:56.999Z</time></trkpt><trkpt lat="44.40908964334987" lon="11.445166707333636"><ele>323.0</ele><time>2026-04-12T07:54:57.999Z</time></trkpt><trkpt lat="44.40904882521097" lon="11.445069964631962"><ele>323.0</ele><time>2026-04-12T07:54:58.999Z</time></trkpt><trkpt lat="44.409005028795626" lon="11.444976952665801"><ele>325.33333333333337</ele><time>2026-04-12T07:54:59.999Z</time></trkpt><trkpt lat="44.40895802764913" lon="11.444883098395133"><ele>327.6666666666667</ele><time>2026-04-12T07:55:00.999Z</time></trkpt><trkpt lat="44.40890929420489" lon="11.444789716118306"><ele>330.0</ele><time>2026-04-12T07:55:01.999Z</time></trkpt><trkpt lat="44.40886059306952" lon="11.444692351410884"><ele>332.3333333333333</ele><time>2026-04-12T07:55:02.999Z</time></trkpt><trkpt lat="44.40880999424192" lon="11.444594562559184"><ele>334.66666666666663</ele><time>2026-04-12T07:55:03.999Z</time></trkpt><trkpt lat="44.40878455500995" lon="11.444474102533889"><ele>337.0</ele><time>2026-04-12T07:55:04.999Z</time></trkpt><trkpt lat="44.408764044387425" lon="11.444350271611583"><ele>337.8333333333333</ele><time>2026-04-12T07:55:05.999Z</time></trkpt><trkpt lat="44.40874733439516" lon="11.4442263555812"><ele>338.66666666666663</ele><time>2026-04-12T07:55:06.999Z</time></trkpt><trkpt lat="44.408733988225976" lon="11.444109186556654"><ele>339.5</ele><time>2026-04-12T07:55:07.999Z</time></trkpt><trkpt lat="44.408719565951124" lon="11.444001258600332"><ele>340.3333333333333</ele><time>2026-04-12T07:55:08.999Z</time></trkpt><trkpt lat="44.40870124456355" lon="11.443903028574114"><ele>341.1666666666667</ele><time>2026-04-12T07:55:09.999Z</time></trkpt><trkpt lat="44.40867643636883" lon="11.44376584169543"><ele>342.0</ele><time>2026-04-12T07:55:11.999Z</time></trkpt><trkpt lat="44.4086139987757" lon="11.443649803692724"><ele>342.0</ele><time>2026-04-12T07:55:13.999Z</time></trkpt><trkpt lat="44.40862498018591" lon="11.443505738109026"><ele>342.0</ele><time>2026-04-12T07:55:15.999Z</time></trkpt><trkpt lat="44.408669584913774" lon="11.44338539254258"><ele>342.0</ele><time>2026-04-12T07:55:17.999Z</time></trkpt><trkpt lat="44.40863869492476" lon="11.443299612405214"><ele>342.0</ele><time>2026-04-12T07:55:21.999Z</time></trkpt><trkpt lat="44.408639315394126" lon="11.443413110334983"><ele>342.0</ele><time>2026-04-12T07:55:26.999Z</time></trkpt><trkpt lat="44.40862854317276" lon="11.443538089515323"><ele>342.0</ele><time>2026-04-12T07:55:29.999Z</time></trkpt><trkpt lat="44.40841135935243" lon="11.443558118672351"><ele>342.0</ele><time>2026-04-12T07:55:30.999Z</time></trkpt><trkpt lat="44.408334548866044" lon="11.443622395563743"><ele>342.0</ele><time>2026-04-12T07:55:32.999Z</time></trkpt><trkpt lat="44.408265859653326" lon="11.443659088568136"><ele>342.0</ele><time>2026-04-12T07:55:34.999Z</time></trkpt><trkpt lat="44.40819192710916" lon="11.443675997200648"><ele>342.0</ele><time>2026-04-12T07:55:36.999Z</time></trkpt><trkpt lat="44.40811338913395" lon="11.44365975905392"><ele>342.0</ele><time>2026-04-12T07:55:38.998Z</time></trkpt><trkpt lat="44.40802751708556" lon="11.443602140058472"><ele>342.0</ele><time>2026-04-12T07:55:40.998Z</time></trkpt><trkpt lat="44.40793718755966" lon="11.443533606412577"><ele>341.1666666666667</ele><time>2026-04-12T07:55:42.998Z</time></trkpt><trkpt lat="44.40785967780644" lon="11.443448931908215"><ele>340.3333333333333</ele><time>2026-04-12T07:55:44.998Z</time></trkpt><trkpt lat="44.40778747510934" lon="11.443365472615673"><ele>339.5</ele><time>2026-04-12T07:55:46.998Z</time></trkpt><trkpt lat="44.40772123273438" lon="11.443293369227122"><ele>338.66666666666663</ele><time>2026-04-12T07:55:48.998Z</time></trkpt><trkpt lat="44.40765822092446" lon="11.443214980947246"><ele>337.8333333333333</ele><time>2026-04-12T07:55:50.998Z</time></trkpt><trkpt lat="44.40757755683456" lon="11.44317621744736"><ele>337.0</ele><time>2026-04-12T07:55:52.998Z</time></trkpt><trkpt lat="44.40748878353873" lon="11.443329253463443"><ele>337.0</ele><time>2026-04-12T07:55:54.998Z</time></trkpt><trkpt lat="44.407474825593056" lon="11.443452298947275"><ele>337.0</ele><time>2026-04-12T07:55:56.998Z</time></trkpt><trkpt lat="44.40746438652299" lon="11.443589451726318"><ele>337.0</ele><time>2026-04-12T07:55:58.998Z</time></trkpt><trkpt lat="44.40745655367746" lon="11.44373590347697"><ele>337.0</ele><time>2026-04-12T07:56:00.998Z</time></trkpt><trkpt lat="44.40744088056305" lon="11.443893350044123"><ele>337.0</ele><time>2026-04-12T07:56:02.998Z</time></trkpt><trkpt lat="44.407425891507444" lon="11.444060921924244"><ele>337.0</ele><time>2026-04-12T07:56:04.998Z</time></trkpt><trkpt lat="44.40740603788144" lon="11.444231614256857"><ele>337.0</ele><time>2026-04-12T07:56:07Z</time></trkpt><trkpt lat="44.4073884268919" lon="11.444387746306797"><ele>337.0</ele><time>2026-04-12T07:56:09Z</time></trkpt><trkpt lat="44.40737226424906" lon="11.44455530334044"><ele>337.0</ele><time>2026-04-12T07:56:11Z</time></trkpt><trkpt lat="44.407363925978075" lon="11.444643447255153"><ele>337.0</ele><time>2026-04-12T07:56:12Z</time></trkpt><trkpt lat="44.407353631704176" lon="11.444740825347798"><ele>337.0</ele><time>2026-04-12T07:56:13Z</time></trkpt><trkpt lat="44.40734233012744" lon="11.444882005676568"><ele>337.0</ele><time>2026-04-12T07:56:14Z</time></trkpt><trkpt lat="44.40733494013602" lon="11.444989521913508"><ele>337.0</ele><time>2026-04-12T07:56:15Z</time></trkpt><trkpt lat="44.40732915951449" lon="11.445101748967884"><ele>337.0</ele><time>2026-04-12T07:56:16Z</time></trkpt><trkpt lat="44.40731848118006" lon="11.44520538353568"><ele>337.0</ele><time>2026-04-12T07:56:17Z</time></trkpt><trkpt lat="44.4072990014838" lon="11.44531441317246"><ele>337.0</ele><time>2026-04-12T07:56:18Z</time></trkpt><trkpt lat="44.407270825534255" lon="11.445426862190367"><ele>334.8</ele><time>2026-04-12T07:56:19Z</time></trkpt><trkpt lat="44.407208355350505" lon="11.445521995138458"><ele>332.6</ele><time>2026-04-12T07:56:20Z</time></trkpt><trkpt lat="44.40715734228542" lon="11.445634725992264"><ele>330.40000000000003</ele><time>2026-04-12T07:56:21Z</time></trkpt><trkpt lat="44.40709581320046" lon="11.445759425215643"><ele>328.20000000000005</ele><time>2026-04-12T07:56:22Z</time></trkpt><trkpt lat="44.40703349312211" lon="11.44590655315446"><ele>326.0</ele><time>2026-04-12T07:56:23Z</time></trkpt><trkpt lat="44.406958974676954" lon="11.446026542092422"><ele>326.0</ele><time>2026-04-12T07:56:24Z</time></trkpt><trkpt lat="44.40690205399566" lon="11.446111988895899"><ele>326.0</ele><time>2026-04-12T07:56:25Z</time></trkpt><trkpt lat="44.406821995388995" lon="11.446205869924084"><ele>326.0</ele><time>2026-04-12T07:56:27Z</time></trkpt><trkpt lat="44.406757291378185" lon="11.446325607694659"><ele>326.0</ele><time>2026-04-12T07:56:29Z</time></trkpt><trkpt lat="44.40672549471395" lon="11.446413523803894"><ele>326.0</ele><time>2026-04-12T07:56:30Z</time></trkpt><trkpt lat="44.4067126119421" lon="11.446526162080865"><ele>326.0</ele><time>2026-04-12T07:56:31Z</time></trkpt><trkpt lat="44.40669040409992" lon="11.446629431616575"><ele>326.20000000000005</ele><time>2026-04-12T07:56:32Z</time></trkpt><trkpt lat="44.40666364414431" lon="11.44678614940237"><ele>326.40000000000003</ele><time>2026-04-12T07:56:34Z</time></trkpt><trkpt lat="44.40664604937333" lon="11.446943025480252"><ele>326.6</ele><time>2026-04-12T07:56:36Z</time></trkpt><trkpt lat="44.40662975225508" lon="11.447082916308384"><ele>326.8</ele><time>2026-04-12T07:56:38Z</time></trkpt><trkpt lat="44.406644782363905" lon="11.44719359232435"><ele>327.0</ele><time>2026-04-12T07:56:40Z</time></trkpt><trkpt lat="44.40667257169173" lon="11.447305996032698"><ele>327.0</ele><time>2026-04-12T07:56:42Z</time></trkpt><trkpt lat="44.40667689176875" lon="11.447436989410273"><ele>327.0</ele><time>2026-04-12T07:56:44Z</time></trkpt><trkpt lat="44.40668710074307" lon="11.447561262352368"><ele>327.0</ele><time>2026-04-12T07:56:46Z</time></trkpt><trkpt lat="44.4066865509584" lon="11.447681331825981"><ele>327.0</ele><time>2026-04-12T07:56:48Z</time></trkpt><trkpt lat="44.406678712857065" lon="11.447796383567704"><ele>327.0</ele><time>2026-04-12T07:56:49.999Z</time></trkpt><trkpt lat="44.406657866592234" lon="11.447917677024266"><ele>327.0</ele><time>2026-04-12T07:56:51.999Z</time></trkpt><trkpt lat="44.40663575495189" lon="11.44803364628399"><ele>325.0</ele><time>2026-04-12T07:56:53.999Z</time></trkpt><trkpt lat="44.40662348982706" lon="11.448152977553683"><ele>323.0</ele><time>2026-04-12T07:56:55.999Z</time></trkpt><trkpt lat="44.406647696652264" lon="11.448281371338458"><ele>321.0</ele><time>2026-04-12T07:56:57.999Z</time></trkpt><trkpt lat="44.40663945809726" lon="11.448413049258425"><ele>319.0</ele><time>2026-04-12T07:56:59.999Z</time></trkpt><trkpt lat="44.40665445945914" lon="11.448562352672422"><ele>317.0</ele><time>2026-04-12T07:57:01.999Z</time></trkpt><trkpt lat="44.40662946627414" lon="11.448710564673355"><ele>316.1666666666667</ele><time>2026-04-12T07:57:03.999Z</time></trkpt><trkpt lat="44.40662312990907" lon="11.44887198525809"><ele>315.33333333333337</ele><time>2026-04-12T07:57:05.999Z</time></trkpt><trkpt lat="44.406593369787146" lon="11.448971959067652"><ele>314.5</ele><time>2026-04-12T07:57:06.999Z</time></trkpt><trkpt lat="44.406573294547144" lon="11.44907786707961"><ele>313.6666666666667</ele><time>2026-04-12T07:57:07.999Z</time></trkpt><trkpt lat="44.406562892661725" lon="11.449174692133393"><ele>312.8333333333333</ele><time>2026-04-12T07:57:08.999Z</time></trkpt><trkpt lat="44.40654688967594" lon="11.449265186140776"><ele>312.0</ele><time>2026-04-12T07:57:09.999Z</time></trkpt><trkpt lat="44.40652093936352" lon="11.449424732564866"><ele>312.0</ele><time>2026-04-12T07:57:11.999Z</time></trkpt><trkpt lat="44.40651316429608" lon="11.4496139237766"><ele>312.0</ele><time>2026-04-12T07:57:13.999Z</time></trkpt><trkpt lat="44.40652110878235" lon="11.44975694619727"><ele>312.0</ele><time>2026-04-12T07:57:14.999Z</time></trkpt><trkpt lat="44.40653181508769" lon="11.449942494782524"><ele>312.0</ele><time>2026-04-12T07:57:15.999Z</time></trkpt><trkpt lat="44.40653738460122" lon="11.450158527601053"><ele>312.0</ele><time>2026-04-12T07:57:16.999Z</time></trkpt><trkpt lat="44.40654574075569" lon="11.450392885776408"><ele>312.0</ele><time>2026-04-12T07:57:17.999Z</time></trkpt><trkpt lat="44.406529597443395" lon="11.450623573070985"><ele>312.0</ele><time>2026-04-12T07:57:18.999Z</time></trkpt><trkpt lat="44.40652727725056" lon="11.450855861798997"><ele>312.0</ele><time>2026-04-12T07:57:19.999Z</time></trkpt><trkpt lat="44.406540168054725" lon="11.451053855919785"><ele>312.0</ele><time>2026-04-12T07:57:20.999Z</time></trkpt><trkpt lat="44.40653735808871" lon="11.451209826677236"><ele>312.0</ele><time>2026-04-12T07:57:21.999Z</time></trkpt><trkpt lat="44.406517145518684" lon="11.451340756171584"><ele>312.0</ele><time>2026-04-12T07:57:22.999Z</time></trkpt><trkpt lat="44.40652964227398" lon="11.451449358283153"><ele>312.0</ele><time>2026-04-12T07:57:23.999Z</time></trkpt><trkpt lat="44.406521779746846" lon="11.45154245978253"><ele>311.8</ele><time>2026-04-12T07:57:24.999Z</time></trkpt><trkpt lat="44.40651590836624" lon="11.451693339616872"><ele>311.6</ele><time>2026-04-12T07:57:26.999Z</time></trkpt><trkpt lat="44.40652570545066" lon="11.451843737295613"><ele>311.40000000000003</ele><time>2026-04-12T07:57:28.999Z</time></trkpt><trkpt lat="44.406532089971556" lon="11.451947232572456"><ele>311.2</ele><time>2026-04-12T07:57:29.999Z</time></trkpt><trkpt lat="44.40653424816578" lon="11.452091968386435"><ele>311.0</ele><time>2026-04-12T07:57:30.999Z</time></trkpt><trkpt lat="44.40652486790272" lon="11.4522313103911"><ele>310.6666666666667</ele><time>2026-04-12T07:57:31.999Z</time></trkpt><trkpt lat="44.40650587353592" lon="11.452348890407302"><ele>310.33333333333337</ele><time>2026-04-12T07:57:32.999Z</time></trkpt><trkpt lat="44.40647592558852" lon="11.452459068378085"><ele>310.0</ele><time>2026-04-12T07:57:33.999Z</time></trkpt><trkpt lat="44.40644221063237" lon="11.452551130707912"><ele>309.6666666666667</ele><time>2026-04-12T07:57:34.999Z</time></trkpt><trkpt lat="44.406390030166264" lon="11.452656642903666"><ele>309.3333333333333</ele><time>2026-04-12T07:57:35.999Z</time></trkpt><trkpt lat="44.406333655021044" lon="11.45273043132778"><ele>309.0</ele><time>2026-04-12T07:57:36.999Z</time></trkpt><trkpt lat="44.4062719106291" lon="11.452780330550793"><ele>308.6666666666667</ele><time>2026-04-12T07:57:37.999Z</time></trkpt><trkpt lat="44.4061894626612" lon="11.452793998245216"><ele>308.3333333333333</ele><time>2026-04-12T07:57:38.999Z</time></trkpt><trkpt lat="44.406082526379905" lon="11.452831528380704"><ele>308.0</ele><time>2026-04-12T07:57:39.999Z</time></trkpt><trkpt lat="44.405995586996156" lon="11.45288199072204"><ele>307.66666666666663</ele><time>2026-04-12T07:57:40.999Z</time></trkpt><trkpt lat="44.40592718639493" lon="11.452905098177112"><ele>307.3333333333333</ele><time>2026-04-12T07:57:41.999Z</time></trkpt><trkpt lat="44.405860819876516" lon="11.452941419728665"><ele>307.0</ele><time>2026-04-12T07:57:42.998Z</time></trkpt><trkpt lat="44.40579215042513" lon="11.452994477138349"><ele>307.0</ele><time>2026-04-12T07:57:43.998Z</time></trkpt><trkpt lat="44.40572275620272" lon="11.453071083691633"><ele>307.0</ele><time>2026-04-12T07:57:44.998Z</time></trkpt><trkpt lat="44.40564043255372" lon="11.453182913525788"><ele>307.0</ele><time>2026-04-12T07:57:45.998Z</time></trkpt><trkpt lat="44.405570182186494" lon="11.4532935423817"><ele>307.0</ele><time>2026-04-12T07:57:46.998Z</time></trkpt><trkpt lat="44.40550784484586" lon="11.453394259062057"><ele>307.0</ele><time>2026-04-12T07:57:47.998Z</time></trkpt><trkpt lat="44.405431043399545" lon="11.453497962902642"><ele>306.25</ele><time>2026-04-12T07:57:48.998Z</time></trkpt><trkpt lat="44.40536223040397" lon="11.453648444672627"><ele>305.5</ele><time>2026-04-12T07:57:49.998Z</time></trkpt><trkpt lat="44.40530351531447" lon="11.453837248240834"><ele>304.75</ele><time>2026-04-12T07:57:50.998Z</time></trkpt><trkpt lat="44.4052315808864" lon="11.454006073328815"><ele>304.0</ele><time>2026-04-12T07:57:51.998Z</time></trkpt><trkpt lat="44.40516387341119" lon="11.454144140259586"><ele>305.59999999999997</ele><time>2026-04-12T07:57:52.998Z</time></trkpt><trkpt lat="44.40509627407787" lon="11.454259222263188"><ele>307.2</ele><time>2026-04-12T07:57:53.998Z</time></trkpt><trkpt lat="44.40503211095293" lon="11.454350205682806"><ele>308.79999999999995</ele><time>2026-04-12T07:57:54.998Z</time></trkpt><trkpt lat="44.404969712801396" lon="11.45443181920896"><ele>310.4</ele><time>2026-04-12T07:57:55.998Z</time></trkpt><trkpt lat="44.404909690914735" lon="11.454516233016895"><ele>312.0</ele><time>2026-04-12T07:57:56.998Z</time></trkpt><trkpt lat="44.40484160821289" lon="11.45461674581032"><ele>311.8</ele><time>2026-04-12T07:57:57.998Z</time></trkpt><trkpt lat="44.404766704507054" lon="11.454724616894802"><ele>311.6</ele><time>2026-04-12T07:57:58.998Z</time></trkpt><trkpt lat="44.404699175843895" lon="11.454813666802487"><ele>311.40000000000003</ele><time>2026-04-12T07:57:59.998Z</time></trkpt><trkpt lat="44.40463875133422" lon="11.454878080980366"><ele>311.2</ele><time>2026-04-12T07:58:00.998Z</time></trkpt><trkpt lat="44.40458754584911" lon="11.454971182794768"><ele>311.0</ele><time>2026-04-12T07:58:01.998Z</time></trkpt><trkpt lat="44.404535520245936" lon="11.455099214549367"><ele>314.0</ele><time>2026-04-12T07:58:02.998Z</time></trkpt><trkpt lat="44.40448348062467" lon="11.455265359205226"><ele>317.0</ele><time>2026-04-12T07:58:03.998Z</time></trkpt><trkpt lat="44.404417492491135" lon="11.455447270270744"><ele>320.0</ele><time>2026-04-12T07:58:04.998Z</time></trkpt><trkpt lat="44.40434741507965" lon="11.455632202437615"><ele>323.0</ele><time>2026-04-12T07:58:05.998Z</time></trkpt><trkpt lat="44.40430539829923" lon="11.45577073001623"><ele>323.33333333333337</ele><time>2026-04-12T07:58:06.998Z</time></trkpt><trkpt lat="44.404249962711056" lon="11.45585711702073"><ele>323.6666666666667</ele><time>2026-04-12T07:58:07.998Z</time></trkpt><trkpt lat="44.40419966556863" lon="11.455948938633771"><ele>324.0</ele><time>2026-04-12T07:58:08.998Z</time></trkpt><trkpt lat="44.404142025269714" lon="11.456027926943035"><ele>324.3333333333333</ele><time>2026-04-12T07:58:09.998Z</time></trkpt><trkpt lat="44.40408018950262" lon="11.456108155664882"><ele>324.66666666666663</ele><time>2026-04-12T07:58:10.998Z</time></trkpt><trkpt lat="44.40401787725321" lon="11.456185442742157"><ele>325.0</ele><time>2026-04-12T07:58:12Z</time></trkpt><trkpt lat="44.40395228886889" lon="11.456264021736652"><ele>325.16666666666663</ele><time>2026-04-12T07:58:13Z</time></trkpt><trkpt lat="44.4038910274952" lon="11.456336162098834"><ele>325.3333333333333</ele><time>2026-04-12T07:58:14Z</time></trkpt><trkpt lat="44.40382326857759" lon="11.456415644456932"><ele>325.5</ele><time>2026-04-12T07:58:15Z</time></trkpt><trkpt lat="44.40375694007624" lon="11.456492318077823"><ele>325.6666666666667</ele><time>2026-04-12T07:58:16Z</time></trkpt><trkpt lat="44.403692018378855" lon="11.456581971799013"><ele>325.83333333333337</ele><time>2026-04-12T07:58:17Z</time></trkpt><trkpt lat="44.403637075658544" lon="11.456649380187786"><ele>326.0</ele><time>2026-04-12T07:58:18Z</time></trkpt><trkpt lat="44.403576539151636" lon="11.45671315176467"><ele>326.0</ele><time>2026-04-12T07:58:19Z</time></trkpt><trkpt lat="44.40351366107709" lon="11.456783131193047"><ele>326.0</ele><time>2026-04-12T07:58:20Z</time></trkpt><trkpt lat="44.4034396414581" lon="11.456841412731645"><ele>326.0</ele><time>2026-04-12T07:58:21Z</time></trkpt><trkpt lat="44.40337707847218" lon="11.456922000349186"><ele>326.0</ele><time>2026-04-12T07:58:22Z</time></trkpt><trkpt lat="44.403329486772" lon="11.457043885174587"><ele>326.0</ele><time>2026-04-12T07:58:23Z</time></trkpt><trkpt lat="44.40326359562948" lon="11.457162178011787"><ele>326.6</ele><time>2026-04-12T07:58:24Z</time></trkpt><trkpt lat="44.40320051237036" lon="11.457287131006193"><ele>327.20000000000005</ele><time>2026-04-12T07:58:25Z</time></trkpt><trkpt lat="44.40314193393111" lon="11.457402171945693"><ele>327.79999999999995</ele><time>2026-04-12T07:58:26Z</time></trkpt><trkpt lat="44.4030915215813" lon="11.457498012842906"><ele>328.4</ele><time>2026-04-12T07:58:27Z</time></trkpt><trkpt lat="44.40303806509861" lon="11.457591473801944"><ele>329.0</ele><time>2026-04-12T07:58:28Z</time></trkpt><trkpt lat="44.40298415292561" lon="11.457685445754842"><ele>329.0</ele><time>2026-04-12T07:58:29Z</time></trkpt><trkpt lat="44.40292800090542" lon="11.457781558846873"><ele>329.0</ele><time>2026-04-12T07:58:30Z</time></trkpt><trkpt lat="44.402873131922114" lon="11.45787386997151"><ele>329.0</ele><time>2026-04-12T07:58:31Z</time></trkpt><trkpt lat="44.40282776845435" lon="11.457959340725186"><ele>329.0</ele><time>2026-04-12T07:58:32Z</time></trkpt><trkpt lat="44.402781505281055" lon="11.458033903114636"><ele>329.0</ele><time>2026-04-12T07:58:33Z</time></trkpt><trkpt lat="44.402733991709425" lon="11.45810133616295"><ele>329.0</ele><time>2026-04-12T07:58:34Z</time></trkpt><trkpt lat="44.402672987349746" lon="11.458143473911447"><ele>329.6666666666667</ele><time>2026-04-12T07:58:35Z</time></trkpt><trkpt lat="44.40261661603717" lon="11.45820403128987"><ele>330.33333333333337</ele><time>2026-04-12T07:58:36Z</time></trkpt><trkpt lat="44.40256242897634" lon="11.45828123964998"><ele>331.0</ele><time>2026-04-12T07:58:37Z</time></trkpt><trkpt lat="44.4024936446555" lon="11.458321020106094"><ele>331.6666666666667</ele><time>2026-04-12T07:58:38Z</time></trkpt><trkpt lat="44.40242441705405" lon="11.458357693435188"><ele>332.3333333333333</ele><time>2026-04-12T07:58:39Z</time></trkpt><trkpt lat="44.40234881571102" lon="11.45835970025742"><ele>333.0</ele><time>2026-04-12T07:58:40Z</time></trkpt><trkpt lat="44.402274256509514" lon="11.458388611644448"><ele>333.0</ele><time>2026-04-12T07:58:41Z</time></trkpt><trkpt lat="44.402201435071206" lon="11.458414281647384"><ele>333.0</ele><time>2026-04-12T07:58:42Z</time></trkpt><trkpt lat="44.40212683913689" lon="11.458443229316496"><ele>333.0</ele><time>2026-04-12T07:58:43Z</time></trkpt><trkpt lat="44.402058298024" lon="11.458483941978237"><ele>333.0</ele><time>2026-04-12T07:58:43.999Z</time></trkpt><trkpt lat="44.40200393629252" lon="11.458547843072703"><ele>333.0</ele><time>2026-04-12T07:58:44.999Z</time></trkpt><trkpt lat="44.40194351841595" lon="11.458595940630111"><ele>333.0</ele><time>2026-04-12T07:58:45.999Z</time></trkpt><trkpt lat="44.401831131635724" lon="11.458697756479031"><ele>333.0</ele><time>2026-04-12T07:58:47.999Z</time></trkpt><trkpt lat="44.40177413023076" lon="11.458758619668883"><ele>333.0</ele><time>2026-04-12T07:58:48.999Z</time></trkpt><trkpt lat="44.401720007709635" lon="11.458821981580481"><ele>333.0</ele><time>2026-04-12T07:58:49.999Z</time></trkpt><trkpt lat="44.40166668250693" lon="11.458880995348098"><ele>333.0</ele><time>2026-04-12T07:58:50.999Z</time></trkpt><trkpt lat="44.401607233090246" lon="11.458914821432925"><ele>333.0</ele><time>2026-04-12T07:58:51.999Z</time></trkpt><trkpt lat="44.401525664766936" lon="11.459028697438098"><ele>333.0</ele><time>2026-04-12T07:58:53.999Z</time></trkpt><trkpt lat="44.401438687076386" lon="11.459117515198791"><ele>333.0</ele><time>2026-04-12T07:58:55.999Z</time></trkpt><trkpt lat="44.4013758366367" lon="11.4592003606741"><ele>333.0</ele><time>2026-04-12T07:58:57.999Z</time></trkpt><trkpt lat="44.401330015506666" lon="11.459267637041068"><ele>333.0</ele><time>2026-04-12T07:59:01.999Z</time></trkpt><trkpt lat="44.40142345362877" lon="11.459365262070671"><ele>333.0</ele><time>2026-04-12T07:59:02.999Z</time></trkpt><trkpt lat="44.40149239328734" lon="11.45938618122686"><ele>333.0</ele><time>2026-04-12T07:59:03.999Z</time></trkpt><trkpt lat="44.401561398756996" lon="11.459415943810946"><ele>333.0</ele><time>2026-04-12T07:59:04.999Z</time></trkpt><trkpt lat="44.40163231891773" lon="11.459465656111627"><ele>333.0</ele><time>2026-04-12T07:59:05.999Z</time></trkpt><trkpt lat="44.40171113514738" lon="11.459517074702728"><ele>333.0</ele><time>2026-04-12T07:59:06.999Z</time></trkpt><trkpt lat="44.40179496158322" lon="11.459568383268662"><ele>333.0</ele><time>2026-04-12T07:59:07.999Z</time></trkpt><trkpt lat="44.4018754476306" lon="11.459633769598428"><ele>333.0</ele><time>2026-04-12T07:59:08.999Z</time></trkpt><trkpt lat="44.40196108282352" lon="11.45969065912187"><ele>333.0</ele><time>2026-04-12T07:59:09.999Z</time></trkpt><trkpt lat="44.40207108574844" lon="11.459754234994316"><ele>332.0</ele><time>2026-04-12T07:59:10.999Z</time></trkpt><trkpt lat="44.40218290444832" lon="11.459828754284523"><ele>331.0</ele><time>2026-04-12T07:59:11.999Z</time></trkpt><trkpt lat="44.40228140900209" lon="11.459883311449532"><ele>330.0</ele><time>2026-04-12T07:59:12.999Z</time></trkpt><trkpt lat="44.402372696078906" lon="11.459940267651042"><ele>329.0</ele><time>2026-04-12T07:59:13.999Z</time></trkpt><trkpt lat="44.40247153714693" lon="11.460015382766532"><ele>328.0</ele><time>2026-04-12T07:59:14.999Z</time></trkpt><trkpt lat="44.402569545097705" lon="11.460117042461745"><ele>328.0</ele><time>2026-04-12T07:59:15.999Z</time></trkpt><trkpt lat="44.40265653258953" lon="11.460226794531993"><ele>328.0</ele><time>2026-04-12T07:59:16.999Z</time></trkpt><trkpt lat="44.402749009189215" lon="11.460332049547516"><ele>328.0</ele><time>2026-04-12T07:59:17.999Z</time></trkpt><trkpt lat="44.40285049910148" lon="11.460414320850866"><ele>328.0</ele><time>2026-04-12T07:59:18.999Z</time></trkpt><trkpt lat="44.402943760044394" lon="11.460485176670323"><ele>327.66666666666663</ele><time>2026-04-12T07:59:19.999Z</time></trkpt><trkpt lat="44.40303091531822" lon="11.460553890030623"><ele>327.3333333333333</ele><time>2026-04-12T07:59:20.999Z</time></trkpt><trkpt lat="44.40310601791696" lon="11.460612773994747"><ele>327.0</ele><time>2026-04-12T07:59:21.999Z</time></trkpt><trkpt lat="44.403184102104284" lon="11.460671740122864"><ele>326.6666666666667</ele><time>2026-04-12T07:59:22.999Z</time></trkpt><trkpt lat="44.403235622077055" lon="11.460764347588405"><ele>326.33333333333337</ele><time>2026-04-12T07:59:23.999Z</time></trkpt><trkpt lat="44.40328075150179" lon="11.460858657855695"><ele>326.0</ele><time>2026-04-12T07:59:24.999Z</time></trkpt><trkpt lat="44.40333216551096" lon="11.46098431538004"><ele>326.0</ele><time>2026-04-12T07:59:25.999Z</time></trkpt><trkpt lat="44.40339808129037" lon="11.461126356296507"><ele>326.0</ele><time>2026-04-12T07:59:26.999Z</time></trkpt><trkpt lat="44.403447771781835" lon="11.461285973082227"><ele>326.0</ele><time>2026-04-12T07:59:27.999Z</time></trkpt><trkpt lat="44.40350794610985" lon="11.461428765767709"><ele>326.0</ele><time>2026-04-12T07:59:28.999Z</time></trkpt><trkpt lat="44.40356735434244" lon="11.461570823208616"><ele>325.0</ele><time>2026-04-12T07:59:29.999Z</time></trkpt><trkpt lat="44.4036364703783" lon="11.46170275687934"><ele>324.0</ele><time>2026-04-12T07:59:30.999Z</time></trkpt><trkpt lat="44.40370183513116" lon="11.461831555328175"><ele>323.0</ele><time>2026-04-12T07:59:31.999Z</time></trkpt><trkpt lat="44.40376944647833" lon="11.461943486267474"><ele>322.0</ele><time>2026-04-12T07:59:32.999Z</time></trkpt><trkpt lat="44.4038344185315" lon="11.46205721138947"><ele>321.0</ele><time>2026-04-12T07:59:33.998Z</time></trkpt><trkpt lat="44.403897429261185" lon="11.46216935613364"><ele>317.8</ele><time>2026-04-12T07:59:34.998Z</time></trkpt><trkpt lat="44.40395488307772" lon="11.462282822430799"><ele>314.6</ele><time>2026-04-12T07:59:35.998Z</time></trkpt><trkpt lat="44.404001193992265" lon="11.46240473319171"><ele>311.4</ele><time>2026-04-12T07:59:36.998Z</time></trkpt><trkpt lat="44.404043863265166" lon="11.462519883093995"><ele>308.2</ele><time>2026-04-12T07:59:37.998Z</time></trkpt><trkpt lat="44.4040831957572" lon="11.462628831153971"><ele>305.0</ele><time>2026-04-12T07:59:38.998Z</time></trkpt><trkpt lat="44.40411746886853" lon="11.462734557357873"><ele>305.0</ele><time>2026-04-12T07:59:39.998Z</time></trkpt><trkpt lat="44.40413316963413" lon="11.462852068268933"><ele>305.0</ele><time>2026-04-12T07:59:40.998Z</time></trkpt><trkpt lat="44.40416803939947" lon="11.462958557148976"><ele>305.0</ele><time>2026-04-12T07:59:41.998Z</time></trkpt><trkpt lat="44.404192450490875" lon="11.463073913155673"><ele>305.0</ele><time>2026-04-12T07:59:42.998Z</time></trkpt><trkpt lat="44.40421879695546" lon="11.463193228289246"><ele>305.0</ele><time>2026-04-12T07:59:43.998Z</time></trkpt><trkpt lat="44.404247631472195" lon="11.463318128343849"><ele>305.0</ele><time>2026-04-12T07:59:44.998Z</time></trkpt><trkpt lat="44.40427387161637" lon="11.463443053044141"><ele>304.2</ele><time>2026-04-12T07:59:45.998Z</time></trkpt><trkpt lat="44.40430325983017" lon="11.463566776033232"><ele>303.4</ele><time>2026-04-12T07:59:46.998Z</time></trkpt><trkpt lat="44.40434212623441" lon="11.463685077510645"><ele>302.6</ele><time>2026-04-12T07:59:47.998Z</time></trkpt><trkpt lat="44.40438616768344" lon="11.463801022310756"><ele>301.8</ele><time>2026-04-12T07:59:48.998Z</time></trkpt><trkpt lat="44.404438444754426" lon="11.4639083072735"><ele>301.0</ele><time>2026-04-12T07:59:49.998Z</time></trkpt><trkpt lat="44.40449676585516" lon="11.46401162965271"><ele>299.0</ele><time>2026-04-12T07:59:50.998Z</time></trkpt><trkpt lat="44.404565178456835" lon="11.464106197763028"><ele>297.0</ele><time>2026-04-12T07:59:51.998Z</time></trkpt><trkpt lat="44.40463138841661" lon="11.464198785235281"><ele>295.0</ele><time>2026-04-12T07:59:52.998Z</time></trkpt><trkpt lat="44.40469553699753" lon="11.46429773172152"><ele>293.0</ele><time>2026-04-12T07:59:53.998Z</time></trkpt><trkpt lat="44.40475198679014" lon="11.464407854880672"><ele>291.0</ele><time>2026-04-12T07:59:54.998Z</time></trkpt><trkpt lat="44.40481226891715" lon="11.464549246189087"><ele>287.5</ele><time>2026-04-12T07:59:55.998Z</time></trkpt><trkpt lat="44.404914116639084" lon="11.464662649793503"><ele>284.0</ele><time>2026-04-12T07:59:56.998Z</time></trkpt><trkpt lat="44.40507063201903" lon="11.464685952115655"><ele>280.5</ele><time>2026-04-12T07:59:58.998Z</time></trkpt><trkpt lat="44.405182840049406" lon="11.464705541833128"><ele>277.0</ele><time>2026-04-12T07:59:59.998Z</time></trkpt><trkpt lat="44.40529325917628" lon="11.46474112864439"><ele>277.0</ele><time>2026-04-12T08:00:00.998Z</time></trkpt><trkpt lat="44.405393527852944" lon="11.46479952574836"><ele>277.0</ele><time>2026-04-12T08:00:01.998Z</time></trkpt><trkpt lat="44.40547693719839" lon="11.464900689233309"><ele>277.0</ele><time>2026-04-12T08:00:02.998Z</time></trkpt><trkpt lat="44.405546953615236" lon="11.465002847031714"><ele>277.0</ele><time>2026-04-12T08:00:03.998Z</time></trkpt><trkpt lat="44.40561218184746" lon="11.465125910593121"><ele>277.0</ele><time>2026-04-12T08:00:04.998Z</time></trkpt><trkpt lat="44.4056979619355" lon="11.465288847486287"><ele>273.3333333333333</ele><time>2026-04-12T08:00:05.998Z</time></trkpt><trkpt lat="44.40581744709278" lon="11.465519205503462"><ele>269.6666666666667</ele><time>2026-04-12T08:00:06.998Z</time></trkpt><trkpt lat="44.40592002789188" lon="11.465716973122202"><ele>266.0</ele><time>2026-04-12T08:00:07.998Z</time></trkpt><trkpt lat="44.40601277945246" lon="11.465886200856014"><ele>266.0</ele><time>2026-04-12T08:00:08.998Z</time></trkpt><trkpt lat="44.4061107284842" lon="11.466027570596419"><ele>266.0</ele><time>2026-04-12T08:00:09.998Z</time></trkpt><trkpt lat="44.4061881957591" lon="11.466177376147927"><ele>266.0</ele><time>2026-04-12T08:00:10.998Z</time></trkpt><trkpt lat="44.406264896892" lon="11.466307596819298"><ele>266.0</ele><time>2026-04-12T08:00:11.998Z</time></trkpt><trkpt lat="44.40633539763073" lon="11.466420349845889"><ele>266.2</ele><time>2026-04-12T08:00:12.998Z</time></trkpt><trkpt lat="44.40639878672243" lon="11.466527805398568"><ele>266.40000000000003</ele><time>2026-04-12T08:00:13.998Z</time></trkpt><trkpt lat="44.40646496194907" lon="11.466630998877907"><ele>266.6</ele><time>2026-04-12T08:00:14.998Z</time></trkpt><trkpt lat="44.40653264427478" lon="11.466740411248974"><ele>266.8</ele><time>2026-04-12T08:00:15.998Z</time></trkpt><trkpt lat="44.4066034274984" lon="11.46685448372862"><ele>267.0</ele><time>2026-04-12T08:00:16.998Z</time></trkpt><trkpt lat="44.40667432832966" lon="11.466974516698322"><ele>267.0</ele><time>2026-04-12T08:00:18Z</time></trkpt><trkpt lat="44.40674882187684" lon="11.467096677090463"><ele>267.0</ele><time>2026-04-12T08:00:19Z</time></trkpt><trkpt lat="44.40683415819507" lon="11.467231403983531"><ele>267.0</ele><time>2026-04-12T08:00:20Z</time></trkpt><trkpt lat="44.406945190600716" lon="11.467405745823683"><ele>267.0</ele><time>2026-04-12T08:00:21Z</time></trkpt><trkpt lat="44.40704582627924" lon="11.46757092890811"><ele>266.5</ele><time>2026-04-12T08:00:22Z</time></trkpt><trkpt lat="44.40712871383092" lon="11.467719005437766"><ele>266.0</ele><time>2026-04-12T08:00:23Z</time></trkpt><trkpt lat="44.40718725826322" lon="11.46786616211005"><ele>265.5</ele><time>2026-04-12T08:00:24Z</time></trkpt><trkpt lat="44.4072382302016" lon="11.468015929518439"><ele>265.0</ele><time>2026-04-12T08:00:25Z</time></trkpt><trkpt lat="44.40729437668806" lon="11.468201069712086"><ele>266.0</ele><time>2026-04-12T08:00:26Z</time></trkpt><trkpt lat="44.40733572606807" lon="11.46836247872975"><ele>267.0</ele><time>2026-04-12T08:00:27Z</time></trkpt><trkpt lat="44.40735856724944" lon="11.468509869815252"><ele>268.0</ele><time>2026-04-12T08:00:28Z</time></trkpt><trkpt lat="44.40737282527752" lon="11.468655820127546"><ele>269.0</ele><time>2026-04-12T08:00:29Z</time></trkpt><trkpt lat="44.4073794233417" lon="11.468819021482023"><ele>269.0</ele><time>2026-04-12T08:00:30Z</time></trkpt><trkpt lat="44.40737852571497" lon="11.468985470362803"><ele>269.0</ele><time>2026-04-12T08:00:31Z</time></trkpt><trkpt lat="44.40737293310783" lon="11.46915549272378"><ele>269.0</ele><time>2026-04-12T08:00:32Z</time></trkpt><trkpt lat="44.407363544625035" lon="11.469324389896865"><ele>269.0</ele><time>2026-04-12T08:00:33Z</time></trkpt><trkpt lat="44.407354921035946" lon="11.469474252855795"><ele>268.33333333333337</ele><time>2026-04-12T08:00:34Z</time></trkpt><trkpt lat="44.4073572245546" lon="11.469612613224378"><ele>267.6666666666667</ele><time>2026-04-12T08:00:35Z</time></trkpt><trkpt lat="44.4073500080744" lon="11.469737317472509"><ele>267.0</ele><time>2026-04-12T08:00:36Z</time></trkpt><trkpt lat="44.40734612497317" lon="11.469860899202068"><ele>266.3333333333333</ele><time>2026-04-12T08:00:37Z</time></trkpt><trkpt lat="44.40734695769385" lon="11.469978438410502"><ele>265.66666666666663</ele><time>2026-04-12T08:00:38Z</time></trkpt><trkpt lat="44.407355878304905" lon="11.470096415038658"><ele>265.0</ele><time>2026-04-12T08:00:39Z</time></trkpt><trkpt lat="44.407376349901696" lon="11.470215042120202"><ele>265.0</ele><time>2026-04-12T08:00:40Z</time></trkpt><trkpt lat="44.407406375274945" lon="11.470317696140892"><ele>265.0</ele><time>2026-04-12T08:00:41Z</time></trkpt><trkpt lat="44.40744687684167" lon="11.470421166342513"><ele>265.0</ele><time>2026-04-12T08:00:42Z</time></trkpt><trkpt lat="44.4074860389537" lon="11.470521650066996"><ele>265.0</ele><time>2026-04-12T08:00:43Z</time></trkpt><trkpt lat="44.40751805940805" lon="11.470623620653607"><ele>265.0</ele><time>2026-04-12T08:00:44Z</time></trkpt><trkpt lat="44.407539729014665" lon="11.470740378837213"><ele>265.0</ele><time>2026-04-12T08:00:45Z</time></trkpt><trkpt lat="44.407519292062275" lon="11.47085740805213"><ele>265.2</ele><time>2026-04-12T08:00:46Z</time></trkpt><trkpt lat="44.40749627665961" lon="11.47098268418971"><ele>265.4</ele><time>2026-04-12T08:00:47Z</time></trkpt><trkpt lat="44.407460202537116" lon="11.471125335130418"><ele>265.6</ele><time>2026-04-12T08:00:48Z</time></trkpt><trkpt lat="44.40743767473312" lon="11.471279224828642"><ele>265.8</ele><time>2026-04-12T08:00:49Z</time></trkpt><trkpt lat="44.40739829025808" lon="11.471419232672735"><ele>266.0</ele><time>2026-04-12T08:00:50Z</time></trkpt><trkpt lat="44.40735803995898" lon="11.471549765961463"><ele>264.2</ele><time>2026-04-12T08:00:51Z</time></trkpt><trkpt lat="44.4073285618528" lon="11.471682714946226"><ele>262.40000000000003</ele><time>2026-04-12T08:00:52Z</time></trkpt><trkpt lat="44.407289001324095" lon="11.471812474073218"><ele>260.6</ele><time>2026-04-12T08:00:53Z</time></trkpt><trkpt lat="44.4072399446298" lon="11.47193383468274"><ele>258.8</ele><time>2026-04-12T08:00:54Z</time></trkpt><trkpt lat="44.40718233934188" lon="11.472043109590407"><ele>257.0</ele><time>2026-04-12T08:00:55Z</time></trkpt><trkpt lat="44.40711446752421" lon="11.472142517689583"><ele>255.66666666666669</ele><time>2026-04-12T08:00:55.999Z</time></trkpt><trkpt lat="44.40704638376187" lon="11.472233045839982"><ele>254.33333333333334</ele><time>2026-04-12T08:00:56.999Z</time></trkpt><trkpt lat="44.40697778495691" lon="11.47231413812105"><ele>253.0</ele><time>2026-04-12T08:00:57.999Z</time></trkpt><trkpt lat="44.40690687757694" lon="11.472386260967012"><ele>251.66666666666669</ele><time>2026-04-12T08:00:58.999Z</time></trkpt><trkpt lat="44.40685234269346" lon="11.47245722613531"><ele>250.33333333333334</ele><time>2026-04-12T08:00:59.999Z</time></trkpt><trkpt lat="44.406804577918095" lon="11.472528014185922"><ele>249.0</ele><time>2026-04-12T08:01:00.999Z</time></trkpt><trkpt lat="44.40675890730407" lon="11.47261012158696"><ele>249.0</ele><time>2026-04-12T08:01:01.999Z</time></trkpt><trkpt lat="44.40671320508238" lon="11.472685504636809"><ele>249.0</ele><time>2026-04-12T08:01:02.999Z</time></trkpt><trkpt lat="44.406604804389964" lon="11.472776688407556"><ele>249.0</ele><time>2026-04-12T08:01:04.999Z</time></trkpt><trkpt lat="44.406544843215435" lon="11.472825007432867"><ele>249.0</ele><time>2026-04-12T08:01:05.999Z</time></trkpt><trkpt lat="44.406489883690845" lon="11.472902596025342"><ele>249.0</ele><time>2026-04-12T08:01:06.999Z</time></trkpt><trkpt lat="44.40641999869753" lon="11.47296780229649"><ele>249.0</ele><time>2026-04-12T08:01:07.999Z</time></trkpt><trkpt lat="44.40635200534501" lon="11.473030425487282"><ele>248.0</ele><time>2026-04-12T08:01:08.999Z</time></trkpt><trkpt lat="44.40628681473994" lon="11.473099929526134"><ele>247.0</ele><time>2026-04-12T08:01:09.999Z</time></trkpt><trkpt lat="44.40622414436862" lon="11.473172864542683"><ele>246.0</ele><time>2026-04-12T08:01:10.999Z</time></trkpt><trkpt lat="44.40616166009844" lon="11.473249204200703"><ele>245.0</ele><time>2026-04-12T08:01:11.999Z</time></trkpt><trkpt lat="44.40610447123374" lon="11.473333138454006"><ele>244.0</ele><time>2026-04-12T08:01:12.999Z</time></trkpt><trkpt lat="44.40605050831043" lon="11.47342357656796"><ele>243.0</ele><time>2026-04-12T08:01:13.999Z</time></trkpt><trkpt lat="44.405994908251365" lon="11.473501100036948"><ele>243.0</ele><time>2026-04-12T08:01:14.999Z</time></trkpt><trkpt lat="44.405945368323984" lon="11.473594077856326"><ele>243.0</ele><time>2026-04-12T08:01:15.999Z</time></trkpt><trkpt lat="44.40589463857583" lon="11.47369077548283"><ele>243.0</ele><time>2026-04-12T08:01:16.999Z</time></trkpt><trkpt lat="44.40585676894773" lon="11.473798956337243"><ele>243.0</ele><time>2026-04-12T08:01:17.999Z</time></trkpt><trkpt lat="44.40580010964321" lon="11.473883918159464"><ele>243.0</ele><time>2026-04-12T08:01:18.999Z</time></trkpt><trkpt lat="44.40574702239335" lon="11.473967880987795"><ele>243.0</ele><time>2026-04-12T08:01:19.999Z</time></trkpt><trkpt lat="44.4056982187445" lon="11.474052844194999"><ele>243.33333333333334</ele><time>2026-04-12T08:01:20.999Z</time></trkpt><trkpt lat="44.40565529207705" lon="11.474147742939797"><ele>243.66666666666669</ele><time>2026-04-12T08:01:21.999Z</time></trkpt><trkpt lat="44.4056203076196" lon="11.474250226666294"><ele>244.0</ele><time>2026-04-12T08:01:22.999Z</time></trkpt><trkpt lat="44.40558133606033" lon="11.474361225882983"><ele>244.33333333333334</ele><time>2026-04-12T08:01:23.999Z</time></trkpt><trkpt lat="44.405536633131256" lon="11.474461889030039"><ele>244.66666666666669</ele><time>2026-04-12T08:01:24.999Z</time></trkpt><trkpt lat="44.40550510043708" lon="11.474552914601253"><ele>245.0</ele><time>2026-04-12T08:01:25.999Z</time></trkpt><trkpt lat="44.40547926063867" lon="11.474636366772105"><ele>245.0</ele><time>2026-04-12T08:01:26.999Z</time></trkpt><trkpt lat="44.4054405981195" lon="11.47478370477799"><ele>245.0</ele><time>2026-04-12T08:01:28.999Z</time></trkpt><trkpt lat="44.40540095700724" lon="11.474900884087234"><ele>245.0</ele><time>2026-04-12T08:01:30.999Z</time></trkpt><trkpt lat="44.40539287148515" lon="11.475015537072286"><ele>245.0</ele><time>2026-04-12T08:01:33.999Z</time></trkpt><trkpt lat="44.405390387941175" lon="11.47513837006326"><ele>245.0</ele><time>2026-04-12T08:01:37.999Z</time></trkpt><trkpt lat="44.40537644590122" lon="11.475262891347699"><ele>245.00000000000003</ele><time>2026-04-12T08:01:40.999Z</time></trkpt><trkpt lat="44.40536189525177" lon="11.475356486696962"><ele>245.0</ele><time>2026-04-12T08:01:42.999Z</time></trkpt><trkpt lat="44.40534029987661" lon="11.475448702566922"><ele>245.0</ele><time>2026-04-12T08:01:44.999Z</time></trkpt><trkpt lat="44.405303367992104" lon="11.475561379980947"><ele>245.0</ele><time>2026-04-12T08:01:46.999Z</time></trkpt><trkpt lat="44.405259719312895" lon="11.475678105963247"><ele>245.00000000000003</ele><time>2026-04-12T08:01:48.999Z</time></trkpt><trkpt lat="44.40521168219226" lon="11.475806384082224"><ele>245.0</ele><time>2026-04-12T08:01:50.999Z</time></trkpt><trkpt lat="44.40515894177729" lon="11.475946098874855"><ele>243.4</ele><time>2026-04-12T08:01:52.998Z</time></trkpt><trkpt lat="44.40510811970467" lon="11.476105714676939"><ele>241.8</ele><time>2026-04-12T08:01:54.998Z</time></trkpt><trkpt lat="44.4050413128343" lon="11.47625783141577"><ele>240.2</ele><time>2026-04-12T08:01:56.998Z</time></trkpt><trkpt lat="44.40497495037101" lon="11.47641200388386"><ele>238.6</ele><time>2026-04-12T08:01:58.998Z</time></trkpt><trkpt lat="44.40494166054407" lon="11.47649422051517"><ele>237.0</ele><time>2026-04-12T08:01:59.998Z</time></trkpt><trkpt lat="44.404907203871026" lon="11.476573413095876"><ele>235.5</ele><time>2026-04-12T08:02:00.998Z</time></trkpt><trkpt lat="44.40485449812061" lon="11.47669616543751"><ele>234.0</ele><time>2026-04-12T08:02:01.998Z</time></trkpt><trkpt lat="44.40478086153221" lon="11.476873538928723"><ele>232.5</ele><time>2026-04-12T08:02:02.998Z</time></trkpt><trkpt lat="44.404695647903104" lon="11.477066395973456"><ele>231.0</ele><time>2026-04-12T08:02:03.998Z</time></trkpt><trkpt lat="44.404623890116426" lon="11.4772353439198"><ele>228.4</ele><time>2026-04-12T08:02:04.998Z</time></trkpt><trkpt lat="44.40456016714612" lon="11.477384149707712"><ele>225.8</ele><time>2026-04-12T08:02:05.998Z</time></trkpt><trkpt lat="44.40449942679246" lon="11.477522069859052"><ele>223.20000000000002</ele><time>2026-04-12T08:02:06.998Z</time></trkpt><trkpt lat="44.404441258919036" lon="11.477650148875263"><ele>220.60000000000002</ele><time>2026-04-12T08:02:07.998Z</time></trkpt><trkpt lat="44.40438881354994" lon="11.477769253280831"><ele>218.0</ele><time>2026-04-12T08:02:08.998Z</time></trkpt><trkpt lat="44.40433838559847" lon="11.47787637723549"><ele>218.2</ele><time>2026-04-12T08:02:09.998Z</time></trkpt><trkpt lat="44.40429515596788" lon="11.477974416440288"><ele>218.4</ele><time>2026-04-12T08:02:10.998Z</time></trkpt><trkpt lat="44.404250430965604" lon="11.478055684169535"><ele>218.59999999999997</ele><time>2026-04-12T08:02:11.998Z</time></trkpt><trkpt lat="44.40419007953738" lon="11.478190618669345"><ele>218.79999999999998</ele><time>2026-04-12T08:02:13.998Z</time></trkpt><trkpt lat="44.40412082959218" lon="11.478283274846357"><ele>219.0</ele><time>2026-04-12T08:02:15.998Z</time></trkpt><trkpt lat="44.40403018177466" lon="11.478411939690064"><ele>219.0</ele><time>2026-04-12T08:02:17.998Z</time></trkpt><trkpt lat="44.4039741385192" lon="11.478485420446992"><ele>219.0</ele><time>2026-04-12T08:02:18.998Z</time></trkpt><trkpt lat="44.40391888793883" lon="11.4785685991047"><ele>219.0</ele><time>2026-04-12T08:02:19.998Z</time></trkpt><trkpt lat="44.40386590662959" lon="11.478659589366051"><ele>219.0</ele><time>2026-04-12T08:02:20.998Z</time></trkpt><trkpt lat="44.403834500556904" lon="11.478781310263495"><ele>219.0</ele><time>2026-04-12T08:02:21.998Z</time></trkpt><trkpt lat="44.40380452349331" lon="11.478880375566412"><ele>219.0</ele><time>2026-04-12T08:02:22.998Z</time></trkpt><trkpt lat="44.40378164424202" lon="11.478970575070877"><ele>219.0</ele><time>2026-04-12T08:02:24Z</time></trkpt><trkpt lat="44.40374910133539" lon="11.479117795434243"><ele>219.0</ele><time>2026-04-12T08:02:26Z</time></trkpt><trkpt lat="44.40375806115883" lon="11.479212931398289"><ele>219.0</ele><time>2026-04-12T08:02:28Z</time></trkpt><trkpt lat="44.40382929703693" lon="11.479304586174836"><ele>219.0</ele><time>2026-04-12T08:02:31Z</time></trkpt><trkpt lat="44.40389397623337" lon="11.479337935487878"><ele>219.0</ele><time>2026-04-12T08:02:33Z</time></trkpt><trkpt lat="44.403959235923466" lon="11.479398036991716"><ele>219.0</ele><time>2026-04-12T08:02:35Z</time></trkpt><trkpt lat="44.404027963823154" lon="11.47943486050471"><ele>219.0</ele><time>2026-04-12T08:02:37Z</time></trkpt><trkpt lat="44.40410517350933" lon="11.47947467326286"><ele>219.0</ele><time>2026-04-12T08:02:39Z</time></trkpt><trkpt lat="44.40417957934179" lon="11.479519132844397"><ele>219.0</ele><time>2026-04-12T08:02:41Z</time></trkpt><trkpt lat="44.404253925170444" lon="11.47955123423634"><ele>219.0</ele><time>2026-04-12T08:02:43Z</time></trkpt><trkpt lat="44.40430983656125" lon="11.479614519580233"><ele>219.0</ele><time>2026-04-12T08:02:45Z</time></trkpt><trkpt lat="44.40435295012903" lon="11.479718827482461"><ele>219.0</ele><time>2026-04-12T08:02:47Z</time></trkpt><trkpt lat="44.40438491911742" lon="11.479850783565858"><ele>218.79999999999998</ele><time>2026-04-12T08:02:49Z</time></trkpt><trkpt lat="44.404399324546574" lon="11.479997484903917"><ele>218.59999999999997</ele><time>2026-04-12T08:02:51Z</time></trkpt><trkpt lat="44.404402832617386" lon="11.480142189490508"><ele>218.4</ele><time>2026-04-12T08:02:53Z</time></trkpt><trkpt lat="44.40440671835094" lon="11.480276036318429"><ele>218.2</ele><time>2026-04-12T08:02:55Z</time></trkpt><trkpt lat="44.40440830930405" lon="11.480413369733274"><ele>218.0</ele><time>2026-04-12T08:02:57Z</time></trkpt><trkpt lat="44.40439452013231" lon="11.480561219991294"><ele>218.0</ele><time>2026-04-12T08:02:59Z</time></trkpt><trkpt lat="44.40439417936466" lon="11.480701547590087"><ele>218.0</ele><time>2026-04-12T08:03:01Z</time></trkpt><trkpt lat="44.40439415189101" lon="11.480813528472028"><ele>218.0</ele><time>2026-04-12T08:03:02.999Z</time></trkpt><trkpt lat="44.40439448416261" lon="11.480944313196463"><ele>218.0</ele><time>2026-04-12T08:03:04.999Z</time></trkpt><trkpt lat="44.404395008195166" lon="11.481070081478324"><ele>218.0</ele><time>2026-04-12T08:03:06.999Z</time></trkpt><trkpt lat="44.404413635004836" lon="11.481191401934405"><ele>217.00000000000003</ele><time>2026-04-12T08:03:08.999Z</time></trkpt><trkpt lat="44.40440967761056" lon="11.481317401390294"><ele>216.0</ele><time>2026-04-12T08:03:10.999Z</time></trkpt><trkpt lat="44.40444170598055" lon="11.481425797006622"><ele>215.0</ele><time>2026-04-12T08:03:12.999Z</time></trkpt><trkpt lat="44.40446551681969" lon="11.48152269598178"><ele>214.0</ele><time>2026-04-12T08:03:14.999Z</time></trkpt><trkpt lat="44.40446275127913" lon="11.481625912829074"><ele>213.00000000000003</ele><time>2026-04-12T08:03:16.999Z</time></trkpt><trkpt lat="44.40446775401084" lon="11.481739848040943"><ele>212.0</ele><time>2026-04-12T08:03:18.999Z</time></trkpt><trkpt lat="44.40448034875435" lon="11.481850800273515"><ele>212.0</ele><time>2026-04-12T08:03:21.999Z</time></trkpt><trkpt lat="44.404509275066914" lon="11.481948409591203"><ele>212.0</ele><time>2026-04-12T08:03:23.999Z</time></trkpt><trkpt lat="44.404514011258996" lon="11.482060630021696"><ele>212.0</ele><time>2026-04-12T08:03:25.999Z</time></trkpt><trkpt lat="44.404474273464444" lon="11.482135447894086"><ele>212.0</ele><time>2026-04-12T08:03:26.999Z</time></trkpt><trkpt lat="44.40445586795715" lon="11.482228291486798"><ele>212.0</ele><time>2026-04-12T08:03:27.999Z</time></trkpt><trkpt lat="44.4044393354403" lon="11.482322470588587"><ele>212.0</ele><time>2026-04-12T08:03:28.999Z</time></trkpt><trkpt lat="44.40442415402809" lon="11.482408953107628"><ele>212.0</ele><time>2026-04-12T08:03:29.999Z</time></trkpt><trkpt lat="44.404409708224954" lon="11.482502927112746"><ele>210.85714285714286</ele><time>2026-04-12T08:03:30.999Z</time></trkpt><trkpt lat="44.404395163730804" lon="11.482599205333738"><ele>209.7142857142857</ele><time>2026-04-12T08:03:31.999Z</time></trkpt><trkpt lat="44.40438090357458" lon="11.482693601346421"><ele>208.57142857142856</ele><time>2026-04-12T08:03:32.999Z</time></trkpt><trkpt lat="44.4043688207645" lon="11.482784671791084"><ele>207.42857142857144</ele><time>2026-04-12T08:03:33.999Z</time></trkpt><trkpt lat="44.404359976327534" lon="11.48287715971661"><ele>206.28571428571428</ele><time>2026-04-12T08:03:34.999Z</time></trkpt><trkpt lat="44.404356239234076" lon="11.482973992780826"><ele>205.14285714285714</ele><time>2026-04-12T08:03:35.999Z</time></trkpt><trkpt lat="44.404357350147144" lon="11.483065703013555"><ele>204.0</ele><time>2026-04-12T08:03:36.999Z</time></trkpt><trkpt lat="44.40436660430914" lon="11.483159736998083"><ele>202.57142857142858</ele><time>2026-04-12T08:03:37.999Z</time></trkpt><trkpt lat="44.40438364020237" lon="11.483261064174451"><ele>201.14285714285717</ele><time>2026-04-12T08:03:38.999Z</time></trkpt><trkpt lat="44.404405487597785" lon="11.483360214776472"><ele>199.71428571428572</ele><time>2026-04-12T08:03:39.999Z</time></trkpt><trkpt lat="44.4044378213647" lon="11.483459492072571"><ele>198.28571428571428</ele><time>2026-04-12T08:03:40.999Z</time></trkpt><trkpt lat="44.40446971291332" lon="11.48355745703225"><ele>196.85714285714286</ele><time>2026-04-12T08:03:41.999Z</time></trkpt><trkpt lat="44.40449864066485" lon="11.483648499411458"><ele>195.42857142857142</ele><time>2026-04-12T08:03:42.999Z</time></trkpt><trkpt lat="44.40452695107772" lon="11.483741587849485"><ele>194.0</ele><time>2026-04-12T08:03:43.999Z</time></trkpt><trkpt lat="44.404555533824286" lon="11.483835571914993"><ele>192.66666666666669</ele><time>2026-04-12T08:03:44.999Z</time></trkpt><trkpt lat="44.40458700078935" lon="11.483936109543217"><ele>191.33333333333334</ele><time>2026-04-12T08:03:45.999Z</time></trkpt><trkpt lat="44.4046211171785" lon="11.484036597181394"><ele>190.0</ele><time>2026-04-12T08:03:46.999Z</time></trkpt><trkpt lat="44.404671933167215" lon="11.484129973169084"><ele>188.66666666666669</ele><time>2026-04-12T08:03:47.999Z</time></trkpt><trkpt lat="44.40469831641821" lon="11.484258228717632"><ele>187.33333333333334</ele><time>2026-04-12T08:03:48.999Z</time></trkpt><trkpt lat="44.404760161873625" lon="11.48438418667496"><ele>186.0</ele><time>2026-04-12T08:03:49.999Z</time></trkpt><trkpt lat="44.40479362528598" lon="11.48456967149444"><ele>184.75</ele><time>2026-04-12T08:03:50.999Z</time></trkpt><trkpt lat="44.40483171148134" lon="11.48474918470136"><ele>183.5</ele><time>2026-04-12T08:03:51.999Z</time></trkpt><trkpt lat="44.404864549651016" lon="11.48491178315196"><ele>182.25</ele><time>2026-04-12T08:03:52.999Z</time></trkpt><trkpt lat="44.40490233193216" lon="11.485061598907798"><ele>181.0</ele><time>2026-04-12T08:03:53.999Z</time></trkpt><trkpt lat="44.40491636876178" lon="11.485216926651189"><ele>181.0</ele><time>2026-04-12T08:03:54.999Z</time></trkpt><trkpt lat="44.40491738839378" lon="11.485416029553935"><ele>181.0</ele><time>2026-04-12T08:03:55.998Z</time></trkpt><trkpt lat="44.40491263256109" lon="11.485664508899832"><ele>181.0</ele><time>2026-04-12T08:03:56.998Z</time></trkpt><trkpt lat="44.404908253718055" lon="11.485937394177796"><ele>182.25</ele><time>2026-04-12T08:03:57.998Z</time></trkpt><trkpt lat="44.40491303388963" lon="11.486154821568674"><ele>183.5</ele><time>2026-04-12T08:03:58.998Z</time></trkpt><trkpt lat="44.40489389364285" lon="11.48636166296651"><ele>184.75</ele><time>2026-04-12T08:03:59.998Z</time></trkpt><trkpt lat="44.40489008732414" lon="11.486550409197992"><ele>186.0</ele><time>2026-04-12T08:04:00.998Z</time></trkpt><trkpt lat="44.40490253990932" lon="11.486717654834221"><ele>187.20000000000002</ele><time>2026-04-12T08:04:01.998Z</time></trkpt><trkpt lat="44.40489531482042" lon="11.486883107069719"><ele>188.4</ele><time>2026-04-12T08:04:02.998Z</time></trkpt><trkpt lat="44.404887459063595" lon="11.48703458500246"><ele>189.6</ele><time>2026-04-12T08:04:03.998Z</time></trkpt><trkpt lat="44.404870143914664" lon="11.487175731664644"><ele>190.8</ele><time>2026-04-12T08:04:04.998Z</time></trkpt><trkpt lat="44.40485585512801" lon="11.48732145505215"><ele>192.0</ele><time>2026-04-12T08:04:05.998Z</time></trkpt><trkpt lat="44.40485067948774" lon="11.4874654081108"><ele>192.39999999999998</ele><time>2026-04-12T08:04:06.998Z</time></trkpt><trkpt lat="44.40485497589055" lon="11.487604806605354"><ele>192.79999999999998</ele><time>2026-04-12T08:04:07.998Z</time></trkpt><trkpt lat="44.40485313148059" lon="11.48773013628253"><ele>193.2</ele><time>2026-04-12T08:04:08.998Z</time></trkpt><trkpt lat="44.404862267122546" lon="11.487856282939138"><ele>193.6</ele><time>2026-04-12T08:04:09.998Z</time></trkpt><trkpt lat="44.40487810605317" lon="11.487992868076025"><ele>194.0</ele><time>2026-04-12T08:04:10.998Z</time></trkpt><trkpt lat="44.40489708959558" lon="11.488129351668357"><ele>194.0</ele><time>2026-04-12T08:04:11.998Z</time></trkpt><trkpt lat="44.40491069267743" lon="11.488268932667719"><ele>194.0</ele><time>2026-04-12T08:04:12.998Z</time></trkpt><trkpt lat="44.404926619969956" lon="11.488408128014662"><ele>194.0</ele><time>2026-04-12T08:04:13.998Z</time></trkpt><trkpt lat="44.404943896336704" lon="11.488545358049583"><ele>194.0</ele><time>2026-04-12T08:04:14.998Z</time></trkpt><trkpt lat="44.40496663703775" lon="11.488681654435904"><ele>194.0</ele><time>2026-04-12T08:04:15.998Z</time></trkpt><trkpt lat="44.40498835021236" lon="11.488819819978515"><ele>193.83333333333334</ele><time>2026-04-12T08:04:16.998Z</time></trkpt><trkpt lat="44.405017959285246" lon="11.48894517866438"><ele>193.66666666666669</ele><time>2026-04-12T08:04:17.998Z</time></trkpt><trkpt lat="44.40504339842208" lon="11.489060840843509"><ele>193.5</ele><time>2026-04-12T08:04:18.998Z</time></trkpt><trkpt lat="44.405066963477935" lon="11.489166588216795"><ele>193.33333333333331</ele><time>2026-04-12T08:04:19.998Z</time></trkpt><trkpt lat="44.40509093015293" lon="11.489275056677975"><ele>193.16666666666666</ele><time>2026-04-12T08:04:20.998Z</time></trkpt><trkpt lat="44.40510831637589" lon="11.48939185549843"><ele>193.0</ele><time>2026-04-12T08:04:21.998Z</time></trkpt><trkpt lat="44.40512509552322" lon="11.489508925134832"><ele>192.2</ele><time>2026-04-12T08:04:22.998Z</time></trkpt><trkpt lat="44.405136397704815" lon="11.489637285493242"><ele>191.4</ele><time>2026-04-12T08:04:23.998Z</time></trkpt><trkpt lat="44.405142893561624" lon="11.489769021954189"><ele>190.6</ele><time>2026-04-12T08:04:24.998Z</time></trkpt><trkpt lat="44.40514566645063" lon="11.489902576560947"><ele>189.79999999999998</ele><time>2026-04-12T08:04:25.998Z</time></trkpt><trkpt lat="44.40514654436376" lon="11.490037142279515"><ele>189.0</ele><time>2026-04-12T08:04:26.998Z</time></trkpt><trkpt lat="44.40514826201035" lon="11.49017604676204"><ele>189.0</ele><time>2026-04-12T08:04:27.998Z</time></trkpt><trkpt lat="44.40514942057955" lon="11.490316207282955"><ele>189.0</ele><time>2026-04-12T08:04:28.998Z</time></trkpt><trkpt lat="44.40515150423811" lon="11.49046104514086"><ele>189.0</ele><time>2026-04-12T08:04:30Z</time></trkpt><trkpt lat="44.4051543592913" lon="11.490606922123018"><ele>189.0</ele><time>2026-04-12T08:04:31Z</time></trkpt><trkpt lat="44.40515864178059" lon="11.490755214492305"><ele>189.0</ele><time>2026-04-12T08:04:32Z</time></trkpt><trkpt lat="44.40516014677347" lon="11.490901727088408"><ele>188.39999999999998</ele><time>2026-04-12T08:04:33Z</time></trkpt><trkpt lat="44.40516153264371" lon="11.491046763329905"><ele>187.8</ele><time>2026-04-12T08:04:34Z</time></trkpt><trkpt lat="44.40516219384994" lon="11.491190833179363"><ele>187.2</ele><time>2026-04-12T08:04:35Z</time></trkpt><trkpt lat="44.40516656660883" lon="11.491331764933605"><ele>186.60000000000002</ele><time>2026-04-12T08:04:36Z</time></trkpt><trkpt lat="44.4051705784146" lon="11.49147210338413"><ele>186.0</ele><time>2026-04-12T08:04:37Z</time></trkpt><trkpt lat="44.405173740452" lon="11.4916140162149"><ele>186.0</ele><time>2026-04-12T08:04:38Z</time></trkpt><trkpt lat="44.40517571456843" lon="11.491758258901847"><ele>186.0</ele><time>2026-04-12T08:04:39Z</time></trkpt><trkpt lat="44.4051773089201" lon="11.49190572965766"><ele>186.0</ele><time>2026-04-12T08:04:40Z</time></trkpt><trkpt lat="44.40517977375175" lon="11.49205634619018"><ele>186.0</ele><time>2026-04-12T08:04:41Z</time></trkpt><trkpt lat="44.40518333716765" lon="11.492205471993115"><ele>186.0</ele><time>2026-04-12T08:04:42Z</time></trkpt><trkpt lat="44.40518886746329" lon="11.492356518833795"><ele>185.4</ele><time>2026-04-12T08:04:43Z</time></trkpt><trkpt lat="44.40519362655819" lon="11.492505349261323"><ele>184.8</ele><time>2026-04-12T08:04:44Z</time></trkpt><trkpt lat="44.405197863002364" lon="11.492655414971656"><ele>184.20000000000002</ele><time>2026-04-12T08:04:45Z</time></trkpt><trkpt lat="44.40520162237521" lon="11.492803290774997"><ele>183.60000000000002</ele><time>2026-04-12T08:04:46Z</time></trkpt><trkpt lat="44.40520526802054" lon="11.492949857063708"><ele>183.0</ele><time>2026-04-12T08:04:47Z</time></trkpt><trkpt lat="44.40520341454184" lon="11.493096327506821"><ele>182.8</ele><time>2026-04-12T08:04:48Z</time></trkpt><trkpt lat="44.405204397636545" lon="11.493241026477344"><ele>182.60000000000002</ele><time>2026-04-12T08:04:49Z</time></trkpt><trkpt lat="44.4052065627481" lon="11.493372812472614"><ele>182.39999999999998</ele><time>2026-04-12T08:04:50Z</time></trkpt><trkpt lat="44.405203822149446" lon="11.493494040113692"><ele>182.2</ele><time>2026-04-12T08:04:51Z</time></trkpt><trkpt lat="44.40520855035158" lon="11.493609019582204"><ele>182.0</ele><time>2026-04-12T08:04:52Z</time></trkpt><trkpt lat="44.405212165834456" lon="11.49372789557762"><ele>181.16666666666666</ele><time>2026-04-12T08:04:53Z</time></trkpt><trkpt lat="44.40521430362892" lon="11.493847168015172"><ele>180.33333333333331</ele><time>2026-04-12T08:04:54Z</time></trkpt><trkpt lat="44.405214062034545" lon="11.493966619948665"><ele>179.5</ele><time>2026-04-12T08:04:55Z</time></trkpt><trkpt lat="44.405213098174535" lon="11.494090046951314"><ele>178.66666666666666</ele><time>2026-04-12T08:04:56Z</time></trkpt><trkpt lat="44.40521321129068" lon="11.494206644459638"><ele>177.83333333333334</ele><time>2026-04-12T08:04:57Z</time></trkpt><trkpt lat="44.40521380192713" lon="11.494319531167875"><ele>177.0</ele><time>2026-04-12T08:04:58Z</time></trkpt><trkpt lat="44.40521635076454" lon="11.494433954726725"><ele>177.0</ele><time>2026-04-12T08:04:59Z</time></trkpt><trkpt lat="44.405220530215914" lon="11.494542891314813"><ele>177.0</ele><time>2026-04-12T08:05:00Z</time></trkpt><trkpt lat="44.40522453925686" lon="11.49463695487463"><ele>177.0</ele><time>2026-04-12T08:05:01Z</time></trkpt><trkpt lat="44.40523565204059" lon="11.494724906390099"><ele>177.0</ele><time>2026-04-12T08:05:02Z</time></trkpt><trkpt lat="44.40525825337118" lon="11.494807324642"><ele>177.0</ele><time>2026-04-12T08:05:03Z</time></trkpt><trkpt lat="44.40533403201446" lon="11.494939866686066"><ele>177.0</ele><time>2026-04-12T08:05:04.999Z</time></trkpt><trkpt lat="44.40543039649083" lon="11.495054818518005"><ele>177.0</ele><time>2026-04-12T08:05:06.999Z</time></trkpt><trkpt lat="44.40548171954569" lon="11.495110572889589"><ele>177.0</ele><time>2026-04-12T08:05:07.999Z</time></trkpt><trkpt lat="44.40553483959322" lon="11.495164820452457"><ele>177.0</ele><time>2026-04-12T08:05:08.999Z</time></trkpt><trkpt lat="44.4055869448342" lon="11.495219652015146"><ele>177.0</ele><time>2026-04-12T08:05:09.999Z</time></trkpt><trkpt lat="44.40564008861621" lon="11.495273058010964"><ele>177.0</ele><time>2026-04-12T08:05:10.999Z</time></trkpt><trkpt lat="44.40569433161071" lon="11.495325955892245"><ele>177.0</ele><time>2026-04-12T08:05:11.999Z</time></trkpt><trkpt lat="44.405751183776374" lon="11.495381591564824"><ele>177.0</ele><time>2026-04-12T08:05:12.999Z</time></trkpt><trkpt lat="44.40580844451442" lon="11.495438248683593"><ele>175.66666666666666</ele><time>2026-04-12T08:05:13.999Z</time></trkpt><trkpt lat="44.405866741071364" lon="11.495496194667592"><ele>174.33333333333334</ele><time>2026-04-12T08:05:14.999Z</time></trkpt><trkpt lat="44.405924967008296" lon="11.495554379662627"><ele>173.0</ele><time>2026-04-12T08:05:15.999Z</time></trkpt><trkpt lat="44.405986477653705" lon="11.495616476538828"><ele>171.66666666666669</ele><time>2026-04-12T08:05:16.999Z</time></trkpt><trkpt lat="44.40604967226923" lon="11.4956796478359"><ele>170.33333333333334</ele><time>2026-04-12T08:05:17.999Z</time></trkpt><trkpt lat="44.40611301317313" lon="11.495741842759413"><ele>169.0</ele><time>2026-04-12T08:05:18.999Z</time></trkpt><trkpt lat="44.40617579733779" lon="11.495808119088915"><ele>169.0</ele><time>2026-04-12T08:05:19.999Z</time></trkpt><trkpt lat="44.40623905832925" lon="11.495870620919385"><ele>169.0</ele><time>2026-04-12T08:05:20.999Z</time></trkpt><trkpt lat="44.406301700324256" lon="11.495931152965506"><ele>169.0</ele><time>2026-04-12T08:05:21.999Z</time></trkpt><trkpt lat="44.406366942020924" lon="11.495992148879257"><ele>169.0</ele><time>2026-04-12T08:05:22.999Z</time></trkpt><trkpt lat="44.40644695964884" lon="11.49606995180646"><ele>169.0</ele><time>2026-04-12T08:05:23.999Z</time></trkpt><trkpt lat="44.40653872524226" lon="11.496157790782659"><ele>169.0</ele><time>2026-04-12T08:05:24.999Z</time></trkpt><trkpt lat="44.406638282607915" lon="11.496248563876103"><ele>167.75</ele><time>2026-04-12T08:05:25.999Z</time></trkpt><trkpt lat="44.40673514942652" lon="11.496336467850366"><ele>166.5</ele><time>2026-04-12T08:05:26.999Z</time></trkpt><trkpt lat="44.406830937867994" lon="11.496421801884237"><ele>165.25</ele><time>2026-04-12T08:05:27.999Z</time></trkpt><trkpt lat="44.4069307156478" lon="11.496514289524399"><ele>164.0</ele><time>2026-04-12T08:05:28.999Z</time></trkpt><trkpt lat="44.407038493894916" lon="11.496613149921995"><ele>164.0</ele><time>2026-04-12T08:05:29.999Z</time></trkpt><trkpt lat="44.4071407713297" lon="11.49673511906803"><ele>164.0</ele><time>2026-04-12T08:05:30.999Z</time></trkpt><trkpt lat="44.40726192733895" lon="11.4968211109611"><ele>164.0</ele><time>2026-04-12T08:05:31.999Z</time></trkpt><trkpt lat="44.40738235400824" lon="11.49693553629584"><ele>164.0</ele><time>2026-04-12T08:05:32.999Z</time></trkpt><trkpt lat="44.40749354471038" lon="11.497044700784478"><ele>161.75</ele><time>2026-04-12T08:05:33.999Z</time></trkpt><trkpt lat="44.4076028144432" lon="11.49714431514575"><ele>159.5</ele><time>2026-04-12T08:05:34.999Z</time></trkpt><trkpt lat="44.40770682303512" lon="11.497239040727635"><ele>157.25</ele><time>2026-04-12T08:05:35.999Z</time></trkpt><trkpt lat="44.4078060673995" lon="11.497329736357639"><ele>155.0</ele><time>2026-04-12T08:05:36.999Z</time></trkpt><trkpt lat="44.407901276432206" lon="11.497417557148168"><ele>154.75</ele><time>2026-04-12T08:05:37.999Z</time></trkpt><trkpt lat="44.407995473846476" lon="11.497505234069646"><ele>154.5</ele><time>2026-04-12T08:05:38.999Z</time></trkpt><trkpt lat="44.40809040542148" lon="11.497591400389327"><ele>154.25</ele><time>2026-04-12T08:05:39.999Z</time></trkpt><trkpt lat="44.40818772199902" lon="11.49768239025077"><ele>154.0</ele><time>2026-04-12T08:05:40.999Z</time></trkpt><trkpt lat="44.40829192222274" lon="11.497777189347051"><ele>154.0</ele><time>2026-04-12T08:05:41.999Z</time></trkpt><trkpt lat="44.40839864417352" lon="11.497876665280423"><ele>154.0</ele><time>2026-04-12T08:05:42.999Z</time></trkpt><trkpt lat="44.40850733610898" lon="11.497978365473877"><ele>154.0</ele><time>2026-04-12T08:05:43.999Z</time></trkpt><trkpt lat="44.408611713928956" lon="11.498076503006008"><ele>154.0</ele><time>2026-04-12T08:05:44.999Z</time></trkpt><trkpt lat="44.40871134330077" lon="11.498169956039161"><ele>153.5</ele><time>2026-04-12T08:05:45.999Z</time></trkpt><trkpt lat="44.40880832301403" lon="11.498260130737762"><ele>153.0</ele><time>2026-04-12T08:05:46.999Z</time></trkpt><trkpt lat="44.40890510339417" lon="11.498351529856766"><ele>152.5</ele><time>2026-04-12T08:05:47.999Z</time></trkpt><trkpt lat="44.40900166088984" lon="11.498443151136426"><ele>152.0</ele><time>2026-04-12T08:05:48.999Z</time></trkpt><trkpt lat="44.40909851199453" lon="11.49853416367205"><ele>151.0</ele><time>2026-04-12T08:05:49.999Z</time></trkpt><trkpt lat="44.40919504579528" lon="11.498625484659195"><ele>150.0</ele><time>2026-04-12T08:05:50.999Z</time></trkpt><trkpt lat="44.40928956688088" lon="11.498715608469446"><ele>149.0</ele><time>2026-04-12T08:05:51.999Z</time></trkpt><trkpt lat="44.40938392815309" lon="11.498806658177509"><ele>148.0</ele><time>2026-04-12T08:05:52.999Z</time></trkpt><trkpt lat="44.40947857850963" lon="11.498900753975537"><ele>147.75</ele><time>2026-04-12T08:05:53.999Z</time></trkpt><trkpt lat="44.40957466635737" lon="11.49899450113329"><ele>147.5</ele><time>2026-04-12T08:05:54.999Z</time></trkpt><trkpt lat="44.409672646068366" lon="11.499086692575128"><ele>147.25</ele><time>2026-04-12T08:05:55.999Z</time></trkpt><trkpt lat="44.40977274658982" lon="11.499177597470242"><ele>147.0</ele><time>2026-04-12T08:05:56.999Z</time></trkpt><trkpt lat="44.40987403976997" lon="11.4992717313958"><ele>146.6</ele><time>2026-04-12T08:05:57.999Z</time></trkpt><trkpt lat="44.40997202971501" lon="11.499360753759786"><ele>146.2</ele><time>2026-04-12T08:05:58.998Z</time></trkpt><trkpt lat="44.4100667319313" lon="11.499445943428393"><ele>145.8</ele><time>2026-04-12T08:05:59.998Z</time></trkpt><trkpt lat="44.41015986465976" lon="11.499524887073546"><ele>145.4</ele><time>2026-04-12T08:06:00.998Z</time></trkpt><trkpt lat="44.41024217728799" lon="11.499609748239836"><ele>145.0</ele><time>2026-04-12T08:06:01.998Z</time></trkpt><trkpt lat="44.41032485607028" lon="11.499685878403106"><ele>144.33333333333334</ele><time>2026-04-12T08:06:02.998Z</time></trkpt><trkpt lat="44.41040610368047" lon="11.499752395466865"><ele>143.66666666666669</ele><time>2026-04-12T08:06:03.998Z</time></trkpt><trkpt lat="44.41048228498989" lon="11.499814765208722"><ele>143.0</ele><time>2026-04-12T08:06:04.998Z</time></trkpt><trkpt lat="44.410565521196446" lon="11.499884524094293"><ele>142.33333333333334</ele><time>2026-04-12T08:06:05.998Z</time></trkpt><trkpt lat="44.41061576313889" lon="11.499962530459749"><ele>141.66666666666666</ele><time>2026-04-12T08:06:06.998Z</time></trkpt><trkpt lat="44.41063366727343" lon="11.500062331243168"><ele>141.0</ele><time>2026-04-12T08:06:07.998Z</time></trkpt><trkpt lat="44.41061817137582" lon="11.500160718712673"><ele>139.8</ele><time>2026-04-12T08:06:08.998Z</time></trkpt><trkpt lat="44.41060200664569" lon="11.500284455007373"><ele>138.6</ele><time>2026-04-12T08:06:09.998Z</time></trkpt><trkpt lat="44.410582895316416" lon="11.500459808703493"><ele>137.4</ele><time>2026-04-12T08:06:10.998Z</time></trkpt><trkpt lat="44.4105647681942" lon="11.500617475180222"><ele>136.2</ele><time>2026-04-12T08:06:11.998Z</time></trkpt><trkpt lat="44.410549255368664" lon="11.500759180854097"><ele>135.0</ele><time>2026-04-12T08:06:12.998Z</time></trkpt><trkpt lat="44.41054892213378" lon="11.500893856288899"><ele>134.66666666666666</ele><time>2026-04-12T08:06:13.998Z</time></trkpt><trkpt lat="44.4105334114004" lon="11.501020083336455"><ele>134.33333333333334</ele><time>2026-04-12T08:06:14.998Z</time></trkpt><trkpt lat="44.41052065589826" lon="11.50113832415418"><ele>134.0</ele><time>2026-04-12T08:06:15.998Z</time></trkpt><trkpt lat="44.41050916104093" lon="11.501250173639638"><ele>133.66666666666669</ele><time>2026-04-12T08:06:16.998Z</time></trkpt><trkpt lat="44.41050047223769" lon="11.501358726572185"><ele>133.33333333333334</ele><time>2026-04-12T08:06:17.998Z</time></trkpt><trkpt lat="44.410516986167124" lon="11.50146689394765"><ele>133.0</ele><time>2026-04-12T08:06:18.998Z</time></trkpt><trkpt lat="44.410550156345444" lon="11.501567700699889"><ele>132.14285714285714</ele><time>2026-04-12T08:06:19.998Z</time></trkpt><trkpt lat="44.41059094420831" lon="11.501657754279362"><ele>131.28571428571428</ele><time>2026-04-12T08:06:20.998Z</time></trkpt><trkpt lat="44.410623060307984" lon="11.50175178045719"><ele>130.42857142857144</ele><time>2026-04-12T08:06:21.998Z</time></trkpt><trkpt lat="44.41064442475442" lon="11.501853028525385"><ele>129.57142857142856</ele><time>2026-04-12T08:06:22.998Z</time></trkpt><trkpt lat="44.41063671582552" lon="11.501954386514726"><ele>128.71428571428572</ele><time>2026-04-12T08:06:23.998Z</time></trkpt><trkpt lat="44.41063187732954" lon="11.50205413984415"><ele>127.85714285714286</ele><time>2026-04-12T08:06:24.998Z</time></trkpt><trkpt lat="44.41062254699357" lon="11.502151818114305"><ele>127.0</ele><time>2026-04-12T08:06:25.998Z</time></trkpt><trkpt lat="44.41061267790459" lon="11.502247089301148"><ele>126.14285714285714</ele><time>2026-04-12T08:06:26.998Z</time></trkpt><trkpt lat="44.41060077931901" lon="11.502346387003076"><ele>125.28571428571428</ele><time>2026-04-12T08:06:27.998Z</time></trkpt><trkpt lat="44.41058940402072" lon="11.502441317581239"><ele>124.42857142857142</ele><time>2026-04-12T08:06:28.998Z</time></trkpt><trkpt lat="44.410593343873295" lon="11.502536291013174"><ele>123.57142857142857</ele><time>2026-04-12T08:06:29.998Z</time></trkpt><trkpt lat="44.41057548855163" lon="11.502629557358016"><ele>122.7142857142857</ele><time>2026-04-12T08:06:30.998Z</time></trkpt><trkpt lat="44.410559462742086" lon="11.502717129497677"><ele>121.85714285714285</ele><time>2026-04-12T08:06:31.998Z</time></trkpt><trkpt lat="44.41054407171566" lon="11.502814539054594"><ele>121.0</ele><time>2026-04-12T08:06:32.998Z</time></trkpt><trkpt lat="44.41052823183804" lon="11.502910987199106"><ele>120.16666666666667</ele><time>2026-04-12T08:06:33.998Z</time></trkpt><trkpt lat="44.41050756199465" lon="11.503006486417183"><ele>119.33333333333334</ele><time>2026-04-12T08:06:35Z</time></trkpt><trkpt lat="44.41047951424217" lon="11.503104813884589"><ele>118.5</ele><time>2026-04-12T08:06:36Z</time></trkpt><trkpt lat="44.41043970490034" lon="11.503174457184599"><ele>117.66666666666666</ele><time>2026-04-12T08:06:37Z</time></trkpt><trkpt lat="44.41042302645707" lon="11.503275344288703"><ele>116.83333333333333</ele><time>2026-04-12T08:06:38Z</time></trkpt><trkpt lat="44.410364645657424" lon="11.503387871276859"><ele>116.0</ele><time>2026-04-12T08:06:39Z</time></trkpt><trkpt lat="44.410298992813196" lon="11.503555607866849"><ele>114.25</ele><time>2026-04-12T08:06:40Z</time></trkpt><trkpt lat="44.410226800103956" lon="11.50373416223951"><ele>112.5</ele><time>2026-04-12T08:06:41Z</time></trkpt><trkpt lat="44.410163516223314" lon="11.503886963571514"><ele>110.75</ele><time>2026-04-12T08:06:42Z</time></trkpt><trkpt lat="44.41010256903627" lon="11.504034074116232"><ele>109.0</ele><time>2026-04-12T08:06:43Z</time></trkpt><trkpt lat="44.41006354332167" lon="11.504169013674323"><ele>107.83333333333334</ele><time>2026-04-12T08:06:44Z</time></trkpt><trkpt lat="44.41001784851043" lon="11.504281751972467"><ele>106.66666666666667</ele><time>2026-04-12T08:06:45Z</time></trkpt><trkpt lat="44.4099570751988" lon="11.504378005238298"><ele>105.5</ele><time>2026-04-12T08:06:46Z</time></trkpt><trkpt lat="44.40990544727022" lon="11.504478809345379"><ele>104.33333333333334</ele><time>2026-04-12T08:06:47Z</time></trkpt><trkpt lat="44.40986042613397" lon="11.504559076639616"><ele>103.16666666666667</ele><time>2026-04-12T08:06:48Z</time></trkpt><trkpt lat="44.409832372874" lon="11.504642093868574"><ele>102.0</ele><time>2026-04-12T08:06:49Z</time></trkpt><trkpt lat="44.40972935882421" lon="11.504738928002242"><ele>101.66666666666667</ele><time>2026-04-12T08:06:51Z</time></trkpt><trkpt lat="44.40968981586998" lon="11.504813070405925"><ele>101.33333333333334</ele><time>2026-04-12T08:06:53Z</time></trkpt><trkpt lat="44.409592547735976" lon="11.504777367229787"><ele>101.0</ele><time>2026-04-12T08:06:55Z</time></trkpt><trkpt lat="44.40952797064613" lon="11.504743971108702"><ele>100.66666666666667</ele><time>2026-04-12T08:06:56Z</time></trkpt><trkpt lat="44.40945336707923" lon="11.504679349433518"><ele>100.33333333333334</ele><time>2026-04-12T08:06:57Z</time></trkpt><trkpt lat="44.409396472107865" lon="11.50461394406087"><ele>100.0</ele><time>2026-04-12T08:06:58Z</time></trkpt><trkpt lat="44.409333439717244" lon="11.50452389676102"><ele>100.0</ele><time>2026-04-12T08:06:59Z</time></trkpt><trkpt lat="44.4092641817118" lon="11.504421046803474"><ele>100.0</ele><time>2026-04-12T08:07:00Z</time></trkpt><trkpt lat="44.409185500363236" lon="11.504313947256"><ele>100.0</ele><time>2026-04-12T08:07:01Z</time></trkpt><trkpt lat="44.40910462234966" lon="11.50419864095943"><ele>100.0</ele><time>2026-04-12T08:07:02Z</time></trkpt><trkpt lat="44.40903143663407" lon="11.504081867176124"><ele>100.0</ele><time>2026-04-12T08:07:03Z</time></trkpt><trkpt lat="44.40895171605019" lon="11.503974534897283"><ele>100.0</ele><time>2026-04-12T08:07:04Z</time></trkpt><trkpt lat="44.40887769226661" lon="11.503852511232436"><ele>100.0</ele><time>2026-04-12T08:07:05Z</time></trkpt><trkpt lat="44.40877657587582" lon="11.503711723290914"><ele>100.0</ele><time>2026-04-12T08:07:06Z</time></trkpt><trkpt lat="44.40867441345575" lon="11.503562892494664"><ele>100.0</ele><time>2026-04-12T08:07:07Z</time></trkpt><trkpt lat="44.40857092241099" lon="11.503410076041515"><ele>100.0</ele><time>2026-04-12T08:07:08Z</time></trkpt><trkpt lat="44.408478116451555" lon="11.503268699304718"><ele>100.0</ele><time>2026-04-12T08:07:09Z</time></trkpt><trkpt lat="44.40838669819276" lon="11.503143240307365"><ele>100.0</ele><time>2026-04-12T08:07:10Z</time></trkpt><trkpt lat="44.40831157569725" lon="11.503014463921389"><ele>100.0</ele><time>2026-04-12T08:07:10.999Z</time></trkpt><trkpt lat="44.408220078262744" lon="11.50294068425797"><ele>99.4</ele><time>2026-04-12T08:07:11.999Z</time></trkpt><trkpt lat="44.40814503292121" lon="11.502863031452096"><ele>98.8</ele><time>2026-04-12T08:07:12.999Z</time></trkpt><trkpt lat="44.40806913648087" lon="11.502795301085067"><ele>98.19999999999999</ele><time>2026-04-12T08:07:13.999Z</time></trkpt><trkpt lat="44.407988222421395" lon="11.502721678477718"><ele>97.6</ele><time>2026-04-12T08:07:14.999Z</time></trkpt><trkpt lat="44.40789663162644" lon="11.502640729446261"><ele>97.0</ele><time>2026-04-12T08:07:15.999Z</time></trkpt><trkpt lat="44.407781412001206" lon="11.502548766401484"><ele>97.0</ele><time>2026-04-12T08:07:16.999Z</time></trkpt><trkpt lat="44.40763949110135" lon="11.502444397437634"><ele>97.0</ele><time>2026-04-12T08:07:17.999Z</time></trkpt><trkpt lat="44.40748291440067" lon="11.502337835002255"><ele>97.0</ele><time>2026-04-12T08:07:18.999Z</time></trkpt><trkpt lat="44.40731115637493" lon="11.502238711386154"><ele>98.33333333333334</ele><time>2026-04-12T08:07:19.999Z</time></trkpt><trkpt lat="44.40712905475524" lon="11.502129599581481"><ele>99.66666666666666</ele><time>2026-04-12T08:07:20.999Z</time></trkpt><trkpt lat="44.4069506513859" lon="11.502032219420133"><ele>101.0</ele><time>2026-04-12T08:07:21.999Z</time></trkpt><trkpt lat="44.40675535360305" lon="11.501916588865274"><ele>101.0</ele><time>2026-04-12T08:07:22.999Z</time></trkpt><trkpt lat="44.40657619287863" lon="11.501814735098291"><ele>101.0</ele><time>2026-04-12T08:07:23.999Z</time></trkpt><trkpt lat="44.406413023057546" lon="11.501698782020013"><ele>101.0</ele><time>2026-04-12T08:07:24.999Z</time></trkpt><trkpt lat="44.40625800368578" lon="11.501609608254702"><ele>101.0</ele><time>2026-04-12T08:07:25.999Z</time></trkpt><trkpt lat="44.40609671306667" lon="11.50154675051142"><ele>101.0</ele><time>2026-04-12T08:07:26.999Z</time></trkpt><trkpt lat="44.40594384606005" lon="11.501459829885496"><ele>101.0</ele><time>2026-04-12T08:07:27.999Z</time></trkpt><trkpt lat="44.40579521920219" lon="11.501373993836296"><ele>101.0</ele><time>2026-04-12T08:07:28.999Z</time></trkpt><trkpt lat="44.4056471571222" lon="11.501288657714012"><ele>101.0</ele><time>2026-04-12T08:07:29.999Z</time></trkpt><trkpt lat="44.40550029475488" lon="11.501203786069741"><ele>101.0</ele><time>2026-04-12T08:07:30.999Z</time></trkpt><trkpt lat="44.40535613728444" lon="11.501115856892541"><ele>101.66666666666666</ele><time>2026-04-12T08:07:31.999Z</time></trkpt><trkpt lat="44.40520973080993" lon="11.501029710502477"><ele>102.33333333333334</ele><time>2026-04-12T08:07:32.999Z</time></trkpt><trkpt lat="44.405074070774916" lon="11.500920815728355"><ele>103.0</ele><time>2026-04-12T08:07:33.999Z</time></trkpt><trkpt lat="44.40493955164717" lon="11.500792640782425"><ele>103.0</ele><time>2026-04-12T08:07:34.999Z</time></trkpt><trkpt lat="44.40480543299015" lon="11.500653311444688"><ele>103.0</ele><time>2026-04-12T08:07:35.999Z</time></trkpt><trkpt lat="44.40467392396512" lon="11.500512181359909"><ele>103.0</ele><time>2026-04-12T08:07:36.999Z</time></trkpt><trkpt lat="44.40453931254569" lon="11.50037335055623"><ele>102.66666666666667</ele><time>2026-04-12T08:07:37.999Z</time></trkpt><trkpt lat="44.40440207001175" lon="11.500240347860483"><ele>102.33333333333334</ele><time>2026-04-12T08:07:38.999Z</time></trkpt><trkpt lat="44.40426166043979" lon="11.500105037498516"><ele>102.0</ele><time>2026-04-12T08:07:39.999Z</time></trkpt><trkpt lat="44.404118137624295" lon="11.499966210966889"><ele>102.0</ele><time>2026-04-12T08:07:40.999Z</time></trkpt><trkpt lat="44.4039761373821" lon="11.49982033851485"><ele>102.0</ele><time>2026-04-12T08:07:41.999Z</time></trkpt><trkpt lat="44.40383170958226" lon="11.49967792051953"><ele>102.0</ele><time>2026-04-12T08:07:42.999Z</time></trkpt><trkpt lat="44.40368656130589" lon="11.499533227456743"><ele>102.33333333333334</ele><time>2026-04-12T08:07:43.999Z</time></trkpt><trkpt lat="44.40353976226469" lon="11.499392011554406"><ele>102.66666666666667</ele><time>2026-04-12T08:07:44.999Z</time></trkpt><trkpt lat="44.40339458363292" lon="11.499244179354038"><ele>103.0</ele><time>2026-04-12T08:07:45.999Z</time></trkpt><trkpt lat="44.40324546800195" lon="11.499099022316864"><ele>103.0</ele><time>2026-04-12T08:07:46.999Z</time></trkpt><trkpt lat="44.4030956996052" lon="11.498952090951649"><ele>103.0</ele><time>2026-04-12T08:07:47.999Z</time></trkpt><trkpt lat="44.40295149472309" lon="11.498811273442351"><ele>103.0</ele><time>2026-04-12T08:07:48.999Z</time></trkpt><trkpt lat="44.40282507914562" lon="11.49868462114472"><ele>103.5</ele><time>2026-04-12T08:07:49.999Z</time></trkpt><trkpt lat="44.40270930694458" lon="11.498568645487742"><ele>104.0</ele><time>2026-04-12T08:07:50.999Z</time></trkpt><trkpt lat="44.402602305183954" lon="11.498457247507913"><ele>104.5</ele><time>2026-04-12T08:07:51.999Z</time></trkpt><trkpt lat="44.402505034907584" lon="11.498329763463712"><ele>105.0</ele><time>2026-04-12T08:07:52.999Z</time></trkpt><trkpt lat="44.4024110341215" lon="11.498168680014738"><ele>105.0</ele><time>2026-04-12T08:07:53.999Z</time></trkpt><trkpt lat="44.40234925085733" lon="11.49794926811074"><ele>105.0</ele><time>2026-04-12T08:07:54.999Z</time></trkpt><trkpt lat="44.402283916345624" lon="11.497703664969238"><ele>105.0</ele><time>2026-04-12T08:07:55.999Z</time></trkpt><trkpt lat="44.402198439784854" lon="11.49742396017681"><ele>105.66666666666666</ele><time>2026-04-12T08:07:56.999Z</time></trkpt><trkpt lat="44.40213634134976" lon="11.49715490840822"><ele>106.33333333333333</ele><time>2026-04-12T08:07:57.999Z</time></trkpt><trkpt lat="44.402072501837054" lon="11.496904286643245"><ele>107.0</ele><time>2026-04-12T08:07:58.999Z</time></trkpt><trkpt lat="44.40200677467096" lon="11.496647865607466"><ele>107.0</ele><time>2026-04-12T08:07:59.999Z</time></trkpt><trkpt lat="44.40193826487624" lon="11.496385943395083"><ele>107.0</ele><time>2026-04-12T08:08:00.999Z</time></trkpt><trkpt lat="44.40186986987134" lon="11.49612296506495"><ele>107.0</ele><time>2026-04-12T08:08:01.999Z</time></trkpt><trkpt lat="44.40180107575804" lon="11.495858496777501"><ele>107.33333333333333</ele><time>2026-04-12T08:08:02.999Z</time></trkpt><trkpt lat="44.401733764178985" lon="11.495600425508549"><ele>107.66666666666666</ele><time>2026-04-12T08:08:03.999Z</time></trkpt><trkpt lat="44.40166563216886" lon="11.495342381149145"><ele>108.0</ele><time>2026-04-12T08:08:04.998Z</time></trkpt><trkpt lat="44.401599492110535" lon="11.495086245050073"><ele>108.33333333333334</ele><time>2026-04-12T08:08:05.998Z</time></trkpt><trkpt lat="44.40153558857899" lon="11.494835547228288"><ele>108.66666666666667</ele><time>2026-04-12T08:08:06.998Z</time></trkpt><trkpt lat="44.40147807383492" lon="11.494609133953313"><ele>109.0</ele><time>2026-04-12T08:08:07.998Z</time></trkpt><trkpt lat="44.40142428409666" lon="11.494395599873574"><ele>109.0</ele><time>2026-04-12T08:08:08.998Z</time></trkpt><trkpt lat="44.40137171525059" lon="11.494188467154105"><ele>109.0</ele><time>2026-04-12T08:08:09.998Z</time></trkpt><trkpt lat="44.40131755296134" lon="11.493972437737678"><ele>109.0</ele><time>2026-04-12T08:08:10.998Z</time></trkpt><trkpt lat="44.401260413883286" lon="11.493750775253183"><ele>110.0</ele><time>2026-04-12T08:08:11.998Z</time></trkpt><trkpt lat="44.40120074478852" lon="11.4935223317907"><ele>111.0</ele><time>2026-04-12T08:08:12.998Z</time></trkpt><trkpt lat="44.40113774567362" lon="11.493293416382457"><ele>112.0</ele><time>2026-04-12T08:08:13.998Z</time></trkpt><trkpt lat="44.40109425125673" lon="11.493064724845476"><ele>112.25</ele><time>2026-04-12T08:08:14.998Z</time></trkpt><trkpt lat="44.40104072776205" lon="11.492866080816652"><ele>112.5</ele><time>2026-04-12T08:08:15.998Z</time></trkpt><trkpt lat="44.40099297738877" lon="11.492689425729337"><ele>112.75</ele><time>2026-04-12T08:08:16.998Z</time></trkpt><trkpt lat="44.40093367799884" lon="11.492525933302922"><ele>113.0</ele><time>2026-04-12T08:08:17.998Z</time></trkpt><trkpt lat="44.40091260238263" lon="11.492353199105581"><ele>113.0</ele><time>2026-04-12T08:08:18.998Z</time></trkpt><trkpt lat="44.400888005356705" lon="11.492191156151595"><ele>113.0</ele><time>2026-04-12T08:08:19.998Z</time></trkpt><trkpt lat="44.400884420609884" lon="11.492024580926579"><ele>113.0</ele><time>2026-04-12T08:08:20.998Z</time></trkpt><trkpt lat="44.400921075886856" lon="11.4918594983472"><ele>113.0</ele><time>2026-04-12T08:08:21.998Z</time></trkpt><trkpt lat="44.400967857006464" lon="11.491654085606502"><ele>113.0</ele><time>2026-04-12T08:08:22.998Z</time></trkpt><trkpt lat="44.40101127421576" lon="11.49139943666345"><ele>113.0</ele><time>2026-04-12T08:08:23.998Z</time></trkpt><trkpt lat="44.401060489240365" lon="11.491175218749277"><ele>113.0</ele><time>2026-04-12T08:08:24.998Z</time></trkpt><trkpt lat="44.40110326124412" lon="11.490987316271207"><ele>113.0</ele><time>2026-04-12T08:08:25.998Z</time></trkpt><trkpt lat="44.40114016834361" lon="11.4908169143487"><ele>113.0</ele><time>2026-04-12T08:08:26.998Z</time></trkpt><trkpt lat="44.401192376136606" lon="11.490656148526"><ele>113.0</ele><time>2026-04-12T08:08:27.998Z</time></trkpt><trkpt lat="44.40122845024922" lon="11.490494290922276"><ele>113.0</ele><time>2026-04-12T08:08:28.998Z</time></trkpt><trkpt lat="44.401263654441074" lon="11.49033633645404"><ele>113.60000000000001</ele><time>2026-04-12T08:08:29.998Z</time></trkpt><trkpt lat="44.40129648039128" lon="11.490181062727451"><ele>114.20000000000002</ele><time>2026-04-12T08:08:30.998Z</time></trkpt><trkpt lat="44.4013065423523" lon="11.490028061671184"><ele>114.8</ele><time>2026-04-12T08:08:31.998Z</time></trkpt><trkpt lat="44.401323399828605" lon="11.489881488201796"><ele>115.4</ele><time>2026-04-12T08:08:32.998Z</time></trkpt><trkpt lat="44.401338048343575" lon="11.489745394245617"><ele>116.0</ele><time>2026-04-12T08:08:33.998Z</time></trkpt><trkpt lat="44.401308405653126" lon="11.489594108154947"><ele>116.25</ele><time>2026-04-12T08:08:34.998Z</time></trkpt><trkpt lat="44.401249758578246" lon="11.48946389753543"><ele>116.5</ele><time>2026-04-12T08:08:35.998Z</time></trkpt><trkpt lat="44.40120079127984" lon="11.489322930808989"><ele>116.75</ele><time>2026-04-12T08:08:36.998Z</time></trkpt><trkpt lat="44.40117261140487" lon="11.489164961023286"><ele>117.0</ele><time>2026-04-12T08:08:37.998Z</time></trkpt><trkpt lat="44.40113581832659" lon="11.489010029868972"><ele>117.0</ele><time>2026-04-12T08:08:38.998Z</time></trkpt><trkpt lat="44.40110338389467" lon="11.488854198180276"><ele>116.99999999999999</ele><time>2026-04-12T08:08:40Z</time></trkpt><trkpt lat="44.40107256279604" lon="11.488706118342197"><ele>116.99999999999999</ele><time>2026-04-12T08:08:41Z</time></trkpt><trkpt lat="44.40104420013572" lon="11.488570490432389"><ele>117.0</ele><time>2026-04-12T08:08:42Z</time></trkpt><trkpt lat="44.401016602474606" lon="11.488444084410531"><ele>117.0</ele><time>2026-04-12T08:08:43Z</time></trkpt><trkpt lat="44.400988921717925" lon="11.488317300064145"><ele>118.0</ele><time>2026-04-12T08:08:44Z</time></trkpt><trkpt lat="44.40096103177673" lon="11.48818480935904"><ele>118.99999999999999</ele><time>2026-04-12T08:08:45Z</time></trkpt><trkpt lat="44.40093300442575" lon="11.488052763997981"><ele>119.99999999999999</ele><time>2026-04-12T08:08:46Z</time></trkpt><trkpt lat="44.40090305780546" lon="11.487911676356019"><ele>121.0</ele><time>2026-04-12T08:08:47Z</time></trkpt><trkpt lat="44.40087384741762" lon="11.487774060279612"><ele>122.0</ele><time>2026-04-12T08:08:48Z</time></trkpt><trkpt lat="44.400840238158224" lon="11.487635923048686"><ele>123.0</ele><time>2026-04-12T08:08:49Z</time></trkpt><trkpt lat="44.400800829761785" lon="11.487493280634537"><ele>124.0</ele><time>2026-04-12T08:08:50Z</time></trkpt><trkpt lat="44.40078659358165" lon="11.487350370333743"><ele>125.0</ele><time>2026-04-12T08:08:51Z</time></trkpt><trkpt lat="44.4007668519635" lon="11.48718682098976"><ele>126.0</ele><time>2026-04-12T08:08:52Z</time></trkpt><trkpt lat="44.40073678711488" lon="11.4870081153957"><ele>125.0</ele><time>2026-04-12T08:08:53Z</time></trkpt><trkpt lat="44.40059561224931" lon="11.486885269979082"><ele>124.0</ele><time>2026-04-12T08:08:54Z</time></trkpt><trkpt lat="44.40055321778246" lon="11.48672211661588"><ele>123.0</ele><time>2026-04-12T08:08:55Z</time></trkpt><trkpt lat="44.400513566189616" lon="11.486558751890684"><ele>122.0</ele><time>2026-04-12T08:08:56Z</time></trkpt><trkpt lat="44.40048104884645" lon="11.486389936734378"><ele>122.75</ele><time>2026-04-12T08:08:57Z</time></trkpt><trkpt lat="44.400470231352536" lon="11.486205164058415"><ele>123.5</ele><time>2026-04-12T08:08:58Z</time></trkpt><trkpt lat="44.400466692197206" lon="11.486019927228563"><ele>124.25</ele><time>2026-04-12T08:08:59Z</time></trkpt><trkpt lat="44.40045312352364" lon="11.485837662320584"><ele>125.0</ele><time>2026-04-12T08:09:00Z</time></trkpt><trkpt lat="44.400435564197906" lon="11.48565514420868"><ele>125.0</ele><time>2026-04-12T08:09:01Z</time></trkpt><trkpt lat="44.40040320817688" lon="11.485475535825637"><ele>125.0</ele><time>2026-04-12T08:09:02Z</time></trkpt><trkpt lat="44.40037113156547" lon="11.485297974746885"><ele>125.0</ele><time>2026-04-12T08:09:03Z</time></trkpt><trkpt lat="44.40033664082793" lon="11.485127067365989"><ele>125.0</ele><time>2026-04-12T08:09:04Z</time></trkpt><trkpt lat="44.40029861975074" lon="11.484962399113606"><ele>126.0</ele><time>2026-04-12T08:09:05Z</time></trkpt><trkpt lat="44.400254264813235" lon="11.484805086965041"><ele>127.0</ele><time>2026-04-12T08:09:06Z</time></trkpt><trkpt lat="44.40019846176825" lon="11.48464768053746"><ele>128.0</ele><time>2026-04-12T08:09:07Z</time></trkpt><trkpt lat="44.40013385527966" lon="11.484490830393902"><ele>129.0</ele><time>2026-04-12T08:09:08Z</time></trkpt><trkpt lat="44.400066938700746" lon="11.484344290841594"><ele>129.5</ele><time>2026-04-12T08:09:09Z</time></trkpt><trkpt lat="44.39999972491329" lon="11.484207815575136"><ele>130.0</ele><time>2026-04-12T08:09:10Z</time></trkpt><trkpt lat="44.399928570327326" lon="11.484069597099396"><ele>130.5</ele><time>2026-04-12T08:09:11Z</time></trkpt><trkpt lat="44.3998546785719" lon="11.483933246442048"><ele>131.0</ele><time>2026-04-12T08:09:11.999Z</time></trkpt><trkpt lat="44.399780237244244" lon="11.483792595251252"><ele>130.5</ele><time>2026-04-12T08:09:12.999Z</time></trkpt><trkpt lat="44.399703942014426" lon="11.483655573191946"><ele>130.0</ele><time>2026-04-12T08:09:13.999Z</time></trkpt><trkpt lat="44.39963036520725" lon="11.48351763062281"><ele>129.5</ele><time>2026-04-12T08:09:14.999Z</time></trkpt><trkpt lat="44.39955944253298" lon="11.48338135799312"><ele>129.0</ele><time>2026-04-12T08:09:15.999Z</time></trkpt><trkpt lat="44.399484925787476" lon="11.483252364453044"><ele>129.0</ele><time>2026-04-12T08:09:16.999Z</time></trkpt><trkpt lat="44.399404331801776" lon="11.483133287998266"><ele>129.0</ele><time>2026-04-12T08:09:17.999Z</time></trkpt><trkpt lat="44.399317143481966" lon="11.483025993953786"><ele>129.0</ele><time>2026-04-12T08:09:18.999Z</time></trkpt><trkpt lat="44.3992281623823" lon="11.482922627885062"><ele>129.0</ele><time>2026-04-12T08:09:19.999Z</time></trkpt><trkpt lat="44.39914683754208" lon="11.482810822710224"><ele>130.0</ele><time>2026-04-12T08:09:20.999Z</time></trkpt><trkpt lat="44.39907956586728" lon="11.482678467673535"><ele>131.0</ele><time>2026-04-12T08:09:21.999Z</time></trkpt><trkpt lat="44.399030582137094" lon="11.482550399432307"><ele>132.0</ele><time>2026-04-12T08:09:22.999Z</time></trkpt><trkpt lat="44.398995802795184" lon="11.482419771922098"><ele>133.0</ele><time>2026-04-12T08:09:23.999Z</time></trkpt><trkpt lat="44.39897375098368" lon="11.482285782193983"><ele>134.0</ele><time>2026-04-12T08:09:24.999Z</time></trkpt><trkpt lat="44.39896803572386" lon="11.4821534561531"><ele>134.16666666666666</ele><time>2026-04-12T08:09:25.999Z</time></trkpt><trkpt lat="44.39891421209865" lon="11.482041816056162"><ele>134.33333333333331</ele><time>2026-04-12T08:09:26.999Z</time></trkpt><trkpt lat="44.39887209453502" lon="11.481944793174364"><ele>134.5</ele><time>2026-04-12T08:09:27.999Z</time></trkpt><trkpt lat="44.39882666568262" lon="11.481865965673666"><ele>134.66666666666666</ele><time>2026-04-12T08:09:28.999Z</time></trkpt><trkpt lat="44.39877646418208" lon="11.481796560180857"><ele>134.83333333333334</ele><time>2026-04-12T08:09:29.999Z</time></trkpt><trkpt lat="44.398712250053826" lon="11.481740513553216"><ele>135.0</ele><time>2026-04-12T08:09:30.999Z</time></trkpt><trkpt lat="44.39864527487827" lon="11.481677245270722"><ele>133.75</ele><time>2026-04-12T08:09:31.999Z</time></trkpt><trkpt lat="44.39854313553913" lon="11.481697351351675"><ele>132.5</ele><time>2026-04-12T08:09:32.999Z</time></trkpt><trkpt lat="44.39843471358253" lon="11.481681446404211"><ele>131.25</ele><time>2026-04-12T08:09:33.999Z</time></trkpt><trkpt lat="44.398302650886066" lon="11.481688877831772"><ele>130.0</ele><time>2026-04-12T08:09:34.999Z</time></trkpt><trkpt lat="44.398161572865" lon="11.481689978172517"><ele>130.0</ele><time>2026-04-12T08:09:35.999Z</time></trkpt><trkpt lat="44.39802198629593" lon="11.481617587258379"><ele>130.0</ele><time>2026-04-12T08:09:36.999Z</time></trkpt><trkpt lat="44.39786809929629" lon="11.481517972037347"><ele>130.0</ele><time>2026-04-12T08:09:37.999Z</time></trkpt><trkpt lat="44.39771595337337" lon="11.481408673896963"><ele>130.0</ele><time>2026-04-12T08:09:38.999Z</time></trkpt><trkpt lat="44.39755211698605" lon="11.481301174999436"><ele>130.0</ele><time>2026-04-12T08:09:39.999Z</time></trkpt><trkpt lat="44.39740456289306" lon="11.481191503890498"><ele>130.0</ele><time>2026-04-12T08:09:40.999Z</time></trkpt><trkpt lat="44.39728391649059" lon="11.48117243068647"><ele>130.75</ele><time>2026-04-12T08:09:41.999Z</time></trkpt><trkpt lat="44.397160108626004" lon="11.481099343324745"><ele>131.5</ele><time>2026-04-12T08:09:42.999Z</time></trkpt><trkpt lat="44.39703969039518" lon="11.48102838394052"><ele>132.25</ele><time>2026-04-12T08:09:43.999Z</time></trkpt><trkpt lat="44.39692435655601" lon="11.480957383607718"><ele>133.0</ele><time>2026-04-12T08:09:44.999Z</time></trkpt><trkpt lat="44.3968107228959" lon="11.48088789287263"><ele>133.0</ele><time>2026-04-12T08:09:45.999Z</time></trkpt><trkpt lat="44.396695045292205" lon="11.480826377772646"><ele>133.0</ele><time>2026-04-12T08:09:46.999Z</time></trkpt><trkpt lat="44.39655456818731" lon="11.480772319981796"><ele>133.0</ele><time>2026-04-12T08:09:47.999Z</time></trkpt><trkpt lat="44.396376405532195" lon="11.480724915434818"><ele>133.0</ele><time>2026-04-12T08:09:48.999Z</time></trkpt><trkpt lat="44.39618356545017" lon="11.480688768826294"><ele>133.0</ele><time>2026-04-12T08:09:49.999Z</time></trkpt><trkpt lat="44.3959832809832" lon="11.480656347636314"><ele>133.0</ele><time>2026-04-12T08:09:50.999Z</time></trkpt><trkpt lat="44.395810801343416" lon="11.480627512714602"><ele>133.0</ele><time>2026-04-12T08:09:51.999Z</time></trkpt><trkpt lat="44.39565010171416" lon="11.480601518996465"><ele>133.0</ele><time>2026-04-12T08:09:52.999Z</time></trkpt><trkpt lat="44.39550551831736" lon="11.480551354392695"><ele>133.0</ele><time>2026-04-12T08:09:53.999Z</time></trkpt><trkpt lat="44.39536686779584" lon="11.480519669110738"><ele>133.25</ele><time>2026-04-12T08:09:54.999Z</time></trkpt><trkpt lat="44.395234214228665" lon="11.480489354266746"><ele>133.5</ele><time>2026-04-12T08:09:55.999Z</time></trkpt><trkpt lat="44.39510131979443" lon="11.480458984424711"><ele>133.75</ele><time>2026-04-12T08:09:56.999Z</time></trkpt><trkpt lat="44.394969432783626" lon="11.48042369242109"><ele>134.0</ele><time>2026-04-12T08:09:57.999Z</time></trkpt><trkpt lat="44.39483387368398" lon="11.480384098937357"><ele>135.25</ele><time>2026-04-12T08:09:58.999Z</time></trkpt><trkpt lat="44.39469595175395" lon="11.480340592788677"><ele>136.5</ele><time>2026-04-12T08:09:59.999Z</time></trkpt><trkpt lat="44.394557312393864" lon="11.480317084188986"><ele>137.75</ele><time>2026-04-12T08:10:00.999Z</time></trkpt><trkpt lat="44.394423811771254" lon="11.48025474814614"><ele>139.0</ele><time>2026-04-12T08:10:01.999Z</time></trkpt><trkpt lat="44.39428845629321" lon="11.480212050749772"><ele>139.0</ele><time>2026-04-12T08:10:02.999Z</time></trkpt><trkpt lat="44.39415246713467" lon="11.480169153461393"><ele>139.0</ele><time>2026-04-12T08:10:03.999Z</time></trkpt><trkpt lat="44.393989359043616" lon="11.480202911980072"><ele>139.0</ele><time>2026-04-12T08:10:04.999Z</time></trkpt><trkpt lat="44.393801898195484" lon="11.480189368313885"><ele>140.0</ele><time>2026-04-12T08:10:05.998Z</time></trkpt><trkpt lat="44.39358645634376" lon="11.48017593640241"><ele>141.0</ele><time>2026-04-12T08:10:06.998Z</time></trkpt><trkpt lat="44.39339842235547" lon="11.480171274706416"><ele>142.0</ele><time>2026-04-12T08:10:07.998Z</time></trkpt><trkpt lat="44.39322265214233" lon="11.480163931223354"><ele>142.0</ele><time>2026-04-12T08:10:08.998Z</time></trkpt><trkpt lat="44.39306174908137" lon="11.480155850036933"><ele>142.0</ele><time>2026-04-12T08:10:09.998Z</time></trkpt><trkpt lat="44.392916107430935" lon="11.480154211231406"><ele>142.0</ele><time>2026-04-12T08:10:10.998Z</time></trkpt><trkpt lat="44.39278077403737" lon="11.480154491665738"><ele>142.0</ele><time>2026-04-12T08:10:11.998Z</time></trkpt><trkpt lat="44.39264492112089" lon="11.480159957078241"><ele>142.25</ele><time>2026-04-12T08:10:12.998Z</time></trkpt><trkpt lat="44.39251243720081" lon="11.480169761257057"><ele>142.5</ele><time>2026-04-12T08:10:13.998Z</time></trkpt><trkpt lat="44.39238577124344" lon="11.480174630625115"><ele>142.75</ele><time>2026-04-12T08:10:14.998Z</time></trkpt><trkpt lat="44.392264285786815" lon="11.480171194065298"><ele>143.0</ele><time>2026-04-12T08:10:15.998Z</time></trkpt><trkpt lat="44.39216242702658" lon="11.480148993819773"><ele>143.0</ele><time>2026-04-12T08:10:16.998Z</time></trkpt><trkpt lat="44.39207134823293" lon="11.480119099403082"><ele>143.0</ele><time>2026-04-12T08:10:17.998Z</time></trkpt><trkpt lat="44.39199636316971" lon="11.48008054015961"><ele>143.0</ele><time>2026-04-12T08:10:18.998Z</time></trkpt><trkpt lat="44.39192802280101" lon="11.48001922815314"><ele>143.0</ele><time>2026-04-12T08:10:19.998Z</time></trkpt><trkpt lat="44.39184959684565" lon="11.479931240690641"><ele>143.0</ele><time>2026-04-12T08:10:20.998Z</time></trkpt><trkpt lat="44.39177088152607" lon="11.479822514769003"><ele>143.0</ele><time>2026-04-12T08:10:21.998Z</time></trkpt><trkpt lat="44.391685515209545" lon="11.479704434931248"><ele>143.0</ele><time>2026-04-12T08:10:22.998Z</time></trkpt><trkpt lat="44.391590213185374" lon="11.479584646410592"><ele>143.0</ele><time>2026-04-12T08:10:23.998Z</time></trkpt><trkpt lat="44.39149032635488" lon="11.479463897531744"><ele>143.0</ele><time>2026-04-12T08:10:24.998Z</time></trkpt><trkpt lat="44.3913942901098" lon="11.479332652585864"><ele>143.33333333333331</ele><time>2026-04-12T08:10:25.998Z</time></trkpt><trkpt lat="44.391324541331755" lon="11.479164833986559"><ele>143.66666666666666</ele><time>2026-04-12T08:10:26.998Z</time></trkpt><trkpt lat="44.3912888675386" lon="11.478959871473462"><ele>144.0</ele><time>2026-04-12T08:10:27.998Z</time></trkpt><trkpt lat="44.39124775594618" lon="11.478686267077093"><ele>144.0</ele><time>2026-04-12T08:10:28.998Z</time></trkpt><trkpt lat="44.391212539957486" lon="11.478377819564912"><ele>144.0</ele><time>2026-04-12T08:10:29.998Z</time></trkpt><trkpt lat="44.391085019602485" lon="11.478250411282485"><ele>144.0</ele><time>2026-04-12T08:10:30.998Z</time></trkpt><trkpt lat="44.391047278864775" lon="11.47798886067275"><ele>144.5</ele><time>2026-04-12T08:10:31.998Z</time></trkpt><trkpt lat="44.39101836733883" lon="11.477761393639181"><ele>145.0</ele><time>2026-04-12T08:10:32.998Z</time></trkpt><trkpt lat="44.39098869117644" lon="11.47756220095707"><ele>145.5</ele><time>2026-04-12T08:10:33.998Z</time></trkpt><trkpt lat="44.390962355402785" lon="11.477371938225165"><ele>146.0</ele><time>2026-04-12T08:10:34.998Z</time></trkpt><trkpt lat="44.390938089882994" lon="11.477187299727857"><ele>147.8</ele><time>2026-04-12T08:10:35.998Z</time></trkpt><trkpt lat="44.39091232389089" lon="11.477015747957642"><ele>149.6</ele><time>2026-04-12T08:10:36.998Z</time></trkpt><trkpt lat="44.39088789674094" lon="11.476864461160114"><ele>151.4</ele><time>2026-04-12T08:10:37.998Z</time></trkpt><trkpt lat="44.390867238227024" lon="11.47673865259595"><ele>153.2</ele><time>2026-04-12T08:10:38.998Z</time></trkpt><trkpt lat="44.390841674481976" lon="11.47664380561874"><ele>155.0</ele><time>2026-04-12T08:10:39.998Z</time></trkpt><trkpt lat="44.39080145601693" lon="11.476562184477519"><ele>155.0</ele><time>2026-04-12T08:10:40.998Z</time></trkpt><trkpt lat="44.39074209679983" lon="11.476487972936882"><ele>155.0</ele><time>2026-04-12T08:10:41.998Z</time></trkpt><trkpt lat="44.390661253208265" lon="11.476435079632973"><ele>155.0</ele><time>2026-04-12T08:10:42.998Z</time></trkpt><trkpt lat="44.39055723996486" lon="11.476398337195794"><ele>155.0</ele><time>2026-04-12T08:10:43.998Z</time></trkpt><trkpt lat="44.390447873889585" lon="11.4763836811352"><ele>155.0</ele><time>2026-04-12T08:10:44.998Z</time></trkpt><trkpt lat="44.39034226446063" lon="11.476376972428723"><ele>153.75</ele><time>2026-04-12T08:10:46Z</time></trkpt><trkpt lat="44.39023039155431" lon="11.476395739167135"><ele>152.5</ele><time>2026-04-12T08:10:47Z</time></trkpt><trkpt lat="44.3900816493549" lon="11.476435676418522"><ele>151.25</ele><time>2026-04-12T08:10:48Z</time></trkpt><trkpt lat="44.3899281083051" lon="11.476461398828569"><ele>150.0</ele><time>2026-04-12T08:10:49Z</time></trkpt><trkpt lat="44.38980087872383" lon="11.476459816712545"><ele>150.0</ele><time>2026-04-12T08:10:50Z</time></trkpt><trkpt lat="44.38968915061517" lon="11.476449867989109"><ele>150.0</ele><time>2026-04-12T08:10:51Z</time></trkpt><trkpt lat="44.38958435948323" lon="11.47645050846396"><ele>150.0</ele><time>2026-04-12T08:10:52Z</time></trkpt><trkpt lat="44.38949124553724" lon="11.476466588559422"><ele>150.0</ele><time>2026-04-12T08:10:53Z</time></trkpt><trkpt lat="44.38939381444884" lon="11.476460257111746"><ele>150.0</ele><time>2026-04-12T08:10:54Z</time></trkpt><trkpt lat="44.38930567747904" lon="11.476416110821104"><ele>150.33333333333334</ele><time>2026-04-12T08:10:55Z</time></trkpt><trkpt lat="44.38921994690415" lon="11.476341528840866"><ele>150.66666666666666</ele><time>2026-04-12T08:10:56Z</time></trkpt><trkpt lat="44.38914797274052" lon="11.476255152441386"><ele>151.0</ele><time>2026-04-12T08:10:57Z</time></trkpt><trkpt lat="44.389105774346" lon="11.476159471282566"><ele>151.33333333333331</ele><time>2026-04-12T08:10:58Z</time></trkpt><trkpt lat="44.38909006268607" lon="11.476063088049306"><ele>151.66666666666666</ele><time>2026-04-12T08:10:59Z</time></trkpt><trkpt lat="44.389104225829286" lon="11.475975755255153"><ele>152.0</ele><time>2026-04-12T08:11:00Z</time></trkpt><trkpt lat="44.38914308418519" lon="11.475890002735026"><ele>152.0</ele><time>2026-04-12T08:11:01Z</time></trkpt><trkpt lat="44.38920718796095" lon="11.475825288316758"><ele>152.0</ele><time>2026-04-12T08:11:02Z</time></trkpt><trkpt lat="44.38928743439349" lon="11.475802832527773"><ele>152.0</ele><time>2026-04-12T08:11:03Z</time></trkpt><trkpt lat="44.389369006353725" lon="11.475790163179285"><ele>152.0</ele><time>2026-04-12T08:11:04Z</time></trkpt><trkpt lat="44.3894400027556" lon="11.475747050946167"><ele>152.0</ele><time>2026-04-12T08:11:05Z</time></trkpt><trkpt lat="44.38951183176168" lon="11.475645605239691"><ele>152.0</ele><time>2026-04-12T08:11:06Z</time></trkpt><trkpt lat="44.38957474456709" lon="11.475507995492496"><ele>152.79999999999998</ele><time>2026-04-12T08:11:07Z</time></trkpt><trkpt lat="44.38960905080183" lon="11.475380109213837"><ele>153.6</ele><time>2026-04-12T08:11:08Z</time></trkpt><trkpt lat="44.38962273675038" lon="11.47526400408477"><ele>154.39999999999998</ele><time>2026-04-12T08:11:09Z</time></trkpt><trkpt lat="44.38962229371992" lon="11.475156888428602"><ele>155.2</ele><time>2026-04-12T08:11:10Z</time></trkpt><trkpt lat="44.38960852915636" lon="11.475033564406793"><ele>156.0</ele><time>2026-04-12T08:11:11Z</time></trkpt><trkpt lat="44.38956765901938" lon="11.474898396213081"><ele>156.0</ele><time>2026-04-12T08:11:12Z</time></trkpt><trkpt lat="44.38950708093643" lon="11.474769163624451"><ele>156.0</ele><time>2026-04-12T08:11:13Z</time></trkpt><trkpt lat="44.389424023632884" lon="11.47463326046009"><ele>156.0</ele><time>2026-04-12T08:11:14Z</time></trkpt><trkpt lat="44.38933038230308" lon="11.474492066797579"><ele>156.0</ele><time>2026-04-12T08:11:15Z</time></trkpt><trkpt lat="44.38923794954696" lon="11.474364783535165"><ele>156.4</ele><time>2026-04-12T08:11:16Z</time></trkpt><trkpt lat="44.38915384819339" lon="11.474253470443793"><ele>156.8</ele><time>2026-04-12T08:11:16.999Z</time></trkpt><trkpt lat="44.389079180151754" lon="11.47416115055736"><ele>157.20000000000002</ele><time>2026-04-12T08:11:17.999Z</time></trkpt><trkpt lat="44.38899475503614" lon="11.474080158519945"><ele>157.6</ele><time>2026-04-12T08:11:18.999Z</time></trkpt><trkpt lat="44.38888221605233" lon="11.474017036384044"><ele>158.0</ele><time>2026-04-12T08:11:19.999Z</time></trkpt><trkpt lat="44.38874117676577" lon="11.473955313971334"><ele>158.0</ele><time>2026-04-12T08:11:20.999Z</time></trkpt><trkpt lat="44.388566513461456" lon="11.473863830499662"><ele>158.0</ele><time>2026-04-12T08:11:21.999Z</time></trkpt><trkpt lat="44.38839624783245" lon="11.473771841131484"><ele>158.0</ele><time>2026-04-12T08:11:22.999Z</time></trkpt><trkpt lat="44.38825332818754" lon="11.473691285804291"><ele>158.5</ele><time>2026-04-12T08:11:23.999Z</time></trkpt><trkpt lat="44.3881223153756" lon="11.473612794823396"><ele>159.0</ele><time>2026-04-12T08:11:24.999Z</time></trkpt><trkpt lat="44.38800463841036" lon="11.473541912654655"><ele>159.5</ele><time>2026-04-12T08:11:25.999Z</time></trkpt><trkpt lat="44.387905453571506" lon="11.473479496193546"><ele>160.0</ele><time>2026-04-12T08:11:26.999Z</time></trkpt><trkpt lat="44.38782604101932" lon="11.473417389278561"><ele>160.0</ele><time>2026-04-12T08:11:27.999Z</time></trkpt><trkpt lat="44.387750594702396" lon="11.473339596374526"><ele>160.0</ele><time>2026-04-12T08:11:28.999Z</time></trkpt><trkpt lat="44.38768101502736" lon="11.473241594363836"><ele>160.0</ele><time>2026-04-12T08:11:29.999Z</time></trkpt><trkpt lat="44.38762111695615" lon="11.473119508103725"><ele>160.0</ele><time>2026-04-12T08:11:30.999Z</time></trkpt><trkpt lat="44.387573863641286" lon="11.472993603551437"><ele>160.0</ele><time>2026-04-12T08:11:31.999Z</time></trkpt><trkpt lat="44.38753486769381" lon="11.472896051586199"><ele>160.57142857142856</ele><time>2026-04-12T08:11:32.999Z</time></trkpt><trkpt lat="44.38749528702212" lon="11.47281202334478"><ele>161.14285714285714</ele><time>2026-04-12T08:11:33.999Z</time></trkpt><trkpt lat="44.38744634986265" lon="11.472722695721888"><ele>161.71428571428572</ele><time>2026-04-12T08:11:34.999Z</time></trkpt><trkpt lat="44.38738742459385" lon="11.472649695219134"><ele>162.28571428571428</ele><time>2026-04-12T08:11:35.999Z</time></trkpt><trkpt lat="44.38733814664375" lon="11.472585189501933"><ele>162.85714285714286</ele><time>2026-04-12T08:11:36.999Z</time></trkpt><trkpt lat="44.38729584719104" lon="11.472506371788802"><ele>163.42857142857142</ele><time>2026-04-12T08:11:37.999Z</time></trkpt><trkpt lat="44.38726992602273" lon="11.472425678474613"><ele>164.0</ele><time>2026-04-12T08:11:38.999Z</time></trkpt><trkpt lat="44.38725280971779" lon="11.472340454321053"><ele>164.0</ele><time>2026-04-12T08:11:39.999Z</time></trkpt><trkpt lat="44.38725223572672" lon="11.47218241811424"><ele>164.0</ele><time>2026-04-12T08:11:41.999Z</time></trkpt><trkpt lat="44.38726972164291" lon="11.472037377409611"><ele>164.0</ele><time>2026-04-12T08:11:43.999Z</time></trkpt><trkpt lat="44.387253295484726" lon="11.47190785234965"><ele>164.0</ele><time>2026-04-12T08:11:45.999Z</time></trkpt><trkpt lat="44.387178723191006" lon="11.471858272586815"><ele>164.0</ele><time>2026-04-12T08:11:47.999Z</time></trkpt><trkpt lat="44.38710507984652" lon="11.471863915358808"><ele>163.79999999999998</ele><time>2026-04-12T08:11:49.999Z</time></trkpt><trkpt lat="44.38702091723259" lon="11.471854622334819"><ele>163.6</ele><time>2026-04-12T08:11:51.999Z</time></trkpt><trkpt lat="44.38692679668391" lon="11.471847329828737"><ele>163.4</ele><time>2026-04-12T08:11:53.999Z</time></trkpt><trkpt lat="44.386818980531075" lon="11.471840647999407"><ele>163.2</ele><time>2026-04-12T08:11:55.999Z</time></trkpt><trkpt lat="44.38670605862266" lon="11.471836933852845"><ele>163.0</ele><time>2026-04-12T08:11:57.999Z</time></trkpt><trkpt lat="44.38660029454195" lon="11.4718156024965"><ele>163.0</ele><time>2026-04-12T08:11:59.999Z</time></trkpt><trkpt lat="44.38649218429641" lon="11.471779344137248"><ele>163.0</ele><time>2026-04-12T08:12:01.999Z</time></trkpt><trkpt lat="44.38639175869305" lon="11.47170164672706"><ele>163.0</ele><time>2026-04-12T08:12:03.999Z</time></trkpt><trkpt lat="44.38631745922621" lon="11.47158074591716"><ele>163.0</ele><time>2026-04-12T08:12:05.999Z</time></trkpt><trkpt lat="44.38626672785302" lon="11.471426643324047"><ele>163.71428571428572</ele><time>2026-04-12T08:12:07.999Z</time></trkpt><trkpt lat="44.38625372272164" lon="11.471336774946943"><ele>164.42857142857142</ele><time>2026-04-12T08:12:08.999Z</time></trkpt><trkpt lat="44.386236592065494" lon="11.471245756761295"><ele>165.14285714285714</ele><time>2026-04-12T08:12:09.999Z</time></trkpt><trkpt lat="44.386221064832334" lon="11.47115102832587"><ele>165.85714285714286</ele><time>2026-04-12T08:12:10.999Z</time></trkpt><trkpt lat="44.386204696331205" lon="11.471048550657743"><ele>166.57142857142856</ele><time>2026-04-12T08:12:11.998Z</time></trkpt><trkpt lat="44.38618297526316" lon="11.47094746872159"><ele>167.28571428571428</ele><time>2026-04-12T08:12:12.998Z</time></trkpt><trkpt lat="44.38615911830354" lon="11.470846384725288"><ele>168.0</ele><time>2026-04-12T08:12:13.998Z</time></trkpt><trkpt lat="44.38613516814376" lon="11.470759775605492"><ele>168.0</ele><time>2026-04-12T08:12:14.998Z</time></trkpt><trkpt lat="44.38610653020591" lon="11.470670649213831"><ele>168.0</ele><time>2026-04-12T08:12:15.998Z</time></trkpt><trkpt lat="44.38607761262109" lon="11.470577948852975"><ele>168.0</ele><time>2026-04-12T08:12:16.998Z</time></trkpt><trkpt lat="44.386043974781394" lon="11.470487428218348"><ele>168.0</ele><time>2026-04-12T08:12:17.998Z</time></trkpt><trkpt lat="44.38601325182346" lon="11.470398390803746"><ele>168.0</ele><time>2026-04-12T08:12:18.998Z</time></trkpt><trkpt lat="44.385978753541735" lon="11.470302279651126"><ele>168.0</ele><time>2026-04-12T08:12:19.998Z</time></trkpt><trkpt lat="44.38594403160039" lon="11.470221275702556"><ele>168.0</ele><time>2026-04-12T08:12:20.998Z</time></trkpt><trkpt lat="44.38588756156098" lon="11.470082968124352"><ele>168.33333333333334</ele><time>2026-04-12T08:12:22.998Z</time></trkpt><trkpt lat="44.38580957767917" lon="11.469957918990767"><ele>168.66666666666666</ele><time>2026-04-12T08:12:24.998Z</time></trkpt><trkpt lat="44.38575923586083" lon="11.469893000701983"><ele>169.0</ele><time>2026-04-12T08:12:25.998Z</time></trkpt><trkpt lat="44.385703032017894" lon="11.469844091522944"><ele>169.33333333333331</ele><time>2026-04-12T08:12:26.998Z</time></trkpt><trkpt lat="44.385645234120304" lon="11.46980692440876"><ele>169.66666666666666</ele><time>2026-04-12T08:12:27.998Z</time></trkpt><trkpt lat="44.385567726063535" lon="11.469764340067517"><ele>170.0</ele><time>2026-04-12T08:12:28.998Z</time></trkpt><trkpt lat="44.385487392558325" lon="11.469730636683652"><ele>170.0</ele><time>2026-04-12T08:12:29.998Z</time></trkpt><trkpt lat="44.38538703481603" lon="11.469697691716469"><ele>170.0</ele><time>2026-04-12T08:12:30.998Z</time></trkpt><trkpt lat="44.38530610007725" lon="11.469673448586459"><ele>170.0</ele><time>2026-04-12T08:12:31.998Z</time></trkpt><trkpt lat="44.38524080503084" lon="11.469655522861414"><ele>170.0</ele><time>2026-04-12T08:12:32.998Z</time></trkpt><trkpt lat="44.3851214924707" lon="11.469636085484336"><ele>170.0</ele><time>2026-04-12T08:12:34.998Z</time></trkpt><trkpt lat="44.38505245115608" lon="11.469629289689637"><ele>170.0</ele><time>2026-04-12T08:12:35.998Z</time></trkpt><trkpt lat="44.38498163264753" lon="11.469635878493554"><ele>170.0</ele><time>2026-04-12T08:12:36.998Z</time></trkpt><trkpt lat="44.38489377985249" lon="11.469661206084133"><ele>170.0</ele><time>2026-04-12T08:12:37.998Z</time></trkpt><trkpt lat="44.38479692025172" lon="11.46969889753686"><ele>170.0</ele><time>2026-04-12T08:12:38.998Z</time></trkpt><trkpt lat="44.38471006981495" lon="11.469750238763329"><ele>170.0</ele><time>2026-04-12T08:12:39.998Z</time></trkpt><trkpt lat="44.38461158137545" lon="11.469816624541073"><ele>170.0</ele><time>2026-04-12T08:12:40.998Z</time></trkpt><trkpt lat="44.38452045000957" lon="11.46988829698342"><ele>169.6</ele><time>2026-04-12T08:12:41.998Z</time></trkpt><trkpt lat="44.38442028711923" lon="11.469979197895581"><ele>169.2</ele><time>2026-04-12T08:12:42.998Z</time></trkpt><trkpt lat="44.384333109768036" lon="11.470076492973845"><ele>168.8</ele><time>2026-04-12T08:12:43.998Z</time></trkpt><trkpt lat="44.38426561130474" lon="11.470155640080911"><ele>168.4</ele><time>2026-04-12T08:12:44.998Z</time></trkpt><trkpt lat="44.384198923255695" lon="11.470212617240723"><ele>168.0</ele><time>2026-04-12T08:12:45.998Z</time></trkpt><trkpt lat="44.38412773502135" lon="11.470250929009874"><ele>168.0</ele><time>2026-04-12T08:12:46.998Z</time></trkpt><trkpt lat="44.38404577462859" lon="11.47027822961461"><ele>168.0</ele><time>2026-04-12T08:12:47.998Z</time></trkpt><trkpt lat="44.38394764800456" lon="11.47028685328262"><ele>168.0</ele><time>2026-04-12T08:12:48.998Z</time></trkpt><trkpt lat="44.38385898961827" lon="11.47027433732195"><ele>168.0</ele><time>2026-04-12T08:12:49.998Z</time></trkpt><trkpt lat="44.38377979688154" lon="11.470248423773375"><ele>168.0</ele><time>2026-04-12T08:12:51Z</time></trkpt><trkpt lat="44.38369546329159" lon="11.47020927333344"><ele>168.0</ele><time>2026-04-12T08:12:52Z</time></trkpt><trkpt lat="44.383589574480915" lon="11.470146612915615"><ele>168.5</ele><time>2026-04-12T08:12:53Z</time></trkpt><trkpt lat="44.3834676513496" lon="11.470072300691633"><ele>169.0</ele><time>2026-04-12T08:12:54Z</time></trkpt><trkpt lat="44.383338090825646" lon="11.469995141162034"><ele>169.5</ele><time>2026-04-12T08:12:55Z</time></trkpt><trkpt lat="44.383225123325246" lon="11.4699324655271"><ele>170.0</ele><time>2026-04-12T08:12:56Z</time></trkpt><trkpt lat="44.38313799721924" lon="11.469884123096344"><ele>170.0</ele><time>2026-04-12T08:12:57Z</time></trkpt><trkpt lat="44.38306228309409" lon="11.469846172514323"><ele>170.0</ele><time>2026-04-12T08:12:58Z</time></trkpt><trkpt lat="44.38299067683424" lon="11.469809840189036"><ele>170.0</ele><time>2026-04-12T08:12:59Z</time></trkpt><trkpt lat="44.38292533763701" lon="11.46978450343316"><ele>170.0</ele><time>2026-04-12T08:13:00Z</time></trkpt><trkpt lat="44.38278753090076" lon="11.469762599186089"><ele>170.0</ele><time>2026-04-12T08:13:02Z</time></trkpt><trkpt lat="44.38270189155465" lon="11.469764997426731"><ele>170.0</ele><time>2026-04-12T08:13:03Z</time></trkpt><trkpt lat="44.38260516239883" lon="11.46977007232548"><ele>171.5</ele><time>2026-04-12T08:13:04Z</time></trkpt><trkpt lat="44.382482952219355" lon="11.469785907398885"><ele>173.0</ele><time>2026-04-12T08:13:05Z</time></trkpt><trkpt lat="44.382333663899814" lon="11.469799538004459"><ele>174.5</ele><time>2026-04-12T08:13:06Z</time></trkpt><trkpt lat="44.382196106134465" lon="11.469815806037655"><ele>176.0</ele><time>2026-04-12T08:13:07Z</time></trkpt><trkpt lat="44.382086952838385" lon="11.469825646384336"><ele>176.20000000000002</ele><time>2026-04-12T08:13:08Z</time></trkpt><trkpt lat="44.381990261602446" lon="11.469836181542144"><ele>176.4</ele><time>2026-04-12T08:13:09Z</time></trkpt><trkpt lat="44.381907919309334" lon="11.469850273074181"><ele>176.6</ele><time>2026-04-12T08:13:10Z</time></trkpt><trkpt lat="44.381838759721305" lon="11.469873018266936"><ele>176.8</ele><time>2026-04-12T08:13:11Z</time></trkpt><trkpt lat="44.38171106776802" lon="11.469922839009806"><ele>177.0</ele><time>2026-04-12T08:13:13Z</time></trkpt><trkpt lat="44.381614330304195" lon="11.469971329503904"><ele>177.0</ele><time>2026-04-12T08:13:14Z</time></trkpt><trkpt lat="44.38149952714415" lon="11.470036994477232"><ele>177.0</ele><time>2026-04-12T08:13:15Z</time></trkpt><trkpt lat="44.3813977101032" lon="11.470103430410461"><ele>177.0</ele><time>2026-04-12T08:13:16Z</time></trkpt><trkpt lat="44.381311873617" lon="11.470141492889818"><ele>177.0</ele><time>2026-04-12T08:13:17Z</time></trkpt><trkpt lat="44.38120022434787" lon="11.470158457093302"><ele>177.0</ele><time>2026-04-12T08:13:18Z</time></trkpt><trkpt lat="44.381093330743646" lon="11.470169896729505"><ele>178.0</ele><time>2026-04-12T08:13:19Z</time></trkpt><trkpt lat="44.380979270924044" lon="11.470166525919327"><ele>179.0</ele><time>2026-04-12T08:13:19.999Z</time></trkpt><trkpt lat="44.380887432176806" lon="11.470153998743552"><ele>180.0</ele><time>2026-04-12T08:13:20.999Z</time></trkpt><trkpt lat="44.38080816013432" lon="11.470128721581773"><ele>181.0</ele><time>2026-04-12T08:13:21.999Z</time></trkpt><trkpt lat="44.380734276618654" lon="11.470089666535955"><ele>182.0</ele><time>2026-04-12T08:13:22.999Z</time></trkpt><trkpt lat="44.38066975298288" lon="11.470035016972078"><ele>183.0</ele><time>2026-04-12T08:13:23.999Z</time></trkpt><trkpt lat="44.38058992725948" lon="11.469951175261123"><ele>182.25</ele><time>2026-04-12T08:13:24.999Z</time></trkpt><trkpt lat="44.38049133089383" lon="11.469843660712417"><ele>181.5</ele><time>2026-04-12T08:13:25.999Z</time></trkpt><trkpt lat="44.380387483868454" lon="11.469723324335698"><ele>180.75</ele><time>2026-04-12T08:13:26.999Z</time></trkpt><trkpt lat="44.38030200531845" lon="11.469625067160397"><ele>180.0</ele><time>2026-04-12T08:13:27.999Z</time></trkpt><trkpt lat="44.380237188191515" lon="11.469559952218951"><ele>180.0</ele><time>2026-04-12T08:13:28.999Z</time></trkpt><trkpt lat="44.38014258394083" lon="11.469476096456162"><ele>180.0</ele><time>2026-04-12T08:13:30.999Z</time></trkpt><trkpt lat="44.38005683390542" lon="11.469424896685545"><ele>180.0</ele><time>2026-04-12T08:13:32.999Z</time></trkpt><trkpt lat="44.379977590732196" lon="11.4693658478027"><ele>180.0</ele><time>2026-04-12T08:13:34.999Z</time></trkpt><trkpt lat="44.37986122828943" lon="11.469298074357518"><ele>180.0</ele><time>2026-04-12T08:13:36.999Z</time></trkpt><trkpt lat="44.37974335443689" lon="11.469263630455748"><ele>180.16666666666666</ele><time>2026-04-12T08:13:38.999Z</time></trkpt><trkpt lat="44.37961240663778" lon="11.469249342653908"><ele>180.33333333333334</ele><time>2026-04-12T08:13:40.999Z</time></trkpt><trkpt lat="44.37953371737681" lon="11.469255951011963"><ele>180.5</ele><time>2026-04-12T08:13:41.999Z</time></trkpt><trkpt lat="44.37944973593672" lon="11.469270524420546"><ele>180.66666666666669</ele><time>2026-04-12T08:13:42.999Z</time></trkpt><trkpt lat="44.379371660295504" lon="11.469292003765773"><ele>180.83333333333334</ele><time>2026-04-12T08:13:43.999Z</time></trkpt><trkpt lat="44.37930078138957" lon="11.469317999054129"><ele>181.0</ele><time>2026-04-12T08:13:44.999Z</time></trkpt><trkpt lat="44.37922012328524" lon="11.469344064419152"><ele>181.0</ele><time>2026-04-12T08:13:45.999Z</time></trkpt><trkpt lat="44.37912399232822" lon="11.469373621607689"><ele>181.0</ele><time>2026-04-12T08:13:46.999Z</time></trkpt><trkpt lat="44.37904781270821" lon="11.469402337847976"><ele>181.0</ele><time>2026-04-12T08:13:47.999Z</time></trkpt><trkpt lat="44.37898518439541" lon="11.469425261905998"><ele>181.0</ele><time>2026-04-12T08:13:48.999Z</time></trkpt><trkpt lat="44.37889049685359" lon="11.469451858171933"><ele>181.0</ele><time>2026-04-12T08:13:50.999Z</time></trkpt><trkpt lat="44.37880666821623" lon="11.469418382432135"><ele>181.0</ele><time>2026-04-12T08:13:52.999Z</time></trkpt><trkpt lat="44.37874292748022" lon="11.469322863337872"><ele>181.8</ele><time>2026-04-12T08:13:54.999Z</time></trkpt><trkpt lat="44.3787128185712" lon="11.469223471555932"><ele>182.60000000000002</ele><time>2026-04-12T08:13:55.999Z</time></trkpt><trkpt lat="44.378664643131096" lon="11.469081850877984"><ele>183.4</ele><time>2026-04-12T08:13:56.999Z</time></trkpt><trkpt lat="44.37863199002854" lon="11.46897094437786"><ele>184.2</ele><time>2026-04-12T08:13:57.999Z</time></trkpt><trkpt lat="44.378600075601895" lon="11.468890899666013"><ele>185.0</ele><time>2026-04-12T08:13:59.999Z</time></trkpt><trkpt lat="44.37851573160872" lon="11.468767998008817"><ele>185.2</ele><time>2026-04-12T08:14:01.999Z</time></trkpt><trkpt lat="44.37845236579123" lon="11.468677555888442"><ele>185.4</ele><time>2026-04-12T08:14:02.999Z</time></trkpt><trkpt lat="44.37840149353317" lon="11.468600627845314"><ele>185.60000000000002</ele><time>2026-04-12T08:14:03.999Z</time></trkpt><trkpt lat="44.378356090110735" lon="11.468538327663"><ele>185.8</ele><time>2026-04-12T08:14:04.999Z</time></trkpt><trkpt lat="44.378284744252355" lon="11.468428505166008"><ele>186.0</ele><time>2026-04-12T08:14:06.999Z</time></trkpt><trkpt lat="44.37819424643189" lon="11.468327697611354"><ele>186.0</ele><time>2026-04-12T08:14:08.999Z</time></trkpt><trkpt lat="44.37813076070797" lon="11.46828284395689"><ele>186.0</ele><time>2026-04-12T08:14:09.999Z</time></trkpt><trkpt lat="44.37805759309968" lon="11.468248415998886"><ele>186.0</ele><time>2026-04-12T08:14:10.999Z</time></trkpt><trkpt lat="44.37795462468318" lon="11.468212454100218"><ele>186.0</ele><time>2026-04-12T08:14:11.999Z</time></trkpt><trkpt lat="44.377808033124786" lon="11.468168808504194"><ele>186.0</ele><time>2026-04-12T08:14:12.999Z</time></trkpt><trkpt lat="44.37765809302272" lon="11.468125353352727"><ele>186.8</ele><time>2026-04-12T08:14:13.999Z</time></trkpt><trkpt lat="44.37755078132373" lon="11.46809366350484"><ele>187.60000000000002</ele><time>2026-04-12T08:14:14.998Z</time></trkpt><trkpt lat="44.37745783585682" lon="11.468059968910252"><ele>188.4</ele><time>2026-04-12T08:14:15.998Z</time></trkpt><trkpt lat="44.37737466240056" lon="11.468011206620483"><ele>189.2</ele><time>2026-04-12T08:14:16.998Z</time></trkpt><trkpt lat="44.37726904524709" lon="11.46793578452445"><ele>190.0</ele><time>2026-04-12T08:14:17.998Z</time></trkpt><trkpt lat="44.37716617447998" lon="11.467857429105003"><ele>190.0</ele><time>2026-04-12T08:14:18.998Z</time></trkpt><trkpt lat="44.37708205204406" lon="11.46779003221417"><ele>190.0</ele><time>2026-04-12T08:14:19.998Z</time></trkpt><trkpt lat="44.37701134514551" lon="11.467736737674073"><ele>190.0</ele><time>2026-04-12T08:14:20.998Z</time></trkpt><trkpt lat="44.3769446333253" lon="11.46769066562226"><ele>190.0</ele><time>2026-04-12T08:14:21.998Z</time></trkpt><trkpt lat="44.3768811924795" lon="11.467661102658854"><ele>190.0</ele><time>2026-04-12T08:14:22.998Z</time></trkpt><trkpt lat="44.37676560679125" lon="11.46765009624814"><ele>190.0</ele><time>2026-04-12T08:14:24.998Z</time></trkpt><trkpt lat="44.376691639479766" lon="11.467689966688397"><ele>190.0</ele><time>2026-04-12T08:14:25.998Z</time></trkpt><trkpt lat="44.3766221800054" lon="11.467731629066014"><ele>190.0</ele><time>2026-04-12T08:14:26.998Z</time></trkpt><trkpt lat="44.37655444663174" lon="11.467755082760275"><ele>190.0</ele><time>2026-04-12T08:14:27.998Z</time></trkpt><trkpt lat="44.37648643778042" lon="11.467754529071026"><ele>190.0</ele><time>2026-04-12T08:14:28.998Z</time></trkpt><trkpt lat="44.37638235878213" lon="11.467685385898564"><ele>190.0</ele><time>2026-04-12T08:14:30.998Z</time></trkpt><trkpt lat="44.37632392471987" lon="11.467561400760994"><ele>190.0</ele><time>2026-04-12T08:14:32.998Z</time></trkpt><trkpt lat="44.376313507048394" lon="11.467470012720389"><ele>190.8</ele><time>2026-04-12T08:14:33.998Z</time></trkpt><trkpt lat="44.37630903855054" lon="11.467348669496003"><ele>191.6</ele><time>2026-04-12T08:14:34.998Z</time></trkpt><trkpt lat="44.37631415696219" lon="11.467248075771197"><ele>192.39999999999998</ele><time>2026-04-12T08:14:35.998Z</time></trkpt><trkpt lat="44.3763313721271" lon="11.467141459089351"><ele>193.2</ele><time>2026-04-12T08:14:36.998Z</time></trkpt><trkpt lat="44.37635515160138" lon="11.466993047748101"><ele>194.0</ele><time>2026-04-12T08:14:37.998Z</time></trkpt><trkpt lat="44.376382933665475" lon="11.466830050911915"><ele>193.6</ele><time>2026-04-12T08:14:38.998Z</time></trkpt><trkpt lat="44.376408726122456" lon="11.466707948963478"><ele>193.2</ele><time>2026-04-12T08:14:39.998Z</time></trkpt><trkpt lat="44.37641845059061" lon="11.466616600790537"><ele>192.79999999999998</ele><time>2026-04-12T08:14:40.998Z</time></trkpt><trkpt lat="44.37638983901708" lon="11.466446451977477"><ele>192.39999999999998</ele><time>2026-04-12T08:14:42.998Z</time></trkpt><trkpt lat="44.3763251763212" lon="11.466317656245709"><ele>192.0</ele><time>2026-04-12T08:14:44.998Z</time></trkpt><trkpt lat="44.37621311161836" lon="11.466253672172705"><ele>192.0</ele><time>2026-04-12T08:14:46.998Z</time></trkpt><trkpt lat="44.37613702131905" lon="11.466257376625927"><ele>192.0</ele><time>2026-04-12T08:14:47.998Z</time></trkpt><trkpt lat="44.376052617728874" lon="11.466287408237521"><ele>192.0</ele><time>2026-04-12T08:14:48.998Z</time></trkpt><trkpt lat="44.37595977660469" lon="11.466348152318682"><ele>192.0</ele><time>2026-04-12T08:14:49.998Z</time></trkpt><trkpt lat="44.37584685359894" lon="11.46643641181412"><ele>192.0</ele><time>2026-04-12T08:14:50.998Z</time></trkpt><trkpt lat="44.3757219358049" lon="11.466536093262194"><ele>192.0</ele><time>2026-04-12T08:14:51.998Z</time></trkpt><trkpt lat="44.375621659535156" lon="11.46661943427254"><ele>192.0</ele><time>2026-04-12T08:14:52.998Z</time></trkpt><trkpt lat="44.37554308244928" lon="11.466686943519612"><ele>192.0</ele><time>2026-04-12T08:14:53.998Z</time></trkpt><trkpt lat="44.375462777349966" lon="11.466727086106497"><ele>192.0</ele><time>2026-04-12T08:14:54.998Z</time></trkpt><trkpt lat="44.37539173602747" lon="11.46674315601131"><ele>192.0</ele><time>2026-04-12T08:14:55.998Z</time></trkpt><trkpt lat="44.37532482527817" lon="11.466737278478186"><ele>192.0</ele><time>2026-04-12T08:14:57Z</time></trkpt><trkpt lat="44.37524615381423" lon="11.46672779157077"><ele>192.83333333333334</ele><time>2026-04-12T08:14:58Z</time></trkpt><trkpt lat="44.375165707191975" lon="11.466706826157402"><ele>193.66666666666669</ele><time>2026-04-12T08:14:59Z</time></trkpt><trkpt lat="44.37508577981838" lon="11.466658193339764"><ele>194.5</ele><time>2026-04-12T08:15:00Z</time></trkpt><trkpt lat="44.37501345960192" lon="11.46658087974504"><ele>195.33333333333334</ele><time>2026-04-12T08:15:01Z</time></trkpt><trkpt lat="44.37495609337483" lon="11.466490925966859"><ele>196.16666666666669</ele><time>2026-04-12T08:15:02Z</time></trkpt><trkpt lat="44.37490212829925" lon="11.466380768601656"><ele>197.0</ele><time>2026-04-12T08:15:03Z</time></trkpt><trkpt lat="44.37483552686094" lon="11.466237359874869"><ele>197.33333333333334</ele><time>2026-04-12T08:15:04Z</time></trkpt><trkpt lat="44.37477116657891" lon="11.46610631772989"><ele>197.66666666666669</ele><time>2026-04-12T08:15:05Z</time></trkpt><trkpt lat="44.374723837559934" lon="11.465991493554291"><ele>198.0</ele><time>2026-04-12T08:15:06Z</time></trkpt><trkpt lat="44.37469247760463" lon="11.465888639562277"><ele>198.33333333333331</ele><time>2026-04-12T08:15:07Z</time></trkpt><trkpt lat="44.374672150794446" lon="11.465788754779071"><ele>198.66666666666666</ele><time>2026-04-12T08:15:08Z</time></trkpt><trkpt lat="44.37465805721653" lon="11.46568895473298"><ele>199.0</ele><time>2026-04-12T08:15:09Z</time></trkpt><trkpt lat="44.37460813914918" lon="11.465549187834656"><ele>199.6</ele><time>2026-04-12T08:15:11Z</time></trkpt><trkpt lat="44.37451325349854" lon="11.465457293939938"><ele>200.2</ele><time>2026-04-12T08:15:13Z</time></trkpt><trkpt lat="44.37442317275917" lon="11.465410453372519"><ele>200.79999999999998</ele><time>2026-04-12T08:15:15Z</time></trkpt><trkpt lat="44.37432696105684" lon="11.465340836564963"><ele>201.39999999999998</ele><time>2026-04-12T08:15:17Z</time></trkpt><trkpt lat="44.374269949528866" lon="11.465288429790952"><ele>202.0</ele><time>2026-04-12T08:15:18Z</time></trkpt><trkpt lat="44.37418833652541" lon="11.465231396074243"><ele>202.2</ele><time>2026-04-12T08:15:20Z</time></trkpt><trkpt lat="44.374088871741115" lon="11.465264592052513"><ele>202.39999999999998</ele><time>2026-04-12T08:15:22Z</time></trkpt><trkpt lat="44.374015600777696" lon="11.465323774444865"><ele>202.60000000000002</ele><time>2026-04-12T08:15:23Z</time></trkpt><trkpt lat="44.37393680681767" lon="11.465403076930139"><ele>202.8</ele><time>2026-04-12T08:15:23.999Z</time></trkpt><trkpt lat="44.373821373314925" lon="11.4655106222153"><ele>203.0</ele><time>2026-04-12T08:15:24.999Z</time></trkpt><trkpt lat="44.37370762169838" lon="11.46560763895379"><ele>203.75</ele><time>2026-04-12T08:15:25.999Z</time></trkpt><trkpt lat="44.37358522090879" lon="11.465710585931879"><ele>204.5</ele><time>2026-04-12T08:15:26.999Z</time></trkpt><trkpt lat="44.37347606058486" lon="11.4657942177114"><ele>205.25</ele><time>2026-04-12T08:15:27.999Z</time></trkpt><trkpt lat="44.37338552434706" lon="11.46586267530191"><ele>206.0</ele><time>2026-04-12T08:15:28.999Z</time></trkpt><trkpt lat="44.373314846605844" lon="11.465924598539157"><ele>206.00000000000003</ele><time>2026-04-12T08:15:29.999Z</time></trkpt><trkpt lat="44.37325485413785" lon="11.465969678770911"><ele>206.0</ele><time>2026-04-12T08:15:30.999Z</time></trkpt><trkpt lat="44.37312818988029" lon="11.46600976309986"><ele>206.0</ele><time>2026-04-12T08:15:32.999Z</time></trkpt><trkpt lat="44.373058344849206" lon="11.46600391135019"><ele>206.0</ele><time>2026-04-12T08:15:33.999Z</time></trkpt><trkpt lat="44.372995930758954" lon="11.465969719070003"><ele>206.00000000000003</ele><time>2026-04-12T08:15:34.999Z</time></trkpt><trkpt lat="44.37293086153229" lon="11.46591175525189"><ele>206.0</ele><time>2026-04-12T08:15:35.999Z</time></trkpt><trkpt lat="44.372865615926415" lon="11.465829259716628"><ele>207.0</ele><time>2026-04-12T08:15:36.999Z</time></trkpt><trkpt lat="44.37278200668032" lon="11.46570597166982"><ele>208.0</ele><time>2026-04-12T08:15:37.999Z</time></trkpt><trkpt lat="44.37270044470178" lon="11.46559133047337"><ele>209.0</ele><time>2026-04-12T08:15:38.999Z</time></trkpt><trkpt lat="44.37261707946924" lon="11.465478470659486"><ele>210.0</ele><time>2026-04-12T08:15:39.999Z</time></trkpt><trkpt lat="44.37251150419785" lon="11.46534168298805"><ele>210.0</ele><time>2026-04-12T08:15:40.999Z</time></trkpt><trkpt lat="44.37240925667538" lon="11.46521120370677"><ele>210.0</ele><time>2026-04-12T08:15:41.999Z</time></trkpt><trkpt lat="44.37232258187871" lon="11.465102399234095"><ele>210.0</ele><time>2026-04-12T08:15:42.999Z</time></trkpt><trkpt lat="44.372245501179144" lon="11.464997954372912"><ele>210.0</ele><time>2026-04-12T08:15:43.999Z</time></trkpt><trkpt lat="44.3721792582094" lon="11.464911935867141"><ele>210.16666666666666</ele><time>2026-04-12T08:15:44.999Z</time></trkpt><trkpt lat="44.37211509915141" lon="11.464844261232443"><ele>210.33333333333331</ele><time>2026-04-12T08:15:45.999Z</time></trkpt><trkpt lat="44.372055762283495" lon="11.464789079458477"><ele>210.5</ele><time>2026-04-12T08:15:46.999Z</time></trkpt><trkpt lat="44.371991853934205" lon="11.46475920789211"><ele>210.66666666666666</ele><time>2026-04-12T08:15:47.999Z</time></trkpt><trkpt lat="44.371920131579536" lon="11.464748518187458"><ele>210.83333333333331</ele><time>2026-04-12T08:15:48.999Z</time></trkpt><trkpt lat="44.371836789773276" lon="11.4647473438861"><ele>211.0</ele><time>2026-04-12T08:15:49.999Z</time></trkpt><trkpt lat="44.37174801580695" lon="11.464772225367394"><ele>211.0</ele><time>2026-04-12T08:15:50.999Z</time></trkpt><trkpt lat="44.371632196036586" lon="11.464827996986688"><ele>211.0</ele><time>2026-04-12T08:15:51.999Z</time></trkpt><trkpt lat="44.37148774365061" lon="11.464904649595706"><ele>211.0</ele><time>2026-04-12T08:15:52.999Z</time></trkpt><trkpt lat="44.37135782700357" lon="11.464963003669308"><ele>211.0</ele><time>2026-04-12T08:15:53.999Z</time></trkpt><trkpt lat="44.37126021091564" lon="11.465006381796709"><ele>211.83333333333331</ele><time>2026-04-12T08:15:54.999Z</time></trkpt><trkpt lat="44.371177197406865" lon="11.465023871575765"><ele>212.66666666666666</ele><time>2026-04-12T08:15:55.999Z</time></trkpt><trkpt lat="44.37110006489154" lon="11.465019782137555"><ele>213.5</ele><time>2026-04-12T08:15:56.999Z</time></trkpt><trkpt lat="44.37102850777083" lon="11.464990587948765"><ele>214.33333333333331</ele><time>2026-04-12T08:15:57.999Z</time></trkpt><trkpt lat="44.37094791069097" lon="11.464930116441407"><ele>215.16666666666666</ele><time>2026-04-12T08:15:58.999Z</time></trkpt><trkpt lat="44.37087951697053" lon="11.464856739414088"><ele>216.0</ele><time>2026-04-12T08:15:59.999Z</time></trkpt><trkpt lat="44.37082164393019" lon="11.464791810609892"><ele>216.0</ele><time>2026-04-12T08:16:00.999Z</time></trkpt><trkpt lat="44.370757174891025" lon="11.464728982642518"><ele>216.00000000000003</ele><time>2026-04-12T08:16:01.999Z</time></trkpt><trkpt lat="44.370694364988154" lon="11.46462951912709"><ele>216.00000000000003</ele><time>2026-04-12T08:16:02.999Z</time></trkpt><trkpt lat="44.37062722011127" lon="11.464499491449224"><ele>216.0</ele><time>2026-04-12T08:16:03.999Z</time></trkpt><trkpt lat="44.37056018800614" lon="11.464340247995633"><ele>216.0</ele><time>2026-04-12T08:16:04.999Z</time></trkpt><trkpt lat="44.370504307147066" lon="11.464188355998608"><ele>216.16666666666666</ele><time>2026-04-12T08:16:05.999Z</time></trkpt><trkpt lat="44.37045789789899" lon="11.464056983146618"><ele>216.33333333333331</ele><time>2026-04-12T08:16:06.999Z</time></trkpt><trkpt lat="44.370415194968274" lon="11.46394411531927"><ele>216.5</ele><time>2026-04-12T08:16:07.999Z</time></trkpt><trkpt lat="44.370372878382675" lon="11.463852148202152"><ele>216.66666666666666</ele><time>2026-04-12T08:16:08.999Z</time></trkpt><trkpt lat="44.370322457984805" lon="11.463777484135912"><ele>216.83333333333331</ele><time>2026-04-12T08:16:09.999Z</time></trkpt><trkpt lat="44.370260252903" lon="11.46371181553393"><ele>217.0</ele><time>2026-04-12T08:16:10.999Z</time></trkpt><trkpt lat="44.37017703895219" lon="11.463658936027974"><ele>217.16666666666666</ele><time>2026-04-12T08:16:11.999Z</time></trkpt><trkpt lat="44.37009322661314" lon="11.463628849836999"><ele>217.33333333333331</ele><time>2026-04-12T08:16:12.999Z</time></trkpt><trkpt lat="44.37001916855355" lon="11.463611537546344"><ele>217.5</ele><time>2026-04-12T08:16:13.999Z</time></trkpt><trkpt lat="44.36994580758648" lon="11.463618889157136"><ele>217.66666666666669</ele><time>2026-04-12T08:16:14.999Z</time></trkpt><trkpt lat="44.36988114742415" lon="11.463651055835689"><ele>217.83333333333334</ele><time>2026-04-12T08:16:15.999Z</time></trkpt><trkpt lat="44.36979602791865" lon="11.463713029366641"><ele>218.0</ele><time>2026-04-12T08:16:16.999Z</time></trkpt><trkpt lat="44.369685669426175" lon="11.463785146821806"><ele>218.66666666666669</ele><time>2026-04-12T08:16:17.998Z</time></trkpt><trkpt lat="44.369595756718354" lon="11.463816663273297"><ele>219.33333333333334</ele><time>2026-04-12T08:16:18.998Z</time></trkpt><trkpt lat="44.369526698102774" lon="11.463818559423814"><ele>220.0</ele><time>2026-04-12T08:16:19.998Z</time></trkpt><trkpt lat="44.36945535060313" lon="11.463797296669672"><ele>220.66666666666669</ele><time>2026-04-12T08:16:20.998Z</time></trkpt><trkpt lat="44.36938317788566" lon="11.463755042934741"><ele>221.33333333333334</ele><time>2026-04-12T08:16:21.998Z</time></trkpt><trkpt lat="44.3693166955923" lon="11.46368880610419"><ele>222.0</ele><time>2026-04-12T08:16:22.998Z</time></trkpt><trkpt lat="44.369234538648755" lon="11.463585918627615"><ele>222.16666666666666</ele><time>2026-04-12T08:16:23.998Z</time></trkpt><trkpt lat="44.36916936143715" lon="11.463492288387364"><ele>222.33333333333331</ele><time>2026-04-12T08:16:24.998Z</time></trkpt><trkpt lat="44.36911655139458" lon="11.463419596895902"><ele>222.5</ele><time>2026-04-12T08:16:25.998Z</time></trkpt><trkpt lat="44.36906696879753" lon="11.463356197215496"><ele>222.66666666666666</ele><time>2026-04-12T08:16:26.998Z</time></trkpt><trkpt lat="44.36899975939195" lon="11.46329478751607"><ele>222.83333333333331</ele><time>2026-04-12T08:16:27.998Z</time></trkpt><trkpt lat="44.36891791525918" lon="11.463242020842321"><ele>223.0</ele><time>2026-04-12T08:16:28.998Z</time></trkpt><trkpt lat="44.368826380992175" lon="11.463207918091411"><ele>223.2</ele><time>2026-04-12T08:16:29.998Z</time></trkpt><trkpt lat="44.36875171316276" lon="11.46318981946207"><ele>223.4</ele><time>2026-04-12T08:16:30.998Z</time></trkpt><trkpt lat="44.36868486252965" lon="11.463174044282553"><ele>223.59999999999997</ele><time>2026-04-12T08:16:31.998Z</time></trkpt><trkpt lat="44.36862183094253" lon="11.463154793294379"><ele>223.79999999999998</ele><time>2026-04-12T08:16:32.998Z</time></trkpt><trkpt lat="44.36850473048823" lon="11.463120666847608"><ele>224.0</ele><time>2026-04-12T08:16:34.998Z</time></trkpt><trkpt lat="44.36838010882978" lon="11.463080958864792"><ele>224.0</ele><time>2026-04-12T08:16:36.998Z</time></trkpt><trkpt lat="44.368268984979274" lon="11.463045701680707"><ele>223.99999999999997</ele><time>2026-04-12T08:16:38.998Z</time></trkpt><trkpt lat="44.3681706487041" lon="11.462980759198002"><ele>223.99999999999997</ele><time>2026-04-12T08:16:40.998Z</time></trkpt><trkpt lat="44.3680764342069" lon="11.462905291858435"><ele>224.0</ele><time>2026-04-12T08:16:42.998Z</time></trkpt><trkpt lat="44.367988420001325" lon="11.462819328799634"><ele>224.0</ele><time>2026-04-12T08:16:44.998Z</time></trkpt><trkpt lat="44.367900091098505" lon="11.462729853203713"><ele>224.75</ele><time>2026-04-12T08:16:46.998Z</time></trkpt><trkpt lat="44.36781240596612" lon="11.46263209255639"><ele>225.5</ele><time>2026-04-12T08:16:48.998Z</time></trkpt><trkpt lat="44.36772843384468" lon="11.46252091665545"><ele>226.25</ele><time>2026-04-12T08:16:50.998Z</time></trkpt><trkpt lat="44.3676421787582" lon="11.462395820016441"><ele>227.0</ele><time>2026-04-12T08:16:52.998Z</time></trkpt><trkpt lat="44.3675606649084" lon="11.462264511921473"><ele>227.0</ele><time>2026-04-12T08:16:54.998Z</time></trkpt><trkpt lat="44.367521585378164" lon="11.46219478416448"><ele>227.00000000000003</ele><time>2026-04-12T08:16:55.998Z</time></trkpt><trkpt lat="44.367482634339694" lon="11.46212463970172"><ele>227.0</ele><time>2026-04-12T08:16:56.998Z</time></trkpt><trkpt lat="44.36743083650889" lon="11.462054962790724"><ele>227.0</ele><time>2026-04-12T08:16:57.998Z</time></trkpt><trkpt lat="44.367372036487794" lon="11.461991876942141"><ele>227.00000000000003</ele><time>2026-04-12T08:16:58.998Z</time></trkpt><trkpt lat="44.36730456979733" lon="11.461934140560762"><ele>227.0</ele><time>2026-04-12T08:16:59.998Z</time></trkpt><trkpt lat="44.36723497390772" lon="11.46188347970747"><ele>227.0</ele><time>2026-04-12T08:17:00.998Z</time></trkpt><trkpt lat="44.36715416265867" lon="11.461835451882529"><ele>228.0</ele><time>2026-04-12T08:17:01.998Z</time></trkpt><trkpt lat="44.3670532728173" lon="11.46178899188409"><ele>229.0</ele><time>2026-04-12T08:17:03Z</time></trkpt><trkpt lat="44.36693425775206" lon="11.461733440275717"><ele>230.0</ele><time>2026-04-12T08:17:04Z</time></trkpt><trkpt lat="44.366810545273495" lon="11.461692953449695"><ele>231.0</ele><time>2026-04-12T08:17:05Z</time></trkpt><trkpt lat="44.366677188054105" lon="11.461649959870256"><ele>231.0</ele><time>2026-04-12T08:17:06Z</time></trkpt><trkpt lat="44.36654073949515" lon="11.461611320291292"><ele>231.0</ele><time>2026-04-12T08:17:07Z</time></trkpt><trkpt lat="44.366394482180745" lon="11.461565646956187"><ele>231.0</ele><time>2026-04-12T08:17:08Z</time></trkpt><trkpt lat="44.366267533215776" lon="11.461515937239799"><ele>231.0</ele><time>2026-04-12T08:17:09Z</time></trkpt><trkpt lat="44.36616295251077" lon="11.461473050453703"><ele>232.25</ele><time>2026-04-12T08:17:10Z</time></trkpt><trkpt lat="44.36606112225207" lon="11.461434292017772"><ele>233.5</ele><time>2026-04-12T08:17:11Z</time></trkpt><trkpt lat="44.365935590259106" lon="11.461392909690426"><ele>234.75</ele><time>2026-04-12T08:17:12Z</time></trkpt><trkpt lat="44.365808114031346" lon="11.46134813010527"><ele>236.0</ele><time>2026-04-12T08:17:13Z</time></trkpt><trkpt lat="44.365684914031775" lon="11.46129819851033"><ele>235.60000000000002</ele><time>2026-04-12T08:17:14Z</time></trkpt><trkpt lat="44.365581576277755" lon="11.46125595965992"><ele>235.20000000000002</ele><time>2026-04-12T08:17:15Z</time></trkpt><trkpt lat="44.365489887188225" lon="11.461216699194416"><ele>234.79999999999998</ele><time>2026-04-12T08:17:16Z</time></trkpt><trkpt lat="44.365405863601715" lon="11.461180918706656"><ele>234.39999999999998</ele><time>2026-04-12T08:17:17Z</time></trkpt><trkpt lat="44.36531716460629" lon="11.461132727605555"><ele>234.0</ele><time>2026-04-12T08:17:18Z</time></trkpt><trkpt lat="44.36520463977522" lon="11.461063699140519"><ele>234.0</ele><time>2026-04-12T08:17:19Z</time></trkpt><trkpt lat="44.36509277834609" lon="11.460996053087506"><ele>233.99999999999997</ele><time>2026-04-12T08:17:20Z</time></trkpt><trkpt lat="44.36499804380735" lon="11.460942035837034"><ele>233.99999999999997</ele><time>2026-04-12T08:17:21Z</time></trkpt><trkpt lat="44.364919058265905" lon="11.46090141388899"><ele>234.0</ele><time>2026-04-12T08:17:22Z</time></trkpt><trkpt lat="44.364847252653675" lon="11.460861173895116"><ele>234.0</ele><time>2026-04-12T08:17:23Z</time></trkpt><trkpt lat="44.364733704131964" lon="11.460797506446934"><ele>234.5</ele><time>2026-04-12T08:17:25Z</time></trkpt><trkpt lat="44.36467288584025" lon="11.460762909759165"><ele>235.0</ele><time>2026-04-12T08:17:26Z</time></trkpt><trkpt lat="44.36460929338927" lon="11.460726028551473"><ele>235.5</ele><time>2026-04-12T08:17:27Z</time></trkpt><trkpt lat="44.36448532951273" lon="11.460691261302067"><ele>236.0</ele><time>2026-04-12T08:17:29Z</time></trkpt><trkpt lat="44.3644221675202" lon="11.460690447752356"><ele>236.5</ele><time>2026-04-12T08:17:29.999Z</time></trkpt><trkpt lat="44.36430006029434" lon="11.460713429686571"><ele>237.0</ele><time>2026-04-12T08:17:31.999Z</time></trkpt><trkpt lat="44.36419413700164" lon="11.460757291818542"><ele>237.0</ele><time>2026-04-12T08:17:33.999Z</time></trkpt><trkpt lat="44.36410351680355" lon="11.460792937679512"><ele>237.0</ele><time>2026-04-12T08:17:35.999Z</time></trkpt><trkpt lat="44.36403917999445" lon="11.460812046342063"><ele>237.0</ele><time>2026-04-12T08:17:36.999Z</time></trkpt><trkpt lat="44.36393747161768" lon="11.460844755329628"><ele>237.0</ele><time>2026-04-12T08:17:38.999Z</time></trkpt><trkpt lat="44.36383371792042" lon="11.460884515134618"><ele>237.0</ele><time>2026-04-12T08:17:40.999Z</time></trkpt><trkpt lat="44.36370708993143" lon="11.460924254213316"><ele>236.99999999999997</ele><time>2026-04-12T08:17:42.999Z</time></trkpt><trkpt lat="44.3636429580914" lon="11.460946670938775"><ele>237.0</ele><time>2026-04-12T08:17:43.999Z</time></trkpt><trkpt lat="44.36357928221131" lon="11.460966726622553"><ele>236.99999999999997</ele><time>2026-04-12T08:17:44.999Z</time></trkpt><trkpt lat="44.363517823777855" lon="11.460986601980178"><ele>236.99999999999997</ele><time>2026-04-12T08:17:45.999Z</time></trkpt><trkpt lat="44.36344998664503" lon="11.461007844752487"><ele>237.0</ele><time>2026-04-12T08:17:46.999Z</time></trkpt><trkpt lat="44.3633806843371" lon="11.461028047873686"><ele>236.99999999999997</ele><time>2026-04-12T08:17:47.999Z</time></trkpt><trkpt lat="44.36331853095797" lon="11.461049263808663"><ele>236.99999999999997</ele><time>2026-04-12T08:17:48.999Z</time></trkpt><trkpt lat="44.363205399263215" lon="11.461091995986575"><ele>237.0</ele><time>2026-04-12T08:17:50.999Z</time></trkpt><trkpt lat="44.36311969471708" lon="11.461109006482944"><ele>237.0</ele><time>2026-04-12T08:17:52.999Z</time></trkpt><trkpt lat="44.3630363835335" lon="11.46111940340279"><ele>237.0</ele><time>2026-04-12T08:17:55.999Z</time></trkpt><trkpt lat="44.362946384629595" lon="11.461171784559959"><ele>237.0</ele><time>2026-04-12T08:18:23.998Z</time></trkpt><trkpt lat="44.36284912323786" lon="11.461218996891299"><ele>237.0</ele><time>2026-04-12T08:18:25.998Z</time></trkpt><trkpt lat="44.362747438445915" lon="11.461203339339106"><ele>238.2</ele><time>2026-04-12T08:18:27.998Z</time></trkpt><trkpt lat="44.36264608663488" lon="11.46123830980857"><ele>239.39999999999998</ele><time>2026-04-12T08:18:29.998Z</time></trkpt><trkpt lat="44.362547664720104" lon="11.461272269310129"><ele>240.60000000000002</ele><time>2026-04-12T08:18:31.998Z</time></trkpt><trkpt lat="44.36245304270673" lon="11.461306842430647"><ele>241.8</ele><time>2026-04-12T08:18:33.998Z</time></trkpt><trkpt lat="44.36237298682114" lon="11.46134724454302"><ele>243.0</ele><time>2026-04-12T08:18:35.998Z</time></trkpt><trkpt lat="44.36229835668973" lon="11.461393807045006"><ele>243.5</ele><time>2026-04-12T08:18:37.998Z</time></trkpt><trkpt lat="44.36221425957107" lon="11.461479326352105"><ele>244.0</ele><time>2026-04-12T08:18:39.998Z</time></trkpt><trkpt lat="44.36211861272362" lon="11.461596124575784"><ele>244.5</ele><time>2026-04-12T08:18:41.998Z</time></trkpt><trkpt lat="44.36206370306898" lon="11.46166324861465"><ele>245.0</ele><time>2026-04-12T08:18:42.998Z</time></trkpt><trkpt lat="44.362011321900276" lon="11.461725668904332"><ele>245.5</ele><time>2026-04-12T08:18:43.998Z</time></trkpt><trkpt lat="44.36195894237721" lon="11.461786382857758"><ele>246.0</ele><time>2026-04-12T08:18:44.998Z</time></trkpt><trkpt lat="44.36190624426871" lon="11.461845936211182"><ele>246.60000000000002</ele><time>2026-04-12T08:18:45.998Z</time></trkpt><trkpt lat="44.36181003664238" lon="11.461948877555828"><ele>247.20000000000002</ele><time>2026-04-12T08:18:47.998Z</time></trkpt><trkpt lat="44.361713409764064" lon="11.462035447501203"><ele>247.79999999999998</ele><time>2026-04-12T08:18:49.998Z</time></trkpt><trkpt lat="44.361607922580575" lon="11.462119034408152"><ele>248.39999999999998</ele><time>2026-04-12T08:18:51.998Z</time></trkpt><trkpt lat="44.36154845672644" lon="11.462163987202123"><ele>249.0</ele><time>2026-04-12T08:18:52.998Z</time></trkpt><trkpt lat="44.36143431337547" lon="11.462238028720341"><ele>249.5</ele><time>2026-04-12T08:18:54.998Z</time></trkpt><trkpt lat="44.361374350672435" lon="11.462272646355286"><ele>250.0</ele><time>2026-04-12T08:18:55.998Z</time></trkpt><trkpt lat="44.361315655937" lon="11.46230653197761"><ele>250.5</ele><time>2026-04-12T08:18:56.998Z</time></trkpt><trkpt lat="44.36125540643757" lon="11.462339013941033"><ele>251.0</ele><time>2026-04-12T08:18:57.998Z</time></trkpt><trkpt lat="44.36114012107189" lon="11.462397898078846"><ele>251.5</ele><time>2026-04-12T08:18:59.998Z</time></trkpt><trkpt lat="44.36102347139538" lon="11.462452886114049"><ele>252.0</ele><time>2026-04-12T08:19:01.998Z</time></trkpt><trkpt lat="44.36092152109842" lon="11.462507607132624"><ele>252.0</ele><time>2026-04-12T08:19:03.998Z</time></trkpt><trkpt lat="44.36082168236212" lon="11.46257993567647"><ele>252.0</ele><time>2026-04-12T08:19:05.998Z</time></trkpt><trkpt lat="44.36077526382567" lon="11.46264354478466"><ele>252.0</ele><time>2026-04-12T08:19:06.998Z</time></trkpt><trkpt lat="44.36071668127531" lon="11.46268824559784"><ele>252.0</ele><time>2026-04-12T08:19:07.998Z</time></trkpt><trkpt lat="44.36065744356661" lon="11.462739655422242"><ele>252.0</ele><time>2026-04-12T08:19:09Z</time></trkpt><trkpt lat="44.36060393383486" lon="11.462786511575935"><ele>252.0</ele><time>2026-04-12T08:19:10Z</time></trkpt><trkpt lat="44.36054230434213" lon="11.462837196750131"><ele>252.0</ele><time>2026-04-12T08:19:11Z</time></trkpt><trkpt lat="44.36048372501586" lon="11.462883637257885"><ele>252.85714285714286</ele><time>2026-04-12T08:19:12Z</time></trkpt><trkpt lat="44.36037261383074" lon="11.462948276049126"><ele>253.71428571428572</ele><time>2026-04-12T08:19:14Z</time></trkpt><trkpt lat="44.3603154848264" lon="11.462985688212422"><ele>254.57142857142856</ele><time>2026-04-12T08:19:15Z</time></trkpt><trkpt lat="44.36025499835183" lon="11.463019244599305"><ele>255.42857142857142</ele><time>2026-04-12T08:19:16Z</time></trkpt><trkpt lat="44.360190605057284" lon="11.46304587853048"><ele>256.2857142857143</ele><time>2026-04-12T08:19:17Z</time></trkpt><trkpt lat="44.36012687530284" lon="11.463067938560123"><ele>257.1428571428571</ele><time>2026-04-12T08:19:18Z</time></trkpt><trkpt lat="44.36006215856483" lon="11.463089094311155"><ele>258.0</ele><time>2026-04-12T08:19:19Z</time></trkpt><trkpt lat="44.359945214787246" lon="11.463110441443774"><ele>258.0</ele><time>2026-04-12T08:19:21Z</time></trkpt><trkpt lat="44.35988270053989" lon="11.46312300100378"><ele>258.0</ele><time>2026-04-12T08:19:22Z</time></trkpt><trkpt lat="44.35977319162767" lon="11.463157550956934"><ele>258.0</ele><time>2026-04-12T08:19:24Z</time></trkpt><trkpt lat="44.359673702825205" lon="11.463169044232615"><ele>258.0</ele><time>2026-04-12T08:19:26Z</time></trkpt><trkpt lat="44.35959174961041" lon="11.463190928516186"><ele>258.0</ele><time>2026-04-12T08:19:28Z</time></trkpt><trkpt lat="44.35952170343271" lon="11.463226608444131"><ele>258.0</ele><time>2026-04-12T08:19:31Z</time></trkpt><trkpt lat="44.359469110031746" lon="11.46329473879653"><ele>258.4</ele><time>2026-04-12T08:19:52.999Z</time></trkpt><trkpt lat="44.35940262557577" lon="11.463381322632275"><ele>258.8</ele><time>2026-04-12T08:19:54.999Z</time></trkpt><trkpt lat="44.35932512531814" lon="11.46348881936418"><ele>259.2</ele><time>2026-04-12T08:19:56.999Z</time></trkpt><trkpt lat="44.3592577082529" lon="11.463609582048408"><ele>259.6</ele><time>2026-04-12T08:19:58.999Z</time></trkpt><trkpt lat="44.35918668506483" lon="11.463744750862652"><ele>260.0</ele><time>2026-04-12T08:20:00.999Z</time></trkpt><trkpt lat="44.359107923693536" lon="11.463859549120942"><ele>260.6</ele><time>2026-04-12T08:20:02.999Z</time></trkpt><trkpt lat="44.35905073640303" lon="11.463966419329934"><ele>261.2</ele><time>2026-04-12T08:20:04.999Z</time></trkpt><trkpt lat="44.35899001752907" lon="11.464083199987721"><ele>261.8</ele><time>2026-04-12T08:20:06.999Z</time></trkpt><trkpt lat="44.35891313463842" lon="11.464140246955687"><ele>262.4</ele><time>2026-04-12T08:20:08.999Z</time></trkpt><trkpt lat="44.358853992464034" lon="11.464257922305778"><ele>263.0</ele><time>2026-04-12T08:20:10.999Z</time></trkpt><trkpt lat="44.358816529910186" lon="11.464367678940256"><ele>263.0</ele><time>2026-04-12T08:20:12.999Z</time></trkpt><trkpt lat="44.358771210244065" lon="11.464536075610194"><ele>263.0</ele><time>2026-04-12T08:20:14.999Z</time></trkpt><trkpt lat="44.35874892868398" lon="11.464694057562555"><ele>263.0</ele><time>2026-04-12T08:20:16.999Z</time></trkpt><trkpt lat="44.358733471383296" lon="11.464847520252508"><ele>263.0</ele><time>2026-04-12T08:20:18.999Z</time></trkpt><trkpt lat="44.35871448664528" lon="11.464984886756739"><ele>264.4</ele><time>2026-04-12T08:20:20.999Z</time></trkpt><trkpt lat="44.35867288905552" lon="11.46511425485443"><ele>265.8</ele><time>2026-04-12T08:20:22.999Z</time></trkpt><trkpt lat="44.35861203943614" lon="11.465244456123429"><ele>267.2</ele><time>2026-04-12T08:20:24.999Z</time></trkpt><trkpt lat="44.35856628820974" lon="11.465361083183074"><ele>268.6</ele><time>2026-04-12T08:20:26.999Z</time></trkpt><trkpt lat="44.35851965006739" lon="11.46545105828084"><ele>270.0</ele><time>2026-04-12T08:20:28.999Z</time></trkpt><trkpt lat="44.35848462170568" lon="11.465565415887069"><ele>272.2</ele><time>2026-04-12T08:20:30.998Z</time></trkpt><trkpt lat="44.358476811176004" lon="11.465724982386979"><ele>274.4</ele><time>2026-04-12T08:20:32.998Z</time></trkpt><trkpt lat="44.35847283935718" lon="11.4658746484268"><ele>276.6</ele><time>2026-04-12T08:20:34.998Z</time></trkpt><trkpt lat="44.35845156369398" lon="11.466018698443257"><ele>278.8</ele><time>2026-04-12T08:20:36.998Z</time></trkpt><trkpt lat="44.35844557059518" lon="11.46616986735827"><ele>281.0</ele><time>2026-04-12T08:20:38.998Z</time></trkpt><trkpt lat="44.35843679736246" lon="11.466324485598136"><ele>282.40000000000003</ele><time>2026-04-12T08:20:40.998Z</time></trkpt><trkpt lat="44.35839443372199" lon="11.46647031958083"><ele>283.8</ele><time>2026-04-12T08:20:42.998Z</time></trkpt><trkpt lat="44.358368045281495" lon="11.466635427504634"><ele>285.20000000000005</ele><time>2026-04-12T08:20:44.998Z</time></trkpt><trkpt lat="44.3583425842835" lon="11.466716561170916"><ele>286.6</ele><time>2026-04-12T08:20:45.998Z</time></trkpt><trkpt lat="44.358305734417456" lon="11.466874605252718"><ele>288.0</ele><time>2026-04-12T08:20:47.998Z</time></trkpt><trkpt lat="44.358317093162654" lon="11.467004453248213"><ele>288.8</ele><time>2026-04-12T08:20:49.998Z</time></trkpt><trkpt lat="44.35834631251419" lon="11.467111820689759"><ele>289.6</ele><time>2026-04-12T08:20:51.998Z</time></trkpt><trkpt lat="44.35835154305719" lon="11.46722284969554"><ele>290.4</ele><time>2026-04-12T08:20:53.998Z</time></trkpt><trkpt lat="44.358356221787595" lon="11.46735919806318"><ele>291.2</ele><time>2026-04-12T08:20:55.998Z</time></trkpt><trkpt lat="44.35834382396739" lon="11.467517537378452"><ele>292.0</ele><time>2026-04-12T08:20:57.998Z</time></trkpt><trkpt lat="44.35830555362439" lon="11.467676783106208"><ele>292.0</ele><time>2026-04-12T08:20:59.998Z</time></trkpt><trkpt lat="44.358317754086386" lon="11.46779847846841"><ele>292.0</ele><time>2026-04-12T08:21:01.998Z</time></trkpt><trkpt lat="44.35832195369012" lon="11.467894615138686"><ele>292.0</ele><time>2026-04-12T08:21:02.998Z</time></trkpt><trkpt lat="44.358344734395565" lon="11.468028415515837"><ele>292.0</ele><time>2026-04-12T08:21:04.998Z</time></trkpt><trkpt lat="44.35834084345812" lon="11.468145742968543"><ele>292.0</ele><time>2026-04-12T08:21:06.998Z</time></trkpt><trkpt lat="44.35832022679112" lon="11.468269143666452"><ele>292.0</ele><time>2026-04-12T08:21:08.998Z</time></trkpt><trkpt lat="44.35832770163427" lon="11.468368395124106"><ele>293.0</ele><time>2026-04-12T08:21:10.998Z</time></trkpt><trkpt lat="44.35838830487237" lon="11.468450441477108"><ele>294.0</ele><time>2026-04-12T08:21:12.998Z</time></trkpt><trkpt lat="44.35845158205114" lon="11.4685126416351"><ele>295.0</ele><time>2026-04-12T08:21:15Z</time></trkpt><trkpt lat="44.35849994197586" lon="11.468581626927984"><ele>296.0</ele><time>2026-04-12T08:21:17Z</time></trkpt><trkpt lat="44.358527708724196" lon="11.468698350357293"><ele>297.0</ele><time>2026-04-12T08:21:19Z</time></trkpt><trkpt lat="44.358512984364324" lon="11.468847894274074"><ele>298.0</ele><time>2026-04-12T08:21:21Z</time></trkpt><trkpt lat="44.358469207748264" lon="11.469000130847338"><ele>298.6</ele><time>2026-04-12T08:21:23Z</time></trkpt><trkpt lat="44.35843231356248" lon="11.469120472125454"><ele>299.20000000000005</ele><time>2026-04-12T08:21:25Z</time></trkpt><trkpt lat="44.35841021303552" lon="11.469235057463683"><ele>299.8</ele><time>2026-04-12T08:21:27Z</time></trkpt><trkpt lat="44.35839785969439" lon="11.469346639806998"><ele>300.40000000000003</ele><time>2026-04-12T08:21:29Z</time></trkpt><trkpt lat="44.358388573367044" lon="11.469489696015216"><ele>301.0</ele><time>2026-04-12T08:21:31Z</time></trkpt><trkpt lat="44.358390870280445" lon="11.469638609155275"><ele>302.2</ele><time>2026-04-12T08:21:33Z</time></trkpt><trkpt lat="44.35839617054184" lon="11.469762532962418"><ele>303.40000000000003</ele><time>2026-04-12T08:21:35Z</time></trkpt><trkpt lat="44.35841475544629" lon="11.469905131743642"><ele>304.6</ele><time>2026-04-12T08:21:37Z</time></trkpt><trkpt lat="44.35843354791194" lon="11.470057887791464"><ele>305.8</ele><time>2026-04-12T08:21:39Z</time></trkpt><trkpt lat="44.35844970330035" lon="11.470180337795345"><ele>307.0</ele><time>2026-04-12T08:21:40Z</time></trkpt><trkpt lat="44.35846678764011" lon="11.47032579409189"><ele>307.0</ele><time>2026-04-12T08:21:41Z</time></trkpt><trkpt lat="44.35848161437355" lon="11.47041894786621"><ele>307.0</ele><time>2026-04-12T08:21:41.999Z</time></trkpt><trkpt lat="44.35849370721488" lon="11.470569180102414"><ele>307.0</ele><time>2026-04-12T08:21:43.999Z</time></trkpt><trkpt lat="44.35849521153792" lon="11.4706984625628"><ele>307.0</ele><time>2026-04-12T08:21:45.999Z</time></trkpt><trkpt lat="44.35846381683489" lon="11.470824237321374"><ele>307.0</ele><time>2026-04-12T08:21:47.999Z</time></trkpt><trkpt lat="44.358426174730226" lon="11.47089506528618"><ele>307.0</ele><time>2026-04-12T08:21:48.999Z</time></trkpt><trkpt lat="44.358371413102525" lon="11.470970547669541"><ele>308.3333333333333</ele><time>2026-04-12T08:21:49.999Z</time></trkpt><trkpt lat="44.35831887513091" lon="11.471047545415141"><ele>309.66666666666663</ele><time>2026-04-12T08:21:50.999Z</time></trkpt><trkpt lat="44.35825679507679" lon="11.471155785404132"><ele>311.0</ele><time>2026-04-12T08:21:52.999Z</time></trkpt><trkpt lat="44.35818218984663" lon="11.471249944892255"><ele>312.3333333333333</ele><time>2026-04-12T08:21:54.999Z</time></trkpt><trkpt lat="44.35813622101199" lon="11.471310289547263"><ele>313.6666666666667</ele><time>2026-04-12T08:21:55.999Z</time></trkpt><trkpt lat="44.358087041405355" lon="11.471376211956173"><ele>315.0</ele><time>2026-04-12T08:21:56.999Z</time></trkpt><trkpt lat="44.3580354452749" lon="11.47143959638139"><ele>316.85714285714283</ele><time>2026-04-12T08:21:57.999Z</time></trkpt><trkpt lat="44.35798300248261" lon="11.471506194713056"><ele>318.7142857142857</ele><time>2026-04-12T08:21:58.999Z</time></trkpt><trkpt lat="44.35793028156906" lon="11.47157342967365"><ele>320.57142857142856</ele><time>2026-04-12T08:21:59.999Z</time></trkpt><trkpt lat="44.35787828883449" lon="11.471643144666848"><ele>322.42857142857144</ele><time>2026-04-12T08:22:00.999Z</time></trkpt><trkpt lat="44.35782256943176" lon="11.471714076004686"><ele>324.2857142857143</ele><time>2026-04-12T08:22:01.999Z</time></trkpt><trkpt lat="44.357765521454915" lon="11.471790294979858"><ele>326.1428571428571</ele><time>2026-04-12T08:22:02.999Z</time></trkpt><trkpt lat="44.35770899241226" lon="11.471867719324502"><ele>328.0</ele><time>2026-04-12T08:22:03.999Z</time></trkpt><trkpt lat="44.35765409595294" lon="11.47193514136224"><ele>328.0</ele><time>2026-04-12T08:22:04.999Z</time></trkpt><trkpt lat="44.35759583019199" lon="11.472009999801566"><ele>328.0</ele><time>2026-04-12T08:22:05.999Z</time></trkpt><trkpt lat="44.357525596779944" lon="11.472096873196971"><ele>328.0</ele><time>2026-04-12T08:22:06.999Z</time></trkpt><trkpt lat="44.35746851703354" lon="11.472173284972481"><ele>328.0</ele><time>2026-04-12T08:22:07.999Z</time></trkpt><trkpt lat="44.35741983464848" lon="11.472244334759212"><ele>328.0</ele><time>2026-04-12T08:22:08.999Z</time></trkpt><trkpt lat="44.35732512848434" lon="11.472349993785848"><ele>328.0</ele><time>2026-04-12T08:22:10.999Z</time></trkpt><trkpt lat="44.35727303892949" lon="11.472408603158652"><ele>328.66666666666663</ele><time>2026-04-12T08:22:11.999Z</time></trkpt><trkpt lat="44.357224057780414" lon="11.472471072666643"><ele>329.3333333333333</ele><time>2026-04-12T08:22:12.999Z</time></trkpt><trkpt lat="44.357129957242364" lon="11.47258221557631"><ele>330.0</ele><time>2026-04-12T08:22:14.999Z</time></trkpt><trkpt lat="44.3570825211546" lon="11.47264382795556"><ele>330.6666666666667</ele><time>2026-04-12T08:22:15.999Z</time></trkpt><trkpt lat="44.35704131697718" lon="11.472720598477098"><ele>331.33333333333337</ele><time>2026-04-12T08:22:16.999Z</time></trkpt><trkpt lat="44.35699968395669" lon="11.47280316323805"><ele>332.0</ele><time>2026-04-12T08:22:17.999Z</time></trkpt><trkpt lat="44.35696107936993" lon="11.472928354017716"><ele>334.5</ele><time>2026-04-12T08:22:19.999Z</time></trkpt><trkpt lat="44.356917890278126" lon="11.473054480269267"><ele>337.0</ele><time>2026-04-12T08:22:21.999Z</time></trkpt><trkpt lat="44.35690055646527" lon="11.473141747414001"><ele>339.5</ele><time>2026-04-12T08:22:22.999Z</time></trkpt><trkpt lat="44.35688491384495" lon="11.473230279185241"><ele>342.0</ele><time>2026-04-12T08:22:23.999Z</time></trkpt><trkpt lat="44.356871224015464" lon="11.473340935647"><ele>344.5</ele><time>2026-04-12T08:22:24.999Z</time></trkpt><trkpt lat="44.35684720675495" lon="11.473437102285677"><ele>347.0</ele><time>2026-04-12T08:22:25.999Z</time></trkpt><trkpt lat="44.356814126255045" lon="11.473524944209224"><ele>347.0</ele><time>2026-04-12T08:22:26.999Z</time></trkpt><trkpt lat="44.356767010064516" lon="11.473630876432866"><ele>347.0</ele><time>2026-04-12T08:22:27.999Z</time></trkpt><trkpt lat="44.356728694017036" lon="11.473716515304952"><ele>347.0</ele><time>2026-04-12T08:22:28.999Z</time></trkpt><trkpt lat="44.356696717729264" lon="11.473797113792877"><ele>347.0</ele><time>2026-04-12T08:22:29.999Z</time></trkpt><trkpt lat="44.35662518249911" lon="11.473930937125425"><ele>347.0</ele><time>2026-04-12T08:22:31.999Z</time></trkpt><trkpt lat="44.356581832816744" lon="11.474015882623762"><ele>347.0</ele><time>2026-04-12T08:22:33.999Z</time></trkpt><trkpt lat="44.35654251433166" lon="11.474133609264452"><ele>349.0</ele><time>2026-04-12T08:22:35.998Z</time></trkpt><trkpt lat="44.35648689453756" lon="11.474270740013905"><ele>351.0</ele><time>2026-04-12T08:22:37.998Z</time></trkpt><trkpt lat="44.356444055454574" lon="11.47434945014682"><ele>353.0</ele><time>2026-04-12T08:22:38.998Z</time></trkpt><trkpt lat="44.35640481748757" lon="11.474429268836067"><ele>355.0</ele><time>2026-04-12T08:22:39.998Z</time></trkpt><trkpt lat="44.356365723864506" lon="11.47450362555861"><ele>357.0</ele><time>2026-04-12T08:22:40.998Z</time></trkpt><trkpt lat="44.35629422698385" lon="11.47463830655271"><ele>359.0</ele><time>2026-04-12T08:22:42.998Z</time></trkpt><trkpt lat="44.35622160024606" lon="11.474758201842574"><ele>362.79999999999995</ele><time>2026-04-12T08:22:44.998Z</time></trkpt><trkpt lat="44.35616301161689" lon="11.474896840119206"><ele>366.59999999999997</ele><time>2026-04-12T08:22:46.998Z</time></trkpt><trkpt lat="44.35613441584274" lon="11.474988430731873"><ele>370.4</ele><time>2026-04-12T08:22:47.998Z</time></trkpt><trkpt lat="44.35607198454397" lon="11.475119201443599"><ele>374.2</ele><time>2026-04-12T08:22:50.998Z</time></trkpt><trkpt lat="44.35604284127996" lon="11.475295303918843"><ele>378.0</ele><time>2026-04-12T08:22:52.998Z</time></trkpt><trkpt lat="44.35602013456084" lon="11.475466006763149"><ele>380.42857142857144</ele><time>2026-04-12T08:22:54.998Z</time></trkpt><trkpt lat="44.356004533207" lon="11.475559028869903"><ele>382.8571428571429</ele><time>2026-04-12T08:22:55.998Z</time></trkpt><trkpt lat="44.355984153446926" lon="11.475647672420546"><ele>385.2857142857143</ele><time>2026-04-12T08:22:56.998Z</time></trkpt><trkpt lat="44.35596220015673" lon="11.475739301209336"><ele>387.7142857142857</ele><time>2026-04-12T08:22:57.998Z</time></trkpt><trkpt lat="44.3559325480713" lon="11.475825995872107"><ele>390.14285714285717</ele><time>2026-04-12T08:22:58.998Z</time></trkpt><trkpt lat="44.355897461619435" lon="11.475913437015814"><ele>392.57142857142856</ele><time>2026-04-12T08:22:59.998Z</time></trkpt><trkpt lat="44.355862090916915" lon="11.476003153572366"><ele>395.0</ele><time>2026-04-12T08:23:00.998Z</time></trkpt><trkpt lat="44.35583000937571" lon="11.47609975127032"><ele>395.0</ele><time>2026-04-12T08:23:01.998Z</time></trkpt><trkpt lat="44.355802238939475" lon="11.476197529009172"><ele>395.0</ele><time>2026-04-12T08:23:02.998Z</time></trkpt><trkpt lat="44.35578278707639" lon="11.476289200297122"><ele>395.0</ele><time>2026-04-12T08:23:03.998Z</time></trkpt><trkpt lat="44.35576363545292" lon="11.476383792109374"><ele>395.0</ele><time>2026-04-12T08:23:04.998Z</time></trkpt><trkpt lat="44.355737950573285" lon="11.476472380217048"><ele>395.0</ele><time>2026-04-12T08:23:05.998Z</time></trkpt><trkpt lat="44.35570571937179" lon="11.476569596106966"><ele>395.0</ele><time>2026-04-12T08:23:06.998Z</time></trkpt><trkpt lat="44.355677360525085" lon="11.476668423218332"><ele>395.0</ele><time>2026-04-12T08:23:07.998Z</time></trkpt><trkpt lat="44.35562654337906" lon="11.476818489434601"><ele>396.99999999999994</ele><time>2026-04-12T08:23:09.998Z</time></trkpt><trkpt lat="44.355593429514656" lon="11.476906468889792"><ele>399.0</ele><time>2026-04-12T08:23:10.998Z</time></trkpt><trkpt lat="44.35555935766836" lon="11.476984720679132"><ele>401.0</ele><time>2026-04-12T08:23:11.998Z</time></trkpt><trkpt lat="44.355483277308274" lon="11.477136494135182"><ele>403.0</ele><time>2026-04-12T08:23:13.998Z</time></trkpt><trkpt lat="44.355437321682295" lon="11.477219774273264"><ele>404.99999999999994</ele><time>2026-04-12T08:23:14.998Z</time></trkpt><trkpt lat="44.35538605690205" lon="11.477319957921456"><ele>407.0</ele><time>2026-04-12T08:23:15.998Z</time></trkpt><trkpt lat="44.35533180791761" lon="11.477424750984923"><ele>413.0</ele><time>2026-04-12T08:23:16.998Z</time></trkpt><trkpt lat="44.35528260100273" lon="11.477525258906734"><ele>419.0</ele><time>2026-04-12T08:23:17.998Z</time></trkpt><trkpt lat="44.355211063559416" lon="11.477668244334678"><ele>425.00000000000006</ele><time>2026-04-12T08:23:19.998Z</time></trkpt><trkpt lat="44.35513704645799" lon="11.477775226040784"><ele>431.0</ele><time>2026-04-12T08:23:22Z</time></trkpt><trkpt lat="44.355083167753506" lon="11.477844351178993"><ele>437.0</ele><time>2026-04-12T08:23:23Z</time></trkpt><trkpt lat="44.35502729490484" lon="11.47791866150833"><ele>439.6</ele><time>2026-04-12T08:23:24Z</time></trkpt><trkpt lat="44.35497964588895" lon="11.478012619080982"><ele>442.20000000000005</ele><time>2026-04-12T08:23:26Z</time></trkpt><trkpt lat="44.35490237767178" lon="11.478181343464707"><ele>444.8</ele><time>2026-04-12T08:23:28Z</time></trkpt><trkpt lat="44.35486875960777" lon="11.478261994703823"><ele>447.4</ele><time>2026-04-12T08:23:29Z</time></trkpt><trkpt lat="44.35483956565799" lon="11.478343129436919"><ele>450.0</ele><time>2026-04-12T08:23:31Z</time></trkpt><trkpt lat="44.354800070778204" lon="11.478502130365444"><ele>450.0</ele><time>2026-04-12T08:23:33Z</time></trkpt><trkpt lat="44.354763854636175" lon="11.478632490566484"><ele>450.0</ele><time>2026-04-12T08:23:34Z</time></trkpt><trkpt lat="44.354734099127164" lon="11.478725338946456"><ele>450.0</ele><time>2026-04-12T08:23:35Z</time></trkpt><trkpt lat="44.35470020574064" lon="11.478843447291545"><ele>450.0</ele><time>2026-04-12T08:23:37Z</time></trkpt><trkpt lat="44.35466472883298" lon="11.478947359094919"><ele>450.0</ele><time>2026-04-12T08:23:39Z</time></trkpt><trkpt lat="44.354652530570895" lon="11.479036379597119"><ele>450.0</ele><time>2026-04-12T08:23:40Z</time></trkpt><trkpt lat="44.35464250361547" lon="11.479154180215195"><ele>450.0</ele><time>2026-04-12T08:23:41Z</time></trkpt><trkpt lat="44.35463755017629" lon="11.479255132996554"><ele>450.0</ele><time>2026-04-12T08:23:42Z</time></trkpt><trkpt lat="44.35464016674442" lon="11.47935565822539"><ele>450.0</ele><time>2026-04-12T08:23:43Z</time></trkpt><trkpt lat="44.354639598664626" lon="11.479500834833836"><ele>450.0</ele><time>2026-04-12T08:23:44.999Z</time></trkpt><trkpt lat="44.35463959233855" lon="11.479628663145238"><ele>450.0</ele><time>2026-04-12T08:23:45.999Z</time></trkpt><trkpt lat="44.354643797474836" lon="11.47979714143097"><ele>451.0</ele><time>2026-04-12T08:23:46.999Z</time></trkpt><trkpt lat="44.35464730262008" lon="11.47995435002106"><ele>452.0</ele><time>2026-04-12T08:23:47.999Z</time></trkpt><trkpt lat="44.35465110079934" lon="11.480071923743003"><ele>453.0</ele><time>2026-04-12T08:23:48.999Z</time></trkpt><trkpt lat="44.35465459091363" lon="11.480161344658967"><ele>454.0</ele><time>2026-04-12T08:23:49.999Z</time></trkpt><trkpt lat="44.35466003004772" lon="11.480267661821083"><ele>455.0</ele><time>2026-04-12T08:23:50.999Z</time></trkpt><trkpt lat="44.35466677417656" lon="11.480360927935912"><ele>456.0</ele><time>2026-04-12T08:23:51.999Z</time></trkpt><trkpt lat="44.3546909112926" lon="11.480496175979567"><ele>457.8333333333333</ele><time>2026-04-12T08:23:53.999Z</time></trkpt><trkpt lat="44.35471614890076" lon="11.480577133369424"><ele>459.66666666666663</ele><time>2026-04-12T08:23:56.999Z</time></trkpt><trkpt lat="44.35474352646129" lon="11.48066872836072"><ele>461.5</ele><time>2026-04-12T08:24:15.999Z</time></trkpt><trkpt lat="44.35478525797718" lon="11.480823195095837"><ele>463.3333333333333</ele><time>2026-04-12T08:24:17.999Z</time></trkpt><trkpt lat="44.35480763844289" lon="11.480964983646114"><ele>465.16666666666663</ele><time>2026-04-12T08:24:19.999Z</time></trkpt><trkpt lat="44.35482655822805" lon="11.481081786512538"><ele>467.0</ele><time>2026-04-12T08:24:21.999Z</time></trkpt><trkpt lat="44.35484841672282" lon="11.481228261112348"><ele>469.20000000000005</ele><time>2026-04-12T08:24:23.999Z</time></trkpt><trkpt lat="44.35486952472391" lon="11.481363793273303"><ele>471.40000000000003</ele><time>2026-04-12T08:24:24.999Z</time></trkpt><trkpt lat="44.35489654831736" lon="11.481523678938741"><ele>473.59999999999997</ele><time>2026-04-12T08:24:25.999Z</time></trkpt><trkpt lat="44.35491783424363" lon="11.48163409032919"><ele>475.79999999999995</ele><time>2026-04-12T08:24:26.999Z</time></trkpt><trkpt lat="44.35493620737378" lon="11.481729887619252"><ele>478.0</ele><time>2026-04-12T08:24:27.999Z</time></trkpt><trkpt lat="44.35496463790558" lon="11.48185885480696"><ele>478.00000000000006</ele><time>2026-04-12T08:24:28.999Z</time></trkpt><trkpt lat="44.35500730464917" lon="11.482021509969762"><ele>478.0</ele><time>2026-04-12T08:24:29.999Z</time></trkpt><trkpt lat="44.355045525667315" lon="11.482130202140779"><ele>478.0</ele><time>2026-04-12T08:24:30.999Z</time></trkpt><trkpt lat="44.35506727259662" lon="11.482217968740473"><ele>478.0</ele><time>2026-04-12T08:24:31.999Z</time></trkpt><trkpt lat="44.3550897050154" lon="11.48234390903358"><ele>478.00000000000006</ele><time>2026-04-12T08:24:33.999Z</time></trkpt><trkpt lat="44.35510719501558" lon="11.48242930308022"><ele>478.0</ele><time>2026-04-12T08:24:34.999Z</time></trkpt><trkpt lat="44.35513077138531" lon="11.482534604609352"><ele>481.33333333333337</ele><time>2026-04-12T08:24:35.999Z</time></trkpt><trkpt lat="44.355150011822325" lon="11.482621591500878"><ele>484.6666666666667</ele><time>2026-04-12T08:24:36.999Z</time></trkpt><trkpt lat="44.35516565406378" lon="11.482741951225929"><ele>488.0</ele><time>2026-04-12T08:24:38.998Z</time></trkpt><trkpt lat="44.35519514715385" lon="11.482903172265374"><ele>491.33333333333337</ele><time>2026-04-12T08:24:40.998Z</time></trkpt><trkpt lat="44.35524156684221" lon="11.483020285253664"><ele>494.6666666666667</ele><time>2026-04-12T08:24:42.998Z</time></trkpt><trkpt lat="44.35529277840056" lon="11.483094213835598"><ele>498.0</ele><time>2026-04-12T08:24:43.998Z</time></trkpt><trkpt lat="44.355354449187246" lon="11.483176364613595"><ele>495.5</ele><time>2026-04-12T08:24:44.998Z</time></trkpt><trkpt lat="44.35540119216773" lon="11.48324510486851"><ele>493.0</ele><time>2026-04-12T08:24:45.998Z</time></trkpt><trkpt lat="44.35545234878924" lon="11.483316645860258"><ele>490.5</ele><time>2026-04-12T08:24:46.998Z</time></trkpt><trkpt lat="44.35549799401305" lon="11.483386350237923"><ele>488.0</ele><time>2026-04-12T08:24:47.998Z</time></trkpt><trkpt lat="44.35554586237943" lon="11.483458268389999"><ele>485.5</ele><time>2026-04-12T08:24:48.998Z</time></trkpt><trkpt lat="44.355598228339964" lon="11.483588803239703"><ele>483.0</ele><time>2026-04-12T08:24:50.998Z</time></trkpt><trkpt lat="44.35564179919354" lon="11.483705782349952"><ele>484.8333333333333</ele><time>2026-04-12T08:24:52.998Z</time></trkpt><trkpt lat="44.35566728118231" lon="11.48382006839974"><ele>486.66666666666663</ele><time>2026-04-12T08:24:54.998Z</time></trkpt><trkpt lat="44.35568252938595" lon="11.483930630659046"><ele>488.5</ele><time>2026-04-12T08:24:56.998Z</time></trkpt><trkpt lat="44.35568894671048" lon="11.484063901460855"><ele>490.3333333333333</ele><time>2026-04-12T08:24:58.998Z</time></trkpt><trkpt lat="44.355676761181535" lon="11.484185899455744"><ele>492.16666666666663</ele><time>2026-04-12T08:25:00.998Z</time></trkpt><trkpt lat="44.3556484543733" lon="11.48429600274199"><ele>494.0</ele><time>2026-04-12T08:25:02.998Z</time></trkpt><trkpt lat="44.35561238977844" lon="11.484384617876506"><ele>493.99999999999994</ele><time>2026-04-12T08:25:04.998Z</time></trkpt><trkpt lat="44.35557625949017" lon="11.48447304402319"><ele>494.0</ele><time>2026-04-12T08:25:06.998Z</time></trkpt><trkpt lat="44.355530153338165" lon="11.484549980379043"><ele>494.0</ele><time>2026-04-12T08:25:08.998Z</time></trkpt><trkpt lat="44.35548164042331" lon="11.48462901389612"><ele>494.0</ele><time>2026-04-12T08:25:10.998Z</time></trkpt><trkpt lat="44.35544768769624" lon="11.484707847408272"><ele>493.99999999999994</ele><time>2026-04-12T08:25:12.998Z</time></trkpt><trkpt lat="44.35544376224589" lon="11.484825821073015"><ele>494.0</ele><time>2026-04-12T08:25:14.998Z</time></trkpt><trkpt lat="44.35547923523803" lon="11.484949982125018"><ele>494.79999999999995</ele><time>2026-04-12T08:25:16.998Z</time></trkpt><trkpt lat="44.35553015353003" lon="11.485066699531577"><ele>495.59999999999997</ele><time>2026-04-12T08:25:18.998Z</time></trkpt><trkpt lat="44.3555581360474" lon="11.485221294147246"><ele>496.4</ele><time>2026-04-12T08:25:20.998Z</time></trkpt><trkpt lat="44.35554128079841" lon="11.485408974710966"><ele>497.2</ele><time>2026-04-12T08:25:22.998Z</time></trkpt><trkpt lat="44.355524204675405" lon="11.485521654779594"><ele>498.0</ele><time>2026-04-12T08:25:23.998Z</time></trkpt><trkpt lat="44.35551652878479" lon="11.485642667574341"><ele>500.3333333333333</ele><time>2026-04-12T08:25:24.998Z</time></trkpt><trkpt lat="44.355491690530144" lon="11.485757672318009"><ele>502.66666666666663</ele><time>2026-04-12T08:25:25.998Z</time></trkpt><trkpt lat="44.355461134065756" lon="11.485844316881627"><ele>505.0</ele><time>2026-04-12T08:25:27Z</time></trkpt><trkpt lat="44.355464966027256" lon="11.485960371189355"><ele>507.3333333333333</ele><time>2026-04-12T08:25:29Z</time></trkpt><trkpt lat="44.3554912071899" lon="11.486076394241506"><ele>509.66666666666663</ele><time>2026-04-12T08:25:31Z</time></trkpt><trkpt lat="44.35556078430938" lon="11.486146736890916"><ele>512.0</ele><time>2026-04-12T08:25:33Z</time></trkpt><trkpt lat="44.35564305006897" lon="11.486179007035995"><ele>511.99999999999994</ele><time>2026-04-12T08:25:35Z</time></trkpt><trkpt lat="44.35555289324246" lon="11.486257221281447"><ele>512.0</ele><time>2026-04-12T08:25:44Z</time></trkpt><trkpt lat="44.355476274988405" lon="11.48623045501269"><ele>512.0</ele><time>2026-04-12T08:25:45Z</time></trkpt><trkpt lat="44.3554126296595" lon="11.48616829496276"><ele>512.0</ele><time>2026-04-12T08:25:46Z</time></trkpt><trkpt lat="44.355349444445274" lon="11.486109533958738"><ele>511.99999999999994</ele><time>2026-04-12T08:25:46.999Z</time></trkpt><trkpt lat="44.355300733570886" lon="11.486038628534194"><ele>512.0</ele><time>2026-04-12T08:25:47.999Z</time></trkpt><trkpt lat="44.3552238668121" lon="11.485914384761722"><ele>514.8333333333333</ele><time>2026-04-12T08:25:49.999Z</time></trkpt><trkpt lat="44.35517438278873" lon="11.485843261378172"><ele>517.6666666666666</ele><time>2026-04-12T08:25:50.999Z</time></trkpt><trkpt lat="44.35512167559632" lon="11.48576595524682"><ele>520.5</ele><time>2026-04-12T08:25:51.999Z</time></trkpt><trkpt lat="44.355067719153304" lon="11.485690814790487"><ele>523.3333333333334</ele><time>2026-04-12T08:25:52.999Z</time></trkpt><trkpt lat="44.35501030208482" lon="11.485612034459082"><ele>526.1666666666667</ele><time>2026-04-12T08:25:53.999Z</time></trkpt><trkpt lat="44.354941635160806" lon="11.485538726882163"><ele>529.0</ele><time>2026-04-12T08:25:54.999Z</time></trkpt><trkpt lat="44.354860809788704" lon="11.485470160770111"><ele>527.6</ele><time>2026-04-12T08:25:55.999Z</time></trkpt><trkpt lat="44.35476982769281" lon="11.485400550090283"><ele>526.2</ele><time>2026-04-12T08:25:56.999Z</time></trkpt><trkpt lat="44.35470168279386" lon="11.485300768252515"><ele>524.8000000000001</ele><time>2026-04-12T08:25:57.999Z</time></trkpt><trkpt lat="44.35463879460468" lon="11.485222168167505"><ele>523.4</ele><time>2026-04-12T08:25:58.999Z</time></trkpt><trkpt lat="44.35458193501238" lon="11.485133331713874"><ele>522.0</ele><time>2026-04-12T08:25:59.999Z</time></trkpt><trkpt lat="44.35451095230976" lon="11.485043166333412"><ele>524.5</ele><time>2026-04-12T08:26:00.999Z</time></trkpt><trkpt lat="44.354457679684224" lon="11.484939296781546"><ele>527.0</ele><time>2026-04-12T08:26:01.999Z</time></trkpt><trkpt lat="44.35440156722225" lon="11.484842137975992"><ele>529.5</ele><time>2026-04-12T08:26:02.999Z</time></trkpt><trkpt lat="44.354350569172546" lon="11.48474381594335"><ele>532.0</ele><time>2026-04-12T08:26:03.999Z</time></trkpt><trkpt lat="44.35429190880615" lon="11.484655486121005"><ele>534.5</ele><time>2026-04-12T08:26:04.999Z</time></trkpt><trkpt lat="44.35423259525763" lon="11.48456854843525"><ele>537.0</ele><time>2026-04-12T08:26:05.999Z</time></trkpt><trkpt lat="44.35416900601805" lon="11.484489376096507"><ele>537.0</ele><time>2026-04-12T08:26:06.999Z</time></trkpt><trkpt lat="44.35409828447498" lon="11.484432423852448"><ele>537.0</ele><time>2026-04-12T08:26:07.999Z</time></trkpt><trkpt lat="44.3540299769134" lon="11.48438934557869"><ele>537.0</ele><time>2026-04-12T08:26:08.999Z</time></trkpt><trkpt lat="44.35395301186578" lon="11.484319672307242"><ele>537.0</ele><time>2026-04-12T08:26:10.999Z</time></trkpt><trkpt lat="44.35386788320808" lon="11.484262241666306"><ele>537.0</ele><time>2026-04-12T08:26:12.999Z</time></trkpt><trkpt lat="44.353758234974805" lon="11.484188787558072"><ele>537.0</ele><time>2026-04-12T08:26:14.999Z</time></trkpt><trkpt lat="44.35369869155855" lon="11.484153105825248"><ele>537.0</ele><time>2026-04-12T08:26:15.999Z</time></trkpt><trkpt lat="44.35362912770087" lon="11.484139422291209"><ele>537.0</ele><time>2026-04-12T08:26:16.999Z</time></trkpt><trkpt lat="44.353561981386356" lon="11.484084627898156"><ele>537.0</ele><time>2026-04-12T08:26:17.999Z</time></trkpt><trkpt lat="44.35348253887978" lon="11.484052735976313"><ele>537.0</ele><time>2026-04-12T08:26:18.999Z</time></trkpt><trkpt lat="44.3534033362682" lon="11.484022951170724"><ele>537.0</ele><time>2026-04-12T08:26:19.999Z</time></trkpt><trkpt lat="44.35332699116248" lon="11.484002322480235"><ele>537.0</ele><time>2026-04-12T08:26:20.999Z</time></trkpt><trkpt lat="44.35325250616743" lon="11.483991703710048"><ele>537.0</ele><time>2026-04-12T08:26:21.999Z</time></trkpt><trkpt lat="44.35317714011022" lon="11.484006898762358"><ele>537.0</ele><time>2026-04-12T08:26:22.999Z</time></trkpt><trkpt lat="44.35310317008823" lon="11.484047723102524"><ele>537.0</ele><time>2026-04-12T08:26:23.999Z</time></trkpt><trkpt lat="44.35303055920357" lon="11.484097032010634"><ele>537.0</ele><time>2026-04-12T08:26:24.999Z</time></trkpt><trkpt lat="44.352956414688464" lon="11.484152640410157"><ele>537.0</ele><time>2026-04-12T08:26:25.999Z</time></trkpt><trkpt lat="44.3528827290797" lon="11.48421094391145"><ele>535.5</ele><time>2026-04-12T08:26:26.999Z</time></trkpt><trkpt lat="44.35281165243508" lon="11.484275162320126"><ele>534.0</ele><time>2026-04-12T08:26:27.999Z</time></trkpt><trkpt lat="44.352744400756755" lon="11.48433851815244"><ele>532.5</ele><time>2026-04-12T08:26:28.999Z</time></trkpt><trkpt lat="44.35267456081993" lon="11.484402305677955"><ele>531.0</ele><time>2026-04-12T08:26:29.999Z</time></trkpt><trkpt lat="44.35260243669178" lon="11.484461331685015"><ele>529.5</ele><time>2026-04-12T08:26:30.999Z</time></trkpt><trkpt lat="44.35253073375374" lon="11.484527803286808"><ele>528.0</ele><time>2026-04-12T08:26:31.999Z</time></trkpt><trkpt lat="44.352444442144765" lon="11.484563521356785"><ele>528.0</ele><time>2026-04-12T08:26:32.999Z</time></trkpt><trkpt lat="44.3523561468897" lon="11.484593077502543"><ele>528.0</ele><time>2026-04-12T08:26:33.999Z</time></trkpt><trkpt lat="44.352271171432065" lon="11.484617640106018"><ele>528.0</ele><time>2026-04-12T08:26:34.999Z</time></trkpt><trkpt lat="44.35219230740368" lon="11.484639095398352"><ele>528.0</ele><time>2026-04-12T08:26:35.999Z</time></trkpt><trkpt lat="44.35212017101173" lon="11.484634408712031"><ele>528.0</ele><time>2026-04-12T08:26:36.999Z</time></trkpt><trkpt lat="44.35205343844627" lon="11.484647873621403"><ele>528.0</ele><time>2026-04-12T08:26:37.999Z</time></trkpt><trkpt lat="44.35193953165926" lon="11.484680247739279"><ele>532.0</ele><time>2026-04-12T08:26:39.998Z</time></trkpt><trkpt lat="44.35184767837646" lon="11.484602940047562"><ele>536.0</ele><time>2026-04-12T08:26:41.998Z</time></trkpt><trkpt lat="44.35183442891626" lon="11.484515916269057"><ele>540.0</ele><time>2026-04-12T08:26:42.998Z</time></trkpt><trkpt lat="44.35181311932868" lon="11.484354368918382"><ele>544.0</ele><time>2026-04-12T08:26:44.998Z</time></trkpt><trkpt lat="44.35180194741339" lon="11.48417443429742"><ele>548.0</ele><time>2026-04-12T08:26:46.998Z</time></trkpt><trkpt lat="44.35180439655727" lon="11.484076482819724"><ele>548.0</ele><time>2026-04-12T08:26:47.998Z</time></trkpt><trkpt lat="44.351815221895116" lon="11.483969511266038"><ele>548.0</ele><time>2026-04-12T08:26:48.998Z</time></trkpt><trkpt lat="44.351828821783464" lon="11.483870013938766"><ele>548.0</ele><time>2026-04-12T08:26:49.998Z</time></trkpt><trkpt lat="44.35184597737897" lon="11.483755973514572"><ele>548.0</ele><time>2026-04-12T08:26:50.998Z</time></trkpt><trkpt lat="44.35186269917258" lon="11.483647045606771"><ele>548.0</ele><time>2026-04-12T08:26:51.998Z</time></trkpt><trkpt lat="44.35187967719359" lon="11.483539481270594"><ele>548.0</ele><time>2026-04-12T08:26:52.998Z</time></trkpt><trkpt lat="44.35189821542916" lon="11.483435721099363"><ele>548.3333333333333</ele><time>2026-04-12T08:26:53.998Z</time></trkpt><trkpt lat="44.35191755852339" lon="11.483334637669815"><ele>548.6666666666666</ele><time>2026-04-12T08:26:54.998Z</time></trkpt><trkpt lat="44.35191851698865" lon="11.483234982802955"><ele>549.0</ele><time>2026-04-12T08:26:55.998Z</time></trkpt><trkpt lat="44.35195184467513" lon="11.48313629310166"><ele>549.3333333333334</ele><time>2026-04-12T08:26:56.998Z</time></trkpt><trkpt lat="44.35195469090598" lon="11.483023129593585"><ele>549.6666666666667</ele><time>2026-04-12T08:26:57.998Z</time></trkpt><trkpt lat="44.35197736107092" lon="11.482909792414537"><ele>550.0</ele><time>2026-04-12T08:26:58.998Z</time></trkpt><trkpt lat="44.35199153863407" lon="11.482785894425565"><ele>549.0</ele><time>2026-04-12T08:26:59.998Z</time></trkpt><trkpt lat="44.352018666606284" lon="11.48266386161162"><ele>548.0</ele><time>2026-04-12T08:27:00.998Z</time></trkpt><trkpt lat="44.35201926510483" lon="11.482538379635976"><ele>547.0</ele><time>2026-04-12T08:27:01.998Z</time></trkpt><trkpt lat="44.35204987673592" lon="11.48242899163482"><ele>546.0</ele><time>2026-04-12T08:27:02.998Z</time></trkpt><trkpt lat="44.35206475887989" lon="11.48231627494017"><ele>545.0</ele><time>2026-04-12T08:27:03.998Z</time></trkpt><trkpt lat="44.35207167422556" lon="11.48222029366036"><ele>544.0</ele><time>2026-04-12T08:27:04.998Z</time></trkpt><trkpt lat="44.35207432322744" lon="11.482117410800603"><ele>540.1666666666667</ele><time>2026-04-12T08:27:05.998Z</time></trkpt><trkpt lat="44.35205460171127" lon="11.482014045634283"><ele>536.3333333333334</ele><time>2026-04-12T08:27:06.998Z</time></trkpt><trkpt lat="44.35204892517334" lon="11.481915829399634"><ele>532.5</ele><time>2026-04-12T08:27:07.998Z</time></trkpt><trkpt lat="44.35203584313441" lon="11.481816715128764"><ele>528.6666666666666</ele><time>2026-04-12T08:27:08.998Z</time></trkpt><trkpt lat="44.3520152364682" lon="11.481724958903422"><ele>524.8333333333333</ele><time>2026-04-12T08:27:09.998Z</time></trkpt><trkpt lat="44.351986550405336" lon="11.48164627859591"><ele>521.0</ele><time>2026-04-12T08:27:10.998Z</time></trkpt><trkpt lat="44.35190136916225" lon="11.481529281689877"><ele>521.0</ele><time>2026-04-12T08:27:12.998Z</time></trkpt><trkpt lat="44.35184245075568" lon="11.481497484166338"><ele>521.0</ele><time>2026-04-12T08:27:13.998Z</time></trkpt><trkpt lat="44.35178368402033" lon="11.481452885793953"><ele>521.0</ele><time>2026-04-12T08:27:14.998Z</time></trkpt><trkpt lat="44.35171699711553" lon="11.481439138946909"><ele>521.0</ele><time>2026-04-12T08:27:15.998Z</time></trkpt><trkpt lat="44.351639477600585" lon="11.48144538832519"><ele>521.0</ele><time>2026-04-12T08:27:16.998Z</time></trkpt><trkpt lat="44.351559612229714" lon="11.481455674359282"><ele>521.0</ele><time>2026-04-12T08:27:17.998Z</time></trkpt><trkpt lat="44.35147553468816" lon="11.481468014956615"><ele>521.0</ele><time>2026-04-12T08:27:18.998Z</time></trkpt><trkpt lat="44.351390385554126" lon="11.481475207764618"><ele>520.2</ele><time>2026-04-12T08:27:19.998Z</time></trkpt><trkpt lat="44.35130130789164" lon="11.481467241534839"><ele>519.4000000000001</ele><time>2026-04-12T08:27:20.998Z</time></trkpt><trkpt lat="44.351203650941486" lon="11.481447345756237"><ele>518.6</ele><time>2026-04-12T08:27:21.998Z</time></trkpt><trkpt lat="44.3511113449423" lon="11.481437733074344"><ele>517.8000000000001</ele><time>2026-04-12T08:27:22.998Z</time></trkpt><trkpt lat="44.35102677482301" lon="11.481403042785422"><ele>517.0</ele><time>2026-04-12T08:27:23.998Z</time></trkpt><trkpt lat="44.350946487558645" lon="11.481372995043145"><ele>517.0</ele><time>2026-04-12T08:27:24.998Z</time></trkpt><trkpt lat="44.350863065977215" lon="11.481354203770431"><ele>517.0</ele><time>2026-04-12T08:27:25.998Z</time></trkpt><trkpt lat="44.35077884485359" lon="11.481322661246956"><ele>517.0</ele><time>2026-04-12T08:27:26.998Z</time></trkpt><trkpt lat="44.350692241621964" lon="11.481325714556665"><ele>517.0</ele><time>2026-04-12T08:27:27.998Z</time></trkpt><trkpt lat="44.350590159837175" lon="11.481342498604322"><ele>517.0</ele><time>2026-04-12T08:27:28.998Z</time></trkpt><trkpt lat="44.350463655245754" lon="11.48133430092585"><ele>514.0</ele><time>2026-04-12T08:27:29.998Z</time></trkpt><trkpt lat="44.350360453088854" lon="11.481355794194164"><ele>511.0</ele><time>2026-04-12T08:27:31.998Z</time></trkpt><trkpt lat="44.350279047295565" lon="11.48136807300367"><ele>508.0</ele><time>2026-04-12T08:27:33Z</time></trkpt><trkpt lat="44.35020836559238" lon="11.481362673766885"><ele>505.0</ele><time>2026-04-12T08:27:34Z</time></trkpt><trkpt lat="44.350142280287976" lon="11.481375695792797"><ele>502.00000000000006</ele><time>2026-04-12T08:27:35Z</time></trkpt><trkpt lat="44.35007327311944" lon="11.481408688658917"><ele>499.0</ele><time>2026-04-12T08:27:36Z</time></trkpt><trkpt lat="44.35000404811651" lon="11.481458660231096"><ele>499.00000000000006</ele><time>2026-04-12T08:27:37Z</time></trkpt><trkpt lat="44.349936489187165" lon="11.481518115259096"><ele>499.0</ele><time>2026-04-12T08:27:38Z</time></trkpt><trkpt lat="44.34987190433798" lon="11.481585515967248"><ele>499.0</ele><time>2026-04-12T08:27:39Z</time></trkpt><trkpt lat="44.34981499243713" lon="11.48165658725531"><ele>499.0</ele><time>2026-04-12T08:27:40Z</time></trkpt><trkpt lat="44.349761398558925" lon="11.481740017451687"><ele>499.00000000000006</ele><time>2026-04-12T08:27:41Z</time></trkpt><trkpt lat="44.349719939428994" lon="11.48183181470521"><ele>499.0</ele><time>2026-04-12T08:27:42Z</time></trkpt><trkpt lat="44.34969483321178" lon="11.481926521827608"><ele>501.4</ele><time>2026-04-12T08:27:43Z</time></trkpt><trkpt lat="44.34968894993676" lon="11.482040425950013"><ele>503.79999999999995</ele><time>2026-04-12T08:27:44Z</time></trkpt><trkpt lat="44.34969481822673" lon="11.482190322647643"><ele>506.20000000000005</ele><time>2026-04-12T08:27:45Z</time></trkpt><trkpt lat="44.349708514665316" lon="11.482365518259956"><ele>508.6</ele><time>2026-04-12T08:27:46Z</time></trkpt><trkpt lat="44.34971634675724" lon="11.482520632814571"><ele>511.0</ele><time>2026-04-12T08:27:47Z</time></trkpt><trkpt lat="44.349687245410216" lon="11.482638094377283"><ele>506.75</ele><time>2026-04-12T08:27:48Z</time></trkpt><trkpt lat="44.34964683443439" lon="11.482737813842055"><ele>502.5</ele><time>2026-04-12T08:27:49Z</time></trkpt><trkpt lat="44.34956998667394" lon="11.482900418216426"><ele>498.25</ele><time>2026-04-12T08:27:50Z</time></trkpt><trkpt lat="44.349511041007325" lon="11.483048559029475"><ele>494.0</ele><time>2026-04-12T08:27:50.999Z</time></trkpt><trkpt lat="44.34945229057564" lon="11.483186683639982"><ele>494.0</ele><time>2026-04-12T08:27:51.999Z</time></trkpt><trkpt lat="44.349391418585924" lon="11.483313505424679"><ele>494.0</ele><time>2026-04-12T08:27:52.999Z</time></trkpt><trkpt lat="44.34932457028791" lon="11.483426245618364"><ele>494.0</ele><time>2026-04-12T08:27:53.999Z</time></trkpt><trkpt lat="44.34926380792278" lon="11.48353714912698"><ele>494.0</ele><time>2026-04-12T08:27:54.999Z</time></trkpt><trkpt lat="44.34916856519127" lon="11.483583491106831"><ele>494.0</ele><time>2026-04-12T08:27:55.999Z</time></trkpt><trkpt lat="44.349077661345696" lon="11.48360174950973"><ele>494.0</ele><time>2026-04-12T08:27:56.999Z</time></trkpt><trkpt lat="44.348987140296344" lon="11.483634763315337"><ele>494.0</ele><time>2026-04-12T08:27:57.999Z</time></trkpt><trkpt lat="44.348902046720035" lon="11.483594534510562"><ele>494.0</ele><time>2026-04-12T08:27:58.999Z</time></trkpt><trkpt lat="44.3488139730224" lon="11.483565009063662"><ele>494.0</ele><time>2026-04-12T08:27:59.999Z</time></trkpt><trkpt lat="44.34871891261822" lon="11.4835612454568"><ele>494.0</ele><time>2026-04-12T08:28:00.999Z</time></trkpt><trkpt lat="44.34863357662577" lon="11.483530605824791"><ele>489.79999999999995</ele><time>2026-04-12T08:28:01.999Z</time></trkpt><trkpt lat="44.34855341784653" lon="11.483509921693152"><ele>485.59999999999997</ele><time>2026-04-12T08:28:02.999Z</time></trkpt><trkpt lat="44.348454297676824" lon="11.4834551571581"><ele>481.4</ele><time>2026-04-12T08:28:04.999Z</time></trkpt><trkpt lat="44.348447626533364" lon="11.483312440134537"><ele>477.2</ele><time>2026-04-12T08:28:06.999Z</time></trkpt><trkpt lat="44.34854457940137" lon="11.48325009582265"><ele>473.0</ele><time>2026-04-12T08:28:08.999Z</time></trkpt><trkpt lat="44.34860404509048" lon="11.483197401271298"><ele>473.0</ele><time>2026-04-12T08:28:09.999Z</time></trkpt><trkpt lat="44.348699188588725" lon="11.483149434074932"><ele>472.99999999999994</ele><time>2026-04-12T08:28:10.999Z</time></trkpt><trkpt lat="44.34879346893935" lon="11.483091916396184"><ele>472.99999999999994</ele><time>2026-04-12T08:28:11.999Z</time></trkpt><trkpt lat="44.34887725625024" lon="11.48304146482582"><ele>473.0</ele><time>2026-04-12T08:28:12.999Z</time></trkpt><trkpt lat="44.34895748831587" lon="11.48299227214535"><ele>473.0</ele><time>2026-04-12T08:28:13.999Z</time></trkpt><trkpt lat="44.349033552526244" lon="11.482942682121738"><ele>474.59999999999997</ele><time>2026-04-12T08:28:14.999Z</time></trkpt><trkpt lat="44.34909717065021" lon="11.482894371442791"><ele>476.19999999999993</ele><time>2026-04-12T08:28:15.999Z</time></trkpt><trkpt lat="44.34916677010854" lon="11.482778417378766"><ele>477.8</ele><time>2026-04-12T08:28:17.999Z</time></trkpt><trkpt lat="44.34915249435488" lon="11.482635608824946"><ele>479.4</ele><time>2026-04-12T08:28:19.999Z</time></trkpt><trkpt lat="44.34906805967049" lon="11.482492151661086"><ele>481.0</ele><time>2026-04-12T08:28:21.999Z</time></trkpt><trkpt lat="44.34900271317093" lon="11.482405630091153"><ele>481.00000000000006</ele><time>2026-04-12T08:28:22.999Z</time></trkpt><trkpt lat="44.34894352982348" lon="11.48232161420744"><ele>481.0</ele><time>2026-04-12T08:28:23.999Z</time></trkpt><trkpt lat="44.3488797929958" lon="11.482252456874042"><ele>481.0</ele><time>2026-04-12T08:28:24.999Z</time></trkpt><trkpt lat="44.348844971495076" lon="11.482149508372538"><ele>481.0</ele><time>2026-04-12T08:28:25.999Z</time></trkpt><trkpt lat="44.348787719414716" lon="11.482073091394247"><ele>481.00000000000006</ele><time>2026-04-12T08:28:26.999Z</time></trkpt><trkpt lat="44.34873921041076" lon="11.48199165437666"><ele>481.0</ele><time>2026-04-12T08:28:27.999Z</time></trkpt><trkpt lat="44.34869236237662" lon="11.481904964722437"><ele>477.42857142857133</ele><time>2026-04-12T08:28:28.999Z</time></trkpt><trkpt lat="44.348641107182175" lon="11.481822525040336"><ele>473.85714285714283</ele><time>2026-04-12T08:28:29.999Z</time></trkpt><trkpt lat="44.3485935560391" lon="11.481749099863903"><ele>470.2857142857142</ele><time>2026-04-12T08:28:30.999Z</time></trkpt><trkpt lat="44.34854738883067" lon="11.481670634163775"><ele>466.71428571428567</ele><time>2026-04-12T08:28:31.999Z</time></trkpt><trkpt lat="44.348499947460866" lon="11.481598761138615"><ele>463.1428571428571</ele><time>2026-04-12T08:28:32.999Z</time></trkpt><trkpt lat="44.34845018821534" lon="11.481528686981395"><ele>459.57142857142856</ele><time>2026-04-12T08:28:33.999Z</time></trkpt><trkpt lat="44.34840307091707" lon="11.481451254701621"><ele>456.0</ele><time>2026-04-12T08:28:34.999Z</time></trkpt><trkpt lat="44.34835817815415" lon="11.4813662714625"><ele>456.0</ele><time>2026-04-12T08:28:35.999Z</time></trkpt><trkpt lat="44.34832166446445" lon="11.481273388238053"><ele>456.0</ele><time>2026-04-12T08:28:36.999Z</time></trkpt><trkpt lat="44.34832595602407" lon="11.4811568834672"><ele>456.0</ele><time>2026-04-12T08:28:37.999Z</time></trkpt><trkpt lat="44.348338318408935" lon="11.481042533731939"><ele>456.0</ele><time>2026-04-12T08:28:38.999Z</time></trkpt><trkpt lat="44.34833787474945" lon="11.480925241903964"><ele>456.0</ele><time>2026-04-12T08:28:39.999Z</time></trkpt><trkpt lat="44.34835715850376" lon="11.480808613824063"><ele>456.0</ele><time>2026-04-12T08:28:40.999Z</time></trkpt><trkpt lat="44.34837242047115" lon="11.48069201148718"><ele>453.3333333333333</ele><time>2026-04-12T08:28:41.999Z</time></trkpt><trkpt lat="44.348384577729185" lon="11.480577602121706"><ele>450.66666666666663</ele><time>2026-04-12T08:28:42.999Z</time></trkpt><trkpt lat="44.34839494501601" lon="11.480460328878326"><ele>448.0</ele><time>2026-04-12T08:28:43.998Z</time></trkpt><trkpt lat="44.34840011982804" lon="11.48034278283377"><ele>445.3333333333333</ele><time>2026-04-12T08:28:44.998Z</time></trkpt><trkpt lat="44.348400667733515" lon="11.480221003809694"><ele>442.66666666666663</ele><time>2026-04-12T08:28:45.998Z</time></trkpt><trkpt lat="44.34840401431937" lon="11.480098557972212"><ele>440.0</ele><time>2026-04-12T08:28:46.998Z</time></trkpt><trkpt lat="44.34838985202828" lon="11.479979710192449"><ele>438.6</ele><time>2026-04-12T08:28:47.998Z</time></trkpt><trkpt lat="44.34838859184307" lon="11.479854618535379"><ele>437.2</ele><time>2026-04-12T08:28:48.998Z</time></trkpt><trkpt lat="44.34839098962901" lon="11.47973277737263"><ele>435.79999999999995</ele><time>2026-04-12T08:28:49.998Z</time></trkpt><trkpt lat="44.348411259056604" lon="11.47960544146744"><ele>434.4</ele><time>2026-04-12T08:28:50.998Z</time></trkpt><trkpt lat="44.34843214895659" lon="11.479480716264865"><ele>433.0</ele><time>2026-04-12T08:28:51.998Z</time></trkpt><trkpt lat="44.34845047907993" lon="11.479357446348734"><ele>431.6666666666667</ele><time>2026-04-12T08:28:52.998Z</time></trkpt><trkpt lat="44.34846451149963" lon="11.479237472202954"><ele>430.33333333333337</ele><time>2026-04-12T08:28:53.998Z</time></trkpt><trkpt lat="44.348474060907805" lon="11.47912063225156"><ele>429.0</ele><time>2026-04-12T08:28:54.998Z</time></trkpt><trkpt lat="44.34848337853247" lon="11.47901521102616"><ele>427.66666666666663</ele><time>2026-04-12T08:28:55.998Z</time></trkpt><trkpt lat="44.3484911867877" lon="11.478917204829326"><ele>426.3333333333333</ele><time>2026-04-12T08:28:56.998Z</time></trkpt><trkpt lat="44.3484960165059" lon="11.478823069862049"><ele>425.0</ele><time>2026-04-12T08:28:57.998Z</time></trkpt><trkpt lat="44.34850683909181" lon="11.47873155587471"><ele>424.7142857142857</ele><time>2026-04-12T08:28:58.998Z</time></trkpt><trkpt lat="44.348517813977494" lon="11.478641605365754"><ele>424.42857142857144</ele><time>2026-04-12T08:28:59.998Z</time></trkpt><trkpt lat="44.34853222656802" lon="11.478548772591447"><ele>424.1428571428571</ele><time>2026-04-12T08:29:00.998Z</time></trkpt><trkpt lat="44.34855530326714" lon="11.478454533034258"><ele>423.8571428571429</ele><time>2026-04-12T08:29:01.998Z</time></trkpt><trkpt lat="44.34857765231713" lon="11.478371560686849"><ele>423.5714285714286</ele><time>2026-04-12T08:29:02.998Z</time></trkpt><trkpt lat="44.34860264089174" lon="11.47828524138223"><ele>423.2857142857143</ele><time>2026-04-12T08:29:03.998Z</time></trkpt><trkpt lat="44.348650461229546" lon="11.478156464358069"><ele>423.0</ele><time>2026-04-12T08:29:05.998Z</time></trkpt><trkpt lat="44.348695070503126" lon="11.478093587325505"><ele>423.0</ele><time>2026-04-12T08:29:08.998Z</time></trkpt><trkpt lat="44.34859083723531" lon="11.478008894043548"><ele>423.0</ele><time>2026-04-12T08:29:53.999Z</time></trkpt><trkpt lat="44.348519250712314" lon="11.477987681620435"><ele>423.0</ele><time>2026-04-12T08:29:56.999Z</time></trkpt><trkpt lat="44.34845601439521" lon="11.477969799235815"><ele>423.0</ele><time>2026-04-12T08:29:58.999Z</time></trkpt><trkpt lat="44.34836588595083" lon="11.477963297252844"><ele>423.0</ele><time>2026-04-12T08:30:01.999Z</time></trkpt><trkpt lat="44.34827572050174" lon="11.477932759323032"><ele>423.0</ele><time>2026-04-12T08:30:04.999Z</time></trkpt><trkpt lat="44.34818796100893" lon="11.477910683559411"><ele>422.0</ele><time>2026-04-12T08:30:07.999Z</time></trkpt><trkpt lat="44.3481072873444" lon="11.477878546999502"><ele>421.0</ele><time>2026-04-12T08:30:10.999Z</time></trkpt><trkpt lat="44.34802604890926" lon="11.477831818835709"><ele>420.0</ele><time>2026-04-12T08:30:13.999Z</time></trkpt><trkpt lat="44.34797320163962" lon="11.477758793508254"><ele>419.0</ele><time>2026-04-12T08:30:16.999Z</time></trkpt><trkpt lat="44.347935336185486" lon="11.477633565497936"><ele>418.0</ele><time>2026-04-12T08:30:19.999Z</time></trkpt><trkpt lat="44.347912583534765" lon="11.477550412801955"><ele>417.0</ele><time>2026-04-12T08:30:21.999Z</time></trkpt><trkpt lat="44.34786897335348" lon="11.47745061342744"><ele>415.6666666666667</ele><time>2026-04-12T08:30:23.999Z</time></trkpt><trkpt lat="44.34778691711412" lon="11.477412204202832"><ele>414.33333333333337</ele><time>2026-04-12T08:30:25.999Z</time></trkpt><trkpt lat="44.3477296189295" lon="11.477465890885915"><ele>413.0</ele><time>2026-04-12T08:30:26.999Z</time></trkpt><trkpt lat="44.34769039592557" lon="11.47757978592549"><ele>411.6666666666667</ele><time>2026-04-12T08:30:28.999Z</time></trkpt><trkpt lat="44.34770909435941" lon="11.477683322671803"><ele>410.33333333333337</ele><time>2026-04-12T08:30:30.999Z</time></trkpt><trkpt lat="44.34773229029714" lon="11.477774273403124"><ele>409.0</ele><time>2026-04-12T08:30:32.999Z</time></trkpt><trkpt lat="44.34775938318435" lon="11.477865374420421"><ele>408.1428571428571</ele><time>2026-04-12T08:30:34.999Z</time></trkpt><trkpt lat="44.34779315667715" lon="11.477953819866626"><ele>407.28571428571433</ele><time>2026-04-12T08:30:36.999Z</time></trkpt><trkpt lat="44.34782401612703" lon="11.478041922624499"><ele>406.42857142857144</ele><time>2026-04-12T08:30:38.999Z</time></trkpt><trkpt lat="44.34784084462951" lon="11.478137692631835"><ele>405.57142857142856</ele><time>2026-04-12T08:30:40.999Z</time></trkpt><trkpt lat="44.34786180688466" lon="11.478260379865446"><ele>404.71428571428567</ele><time>2026-04-12T08:30:43.999Z</time></trkpt><trkpt lat="44.34786231878133" lon="11.478352475680241"><ele>403.8571428571429</ele><time>2026-04-12T08:30:45.999Z</time></trkpt><trkpt lat="44.34785170819358" lon="11.478448773672788"><ele>403.0</ele><time>2026-04-12T08:30:47.998Z</time></trkpt><trkpt lat="44.347829769355734" lon="11.478534114745486"><ele>403.00000000000006</ele><time>2026-04-12T08:30:49.998Z</time></trkpt><trkpt lat="44.34778592714189" lon="11.47865682634492"><ele>403.0</ele><time>2026-04-12T08:30:52.998Z</time></trkpt><trkpt lat="44.34772605743702" lon="11.478752342790333"><ele>403.0</ele><time>2026-04-12T08:30:55.998Z</time></trkpt><trkpt lat="44.34767262186246" lon="11.478819043468466"><ele>403.0</ele><time>2026-04-12T08:30:57.998Z</time></trkpt><trkpt lat="44.34762150759504" lon="11.478903349897363"><ele>403.00000000000006</ele><time>2026-04-12T08:30:59.998Z</time></trkpt><trkpt lat="44.34755550183653" lon="11.478963175663031"><ele>403.0</ele><time>2026-04-12T08:31:01.998Z</time></trkpt><trkpt lat="44.34750163702594" lon="11.479027570330949"><ele>402.83333333333337</ele><time>2026-04-12T08:31:03.998Z</time></trkpt><trkpt lat="44.34743962603275" lon="11.47910112804767"><ele>402.6666666666667</ele><time>2026-04-12T08:31:05.998Z</time></trkpt><trkpt lat="44.347384148513754" lon="11.479171093568448"><ele>402.5</ele><time>2026-04-12T08:31:07.998Z</time></trkpt><trkpt lat="44.347324494999924" lon="11.479268545664407"><ele>402.33333333333337</ele><time>2026-04-12T08:31:10.998Z</time></trkpt><trkpt lat="44.34728906710835" lon="11.479341408487414"><ele>402.1666666666667</ele><time>2026-04-12T08:31:12.998Z</time></trkpt><trkpt lat="44.347255206947416" lon="11.479415968984659"><ele>402.0</ele><time>2026-04-12T08:31:14.998Z</time></trkpt><trkpt lat="44.34722860257443" lon="11.479530855230458"><ele>399.40000000000003</ele><time>2026-04-12T08:31:16.998Z</time></trkpt><trkpt lat="44.34717229688827" lon="11.479670656286585"><ele>396.8</ele><time>2026-04-12T08:31:18.998Z</time></trkpt><trkpt lat="44.34712265905544" lon="11.479788848873582"><ele>394.2</ele><time>2026-04-12T08:31:20.998Z</time></trkpt><trkpt lat="44.34707520452714" lon="11.47988652712226"><ele>391.6</ele><time>2026-04-12T08:31:22.998Z</time></trkpt><trkpt lat="44.347016746892336" lon="11.479990251871746"><ele>389.0</ele><time>2026-04-12T08:31:24.998Z</time></trkpt><trkpt lat="44.346955890350664" lon="11.480077821826278"><ele>388.99999999999994</ele><time>2026-04-12T08:31:26.998Z</time></trkpt><trkpt lat="44.34690303645179" lon="11.480134241429226"><ele>389.0</ele><time>2026-04-12T08:31:28.998Z</time></trkpt><trkpt lat="44.34683235322096" lon="11.480190691211845"><ele>389.0</ele><time>2026-04-12T08:31:31.998Z</time></trkpt><trkpt lat="44.34675804485118" lon="11.480220332878893"><ele>389.0</ele><time>2026-04-12T08:31:34.998Z</time></trkpt><trkpt lat="44.34666502350471" lon="11.480205770377092"><ele>388.99999999999994</ele><time>2026-04-12T08:31:37.998Z</time></trkpt><trkpt lat="44.346584482973014" lon="11.480163247153756"><ele>389.0</ele><time>2026-04-12T08:31:40.997Z</time></trkpt><trkpt lat="44.346516157335955" lon="11.480108029244505"><ele>389.0</ele><time>2026-04-12T08:31:43.999Z</time></trkpt><trkpt lat="44.346433658404365" lon="11.48003265871338"><ele>389.0</ele><time>2026-04-12T08:31:45.999Z</time></trkpt><trkpt lat="44.346340923401854" lon="11.47995640815932"><ele>389.0</ele><time>2026-04-12T08:31:47.999Z</time></trkpt><trkpt lat="44.346243958161764" lon="11.479883385160901"><ele>389.0</ele><time>2026-04-12T08:31:49.999Z</time></trkpt><trkpt lat="44.34615290172279" lon="11.479842371792163"><ele>389.0</ele><time>2026-04-12T08:31:51.999Z</time></trkpt><trkpt lat="44.34605554786666" lon="11.479796078559666"><ele>389.2</ele><time>2026-04-12T08:31:53.999Z</time></trkpt><trkpt lat="44.34595097938516" lon="11.479755194981378"><ele>389.4</ele><time>2026-04-12T08:31:55.999Z</time></trkpt><trkpt lat="44.34587147667022" lon="11.479755335672667"><ele>389.6</ele><time>2026-04-12T08:31:56.999Z</time></trkpt><trkpt lat="44.34577713657171" lon="11.479772584512752"><ele>389.8</ele><time>2026-04-12T08:31:57.999Z</time></trkpt><trkpt lat="44.345702870264624" lon="11.479788824007034"><ele>390.0</ele><time>2026-04-12T08:31:58.999Z</time></trkpt><trkpt lat="44.34559881072765" lon="11.479868752734118"><ele>386.1666666666667</ele><time>2026-04-12T08:32:00.999Z</time></trkpt><trkpt lat="44.3455377973675" lon="11.479963431897309"><ele>382.3333333333333</ele><time>2026-04-12T08:32:02.999Z</time></trkpt><trkpt lat="44.34550278437383" lon="11.480042188643504"><ele>378.5</ele><time>2026-04-12T08:32:04.999Z</time></trkpt><trkpt lat="44.345448020214825" lon="11.480123019082816"><ele>374.66666666666663</ele><time>2026-04-12T08:32:06.999Z</time></trkpt><trkpt lat="44.34541132760727" lon="11.480208685608071"><ele>370.8333333333333</ele><time>2026-04-12T08:32:08.999Z</time></trkpt><trkpt lat="44.34537316011374" lon="11.480299468577693"><ele>367.0</ele><time>2026-04-12T08:32:10.999Z</time></trkpt><trkpt lat="44.34532964132179" lon="11.48041263832804"><ele>367.3333333333333</ele><time>2026-04-12T08:32:13.999Z</time></trkpt><trkpt lat="44.34529924804356" lon="11.48052892652511"><ele>367.66666666666663</ele><time>2026-04-12T08:32:16.999Z</time></trkpt><trkpt lat="44.34524564964059" lon="11.480621467370371"><ele>368.0</ele><time>2026-04-12T08:32:19.999Z</time></trkpt><trkpt lat="44.34520578084073" lon="11.480696157108977"><ele>368.3333333333333</ele><time>2026-04-12T08:32:22.999Z</time></trkpt><trkpt lat="44.34517403819595" lon="11.480778957883066"><ele>368.6666666666667</ele><time>2026-04-12T08:32:25.999Z</time></trkpt><trkpt lat="44.3451181820143" lon="11.480882970696799"><ele>369.0</ele><time>2026-04-12T08:32:28.999Z</time></trkpt><trkpt lat="44.345084876633415" lon="11.480979868140341"><ele>369.0</ele><time>2026-04-12T08:32:30.999Z</time></trkpt><trkpt lat="44.34504692157254" lon="11.481055283727418"><ele>369.0</ele><time>2026-04-12T08:32:32.999Z</time></trkpt><trkpt lat="44.34500780507365" lon="11.481152755488399"><ele>369.0</ele><time>2026-04-12T08:32:35Z</time></trkpt><trkpt lat="44.34495805628975" lon="11.481249289674928"><ele>369.0</ele><time>2026-04-12T08:32:37Z</time></trkpt><trkpt lat="44.34492701876713" lon="11.481371281556633"><ele>369.0</ele><time>2026-04-12T08:32:39Z</time></trkpt><trkpt lat="44.344917451579946" lon="11.481484869620001"><ele>369.0</ele><time>2026-04-12T08:32:41Z</time></trkpt><trkpt lat="44.344941731067046" lon="11.4816038285706"><ele>367.5</ele><time>2026-04-12T08:32:43Z</time></trkpt><trkpt lat="44.344980673702864" lon="11.481693676301898"><ele>366.0</ele><time>2026-04-12T08:32:45Z</time></trkpt><trkpt lat="44.34503431038305" lon="11.481762039624785"><ele>364.5</ele><time>2026-04-12T08:32:47Z</time></trkpt><trkpt lat="44.34510288095204" lon="11.481801482489393"><ele>363.0</ele><time>2026-04-12T08:32:49Z</time></trkpt><trkpt lat="44.34516260142655" lon="11.481854867937182"><ele>361.5</ele><time>2026-04-12T08:32:51Z</time></trkpt><trkpt lat="44.345224349136394" lon="11.481880102715579"><ele>360.0</ele><time>2026-04-12T08:32:52.999Z</time></trkpt><trkpt lat="44.34530576602034" lon="11.481963817154936"><ele>360.0</ele><time>2026-04-12T08:32:55.999Z</time></trkpt><trkpt lat="44.345328519107014" lon="11.482047358703399"><ele>360.0</ele><time>2026-04-12T08:32:57.999Z</time></trkpt><trkpt lat="44.3453721713129" lon="11.482143829512376"><ele>360.0</ele><time>2026-04-12T08:32:59.999Z</time></trkpt><trkpt lat="44.345349694645854" lon="11.482231852461833"><ele>360.0</ele><time>2026-04-12T08:33:01.999Z</time></trkpt><trkpt lat="44.345341531134686" lon="11.482323155160326"><ele>360.0</ele><time>2026-04-12T08:33:03.999Z</time></trkpt><trkpt lat="44.345280735631924" lon="11.482375647899723"><ele>360.0</ele><time>2026-04-12T08:33:05.999Z</time></trkpt><trkpt lat="44.34520509117379" lon="11.48239359293435"><ele>360.0</ele><time>2026-04-12T08:33:07.999Z</time></trkpt><trkpt lat="44.345133267835266" lon="11.482380659425964"><ele>358.3333333333333</ele><time>2026-04-12T08:33:09.999Z</time></trkpt><trkpt lat="44.34506560018615" lon="11.482365940862621"><ele>356.6666666666667</ele><time>2026-04-12T08:33:11.999Z</time></trkpt><trkpt lat="44.344999756879474" lon="11.482343070323804"><ele>355.0</ele><time>2026-04-12T08:33:13.999Z</time></trkpt><trkpt lat="44.344911454675966" lon="11.482313521261549"><ele>353.33333333333337</ele><time>2026-04-12T08:33:16.999Z</time></trkpt><trkpt lat="44.34483422954638" lon="11.482263633991552"><ele>351.6666666666667</ele><time>2026-04-12T08:33:18.999Z</time></trkpt><trkpt lat="44.344749353426344" lon="11.482201011127518"><ele>350.0</ele><time>2026-04-12T08:33:20.999Z</time></trkpt><trkpt lat="44.344659354814766" lon="11.482148627291858"><ele>348.1666666666667</ele><time>2026-04-12T08:33:22.999Z</time></trkpt><trkpt lat="44.344579163192684" lon="11.482103066764871"><ele>346.33333333333337</ele><time>2026-04-12T08:33:24.999Z</time></trkpt><trkpt lat="44.34452461959424" lon="11.482015214929914"><ele>344.5</ele><time>2026-04-12T08:33:26.999Z</time></trkpt><trkpt lat="44.344458636245676" lon="11.481946594775966"><ele>342.6666666666667</ele><time>2026-04-12T08:33:28.999Z</time></trkpt><trkpt lat="44.34440729945689" lon="11.48186130098573"><ele>340.8333333333333</ele><time>2026-04-12T08:33:30.999Z</time></trkpt><trkpt lat="44.34433672477725" lon="11.481795408007308"><ele>339.0</ele><time>2026-04-12T08:33:32.999Z</time></trkpt><trkpt lat="44.344263709115495" lon="11.481743918918738"><ele>339.0</ele><time>2026-04-12T08:33:34.999Z</time></trkpt><trkpt lat="44.34419139520213" lon="11.481702040334218"><ele>339.0</ele><time>2026-04-12T08:33:36.999Z</time></trkpt><trkpt lat="44.344108147581" lon="11.481670435683618"><ele>339.0</ele><time>2026-04-12T08:33:38.999Z</time></trkpt><trkpt lat="44.34403184056169" lon="11.481616896231287"><ele>339.0</ele><time>2026-04-12T08:33:40.999Z</time></trkpt><trkpt lat="44.34394586172" lon="11.48159343570678"><ele>339.0</ele><time>2026-04-12T08:33:42.999Z</time></trkpt><trkpt lat="44.34387078375705" lon="11.481539639586387"><ele>339.0</ele><time>2026-04-12T08:33:44.999Z</time></trkpt><trkpt lat="44.34380093033557" lon="11.481509198440989"><ele>337.0</ele><time>2026-04-12T08:33:46.998Z</time></trkpt><trkpt lat="44.343729131389686" lon="11.48148022821632"><ele>335.0</ele><time>2026-04-12T08:33:48.998Z</time></trkpt><trkpt lat="44.34364916910385" lon="11.481461557516145"><ele>333.0</ele><time>2026-04-12T08:33:51Z</time></trkpt><trkpt lat="44.34358143671243" lon="11.481410383140636"><ele>331.0</ele><time>2026-04-12T08:33:53Z</time></trkpt><trkpt lat="44.343506714753694" lon="11.481326463523498"><ele>329.0</ele><time>2026-04-12T08:33:55Z</time></trkpt><trkpt lat="44.3434409488115" lon="11.481209697673581"><ele>327.0</ele><time>2026-04-12T08:33:57Z</time></trkpt><trkpt lat="44.343369138175575" lon="11.48108777253623"><ele>326.8333333333333</ele><time>2026-04-12T08:33:59Z</time></trkpt><trkpt lat="44.34330108157797" lon="11.480974797492715"><ele>326.6666666666667</ele><time>2026-04-12T08:34:01Z</time></trkpt><trkpt lat="44.34325373874894" lon="11.480907951125877"><ele>326.5</ele><time>2026-04-12T08:34:02Z</time></trkpt><trkpt lat="44.343206490076525" lon="11.480841408420968"><ele>326.33333333333337</ele><time>2026-04-12T08:34:03Z</time></trkpt><trkpt lat="44.343157216155525" lon="11.480782059144834"><ele>326.1666666666667</ele><time>2026-04-12T08:34:04Z</time></trkpt><trkpt lat="44.34306077235001" lon="11.480669024050208"><ele>326.0</ele><time>2026-04-12T08:34:06Z</time></trkpt><trkpt lat="44.343009694734974" lon="11.480613536255955"><ele>323.40000000000003</ele><time>2026-04-12T08:34:07Z</time></trkpt><trkpt lat="44.342930189290264" lon="11.480495570273574"><ele>320.8</ele><time>2026-04-12T08:34:09Z</time></trkpt><trkpt lat="44.34286715911634" lon="11.480409152080577"><ele>318.20000000000005</ele><time>2026-04-12T08:34:11Z</time></trkpt><trkpt lat="44.34279393787491" lon="11.480322928376047"><ele>315.6</ele><time>2026-04-12T08:34:13Z</time></trkpt><trkpt lat="44.34273606327334" lon="11.4802230693507"><ele>313.0</ele><time>2026-04-12T08:34:15Z</time></trkpt><trkpt lat="44.34263595507219" lon="11.480128674079943"><ele>312.4</ele><time>2026-04-12T08:34:17Z</time></trkpt><trkpt lat="44.34254762646136" lon="11.48005385122559"><ele>311.8</ele><time>2026-04-12T08:34:18Z</time></trkpt><trkpt lat="44.34245953784561" lon="11.479972749616772"><ele>311.2</ele><time>2026-04-12T08:34:19Z</time></trkpt><trkpt lat="44.34237989896653" lon="11.479920371368069"><ele>310.6</ele><time>2026-04-12T08:34:20Z</time></trkpt><trkpt lat="44.34231068965352" lon="11.47989206260631"><ele>310.0</ele><time>2026-04-12T08:34:21Z</time></trkpt><trkpt lat="44.34222802248462" lon="11.47982032332204"><ele>308.0</ele><time>2026-04-12T08:34:23Z</time></trkpt><trkpt lat="44.34213615660673" lon="11.479752278277616"><ele>306.0</ele><time>2026-04-12T08:34:25Z</time></trkpt><trkpt lat="44.342032624670814" lon="11.479687266690604"><ele>304.0</ele><time>2026-04-12T08:34:27Z</time></trkpt><trkpt lat="44.34193449925578" lon="11.479599570796003"><ele>302.0</ele><time>2026-04-12T08:34:29Z</time></trkpt><trkpt lat="44.341835947184165" lon="11.479548148507766"><ele>300.0</ele><time>2026-04-12T08:34:31Z</time></trkpt><trkpt lat="44.34172720275669" lon="11.479543062143579"><ele>299.6666666666667</ele><time>2026-04-12T08:34:33Z</time></trkpt><trkpt lat="44.34163683555345" lon="11.47953068800784"><ele>299.3333333333333</ele><time>2026-04-12T08:34:35Z</time></trkpt><trkpt lat="44.34153803036142" lon="11.479536689774385"><ele>299.0</ele><time>2026-04-12T08:34:37Z</time></trkpt><trkpt lat="44.34145850158267" lon="11.479536286150132"><ele>298.66666666666663</ele><time>2026-04-12T08:34:38Z</time></trkpt><trkpt lat="44.34137626296045" lon="11.479527745924528"><ele>298.3333333333333</ele><time>2026-04-12T08:34:39Z</time></trkpt><trkpt lat="44.34130613185968" lon="11.479512157961851"><ele>298.0</ele><time>2026-04-12T08:34:40Z</time></trkpt><trkpt lat="44.34122120099142" lon="11.47944258338308"><ele>297.0</ele><time>2026-04-12T08:34:42Z</time></trkpt><trkpt lat="44.3411744522762" lon="11.479374295628133"><ele>296.0</ele><time>2026-04-12T08:34:43Z</time></trkpt><trkpt lat="44.341102334419325" lon="11.479276931273002"><ele>295.0</ele><time>2026-04-12T08:34:44Z</time></trkpt><trkpt lat="44.34103291228695" lon="11.479116788211751"><ele>294.0</ele><time>2026-04-12T08:34:45Z</time></trkpt><trkpt lat="44.340985468133425" lon="11.478977922130403"><ele>293.0</ele><time>2026-04-12T08:34:46Z</time></trkpt><trkpt lat="44.34094246546115" lon="11.4788709185998"><ele>293.0</ele><time>2026-04-12T08:34:47Z</time></trkpt><trkpt lat="44.34090967200198" lon="11.478791300582554"><ele>293.0</ele><time>2026-04-12T08:34:48Z</time></trkpt><trkpt lat="44.34081076702985" lon="11.478701025440511"><ele>293.0</ele><time>2026-04-12T08:34:50Z</time></trkpt><trkpt lat="44.34072600677551" lon="11.478634990535115"><ele>293.0</ele><time>2026-04-12T08:34:52Z</time></trkpt><trkpt lat="44.34063797990487" lon="11.478608061774663"><ele>293.0</ele><time>2026-04-12T08:34:54Z</time></trkpt><trkpt lat="44.34054687501396" lon="11.478598825252387"><ele>291.0</ele><time>2026-04-12T08:34:56Z</time></trkpt><trkpt lat="44.340471735781165" lon="11.478618594369012"><ele>289.0</ele><time>2026-04-12T08:34:57.999Z</time></trkpt><trkpt lat="44.340389018050075" lon="11.478638409295217"><ele>287.0</ele><time>2026-04-12T08:34:59.999Z</time></trkpt><trkpt lat="44.34032489063894" lon="11.47871066400087"><ele>285.0</ele><time>2026-04-12T08:35:01.999Z</time></trkpt><trkpt lat="44.340257037457256" lon="11.478782725235522"><ele>283.0</ele><time>2026-04-12T08:35:03.999Z</time></trkpt><trkpt lat="44.340203688353576" lon="11.478900213838486"><ele>281.0</ele><time>2026-04-12T08:35:05.999Z</time></trkpt><trkpt lat="44.340174107181916" lon="11.4790119606476"><ele>280.5</ele><time>2026-04-12T08:35:07.999Z</time></trkpt><trkpt lat="44.34015743132417" lon="11.479133004034978"><ele>280.0</ele><time>2026-04-12T08:35:09.999Z</time></trkpt><trkpt lat="44.340121678245204" lon="11.479253546034016"><ele>279.5</ele><time>2026-04-12T08:35:11.999Z</time></trkpt><trkpt lat="44.34009741945003" lon="11.479366929226954"><ele>279.0</ele><time>2026-04-12T08:35:13.999Z</time></trkpt><trkpt lat="44.34004125228614" lon="11.479413495307869"><ele>278.5</ele><time>2026-04-12T08:35:14.999Z</time></trkpt><trkpt lat="44.339943883090285" lon="11.479459878221391"><ele>278.0</ele><time>2026-04-12T08:35:15.999Z</time></trkpt><trkpt lat="44.33982151810265" lon="11.479510382379951"><ele>278.0</ele><time>2026-04-12T08:35:16.999Z</time></trkpt><trkpt lat="44.33973241885674" lon="11.479574825247587"><ele>278.0</ele><time>2026-04-12T08:35:17.999Z</time></trkpt><trkpt lat="44.33965841720532" lon="11.47963609242661"><ele>278.0</ele><time>2026-04-12T08:35:18.999Z</time></trkpt><trkpt lat="44.33959654232765" lon="11.479696976104611"><ele>278.0</ele><time>2026-04-12T08:35:19.999Z</time></trkpt><trkpt lat="44.33954282804095" lon="11.479764515542877"><ele>278.0</ele><time>2026-04-12T08:35:20.999Z</time></trkpt><trkpt lat="44.339449294838246" lon="11.47986268186121"><ele>276.4</ele><time>2026-04-12T08:35:22.999Z</time></trkpt><trkpt lat="44.33937153446964" lon="11.479913446409679"><ele>274.8</ele><time>2026-04-12T08:35:24.999Z</time></trkpt><trkpt lat="44.33922959197247" lon="11.479973105768304"><ele>273.2</ele><time>2026-04-12T08:35:26.999Z</time></trkpt><trkpt lat="44.33914290215334" lon="11.480012769351076"><ele>271.6</ele><time>2026-04-12T08:35:27.999Z</time></trkpt><trkpt lat="44.33905227125433" lon="11.480021611213965"><ele>270.0</ele><time>2026-04-12T08:35:28.999Z</time></trkpt><trkpt lat="44.338976886123255" lon="11.480027450934633"><ele>270.0</ele><time>2026-04-12T08:35:29.999Z</time></trkpt><trkpt lat="44.3389020485786" lon="11.480014129381036"><ele>270.0</ele><time>2026-04-12T08:35:30.999Z</time></trkpt><trkpt lat="44.33883328176208" lon="11.479986203175606"><ele>270.0</ele><time>2026-04-12T08:35:31.999Z</time></trkpt><trkpt lat="44.338751542259985" lon="11.479937892377713"><ele>270.0</ele><time>2026-04-12T08:35:32.999Z</time></trkpt><trkpt lat="44.33864188905592" lon="11.47986829461775"><ele>270.0</ele><time>2026-04-12T08:35:33.999Z</time></trkpt><trkpt lat="44.33853051050442" lon="11.479797043796859"><ele>268.1666666666667</ele><time>2026-04-12T08:35:34.999Z</time></trkpt><trkpt lat="44.33844332508576" lon="11.479744612393308"><ele>266.3333333333333</ele><time>2026-04-12T08:35:35.999Z</time></trkpt><trkpt lat="44.33837181547374" lon="11.479700828235845"><ele>264.5</ele><time>2026-04-12T08:35:36.999Z</time></trkpt><trkpt lat="44.33830212012561" lon="11.479667006359811"><ele>262.66666666666663</ele><time>2026-04-12T08:35:37.999Z</time></trkpt><trkpt lat="44.33823476887531" lon="11.479630967838116"><ele>260.8333333333333</ele><time>2026-04-12T08:35:38.999Z</time></trkpt><trkpt lat="44.33817582363077" lon="11.479598155147261"><ele>259.0</ele><time>2026-04-12T08:35:39.999Z</time></trkpt><trkpt lat="44.33807879601999" lon="11.479517145694544"><ele>257.2</ele><time>2026-04-12T08:35:41.999Z</time></trkpt><trkpt lat="44.33797678885379" lon="11.479442972516187"><ele>255.39999999999998</ele><time>2026-04-12T08:35:43.999Z</time></trkpt><trkpt lat="44.337875752543134" lon="11.479376559567529"><ele>253.6</ele><time>2026-04-12T08:35:45.999Z</time></trkpt><trkpt lat="44.337783285656315" lon="11.479318328512154"><ele>251.8</ele><time>2026-04-12T08:35:47.999Z</time></trkpt><trkpt lat="44.33766711146376" lon="11.479295112200685"><ele>250.0</ele><time>2026-04-12T08:35:49.999Z</time></trkpt><trkpt lat="44.33755014700057" lon="11.47932049444928"><ele>250.0</ele><time>2026-04-12T08:35:51.998Z</time></trkpt><trkpt lat="44.337489082984874" lon="11.479346282049534"><ele>250.0</ele><time>2026-04-12T08:35:52.998Z</time></trkpt><trkpt lat="44.33742851129449" lon="11.47937318558144"><ele>250.0</ele><time>2026-04-12T08:35:53.998Z</time></trkpt><trkpt lat="44.33736793773074" lon="11.479405893606803"><ele>250.0</ele><time>2026-04-12T08:35:54.998Z</time></trkpt><trkpt lat="44.33730419230473" lon="11.479444495558125"><ele>250.0</ele><time>2026-04-12T08:35:56Z</time></trkpt><trkpt lat="44.337240041796846" lon="11.479478579474142"><ele>250.0</ele><time>2026-04-12T08:35:57Z</time></trkpt><trkpt lat="44.337173267029236" lon="11.479508866837778"><ele>250.0</ele><time>2026-04-12T08:35:58Z</time></trkpt><trkpt lat="44.337060626130665" lon="11.479555949424435"><ele>249.2</ele><time>2026-04-12T08:36:00Z</time></trkpt><trkpt lat="44.3369491083006" lon="11.479600025330692"><ele>248.4</ele><time>2026-04-12T08:36:02Z</time></trkpt><trkpt lat="44.336845081601915" lon="11.479633869678642"><ele>247.60000000000002</ele><time>2026-04-12T08:36:04Z</time></trkpt><trkpt lat="44.33670699262393" lon="11.479634335705907"><ele>246.8</ele><time>2026-04-12T08:36:06Z</time></trkpt><trkpt lat="44.33663082378602" lon="11.479633100642367"><ele>246.0</ele><time>2026-04-12T08:36:07Z</time></trkpt><trkpt lat="44.33656166309439" lon="11.479647630315817"><ele>244.5</ele><time>2026-04-12T08:36:08Z</time></trkpt><trkpt lat="44.33644017703445" lon="11.47966685861384"><ele>243.0</ele><time>2026-04-12T08:36:10Z</time></trkpt><trkpt lat="44.336323800640024" lon="11.479713064913943"><ele>241.5</ele><time>2026-04-12T08:36:12Z</time></trkpt><trkpt lat="44.33623071305424" lon="11.479773269206182"><ele>240.0</ele><time>2026-04-12T08:36:14Z</time></trkpt><trkpt lat="44.33614528595342" lon="11.47985791622402"><ele>239.6</ele><time>2026-04-12T08:36:16Z</time></trkpt><trkpt lat="44.33605627772804" lon="11.47990679032456"><ele>239.2</ele><time>2026-04-12T08:36:18Z</time></trkpt><trkpt lat="44.3359577897052" lon="11.479984421709636"><ele>238.8</ele><time>2026-04-12T08:36:20Z</time></trkpt><trkpt lat="44.33586349460046" lon="11.480087370166562"><ele>238.4</ele><time>2026-04-12T08:36:22Z</time></trkpt><trkpt lat="44.335790838746654" lon="11.480182692507206"><ele>238.0</ele><time>2026-04-12T08:36:24Z</time></trkpt><trkpt lat="44.33570916062323" lon="11.48027043879786"><ele>238.0</ele><time>2026-04-12T08:36:26Z</time></trkpt><trkpt lat="44.33563027996608" lon="11.480340611369668"><ele>238.0</ele><time>2026-04-12T08:36:28Z</time></trkpt><trkpt lat="44.33553678975738" lon="11.48040716092492"><ele>238.0</ele><time>2026-04-12T08:36:30Z</time></trkpt><trkpt lat="44.33545381459797" lon="11.480471433956202"><ele>238.0</ele><time>2026-04-12T08:36:32Z</time></trkpt><trkpt lat="44.335374359827064" lon="11.4805263575737"><ele>238.0</ele><time>2026-04-12T08:36:34Z</time></trkpt><trkpt lat="44.33529811839331" lon="11.48057966877555"><ele>236.49999999999997</ele><time>2026-04-12T08:36:36Z</time></trkpt><trkpt lat="44.33522732066258" lon="11.480651791923766"><ele>235.0</ele><time>2026-04-12T08:36:38Z</time></trkpt><trkpt lat="44.33515957223178" lon="11.48071866185763"><ele>233.5</ele><time>2026-04-12T08:36:40Z</time></trkpt><trkpt lat="44.335087625764366" lon="11.480785038335892"><ele>232.0</ele><time>2026-04-12T08:36:42Z</time></trkpt><trkpt lat="44.335009615466085" lon="11.48085060526838"><ele>230.49999999999997</ele><time>2026-04-12T08:36:44Z</time></trkpt><trkpt lat="44.33492816568713" lon="11.480914885474418"><ele>229.0</ele><time>2026-04-12T08:36:46Z</time></trkpt><trkpt lat="44.334845311287914" lon="11.480977543119886"><ele>229.0</ele><time>2026-04-12T08:36:48Z</time></trkpt><trkpt lat="44.33476903313827" lon="11.481038770819397"><ele>228.99999999999997</ele><time>2026-04-12T08:36:50Z</time></trkpt><trkpt lat="44.33469352901988" lon="11.48110968305881"><ele>228.99999999999997</ele><time>2026-04-12T08:36:52Z</time></trkpt><trkpt lat="44.33463676665591" lon="11.481163075542579"><ele>229.0</ele><time>2026-04-12T08:36:53Z</time></trkpt><trkpt lat="44.33453536286954" lon="11.481253735752178"><ele>229.0</ele><time>2026-04-12T08:36:54Z</time></trkpt><trkpt lat="44.3344324245948" lon="11.481337973068902"><ele>229.0</ele><time>2026-04-12T08:36:55Z</time></trkpt><trkpt lat="44.33434384553737" lon="11.481420139782061"><ele>228.99999999999997</ele><time>2026-04-12T08:36:56Z</time></trkpt><trkpt lat="44.33426307542846" lon="11.481491695427763"><ele>228.99999999999997</ele><time>2026-04-12T08:36:57Z</time></trkpt><trkpt lat="44.33418427491316" lon="11.481553958971004"><ele>229.0</ele><time>2026-04-12T08:36:58Z</time></trkpt><trkpt lat="44.33411465369887" lon="11.481601412967535"><ele>229.0</ele><time>2026-04-12T08:36:59Z</time></trkpt><trkpt lat="44.334037189543984" lon="11.48165219145345"><ele>228.99999999999997</ele><time>2026-04-12T08:37:00Z</time></trkpt><trkpt lat="44.333969577285906" lon="11.481699995087506"><ele>229.0</ele><time>2026-04-12T08:37:00.999Z</time></trkpt><trkpt lat="44.333907047330996" lon="11.481749067943236"><ele>229.0</ele><time>2026-04-12T08:37:01.999Z</time></trkpt><trkpt lat="44.33384426294665" lon="11.481802228634878"><ele>229.0</ele><time>2026-04-12T08:37:02.999Z</time></trkpt><trkpt lat="44.33377683498793" lon="11.481858673357427"><ele>228.99999999999997</ele><time>2026-04-12T08:37:03.999Z</time></trkpt><trkpt lat="44.333714679516625" lon="11.481929587888168"><ele>229.0</ele><time>2026-04-12T08:37:04.999Z</time></trkpt><trkpt lat="44.333656952206034" lon="11.482015889408677"><ele>228.5</ele><time>2026-04-12T08:37:05.999Z</time></trkpt><trkpt lat="44.33360346318061" lon="11.482128012198405"><ele>228.0</ele><time>2026-04-12T08:37:06.999Z</time></trkpt><trkpt lat="44.33354653190165" lon="11.482275763133309"><ele>227.5</ele><time>2026-04-12T08:37:07.999Z</time></trkpt><trkpt lat="44.333489442302245" lon="11.482465086227464"><ele>227.0</ele><time>2026-04-12T08:37:08.999Z</time></trkpt><trkpt lat="44.333434842191394" lon="11.482622537525607"><ele>227.0</ele><time>2026-04-12T08:37:09.999Z</time></trkpt><trkpt lat="44.333367411832" lon="11.482764878930345"><ele>227.0</ele><time>2026-04-12T08:37:10.999Z</time></trkpt><trkpt lat="44.333294237913954" lon="11.482888289590358"><ele>227.0</ele><time>2026-04-12T08:37:11.999Z</time></trkpt><trkpt lat="44.33323894333394" lon="11.482990078471087"><ele>227.0</ele><time>2026-04-12T08:37:12.999Z</time></trkpt><trkpt lat="44.333193514604055" lon="11.483079506886648"><ele>227.0</ele><time>2026-04-12T08:37:13.999Z</time></trkpt><trkpt lat="44.333151371131954" lon="11.483148962349027"><ele>226.0</ele><time>2026-04-12T08:37:14.999Z</time></trkpt><trkpt lat="44.33306960973598" lon="11.483216312596449"><ele>225.0</ele><time>2026-04-12T08:37:16.999Z</time></trkpt><trkpt lat="44.33296166719445" lon="11.483218165243356"><ele>224.0</ele><time>2026-04-12T08:37:18.999Z</time></trkpt><trkpt lat="44.332895043456965" lon="11.483187343119784"><ele>223.0</ele><time>2026-04-12T08:37:19.999Z</time></trkpt><trkpt lat="44.33278831275929" lon="11.483140029209945"><ele>222.0</ele><time>2026-04-12T08:37:20.999Z</time></trkpt><trkpt lat="44.33264348235148" lon="11.483092057916835"><ele>219.33333333333331</ele><time>2026-04-12T08:37:21.999Z</time></trkpt><trkpt lat="44.3324899961464" lon="11.483048914555308"><ele>216.66666666666666</ele><time>2026-04-12T08:37:22.999Z</time></trkpt><trkpt lat="44.33233421734073" lon="11.483017073864715"><ele>214.0</ele><time>2026-04-12T08:37:23.999Z</time></trkpt><trkpt lat="44.332190298284765" lon="11.482991423853552"><ele>214.0</ele><time>2026-04-12T08:37:24.999Z</time></trkpt><trkpt lat="44.33203807428085" lon="11.482972649944752"><ele>214.0</ele><time>2026-04-12T08:37:25.999Z</time></trkpt><trkpt lat="44.33188255251515" lon="11.482955924868469"><ele>214.0</ele><time>2026-04-12T08:37:26.999Z</time></trkpt><trkpt lat="44.33174119569202" lon="11.482937408213486"><ele>213.2</ele><time>2026-04-12T08:37:27.999Z</time></trkpt><trkpt lat="44.331620487492636" lon="11.48292399850901"><ele>212.39999999999998</ele><time>2026-04-12T08:37:28.999Z</time></trkpt><trkpt lat="44.33151107261515" lon="11.48291667503339"><ele>211.6</ele><time>2026-04-12T08:37:29.999Z</time></trkpt><trkpt lat="44.33140994343704" lon="11.482902296311503"><ele>210.8</ele><time>2026-04-12T08:37:30.999Z</time></trkpt><trkpt lat="44.331315505258495" lon="11.482872365659041"><ele>210.0</ele><time>2026-04-12T08:37:31.999Z</time></trkpt><trkpt lat="44.33121199578661" lon="11.48282888242711"><ele>210.0</ele><time>2026-04-12T08:37:32.999Z</time></trkpt><trkpt lat="44.33108261585747" lon="11.48275994293563"><ele>210.0</ele><time>2026-04-12T08:37:33.999Z</time></trkpt><trkpt lat="44.330969639893354" lon="11.482705012891493"><ele>210.0</ele><time>2026-04-12T08:37:34.999Z</time></trkpt><trkpt lat="44.33086579082208" lon="11.482666928979734"><ele>210.0</ele><time>2026-04-12T08:37:35.999Z</time></trkpt><trkpt lat="44.33074399898084" lon="11.48264020307025"><ele>210.0</ele><time>2026-04-12T08:37:36.999Z</time></trkpt><trkpt lat="44.33060348784109" lon="11.482622891179437"><ele>210.0</ele><time>2026-04-12T08:37:37.999Z</time></trkpt><trkpt lat="44.33045531675261" lon="11.482619266909069"><ele>210.0</ele><time>2026-04-12T08:37:38.999Z</time></trkpt><trkpt lat="44.33032892635479" lon="11.482621374556645"><ele>210.0</ele><time>2026-04-12T08:37:39.999Z</time></trkpt><trkpt lat="44.33020978292545" lon="11.48262417838437"><ele>209.4</ele><time>2026-04-12T08:37:40.999Z</time></trkpt><trkpt lat="44.33010219979148" lon="11.48261698762602"><ele>208.8</ele><time>2026-04-12T08:37:41.999Z</time></trkpt><trkpt lat="44.32999226730131" lon="11.48258674377006"><ele>208.2</ele><time>2026-04-12T08:37:42.999Z</time></trkpt><trkpt lat="44.32988018581159" lon="11.48254069121632"><ele>207.6</ele><time>2026-04-12T08:37:43.999Z</time></trkpt><trkpt lat="44.32978443560365" lon="11.482488735215306"><ele>207.0</ele><time>2026-04-12T08:37:44.999Z</time></trkpt><trkpt lat="44.32969783188371" lon="11.482447384247717"><ele>207.0</ele><time>2026-04-12T08:37:45.999Z</time></trkpt><trkpt lat="44.329613174726546" lon="11.482417399212494"><ele>207.0</ele><time>2026-04-12T08:37:46.999Z</time></trkpt><trkpt lat="44.3295221783338" lon="11.482411201862599"><ele>207.0</ele><time>2026-04-12T08:37:47.999Z</time></trkpt><trkpt lat="44.32942232750375" lon="11.482426162945423"><ele>207.0</ele><time>2026-04-12T08:37:48.999Z</time></trkpt><trkpt lat="44.32933086235156" lon="11.482446703452428"><ele>207.0</ele><time>2026-04-12T08:37:49.999Z</time></trkpt><trkpt lat="44.32924682699673" lon="11.482460638264822"><ele>207.0</ele><time>2026-04-12T08:37:50.999Z</time></trkpt><trkpt lat="44.32917361391806" lon="11.482484993281924"><ele>207.0</ele><time>2026-04-12T08:37:51.999Z</time></trkpt><trkpt lat="44.329111284329905" lon="11.48252216278687"><ele>207.0</ele><time>2026-04-12T08:37:52.999Z</time></trkpt><trkpt lat="44.329051888709884" lon="11.482572450401351"><ele>207.0</ele><time>2026-04-12T08:37:53.999Z</time></trkpt><trkpt lat="44.32898534174478" lon="11.482656271597866"><ele>207.0</ele><time>2026-04-12T08:37:54.998Z</time></trkpt><trkpt lat="44.32890980595211" lon="11.482748568790146"><ele>207.0</ele><time>2026-04-12T08:37:55.998Z</time></trkpt><trkpt lat="44.328848413354464" lon="11.482831558003241"><ele>206.71428571428572</ele><time>2026-04-12T08:37:56.998Z</time></trkpt><trkpt lat="44.328796370108186" lon="11.482913352801269"><ele>206.42857142857144</ele><time>2026-04-12T08:37:57.998Z</time></trkpt><trkpt lat="44.32874325963308" lon="11.4829899600523"><ele>206.14285714285717</ele><time>2026-04-12T08:37:58.998Z</time></trkpt><trkpt lat="44.32868886719743" lon="11.483049066554324"><ele>205.85714285714286</ele><time>2026-04-12T08:37:59.998Z</time></trkpt><trkpt lat="44.328633058518314" lon="11.483098907140434"><ele>205.57142857142856</ele><time>2026-04-12T08:38:01Z</time></trkpt><trkpt lat="44.32856945496821" lon="11.483146606743638"><ele>205.2857142857143</ele><time>2026-04-12T08:38:02Z</time></trkpt><trkpt lat="44.32851031878494" lon="11.483192618646036"><ele>205.0</ele><time>2026-04-12T08:38:03Z</time></trkpt><trkpt lat="44.328443997273155" lon="11.483239236599807"><ele>203.99999999999997</ele><time>2026-04-12T08:38:04Z</time></trkpt><trkpt lat="44.32837735951911" lon="11.483283931975821"><ele>203.0</ele><time>2026-04-12T08:38:05Z</time></trkpt><trkpt lat="44.32830923215771" lon="11.483313130767522"><ele>202.0</ele><time>2026-04-12T08:38:06Z</time></trkpt><trkpt lat="44.32824637799787" lon="11.483338148438175"><ele>201.0</ele><time>2026-04-12T08:38:07Z</time></trkpt><trkpt lat="44.32813160553044" lon="11.483368789874474"><ele>199.99999999999997</ele><time>2026-04-12T08:38:09Z</time></trkpt><trkpt lat="44.32802077639554" lon="11.483362786566987"><ele>199.0</ele><time>2026-04-12T08:38:11Z</time></trkpt><trkpt lat="44.3279067794314" lon="11.483352930954442"><ele>198.39999999999998</ele><time>2026-04-12T08:38:13Z</time></trkpt><trkpt lat="44.327834249294284" lon="11.483353833718281"><ele>197.8</ele><time>2026-04-12T08:38:14Z</time></trkpt><trkpt lat="44.32774590610736" lon="11.483370126752472"><ele>197.2</ele><time>2026-04-12T08:38:15Z</time></trkpt><trkpt lat="44.32764376048674" lon="11.483416106779343"><ele>196.60000000000002</ele><time>2026-04-12T08:38:16Z</time></trkpt><trkpt lat="44.32753426600933" lon="11.48348623732367"><ele>196.0</ele><time>2026-04-12T08:38:17Z</time></trkpt><trkpt lat="44.327425413566324" lon="11.48355063663366"><ele>196.0</ele><time>2026-04-12T08:38:18Z</time></trkpt><trkpt lat="44.32732918281885" lon="11.48359544260882"><ele>196.0</ele><time>2026-04-12T08:38:19Z</time></trkpt><trkpt lat="44.32721515043342" lon="11.483613709451054"><ele>196.0</ele><time>2026-04-12T08:38:20Z</time></trkpt><trkpt lat="44.327089931340716" lon="11.483629871779906"><ele>196.0</ele><time>2026-04-12T08:38:21Z</time></trkpt><trkpt lat="44.32699034206162" lon="11.483648087611739"><ele>196.0</ele><time>2026-04-12T08:38:22Z</time></trkpt><trkpt lat="44.32691638234026" lon="11.48365779676692"><ele>195.60000000000002</ele><time>2026-04-12T08:38:23Z</time></trkpt><trkpt lat="44.32682823373264" lon="11.48362473544213"><ele>195.2</ele><time>2026-04-12T08:38:24Z</time></trkpt><trkpt lat="44.32673132382604" lon="11.483571238250997"><ele>194.8</ele><time>2026-04-12T08:38:25Z</time></trkpt><trkpt lat="44.326628812532306" lon="11.483490677112222"><ele>194.39999999999998</ele><time>2026-04-12T08:38:26Z</time></trkpt><trkpt lat="44.32651402231998" lon="11.483402862059286"><ele>194.0</ele><time>2026-04-12T08:38:27Z</time></trkpt><trkpt lat="44.326404357826675" lon="11.48331742944226"><ele>193.79999999999998</ele><time>2026-04-12T08:38:28Z</time></trkpt><trkpt lat="44.32631347277647" lon="11.483249504871523"><ele>193.6</ele><time>2026-04-12T08:38:29Z</time></trkpt><trkpt lat="44.32622684180186" lon="11.483192492534021"><ele>193.4</ele><time>2026-04-12T08:38:30Z</time></trkpt><trkpt lat="44.32614166117698" lon="11.483157491285395"><ele>193.2</ele><time>2026-04-12T08:38:31Z</time></trkpt><trkpt lat="44.32605775035839" lon="11.483137090099017"><ele>193.0</ele><time>2026-04-12T08:38:32Z</time></trkpt><trkpt lat="44.32597165344845" lon="11.483124241678665"><ele>193.0</ele><time>2026-04-12T08:38:33Z</time></trkpt><trkpt lat="44.325889092228586" lon="11.483126300549454"><ele>193.0</ele><time>2026-04-12T08:38:34Z</time></trkpt><trkpt lat="44.32581871060195" lon="11.483149893382711"><ele>193.0</ele><time>2026-04-12T08:38:35Z</time></trkpt><trkpt lat="44.32572891991546" lon="11.483196416454083"><ele>193.0</ele><time>2026-04-12T08:38:36Z</time></trkpt><trkpt lat="44.325622130467934" lon="11.483260855134791"><ele>193.0</ele><time>2026-04-12T08:38:37Z</time></trkpt><trkpt lat="44.325524521668946" lon="11.483309682805313"><ele>192.2</ele><time>2026-04-12T08:38:38Z</time></trkpt><trkpt lat="44.32542755246856" lon="11.483344912533331"><ele>191.4</ele><time>2026-04-12T08:38:39Z</time></trkpt><trkpt lat="44.32531555723169" lon="11.483365791423774"><ele>190.6</ele><time>2026-04-12T08:38:40Z</time></trkpt><trkpt lat="44.32520455607304" lon="11.483370832587191"><ele>189.79999999999998</ele><time>2026-04-12T08:38:41Z</time></trkpt><trkpt lat="44.32509069787999" lon="11.483370189730902"><ele>189.0</ele><time>2026-04-12T08:38:42Z</time></trkpt><trkpt lat="44.32499259699342" lon="11.483403097409552"><ele>189.0</ele><time>2026-04-12T08:38:43Z</time></trkpt><trkpt lat="44.32491421032464" lon="11.483435073441921"><ele>189.0</ele><time>2026-04-12T08:38:44Z</time></trkpt><trkpt lat="44.32484274414961" lon="11.483470043933268"><ele>189.0</ele><time>2026-04-12T08:38:45Z</time></trkpt><trkpt lat="44.32478211997748" lon="11.48350684885292"><ele>189.0</ele><time>2026-04-12T08:38:46Z</time></trkpt><trkpt lat="44.32472577520247" lon="11.483548277720223"><ele>189.0</ele><time>2026-04-12T08:38:47Z</time></trkpt><trkpt lat="44.3246384016314" lon="11.483625436135135"><ele>189.0</ele><time>2026-04-12T08:38:49Z</time></trkpt><trkpt lat="44.32454087389735" lon="11.483668830277418"><ele>188.79999999999998</ele><time>2026-04-12T08:38:51Z</time></trkpt><trkpt lat="44.32446718114126" lon="11.483672964201508"><ele>188.6</ele><time>2026-04-12T08:38:52Z</time></trkpt><trkpt lat="44.324402266396966" lon="11.483660810578485"><ele>188.4</ele><time>2026-04-12T08:38:53Z</time></trkpt><trkpt lat="44.3243353259522" lon="11.483651933502092"><ele>188.2</ele><time>2026-04-12T08:38:54Z</time></trkpt><trkpt lat="44.32421658631344" lon="11.48362689339065"><ele>188.0</ele><time>2026-04-12T08:38:56Z</time></trkpt><trkpt lat="44.32408798307957" lon="11.48362257665512"><ele>188.0</ele><time>2026-04-12T08:38:58Z</time></trkpt><trkpt lat="44.32401732240895" lon="11.483621048163327"><ele>188.0</ele><time>2026-04-12T08:38:59Z</time></trkpt><trkpt lat="44.323945753643414" lon="11.483623926951497"><ele>188.0</ele><time>2026-04-12T08:39:00Z</time></trkpt><trkpt lat="44.32386794169276" lon="11.483623694040226"><ele>188.0</ele><time>2026-04-12T08:39:01Z</time></trkpt><trkpt lat="44.32378800677234" lon="11.483623312426962"><ele>188.0</ele><time>2026-04-12T08:39:02Z</time></trkpt><trkpt lat="44.323703677697445" lon="11.483617578643567"><ele>188.0</ele><time>2026-04-12T08:39:03Z</time></trkpt><trkpt lat="44.32362377634723" lon="11.48361587896761"><ele>187.60000000000002</ele><time>2026-04-12T08:39:03.999Z</time></trkpt><trkpt lat="44.32354850432933" lon="11.483620311335391"><ele>187.20000000000002</ele><time>2026-04-12T08:39:04.999Z</time></trkpt><trkpt lat="44.32348354895745" lon="11.483615942560798"><ele>186.8</ele><time>2026-04-12T08:39:05.999Z</time></trkpt><trkpt lat="44.323366946449944" lon="11.483581714133987"><ele>186.4</ele><time>2026-04-12T08:39:07.999Z</time></trkpt><trkpt lat="44.32325496989073" lon="11.48354130728623"><ele>186.0</ele><time>2026-04-12T08:39:09.999Z</time></trkpt><trkpt lat="44.323136987675724" lon="11.483516187649172"><ele>186.0</ele><time>2026-04-12T08:39:11.999Z</time></trkpt><trkpt lat="44.32301191570211" lon="11.483535316755349"><ele>186.0</ele><time>2026-04-12T08:39:13.999Z</time></trkpt><trkpt lat="44.322940248636215" lon="11.483555223561567"><ele>186.0</ele><time>2026-04-12T08:39:14.999Z</time></trkpt><trkpt lat="44.32286994966417" lon="11.483578303742336"><ele>186.0</ele><time>2026-04-12T08:39:15.999Z</time></trkpt><trkpt lat="44.32279554374803" lon="11.483610382377202"><ele>186.0</ele><time>2026-04-12T08:39:16.999Z</time></trkpt><trkpt lat="44.32271925725027" lon="11.48364047028499"><ele>186.0</ele><time>2026-04-12T08:39:17.999Z</time></trkpt><trkpt lat="44.3226470945389" lon="11.4836599074335"><ele>186.0</ele><time>2026-04-12T08:39:18.999Z</time></trkpt><trkpt lat="44.32251207234472" lon="11.483701754277867"><ele>186.0</ele><time>2026-04-12T08:39:20.999Z</time></trkpt><trkpt lat="44.32244563513205" lon="11.483738616076707"><ele>186.0</ele><time>2026-04-12T08:39:21.999Z</time></trkpt><trkpt lat="44.32239154092414" lon="11.483790046999077"><ele>186.0</ele><time>2026-04-12T08:39:22.999Z</time></trkpt><trkpt lat="44.322348648964166" lon="11.483877185666323"><ele>186.0</ele><time>2026-04-12T08:39:23.999Z</time></trkpt><trkpt lat="44.32231391898246" lon="11.483998240427708"><ele>186.0</ele><time>2026-04-12T08:39:24.999Z</time></trkpt><trkpt lat="44.32227859502691" lon="11.484154173494046"><ele>185.20000000000002</ele><time>2026-04-12T08:39:25.999Z</time></trkpt><trkpt lat="44.3222352246175" lon="11.484298917357616"><ele>184.4</ele><time>2026-04-12T08:39:26.999Z</time></trkpt><trkpt lat="44.32217922937854" lon="11.484417117972578"><ele>183.6</ele><time>2026-04-12T08:39:27.999Z</time></trkpt><trkpt lat="44.322115893357285" lon="11.484506325643933"><ele>182.8</ele><time>2026-04-12T08:39:28.999Z</time></trkpt><trkpt lat="44.32204806410007" lon="11.484594907377717"><ele>182.0</ele><time>2026-04-12T08:39:29.999Z</time></trkpt><trkpt lat="44.32197222911877" lon="11.48467837254505"><ele>181.6</ele><time>2026-04-12T08:39:30.999Z</time></trkpt><trkpt lat="44.32189865671233" lon="11.484752124551967"><ele>181.2</ele><time>2026-04-12T08:39:31.999Z</time></trkpt><trkpt lat="44.321821057521944" lon="11.484825888517873"><ele>180.8</ele><time>2026-04-12T08:39:32.999Z</time></trkpt><trkpt lat="44.32171925569813" lon="11.484912318122879"><ele>180.4</ele><time>2026-04-12T08:39:33.999Z</time></trkpt><trkpt lat="44.32160584601014" lon="11.485017809560885"><ele>180.0</ele><time>2026-04-12T08:39:34.999Z</time></trkpt><trkpt lat="44.32149860012822" lon="11.485137960156871"><ele>180.0</ele><time>2026-04-12T08:39:35.999Z</time></trkpt><trkpt lat="44.32140990526245" lon="11.485246376592178"><ele>180.0</ele><time>2026-04-12T08:39:36.999Z</time></trkpt><trkpt lat="44.321320034502456" lon="11.48533129876667"><ele>180.0</ele><time>2026-04-12T08:39:37.999Z</time></trkpt><trkpt lat="44.32122758467406" lon="11.485385846488631"><ele>180.0</ele><time>2026-04-12T08:39:38.999Z</time></trkpt><trkpt lat="44.32112395544981" lon="11.485410054720251"><ele>180.0</ele><time>2026-04-12T08:39:39.999Z</time></trkpt><trkpt lat="44.321001601133666" lon="11.48541653889748"><ele>179.16666666666666</ele><time>2026-04-12T08:39:40.999Z</time></trkpt><trkpt lat="44.32089817517921" lon="11.48541330790622"><ele>178.33333333333334</ele><time>2026-04-12T08:39:41.999Z</time></trkpt><trkpt lat="44.320813973814246" lon="11.48539220978734"><ele>177.5</ele><time>2026-04-12T08:39:42.999Z</time></trkpt><trkpt lat="44.32075358501064" lon="11.485354012062718"><ele>176.66666666666669</ele><time>2026-04-12T08:39:43.999Z</time></trkpt><trkpt lat="44.320705443565615" lon="11.485297097851616"><ele>175.83333333333334</ele><time>2026-04-12T08:39:44.999Z</time></trkpt><trkpt lat="44.3206275288571" lon="11.485157700864324"><ele>175.0</ele><time>2026-04-12T08:39:46.999Z</time></trkpt><trkpt lat="44.32052754665701" lon="11.485060936181236"><ele>174.66666666666669</ele><time>2026-04-12T08:39:48.999Z</time></trkpt><trkpt lat="44.32046153397964" lon="11.485037777658505"><ele>174.33333333333334</ele><time>2026-04-12T08:39:49.999Z</time></trkpt><trkpt lat="44.32035663132419" lon="11.485002271097326"><ele>174.0</ele><time>2026-04-12T08:39:51.999Z</time></trkpt><trkpt lat="44.32028136953375" lon="11.485001294937069"><ele>173.66666666666666</ele><time>2026-04-12T08:39:53.999Z</time></trkpt><trkpt lat="44.32021486893345" lon="11.484924566294916"><ele>173.33333333333331</ele><time>2026-04-12T08:39:57.998Z</time></trkpt><trkpt lat="44.32020118324851" lon="11.484791295308264"><ele>173.0</ele><time>2026-04-12T08:39:59.998Z</time></trkpt><trkpt lat="44.320121696749474" lon="11.484795506696374"><ele>173.0</ele><time>2026-04-12T08:40:02.998Z</time></trkpt></trkseg><trkseg><trkpt lat="44.320051593824715" lon="11.484814537160839"><ele>173.0</ele><time>2026-04-12T08:57:13.998Z</time></trkpt><trkpt lat="44.320081228338964" lon="11.484731792753344"><ele>173.0</ele><time>2026-04-12T08:57:16.998Z</time></trkpt><trkpt lat="44.32014085579028" lon="11.484771291305396"><ele>173.0</ele><time>2026-04-12T08:57:18.998Z</time></trkpt><trkpt lat="44.32022503397515" lon="11.4847410596356"><ele>173.0</ele><time>2026-04-12T08:57:26.998Z</time></trkpt><trkpt lat="44.320250108244565" lon="11.484587555340813"><ele>173.0</ele><time>2026-04-12T08:57:28.998Z</time></trkpt><trkpt lat="44.320243312972835" lon="11.484480794801572"><ele>173.0</ele><time>2026-04-12T08:57:29.998Z</time></trkpt><trkpt lat="44.320237877055945" lon="11.484374827298208"><ele>172.8</ele><time>2026-04-12T08:57:30.998Z</time></trkpt><trkpt lat="44.32024027842549" lon="11.484277341665052"><ele>172.60000000000002</ele><time>2026-04-12T08:57:31.998Z</time></trkpt><trkpt lat="44.32024056655366" lon="11.484166445445712"><ele>172.39999999999998</ele><time>2026-04-12T08:57:32.998Z</time></trkpt><trkpt lat="44.320233410698314" lon="11.484038260761043"><ele>172.2</ele><time>2026-04-12T08:57:33.998Z</time></trkpt><trkpt lat="44.32022107956693" lon="11.48389840836392"><ele>172.0</ele><time>2026-04-12T08:57:34.998Z</time></trkpt><trkpt lat="44.320212653322685" lon="11.483745577835093"><ele>172.8</ele><time>2026-04-12T08:57:35.998Z</time></trkpt><trkpt lat="44.32018993380666" lon="11.483583714556865"><ele>173.6</ele><time>2026-04-12T08:57:36.998Z</time></trkpt><trkpt lat="44.320158792482644" lon="11.483441212795626"><ele>174.4</ele><time>2026-04-12T08:57:37.998Z</time></trkpt><trkpt lat="44.320125160856705" lon="11.483317404646746"><ele>175.20000000000002</ele><time>2026-04-12T08:57:38.998Z</time></trkpt><trkpt lat="44.32008366367273" lon="11.483178847257275"><ele>176.0</ele><time>2026-04-12T08:57:39.998Z</time></trkpt><trkpt lat="44.32003327546473" lon="11.483039476915481"><ele>176.60000000000002</ele><time>2026-04-12T08:57:40.998Z</time></trkpt><trkpt lat="44.31998209940464" lon="11.482903704524048"><ele>177.2</ele><time>2026-04-12T08:57:41.998Z</time></trkpt><trkpt lat="44.31992135416686" lon="11.482769190678248"><ele>177.8</ele><time>2026-04-12T08:57:42.998Z</time></trkpt><trkpt lat="44.319867203709016" lon="11.482642239940734"><ele>178.39999999999998</ele><time>2026-04-12T08:57:43.998Z</time></trkpt><trkpt lat="44.319808986511575" lon="11.482511860060853"><ele>179.0</ele><time>2026-04-12T08:57:45Z</time></trkpt><trkpt lat="44.31975055069053" lon="11.48239220675147"><ele>178.2</ele><time>2026-04-12T08:57:46Z</time></trkpt><trkpt lat="44.31969383185154" lon="11.4822687650152"><ele>177.39999999999998</ele><time>2026-04-12T08:57:47Z</time></trkpt><trkpt lat="44.31963445611499" lon="11.482146568669345"><ele>176.6</ele><time>2026-04-12T08:57:48Z</time></trkpt><trkpt lat="44.31957708765116" lon="11.482026492587549"><ele>175.8</ele><time>2026-04-12T08:57:49Z</time></trkpt><trkpt lat="44.319522766238826" lon="11.481908962162711"><ele>175.0</ele><time>2026-04-12T08:57:50Z</time></trkpt><trkpt lat="44.31946954066827" lon="11.481789437833037"><ele>175.0</ele><time>2026-04-12T08:57:51Z</time></trkpt><trkpt lat="44.31941378689671" lon="11.481669749654404"><ele>175.0</ele><time>2026-04-12T08:57:52Z</time></trkpt><trkpt lat="44.3193559486394" lon="11.481550515542345"><ele>175.0</ele><time>2026-04-12T08:57:53Z</time></trkpt><trkpt lat="44.31930261756874" lon="11.481442050731493"><ele>175.0</ele><time>2026-04-12T08:57:54Z</time></trkpt><trkpt lat="44.319253867892286" lon="11.481346497189158"><ele>175.0</ele><time>2026-04-12T08:57:55Z</time></trkpt><trkpt lat="44.31921125430835" lon="11.481260470609584"><ele>175.14285714285714</ele><time>2026-04-12T08:57:56Z</time></trkpt><trkpt lat="44.31917343857404" lon="11.481184507930566"><ele>175.28571428571428</ele><time>2026-04-12T08:57:57Z</time></trkpt><trkpt lat="44.319133002939616" lon="11.481112780736243"><ele>175.42857142857144</ele><time>2026-04-12T08:57:58Z</time></trkpt><trkpt lat="44.31909150445396" lon="11.481028070220473"><ele>175.57142857142856</ele><time>2026-04-12T08:57:59Z</time></trkpt><trkpt lat="44.31904771103865" lon="11.480948616577965"><ele>175.71428571428572</ele><time>2026-04-12T08:58:00Z</time></trkpt><trkpt lat="44.318998331711875" lon="11.480860919657864"><ele>175.85714285714286</ele><time>2026-04-12T08:58:01Z</time></trkpt><trkpt lat="44.31894909422208" lon="11.480774822846687"><ele>176.0</ele><time>2026-04-12T08:58:02Z</time></trkpt><trkpt lat="44.318892103611454" lon="11.480685379504513"><ele>176.0</ele><time>2026-04-12T08:58:03Z</time></trkpt><trkpt lat="44.31883136937437" lon="11.480593567245954"><ele>176.0</ele><time>2026-04-12T08:58:04Z</time></trkpt><trkpt lat="44.318768375844904" lon="11.48050321482976"><ele>176.0</ele><time>2026-04-12T08:58:05Z</time></trkpt><trkpt lat="44.3186939540976" lon="11.480413286817605"><ele>176.0</ele><time>2026-04-12T08:58:06Z</time></trkpt><trkpt lat="44.31860864921531" lon="11.480316648573218"><ele>176.0</ele><time>2026-04-12T08:58:07Z</time></trkpt><trkpt lat="44.31851611142616" lon="11.480218659009177"><ele>177.0</ele><time>2026-04-12T08:58:08Z</time></trkpt><trkpt lat="44.31840992758771" lon="11.480130292861773"><ele>178.0</ele><time>2026-04-12T08:58:09Z</time></trkpt><trkpt lat="44.31828597782509" lon="11.480037214937987"><ele>179.0</ele><time>2026-04-12T08:58:10Z</time></trkpt><trkpt lat="44.31816972312883" lon="11.479947176780177"><ele>180.0</ele><time>2026-04-12T08:58:11Z</time></trkpt><trkpt lat="44.318068313182636" lon="11.479842682198935"><ele>178.75</ele><time>2026-04-12T08:58:12Z</time></trkpt><trkpt lat="44.317977046366465" lon="11.479720392132332"><ele>177.5</ele><time>2026-04-12T08:58:13Z</time></trkpt><trkpt lat="44.31791893793626" lon="11.479564980443696"><ele>176.25</ele><time>2026-04-12T08:58:13.999Z</time></trkpt><trkpt lat="44.317843140843" lon="11.479418379624471"><ele>175.0</ele><time>2026-04-12T08:58:14.999Z</time></trkpt><trkpt lat="44.317780752113705" lon="11.479262044171179"><ele>175.0</ele><time>2026-04-12T08:58:15.999Z</time></trkpt><trkpt lat="44.31770447283794" lon="11.479121934119954"><ele>175.0</ele><time>2026-04-12T08:58:16.999Z</time></trkpt><trkpt lat="44.31760307851718" lon="11.478997230991794"><ele>175.0</ele><time>2026-04-12T08:58:17.999Z</time></trkpt><trkpt lat="44.31747510303999" lon="11.478880735119684"><ele>175.0</ele><time>2026-04-12T08:58:18.999Z</time></trkpt><trkpt lat="44.3173378672516" lon="11.478763864357749"><ele>175.33333333333334</ele><time>2026-04-12T08:58:19.999Z</time></trkpt><trkpt lat="44.31720765622511" lon="11.478633795804972"><ele>175.66666666666666</ele><time>2026-04-12T08:58:20.999Z</time></trkpt><trkpt lat="44.317095285650765" lon="11.478500843119926"><ele>176.0</ele><time>2026-04-12T08:58:21.999Z</time></trkpt><trkpt lat="44.316992512534185" lon="11.478362672136809"><ele>176.0</ele><time>2026-04-12T08:58:22.999Z</time></trkpt><trkpt lat="44.31692238550132" lon="11.478197283027587"><ele>176.0</ele><time>2026-04-12T08:58:23.999Z</time></trkpt><trkpt lat="44.31684235122975" lon="11.478043078921363"><ele>176.0</ele><time>2026-04-12T08:58:24.999Z</time></trkpt><trkpt lat="44.316789972245004" lon="11.477868583393597"><ele>176.0</ele><time>2026-04-12T08:58:25.999Z</time></trkpt><trkpt lat="44.3167354684775" lon="11.477704497431638"><ele>175.75</ele><time>2026-04-12T08:58:26.999Z</time></trkpt><trkpt lat="44.31665611426608" lon="11.477566437046478"><ele>175.5</ele><time>2026-04-12T08:58:27.999Z</time></trkpt><trkpt lat="44.31655828074136" lon="11.477446591588183"><ele>175.25</ele><time>2026-04-12T08:58:28.999Z</time></trkpt><trkpt lat="44.31644279749635" lon="11.47734542420325"><ele>175.0</ele><time>2026-04-12T08:58:29.999Z</time></trkpt><trkpt lat="44.31632433634467" lon="11.477249773428746"><ele>175.0</ele><time>2026-04-12T08:58:30.999Z</time></trkpt><trkpt lat="44.316213597648314" lon="11.477163374485048"><ele>175.0</ele><time>2026-04-12T08:58:31.999Z</time></trkpt><trkpt lat="44.316112788692166" lon="11.47707805083545"><ele>175.0</ele><time>2026-04-12T08:58:32.999Z</time></trkpt><trkpt lat="44.316024734805886" lon="11.476975655657572"><ele>175.0</ele><time>2026-04-12T08:58:33.999Z</time></trkpt><trkpt lat="44.31594489004312" lon="11.476850308183975"><ele>176.66666666666669</ele><time>2026-04-12T08:58:34.999Z</time></trkpt><trkpt lat="44.31587062841018" lon="11.476684632843003"><ele>178.33333333333334</ele><time>2026-04-12T08:58:35.999Z</time></trkpt><trkpt lat="44.3157920415593" lon="11.476471133613254"><ele>180.0</ele><time>2026-04-12T08:58:36.999Z</time></trkpt><trkpt lat="44.31569863945975" lon="11.47621604908701"><ele>177.66666666666666</ele><time>2026-04-12T08:58:37.999Z</time></trkpt><trkpt lat="44.315608973863306" lon="11.475979087232288"><ele>175.33333333333331</ele><time>2026-04-12T08:58:38.999Z</time></trkpt><trkpt lat="44.31552640617511" lon="11.475762522228058"><ele>173.0</ele><time>2026-04-12T08:58:39.999Z</time></trkpt><trkpt lat="44.315452534856554" lon="11.475564099642055"><ele>174.33333333333331</ele><time>2026-04-12T08:58:40.999Z</time></trkpt><trkpt lat="44.315386018527235" lon="11.475381615215374"><ele>175.66666666666666</ele><time>2026-04-12T08:58:41.999Z</time></trkpt><trkpt lat="44.3153227368172" lon="11.475195879526698"><ele>177.0</ele><time>2026-04-12T08:58:42.999Z</time></trkpt><trkpt lat="44.31526934196974" lon="11.474982918042526"><ele>177.0</ele><time>2026-04-12T08:58:43.999Z</time></trkpt><trkpt lat="44.31522040837269" lon="11.474745156562328"><ele>177.0</ele><time>2026-04-12T08:58:44.999Z</time></trkpt><trkpt lat="44.31517242077386" lon="11.474537766318994"><ele>177.0</ele><time>2026-04-12T08:58:45.999Z</time></trkpt><trkpt lat="44.31512529733846" lon="11.474340745590187"><ele>178.5</ele><time>2026-04-12T08:58:46.999Z</time></trkpt><trkpt lat="44.31508200116494" lon="11.47414314527374"><ele>180.0</ele><time>2026-04-12T08:58:47.999Z</time></trkpt><trkpt lat="44.31504724267224" lon="11.473940892477673"><ele>181.5</ele><time>2026-04-12T08:58:48.999Z</time></trkpt><trkpt lat="44.315021537665224" lon="11.473736172035183"><ele>183.0</ele><time>2026-04-12T08:58:49.999Z</time></trkpt><trkpt lat="44.31500467383394" lon="11.47353169833532"><ele>184.0</ele><time>2026-04-12T08:58:50.999Z</time></trkpt><trkpt lat="44.31498984401539" lon="11.473328541444399"><ele>185.0</ele><time>2026-04-12T08:58:51.999Z</time></trkpt><trkpt lat="44.314969759303125" lon="11.473135669312663"><ele>186.0</ele><time>2026-04-12T08:58:52.999Z</time></trkpt><trkpt lat="44.31493796818774" lon="11.472951552732603"><ele>187.0</ele><time>2026-04-12T08:58:53.999Z</time></trkpt><trkpt lat="44.314887381469816" lon="11.472771762221544"><ele>187.25</ele><time>2026-04-12T08:58:54.999Z</time></trkpt><trkpt lat="44.31481700853503" lon="11.472604853393625"><ele>187.5</ele><time>2026-04-12T08:58:55.999Z</time></trkpt><trkpt lat="44.314744948643714" lon="11.472456481240483"><ele>187.75</ele><time>2026-04-12T08:58:56.999Z</time></trkpt><trkpt lat="44.314702520726065" lon="11.472304089671034"><ele>188.0</ele><time>2026-04-12T08:58:57.999Z</time></trkpt><trkpt lat="44.31468077019052" lon="11.47214479604741"><ele>188.33333333333331</ele><time>2026-04-12T08:58:58.999Z</time></trkpt><trkpt lat="44.314683451456226" lon="11.471966388260919"><ele>188.66666666666666</ele><time>2026-04-12T08:58:59.999Z</time></trkpt><trkpt lat="44.314713242121464" lon="11.471754879123973"><ele>189.0</ele><time>2026-04-12T08:59:00.999Z</time></trkpt><trkpt lat="44.3147606404279" lon="11.471512723212356"><ele>189.0</ele><time>2026-04-12T08:59:01.999Z</time></trkpt><trkpt lat="44.31482099599244" lon="11.471255934268479"><ele>189.0</ele><time>2026-04-12T08:59:02.999Z</time></trkpt><trkpt lat="44.31489408747266" lon="11.47098823635768"><ele>189.0</ele><time>2026-04-12T08:59:03.999Z</time></trkpt><trkpt lat="44.31495880543454" lon="11.470741659395003"><ele>189.0</ele><time>2026-04-12T08:59:04.999Z</time></trkpt><trkpt lat="44.31501281670557" lon="11.470517207304633"><ele>189.0</ele><time>2026-04-12T08:59:05.999Z</time></trkpt><trkpt lat="44.315062077318856" lon="11.470309301323342"><ele>189.0</ele><time>2026-04-12T08:59:06.999Z</time></trkpt><trkpt lat="44.31510993522302" lon="11.470105079751374"><ele>188.25</ele><time>2026-04-12T08:59:07.999Z</time></trkpt><trkpt lat="44.3151585325668" lon="11.46990439911698"><ele>187.5</ele><time>2026-04-12T08:59:08.999Z</time></trkpt><trkpt lat="44.315206947381355" lon="11.46970549549783"><ele>186.75</ele><time>2026-04-12T08:59:09.999Z</time></trkpt><trkpt lat="44.31525580815678" lon="11.469514295041716"><ele>186.0</ele><time>2026-04-12T08:59:10.999Z</time></trkpt><trkpt lat="44.31530394024995" lon="11.469333467615968"><ele>185.25</ele><time>2026-04-12T08:59:11.999Z</time></trkpt><trkpt lat="44.315349649206986" lon="11.469170654614947"><ele>184.5</ele><time>2026-04-12T08:59:12.999Z</time></trkpt><trkpt lat="44.315397123135156" lon="11.469021206748566"><ele>183.75</ele><time>2026-04-12T08:59:13.998Z</time></trkpt><trkpt lat="44.31544413668695" lon="11.468879367361787"><ele>183.0</ele><time>2026-04-12T08:59:14.998Z</time></trkpt><trkpt lat="44.315488328893835" lon="11.468734761903695"><ele>183.0</ele><time>2026-04-12T08:59:15.998Z</time></trkpt><trkpt lat="44.31552870266587" lon="11.468599189776047"><ele>183.0</ele><time>2026-04-12T08:59:16.998Z</time></trkpt><trkpt lat="44.31556652018818" lon="11.468470717102512"><ele>183.0</ele><time>2026-04-12T08:59:17.998Z</time></trkpt><trkpt lat="44.315601678792476" lon="11.468349061288334"><ele>183.0</ele><time>2026-04-12T08:59:18.998Z</time></trkpt><trkpt lat="44.315635364040105" lon="11.468237230201154"><ele>183.0</ele><time>2026-04-12T08:59:19.998Z</time></trkpt><trkpt lat="44.31566653948628" lon="11.468141262085016"><ele>183.42857142857144</ele><time>2026-04-12T08:59:20.998Z</time></trkpt><trkpt lat="44.315701641050325" lon="11.468062838071383"><ele>183.85714285714286</ele><time>2026-04-12T08:59:21.998Z</time></trkpt><trkpt lat="44.31574970534825" lon="11.46800213184908"><ele>184.28571428571428</ele><time>2026-04-12T08:59:22.998Z</time></trkpt><trkpt lat="44.31580934460375" lon="11.467945648880823"><ele>184.71428571428572</ele><time>2026-04-12T08:59:23.998Z</time></trkpt><trkpt lat="44.31586839660667" lon="11.46788748893564"><ele>185.14285714285714</ele><time>2026-04-12T08:59:24.998Z</time></trkpt><trkpt lat="44.315926098772074" lon="11.467826724256147"><ele>185.57142857142858</ele><time>2026-04-12T08:59:25.998Z</time></trkpt><trkpt lat="44.3159857295452" lon="11.46776363649223"><ele>186.0</ele><time>2026-04-12T08:59:26.998Z</time></trkpt><trkpt lat="44.31605140580429" lon="11.467689496734259"><ele>186.0</ele><time>2026-04-12T08:59:27.998Z</time></trkpt><trkpt lat="44.31611696663768" lon="11.46759982025553"><ele>186.0</ele><time>2026-04-12T08:59:28.998Z</time></trkpt><trkpt lat="44.31618487803596" lon="11.467504548023252"><ele>186.0</ele><time>2026-04-12T08:59:29.998Z</time></trkpt><trkpt lat="44.316251855395244" lon="11.467412188763403"><ele>186.0</ele><time>2026-04-12T08:59:30.998Z</time></trkpt><trkpt lat="44.31631933549071" lon="11.46731489526072"><ele>186.0</ele><time>2026-04-12T08:59:31.998Z</time></trkpt><trkpt lat="44.31638006237952" lon="11.467212146807801"><ele>186.25</ele><time>2026-04-12T08:59:32.998Z</time></trkpt><trkpt lat="44.31643266958114" lon="11.467099514787446"><ele>186.5</ele><time>2026-04-12T08:59:33.998Z</time></trkpt><trkpt lat="44.31648225890132" lon="11.466967290774212"><ele>186.75</ele><time>2026-04-12T08:59:34.998Z</time></trkpt><trkpt lat="44.316536972702906" lon="11.46678505971213"><ele>187.0</ele><time>2026-04-12T08:59:35.998Z</time></trkpt><trkpt lat="44.3165984085039" lon="11.466563094334688"><ele>187.0</ele><time>2026-04-12T08:59:36.998Z</time></trkpt><trkpt lat="44.31666997513915" lon="11.46631448043688"><ele>187.0</ele><time>2026-04-12T08:59:37.998Z</time></trkpt><trkpt lat="44.316745337529795" lon="11.466054324135687"><ele>187.0</ele><time>2026-04-12T08:59:38.998Z</time></trkpt><trkpt lat="44.31680100709764" lon="11.465852122140555"><ele>187.0</ele><time>2026-04-12T08:59:39.998Z</time></trkpt><trkpt lat="44.316845309899264" lon="11.465695097847252"><ele>187.0</ele><time>2026-04-12T08:59:40.998Z</time></trkpt><trkpt lat="44.31688995604695" lon="11.46557411555374"><ele>187.0</ele><time>2026-04-12T08:59:41.998Z</time></trkpt><trkpt lat="44.31694500377247" lon="11.465469901597782"><ele>187.0</ele><time>2026-04-12T08:59:42.998Z</time></trkpt><trkpt lat="44.31701682911757" lon="11.465395139225182"><ele>187.0</ele><time>2026-04-12T08:59:43.998Z</time></trkpt><trkpt lat="44.31710309273091" lon="11.465343646486215"><ele>187.25</ele><time>2026-04-12T08:59:44.998Z</time></trkpt><trkpt lat="44.317209928839425" lon="11.465378588056234"><ele>187.5</ele><time>2026-04-12T08:59:45.998Z</time></trkpt><trkpt lat="44.31732276812429" lon="11.465410618018295"><ele>187.75</ele><time>2026-04-12T08:59:46.998Z</time></trkpt><trkpt lat="44.31746343133763" lon="11.465484177473263"><ele>188.0</ele><time>2026-04-12T08:59:47.998Z</time></trkpt><trkpt lat="44.317601891540136" lon="11.46556458384736"><ele>188.75</ele><time>2026-04-12T08:59:48.998Z</time></trkpt><trkpt lat="44.31772579595353" lon="11.465606287741695"><ele>189.5</ele><time>2026-04-12T08:59:49.998Z</time></trkpt><trkpt lat="44.31783416263574" lon="11.465636182434082"><ele>190.25</ele><time>2026-04-12T08:59:51Z</time></trkpt><trkpt lat="44.317958027488174" lon="11.46561999670055"><ele>191.0</ele><time>2026-04-12T08:59:52Z</time></trkpt><trkpt lat="44.31811739389711" lon="11.465582378907902"><ele>193.33333333333331</ele><time>2026-04-12T08:59:53Z</time></trkpt><trkpt lat="44.31829694633708" lon="11.465521641853766"><ele>195.66666666666666</ele><time>2026-04-12T08:59:54Z</time></trkpt><trkpt lat="44.31848722317185" lon="11.465499299036974"><ele>198.0</ele><time>2026-04-12T08:59:55Z</time></trkpt><trkpt lat="44.3186722101587" lon="11.46545779166938"><ele>197.0</ele><time>2026-04-12T08:59:56Z</time></trkpt><trkpt lat="44.318857351295264" lon="11.465393596568246"><ele>196.0</ele><time>2026-04-12T08:59:57Z</time></trkpt><trkpt lat="44.319021755874054" lon="11.46538106317468"><ele>195.0</ele><time>2026-04-12T08:59:58Z</time></trkpt><trkpt lat="44.31916553373569" lon="11.46532861697914"><ele>195.0</ele><time>2026-04-12T08:59:59Z</time></trkpt><trkpt lat="44.319313483962915" lon="11.465299429944963"><ele>195.0</ele><time>2026-04-12T09:00:00Z</time></trkpt><trkpt lat="44.31947020415393" lon="11.465264098309635"><ele>195.0</ele><time>2026-04-12T09:00:01Z</time></trkpt><trkpt lat="44.319638348774845" lon="11.46522652778364"><ele>195.25</ele><time>2026-04-12T09:00:02Z</time></trkpt><trkpt lat="44.31978437836334" lon="11.465195891918777"><ele>195.5</ele><time>2026-04-12T09:00:03Z</time></trkpt><trkpt lat="44.31991938186588" lon="11.465164778060554"><ele>195.75</ele><time>2026-04-12T09:00:04Z</time></trkpt><trkpt lat="44.32005664694891" lon="11.465133548926506"><ele>196.0</ele><time>2026-04-12T09:00:05Z</time></trkpt><trkpt lat="44.32019300170427" lon="11.465104592210203"><ele>196.0</ele><time>2026-04-12T09:00:06Z</time></trkpt><trkpt lat="44.3203267006918" lon="11.465076962906602"><ele>196.0</ele><time>2026-04-12T09:00:07Z</time></trkpt><trkpt lat="44.32045252668435" lon="11.465044566134035"><ele>196.0</ele><time>2026-04-12T09:00:08Z</time></trkpt><trkpt lat="44.32057472978251" lon="11.465003254581774"><ele>196.0</ele><time>2026-04-12T09:00:09Z</time></trkpt><trkpt lat="44.320698674678724" lon="11.464951392577333"><ele>196.66666666666666</ele><time>2026-04-12T09:00:10Z</time></trkpt><trkpt lat="44.32082264662767" lon="11.464887379852946"><ele>197.33333333333331</ele><time>2026-04-12T09:00:11Z</time></trkpt><trkpt lat="44.32096192398368" lon="11.464846046679197"><ele>198.0</ele><time>2026-04-12T09:00:12Z</time></trkpt><trkpt lat="44.32113318815354" lon="11.464750795980082"><ele>198.0</ele><time>2026-04-12T09:00:13Z</time></trkpt><trkpt lat="44.321323128891244" lon="11.464665824351135"><ele>198.0</ele><time>2026-04-12T09:00:14Z</time></trkpt><trkpt lat="44.32153541829042" lon="11.46460021468595"><ele>198.0</ele><time>2026-04-12T09:00:15Z</time></trkpt><trkpt lat="44.321746838774295" lon="11.464487449812218"><ele>199.0</ele><time>2026-04-12T09:00:16Z</time></trkpt><trkpt lat="44.32195254339436" lon="11.464398964683182"><ele>200.0</ele><time>2026-04-12T09:00:17Z</time></trkpt><trkpt lat="44.3221340794521" lon="11.46432225697622"><ele>201.0</ele><time>2026-04-12T09:00:18Z</time></trkpt><trkpt lat="44.3222997090242" lon="11.464254518372014"><ele>201.0</ele><time>2026-04-12T09:00:19Z</time></trkpt><trkpt lat="44.32246710450476" lon="11.464180974811105"><ele>201.0</ele><time>2026-04-12T09:00:20Z</time></trkpt><trkpt lat="44.32266210456917" lon="11.464096299868606"><ele>201.0</ele><time>2026-04-12T09:00:21Z</time></trkpt><trkpt lat="44.3228555220666" lon="11.464008841202483"><ele>201.0</ele><time>2026-04-12T09:00:21.999Z</time></trkpt><trkpt lat="44.32302681057571" lon="11.463935000094066"><ele>201.0</ele><time>2026-04-12T09:00:22.999Z</time></trkpt><trkpt lat="44.32317563552051" lon="11.463871941789591"><ele>201.0</ele><time>2026-04-12T09:00:23.999Z</time></trkpt><trkpt lat="44.323313129348925" lon="11.46381373273661"><ele>203.33333333333331</ele><time>2026-04-12T09:00:24.999Z</time></trkpt><trkpt lat="44.32346175863088" lon="11.463754148472859"><ele>205.66666666666666</ele><time>2026-04-12T09:00:25.999Z</time></trkpt><trkpt lat="44.32361743232531" lon="11.463687636916386"><ele>208.0</ele><time>2026-04-12T09:00:26.999Z</time></trkpt><trkpt lat="44.323794505158695" lon="11.463610685813165"><ele>207.75</ele><time>2026-04-12T09:00:27.999Z</time></trkpt><trkpt lat="44.3239373943052" lon="11.463548272718834"><ele>207.5</ele><time>2026-04-12T09:00:28.999Z</time></trkpt><trkpt lat="44.32406225758486" lon="11.463484453571686"><ele>207.25</ele><time>2026-04-12T09:00:29.999Z</time></trkpt><trkpt lat="44.32418964006291" lon="11.46343117932715"><ele>207.0</ele><time>2026-04-12T09:00:30.999Z</time></trkpt><trkpt lat="44.32432015246906" lon="11.463380938290959"><ele>207.0</ele><time>2026-04-12T09:00:31.999Z</time></trkpt><trkpt lat="44.32445404770915" lon="11.463347425998034"><ele>207.0</ele><time>2026-04-12T09:00:32.999Z</time></trkpt><trkpt lat="44.32459326055074" lon="11.463345481405906"><ele>207.0</ele><time>2026-04-12T09:00:33.999Z</time></trkpt><trkpt lat="44.324727619129504" lon="11.463370574665586"><ele>207.0</ele><time>2026-04-12T09:00:34.999Z</time></trkpt><trkpt lat="44.324855645228055" lon="11.463395532436301"><ele>207.6</ele><time>2026-04-12T09:00:35.999Z</time></trkpt><trkpt lat="44.32497392443448" lon="11.463403813008767"><ele>208.2</ele><time>2026-04-12T09:00:36.999Z</time></trkpt><trkpt lat="44.32507686672841" lon="11.463390784118634"><ele>208.8</ele><time>2026-04-12T09:00:37.999Z</time></trkpt><trkpt lat="44.32516796579647" lon="11.46334790959137"><ele>209.4</ele><time>2026-04-12T09:00:38.999Z</time></trkpt><trkpt lat="44.32523927864894" lon="11.463285424051056"><ele>210.0</ele><time>2026-04-12T09:00:39.999Z</time></trkpt><trkpt lat="44.32529652679837" lon="11.463201900398694"><ele>210.0</ele><time>2026-04-12T09:00:40.999Z</time></trkpt><trkpt lat="44.32535625054365" lon="11.463085001290716"><ele>210.0</ele><time>2026-04-12T09:00:41.999Z</time></trkpt><trkpt lat="44.32542768596231" lon="11.462946751895247"><ele>210.0</ele><time>2026-04-12T09:00:42.999Z</time></trkpt><trkpt lat="44.32551064301741" lon="11.46279695047006"><ele>210.0</ele><time>2026-04-12T09:00:43.999Z</time></trkpt><trkpt lat="44.32559193193326" lon="11.462652850764671"><ele>212.0</ele><time>2026-04-12T09:00:44.999Z</time></trkpt><trkpt lat="44.32568576756887" lon="11.462515493308866"><ele>214.0</ele><time>2026-04-12T09:00:45.999Z</time></trkpt><trkpt lat="44.32580799019678" lon="11.462380095217485"><ele>216.0</ele><time>2026-04-12T09:00:46.999Z</time></trkpt><trkpt lat="44.32594818930003" lon="11.462250002708648"><ele>216.0</ele><time>2026-04-12T09:00:47.999Z</time></trkpt><trkpt lat="44.32606941395988" lon="11.46213603398039"><ele>216.0</ele><time>2026-04-12T09:00:48.999Z</time></trkpt><trkpt lat="44.32618397102105" lon="11.462040708760316"><ele>216.0</ele><time>2026-04-12T09:00:49.999Z</time></trkpt><trkpt lat="44.326293424452274" lon="11.461965629517996"><ele>216.0</ele><time>2026-04-12T09:00:50.999Z</time></trkpt><trkpt lat="44.326402465817644" lon="11.461912966989978"><ele>218.33333333333331</ele><time>2026-04-12T09:00:51.999Z</time></trkpt><trkpt lat="44.32654106551346" lon="11.461874939861568"><ele>220.66666666666666</ele><time>2026-04-12T09:00:52.999Z</time></trkpt><trkpt lat="44.326702549625445" lon="11.461841152352116"><ele>223.0</ele><time>2026-04-12T09:00:53.999Z</time></trkpt><trkpt lat="44.326872850288495" lon="11.461807465069077"><ele>223.0</ele><time>2026-04-12T09:00:54.999Z</time></trkpt><trkpt lat="44.32701605933335" lon="11.461766436275267"><ele>223.0</ele><time>2026-04-12T09:00:55.999Z</time></trkpt><trkpt lat="44.32714709303303" lon="11.46173360830435"><ele>223.0</ele><time>2026-04-12T09:00:56.999Z</time></trkpt><trkpt lat="44.32728210697329" lon="11.461720254815575"><ele>223.0</ele><time>2026-04-12T09:00:57.999Z</time></trkpt><trkpt lat="44.327418501933806" lon="11.461720704109533"><ele>221.5</ele><time>2026-04-12T09:00:58.999Z</time></trkpt><trkpt lat="44.32755698377975" lon="11.461734589822065"><ele>220.0</ele><time>2026-04-12T09:00:59.999Z</time></trkpt><trkpt lat="44.32769241584874" lon="11.461762592453356"><ele>218.5</ele><time>2026-04-12T09:01:00.999Z</time></trkpt><trkpt lat="44.327821529827695" lon="11.461819418637443"><ele>217.0</ele><time>2026-04-12T09:01:01.999Z</time></trkpt><trkpt lat="44.32794052001553" lon="11.461879551365477"><ele>218.0</ele><time>2026-04-12T09:01:02.999Z</time></trkpt><trkpt lat="44.32806322544695" lon="11.461936227596553"><ele>219.0</ele><time>2026-04-12T09:01:03.999Z</time></trkpt><trkpt lat="44.32817670058545" lon="11.461991888618217"><ele>220.0</ele><time>2026-04-12T09:01:04.999Z</time></trkpt><trkpt lat="44.32828248717657" lon="11.462045330665584"><ele>221.0</ele><time>2026-04-12T09:01:05.999Z</time></trkpt><trkpt lat="44.32838540888428" lon="11.46207793774961"><ele>221.0</ele><time>2026-04-12T09:01:06.999Z</time></trkpt><trkpt lat="44.328493666842746" lon="11.462080626353599"><ele>221.0</ele><time>2026-04-12T09:01:07.999Z</time></trkpt><trkpt lat="44.32861918531956" lon="11.46202845771865"><ele>221.0</ele><time>2026-04-12T09:01:08.999Z</time></trkpt><trkpt lat="44.32879072029562" lon="11.461959634055825"><ele>221.0</ele><time>2026-04-12T09:01:09.999Z</time></trkpt><trkpt lat="44.32896739824234" lon="11.461896944848132"><ele>221.25</ele><time>2026-04-12T09:01:10.999Z</time></trkpt><trkpt lat="44.329113707176795" lon="11.461852155384067"><ele>221.5</ele><time>2026-04-12T09:01:11.999Z</time></trkpt><trkpt lat="44.32924599376455" lon="11.461817850156026"><ele>221.75</ele><time>2026-04-12T09:01:12.999Z</time></trkpt><trkpt lat="44.32936437182649" lon="11.46177869249549"><ele>222.0</ele><time>2026-04-12T09:01:13.999Z</time></trkpt><trkpt lat="44.32947577047571" lon="11.461720801083432"><ele>222.0</ele><time>2026-04-12T09:01:14.999Z</time></trkpt><trkpt lat="44.32959134061243" lon="11.461628436423021"><ele>222.0</ele><time>2026-04-12T09:01:15.999Z</time></trkpt><trkpt lat="44.329706006906704" lon="11.461511934668874"><ele>222.0</ele><time>2026-04-12T09:01:16.999Z</time></trkpt><trkpt lat="44.32981722550756" lon="11.461382374402033"><ele>222.0</ele><time>2026-04-12T09:01:17.999Z</time></trkpt><trkpt lat="44.32991807963773" lon="11.461243608459757"><ele>222.0</ele><time>2026-04-12T09:01:18.999Z</time></trkpt><trkpt lat="44.33001419231746" lon="11.461109183746114"><ele>222.0</ele><time>2026-04-12T09:01:19.999Z</time></trkpt><trkpt lat="44.33010877318316" lon="11.46099117112858"><ele>222.0</ele><time>2026-04-12T09:01:20.999Z</time></trkpt><trkpt lat="44.33021609459523" lon="11.460890625628753"><ele>222.0</ele><time>2026-04-12T09:01:21.999Z</time></trkpt><trkpt lat="44.3303361479181" lon="11.460801288590377"><ele>222.0</ele><time>2026-04-12T09:01:22.998Z</time></trkpt><trkpt lat="44.33045854184081" lon="11.460736761458993"><ele>222.0</ele><time>2026-04-12T09:01:23.998Z</time></trkpt><trkpt lat="44.33058564015832" lon="11.460673466122461"><ele>222.0</ele><time>2026-04-12T09:01:24.998Z</time></trkpt><trkpt lat="44.330704169319695" lon="11.460596219771974"><ele>222.0</ele><time>2026-04-12T09:01:25.998Z</time></trkpt><trkpt lat="44.33080359107637" lon="11.460517466848284"><ele>224.5</ele><time>2026-04-12T09:01:26.998Z</time></trkpt><trkpt lat="44.33089189523107" lon="11.460445500733092"><ele>227.0</ele><time>2026-04-12T09:01:27.998Z</time></trkpt><trkpt lat="44.33098375208109" lon="11.460396993155415"><ele>229.5</ele><time>2026-04-12T09:01:28.998Z</time></trkpt><trkpt lat="44.33109981338523" lon="11.460410827695636"><ele>232.0</ele><time>2026-04-12T09:01:29.998Z</time></trkpt><trkpt lat="44.33124191153024" lon="11.460436588001576"><ele>232.0</ele><time>2026-04-12T09:01:30.998Z</time></trkpt><trkpt lat="44.33137447801103" lon="11.460435015311656"><ele>232.0</ele><time>2026-04-12T09:01:31.998Z</time></trkpt><trkpt lat="44.33150198760534" lon="11.460422890009163"><ele>232.0</ele><time>2026-04-12T09:01:32.998Z</time></trkpt><trkpt lat="44.3316628735184" lon="11.460409563614515"><ele>232.0</ele><time>2026-04-12T09:01:33.998Z</time></trkpt><trkpt lat="44.3318530234118" lon="11.460368778336502"><ele>231.66666666666666</ele><time>2026-04-12T09:01:34.998Z</time></trkpt><trkpt lat="44.33201702967949" lon="11.460318864429992"><ele>231.33333333333331</ele><time>2026-04-12T09:01:35.998Z</time></trkpt><trkpt lat="44.33216575135188" lon="11.460296857834312"><ele>231.0</ele><time>2026-04-12T09:01:36.998Z</time></trkpt><trkpt lat="44.33230334199605" lon="11.460276485880406"><ele>231.5</ele><time>2026-04-12T09:01:37.998Z</time></trkpt><trkpt lat="44.332432252594025" lon="11.460257596341062"><ele>232.0</ele><time>2026-04-12T09:01:38.998Z</time></trkpt><trkpt lat="44.33254810656878" lon="11.460239526145346"><ele>232.5</ele><time>2026-04-12T09:01:39.998Z</time></trkpt><trkpt lat="44.33266240007708" lon="11.460219480645883"><ele>233.0</ele><time>2026-04-12T09:01:40.998Z</time></trkpt><trkpt lat="44.33277480497783" lon="11.460202972395301"><ele>233.0</ele><time>2026-04-12T09:01:41.998Z</time></trkpt><trkpt lat="44.332874075206135" lon="11.460185157560357"><ele>233.0</ele><time>2026-04-12T09:01:42.998Z</time></trkpt><trkpt lat="44.33297463743129" lon="11.460152513292101"><ele>233.0</ele><time>2026-04-12T09:01:43.998Z</time></trkpt><trkpt lat="44.33307580808304" lon="11.460136282607122"><ele>233.0</ele><time>2026-04-12T09:01:44.998Z</time></trkpt><trkpt lat="44.33318564454118" lon="11.46002333611284"><ele>233.0</ele><time>2026-04-12T09:01:45.998Z</time></trkpt><trkpt lat="44.333295372871" lon="11.459845165411565"><ele>233.5</ele><time>2026-04-12T09:01:46.998Z</time></trkpt><trkpt lat="44.333395471466346" lon="11.459694861891274"><ele>234.0</ele><time>2026-04-12T09:01:47.998Z</time></trkpt><trkpt lat="44.333476939112934" lon="11.45955685369102"><ele>234.5</ele><time>2026-04-12T09:01:48.998Z</time></trkpt><trkpt lat="44.333546722214784" lon="11.459428804103943"><ele>235.0</ele><time>2026-04-12T09:01:49.998Z</time></trkpt><trkpt lat="44.333613562452726" lon="11.459281666809751"><ele>235.75</ele><time>2026-04-12T09:01:50.998Z</time></trkpt><trkpt lat="44.333669913246894" lon="11.459122969373176"><ele>236.5</ele><time>2026-04-12T09:01:51.998Z</time></trkpt><trkpt lat="44.333711332685965" lon="11.458962555851611"><ele>237.25</ele><time>2026-04-12T09:01:52.998Z</time></trkpt><trkpt lat="44.33375699598269" lon="11.458796025223904"><ele>238.0</ele><time>2026-04-12T09:01:53.998Z</time></trkpt><trkpt lat="44.33376201462728" lon="11.458606952455261"><ele>239.0</ele><time>2026-04-12T09:01:54.998Z</time></trkpt><trkpt lat="44.33377134871807" lon="11.458423664571304"><ele>240.0</ele><time>2026-04-12T09:01:55.998Z</time></trkpt><trkpt lat="44.33377957940656" lon="11.458259631719685"><ele>241.0</ele><time>2026-04-12T09:01:57Z</time></trkpt><trkpt lat="44.333825828439366" lon="11.458134415139492"><ele>242.0</ele><time>2026-04-12T09:01:58Z</time></trkpt><trkpt lat="44.33387037100886" lon="11.458023555951643"><ele>243.0</ele><time>2026-04-12T09:01:59Z</time></trkpt><trkpt lat="44.33395715271175" lon="11.45791324632075"><ele>243.66666666666669</ele><time>2026-04-12T09:02:00Z</time></trkpt><trkpt lat="44.33405056666519" lon="11.457721883555807"><ele>244.33333333333334</ele><time>2026-04-12T09:02:01Z</time></trkpt><trkpt lat="44.3341425277324" lon="11.457541280504262"><ele>245.0</ele><time>2026-04-12T09:02:02Z</time></trkpt><trkpt lat="44.334207627236836" lon="11.457358460109262"><ele>245.0</ele><time>2026-04-12T09:02:03Z</time></trkpt><trkpt lat="44.33426898412984" lon="11.457176942046331"><ele>245.0</ele><time>2026-04-12T09:02:04Z</time></trkpt><trkpt lat="44.33431561177514" lon="11.45700088084146"><ele>245.0</ele><time>2026-04-12T09:02:05Z</time></trkpt><trkpt lat="44.33437422416039" lon="11.456857933147855"><ele>245.0</ele><time>2026-04-12T09:02:06Z</time></trkpt><trkpt lat="44.33443690922852" lon="11.456737214516167"><ele>244.75</ele><time>2026-04-12T09:02:07Z</time></trkpt><trkpt lat="44.334492187642574" lon="11.456623211098409"><ele>244.5</ele><time>2026-04-12T09:02:08Z</time></trkpt><trkpt lat="44.33452185002776" lon="11.456493152353284"><ele>244.25</ele><time>2026-04-12T09:02:09Z</time></trkpt><trkpt lat="44.33453231539936" lon="11.456327926217206"><ele>244.0</ele><time>2026-04-12T09:02:10Z</time></trkpt><trkpt lat="44.33451561696633" lon="11.456121557639602"><ele>244.0</ele><time>2026-04-12T09:02:11Z</time></trkpt><trkpt lat="44.33447375656889" lon="11.455871366318446"><ele>244.0</ele><time>2026-04-12T09:02:12Z</time></trkpt><trkpt lat="44.33441404498526" lon="11.455576999315806"><ele>244.0</ele><time>2026-04-12T09:02:13Z</time></trkpt><trkpt lat="44.33434937908634" lon="11.455280634982074"><ele>246.25</ele><time>2026-04-12T09:02:14Z</time></trkpt><trkpt lat="44.334294024378316" lon="11.455049473187241"><ele>248.5</ele><time>2026-04-12T09:02:15Z</time></trkpt><trkpt lat="44.33425607087516" lon="11.454874205663389"><ele>250.75</ele><time>2026-04-12T09:02:16Z</time></trkpt><trkpt lat="44.33422929472299" lon="11.454715018343176"><ele>253.0</ele><time>2026-04-12T09:02:17Z</time></trkpt><trkpt lat="44.33420509246906" lon="11.454580512185354"><ele>254.25</ele><time>2026-04-12T09:02:18Z</time></trkpt><trkpt lat="44.33417891862499" lon="11.454493618558162"><ele>255.5</ele><time>2026-04-12T09:02:19Z</time></trkpt><trkpt lat="44.334053310755365" lon="11.454452261197648"><ele>256.75</ele><time>2026-04-12T09:02:21Z</time></trkpt><trkpt lat="44.33394543366612" lon="11.454476571308556"><ele>258.0</ele><time>2026-04-12T09:02:22Z</time></trkpt><trkpt lat="44.333778039937414" lon="11.454540862739838"><ele>260.0</ele><time>2026-04-12T09:02:23Z</time></trkpt><trkpt lat="44.33360616264247" lon="11.454602803670305"><ele>262.0</ele><time>2026-04-12T09:02:24Z</time></trkpt><trkpt lat="44.33348615644418" lon="11.454701751575538"><ele>264.0</ele><time>2026-04-12T09:02:25Z</time></trkpt><trkpt lat="44.33339641915929" lon="11.454749263669816"><ele>266.0</ele><time>2026-04-12T09:02:26Z</time></trkpt><trkpt lat="44.33332437199127" lon="11.454804050464832"><ele>266.2</ele><time>2026-04-12T09:02:27Z</time></trkpt><trkpt lat="44.33325935966207" lon="11.454847025030197"><ele>266.40000000000003</ele><time>2026-04-12T09:02:28Z</time></trkpt><trkpt lat="44.333134874197796" lon="11.454837841311798"><ele>266.6</ele><time>2026-04-12T09:02:30Z</time></trkpt><trkpt lat="44.33308390640419" lon="11.45474633789432"><ele>266.8</ele><time>2026-04-12T09:02:31Z</time></trkpt><trkpt lat="44.333038982131775" lon="11.454600196588109"><ele>267.0</ele><time>2026-04-12T09:02:32Z</time></trkpt><trkpt lat="44.33298823167421" lon="11.454381671477359"><ele>271.8</ele><time>2026-04-12T09:02:33Z</time></trkpt><trkpt lat="44.332946636674514" lon="11.454190705407118"><ele>276.6</ele><time>2026-04-12T09:02:33.999Z</time></trkpt><trkpt lat="44.33291478931435" lon="11.45405948820694"><ele>281.40000000000003</ele><time>2026-04-12T09:02:34.999Z</time></trkpt><trkpt lat="44.33287547145089" lon="11.453989403832512"><ele>286.2</ele><time>2026-04-12T09:02:35.999Z</time></trkpt><trkpt lat="44.33276477916658" lon="11.453925860260723"><ele>291.0</ele><time>2026-04-12T09:02:37.999Z</time></trkpt><trkpt lat="44.332691028761644" lon="11.453959364296862"><ele>291.0</ele><time>2026-04-12T09:02:38.999Z</time></trkpt><trkpt lat="44.332636825206365" lon="11.454073207654789"><ele>291.0</ele><time>2026-04-12T09:02:39.999Z</time></trkpt><trkpt lat="44.332606984216795" lon="11.454247849525103"><ele>291.0</ele><time>2026-04-12T09:02:40.999Z</time></trkpt><trkpt lat="44.332601957436495" lon="11.45447501520175"><ele>291.0</ele><time>2026-04-12T09:02:41.999Z</time></trkpt><trkpt lat="44.3325873371442" lon="11.454657218764412"><ele>291.2</ele><time>2026-04-12T09:02:42.999Z</time></trkpt><trkpt lat="44.3325656026609" lon="11.454770256645054"><ele>291.40000000000003</ele><time>2026-04-12T09:02:43.999Z</time></trkpt><trkpt lat="44.33252399813409" lon="11.454890960747873"><ele>291.6</ele><time>2026-04-12T09:02:45.999Z</time></trkpt><trkpt lat="44.332411006609156" lon="11.454933254240983"><ele>291.8</ele><time>2026-04-12T09:02:47.999Z</time></trkpt><trkpt lat="44.332317141540976" lon="11.454875275152428"><ele>292.0</ele><time>2026-04-12T09:02:48.999Z</time></trkpt><trkpt lat="44.33222409822646" lon="11.454809260375557"><ele>295.0</ele><time>2026-04-12T09:02:49.999Z</time></trkpt><trkpt lat="44.33210914126226" lon="11.454752263502227"><ele>298.0</ele><time>2026-04-12T09:02:50.999Z</time></trkpt><trkpt lat="44.33199766488785" lon="11.45466627438302"><ele>301.0</ele><time>2026-04-12T09:02:51.999Z</time></trkpt><trkpt lat="44.33191387564545" lon="11.454610186553868"><ele>304.0</ele><time>2026-04-12T09:02:52.999Z</time></trkpt><trkpt lat="44.331842075667005" lon="11.45457128315545"><ele>307.0</ele><time>2026-04-12T09:02:53.999Z</time></trkpt><trkpt lat="44.33176190883056" lon="11.454549609955592"><ele>307.0</ele><time>2026-04-12T09:02:54.999Z</time></trkpt><trkpt lat="44.33167748737375" lon="11.454539805232066"><ele>307.0</ele><time>2026-04-12T09:02:55.999Z</time></trkpt><trkpt lat="44.33159074969273" lon="11.45455378628152"><ele>307.0</ele><time>2026-04-12T09:02:56.999Z</time></trkpt><trkpt lat="44.331497172673004" lon="11.454589369852563"><ele>307.0</ele><time>2026-04-12T09:02:57.999Z</time></trkpt><trkpt lat="44.3314066425319" lon="11.454638098475765"><ele>307.0</ele><time>2026-04-12T09:02:58.999Z</time></trkpt><trkpt lat="44.331311725543486" lon="11.454700209292596"><ele>311.25</ele><time>2026-04-12T09:02:59.999Z</time></trkpt><trkpt lat="44.331224873025576" lon="11.454781689952252"><ele>315.5</ele><time>2026-04-12T09:03:00.999Z</time></trkpt><trkpt lat="44.33114311309651" lon="11.454892799949524"><ele>319.75</ele><time>2026-04-12T09:03:01.999Z</time></trkpt><trkpt lat="44.33103159144076" lon="11.455018261154652"><ele>324.0</ele><time>2026-04-12T09:03:02.999Z</time></trkpt><trkpt lat="44.33091943074322" lon="11.455189715023105"><ele>324.0</ele><time>2026-04-12T09:03:03.999Z</time></trkpt><trkpt lat="44.33081869012156" lon="11.455304038465318"><ele>324.0</ele><time>2026-04-12T09:03:04.999Z</time></trkpt><trkpt lat="44.3307425037717" lon="11.455400209872842"><ele>324.0</ele><time>2026-04-12T09:03:05.999Z</time></trkpt><trkpt lat="44.33066836927575" lon="11.45548719346744"><ele>324.0</ele><time>2026-04-12T09:03:06.999Z</time></trkpt><trkpt lat="44.33059687800905" lon="11.455565007883209"><ele>324.0</ele><time>2026-04-12T09:03:07.999Z</time></trkpt><trkpt lat="44.330528814209984" lon="11.455642794268604"><ele>324.8333333333333</ele><time>2026-04-12T09:03:08.999Z</time></trkpt><trkpt lat="44.33046639282501" lon="11.455708986686007"><ele>325.6666666666667</ele><time>2026-04-12T09:03:09.999Z</time></trkpt><trkpt lat="44.330412801853804" lon="11.455764085960682"><ele>326.5</ele><time>2026-04-12T09:03:10.999Z</time></trkpt><trkpt lat="44.330312726135524" lon="11.45582015314524"><ele>327.33333333333337</ele><time>2026-04-12T09:03:12.999Z</time></trkpt><trkpt lat="44.33025003542724" lon="11.455796253984532"><ele>328.1666666666667</ele><time>2026-04-12T09:03:13.999Z</time></trkpt><trkpt lat="44.33019048183676" lon="11.45570300840845"><ele>329.0</ele><time>2026-04-12T09:03:14.999Z</time></trkpt><trkpt lat="44.330160645545405" lon="11.455606312671224"><ele>329.0</ele><time>2026-04-12T09:03:15.999Z</time></trkpt><trkpt lat="44.330132817858036" lon="11.455484528987867"><ele>329.0</ele><time>2026-04-12T09:03:16.999Z</time></trkpt><trkpt lat="44.330105386441744" lon="11.455365135778171"><ele>329.0</ele><time>2026-04-12T09:03:17.999Z</time></trkpt><trkpt lat="44.330069875385014" lon="11.455225455418038"><ele>329.0</ele><time>2026-04-12T09:03:18.999Z</time></trkpt><trkpt lat="44.330022396288676" lon="11.45505025792949"><ele>329.0</ele><time>2026-04-12T09:03:19.999Z</time></trkpt><trkpt lat="44.32997172549913" lon="11.454882301343673"><ele>331.0</ele><time>2026-04-12T09:03:20.999Z</time></trkpt><trkpt lat="44.32991267676213" lon="11.454716977658126"><ele>333.0</ele><time>2026-04-12T09:03:21.999Z</time></trkpt><trkpt lat="44.32983507870934" lon="11.454548242521042"><ele>335.0</ele><time>2026-04-12T09:03:22.999Z</time></trkpt><trkpt lat="44.32975904114637" lon="11.454377430591625"><ele>337.0</ele><time>2026-04-12T09:03:23.999Z</time></trkpt><trkpt lat="44.329685921733955" lon="11.45421073194577"><ele>339.75</ele><time>2026-04-12T09:03:24.999Z</time></trkpt><trkpt lat="44.329616082139374" lon="11.454059814861267"><ele>342.5</ele><time>2026-04-12T09:03:25.999Z</time></trkpt><trkpt lat="44.329547659049226" lon="11.453911451400824"><ele>345.25</ele><time>2026-04-12T09:03:26.999Z</time></trkpt><trkpt lat="44.32948558021107" lon="11.453762691620351"><ele>348.0</ele><time>2026-04-12T09:03:27.999Z</time></trkpt><trkpt lat="44.32941979914312" lon="11.453630567262376"><ele>352.0</ele><time>2026-04-12T09:03:28.999Z</time></trkpt><trkpt lat="44.32936152220593" lon="11.453498997124857"><ele>356.0</ele><time>2026-04-12T09:03:29.999Z</time></trkpt><trkpt lat="44.32929523812643" lon="11.453353555137783"><ele>360.0</ele><time>2026-04-12T09:03:30.999Z</time></trkpt><trkpt lat="44.329201571561434" lon="11.453154331244"><ele>364.0</ele><time>2026-04-12T09:03:31.998Z</time></trkpt><trkpt lat="44.32911992621127" lon="11.452971326022757"><ele>365.0</ele><time>2026-04-12T09:03:32.998Z</time></trkpt><trkpt lat="44.329071645972334" lon="11.452810028340853"><ele>366.0</ele><time>2026-04-12T09:03:33.998Z</time></trkpt><trkpt lat="44.329009897125594" lon="11.452689334311657"><ele>367.0</ele><time>2026-04-12T09:03:34.998Z</time></trkpt><trkpt lat="44.328974556938526" lon="11.452569855865336"><ele>368.0</ele><time>2026-04-12T09:03:35.998Z</time></trkpt><trkpt lat="44.328951824554295" lon="11.452454295238779"><ele>369.0</ele><time>2026-04-12T09:03:36.998Z</time></trkpt><trkpt lat="44.32898265844802" lon="11.452341400878915"><ele>369.0</ele><time>2026-04-12T09:03:37.998Z</time></trkpt><trkpt lat="44.32900484227222" lon="11.452171502207241"><ele>369.0</ele><time>2026-04-12T09:03:38.998Z</time></trkpt><trkpt lat="44.32906627287473" lon="11.451980333514982"><ele>369.0</ele><time>2026-04-12T09:03:39.998Z</time></trkpt><trkpt lat="44.32912866160182" lon="11.451811538151928"><ele>369.0</ele><time>2026-04-12T09:03:40.998Z</time></trkpt><trkpt lat="44.32916615587342" lon="11.451676654539005"><ele>370.0</ele><time>2026-04-12T09:03:41.998Z</time></trkpt><trkpt lat="44.32916440077782" lon="11.45155063645924"><ele>371.0</ele><time>2026-04-12T09:03:42.998Z</time></trkpt><trkpt lat="44.329139293073304" lon="11.451402689624294"><ele>372.0</ele><time>2026-04-12T09:03:43.998Z</time></trkpt><trkpt lat="44.32908909101774" lon="11.451236734830616"><ele>373.0</ele><time>2026-04-12T09:03:44.998Z</time></trkpt><trkpt lat="44.32903399713879" lon="11.451008899151688"><ele>372.0</ele><time>2026-04-12T09:03:45.998Z</time></trkpt><trkpt lat="44.32895060957842" lon="11.450738600810391"><ele>371.0</ele><time>2026-04-12T09:03:46.998Z</time></trkpt><trkpt lat="44.328885274603564" lon="11.450511260572835"><ele>370.0</ele><time>2026-04-12T09:03:47.998Z</time></trkpt><trkpt lat="44.32883914050623" lon="11.450311124854325"><ele>374.3333333333333</ele><time>2026-04-12T09:03:48.998Z</time></trkpt><trkpt lat="44.328793348193194" lon="11.450121367947213"><ele>378.6666666666667</ele><time>2026-04-12T09:03:49.998Z</time></trkpt><trkpt lat="44.32873959684218" lon="11.449937804654141"><ele>383.0</ele><time>2026-04-12T09:03:50.998Z</time></trkpt><trkpt lat="44.32867020434415" lon="11.449720202222016"><ele>385.79999999999995</ele><time>2026-04-12T09:03:51.998Z</time></trkpt><trkpt lat="44.32861117834466" lon="11.449539353199368"><ele>388.6</ele><time>2026-04-12T09:03:52.998Z</time></trkpt><trkpt lat="44.32857117840554" lon="11.449412862286346"><ele>391.4</ele><time>2026-04-12T09:03:53.998Z</time></trkpt><trkpt lat="44.328517929319204" lon="11.449315350991693"><ele>394.20000000000005</ele><time>2026-04-12T09:03:54.998Z</time></trkpt><trkpt lat="44.32844488662761" lon="11.449246861050673"><ele>397.0</ele><time>2026-04-12T09:03:55.998Z</time></trkpt><trkpt lat="44.328358284635826" lon="11.44920237442236"><ele>397.00000000000006</ele><time>2026-04-12T09:03:56.998Z</time></trkpt><trkpt lat="44.32828436980062" lon="11.449170951486366"><ele>397.0</ele><time>2026-04-12T09:03:57.998Z</time></trkpt><trkpt lat="44.32817028327699" lon="11.449090636008627"><ele>397.0</ele><time>2026-04-12T09:03:59.998Z</time></trkpt><trkpt lat="44.3281273280187" lon="11.449011923446683"><ele>397.0</ele><time>2026-04-12T09:04:00.998Z</time></trkpt><trkpt lat="44.32812695355406" lon="11.44890025979184"><ele>397.00000000000006</ele><time>2026-04-12T09:04:01.998Z</time></trkpt><trkpt lat="44.32811812675228" lon="11.448777205612172"><ele>397.0</ele><time>2026-04-12T09:04:03Z</time></trkpt><trkpt lat="44.32810757914926" lon="11.44862477492755"><ele>397.6</ele><time>2026-04-12T09:04:04Z</time></trkpt><trkpt lat="44.32809646684668" lon="11.44846425759602"><ele>398.20000000000005</ele><time>2026-04-12T09:04:05Z</time></trkpt><trkpt lat="44.32806924145642" lon="11.44831461406486"><ele>398.8</ele><time>2026-04-12T09:04:06Z</time></trkpt><trkpt lat="44.32806027037119" lon="11.448168038889845"><ele>399.4</ele><time>2026-04-12T09:04:07Z</time></trkpt><trkpt lat="44.32804391987208" lon="11.448005258166093"><ele>400.0</ele><time>2026-04-12T09:04:08Z</time></trkpt><trkpt lat="44.328011199570426" lon="11.447797579133494"><ele>402.75</ele><time>2026-04-12T09:04:09Z</time></trkpt><trkpt lat="44.327988247111456" lon="11.447588362996564"><ele>405.5</ele><time>2026-04-12T09:04:10Z</time></trkpt><trkpt lat="44.327970462409375" lon="11.447417336468707"><ele>408.25</ele><time>2026-04-12T09:04:11Z</time></trkpt><trkpt lat="44.32795130717095" lon="11.447278628533317"><ele>411.0</ele><time>2026-04-12T09:04:12Z</time></trkpt><trkpt lat="44.327922765587374" lon="11.447164968563822"><ele>415.25</ele><time>2026-04-12T09:04:13Z</time></trkpt><trkpt lat="44.327873655445764" lon="11.447037502645916"><ele>419.5</ele><time>2026-04-12T09:04:14Z</time></trkpt><trkpt lat="44.327792275506646" lon="11.446864414941475"><ele>423.75</ele><time>2026-04-12T09:04:15Z</time></trkpt><trkpt lat="44.32770323403167" lon="11.446654653997244"><ele>428.0</ele><time>2026-04-12T09:04:16Z</time></trkpt><trkpt lat="44.32762660091425" lon="11.446476641318691"><ele>428.0</ele><time>2026-04-12T09:04:17Z</time></trkpt><trkpt lat="44.32756264652698" lon="11.446325942156236"><ele>428.0</ele><time>2026-04-12T09:04:18Z</time></trkpt><trkpt lat="44.32751887288377" lon="11.446132741473173"><ele>428.0</ele><time>2026-04-12T09:04:19Z</time></trkpt><trkpt lat="44.32746293954712" lon="11.445966519486358"><ele>428.0</ele><time>2026-04-12T09:04:20Z</time></trkpt><trkpt lat="44.32737674820198" lon="11.445837280094088"><ele>431.0</ele><time>2026-04-12T09:04:21Z</time></trkpt><trkpt lat="44.3272558795445" lon="11.445716186219634"><ele>434.0</ele><time>2026-04-12T09:04:22Z</time></trkpt><trkpt lat="44.32712755411425" lon="11.445625017904675"><ele>437.0</ele><time>2026-04-12T09:04:23Z</time></trkpt><trkpt lat="44.32701824376199" lon="11.445544389382711"><ele>440.0</ele><time>2026-04-12T09:04:24Z</time></trkpt><trkpt lat="44.32694503978238" lon="11.445442175346086"><ele>444.25</ele><time>2026-04-12T09:04:25Z</time></trkpt><trkpt lat="44.32689088379512" lon="11.445313532438522"><ele>448.5</ele><time>2026-04-12T09:04:26Z</time></trkpt><trkpt lat="44.32684257910059" lon="11.44516315906793"><ele>452.75</ele><time>2026-04-12T09:04:27Z</time></trkpt><trkpt lat="44.32678351627732" lon="11.44496650729397"><ele>457.0</ele><time>2026-04-12T09:04:28Z</time></trkpt><trkpt lat="44.326693194951154" lon="11.444816537315189"><ele>457.0</ele><time>2026-04-12T09:04:29Z</time></trkpt><trkpt lat="44.32659151573383" lon="11.444694386886797"><ele>457.00000000000006</ele><time>2026-04-12T09:04:30Z</time></trkpt><trkpt lat="44.32651398644992" lon="11.444600895329128"><ele>457.00000000000006</ele><time>2026-04-12T09:04:31Z</time></trkpt><trkpt lat="44.3264640916382" lon="11.444510159502112"><ele>457.0</ele><time>2026-04-12T09:04:32Z</time></trkpt><trkpt lat="44.32642238329666" lon="11.44441003841835"><ele>457.0</ele><time>2026-04-12T09:04:33Z</time></trkpt><trkpt lat="44.32639063346789" lon="11.44429163392996"><ele>457.25</ele><time>2026-04-12T09:04:34Z</time></trkpt><trkpt lat="44.32636680831851" lon="11.444162732239182"><ele>457.5</ele><time>2026-04-12T09:04:35Z</time></trkpt><trkpt lat="44.32634822720552" lon="11.444017514731284"><ele>457.75</ele><time>2026-04-12T09:04:36Z</time></trkpt><trkpt lat="44.32631063483102" lon="11.443830078052326"><ele>458.0</ele><time>2026-04-12T09:04:37Z</time></trkpt><trkpt lat="44.32625797802521" lon="11.44359003303505"><ele>460.75</ele><time>2026-04-12T09:04:38Z</time></trkpt><trkpt lat="44.32620476046608" lon="11.443384950867792"><ele>463.5</ele><time>2026-04-12T09:04:39Z</time></trkpt><trkpt lat="44.3261720354974" lon="11.443235525382264"><ele>466.25</ele><time>2026-04-12T09:04:39.999Z</time></trkpt><trkpt lat="44.32613438546404" lon="11.443101006444317"><ele>469.0</ele><time>2026-04-12T09:04:40.999Z</time></trkpt><trkpt lat="44.32609969130087" lon="11.442980612889295"><ele>471.6</ele><time>2026-04-12T09:04:41.999Z</time></trkpt><trkpt lat="44.32606087907974" lon="11.44286184522534"><ele>474.2</ele><time>2026-04-12T09:04:42.999Z</time></trkpt><trkpt lat="44.326020422603186" lon="11.442750536216922"><ele>476.80000000000007</ele><time>2026-04-12T09:04:43.999Z</time></trkpt><trkpt lat="44.325960727843615" lon="11.442641939564103"><ele>479.40000000000003</ele><time>2026-04-12T09:04:44.999Z</time></trkpt><trkpt lat="44.325867107625804" lon="11.442522470711145"><ele>482.0</ele><time>2026-04-12T09:04:45.999Z</time></trkpt><trkpt lat="44.32572629733521" lon="11.442376438131099"><ele>482.0</ele><time>2026-04-12T09:04:46.999Z</time></trkpt><trkpt lat="44.32556260750465" lon="11.442241346373425"><ele>482.0</ele><time>2026-04-12T09:04:47.999Z</time></trkpt><trkpt lat="44.32542308771904" lon="11.442139997004915"><ele>482.0</ele><time>2026-04-12T09:04:48.999Z</time></trkpt><trkpt lat="44.325306039662166" lon="11.44205528405003"><ele>483.8</ele><time>2026-04-12T09:04:49.999Z</time></trkpt><trkpt lat="44.325202632530264" lon="11.441987534509243"><ele>485.6</ele><time>2026-04-12T09:04:50.999Z</time></trkpt><trkpt lat="44.32510220158508" lon="11.441913233055493"><ele>487.40000000000003</ele><time>2026-04-12T09:04:51.999Z</time></trkpt><trkpt lat="44.32500747290995" lon="11.441841676642753"><ele>489.20000000000005</ele><time>2026-04-12T09:04:52.999Z</time></trkpt><trkpt lat="44.32491647713547" lon="11.441778164731367"><ele>491.0</ele><time>2026-04-12T09:04:53.999Z</time></trkpt><trkpt lat="44.324828329238585" lon="11.441711558936174"><ele>491.0</ele><time>2026-04-12T09:04:54.999Z</time></trkpt><trkpt lat="44.32473990783108" lon="11.44163639693706"><ele>491.0</ele><time>2026-04-12T09:04:55.999Z</time></trkpt><trkpt lat="44.324659915781865" lon="11.441549904358055"><ele>491.0</ele><time>2026-04-12T09:04:56.999Z</time></trkpt><trkpt lat="44.324581503107666" lon="11.441452143009275"><ele>491.0</ele><time>2026-04-12T09:04:57.999Z</time></trkpt><trkpt lat="44.324509774386875" lon="11.441342326334915"><ele>491.0</ele><time>2026-04-12T09:04:58.999Z</time></trkpt><trkpt lat="44.32443734582776" lon="11.441224153979423"><ele>491.8333333333333</ele><time>2026-04-12T09:04:59.999Z</time></trkpt><trkpt lat="44.32436481699356" lon="11.441101173887802"><ele>492.66666666666663</ele><time>2026-04-12T09:05:00.999Z</time></trkpt><trkpt lat="44.324306795292244" lon="11.440984803918239"><ele>493.5</ele><time>2026-04-12T09:05:01.999Z</time></trkpt><trkpt lat="44.324262719665874" lon="11.440881523972644"><ele>494.33333333333337</ele><time>2026-04-12T09:05:02.999Z</time></trkpt><trkpt lat="44.32421998678827" lon="11.440787855160922"><ele>495.1666666666667</ele><time>2026-04-12T09:05:03.999Z</time></trkpt><trkpt lat="44.324182482419566" lon="11.440707903885126"><ele>496.0</ele><time>2026-04-12T09:05:04.999Z</time></trkpt><trkpt lat="44.32414081489534" lon="11.440626863135508"><ele>496.00000000000006</ele><time>2026-04-12T09:05:05.999Z</time></trkpt><trkpt lat="44.3241023296653" lon="11.440539163682564"><ele>496.0</ele><time>2026-04-12T09:05:06.999Z</time></trkpt><trkpt lat="44.32406335773974" lon="11.44045238445219"><ele>496.0</ele><time>2026-04-12T09:05:07.999Z</time></trkpt><trkpt lat="44.32401284408556" lon="11.440369482973987"><ele>496.0</ele><time>2026-04-12T09:05:08.999Z</time></trkpt><trkpt lat="44.32395757268727" lon="11.44028355671631"><ele>496.00000000000006</ele><time>2026-04-12T09:05:09.999Z</time></trkpt><trkpt lat="44.32389263211994" lon="11.440198488239274"><ele>496.0</ele><time>2026-04-12T09:05:10.999Z</time></trkpt><trkpt lat="44.323813661626865" lon="11.440142626443297"><ele>497.0</ele><time>2026-04-12T09:05:11.999Z</time></trkpt><trkpt lat="44.32372971295168" lon="11.44009282510266"><ele>498.0</ele><time>2026-04-12T09:05:12.999Z</time></trkpt><trkpt lat="44.3236361533393" lon="11.440057980437823"><ele>499.0</ele><time>2026-04-12T09:05:13.999Z</time></trkpt><trkpt lat="44.32353923558979" lon="11.440038889192554"><ele>500.0</ele><time>2026-04-12T09:05:14.999Z</time></trkpt><trkpt lat="44.32344481068973" lon="11.440029499247874"><ele>501.0</ele><time>2026-04-12T09:05:15.999Z</time></trkpt><trkpt lat="44.32334412798933" lon="11.440020216935688"><ele>501.0</ele><time>2026-04-12T09:05:16.999Z</time></trkpt><trkpt lat="44.323245272283046" lon="11.44000887103046"><ele>501.0</ele><time>2026-04-12T09:05:17.999Z</time></trkpt><trkpt lat="44.32314712451423" lon="11.439990358030277"><ele>501.0</ele><time>2026-04-12T09:05:18.999Z</time></trkpt><trkpt lat="44.32305421569787" lon="11.439944622634252"><ele>501.0</ele><time>2026-04-12T09:05:19.999Z</time></trkpt><trkpt lat="44.3229571610787" lon="11.439946187479245"><ele>501.0</ele><time>2026-04-12T09:05:20.999Z</time></trkpt><trkpt lat="44.32286389555643" lon="11.439930555632516"><ele>502.0</ele><time>2026-04-12T09:05:21.999Z</time></trkpt><trkpt lat="44.322775185492254" lon="11.439922603724936"><ele>503.0</ele><time>2026-04-12T09:05:22.999Z</time></trkpt><trkpt lat="44.32268740650763" lon="11.439920721823125"><ele>504.0</ele><time>2026-04-12T09:05:23.999Z</time></trkpt><trkpt lat="44.32260742154034" lon="11.439927658682356"><ele>505.0</ele><time>2026-04-12T09:05:24.999Z</time></trkpt><trkpt lat="44.322528158260226" lon="11.439935707390479"><ele>506.0</ele><time>2026-04-12T09:05:25.999Z</time></trkpt><trkpt lat="44.32245918101072" lon="11.439937016005501"><ele>507.0</ele><time>2026-04-12T09:05:26.999Z</time></trkpt><trkpt lat="44.32234077818085" lon="11.439855154624963"><ele>507.0</ele><time>2026-04-12T09:05:28.999Z</time></trkpt><trkpt lat="44.32230795014808" lon="11.43975010037948"><ele>507.0</ele><time>2026-04-12T09:05:29.999Z</time></trkpt><trkpt lat="44.32223707186706" lon="11.439573788869295"><ele>507.0</ele><time>2026-04-12T09:05:30.999Z</time></trkpt><trkpt lat="44.322146050980415" lon="11.439376508223901"><ele>507.0</ele><time>2026-04-12T09:05:31.999Z</time></trkpt><trkpt lat="44.32207638389415" lon="11.439221240252474"><ele>509.8</ele><time>2026-04-12T09:05:32.999Z</time></trkpt><trkpt lat="44.32198239894192" lon="11.439064385024587"><ele>512.6</ele><time>2026-04-12T09:05:33.999Z</time></trkpt><trkpt lat="44.32189382166819" lon="11.438972147561616"><ele>515.4000000000001</ele><time>2026-04-12T09:05:34.999Z</time></trkpt><trkpt lat="44.32181596361688" lon="11.438943650442907"><ele>518.2</ele><time>2026-04-12T09:05:35.998Z</time></trkpt><trkpt lat="44.32175147123972" lon="11.438915653914826"><ele>521.0</ele><time>2026-04-12T09:05:36.998Z</time></trkpt><trkpt lat="44.32165601895133" lon="11.438843913245297"><ele>521.0</ele><time>2026-04-12T09:05:37.998Z</time></trkpt><trkpt lat="44.32156769332498" lon="11.438817793268472"><ele>521.0</ele><time>2026-04-12T09:05:38.998Z</time></trkpt><trkpt lat="44.321490146438116" lon="11.43879613478499"><ele>521.0</ele><time>2026-04-12T09:05:39.998Z</time></trkpt><trkpt lat="44.321424384134176" lon="11.438744071345083"><ele>521.0</ele><time>2026-04-12T09:05:40.998Z</time></trkpt><trkpt lat="44.32135578447818" lon="11.438726944208415"><ele>521.0</ele><time>2026-04-12T09:05:41.998Z</time></trkpt><trkpt lat="44.32129952711455" lon="11.438660675947464"><ele>521.0</ele><time>2026-04-12T09:05:42.998Z</time></trkpt><trkpt lat="44.32125368709331" lon="11.43855798306656"><ele>521.25</ele><time>2026-04-12T09:05:43.998Z</time></trkpt><trkpt lat="44.32121275799177" lon="11.438384289154826"><ele>521.5</ele><time>2026-04-12T09:05:44.998Z</time></trkpt><trkpt lat="44.32118077778038" lon="11.438165469007838"><ele>521.75</ele><time>2026-04-12T09:05:45.998Z</time></trkpt><trkpt lat="44.32113601608515" lon="11.438002640671197"><ele>522.0</ele><time>2026-04-12T09:05:46.998Z</time></trkpt><trkpt lat="44.32111346765979" lon="11.437863799571536"><ele>522.8000000000001</ele><time>2026-04-12T09:05:47.998Z</time></trkpt><trkpt lat="44.321092993748216" lon="11.43774139822297"><ele>523.6</ele><time>2026-04-12T09:05:48.998Z</time></trkpt><trkpt lat="44.32107132521938" lon="11.437618032064794"><ele>524.4000000000001</ele><time>2026-04-12T09:05:49.998Z</time></trkpt><trkpt lat="44.32105152445956" lon="11.437488615901696"><ele>525.2</ele><time>2026-04-12T09:05:50.998Z</time></trkpt><trkpt lat="44.3210319061028" lon="11.437351437566335"><ele>526.0</ele><time>2026-04-12T09:05:51.998Z</time></trkpt><trkpt lat="44.32101053147662" lon="11.43721627105931"><ele>526.6</ele><time>2026-04-12T09:05:52.998Z</time></trkpt><trkpt lat="44.32097946422761" lon="11.437089756635391"><ele>527.2</ele><time>2026-04-12T09:05:53.998Z</time></trkpt><trkpt lat="44.320933852318845" lon="11.436972022343728"><ele>527.8</ele><time>2026-04-12T09:05:54.998Z</time></trkpt><trkpt lat="44.320883062296254" lon="11.436861174309607"><ele>528.4</ele><time>2026-04-12T09:05:55.998Z</time></trkpt><trkpt lat="44.32083238787212" lon="11.436752350478988"><ele>529.0</ele><time>2026-04-12T09:05:56.998Z</time></trkpt><trkpt lat="44.32077729497631" lon="11.436646589165695"><ele>529.0</ele><time>2026-04-12T09:05:57.998Z</time></trkpt><trkpt lat="44.320719790461226" lon="11.436535953919998"><ele>529.0</ele><time>2026-04-12T09:05:58.998Z</time></trkpt><trkpt lat="44.320644241938" lon="11.436399537406883"><ele>529.0</ele><time>2026-04-12T09:05:59.998Z</time></trkpt><trkpt lat="44.32057126264726" lon="11.43626126563759"><ele>529.0</ele><time>2026-04-12T09:06:00.998Z</time></trkpt><trkpt lat="44.320506748726494" lon="11.436141252795252"><ele>528.6666666666667</ele><time>2026-04-12T09:06:01.998Z</time></trkpt><trkpt lat="44.32045935888429" lon="11.43604514101556"><ele>528.3333333333334</ele><time>2026-04-12T09:06:02.998Z</time></trkpt><trkpt lat="44.32041321391023" lon="11.435950536803274"><ele>528.0</ele><time>2026-04-12T09:06:03.998Z</time></trkpt><trkpt lat="44.32037381042002" lon="11.435855847013228"><ele>527.6666666666666</ele><time>2026-04-12T09:06:04.998Z</time></trkpt><trkpt lat="44.320337334220994" lon="11.43575292831237"><ele>527.3333333333333</ele><time>2026-04-12T09:06:05.998Z</time></trkpt><trkpt lat="44.3203060923555" lon="11.435637158047639"><ele>527.0</ele><time>2026-04-12T09:06:06.998Z</time></trkpt><trkpt lat="44.32028420174321" lon="11.435505016648305"><ele>527.4</ele><time>2026-04-12T09:06:08Z</time></trkpt><trkpt lat="44.32026309359123" lon="11.435360773931986"><ele>527.8000000000001</ele><time>2026-04-12T09:06:09Z</time></trkpt><trkpt lat="44.32024179038939" lon="11.435210777642869"><ele>528.2</ele><time>2026-04-12T09:06:10Z</time></trkpt><trkpt lat="44.320224954625125" lon="11.43505740907564"><ele>528.6</ele><time>2026-04-12T09:06:11Z</time></trkpt><trkpt lat="44.320212499898524" lon="11.434908799021981"><ele>529.0</ele><time>2026-04-12T09:06:12Z</time></trkpt><trkpt lat="44.32020487764922" lon="11.43477765460252"><ele>529.0</ele><time>2026-04-12T09:06:13Z</time></trkpt><trkpt lat="44.32020304306587" lon="11.434652739995245"><ele>529.0</ele><time>2026-04-12T09:06:14Z</time></trkpt><trkpt lat="44.320203005054" lon="11.434534500254768"><ele>529.0</ele><time>2026-04-12T09:06:15Z</time></trkpt><trkpt lat="44.320207119654064" lon="11.434409417314223"><ele>529.0</ele><time>2026-04-12T09:06:16Z</time></trkpt><trkpt lat="44.32021592974887" lon="11.43428416527112"><ele>529.0</ele><time>2026-04-12T09:06:17Z</time></trkpt><trkpt lat="44.32023039882105" lon="11.434159533315894"><ele>529.0</ele><time>2026-04-12T09:06:18Z</time></trkpt><trkpt lat="44.32024307855031" lon="11.434036519739161"><ele>529.1666666666667</ele><time>2026-04-12T09:06:19Z</time></trkpt><trkpt lat="44.32025452696383" lon="11.43392182424268"><ele>529.3333333333334</ele><time>2026-04-12T09:06:20Z</time></trkpt><trkpt lat="44.3202558439699" lon="11.433813754378068"><ele>529.5</ele><time>2026-04-12T09:06:21Z</time></trkpt><trkpt lat="44.32024172428311" lon="11.433699908626517"><ele>529.6666666666666</ele><time>2026-04-12T09:06:22Z</time></trkpt><trkpt lat="44.320216041051346" lon="11.433588179957761"><ele>529.8333333333333</ele><time>2026-04-12T09:06:23Z</time></trkpt><trkpt lat="44.32018643087093" lon="11.43348171001874"><ele>530.0</ele><time>2026-04-12T09:06:24Z</time></trkpt><trkpt lat="44.32015521661261" lon="11.43337046962705"><ele>530.5</ele><time>2026-04-12T09:06:25Z</time></trkpt><trkpt lat="44.32012629615054" lon="11.433259966526425"><ele>531.0</ele><time>2026-04-12T09:06:26Z</time></trkpt><trkpt lat="44.320096510236745" lon="11.433152890251442"><ele>531.5</ele><time>2026-04-12T09:06:27Z</time></trkpt><trkpt lat="44.320070089379705" lon="11.43304858276274"><ele>532.0</ele><time>2026-04-12T09:06:28Z</time></trkpt><trkpt lat="44.32004702866617" lon="11.432934913875608"><ele>532.5</ele><time>2026-04-12T09:06:29Z</time></trkpt><trkpt lat="44.32002910688033" lon="11.432820431469644"><ele>533.0</ele><time>2026-04-12T09:06:30Z</time></trkpt><trkpt lat="44.32001223454613" lon="11.432698824434704"><ele>534.0</ele><time>2026-04-12T09:06:31Z</time></trkpt><trkpt lat="44.320000807957" lon="11.432579464710491"><ele>535.0</ele><time>2026-04-12T09:06:32Z</time></trkpt><trkpt lat="44.319993454346644" lon="11.432453813685894"><ele>536.0</ele><time>2026-04-12T09:06:33Z</time></trkpt><trkpt lat="44.319995031277486" lon="11.432332301606992"><ele>537.0</ele><time>2026-04-12T09:06:34Z</time></trkpt><trkpt lat="44.320005359485315" lon="11.432235023869088"><ele>538.0</ele><time>2026-04-12T09:06:35Z</time></trkpt><trkpt lat="44.320021302047856" lon="11.43209785643492"><ele>539.0</ele><time>2026-04-12T09:06:37Z</time></trkpt><trkpt lat="44.32005859085438" lon="11.431994143958008"><ele>540.5</ele><time>2026-04-12T09:06:43.999Z</time></trkpt><trkpt lat="44.32000944879417" lon="11.431912318597776"><ele>542.0</ele><time>2026-04-12T09:06:44.999Z</time></trkpt><trkpt lat="44.320009475873334" lon="11.431785543577492"><ele>543.5</ele><time>2026-04-12T09:06:46.999Z</time></trkpt><trkpt lat="44.319987716685624" lon="11.431699838123409"><ele>545.0</ele><time>2026-04-12T09:06:50.999Z</time></trkpt><trkpt lat="44.31988939579013" lon="11.431694491172014"><ele>546.5</ele><time>2026-04-12T09:06:51.999Z</time></trkpt><trkpt lat="44.319816623930066" lon="11.43168463435493"><ele>548.0</ele><time>2026-04-12T09:06:52.999Z</time></trkpt><trkpt lat="44.31973191426254" lon="11.431668664915666"><ele>548.0</ele><time>2026-04-12T09:06:53.999Z</time></trkpt><trkpt lat="44.3196515263843" lon="11.431611603376165"><ele>548.0</ele><time>2026-04-12T09:06:54.999Z</time></trkpt><trkpt lat="44.319567082183205" lon="11.4315921632299"><ele>548.0</ele><time>2026-04-12T09:06:55.999Z</time></trkpt><trkpt lat="44.31948219437506" lon="11.431520751707865"><ele>548.0</ele><time>2026-04-12T09:06:56.999Z</time></trkpt><trkpt lat="44.319392528238374" lon="11.431467667122849"><ele>548.0</ele><time>2026-04-12T09:06:57.999Z</time></trkpt><trkpt lat="44.319302277934874" lon="11.431408529566486"><ele>548.0</ele><time>2026-04-12T09:06:58.999Z</time></trkpt><trkpt lat="44.319211474085044" lon="11.431346611206697"><ele>548.0</ele><time>2026-04-12T09:06:59.999Z</time></trkpt><trkpt lat="44.319113861263105" lon="11.431309328030244"><ele>548.0</ele><time>2026-04-12T09:07:00.999Z</time></trkpt><trkpt lat="44.319030376712284" lon="11.431254328463245"><ele>548.0</ele><time>2026-04-12T09:07:01.999Z</time></trkpt><trkpt lat="44.31894972543876" lon="11.431212126805573"><ele>548.0</ele><time>2026-04-12T09:07:02.999Z</time></trkpt><trkpt lat="44.3188765429771" lon="11.43118922508174"><ele>548.0</ele><time>2026-04-12T09:07:03.999Z</time></trkpt><trkpt lat="44.31877341104692" lon="11.43112849774116"><ele>548.0</ele><time>2026-04-12T09:07:05.999Z</time></trkpt><trkpt lat="44.31870531774771" lon="11.431035033089685"><ele>548.0</ele><time>2026-04-12T09:07:07.999Z</time></trkpt><trkpt lat="44.31865668660198" lon="11.430899049829979"><ele>548.0</ele><time>2026-04-12T09:07:09.999Z</time></trkpt><trkpt lat="44.31861696728829" lon="11.430727191460818"><ele>548.0</ele><time>2026-04-12T09:07:11.999Z</time></trkpt><trkpt lat="44.318607826656496" lon="11.430632642911883"><ele>548.0</ele><time>2026-04-12T09:07:12.999Z</time></trkpt><trkpt lat="44.31859473135312" lon="11.430525187866435"><ele>548.0</ele><time>2026-04-12T09:07:13.999Z</time></trkpt><trkpt lat="44.31859231356531" lon="11.43041194462929"><ele>548.0</ele><time>2026-04-12T09:07:14.999Z</time></trkpt><trkpt lat="44.31859821627075" lon="11.430302616346909"><ele>548.0</ele><time>2026-04-12T09:07:15.999Z</time></trkpt><trkpt lat="44.31860269922211" lon="11.43020151669407"><ele>548.0</ele><time>2026-04-12T09:07:16.999Z</time></trkpt><trkpt lat="44.318607874369654" lon="11.430080513863818"><ele>548.0</ele><time>2026-04-12T09:07:17.999Z</time></trkpt><trkpt lat="44.318611966073206" lon="11.429972871478045"><ele>546.1666666666666</ele><time>2026-04-12T09:07:18.999Z</time></trkpt><trkpt lat="44.31861538158179" lon="11.429867735709133"><ele>544.3333333333333</ele><time>2026-04-12T09:07:19.999Z</time></trkpt><trkpt lat="44.31862218607289" lon="11.429766260264568"><ele>542.5</ele><time>2026-04-12T09:07:20.999Z</time></trkpt><trkpt lat="44.31862686912652" lon="11.429669201943275"><ele>540.6666666666666</ele><time>2026-04-12T09:07:21.999Z</time></trkpt><trkpt lat="44.318629330748514" lon="11.429570876201186"><ele>538.8333333333334</ele><time>2026-04-12T09:07:22.999Z</time></trkpt><trkpt lat="44.31863675646999" lon="11.429396088999534"><ele>537.0</ele><time>2026-04-12T09:07:24.999Z</time></trkpt><trkpt lat="44.31861154359825" lon="11.429296402506761"><ele>537.0</ele><time>2026-04-12T09:07:25.999Z</time></trkpt><trkpt lat="44.318569407820476" lon="11.429210246763184"><ele>537.0</ele><time>2026-04-12T09:07:26.999Z</time></trkpt><trkpt lat="44.3185226157543" lon="11.42913429144376"><ele>537.0</ele><time>2026-04-12T09:07:27.999Z</time></trkpt><trkpt lat="44.31842128858925" lon="11.429025129314372"><ele>537.0</ele><time>2026-04-12T09:07:29.999Z</time></trkpt><trkpt lat="44.31832241074829" lon="11.428919615424688"><ele>537.0</ele><time>2026-04-12T09:07:31.999Z</time></trkpt><trkpt lat="44.31826585661465" lon="11.428846759469177"><ele>537.9999999999999</ele><time>2026-04-12T09:07:32.999Z</time></trkpt><trkpt lat="44.318205258329506" lon="11.42876592258951"><ele>539.0</ele><time>2026-04-12T09:07:33.999Z</time></trkpt><trkpt lat="44.318141282726316" lon="11.428712240931025"><ele>540.0</ele><time>2026-04-12T09:07:34.999Z</time></trkpt><trkpt lat="44.3180944511697" lon="11.428650642992363"><ele>541.0</ele><time>2026-04-12T09:07:35.999Z</time></trkpt><trkpt lat="44.318043848130266" lon="11.428595116911826"><ele>542.0</ele><time>2026-04-12T09:07:36.998Z</time></trkpt><trkpt lat="44.31798867335077" lon="11.428537191903047"><ele>542.9999999999999</ele><time>2026-04-12T09:07:37.998Z</time></trkpt><trkpt lat="44.31793967805043" lon="11.428476876600348"><ele>544.0</ele><time>2026-04-12T09:07:38.998Z</time></trkpt><trkpt lat="44.317836354882175" lon="11.42840929763902"><ele>540.6</ele><time>2026-04-12T09:07:40.998Z</time></trkpt><trkpt lat="44.31773536505482" lon="11.428323692445927"><ele>537.2</ele><time>2026-04-12T09:07:42.998Z</time></trkpt><trkpt lat="44.31765623776266" lon="11.428203807328341"><ele>533.8000000000001</ele><time>2026-04-12T09:07:44.998Z</time></trkpt><trkpt lat="44.317582701090494" lon="11.428130359282703"><ele>530.4</ele><time>2026-04-12T09:07:46.998Z</time></trkpt><trkpt lat="44.31757343235582" lon="11.428026484409262"><ele>527.0</ele><time>2026-04-12T09:07:48.998Z</time></trkpt><trkpt lat="44.31751093193723" lon="11.427918155324482"><ele>527.0</ele><time>2026-04-12T09:07:50.998Z</time></trkpt><trkpt lat="44.31745711996015" lon="11.427859876325398"><ele>527.0</ele><time>2026-04-12T09:07:51.998Z</time></trkpt><trkpt lat="44.31737642371848" lon="11.427840895533842"><ele>527.0</ele><time>2026-04-12T09:07:52.998Z</time></trkpt><trkpt lat="44.31730663410109" lon="11.427794440415887"><ele>527.0</ele><time>2026-04-12T09:07:53.998Z</time></trkpt><trkpt lat="44.317240458683216" lon="11.42773894680353"><ele>527.0</ele><time>2026-04-12T09:07:54.998Z</time></trkpt><trkpt lat="44.31717755730835" lon="11.427650826939285"><ele>527.0</ele><time>2026-04-12T09:07:55.998Z</time></trkpt><trkpt lat="44.31713544834686" lon="11.427544625954278"><ele>526.8333333333333</ele><time>2026-04-12T09:07:56.998Z</time></trkpt><trkpt lat="44.317097196334515" lon="11.427435610611745"><ele>526.6666666666666</ele><time>2026-04-12T09:07:57.998Z</time></trkpt><trkpt lat="44.31705615324623" lon="11.427321228575227"><ele>526.5</ele><time>2026-04-12T09:07:58.998Z</time></trkpt><trkpt lat="44.31703252846813" lon="11.427197432278687"><ele>526.3333333333334</ele><time>2026-04-12T09:07:59.998Z</time></trkpt><trkpt lat="44.31699790133829" lon="11.427095981210192"><ele>526.1666666666667</ele><time>2026-04-12T09:08:00.998Z</time></trkpt><trkpt lat="44.31696545216313" lon="11.427018741641396"><ele>526.0</ele><time>2026-04-12T09:08:01.998Z</time></trkpt><trkpt lat="44.31689315045665" lon="11.426891150881346"><ele>525.5714285714286</ele><time>2026-04-12T09:08:03.998Z</time></trkpt><trkpt lat="44.316836526924284" lon="11.426849259232673"><ele>525.1428571428571</ele><time>2026-04-12T09:08:04.998Z</time></trkpt><trkpt lat="44.316789261381025" lon="11.426790982611566"><ele>524.7142857142857</ele><time>2026-04-12T09:08:05.998Z</time></trkpt><trkpt lat="44.31674927002706" lon="11.426712301398815"><ele>524.2857142857142</ele><time>2026-04-12T09:08:06.998Z</time></trkpt><trkpt lat="44.31670051342198" lon="11.426647859349375"><ele>523.8571428571429</ele><time>2026-04-12T09:08:07.998Z</time></trkpt><trkpt lat="44.31665153114448" lon="11.426579404853086"><ele>523.4285714285713</ele><time>2026-04-12T09:08:08.998Z</time></trkpt><trkpt lat="44.31660393800685" lon="11.426512892071113"><ele>523.0</ele><time>2026-04-12T09:08:09.998Z</time></trkpt><trkpt lat="44.31652232414384" lon="11.426402025487993"><ele>523.0</ele><time>2026-04-12T09:08:11.998Z</time></trkpt><trkpt lat="44.31646402195899" lon="11.426324486969982"><ele>523.0</ele><time>2026-04-12T09:08:14Z</time></trkpt><trkpt lat="44.3165326108721" lon="11.426415706300054"><ele>523.0</ele><time>2026-04-12T09:08:25Z</time></trkpt><trkpt lat="44.31658950488951" lon="11.42649272207657"><ele>523.0</ele><time>2026-04-12T09:08:26Z</time></trkpt><trkpt lat="44.316663364948226" lon="11.426663947032454"><ele>523.0</ele><time>2026-04-12T09:08:27Z</time></trkpt><trkpt lat="44.31676063073732" lon="11.42678418587081"><ele>523.0</ele><time>2026-04-12T09:08:28Z</time></trkpt><trkpt lat="44.316846576716884" lon="11.426894434881651"><ele>523.0</ele><time>2026-04-12T09:08:29Z</time></trkpt><trkpt lat="44.31691453821942" lon="11.426998201301046"><ele>523.0</ele><time>2026-04-12T09:08:30Z</time></trkpt><trkpt lat="44.31697612928482" lon="11.427126715171234"><ele>523.0</ele><time>2026-04-12T09:08:31Z</time></trkpt><trkpt lat="44.3170284288885" lon="11.42725820673414"><ele>523.0</ele><time>2026-04-12T09:08:32Z</time></trkpt><trkpt lat="44.3170664808928" lon="11.42738937832396"><ele>523.6</ele><time>2026-04-12T09:08:33Z</time></trkpt><trkpt lat="44.31711289271154" lon="11.427520610428926"><ele>524.1999999999999</ele><time>2026-04-12T09:08:34Z</time></trkpt><trkpt lat="44.31716716016479" lon="11.427645980035802"><ele>524.8</ele><time>2026-04-12T09:08:35Z</time></trkpt><trkpt lat="44.31723545470472" lon="11.427747178298963"><ele>525.4</ele><time>2026-04-12T09:08:36Z</time></trkpt><trkpt lat="44.31733845655154" lon="11.427837555884327"><ele>526.0</ele><time>2026-04-12T09:08:37Z</time></trkpt><trkpt lat="44.31741993741713" lon="11.427899356331201"><ele>526.0</ele><time>2026-04-12T09:08:38Z</time></trkpt><trkpt lat="44.31747550778944" lon="11.427954680499012"><ele>526.0</ele><time>2026-04-12T09:08:39Z</time></trkpt><trkpt lat="44.31753848579691" lon="11.42802750997608"><ele>526.0</ele><time>2026-04-12T09:08:40Z</time></trkpt><trkpt lat="44.31759754034937" lon="11.42809940567957"><ele>526.0</ele><time>2026-04-12T09:08:41Z</time></trkpt><trkpt lat="44.31764242314125" lon="11.42819897477431"><ele>526.0</ele><time>2026-04-12T09:08:43Z</time></trkpt><trkpt lat="44.317530919888824" lon="11.428140180116396"><ele>526.0</ele><time>2026-04-12T09:08:46.999Z</time></trkpt><trkpt lat="44.317395405210256" lon="11.428066575642125"><ele>526.0</ele><time>2026-04-12T09:08:48.999Z</time></trkpt><trkpt lat="44.31732780881928" lon="11.428027306943116"><ele>526.0</ele><time>2026-04-12T09:08:49.999Z</time></trkpt><trkpt lat="44.31726438348083" lon="11.427986069917297"><ele>526.0</ele><time>2026-04-12T09:08:50.999Z</time></trkpt><trkpt lat="44.31720782682737" lon="11.427935974729872"><ele>526.0</ele><time>2026-04-12T09:08:51.999Z</time></trkpt><trkpt lat="44.31714808026193" lon="11.427872183724332"><ele>526.0</ele><time>2026-04-12T09:08:52.999Z</time></trkpt><trkpt lat="44.31707338511513" lon="11.427781234907512"><ele>526.0</ele><time>2026-04-12T09:08:53.999Z</time></trkpt><trkpt lat="44.31701260939677" lon="11.42768485339908"><ele>526.0</ele><time>2026-04-12T09:08:54.999Z</time></trkpt><trkpt lat="44.3169518150328" lon="11.427586235915536"><ele>526.0</ele><time>2026-04-12T09:08:55.999Z</time></trkpt><trkpt lat="44.31688242215046" lon="11.427495758118932"><ele>526.0</ele><time>2026-04-12T09:08:56.999Z</time></trkpt><trkpt lat="44.31680097907042" lon="11.42741348602748"><ele>526.0</ele><time>2026-04-12T09:08:57.999Z</time></trkpt><trkpt lat="44.316721913763345" lon="11.427339752600375"><ele>526.0</ele><time>2026-04-12T09:08:58.999Z</time></trkpt><trkpt lat="44.316647395291405" lon="11.427263220707948"><ele>526.0</ele><time>2026-04-12T09:08:59.999Z</time></trkpt><trkpt lat="44.31656666554952" lon="11.427177038740874"><ele>526.0</ele><time>2026-04-12T09:09:00.999Z</time></trkpt><trkpt lat="44.316499520402864" lon="11.427105359186028"><ele>526.0</ele><time>2026-04-12T09:09:01.999Z</time></trkpt><trkpt lat="44.31643894606602" lon="11.427042454310458"><ele>526.0</ele><time>2026-04-12T09:09:02.999Z</time></trkpt><trkpt lat="44.31638215606387" lon="11.426987556028488"><ele>526.0</ele><time>2026-04-12T09:09:03.999Z</time></trkpt><trkpt lat="44.316326948636465" lon="11.426935285774295"><ele>526.0</ele><time>2026-04-12T09:09:04.999Z</time></trkpt><trkpt lat="44.316273932718445" lon="11.42688274111392"><ele>526.3333333333334</ele><time>2026-04-12T09:09:05.999Z</time></trkpt><trkpt lat="44.3162189128485" lon="11.426822012818368"><ele>526.6666666666667</ele><time>2026-04-12T09:09:06.999Z</time></trkpt><trkpt lat="44.31615850104223" lon="11.42675618487298"><ele>527.0</ele><time>2026-04-12T09:09:07.999Z</time></trkpt><trkpt lat="44.31610084456286" lon="11.426694770421838"><ele>527.3333333333334</ele><time>2026-04-12T09:09:08.999Z</time></trkpt><trkpt lat="44.3160408972234" lon="11.42664199854177"><ele>527.6666666666666</ele><time>2026-04-12T09:09:09.999Z</time></trkpt><trkpt lat="44.31597480501648" lon="11.426594546980828"><ele>528.0</ele><time>2026-04-12T09:09:10.999Z</time></trkpt><trkpt lat="44.31589649457276" lon="11.426537327121178"><ele>528.0</ele><time>2026-04-12T09:09:11.999Z</time></trkpt><trkpt lat="44.31579620595802" lon="11.42646133163752"><ele>528.0</ele><time>2026-04-12T09:09:12.999Z</time></trkpt><trkpt lat="44.315711570310626" lon="11.42639132972134"><ele>528.0</ele><time>2026-04-12T09:09:13.999Z</time></trkpt><trkpt lat="44.31564402805689" lon="11.426337431656531"><ele>528.0</ele><time>2026-04-12T09:09:14.999Z</time></trkpt><trkpt lat="44.315558535354334" lon="11.426274930511708"><ele>528.0</ele><time>2026-04-12T09:09:16.999Z</time></trkpt><trkpt lat="44.315464488141934" lon="11.426221543952467"><ele>530.6</ele><time>2026-04-12T09:09:18.999Z</time></trkpt><trkpt lat="44.315338950279454" lon="11.426189662075117"><ele>533.1999999999999</ele><time>2026-04-12T09:09:20.999Z</time></trkpt><trkpt lat="44.3152679666975" lon="11.426188612022981"><ele>535.8</ele><time>2026-04-12T09:09:21.999Z</time></trkpt><trkpt lat="44.31515466877546" lon="11.426222531256114"><ele>538.4</ele><time>2026-04-12T09:09:23.999Z</time></trkpt><trkpt lat="44.31506703217018" lon="11.426239536300523"><ele>541.0</ele><time>2026-04-12T09:09:25.999Z</time></trkpt><trkpt lat="44.314974018663605" lon="11.426243779665137"><ele>541.0</ele><time>2026-04-12T09:09:27.999Z</time></trkpt><trkpt lat="44.31487742799453" lon="11.426229277011204"><ele>541.0</ele><time>2026-04-12T09:09:29.999Z</time></trkpt><trkpt lat="44.314779262233436" lon="11.42621511643077"><ele>541.0</ele><time>2026-04-12T09:09:31.999Z</time></trkpt><trkpt lat="44.31466922283534" lon="11.42624248093519"><ele>541.0</ele><time>2026-04-12T09:09:33.999Z</time></trkpt><trkpt lat="44.3145742677273" lon="11.426339959209644"><ele>541.0</ele><time>2026-04-12T09:09:35.999Z</time></trkpt><trkpt lat="44.31446981356166" lon="11.426411606919663"><ele>538.3333333333334</ele><time>2026-04-12T09:09:37.998Z</time></trkpt><trkpt lat="44.31441399732009" lon="11.426462654095536"><ele>535.6666666666667</ele><time>2026-04-12T09:09:38.998Z</time></trkpt><trkpt lat="44.31436417596688" lon="11.426534653581614"><ele>533.0</ele><time>2026-04-12T09:09:39.998Z</time></trkpt><trkpt lat="44.31430190016006" lon="11.426565455393764"><ele>530.3333333333334</ele><time>2026-04-12T09:09:40.998Z</time></trkpt><trkpt lat="44.314186336456096" lon="11.426631170906907"><ele>527.6666666666666</ele><time>2026-04-12T09:09:42.998Z</time></trkpt><trkpt lat="44.31411749904323" lon="11.426596773158595"><ele>525.0</ele><time>2026-04-12T09:09:43.998Z</time></trkpt><trkpt lat="44.31404849318092" lon="11.426608929836469"><ele>525.0</ele><time>2026-04-12T09:09:44.998Z</time></trkpt><trkpt lat="44.313984513426796" lon="11.426624230813351"><ele>525.0</ele><time>2026-04-12T09:09:45.998Z</time></trkpt><trkpt lat="44.31391936787868" lon="11.42666507982168"><ele>525.0</ele><time>2026-04-12T09:09:46.998Z</time></trkpt><trkpt lat="44.31386770225852" lon="11.42671647315263"><ele>525.0</ele><time>2026-04-12T09:09:47.998Z</time></trkpt><trkpt lat="44.3137722192944" lon="11.42677002050344"><ele>525.0</ele><time>2026-04-12T09:09:49.998Z</time></trkpt><trkpt lat="44.31364899969211" lon="11.426807668104324"><ele>525.0</ele><time>2026-04-12T09:09:51.998Z</time></trkpt><trkpt lat="44.31356737776993" lon="11.426820383053883"><ele>526.4</ele><time>2026-04-12T09:09:52.998Z</time></trkpt><trkpt lat="44.31351146000786" lon="11.426862811320927"><ele>527.8</ele><time>2026-04-12T09:09:53.998Z</time></trkpt><trkpt lat="44.31341028508403" lon="11.426909596709185"><ele>529.2</ele><time>2026-04-12T09:09:55.998Z</time></trkpt><trkpt lat="44.313310208072494" lon="11.426952661812876"><ele>530.6</ele><time>2026-04-12T09:09:57.998Z</time></trkpt><trkpt lat="44.313238030221065" lon="11.426977564859653"><ele>532.0</ele><time>2026-04-12T09:09:58.998Z</time></trkpt><trkpt lat="44.313124337250144" lon="11.427014728059893"><ele>532.6666666666667</ele><time>2026-04-12T09:09:59.998Z</time></trkpt><trkpt lat="44.31301721474019" lon="11.42701603635109"><ele>533.3333333333334</ele><time>2026-04-12T09:10:00.998Z</time></trkpt><trkpt lat="44.31292542676081" lon="11.427010507129806"><ele>534.0</ele><time>2026-04-12T09:10:01.998Z</time></trkpt><trkpt lat="44.3128483224078" lon="11.42702893518308"><ele>534.6666666666666</ele><time>2026-04-12T09:10:02.998Z</time></trkpt><trkpt lat="44.31277241902343" lon="11.427061439160255"><ele>535.3333333333333</ele><time>2026-04-12T09:10:03.998Z</time></trkpt><trkpt lat="44.31269385522778" lon="11.427099169320256"><ele>536.0</ele><time>2026-04-12T09:10:04.998Z</time></trkpt><trkpt lat="44.31261912818095" lon="11.42714569483955"><ele>531.6666666666666</ele><time>2026-04-12T09:10:05.998Z</time></trkpt><trkpt lat="44.3125558529842" lon="11.427198057848189"><ele>527.3333333333333</ele><time>2026-04-12T09:10:06.998Z</time></trkpt><trkpt lat="44.312503061937875" lon="11.427266854500443"><ele>523.0</ele><time>2026-04-12T09:10:07.998Z</time></trkpt><trkpt lat="44.31246407653947" lon="11.427343370703992"><ele>518.6666666666666</ele><time>2026-04-12T09:10:08.998Z</time></trkpt><trkpt lat="44.31243072340549" lon="11.427419752921086"><ele>514.3333333333334</ele><time>2026-04-12T09:10:09.998Z</time></trkpt><trkpt lat="44.31238980318692" lon="11.427559270459811"><ele>510.0</ele><time>2026-04-12T09:10:11.998Z</time></trkpt><trkpt lat="44.312313536226924" lon="11.427658567702615"><ele>509.2</ele><time>2026-04-12T09:10:13.998Z</time></trkpt><trkpt lat="44.31222337035839" lon="11.427712176799897"><ele>508.4</ele><time>2026-04-12T09:10:15.998Z</time></trkpt><trkpt lat="44.31216063708877" lon="11.427676905782983"><ele>507.6</ele><time>2026-04-12T09:10:17.998Z</time></trkpt><trkpt lat="44.31207389956574" lon="11.427658891027747"><ele>506.8</ele><time>2026-04-12T09:10:20Z</time></trkpt><trkpt lat="44.31197808246547" lon="11.427650292693645"><ele>506.0</ele><time>2026-04-12T09:10:22Z</time></trkpt><trkpt lat="44.31186777470512" lon="11.427626116514865"><ele>505.99999999999994</ele><time>2026-04-12T09:10:24Z</time></trkpt><trkpt lat="44.31175894466448" lon="11.427581234335635"><ele>506.0</ele><time>2026-04-12T09:10:26Z</time></trkpt><trkpt lat="44.311699095357575" lon="11.42755040023577"><ele>506.0</ele><time>2026-04-12T09:10:27Z</time></trkpt><trkpt lat="44.311634469813065" lon="11.42751443189341"><ele>506.0</ele><time>2026-04-12T09:10:28Z</time></trkpt><trkpt lat="44.311567137213146" lon="11.427475803241949"><ele>505.99999999999994</ele><time>2026-04-12T09:10:29Z</time></trkpt><trkpt lat="44.3114752895428" lon="11.427425346714182"><ele>506.0</ele><time>2026-04-12T09:10:30Z</time></trkpt><trkpt lat="44.31138981163174" lon="11.427365776620942"><ele>504.4</ele><time>2026-04-12T09:10:31Z</time></trkpt><trkpt lat="44.31132429524069" lon="11.427301324851788"><ele>502.8</ele><time>2026-04-12T09:10:32Z</time></trkpt><trkpt lat="44.31125564823642" lon="11.427275260141482"><ele>501.19999999999993</ele><time>2026-04-12T09:10:33Z</time></trkpt><trkpt lat="44.31115683937435" lon="11.4271822423818"><ele>499.59999999999997</ele><time>2026-04-12T09:10:35Z</time></trkpt><trkpt lat="44.311085535552195" lon="11.427053605245492"><ele>498.0</ele><time>2026-04-12T09:10:37Z</time></trkpt><trkpt lat="44.311052397546206" lon="11.426949085758627"><ele>498.0</ele><time>2026-04-12T09:10:38Z</time></trkpt><trkpt lat="44.31102656913229" lon="11.426820364371693"><ele>497.99999999999994</ele><time>2026-04-12T09:10:39Z</time></trkpt><trkpt lat="44.31101303222349" lon="11.426684804561468"><ele>497.99999999999994</ele><time>2026-04-12T09:10:40Z</time></trkpt><trkpt lat="44.31100667253378" lon="11.4265540673482"><ele>498.0</ele><time>2026-04-12T09:10:41Z</time></trkpt><trkpt lat="44.311008944562644" lon="11.426425592084676"><ele>498.0</ele><time>2026-04-12T09:10:42Z</time></trkpt><trkpt lat="44.31100954139636" lon="11.42631388992391"><ele>501.0</ele><time>2026-04-12T09:10:43Z</time></trkpt><trkpt lat="44.31100816925271" lon="11.426189728933844"><ele>503.99999999999994</ele><time>2026-04-12T09:10:44Z</time></trkpt><trkpt lat="44.31099395580088" lon="11.426055576445146"><ele>506.99999999999994</ele><time>2026-04-12T09:10:45Z</time></trkpt><trkpt lat="44.31096074270733" lon="11.425943389247134"><ele>510.0</ele><time>2026-04-12T09:10:45.999Z</time></trkpt><trkpt lat="44.31090062976902" lon="11.425829878086647"><ele>513.0</ele><time>2026-04-12T09:10:46.999Z</time></trkpt><trkpt lat="44.310820568847305" lon="11.425731609146187"><ele>513.0</ele><time>2026-04-12T09:10:47.999Z</time></trkpt><trkpt lat="44.31074043879413" lon="11.42563469320883"><ele>513.0</ele><time>2026-04-12T09:10:48.999Z</time></trkpt><trkpt lat="44.31068940417493" lon="11.42552053041014"><ele>513.0</ele><time>2026-04-12T09:10:49.999Z</time></trkpt><trkpt lat="44.31063265378609" lon="11.42540610631989"><ele>513.0</ele><time>2026-04-12T09:10:50.999Z</time></trkpt><trkpt lat="44.31055554923437" lon="11.425293357146451"><ele>513.0</ele><time>2026-04-12T09:10:51.999Z</time></trkpt><trkpt lat="44.31049087994614" lon="11.425182082057614"><ele>513.5</ele><time>2026-04-12T09:10:52.999Z</time></trkpt><trkpt lat="44.31039380079585" lon="11.425065489339149"><ele>514.0</ele><time>2026-04-12T09:10:53.999Z</time></trkpt><trkpt lat="44.31029702321851" lon="11.424939628862516"><ele>514.5</ele><time>2026-04-12T09:10:54.999Z</time></trkpt><trkpt lat="44.31020827388729" lon="11.424834146324258"><ele>515.0</ele><time>2026-04-12T09:10:55.999Z</time></trkpt><trkpt lat="44.31011184144187" lon="11.42473091135125"><ele>515.0</ele><time>2026-04-12T09:10:56.999Z</time></trkpt><trkpt lat="44.310022549298566" lon="11.424647837560414"><ele>515.0</ele><time>2026-04-12T09:10:57.999Z</time></trkpt><trkpt lat="44.30994091653679" lon="11.424570305943519"><ele>515.0</ele><time>2026-04-12T09:10:58.999Z</time></trkpt><trkpt lat="44.3098667921339" lon="11.424510290871321"><ele>515.0</ele><time>2026-04-12T09:10:59.999Z</time></trkpt><trkpt lat="44.3098077441079" lon="11.424467656558317"><ele>515.0</ele><time>2026-04-12T09:11:00.999Z</time></trkpt><trkpt lat="44.30971994092394" lon="11.424427632106559"><ele>515.4</ele><time>2026-04-12T09:11:02.999Z</time></trkpt><trkpt lat="44.30963099594325" lon="11.424450399774106"><ele>515.8</ele><time>2026-04-12T09:11:05.999Z</time></trkpt><trkpt lat="44.30957512314682" lon="11.424519539417568"><ele>516.2</ele><time>2026-04-12T09:11:07.999Z</time></trkpt><trkpt lat="44.30953029504624" lon="11.424612353486113"><ele>516.6</ele><time>2026-04-12T09:11:09.999Z</time></trkpt><trkpt lat="44.30945761610151" lon="11.424710888299881"><ele>517.0</ele><time>2026-04-12T09:11:11.999Z</time></trkpt><trkpt lat="44.309391718220986" lon="11.42483155653209"><ele>514.8000000000001</ele><time>2026-04-12T09:11:13.999Z</time></trkpt><trkpt lat="44.30932516355492" lon="11.424947905528004"><ele>512.6</ele><time>2026-04-12T09:11:15.999Z</time></trkpt><trkpt lat="44.30925494628525" lon="11.425062651365348"><ele>510.40000000000003</ele><time>2026-04-12T09:11:17.999Z</time></trkpt><trkpt lat="44.30919377948087" lon="11.425175735234713"><ele>508.20000000000005</ele><time>2026-04-12T09:11:19.999Z</time></trkpt><trkpt lat="44.30914647933445" lon="11.425246304888518"><ele>506.0</ele><time>2026-04-12T09:11:20.999Z</time></trkpt><trkpt lat="44.309076107969204" lon="11.42536744425217"><ele>506.0</ele><time>2026-04-12T09:11:21.999Z</time></trkpt><trkpt lat="44.30900179060512" lon="11.425478642384048"><ele>506.0</ele><time>2026-04-12T09:11:22.999Z</time></trkpt><trkpt lat="44.30893973943186" lon="11.425598646497827"><ele>506.0</ele><time>2026-04-12T09:11:23.999Z</time></trkpt><trkpt lat="44.308882054741716" lon="11.425711287455481"><ele>506.0</ele><time>2026-04-12T09:11:24.999Z</time></trkpt><trkpt lat="44.30882537332541" lon="11.425819149125026"><ele>506.0</ele><time>2026-04-12T09:11:25.999Z</time></trkpt><trkpt lat="44.308770601464026" lon="11.425911366716123"><ele>504.16666666666663</ele><time>2026-04-12T09:11:26.999Z</time></trkpt><trkpt lat="44.308715787694" lon="11.425997625050025"><ele>502.3333333333333</ele><time>2026-04-12T09:11:27.999Z</time></trkpt><trkpt lat="44.30866486014205" lon="11.426072029340272"><ele>500.5</ele><time>2026-04-12T09:11:28.999Z</time></trkpt><trkpt lat="44.308611633467144" lon="11.426148142140255"><ele>498.66666666666663</ele><time>2026-04-12T09:11:29.999Z</time></trkpt><trkpt lat="44.30856022682166" lon="11.426212523995252"><ele>496.8333333333333</ele><time>2026-04-12T09:11:30.999Z</time></trkpt><trkpt lat="44.30849696467076" lon="11.426279205171467"><ele>495.0</ele><time>2026-04-12T09:11:31.999Z</time></trkpt><trkpt lat="44.30840051043436" lon="11.426373208239463"><ele>495.0</ele><time>2026-04-12T09:11:32.999Z</time></trkpt><trkpt lat="44.308303915338094" lon="11.426461879897449"><ele>495.0</ele><time>2026-04-12T09:11:33.999Z</time></trkpt><trkpt lat="44.308221114058476" lon="11.426535533211144"><ele>495.0</ele><time>2026-04-12T09:11:34.999Z</time></trkpt><trkpt lat="44.30814398014519" lon="11.426606736249681"><ele>495.0</ele><time>2026-04-12T09:11:35.999Z</time></trkpt><trkpt lat="44.30807767263104" lon="11.426679616281298"><ele>495.0</ele><time>2026-04-12T09:11:36.999Z</time></trkpt><trkpt lat="44.30802343071557" lon="11.426739934320656"><ele>494.4</ele><time>2026-04-12T09:11:37.999Z</time></trkpt><trkpt lat="44.307964669143" lon="11.426786924340124"><ele>493.8</ele><time>2026-04-12T09:11:38.999Z</time></trkpt><trkpt lat="44.30784640314616" lon="11.426872092674614"><ele>493.20000000000005</ele><time>2026-04-12T09:11:40.998Z</time></trkpt><trkpt lat="44.30778180128943" lon="11.426917489258873"><ele>492.6</ele><time>2026-04-12T09:11:41.998Z</time></trkpt><trkpt lat="44.30772060088037" lon="11.426952314230817"><ele>492.0</ele><time>2026-04-12T09:11:42.998Z</time></trkpt><trkpt lat="44.30761635694067" lon="11.427014886153671"><ele>492.0</ele><time>2026-04-12T09:11:44.998Z</time></trkpt><trkpt lat="44.30748201153952" lon="11.427071865305603"><ele>492.00000000000006</ele><time>2026-04-12T09:11:46.998Z</time></trkpt><trkpt lat="44.30741068180492" lon="11.427125124624201"><ele>492.00000000000006</ele><time>2026-04-12T09:11:47.998Z</time></trkpt><trkpt lat="44.30733265955371" lon="11.427137216641334"><ele>492.0</ele><time>2026-04-12T09:11:48.998Z</time></trkpt><trkpt lat="44.30723549448067" lon="11.427107891428347"><ele>492.0</ele><time>2026-04-12T09:11:49.998Z</time></trkpt><trkpt lat="44.307124610658555" lon="11.427075993166433"><ele>492.8</ele><time>2026-04-12T09:11:50.998Z</time></trkpt><trkpt lat="44.30700341106319" lon="11.427053251826282"><ele>493.6</ele><time>2026-04-12T09:11:51.998Z</time></trkpt><trkpt lat="44.306909432211896" lon="11.427061354596207"><ele>494.40000000000003</ele><time>2026-04-12T09:11:52.998Z</time></trkpt><trkpt lat="44.30684454318809" lon="11.427067510418949"><ele>495.20000000000005</ele><time>2026-04-12T09:11:53.998Z</time></trkpt><trkpt lat="44.30674318236072" lon="11.42708871101219"><ele>496.0</ele><time>2026-04-12T09:11:55.998Z</time></trkpt><trkpt lat="44.306673485910906" lon="11.427107659913851"><ele>496.00000000000006</ele><time>2026-04-12T09:11:56.998Z</time></trkpt><trkpt lat="44.306595263547045" lon="11.427122068534588"><ele>496.0</ele><time>2026-04-12T09:11:57.998Z</time></trkpt><trkpt lat="44.30651460723879" lon="11.427135922514157"><ele>496.0</ele><time>2026-04-12T09:11:58.998Z</time></trkpt><trkpt lat="44.306452126833705" lon="11.42714759267665"><ele>496.0</ele><time>2026-04-12T09:11:59.998Z</time></trkpt><trkpt lat="44.30632548576494" lon="11.42713691578588"><ele>496.00000000000006</ele><time>2026-04-12T09:12:01.998Z</time></trkpt><trkpt lat="44.306253102395054" lon="11.427128585262448"><ele>496.0</ele><time>2026-04-12T09:12:02.998Z</time></trkpt><trkpt lat="44.30615267179292" lon="11.427074917640589"><ele>497.50000000000006</ele><time>2026-04-12T09:12:04.998Z</time></trkpt><trkpt lat="44.30609337360147" lon="11.427014069389179"><ele>499.0</ele><time>2026-04-12T09:12:06.998Z</time></trkpt><trkpt lat="44.30600711633246" lon="11.426941399960613"><ele>500.5</ele><time>2026-04-12T09:12:08.998Z</time></trkpt><trkpt lat="44.305954138639194" lon="11.426876772527834"><ele>502.0</ele><time>2026-04-12T09:12:09.998Z</time></trkpt><trkpt lat="44.30590001516866" lon="11.426822769462303"><ele>503.50000000000006</ele><time>2026-04-12T09:12:10.998Z</time></trkpt><trkpt lat="44.30579735411734" lon="11.426744970638238"><ele>505.0</ele><time>2026-04-12T09:12:12.998Z</time></trkpt><trkpt lat="44.30569677283657" lon="11.426688483825016"><ele>506.8</ele><time>2026-04-12T09:12:14.998Z</time></trkpt><trkpt lat="44.30555583197857" lon="11.426652759098124"><ele>508.6</ele><time>2026-04-12T09:12:16.998Z</time></trkpt><trkpt lat="44.305476078003494" lon="11.426645265447856"><ele>510.4</ele><time>2026-04-12T09:12:17.998Z</time></trkpt><trkpt lat="44.30538831517651" lon="11.42663791821276"><ele>512.2</ele><time>2026-04-12T09:12:18.998Z</time></trkpt><trkpt lat="44.30528023263698" lon="11.426629506720296"><ele>514.0</ele><time>2026-04-12T09:12:19.998Z</time></trkpt><trkpt lat="44.30517264403348" lon="11.426611186758354"><ele>514.0</ele><time>2026-04-12T09:12:20.998Z</time></trkpt><trkpt lat="44.305081858833866" lon="11.42657894384203"><ele>514.0</ele><time>2026-04-12T09:12:21.998Z</time></trkpt><trkpt lat="44.30500647085806" lon="11.42656120355844"><ele>514.0</ele><time>2026-04-12T09:12:22.998Z</time></trkpt><trkpt lat="44.30493843170331" lon="11.426541787564021"><ele>514.0</ele><time>2026-04-12T09:12:23.998Z</time></trkpt><trkpt lat="44.304853852924744" lon="11.426500329823849"><ele>514.0</ele><time>2026-04-12T09:12:24.998Z</time></trkpt><trkpt lat="44.30477197682668" lon="11.42643268415664"><ele>514.0</ele><time>2026-04-12T09:12:26Z</time></trkpt><trkpt lat="44.304682806299176" lon="11.426372260449009"><ele>514.0</ele><time>2026-04-12T09:12:27Z</time></trkpt><trkpt lat="44.304622203920076" lon="11.426293666890823"><ele>514.0</ele><time>2026-04-12T09:12:28Z</time></trkpt><trkpt lat="44.30457246526654" lon="11.426231754532404"><ele>514.0</ele><time>2026-04-12T09:12:29Z</time></trkpt><trkpt lat="44.304517589022815" lon="11.426177598781374"><ele>514.0</ele><time>2026-04-12T09:12:30Z</time></trkpt><trkpt lat="44.30440875665097" lon="11.426128322637709"><ele>514.0</ele><time>2026-04-12T09:12:32Z</time></trkpt><trkpt lat="44.30431259296026" lon="11.426135878597783"><ele>514.0</ele><time>2026-04-12T09:12:34Z</time></trkpt><trkpt lat="44.30424023328548" lon="11.426131738202939"><ele>514.0</ele><time>2026-04-12T09:12:35Z</time></trkpt><trkpt lat="44.30415917323386" lon="11.426114293359365"><ele>514.0</ele><time>2026-04-12T09:12:36Z</time></trkpt><trkpt lat="44.30408686585514" lon="11.426085574092415"><ele>514.0</ele><time>2026-04-12T09:12:37Z</time></trkpt><trkpt lat="44.30397056798057" lon="11.426034881317383"><ele>514.0</ele><time>2026-04-12T09:12:39Z</time></trkpt><trkpt lat="44.30387325523975" lon="11.42600911559147"><ele>514.0</ele><time>2026-04-12T09:12:41Z</time></trkpt><trkpt lat="44.30377769874121" lon="11.426007391444843"><ele>512.0</ele><time>2026-04-12T09:12:43Z</time></trkpt><trkpt lat="44.30367783122973" lon="11.426021265759674"><ele>510.0</ele><time>2026-04-12T09:12:45Z</time></trkpt><trkpt lat="44.303570830485214" lon="11.426040064965477"><ele>508.0</ele><time>2026-04-12T09:12:46.999Z</time></trkpt><trkpt lat="44.30346355506959" lon="11.426032090071198"><ele>506.0</ele><time>2026-04-12T09:12:48.999Z</time></trkpt><trkpt lat="44.303368674095175" lon="11.426043487870725"><ele>504.0</ele><time>2026-04-12T09:12:50.999Z</time></trkpt><trkpt lat="44.30328600909124" lon="11.426042589920003"><ele>504.0</ele><time>2026-04-12T09:12:52.999Z</time></trkpt><trkpt lat="44.30321749756631" lon="11.426016309877472"><ele>504.0</ele><time>2026-04-12T09:12:54.999Z</time></trkpt><trkpt lat="44.30316264870103" lon="11.42596194325707"><ele>504.0</ele><time>2026-04-12T09:12:56.999Z</time></trkpt><trkpt lat="44.303111069205016" lon="11.425879604499194"><ele>504.0</ele><time>2026-04-12T09:12:58.999Z</time></trkpt><trkpt lat="44.30303047598411" lon="11.425801388464384"><ele>504.0</ele><time>2026-04-12T09:13:00.999Z</time></trkpt><trkpt lat="44.302927257209696" lon="11.42571809597575"><ele>504.0</ele><time>2026-04-12T09:13:02.999Z</time></trkpt><trkpt lat="44.30283183827145" lon="11.425640430462417"><ele>501.6666666666667</ele><time>2026-04-12T09:13:04.999Z</time></trkpt><trkpt lat="44.302762144939436" lon="11.42557501252214"><ele>499.33333333333337</ele><time>2026-04-12T09:13:06.999Z</time></trkpt><trkpt lat="44.30269065844023" lon="11.42551465552322"><ele>497.0</ele><time>2026-04-12T09:13:08.999Z</time></trkpt><trkpt lat="44.30259883063107" lon="11.425467951422293"><ele>494.6666666666667</ele><time>2026-04-12T09:13:10.999Z</time></trkpt><trkpt lat="44.30254048082811" lon="11.425428519331184"><ele>492.33333333333337</ele><time>2026-04-12T09:13:11.999Z</time></trkpt><trkpt lat="44.30243204126542" lon="11.425367288131072"><ele>490.0</ele><time>2026-04-12T09:13:13.999Z</time></trkpt><trkpt lat="44.30233242356035" lon="11.4253406287329"><ele>489.1666666666667</ele><time>2026-04-12T09:13:15.999Z</time></trkpt><trkpt lat="44.302208789308494" lon="11.425294922888314"><ele>488.33333333333337</ele><time>2026-04-12T09:13:17.999Z</time></trkpt><trkpt lat="44.30213755664059" lon="11.425272911674162"><ele>487.5</ele><time>2026-04-12T09:13:18.999Z</time></trkpt><trkpt lat="44.3020662692689" lon="11.425249809350076"><ele>486.66666666666663</ele><time>2026-04-12T09:13:19.999Z</time></trkpt><trkpt lat="44.30200348349155" lon="11.425228797985609"><ele>485.8333333333333</ele><time>2026-04-12T09:13:20.999Z</time></trkpt><trkpt lat="44.301914278533935" lon="11.425207738915777"><ele>485.0</ele><time>2026-04-12T09:13:22.999Z</time></trkpt><trkpt lat="44.30180770706676" lon="11.425163929727406"><ele>485.0</ele><time>2026-04-12T09:13:24.999Z</time></trkpt><trkpt lat="44.30167808957511" lon="11.425143367516995"><ele>485.0</ele><time>2026-04-12T09:13:26.999Z</time></trkpt><trkpt lat="44.30159858739533" lon="11.425113877974159"><ele>485.0</ele><time>2026-04-12T09:13:27.999Z</time></trkpt><trkpt lat="44.301533380180686" lon="11.425102036238172"><ele>485.0</ele><time>2026-04-12T09:13:28.999Z</time></trkpt><trkpt lat="44.30142453055558" lon="11.425115678047607"><ele>485.0</ele><time>2026-04-12T09:13:30.999Z</time></trkpt><trkpt lat="44.30133567240112" lon="11.425147866188514"><ele>482.3333333333333</ele><time>2026-04-12T09:13:32.999Z</time></trkpt><trkpt lat="44.30125408842839" lon="11.425194967103078"><ele>479.66666666666663</ele><time>2026-04-12T09:13:34.999Z</time></trkpt><trkpt lat="44.301161041394124" lon="11.425230356981006"><ele>477.0</ele><time>2026-04-12T09:13:36.998Z</time></trkpt><trkpt lat="44.3010842674271" lon="11.425266836128614"><ele>474.33333333333337</ele><time>2026-04-12T09:13:38.998Z</time></trkpt><trkpt lat="44.30097080779959" lon="11.425248021940181"><ele>471.6666666666667</ele><time>2026-04-12T09:13:40.998Z</time></trkpt><trkpt lat="44.30090661669348" lon="11.425232711904632"><ele>469.0</ele><time>2026-04-12T09:13:41.998Z</time></trkpt><trkpt lat="44.30083874799581" lon="11.425219195210307"><ele>469.0</ele><time>2026-04-12T09:13:42.998Z</time></trkpt><trkpt lat="44.30074599882387" lon="11.425205701960552"><ele>469.0</ele><time>2026-04-12T09:13:43.998Z</time></trkpt><trkpt lat="44.30064217341314" lon="11.42518676605931"><ele>469.0</ele><time>2026-04-12T09:13:44.998Z</time></trkpt><trkpt lat="44.30054272821528" lon="11.425168055050127"><ele>469.0</ele><time>2026-04-12T09:13:45.998Z</time></trkpt><trkpt lat="44.300441655666575" lon="11.425146561789703"><ele>469.0</ele><time>2026-04-12T09:13:46.998Z</time></trkpt><trkpt lat="44.30035408156045" lon="11.425095162097447"><ele>466.83333333333337</ele><time>2026-04-12T09:13:47.998Z</time></trkpt><trkpt lat="44.30027212036014" lon="11.425052332892943"><ele>464.6666666666667</ele><time>2026-04-12T09:13:48.998Z</time></trkpt><trkpt lat="44.300189023731726" lon="11.425008965183544"><ele>462.5</ele><time>2026-04-12T09:13:49.998Z</time></trkpt><trkpt lat="44.30011659515191" lon="11.424976384763578"><ele>460.33333333333337</ele><time>2026-04-12T09:13:50.998Z</time></trkpt><trkpt lat="44.30003960210723" lon="11.424959885061893"><ele>458.1666666666667</ele><time>2026-04-12T09:13:51.998Z</time></trkpt><trkpt lat="44.299970004460256" lon="11.424930453088946"><ele>456.0</ele><time>2026-04-12T09:13:52.998Z</time></trkpt><trkpt lat="44.29988768267262" lon="11.424899373262416"><ele>456.0</ele><time>2026-04-12T09:13:53.998Z</time></trkpt><trkpt lat="44.29977205751679" lon="11.424865033940332"><ele>456.0</ele><time>2026-04-12T09:13:54.998Z</time></trkpt><trkpt lat="44.29965501976058" lon="11.424823689664146"><ele>456.0</ele><time>2026-04-12T09:13:55.998Z</time></trkpt><trkpt lat="44.299534052281466" lon="11.424802404262017"><ele>456.0</ele><time>2026-04-12T09:13:56.998Z</time></trkpt><trkpt lat="44.29943264236672" lon="11.424765268385602"><ele>457.6</ele><time>2026-04-12T09:13:57.998Z</time></trkpt><trkpt lat="44.299339768598706" lon="11.424777113781081"><ele>459.20000000000005</ele><time>2026-04-12T09:13:58.998Z</time></trkpt><trkpt lat="44.29921494688505" lon="11.424757962467025"><ele>460.79999999999995</ele><time>2026-04-12T09:13:59.998Z</time></trkpt><trkpt lat="44.29910035020771" lon="11.424771232146213"><ele>462.4</ele><time>2026-04-12T09:14:00.998Z</time></trkpt><trkpt lat="44.29901183232433" lon="11.42478618033505"><ele>464.0</ele><time>2026-04-12T09:14:01.998Z</time></trkpt><trkpt lat="44.298928014276434" lon="11.424762166261853"><ele>464.0</ele><time>2026-04-12T09:14:02.998Z</time></trkpt><trkpt lat="44.298812714758704" lon="11.424750595353183"><ele>464.0</ele><time>2026-04-12T09:14:03.998Z</time></trkpt><trkpt lat="44.298695143710354" lon="11.42474776488172"><ele>464.0</ele><time>2026-04-12T09:14:04.998Z</time></trkpt><trkpt lat="44.29855968371742" lon="11.424719188512377"><ele>464.0</ele><time>2026-04-12T09:14:05.998Z</time></trkpt><trkpt lat="44.298430772814825" lon="11.424697824885248"><ele>464.0</ele><time>2026-04-12T09:14:06.998Z</time></trkpt><trkpt lat="44.29833074792478" lon="11.424689044173396"><ele>464.0</ele><time>2026-04-12T09:14:07.998Z</time></trkpt><trkpt lat="44.29825486956733" lon="11.424691396183636"><ele>464.0</ele><time>2026-04-12T09:14:08.998Z</time></trkpt><trkpt lat="44.298141021463486" lon="11.424691612386425"><ele>464.0</ele><time>2026-04-12T09:14:10.998Z</time></trkpt><trkpt lat="44.29804249120986" lon="11.424683256839216"><ele>464.0</ele><time>2026-04-12T09:14:12.998Z</time></trkpt><trkpt lat="44.29796560954765" lon="11.424686485952877"><ele>466.0</ele><time>2026-04-12T09:14:53.999Z</time></trkpt><trkpt lat="44.297903663441446" lon="11.424719415095565"><ele>468.0</ele><time>2026-04-12T09:14:54.999Z</time></trkpt><trkpt lat="44.29781919486574" lon="11.424809476959679"><ele>470.0</ele><time>2026-04-12T09:14:55.999Z</time></trkpt><trkpt lat="44.29772157823542" lon="11.42486369579912"><ele>472.0</ele><time>2026-04-12T09:14:56.999Z</time></trkpt><trkpt lat="44.29762939862507" lon="11.424933653713644"><ele>474.0</ele><time>2026-04-12T09:14:57.999Z</time></trkpt><trkpt lat="44.29755164517148" lon="11.424981905450684"><ele>474.0</ele><time>2026-04-12T09:14:58.999Z</time></trkpt><trkpt lat="44.29741908968322" lon="11.424982146044755"><ele>474.0</ele><time>2026-04-12T09:15:00.999Z</time></trkpt><trkpt lat="44.29734988309654" lon="11.42494173836682"><ele>474.0</ele><time>2026-04-12T09:15:01.999Z</time></trkpt><trkpt lat="44.29728058759587" lon="11.424923716325582"><ele>474.0</ele><time>2026-04-12T09:15:02.999Z</time></trkpt><trkpt lat="44.29717339045154" lon="11.424957827162174"><ele>474.0</ele><time>2026-04-12T09:15:04.999Z</time></trkpt><trkpt lat="44.297108578560476" lon="11.425055973459864"><ele>473.1666666666667</ele><time>2026-04-12T09:15:06.999Z</time></trkpt><trkpt lat="44.29708722644261" lon="11.425142532657198"><ele>472.33333333333337</ele><time>2026-04-12T09:15:07.999Z</time></trkpt><trkpt lat="44.29709103904702" lon="11.425251136693552"><ele>471.5</ele><time>2026-04-12T09:15:08.999Z</time></trkpt><trkpt lat="44.29709510453145" lon="11.425367473820165"><ele>470.6666666666667</ele><time>2026-04-12T09:15:09.999Z</time></trkpt><trkpt lat="44.29705690046345" lon="11.425468293793823"><ele>469.83333333333337</ele><time>2026-04-12T09:15:10.999Z</time></trkpt><trkpt lat="44.29701703111218" lon="11.42555102526421"><ele>469.0</ele><time>2026-04-12T09:15:11.999Z</time></trkpt><trkpt lat="44.29694689471227" lon="11.425619934807548"><ele>471.2</ele><time>2026-04-12T09:15:12.999Z</time></trkpt><trkpt lat="44.29688639739014" lon="11.425686236452167"><ele>473.4</ele><time>2026-04-12T09:15:13.999Z</time></trkpt><trkpt lat="44.29676893449407" lon="11.425763904676622"><ele>475.6</ele><time>2026-04-12T09:15:15.999Z</time></trkpt><trkpt lat="44.296690153265544" lon="11.4258001820979"><ele>477.8</ele><time>2026-04-12T09:15:16.999Z</time></trkpt><trkpt lat="44.2965908379696" lon="11.425852449998656"><ele>480.0</ele><time>2026-04-12T09:15:17.999Z</time></trkpt><trkpt lat="44.29645968055777" lon="11.425896183299539"><ele>481.0</ele><time>2026-04-12T09:15:18.999Z</time></trkpt><trkpt lat="44.29635719911245" lon="11.425932210222674"><ele>482.0</ele><time>2026-04-12T09:15:19.999Z</time></trkpt><trkpt lat="44.29628513623454" lon="11.42594785784231"><ele>483.0</ele><time>2026-04-12T09:15:20.999Z</time></trkpt><trkpt lat="44.296165756575434" lon="11.42596302273664"><ele>484.0</ele><time>2026-04-12T09:15:22.999Z</time></trkpt><trkpt lat="44.296040933979484" lon="11.425971995282609"><ele>485.0</ele><time>2026-04-12T09:15:24.999Z</time></trkpt><trkpt lat="44.29591889812608" lon="11.425986772670285"><ele>484.99999999999994</ele><time>2026-04-12T09:15:26.999Z</time></trkpt><trkpt lat="44.29584017781462" lon="11.426009116970759"><ele>485.0</ele><time>2026-04-12T09:15:27.999Z</time></trkpt><trkpt lat="44.29573981363299" lon="11.426035439587112"><ele>485.0</ele><time>2026-04-12T09:15:28.999Z</time></trkpt><trkpt lat="44.29565922018906" lon="11.42605313644163"><ele>485.0</ele><time>2026-04-12T09:15:29.999Z</time></trkpt><trkpt lat="44.29558540012248" lon="11.426087775135857"><ele>484.99999999999994</ele><time>2026-04-12T09:15:30.999Z</time></trkpt><trkpt lat="44.29552108053228" lon="11.426104755674842"><ele>485.0</ele><time>2026-04-12T09:15:31.999Z</time></trkpt><trkpt lat="44.295405382696146" lon="11.426160395311394"><ele>486.6</ele><time>2026-04-12T09:15:33.999Z</time></trkpt><trkpt lat="44.2953181718287" lon="11.426173811504238"><ele>488.2</ele><time>2026-04-12T09:15:34.999Z</time></trkpt><trkpt lat="44.29521426581923" lon="11.426150056092604"><ele>489.79999999999995</ele><time>2026-04-12T09:15:35.999Z</time></trkpt><trkpt lat="44.29512718440151" lon="11.426164685312248"><ele>491.4</ele><time>2026-04-12T09:15:36.999Z</time></trkpt><trkpt lat="44.29505536038997" lon="11.42615208101238"><ele>493.0</ele><time>2026-04-12T09:15:37.999Z</time></trkpt><trkpt lat="44.29493672792493" lon="11.426170641402235"><ele>493.00000000000006</ele><time>2026-04-12T09:15:39.999Z</time></trkpt><trkpt lat="44.29485130619534" lon="11.426216521661114"><ele>493.0</ele><time>2026-04-12T09:15:40.999Z</time></trkpt><trkpt lat="44.29475967594154" lon="11.426238013867566"><ele>493.0</ele><time>2026-04-12T09:15:41.999Z</time></trkpt><trkpt lat="44.29469278077239" lon="11.42625276140156"><ele>493.0</ele><time>2026-04-12T09:15:42.999Z</time></trkpt><trkpt lat="44.29462060178064" lon="11.426238605637016"><ele>493.00000000000006</ele><time>2026-04-12T09:15:43.999Z</time></trkpt><trkpt lat="44.29452953440701" lon="11.426269746033046"><ele>493.0</ele><time>2026-04-12T09:15:45.998Z</time></trkpt><trkpt lat="44.2944528307079" lon="11.426367022141394"><ele>494.4</ele><time>2026-04-12T09:15:48.998Z</time></trkpt><trkpt lat="44.294419654230964" lon="11.426476800655854"><ele>495.79999999999995</ele><time>2026-04-12T09:15:49.998Z</time></trkpt><trkpt lat="44.294368104344805" lon="11.426620965865247"><ele>497.2</ele><time>2026-04-12T09:15:50.998Z</time></trkpt><trkpt lat="44.29432593004447" lon="11.426778769276652"><ele>498.6</ele><time>2026-04-12T09:15:51.998Z</time></trkpt><trkpt lat="44.29429842541543" lon="11.426874302185198"><ele>500.0</ele><time>2026-04-12T09:15:52.998Z</time></trkpt><trkpt lat="44.29427217981536" lon="11.426985686111331"><ele>500.0</ele><time>2026-04-12T09:15:53.998Z</time></trkpt><trkpt lat="44.294239694218966" lon="11.427114571744287"><ele>500.0</ele><time>2026-04-12T09:15:54.998Z</time></trkpt><trkpt lat="44.294214549711896" lon="11.427220816559322"><ele>500.0</ele><time>2026-04-12T09:15:55.998Z</time></trkpt><trkpt lat="44.29416459290521" lon="11.42733761905341"><ele>500.0</ele><time>2026-04-12T09:15:57.998Z</time></trkpt><trkpt lat="44.29410288394744" lon="11.427466399903563"><ele>500.0</ele><time>2026-04-12T09:15:59.998Z</time></trkpt><trkpt lat="44.29403416788729" lon="11.427529664114147"><ele>499.6</ele><time>2026-04-12T09:16:00.998Z</time></trkpt><trkpt lat="44.293964896493904" lon="11.427588581215709"><ele>499.2</ele><time>2026-04-12T09:16:01.998Z</time></trkpt><trkpt lat="44.2938774932047" lon="11.427662490500598"><ele>498.79999999999995</ele><time>2026-04-12T09:16:02.998Z</time></trkpt><trkpt lat="44.29374471513235" lon="11.427727443096796"><ele>498.4</ele><time>2026-04-12T09:16:03.998Z</time></trkpt><trkpt lat="44.29364520308852" lon="11.427798828104173"><ele>498.0</ele><time>2026-04-12T09:16:04.998Z</time></trkpt><trkpt lat="44.29355706870211" lon="11.4278575680701"><ele>497.3333333333333</ele><time>2026-04-12T09:16:05.998Z</time></trkpt><trkpt lat="44.293478390758125" lon="11.427913458953753"><ele>496.66666666666663</ele><time>2026-04-12T09:16:06.998Z</time></trkpt><trkpt lat="44.293408057529554" lon="11.4279610638874"><ele>496.0</ele><time>2026-04-12T09:16:07.998Z</time></trkpt><trkpt lat="44.29333822037878" lon="11.428007202508034"><ele>495.3333333333333</ele><time>2026-04-12T09:16:08.998Z</time></trkpt><trkpt lat="44.29322189695463" lon="11.428084047427504"><ele>494.66666666666663</ele><time>2026-04-12T09:16:10.998Z</time></trkpt><trkpt lat="44.293159627824885" lon="11.428112384988607"><ele>494.0</ele><time>2026-04-12T09:16:11.998Z</time></trkpt><trkpt lat="44.29304731391365" lon="11.428156507919878"><ele>492.7142857142857</ele><time>2026-04-12T09:16:13.998Z</time></trkpt><trkpt lat="44.2929824671002" lon="11.428168010437286"><ele>491.42857142857144</ele><time>2026-04-12T09:16:14.998Z</time></trkpt><trkpt lat="44.29291358479301" lon="11.428165319051624"><ele>490.14285714285717</ele><time>2026-04-12T09:16:15.998Z</time></trkpt><trkpt lat="44.292847562128806" lon="11.428158153198329"><ele>488.8571428571429</ele><time>2026-04-12T09:16:16.998Z</time></trkpt><trkpt lat="44.292788972554966" lon="11.428118723172965"><ele>487.57142857142856</ele><time>2026-04-12T09:16:17.998Z</time></trkpt><trkpt lat="44.292717448105584" lon="11.428114427158391"><ele>486.28571428571433</ele><time>2026-04-12T09:16:18.998Z</time></trkpt><trkpt lat="44.29261011108417" lon="11.428085530688252"><ele>485.00000000000006</ele><time>2026-04-12T09:16:20.998Z</time></trkpt><trkpt lat="44.29251446208618" lon="11.428065178360674"><ele>485.00000000000006</ele><time>2026-04-12T09:16:22.998Z</time></trkpt><trkpt lat="44.292423863992816" lon="11.428027769098527"><ele>485.0</ele><time>2026-04-12T09:16:24.998Z</time></trkpt><trkpt lat="44.29236046079486" lon="11.42799471054644"><ele>485.00000000000006</ele><time>2026-04-12T09:16:25.998Z</time></trkpt><trkpt lat="44.29230867073437" lon="11.42792979363919"><ele>485.00000000000006</ele><time>2026-04-12T09:16:26.998Z</time></trkpt><trkpt lat="44.29223880551" lon="11.427890978138269"><ele>485.0</ele><time>2026-04-12T09:16:27.998Z</time></trkpt><trkpt lat="44.29218998626171" lon="11.427830261263232"><ele>485.00000000000006</ele><time>2026-04-12T09:16:28.998Z</time></trkpt><trkpt lat="44.292148662824914" lon="11.427761217756744"><ele>485.00000000000006</ele><time>2026-04-12T09:16:29.998Z</time></trkpt><trkpt lat="44.29211688763343" lon="11.427685274259803"><ele>485.66666666666663</ele><time>2026-04-12T09:16:30.998Z</time></trkpt><trkpt lat="44.29207745569222" lon="11.42760411785759"><ele>486.3333333333333</ele><time>2026-04-12T09:16:31.998Z</time></trkpt><trkpt lat="44.292027646140475" lon="11.42752122638726"><ele>487.0</ele><time>2026-04-12T09:16:32.998Z</time></trkpt><trkpt lat="44.29197797685669" lon="11.427452331854303"><ele>487.66666666666663</ele><time>2026-04-12T09:16:33.998Z</time></trkpt><trkpt lat="44.29192406244695" lon="11.427404425441784"><ele>488.3333333333333</ele><time>2026-04-12T09:16:34.998Z</time></trkpt><trkpt lat="44.291845601894835" lon="11.427354327775245"><ele>489.0</ele><time>2026-04-12T09:16:35.998Z</time></trkpt><trkpt lat="44.291762651707444" lon="11.427303358494875"><ele>489.0</ele><time>2026-04-12T09:16:37Z</time></trkpt><trkpt lat="44.29169779361541" lon="11.42726389026242"><ele>489.0</ele><time>2026-04-12T09:16:38Z</time></trkpt><trkpt lat="44.29163606385744" lon="11.4272414654514"><ele>489.0</ele><time>2026-04-12T09:16:39Z</time></trkpt><trkpt lat="44.29153255607667" lon="11.427242965452818"><ele>489.0</ele><time>2026-04-12T09:16:41Z</time></trkpt><trkpt lat="44.29146793881733" lon="11.427248475659896"><ele>489.0</ele><time>2026-04-12T09:16:42Z</time></trkpt><trkpt lat="44.29140359445508" lon="11.427270918432763"><ele>489.0</ele><time>2026-04-12T09:16:43Z</time></trkpt><trkpt lat="44.2913293966435" lon="11.427318184344935"><ele>489.5</ele><time>2026-04-12T09:16:44Z</time></trkpt><trkpt lat="44.29125692568254" lon="11.427385951741943"><ele>490.0</ele><time>2026-04-12T09:16:45Z</time></trkpt><trkpt lat="44.29120445883109" lon="11.42745247102837"><ele>490.5</ele><time>2026-04-12T09:16:46Z</time></trkpt><trkpt lat="44.29116102386314" lon="11.42752956631956"><ele>491.0</ele><time>2026-04-12T09:16:47Z</time></trkpt><trkpt lat="44.291104681564505" lon="11.427587117237222"><ele>491.5</ele><time>2026-04-12T09:16:48Z</time></trkpt><trkpt lat="44.291039256431766" lon="11.427687425924749"><ele>492.0</ele><time>2026-04-12T09:16:50Z</time></trkpt><trkpt lat="44.290945847615006" lon="11.427749313858671"><ele>492.0</ele><time>2026-04-12T09:16:51.999Z</time></trkpt><trkpt lat="44.29082560650724" lon="11.427759631803415"><ele>492.0</ele><time>2026-04-12T09:16:53.999Z</time></trkpt><trkpt lat="44.29076100755389" lon="11.42772429900719"><ele>492.0</ele><time>2026-04-12T09:16:54.999Z</time></trkpt><trkpt lat="44.2907082738752" lon="11.427654512987079"><ele>492.0</ele><time>2026-04-12T09:16:55.999Z</time></trkpt><trkpt lat="44.29064780784337" lon="11.427625524260092"><ele>492.0</ele><time>2026-04-12T09:16:56.999Z</time></trkpt><trkpt lat="44.29055936598918" lon="11.427557118413796"><ele>492.0</ele><time>2026-04-12T09:16:58.999Z</time></trkpt><trkpt lat="44.29049603733916" lon="11.42754734321279"><ele>493.3333333333333</ele><time>2026-04-12T09:16:59.999Z</time></trkpt><trkpt lat="44.290428749344244" lon="11.42755078958612"><ele>494.66666666666663</ele><time>2026-04-12T09:17:00.999Z</time></trkpt><trkpt lat="44.29036064888029" lon="11.427571683193468"><ele>496.0</ele><time>2026-04-12T09:17:01.999Z</time></trkpt><trkpt lat="44.290300805976216" lon="11.427605194629207"><ele>497.3333333333333</ele><time>2026-04-12T09:17:02.999Z</time></trkpt><trkpt lat="44.29020759431307" lon="11.427717524627218"><ele>498.66666666666663</ele><time>2026-04-12T09:17:04.999Z</time></trkpt><trkpt lat="44.29014948302383" lon="11.427822559549751"><ele>500.0</ele><time>2026-04-12T09:17:05.999Z</time></trkpt><trkpt lat="44.29009344064107" lon="11.4278892440582"><ele>498.8</ele><time>2026-04-12T09:17:06.999Z</time></trkpt><trkpt lat="44.29003149919039" lon="11.427994587436185"><ele>497.6</ele><time>2026-04-12T09:17:08.999Z</time></trkpt><trkpt lat="44.289921559204075" lon="11.428022642618"><ele>496.4</ele><time>2026-04-12T09:17:10.999Z</time></trkpt><trkpt lat="44.28984482174083" lon="11.428022563676633"><ele>495.2</ele><time>2026-04-12T09:17:11.999Z</time></trkpt><trkpt lat="44.28976150464582" lon="11.428036209562528"><ele>494.0</ele><time>2026-04-12T09:17:12.999Z</time></trkpt><trkpt lat="44.289683002736695" lon="11.428069575899276"><ele>494.0</ele><time>2026-04-12T09:17:13.999Z</time></trkpt><trkpt lat="44.2895952673543" lon="11.42810659868361"><ele>494.0</ele><time>2026-04-12T09:17:14.999Z</time></trkpt><trkpt lat="44.28950452979043" lon="11.42814460316758"><ele>494.0</ele><time>2026-04-12T09:17:15.999Z</time></trkpt><trkpt lat="44.289432378998164" lon="11.428164825932965"><ele>494.0</ele><time>2026-04-12T09:17:16.999Z</time></trkpt><trkpt lat="44.28933720920089" lon="11.428125062453475"><ele>494.0</ele><time>2026-04-12T09:17:18.999Z</time></trkpt><trkpt lat="44.28920902157795" lon="11.42803575174284"><ele>494.0</ele><time>2026-04-12T09:17:20.999Z</time></trkpt><trkpt lat="44.28912449052328" lon="11.427980931380539"><ele>494.0</ele><time>2026-04-12T09:17:21.999Z</time></trkpt><trkpt lat="44.28901922545147" lon="11.42794806971081"><ele>494.0</ele><time>2026-04-12T09:17:23.999Z</time></trkpt><trkpt lat="44.28895506648773" lon="11.427947618739788"><ele>494.0</ele><time>2026-04-12T09:17:24.999Z</time></trkpt><trkpt lat="44.28886891276394" lon="11.427902898248746"><ele>494.0</ele><time>2026-04-12T09:17:26.999Z</time></trkpt><trkpt lat="44.28879723209072" lon="11.427816514189432"><ele>493.8333333333333</ele><time>2026-04-12T09:17:29.998Z</time></trkpt><trkpt lat="44.2887692104484" lon="11.427704144061796"><ele>493.66666666666663</ele><time>2026-04-12T09:17:31.998Z</time></trkpt><trkpt lat="44.288781472857636" lon="11.42761558874566"><ele>493.5</ele><time>2026-04-12T09:17:32.998Z</time></trkpt><trkpt lat="44.28876047405446" lon="11.427481964481931"><ele>493.33333333333337</ele><time>2026-04-12T09:17:34.998Z</time></trkpt><trkpt lat="44.288724501961326" lon="11.427357394334795"><ele>493.1666666666667</ele><time>2026-04-12T09:17:36.998Z</time></trkpt><trkpt lat="44.28868330784402" lon="11.427251690586752"><ele>493.0</ele><time>2026-04-12T09:17:38.998Z</time></trkpt><trkpt lat="44.288610185781785" lon="11.427153406958551"><ele>494.57142857142856</ele><time>2026-04-12T09:17:40.998Z</time></trkpt><trkpt lat="44.288567719504094" lon="11.42708811026074"><ele>496.14285714285717</ele><time>2026-04-12T09:17:41.998Z</time></trkpt><trkpt lat="44.288511885612145" lon="11.427024495256191"><ele>497.7142857142857</ele><time>2026-04-12T09:17:42.998Z</time></trkpt><trkpt lat="44.28845298359792" lon="11.42697409635023"><ele>499.2857142857143</ele><time>2026-04-12T09:17:43.998Z</time></trkpt><trkpt lat="44.28840194587233" lon="11.42689852891134"><ele>500.8571428571429</ele><time>2026-04-12T09:17:44.998Z</time></trkpt><trkpt lat="44.28832837341041" lon="11.426830061535545"><ele>502.42857142857144</ele><time>2026-04-12T09:17:45.998Z</time></trkpt><trkpt lat="44.28827304904132" lon="11.426777188369924"><ele>504.0</ele><time>2026-04-12T09:17:46.998Z</time></trkpt><trkpt lat="44.2881729159727" lon="11.426721706223393"><ele>504.0</ele><time>2026-04-12T09:17:48.998Z</time></trkpt><trkpt lat="44.288106339176" lon="11.426707242345499"><ele>504.0</ele><time>2026-04-12T09:17:49.998Z</time></trkpt><trkpt lat="44.28803463012327" lon="11.42670537929702"><ele>504.0</ele><time>2026-04-12T09:17:50.998Z</time></trkpt><trkpt lat="44.28796253580338" lon="11.426682939759722"><ele>504.0</ele><time>2026-04-12T09:17:51.998Z</time></trkpt><trkpt lat="44.28787837953947" lon="11.426663472072702"><ele>504.0</ele><time>2026-04-12T09:17:52.998Z</time></trkpt><trkpt lat="44.287789861204764" lon="11.426646981027183"><ele>504.0</ele><time>2026-04-12T09:17:53.998Z</time></trkpt><trkpt lat="44.28766899134816" lon="11.426643483094361"><ele>504.1666666666667</ele><time>2026-04-12T09:17:55.998Z</time></trkpt><trkpt lat="44.2876020751243" lon="11.426655631497484"><ele>504.33333333333337</ele><time>2026-04-12T09:17:56.998Z</time></trkpt><trkpt lat="44.28753159999289" lon="11.426687362765088"><ele>504.5</ele><time>2026-04-12T09:17:57.998Z</time></trkpt><trkpt lat="44.28745218258624" lon="11.426736253747286"><ele>504.6666666666667</ele><time>2026-04-12T09:17:58.998Z</time></trkpt><trkpt lat="44.28737452524723" lon="11.426760009775407"><ele>504.83333333333337</ele><time>2026-04-12T09:17:59.998Z</time></trkpt><trkpt lat="44.28726762335246" lon="11.426789660265882"><ele>505.0</ele><time>2026-04-12T09:18:01.998Z</time></trkpt><trkpt lat="44.287145732874336" lon="11.426773998099607"><ele>503.6</ele><time>2026-04-12T09:18:03.998Z</time></trkpt><trkpt lat="44.28706243643871" lon="11.426745491529797"><ele>502.2</ele><time>2026-04-12T09:18:04.998Z</time></trkpt><trkpt lat="44.28696202648399" lon="11.426667829578287"><ele>500.79999999999995</ele><time>2026-04-12T09:18:06.998Z</time></trkpt><trkpt lat="44.28690086381669" lon="11.426607214360182"><ele>499.4</ele><time>2026-04-12T09:18:07.998Z</time></trkpt><trkpt lat="44.2868399188091" lon="11.426524102263452"><ele>498.0</ele><time>2026-04-12T09:18:08.998Z</time></trkpt><trkpt lat="44.28677807873536" lon="11.426424626400525"><ele>498.0</ele><time>2026-04-12T09:18:09.998Z</time></trkpt><trkpt lat="44.28670174500576" lon="11.426340018752262"><ele>498.0</ele><time>2026-04-12T09:18:10.998Z</time></trkpt><trkpt lat="44.28663908416851" lon="11.426264622599394"><ele>498.0</ele><time>2026-04-12T09:18:11.998Z</time></trkpt><trkpt lat="44.28657640266981" lon="11.42620850954356"><ele>498.0</ele><time>2026-04-12T09:18:12.998Z</time></trkpt><trkpt lat="44.28652598220443" lon="11.426146689968508"><ele>498.0</ele><time>2026-04-12T09:18:13.998Z</time></trkpt><trkpt lat="44.28645570556407" lon="11.426104145850315"><ele>498.0</ele><time>2026-04-12T09:18:14.998Z</time></trkpt><trkpt lat="44.28637982911942" lon="11.426088615556631"><ele>500.3333333333333</ele><time>2026-04-12T09:18:15.998Z</time></trkpt><trkpt lat="44.286302571829246" lon="11.426107646368912"><ele>502.66666666666663</ele><time>2026-04-12T09:18:16.998Z</time></trkpt><trkpt lat="44.28623353599253" lon="11.426099029513853"><ele>505.0</ele><time>2026-04-12T09:18:17.998Z</time></trkpt><trkpt lat="44.28616897137003" lon="11.426105438225528"><ele>507.3333333333333</ele><time>2026-04-12T09:18:18.998Z</time></trkpt><trkpt lat="44.286045774395006" lon="11.426104925143521"><ele>509.66666666666663</ele><time>2026-04-12T09:18:20.998Z</time></trkpt><trkpt lat="44.28595534810136" lon="11.426094884861028"><ele>512.0</ele><time>2026-04-12T09:18:21.997Z</time></trkpt><trkpt lat="44.285868035836344" lon="11.426045861899546"><ele>511.99999999999994</ele><time>2026-04-12T09:18:22.997Z</time></trkpt><trkpt lat="44.28578273470307" lon="11.426012395310172"><ele>512.0</ele><time>2026-04-12T09:18:23.997Z</time></trkpt><trkpt lat="44.28571473909053" lon="11.425985718277762"><ele>512.0</ele><time>2026-04-12T09:18:24.997Z</time></trkpt><trkpt lat="44.285611135224656" lon="11.425945070887877"><ele>512.0</ele><time>2026-04-12T09:18:26.997Z</time></trkpt><trkpt lat="44.28553421412856" lon="11.425915733142691"><ele>511.99999999999994</ele><time>2026-04-12T09:18:27.997Z</time></trkpt><trkpt lat="44.2854338541347" lon="11.425899682696205"><ele>512.0</ele><time>2026-04-12T09:18:28.997Z</time></trkpt><trkpt lat="44.285363581515796" lon="11.425870754313825"><ele>512.2</ele><time>2026-04-12T09:18:29.997Z</time></trkpt><trkpt lat="44.28529461570871" lon="11.425859614546617"><ele>512.4000000000001</ele><time>2026-04-12T09:18:30.997Z</time></trkpt><trkpt lat="44.28523236877912" lon="11.425873659498329"><ele>512.5999999999999</ele><time>2026-04-12T09:18:31.997Z</time></trkpt><trkpt lat="44.285138255613866" lon="11.426024290165213"><ele>512.8</ele><time>2026-04-12T09:18:33.997Z</time></trkpt><trkpt lat="44.28505646996849" lon="11.426131495524992"><ele>513.0</ele><time>2026-04-12T09:18:34.997Z</time></trkpt><trkpt lat="44.2849976752745" lon="11.426201006915383"><ele>513.0</ele><time>2026-04-12T09:18:35.997Z</time></trkpt><trkpt lat="44.28488189410246" lon="11.426250118196156"><ele>513.0</ele><time>2026-04-12T09:18:37.997Z</time></trkpt><trkpt lat="44.284813696359365" lon="11.426254553942297"><ele>513.0</ele><time>2026-04-12T09:18:38.997Z</time></trkpt><trkpt lat="44.284692781843894" lon="11.426199056732068"><ele>513.0</ele><time>2026-04-12T09:18:40.997Z</time></trkpt><trkpt lat="44.28462397842887" lon="11.426151025259236"><ele>513.0</ele><time>2026-04-12T09:18:42.999Z</time></trkpt><trkpt lat="44.28458336695957" lon="11.42607678717282"><ele>515.1999999999999</ele><time>2026-04-12T09:18:44.999Z</time></trkpt><trkpt lat="44.28453667975069" lon="11.42596551160377"><ele>517.4</ele><time>2026-04-12T09:18:46.999Z</time></trkpt><trkpt lat="44.28456400437497" lon="11.425864312414664"><ele>519.5999999999999</ele><time>2026-04-12T09:18:48.999Z</time></trkpt><trkpt lat="44.28463549462022" lon="11.425751585529733"><ele>521.8</ele><time>2026-04-12T09:18:50.999Z</time></trkpt><trkpt lat="44.28470490997749" lon="11.42563028113771"><ele>524.0</ele><time>2026-04-12T09:18:52.999Z</time></trkpt><trkpt lat="44.28474985844441" lon="11.425509793037765"><ele>524.2</ele><time>2026-04-12T09:18:53.999Z</time></trkpt><trkpt lat="44.28481042921051" lon="11.425356446626791"><ele>524.4</ele><time>2026-04-12T09:18:54.999Z</time></trkpt><trkpt lat="44.28488216891424" lon="11.425243635119692"><ele>524.6</ele><time>2026-04-12T09:18:55.999Z</time></trkpt><trkpt lat="44.28493914926052" lon="11.42516065350011"><ele>524.8</ele><time>2026-04-12T09:18:56.999Z</time></trkpt><trkpt lat="44.28500067017623" lon="11.425098622189855"><ele>525.0</ele><time>2026-04-12T09:18:57.999Z</time></trkpt><trkpt lat="44.28508650709956" lon="11.425048812495982"><ele>525.0</ele><time>2026-04-12T09:18:58.999Z</time></trkpt><trkpt lat="44.28518409442575" lon="11.424993316749756"><ele>525.0</ele><time>2026-04-12T09:18:59.999Z</time></trkpt><trkpt lat="44.28526190910072" lon="11.424952761733064"><ele>525.0</ele><time>2026-04-12T09:19:00.999Z</time></trkpt><trkpt lat="44.28534251831948" lon="11.42491433378103"><ele>525.0</ele><time>2026-04-12T09:19:01.999Z</time></trkpt><trkpt lat="44.28544106454475" lon="11.42487784841322"><ele>525.0</ele><time>2026-04-12T09:19:02.999Z</time></trkpt><trkpt lat="44.28554002690129" lon="11.42485911098148"><ele>525.3333333333334</ele><time>2026-04-12T09:19:03.999Z</time></trkpt><trkpt lat="44.28561745609094" lon="11.424858050510466"><ele>525.6666666666666</ele><time>2026-04-12T09:19:04.999Z</time></trkpt><trkpt lat="44.28575689172281" lon="11.42488533411759"><ele>526.0</ele><time>2026-04-12T09:19:06.999Z</time></trkpt><trkpt lat="44.28584787290773" lon="11.42485523069977"><ele>526.3333333333333</ele><time>2026-04-12T09:19:07.999Z</time></trkpt><trkpt lat="44.2859111315369" lon="11.42483182502709"><ele>526.6666666666666</ele><time>2026-04-12T09:19:08.999Z</time></trkpt><trkpt lat="44.28596990612929" lon="11.424790094719741"><ele>527.0</ele><time>2026-04-12T09:19:09.999Z</time></trkpt><trkpt lat="44.286025299701706" lon="11.424741659676744"><ele>527.0</ele><time>2026-04-12T09:19:10.999Z</time></trkpt><trkpt lat="44.28608183124398" lon="11.424684850390657"><ele>527.0</ele><time>2026-04-12T09:19:11.999Z</time></trkpt><trkpt lat="44.28613129460417" lon="11.424617795614223"><ele>527.0</ele><time>2026-04-12T09:19:12.999Z</time></trkpt><trkpt lat="44.28618281763438" lon="11.424539530328556"><ele>527.0</ele><time>2026-04-12T09:19:13.999Z</time></trkpt><trkpt lat="44.28623981547173" lon="11.424425286446619"><ele>527.0</ele><time>2026-04-12T09:19:15.999Z</time></trkpt><trkpt lat="44.28627806374596" lon="11.424332982618168"><ele>527.0</ele><time>2026-04-12T09:19:17.999Z</time></trkpt><trkpt lat="44.286340388113864" lon="11.42428453501891"><ele>527.4</ele><time>2026-04-12T09:19:20.999Z</time></trkpt><trkpt lat="44.28625318025256" lon="11.424306796871543"><ele>527.8000000000001</ele><time>2026-04-12T09:19:28.999Z</time></trkpt><trkpt lat="44.28615375993966" lon="11.424332700060509"><ele>528.2</ele><time>2026-04-12T09:19:30.999Z</time></trkpt><trkpt lat="44.286068175930765" lon="11.424395563886172"><ele>528.6</ele><time>2026-04-12T09:19:32.999Z</time></trkpt><trkpt lat="44.28598516698356" lon="11.424465183814233"><ele>529.0</ele><time>2026-04-12T09:19:34.999Z</time></trkpt><trkpt lat="44.28589642627571" lon="11.424483168893243"><ele>529.0</ele><time>2026-04-12T09:19:36.999Z</time></trkpt><trkpt lat="44.28580199759026" lon="11.424482950664453"><ele>529.0</ele><time>2026-04-12T09:19:38.999Z</time></trkpt><trkpt lat="44.285673945652874" lon="11.424466928288354"><ele>529.0</ele><time>2026-04-12T09:19:40.999Z</time></trkpt><trkpt lat="44.285599359523644" lon="11.424454340302285"><ele>529.0</ele><time>2026-04-12T09:19:41.999Z</time></trkpt><trkpt lat="44.28552328770115" lon="11.424441061485712"><ele>529.0</ele><time>2026-04-12T09:19:42.999Z</time></trkpt><trkpt lat="44.285444535684704" lon="11.424430978153307"><ele>528.6666666666667</ele><time>2026-04-12T09:19:43.999Z</time></trkpt><trkpt lat="44.28536763843006" lon="11.42442340100479"><ele>528.3333333333334</ele><time>2026-04-12T09:19:44.999Z</time></trkpt><trkpt lat="44.285290717419116" lon="11.424416237113453"><ele>528.0</ele><time>2026-04-12T09:19:45.999Z</time></trkpt><trkpt lat="44.28520981366582" lon="11.424410693946333"><ele>527.6666666666666</ele><time>2026-04-12T09:19:46.999Z</time></trkpt><trkpt lat="44.28512390658343" lon="11.42440824996118"><ele>527.3333333333333</ele><time>2026-04-12T09:19:47.999Z</time></trkpt><trkpt lat="44.285037073883885" lon="11.424408610965292"><ele>527.0</ele><time>2026-04-12T09:19:48.999Z</time></trkpt><trkpt lat="44.284952876320645" lon="11.424412473156794"><ele>527.0</ele><time>2026-04-12T09:19:49.999Z</time></trkpt><trkpt lat="44.284863035143864" lon="11.424422217771614"><ele>527.0</ele><time>2026-04-12T09:19:50.999Z</time></trkpt><trkpt lat="44.28477545367715" lon="11.424442352876735"><ele>527.0</ele><time>2026-04-12T09:19:51.999Z</time></trkpt><trkpt lat="44.28470952311495" lon="11.424456057313428"><ele>527.0</ele><time>2026-04-12T09:19:52.998Z</time></trkpt><trkpt lat="44.28463570052412" lon="11.424464290957525"><ele>527.0</ele><time>2026-04-12T09:19:53.998Z</time></trkpt><trkpt lat="44.28456787035927" lon="11.424467007666893"><ele>527.0</ele><time>2026-04-12T09:19:54.998Z</time></trkpt><trkpt lat="44.28447842504582" lon="11.424476300905992"><ele>527.0</ele><time>2026-04-12T09:19:55.998Z</time></trkpt><trkpt lat="44.28438188429599" lon="11.42449511846542"><ele>527.0</ele><time>2026-04-12T09:19:56.998Z</time></trkpt><trkpt lat="44.284276144625785" lon="11.424548163564666"><ele>527.0</ele><time>2026-04-12T09:19:57.998Z</time></trkpt><trkpt lat="44.28415175030411" lon="11.424584498035829"><ele>527.0</ele><time>2026-04-12T09:19:58.998Z</time></trkpt><trkpt lat="44.28405280006176" lon="11.42462095574259"><ele>527.0</ele><time>2026-04-12T09:19:59.998Z</time></trkpt><trkpt lat="44.2839687178497" lon="11.424638095581885"><ele>530.0</ele><time>2026-04-12T09:20:00.998Z</time></trkpt><trkpt lat="44.28388308499378" lon="11.424656841633142"><ele>533.0</ele><time>2026-04-12T09:20:01.998Z</time></trkpt><trkpt lat="44.28380146706303" lon="11.424674708769093"><ele>536.0</ele><time>2026-04-12T09:20:02.998Z</time></trkpt><trkpt lat="44.283725087965884" lon="11.42469142911662"><ele>539.0</ele><time>2026-04-12T09:20:03.998Z</time></trkpt><trkpt lat="44.2836494213813" lon="11.424708923354034"><ele>542.0</ele><time>2026-04-12T09:20:04.998Z</time></trkpt><trkpt lat="44.28357826735199" lon="11.424729525519009"><ele>545.0</ele><time>2026-04-12T09:20:05.998Z</time></trkpt><trkpt lat="44.28350667709704" lon="11.424767448364797"><ele>545.0</ele><time>2026-04-12T09:20:06.998Z</time></trkpt><trkpt lat="44.28342869585998" lon="11.424754047926992"><ele>545.0</ele><time>2026-04-12T09:20:07.998Z</time></trkpt><trkpt lat="44.28334851205347" lon="11.424752117724228"><ele>545.0</ele><time>2026-04-12T09:20:08.998Z</time></trkpt><trkpt lat="44.28326564917386" lon="11.424750568533728"><ele>545.0</ele><time>2026-04-12T09:20:09.998Z</time></trkpt><trkpt lat="44.28317462426978" lon="11.424748851082366"><ele>545.0</ele><time>2026-04-12T09:20:10.998Z</time></trkpt><trkpt lat="44.28307685733517" lon="11.424747006421926"><ele>545.0</ele><time>2026-04-12T09:20:11.998Z</time></trkpt><trkpt lat="44.28297552671323" lon="11.424765517994455"><ele>544.3333333333333</ele><time>2026-04-12T09:20:12.998Z</time></trkpt><trkpt lat="44.28288807085376" lon="11.424771363820186"><ele>543.6666666666666</ele><time>2026-04-12T09:20:13.998Z</time></trkpt><trkpt lat="44.28280482817335" lon="11.424793495727222"><ele>543.0</ele><time>2026-04-12T09:20:14.998Z</time></trkpt><trkpt lat="44.28273166011828" lon="11.424792404581838"><ele>542.3333333333334</ele><time>2026-04-12T09:20:15.998Z</time></trkpt><trkpt lat="44.28267071840344" lon="11.424722946000383"><ele>541.6666666666667</ele><time>2026-04-12T09:20:16.998Z</time></trkpt><trkpt lat="44.28262201474372" lon="11.424637345018255"><ele>541.0</ele><time>2026-04-12T09:20:17.998Z</time></trkpt><trkpt lat="44.28255683002793" lon="11.424595375843117"><ele>541.0</ele><time>2026-04-12T09:20:18.998Z</time></trkpt><trkpt lat="44.28249293264849" lon="11.424546643171618"><ele>541.0</ele><time>2026-04-12T09:20:19.998Z</time></trkpt><trkpt lat="44.28242337014067" lon="11.424508633218354"><ele>541.0</ele><time>2026-04-12T09:20:20.998Z</time></trkpt><trkpt lat="44.28234315385096" lon="11.424504598073272"><ele>541.0</ele><time>2026-04-12T09:20:21.998Z</time></trkpt><trkpt lat="44.28225208303388" lon="11.42451660580287"><ele>541.0</ele><time>2026-04-12T09:20:22.998Z</time></trkpt><trkpt lat="44.28215392791569" lon="11.424527493364888"><ele>541.0</ele><time>2026-04-12T09:20:23.998Z</time></trkpt><trkpt lat="44.28205790982762" lon="11.42452224661575"><ele>543.1666666666667</ele><time>2026-04-12T09:20:24.998Z</time></trkpt><trkpt lat="44.28197240235052" lon="11.424484535175441"><ele>545.3333333333334</ele><time>2026-04-12T09:20:25.998Z</time></trkpt><trkpt lat="44.2819048508666" lon="11.42441069592283"><ele>547.5</ele><time>2026-04-12T09:20:26.998Z</time></trkpt><trkpt lat="44.28184697655276" lon="11.424346213540586"><ele>549.6666666666666</ele><time>2026-04-12T09:20:27.998Z</time></trkpt><trkpt lat="44.281803735219796" lon="11.424276768440567"><ele>551.8333333333333</ele><time>2026-04-12T09:20:28.998Z</time></trkpt><trkpt lat="44.28174627993374" lon="11.424205470977999"><ele>554.0</ele><time>2026-04-12T09:20:29.998Z</time></trkpt><trkpt lat="44.281690633388585" lon="11.42415444343752"><ele>554.0</ele><time>2026-04-12T09:20:30.998Z</time></trkpt><trkpt lat="44.28163088378995" lon="11.42409153353887"><ele>554.0</ele><time>2026-04-12T09:20:31.998Z</time></trkpt><trkpt lat="44.28156458664714" lon="11.424024210384744"><ele>554.0</ele><time>2026-04-12T09:20:32.998Z</time></trkpt><trkpt lat="44.2814934177791" lon="11.42397111255111"><ele>554.0</ele><time>2026-04-12T09:20:33.998Z</time></trkpt><trkpt lat="44.28142190156248" lon="11.4239148134853"><ele>554.0</ele><time>2026-04-12T09:20:34.998Z</time></trkpt><trkpt lat="44.28134838865091" lon="11.423867159506917"><ele>554.0</ele><time>2026-04-12T09:20:35.998Z</time></trkpt><trkpt lat="44.28128309315018" lon="11.423835690232657"><ele>555.1666666666666</ele><time>2026-04-12T09:20:36.998Z</time></trkpt><trkpt lat="44.281215683931045" lon="11.423822280460142"><ele>556.3333333333333</ele><time>2026-04-12T09:20:37.998Z</time></trkpt><trkpt lat="44.28114280641045" lon="11.423835728844384"><ele>557.5</ele><time>2026-04-12T09:20:38.998Z</time></trkpt><trkpt lat="44.2810679896664" lon="11.423874258830452"><ele>558.6666666666666</ele><time>2026-04-12T09:20:39.998Z</time></trkpt><trkpt lat="44.28099024848333" lon="11.423928213248475"><ele>559.8333333333334</ele><time>2026-04-12T09:20:40.998Z</time></trkpt><trkpt lat="44.28091444290056" lon="11.423981062475937"><ele>561.0</ele><time>2026-04-12T09:20:41.998Z</time></trkpt><trkpt lat="44.28083714337738" lon="11.42402877576893"><ele>561.0</ele><time>2026-04-12T09:20:42.998Z</time></trkpt><trkpt lat="44.280757384551755" lon="11.424059978632203"><ele>561.0</ele><time>2026-04-12T09:20:43.998Z</time></trkpt><trkpt lat="44.28067437882778" lon="11.424078113775973"><ele>561.0</ele><time>2026-04-12T09:20:44.998Z</time></trkpt><trkpt lat="44.28059573534657" lon="11.424086305005686"><ele>561.0</ele><time>2026-04-12T09:20:45.998Z</time></trkpt><trkpt lat="44.28051747640458" lon="11.42409345436054"><ele>561.0</ele><time>2026-04-12T09:20:46.998Z</time></trkpt><trkpt lat="44.28043767964733" lon="11.424115921173398"><ele>561.0</ele><time>2026-04-12T09:20:48Z</time></trkpt><trkpt lat="44.2803525568351" lon="11.42415161465096"><ele>561.1666666666666</ele><time>2026-04-12T09:20:49Z</time></trkpt><trkpt lat="44.280272919528706" lon="11.424202830890197"><ele>561.3333333333334</ele><time>2026-04-12T09:20:49.999Z</time></trkpt><trkpt lat="44.28018994497156" lon="11.424257875428241"><ele>561.5</ele><time>2026-04-12T09:20:50.999Z</time></trkpt><trkpt lat="44.28010929169592" lon="11.424305985859526"><ele>561.6666666666667</ele><time>2026-04-12T09:20:51.999Z</time></trkpt><trkpt lat="44.2800190165796" lon="11.424335639727865"><ele>561.8333333333334</ele><time>2026-04-12T09:20:52.999Z</time></trkpt><trkpt lat="44.27993100956899" lon="11.424338650254732"><ele>562.0</ele><time>2026-04-12T09:20:53.999Z</time></trkpt><trkpt lat="44.27984963016084" lon="11.424320100945708"><ele>562.0000000000001</ele><time>2026-04-12T09:20:54.999Z</time></trkpt><trkpt lat="44.279768278896306" lon="11.424273300405423"><ele>562.0</ele><time>2026-04-12T09:20:55.999Z</time></trkpt><trkpt lat="44.27969453672843" lon="11.424212515648026"><ele>562.0</ele><time>2026-04-12T09:20:56.999Z</time></trkpt><trkpt lat="44.27963572857749" lon="11.424168861426338"><ele>562.0</ele><time>2026-04-12T09:20:57.999Z</time></trkpt><trkpt lat="44.279577520015245" lon="11.424124478678527"><ele>562.0</ele><time>2026-04-12T09:20:58.999Z</time></trkpt><trkpt lat="44.27952063052599" lon="11.424066663769647"><ele>562.0000000000001</ele><time>2026-04-12T09:20:59.999Z</time></trkpt><trkpt lat="44.279451503702134" lon="11.424043903577946"><ele>562.0</ele><time>2026-04-12T09:21:00.999Z</time></trkpt><trkpt lat="44.279380142704746" lon="11.424037601565118"><ele>562.8333333333334</ele><time>2026-04-12T09:21:01.999Z</time></trkpt><trkpt lat="44.2793049370842" lon="11.424041557259601"><ele>563.6666666666667</ele><time>2026-04-12T09:21:02.999Z</time></trkpt><trkpt lat="44.279231600508545" lon="11.424066416954746"><ele>564.5</ele><time>2026-04-12T09:21:03.999Z</time></trkpt><trkpt lat="44.279154076674814" lon="11.424069917198956"><ele>565.3333333333334</ele><time>2026-04-12T09:21:04.999Z</time></trkpt><trkpt lat="44.2790698002109" lon="11.424059006084345"><ele>566.1666666666666</ele><time>2026-04-12T09:21:05.999Z</time></trkpt><trkpt lat="44.278996117827326" lon="11.424031593882322"><ele>567.0</ele><time>2026-04-12T09:21:06.999Z</time></trkpt><trkpt lat="44.2789210311029" lon="11.423995361815866"><ele>567.5</ele><time>2026-04-12T09:21:07.999Z</time></trkpt><trkpt lat="44.278849103933965" lon="11.423955799133065"><ele>568.0</ele><time>2026-04-12T09:21:08.999Z</time></trkpt><trkpt lat="44.2787803439704" lon="11.423905226633716"><ele>568.5</ele><time>2026-04-12T09:21:09.999Z</time></trkpt><trkpt lat="44.27872030965633" lon="11.423835121244455"><ele>569.0</ele><time>2026-04-12T09:21:10.999Z</time></trkpt><trkpt lat="44.27868683920828" lon="11.423739725922543"><ele>569.5</ele><time>2026-04-12T09:21:11.999Z</time></trkpt><trkpt lat="44.27864030220283" lon="11.423655064130337"><ele>570.0</ele><time>2026-04-12T09:21:12.999Z</time></trkpt><trkpt lat="44.27857790895642" lon="11.423588322059459"><ele>570.0</ele><time>2026-04-12T09:21:13.999Z</time></trkpt><trkpt lat="44.27852144839014" lon="11.423519410950988"><ele>570.0</ele><time>2026-04-12T09:21:14.999Z</time></trkpt><trkpt lat="44.278464208462886" lon="11.423439701993265"><ele>570.0</ele><time>2026-04-12T09:21:15.999Z</time></trkpt><trkpt lat="44.27837955068435" lon="11.423373506095249"><ele>570.0</ele><time>2026-04-12T09:21:16.999Z</time></trkpt><trkpt lat="44.2782845653631" lon="11.423347678462646"><ele>570.0</ele><time>2026-04-12T09:21:17.999Z</time></trkpt><trkpt lat="44.27819877038108" lon="11.42331376724207"><ele>570.0</ele><time>2026-04-12T09:21:18.999Z</time></trkpt><trkpt lat="44.27811092689464" lon="11.423287687873636"><ele>570.8333333333334</ele><time>2026-04-12T09:21:19.999Z</time></trkpt><trkpt lat="44.27802485911499" lon="11.423263458379507"><ele>571.6666666666666</ele><time>2026-04-12T09:21:20.999Z</time></trkpt><trkpt lat="44.27793749738023" lon="11.423245524518343"><ele>572.5</ele><time>2026-04-12T09:21:21.999Z</time></trkpt><trkpt lat="44.27785383631364" lon="11.423200478126292"><ele>573.3333333333333</ele><time>2026-04-12T09:21:22.999Z</time></trkpt><trkpt lat="44.27778207288012" lon="11.42316725552198"><ele>574.1666666666666</ele><time>2026-04-12T09:21:23.999Z</time></trkpt><trkpt lat="44.27771843107746" lon="11.423123895668695"><ele>575.0</ele><time>2026-04-12T09:21:24.999Z</time></trkpt><trkpt lat="44.277649739301516" lon="11.423072335484212"><ele>575.0</ele><time>2026-04-12T09:21:25.999Z</time></trkpt><trkpt lat="44.27757896257961" lon="11.42303304777645"><ele>575.0</ele><time>2026-04-12T09:21:26.999Z</time></trkpt><trkpt lat="44.27750035803814" lon="11.423002289137445"><ele>575.0</ele><time>2026-04-12T09:21:27.999Z</time></trkpt><trkpt lat="44.27740932567889" lon="11.42299331184654"><ele>575.0</ele><time>2026-04-12T09:21:28.999Z</time></trkpt><trkpt lat="44.277315675172474" lon="11.423007096336763"><ele>575.0</ele><time>2026-04-12T09:21:29.999Z</time></trkpt><trkpt lat="44.27722593003185" lon="11.422980169212288"><ele>575.0</ele><time>2026-04-12T09:21:30.999Z</time></trkpt><trkpt lat="44.277136990711064" lon="11.42297259927897"><ele>574.3333333333333</ele><time>2026-04-12T09:21:31.999Z</time></trkpt><trkpt lat="44.27705381489154" lon="11.42296551989248"><ele>573.6666666666666</ele><time>2026-04-12T09:21:32.999Z</time></trkpt><trkpt lat="44.276972298095345" lon="11.422958581718566"><ele>573.0</ele><time>2026-04-12T09:21:33.999Z</time></trkpt><trkpt lat="44.276898649614566" lon="11.422953217541163"><ele>572.3333333333334</ele><time>2026-04-12T09:21:34.999Z</time></trkpt><trkpt lat="44.27680914891736" lon="11.422945888751974"><ele>571.6666666666667</ele><time>2026-04-12T09:21:36.999Z</time></trkpt><trkpt lat="44.27672324730759" lon="11.422921326325312"><ele>571.0</ele><time>2026-04-12T09:21:38.999Z</time></trkpt><trkpt lat="44.27660496055261" lon="11.422858445571528"><ele>571.0</ele><time>2026-04-12T09:21:40.999Z</time></trkpt><trkpt lat="44.27654515199071" lon="11.422805370375405"><ele>571.0</ele><time>2026-04-12T09:21:41.999Z</time></trkpt><trkpt lat="44.27647916811737" lon="11.422747177468134"><ele>571.0</ele><time>2026-04-12T09:21:42.999Z</time></trkpt><trkpt lat="44.27641625487911" lon="11.422691692617844"><ele>571.0</ele><time>2026-04-12T09:21:43.999Z</time></trkpt><trkpt lat="44.276357193678976" lon="11.422641147988857"><ele>571.0</ele><time>2026-04-12T09:21:44.999Z</time></trkpt><trkpt lat="44.27629594130643" lon="11.422592919992285"><ele>571.0</ele><time>2026-04-12T09:21:45.999Z</time></trkpt><trkpt lat="44.27623692079055" lon="11.422548644406579"><ele>571.0</ele><time>2026-04-12T09:21:46.999Z</time></trkpt><trkpt lat="44.27617617737475" lon="11.422503763285789"><ele>571.4285714285714</ele><time>2026-04-12T09:21:47.999Z</time></trkpt><trkpt lat="44.276110797470444" lon="11.422455456405757"><ele>571.8571428571429</ele><time>2026-04-12T09:21:48.999Z</time></trkpt><trkpt lat="44.27604877109621" lon="11.422407256416452"><ele>572.2857142857142</ele><time>2026-04-12T09:21:49.999Z</time></trkpt><trkpt lat="44.27598854148662" lon="11.422359563732801"><ele>572.7142857142858</ele><time>2026-04-12T09:21:50.999Z</time></trkpt><trkpt lat="44.27592889155812" lon="11.42230950259284"><ele>573.1428571428571</ele><time>2026-04-12T09:21:51.999Z</time></trkpt><trkpt lat="44.27587073981707" lon="11.422250249673766"><ele>573.5714285714286</ele><time>2026-04-12T09:21:52.999Z</time></trkpt><trkpt lat="44.27581336363645" lon="11.422183448953845"><ele>574.0</ele><time>2026-04-12T09:21:53.999Z</time></trkpt><trkpt lat="44.27575557728051" lon="11.422094118107518"><ele>574.8333333333334</ele><time>2026-04-12T09:21:54.999Z</time></trkpt><trkpt lat="44.275709501578085" lon="11.421988850709404"><ele>575.6666666666667</ele><time>2026-04-12T09:21:55.999Z</time></trkpt><trkpt lat="44.27566369131874" lon="11.421891165462446"><ele>576.5</ele><time>2026-04-12T09:21:56.998Z</time></trkpt><trkpt lat="44.27560386141386" lon="11.42180908771845"><ele>577.3333333333334</ele><time>2026-04-12T09:21:57.998Z</time></trkpt><trkpt lat="44.27553749820298" lon="11.421770788571296"><ele>578.1666666666666</ele><time>2026-04-12T09:21:58.998Z</time></trkpt><trkpt lat="44.275480503972496" lon="11.421730831424279"><ele>579.0</ele><time>2026-04-12T09:21:59.998Z</time></trkpt><trkpt lat="44.2754185416582" lon="11.4217126677492"><ele>580.0</ele><time>2026-04-12T09:22:00.998Z</time></trkpt><trkpt lat="44.27534331258346" lon="11.421678880917986"><ele>581.0</ele><time>2026-04-12T09:22:01.998Z</time></trkpt><trkpt lat="44.275265703667266" lon="11.42167902275356"><ele>582.0</ele><time>2026-04-12T09:22:02.998Z</time></trkpt><trkpt lat="44.27517929881787" lon="11.421694959346635"><ele>583.0</ele><time>2026-04-12T09:22:03.998Z</time></trkpt><trkpt lat="44.275099118060325" lon="11.421714801822079"><ele>584.0</ele><time>2026-04-12T09:22:04.998Z</time></trkpt><trkpt lat="44.275022181024795" lon="11.421752412080622"><ele>585.0</ele><time>2026-04-12T09:22:05.998Z</time></trkpt><trkpt lat="44.27494499356213" lon="11.421771682107671"><ele>585.0</ele><time>2026-04-12T09:22:06.998Z</time></trkpt><trkpt lat="44.27487120221865" lon="11.421783979739597"><ele>585.0</ele><time>2026-04-12T09:22:07.998Z</time></trkpt><trkpt lat="44.27479334023453" lon="11.421797174838906"><ele>585.0</ele><time>2026-04-12T09:22:08.998Z</time></trkpt><trkpt lat="44.27471697958608" lon="11.42180814074163"><ele>585.0</ele><time>2026-04-12T09:22:09.998Z</time></trkpt><trkpt lat="44.27464333854338" lon="11.421824722174847"><ele>585.0</ele><time>2026-04-12T09:22:10.998Z</time></trkpt><trkpt lat="44.27457001314454" lon="11.421851762385627"><ele>585.0</ele><time>2026-04-12T09:22:11.998Z</time></trkpt><trkpt lat="44.27449633362909" lon="11.421894803791703"><ele>585.1666666666666</ele><time>2026-04-12T09:22:12.998Z</time></trkpt><trkpt lat="44.27442695561182" lon="11.421960172871811"><ele>585.3333333333334</ele><time>2026-04-12T09:22:13.998Z</time></trkpt><trkpt lat="44.274353138596254" lon="11.422026957480998"><ele>585.5</ele><time>2026-04-12T09:22:14.998Z</time></trkpt><trkpt lat="44.27427078258346" lon="11.422049504564386"><ele>585.6666666666667</ele><time>2026-04-12T09:22:15.998Z</time></trkpt><trkpt lat="44.27420451196268" lon="11.42210346099912"><ele>585.8333333333334</ele><time>2026-04-12T09:22:16.998Z</time></trkpt><trkpt lat="44.27409132171517" lon="11.422145429922338"><ele>586.0</ele><time>2026-04-12T09:22:18.998Z</time></trkpt><trkpt lat="44.273974032042126" lon="11.422178810361896"><ele>585.4</ele><time>2026-04-12T09:22:20.998Z</time></trkpt><trkpt lat="44.27391188643971" lon="11.422217931470744"><ele>584.8</ele><time>2026-04-12T09:22:21.998Z</time></trkpt><trkpt lat="44.27384166490509" lon="11.422171607787083"><ele>584.1999999999999</ele><time>2026-04-12T09:22:22.999Z</time></trkpt><trkpt lat="44.273751309768464" lon="11.422131229422263"><ele>583.6</ele><time>2026-04-12T09:22:23.999Z</time></trkpt><trkpt lat="44.273620001642875" lon="11.422046975485404"><ele>583.0</ele><time>2026-04-12T09:22:24.999Z</time></trkpt><trkpt lat="44.27349727017439" lon="11.422035376065853"><ele>583.0</ele><time>2026-04-12T09:22:25.999Z</time></trkpt><trkpt lat="44.273401231504145" lon="11.422027626114883"><ele>583.0</ele><time>2026-04-12T09:22:26.999Z</time></trkpt><trkpt lat="44.273305929127325" lon="11.422045360903285"><ele>583.0</ele><time>2026-04-12T09:22:27.999Z</time></trkpt><trkpt lat="44.27320588594672" lon="11.422044154950365"><ele>583.0</ele><time>2026-04-12T09:22:28.999Z</time></trkpt><trkpt lat="44.27310787407866" lon="11.422009118788212"><ele>583.0</ele><time>2026-04-12T09:22:29.999Z</time></trkpt><trkpt lat="44.273014864708216" lon="11.422009229148404"><ele>583.0</ele><time>2026-04-12T09:22:30.999Z</time></trkpt><trkpt lat="44.27293077756804" lon="11.422009229149642"><ele>583.0</ele><time>2026-04-12T09:22:31.999Z</time></trkpt><trkpt lat="44.27284548206433" lon="11.422009229150834"><ele>583.0</ele><time>2026-04-12T09:22:32.999Z</time></trkpt><trkpt lat="44.272756521983396" lon="11.422009229152058"><ele>583.0</ele><time>2026-04-12T09:22:33.999Z</time></trkpt><trkpt lat="44.27266654564262" lon="11.422011020599173"><ele>583.0</ele><time>2026-04-12T09:22:34.999Z</time></trkpt><trkpt lat="44.27257607288729" lon="11.422014054981098"><ele>583.0</ele><time>2026-04-12T09:22:35.999Z</time></trkpt><trkpt lat="44.272488685814416" lon="11.422017772400304"><ele>583.0</ele><time>2026-04-12T09:22:36.999Z</time></trkpt><trkpt lat="44.27239950970056" lon="11.422023675184613"><ele>583.0</ele><time>2026-04-12T09:22:37.999Z</time></trkpt><trkpt lat="44.27230895754208" lon="11.422030614500516"><ele>583.0</ele><time>2026-04-12T09:22:38.999Z</time></trkpt><trkpt lat="44.27221654146568" lon="11.42203951811159"><ele>583.0</ele><time>2026-04-12T09:22:39.999Z</time></trkpt><trkpt lat="44.272122751897925" lon="11.422051911381809"><ele>583.0</ele><time>2026-04-12T09:22:40.999Z</time></trkpt><trkpt lat="44.27202898687931" lon="11.42206887100105"><ele>583.4</ele><time>2026-04-12T09:22:41.999Z</time></trkpt><trkpt lat="44.27193315180046" lon="11.422094776038138"><ele>583.8</ele><time>2026-04-12T09:22:42.999Z</time></trkpt><trkpt lat="44.271841327100766" lon="11.422126208584906"><ele>584.2</ele><time>2026-04-12T09:22:43.999Z</time></trkpt><trkpt lat="44.271747476361824" lon="11.422154032251372"><ele>584.6</ele><time>2026-04-12T09:22:44.999Z</time></trkpt><trkpt lat="44.271650409087094" lon="11.422178837527362"><ele>585.0</ele><time>2026-04-12T09:22:45.999Z</time></trkpt><trkpt lat="44.27155546295345" lon="11.42219341944897"><ele>586.0</ele><time>2026-04-12T09:22:46.999Z</time></trkpt><trkpt lat="44.27145580172424" lon="11.42219758603983"><ele>587.0</ele><time>2026-04-12T09:22:47.999Z</time></trkpt><trkpt lat="44.271355784438946" lon="11.422197964648298"><ele>588.0</ele><time>2026-04-12T09:22:48.999Z</time></trkpt><trkpt lat="44.27126374306436" lon="11.42219663557685"><ele>589.0</ele><time>2026-04-12T09:22:49.999Z</time></trkpt><trkpt lat="44.27117246349994" lon="11.422192472383916"><ele>590.0</ele><time>2026-04-12T09:22:50.999Z</time></trkpt><trkpt lat="44.27106783342631" lon="11.422189332162603"><ele>590.0</ele><time>2026-04-12T09:22:51.998Z</time></trkpt><trkpt lat="44.27095891626524" lon="11.422188931016695"><ele>590.0</ele><time>2026-04-12T09:22:53Z</time></trkpt><trkpt lat="44.2708495135298" lon="11.42219675996448"><ele>590.0</ele><time>2026-04-12T09:22:54Z</time></trkpt><trkpt lat="44.27074801426982" lon="11.422227670056332"><ele>590.0</ele><time>2026-04-12T09:22:55Z</time></trkpt><trkpt lat="44.27065029882731" lon="11.422229726267224"><ele>590.0</ele><time>2026-04-12T09:22:56Z</time></trkpt><trkpt lat="44.27054894965232" lon="11.42221005806947"><ele>591.4</ele><time>2026-04-12T09:22:57Z</time></trkpt><trkpt lat="44.27044479105415" lon="11.422225531302482"><ele>592.8</ele><time>2026-04-12T09:22:58Z</time></trkpt><trkpt lat="44.27034499058668" lon="11.422274940640772"><ele>594.2</ele><time>2026-04-12T09:22:59Z</time></trkpt><trkpt lat="44.270251940343485" lon="11.422323832857346"><ele>595.6</ele><time>2026-04-12T09:23:00Z</time></trkpt><trkpt lat="44.27016078848302" lon="11.42239068725028"><ele>597.0</ele><time>2026-04-12T09:23:01Z</time></trkpt><trkpt lat="44.270073438587275" lon="11.42245230957638"><ele>597.0</ele><time>2026-04-12T09:23:02Z</time></trkpt><trkpt lat="44.2699808902283" lon="11.422507198245707"><ele>597.0</ele><time>2026-04-12T09:23:03Z</time></trkpt><trkpt lat="44.2698867499772" lon="11.422555056789157"><ele>597.0</ele><time>2026-04-12T09:23:04Z</time></trkpt><trkpt lat="44.26979472873566" lon="11.422591608222472"><ele>597.0</ele><time>2026-04-12T09:23:05Z</time></trkpt><trkpt lat="44.269724452568646" lon="11.422672106486534"><ele>597.0</ele><time>2026-04-12T09:23:06Z</time></trkpt><trkpt lat="44.26970104905674" lon="11.422776893318664"><ele>597.8000000000001</ele><time>2026-04-12T09:23:07Z</time></trkpt><trkpt lat="44.26964267462314" lon="11.422917821102756"><ele>598.6</ele><time>2026-04-12T09:23:09Z</time></trkpt><trkpt lat="44.269573992611285" lon="11.423003506953597"><ele>599.4000000000001</ele><time>2026-04-12T09:23:11Z</time></trkpt><trkpt lat="44.26949922219109" lon="11.423044340159926"><ele>600.2</ele><time>2026-04-12T09:23:13Z</time></trkpt><trkpt lat="44.26935214660184" lon="11.422973535849554"><ele>601.0</ele><time>2026-04-12T09:23:15Z</time></trkpt><trkpt lat="44.269270026800314" lon="11.422992440055555"><ele>601.0</ele><time>2026-04-12T09:23:16Z</time></trkpt><trkpt lat="44.26918439252137" lon="11.422977477651592"><ele>601.0</ele><time>2026-04-12T09:23:17Z</time></trkpt><trkpt lat="44.26909066355187" lon="11.42296051473277"><ele>601.0</ele><time>2026-04-12T09:23:18Z</time></trkpt><trkpt lat="44.26898952039302" lon="11.422941662265535"><ele>601.0</ele><time>2026-04-12T09:23:19Z</time></trkpt><trkpt lat="44.26888643441595" lon="11.422927417002485"><ele>601.0</ele><time>2026-04-12T09:23:20Z</time></trkpt><trkpt lat="44.268791781484694" lon="11.42291706660408"><ele>601.8</ele><time>2026-04-12T09:23:21Z</time></trkpt><trkpt lat="44.268695493838486" lon="11.422907874153221"><ele>602.6</ele><time>2026-04-12T09:23:22Z</time></trkpt><trkpt lat="44.26859677516817" lon="11.422904048963572"><ele>603.4</ele><time>2026-04-12T09:23:23Z</time></trkpt><trkpt lat="44.268500488078146" lon="11.422907185855317"><ele>604.2</ele><time>2026-04-12T09:23:24Z</time></trkpt><trkpt lat="44.268404806230244" lon="11.422917930809202"><ele>605.0</ele><time>2026-04-12T09:23:25Z</time></trkpt><trkpt lat="44.2683047215781" lon="11.422930145831755"><ele>605.0</ele><time>2026-04-12T09:23:26Z</time></trkpt><trkpt lat="44.26820177460647" lon="11.422944754549064"><ele>605.0</ele><time>2026-04-12T09:23:27Z</time></trkpt><trkpt lat="44.26809519209078" lon="11.42296123475194"><ele>605.0</ele><time>2026-04-12T09:23:28Z</time></trkpt><trkpt lat="44.26799634528555" lon="11.422969673656633"><ele>605.0</ele><time>2026-04-12T09:23:29Z</time></trkpt><trkpt lat="44.26789715385223" lon="11.422983690428923"><ele>605.0</ele><time>2026-04-12T09:23:30Z</time></trkpt><trkpt lat="44.26779622360649" lon="11.422995694704866"><ele>603.8</ele><time>2026-04-12T09:23:31Z</time></trkpt><trkpt lat="44.26769222935723" lon="11.423008750642794"><ele>602.6</ele><time>2026-04-12T09:23:32Z</time></trkpt><trkpt lat="44.26758975260305" lon="11.423032982390808"><ele>601.4</ele><time>2026-04-12T09:23:33Z</time></trkpt><trkpt lat="44.26749134735923" lon="11.423069570890915"><ele>600.2</ele><time>2026-04-12T09:23:34Z</time></trkpt><trkpt lat="44.26740052758598" lon="11.423119104883934"><ele>599.0</ele><time>2026-04-12T09:23:35Z</time></trkpt><trkpt lat="44.267313372863484" lon="11.423183580400487"><ele>599.75</ele><time>2026-04-12T09:23:36Z</time></trkpt><trkpt lat="44.2672271394734" lon="11.423268668497041"><ele>600.5</ele><time>2026-04-12T09:23:37Z</time></trkpt><trkpt lat="44.26713955063551" lon="11.423361745236953"><ele>601.25</ele><time>2026-04-12T09:23:38Z</time></trkpt><trkpt lat="44.26703326515761" lon="11.423467454363333"><ele>602.0</ele><time>2026-04-12T09:23:39Z</time></trkpt><trkpt lat="44.266923368136176" lon="11.423549329524878"><ele>602.0</ele><time>2026-04-12T09:23:40Z</time></trkpt><trkpt lat="44.26678427560392" lon="11.423614586789839"><ele>602.0</ele><time>2026-04-12T09:23:41Z</time></trkpt><trkpt lat="44.26664295785438" lon="11.423671052211947"><ele>602.0</ele><time>2026-04-12T09:23:42Z</time></trkpt><trkpt lat="44.26652178929375" lon="11.423718538853759"><ele>602.0</ele><time>2026-04-12T09:23:43Z</time></trkpt><trkpt lat="44.266409866457614" lon="11.423727904459342"><ele>603.0</ele><time>2026-04-12T09:23:44Z</time></trkpt><trkpt lat="44.26631637060395" lon="11.423768448726005"><ele>604.0</ele><time>2026-04-12T09:23:45Z</time></trkpt><trkpt lat="44.26621712863341" lon="11.423781645275518"><ele>605.0</ele><time>2026-04-12T09:23:46Z</time></trkpt><trkpt lat="44.26611713217679" lon="11.423788935805684"><ele>606.0</ele><time>2026-04-12T09:23:47Z</time></trkpt><trkpt lat="44.26602172951438" lon="11.42379086922313"><ele>607.0</ele><time>2026-04-12T09:23:48Z</time></trkpt><trkpt lat="44.26592476401347" lon="11.423786953556682"><ele>607.0</ele><time>2026-04-12T09:23:49Z</time></trkpt><trkpt lat="44.26582591655724" lon="11.423791742048305"><ele>607.0</ele><time>2026-04-12T09:23:50Z</time></trkpt><trkpt lat="44.26572240530479" lon="11.423801138723384"><ele>607.0</ele><time>2026-04-12T09:23:51Z</time></trkpt><trkpt lat="44.26561694484827" lon="11.423811860158175"><ele>607.0</ele><time>2026-04-12T09:23:52Z</time></trkpt><trkpt lat="44.26550846941804" lon="11.423822465084585"><ele>607.0</ele><time>2026-04-12T09:23:53Z</time></trkpt><trkpt lat="44.26539767967862" lon="11.423827606907112"><ele>608.0</ele><time>2026-04-12T09:23:54Z</time></trkpt><trkpt lat="44.26528869842257" lon="11.42381207300086"><ele>609.0</ele><time>2026-04-12T09:23:55Z</time></trkpt><trkpt lat="44.26518680024265" lon="11.42383904387829"><ele>610.0</ele><time>2026-04-12T09:23:56Z</time></trkpt><trkpt lat="44.265085888743165" lon="11.423842583611593"><ele>611.0</ele><time>2026-04-12T09:23:57Z</time></trkpt><trkpt lat="44.26498479276266" lon="11.423846393875042"><ele>612.0</ele><time>2026-04-12T09:23:58Z</time></trkpt><trkpt lat="44.264884958716465" lon="11.423854047214718"><ele>613.6</ele><time>2026-04-12T09:23:59Z</time></trkpt><trkpt lat="44.26478313596066" lon="11.42386450411024"><ele>615.2</ele><time>2026-04-12T09:24:00Z</time></trkpt><trkpt lat="44.264683968843784" lon="11.423861235319466"><ele>616.8</ele><time>2026-04-12T09:24:00.999Z</time></trkpt><trkpt lat="44.264584292436865" lon="11.423866930707321"><ele>618.4</ele><time>2026-04-12T09:24:01.999Z</time></trkpt><trkpt lat="44.264491520072504" lon="11.423851864042835"><ele>620.0</ele><time>2026-04-12T09:24:02.999Z</time></trkpt><trkpt lat="44.2644158466411" lon="11.423830705808689"><ele>619.8333333333333</ele><time>2026-04-12T09:24:03.999Z</time></trkpt><trkpt lat="44.26436277003456" lon="11.423780563382582"><ele>619.6666666666666</ele><time>2026-04-12T09:24:04.999Z</time></trkpt><trkpt lat="44.26429198402884" lon="11.423733307474224"><ele>619.5</ele><time>2026-04-12T09:24:06.999Z</time></trkpt><trkpt lat="44.26423893084519" lon="11.423675059869778"><ele>619.3333333333334</ele><time>2026-04-12T09:24:09.999Z</time></trkpt><trkpt lat="44.264119745169744" lon="11.423639647672315"><ele>619.1666666666667</ele><time>2026-04-12T09:24:48.999Z</time></trkpt><trkpt lat="44.26405781077261" lon="11.423581830459323"><ele>619.0</ele><time>2026-04-12T09:24:49.999Z</time></trkpt><trkpt lat="44.26398940647027" lon="11.423535992247512"><ele>619.8333333333334</ele><time>2026-04-12T09:24:50.999Z</time></trkpt><trkpt lat="44.26390641810019" lon="11.423480381181747"><ele>620.6666666666667</ele><time>2026-04-12T09:24:51.999Z</time></trkpt><trkpt lat="44.26381080591712" lon="11.423441660503528"><ele>621.5</ele><time>2026-04-12T09:24:52.999Z</time></trkpt><trkpt lat="44.26373012724182" lon="11.42337450196366"><ele>622.3333333333334</ele><time>2026-04-12T09:24:53.999Z</time></trkpt><trkpt lat="44.263652440037546" lon="11.423323271018555"><ele>623.1666666666666</ele><time>2026-04-12T09:24:54.999Z</time></trkpt><trkpt lat="44.26359575071191" lon="11.423253994497667"><ele>624.0</ele><time>2026-04-12T09:24:55.999Z</time></trkpt><trkpt lat="44.26354486918351" lon="11.42319224248126"><ele>624.0</ele><time>2026-04-12T09:24:56.998Z</time></trkpt><trkpt lat="44.26349937115261" lon="11.423130860350302"><ele>624.0</ele><time>2026-04-12T09:24:57.998Z</time></trkpt><trkpt lat="44.2634136294227" lon="11.42302233626608"><ele>624.0</ele><time>2026-04-12T09:25:00Z</time></trkpt><trkpt lat="44.263363099164806" lon="11.422884894851878"><ele>624.0</ele><time>2026-04-12T09:25:02Z</time></trkpt><trkpt lat="44.26329796213131" lon="11.422751794303775"><ele>624.0</ele><time>2026-04-12T09:25:04Z</time></trkpt><trkpt lat="44.263222028896756" lon="11.422638582720554"><ele>624.0</ele><time>2026-04-12T09:25:06Z</time></trkpt><trkpt lat="44.26317286823328" lon="11.422558273924784"><ele>624.0</ele><time>2026-04-12T09:25:08Z</time></trkpt><trkpt lat="44.26310425011846" lon="11.422489841640548"><ele>624.0</ele><time>2026-04-12T09:25:11Z</time></trkpt><trkpt lat="44.26302310001195" lon="11.422419376573702"><ele>624.0</ele><time>2026-04-12T09:25:13Z</time></trkpt><trkpt lat="44.26291274310016" lon="11.422363016559345"><ele>624.0</ele><time>2026-04-12T09:25:15Z</time></trkpt><trkpt lat="44.26286551028271" lon="11.422303225526875"><ele>624.0</ele><time>2026-04-12T09:25:16Z</time></trkpt><trkpt lat="44.26276335176829" lon="11.422227929737364"><ele>624.0</ele><time>2026-04-12T09:25:18Z</time></trkpt><trkpt lat="44.262703321855625" lon="11.422151794535864"><ele>624.0</ele><time>2026-04-12T09:25:20Z</time></trkpt><trkpt lat="44.26264582524103" lon="11.42204374462521"><ele>624.0</ele><time>2026-04-12T09:25:21Z</time></trkpt><trkpt lat="44.26259903221752" lon="11.421919799925933"><ele>624.0</ele><time>2026-04-12T09:25:23Z</time></trkpt><trkpt lat="44.262584088278146" lon="11.421790428963778"><ele>624.0</ele><time>2026-04-12T09:25:25Z</time></trkpt><trkpt lat="44.262605814935156" lon="11.42164725387401"><ele>622.6</ele><time>2026-04-12T09:25:27Z</time></trkpt><trkpt lat="44.26263479021513" lon="11.421490692963316"><ele>621.2</ele><time>2026-04-12T09:25:29Z</time></trkpt><trkpt lat="44.26263823165608" lon="11.421401456476717"><ele>619.8000000000001</ele><time>2026-04-12T09:25:30Z</time></trkpt><trkpt lat="44.262663386378655" lon="11.42126968957032"><ele>618.4</ele><time>2026-04-12T09:25:32Z</time></trkpt><trkpt lat="44.262671540305966" lon="11.421127200106913"><ele>617.0</ele><time>2026-04-12T09:25:34Z</time></trkpt><trkpt lat="44.262644957666495" lon="11.420988513470517"><ele>616.2</ele><time>2026-04-12T09:25:36Z</time></trkpt><trkpt lat="44.262604343240355" lon="11.420881033318295"><ele>615.4000000000001</ele><time>2026-04-12T09:25:38Z</time></trkpt><trkpt lat="44.262587097143424" lon="11.420795079935917"><ele>614.5999999999999</ele><time>2026-04-12T09:25:40Z</time></trkpt><trkpt lat="44.262657790746545" lon="11.42093395703752"><ele>613.8</ele><time>2026-04-12T09:25:48Z</time></trkpt><trkpt lat="44.26263400789688" lon="11.421083068237351"><ele>613.0</ele><time>2026-04-12T09:25:49Z</time></trkpt><trkpt lat="44.262642245773584" lon="11.42119919328156"><ele>613.0</ele><time>2026-04-12T09:25:50Z</time></trkpt><trkpt lat="44.26263718040575" lon="11.421310410890403"><ele>613.0</ele><time>2026-04-12T09:25:51Z</time></trkpt><trkpt lat="44.262619275167474" lon="11.421438274530724"><ele>613.0</ele><time>2026-04-12T09:25:52Z</time></trkpt><trkpt lat="44.26259023808431" lon="11.42159466204084"><ele>613.0</ele><time>2026-04-12T09:25:53Z</time></trkpt><trkpt lat="44.262569119116215" lon="11.421738868729637"><ele>613.0</ele><time>2026-04-12T09:25:54Z</time></trkpt><trkpt lat="44.26256490738406" lon="11.421860433355702"><ele>613.6666666666667</ele><time>2026-04-12T09:25:55Z</time></trkpt><trkpt lat="44.262581670097724" lon="11.421975991339535"><ele>614.3333333333334</ele><time>2026-04-12T09:25:56Z</time></trkpt><trkpt lat="44.26261874856261" lon="11.422084401336125"><ele>615.0</ele><time>2026-04-12T09:25:57Z</time></trkpt><trkpt lat="44.26267298139993" lon="11.422189022724835"><ele>615.6666666666666</ele><time>2026-04-12T09:25:58Z</time></trkpt><trkpt lat="44.26273271760638" lon="11.422260497256254"><ele>616.3333333333333</ele><time>2026-04-12T09:25:59Z</time></trkpt><trkpt lat="44.26280350510935" lon="11.422312445999298"><ele>617.0</ele><time>2026-04-12T09:26:00Z</time></trkpt><trkpt lat="44.26288370061756" lon="11.422363257186008"><ele>616.8000000000001</ele><time>2026-04-12T09:26:01Z</time></trkpt><trkpt lat="44.26296810139889" lon="11.422418834313927"><ele>616.6</ele><time>2026-04-12T09:26:02Z</time></trkpt><trkpt lat="44.26304995225089" lon="11.422478738640033"><ele>616.4000000000001</ele><time>2026-04-12T09:26:03Z</time></trkpt><trkpt lat="44.26312371468127" lon="11.422543652577724"><ele>616.2</ele><time>2026-04-12T09:26:04Z</time></trkpt><trkpt lat="44.2631976268152" lon="11.42262811995009"><ele>616.0</ele><time>2026-04-12T09:26:04.999Z</time></trkpt><trkpt lat="44.26326747317357" lon="11.422736094299118"><ele>616.0</ele><time>2026-04-12T09:26:05.999Z</time></trkpt><trkpt lat="44.26332588136598" lon="11.422855560566733"><ele>616.0</ele><time>2026-04-12T09:26:06.999Z</time></trkpt><trkpt lat="44.26336942397175" lon="11.422962807309396"><ele>616.0</ele><time>2026-04-12T09:26:07.999Z</time></trkpt><trkpt lat="44.263410882948186" lon="11.423044545942622"><ele>616.0</ele><time>2026-04-12T09:26:08.999Z</time></trkpt><trkpt lat="44.26345857135183" lon="11.423123914023364"><ele>616.0</ele><time>2026-04-12T09:26:09.999Z</time></trkpt><trkpt lat="44.2635055493362" lon="11.423197387420046"><ele>616.0</ele><time>2026-04-12T09:26:10.999Z</time></trkpt><trkpt lat="44.26356308046247" lon="11.423273225725211"><ele>616.5</ele><time>2026-04-12T09:26:11.999Z</time></trkpt><trkpt lat="44.263632452521705" lon="11.423343632683308"><ele>617.0</ele><time>2026-04-12T09:26:12.999Z</time></trkpt><trkpt lat="44.26370648317583" lon="11.423397747143927"><ele>617.5</ele><time>2026-04-12T09:26:13.999Z</time></trkpt><trkpt lat="44.26378292574032" lon="11.423445230095732"><ele>618.0</ele><time>2026-04-12T09:26:14.999Z</time></trkpt><trkpt lat="44.26385883462208" lon="11.423490618442496"><ele>618.5</ele><time>2026-04-12T09:26:15.999Z</time></trkpt><trkpt lat="44.26393040421438" lon="11.42353738269599"><ele>619.0</ele><time>2026-04-12T09:26:16.999Z</time></trkpt><trkpt lat="44.26399674431181" lon="11.423582895680962"><ele>619.0</ele><time>2026-04-12T09:26:17.999Z</time></trkpt><trkpt lat="44.26410465025938" lon="11.423642792976262"><ele>619.0</ele><time>2026-04-12T09:26:19.999Z</time></trkpt><trkpt lat="44.26419781063543" lon="11.423737831962143"><ele>619.0</ele><time>2026-04-12T09:26:21.999Z</time></trkpt><trkpt lat="44.264202346454425" lon="11.42386802232546"><ele>619.0</ele><time>2026-04-12T09:26:23.999Z</time></trkpt><trkpt lat="44.2641009920729" lon="11.423926083347624"><ele>619.0</ele><time>2026-04-12T09:26:25.999Z</time></trkpt><trkpt lat="44.26401776182891" lon="11.42389082023929"><ele>620.6666666666667</ele><time>2026-04-12T09:26:26.999Z</time></trkpt><trkpt lat="44.26391003030811" lon="11.423895066582896"><ele>622.3333333333334</ele><time>2026-04-12T09:26:27.999Z</time></trkpt><trkpt lat="44.26381407104171" lon="11.423924386316386"><ele>624.0</ele><time>2026-04-12T09:26:28.999Z</time></trkpt><trkpt lat="44.26374235490211" lon="11.423925659513788"><ele>625.6666666666666</ele><time>2026-04-12T09:26:29.999Z</time></trkpt><trkpt lat="44.263678643595554" lon="11.423936057515451"><ele>627.3333333333333</ele><time>2026-04-12T09:26:30.999Z</time></trkpt><trkpt lat="44.26359297639258" lon="11.42395919308136"><ele>629.0</ele><time>2026-04-12T09:26:31.999Z</time></trkpt><trkpt lat="44.26349558393523" lon="11.423968294300666"><ele>629.0</ele><time>2026-04-12T09:26:32.999Z</time></trkpt><trkpt lat="44.2634232782748" lon="11.423986515598243"><ele>629.0</ele><time>2026-04-12T09:26:33.999Z</time></trkpt><trkpt lat="44.263340267197904" lon="11.424008691248238"><ele>629.0</ele><time>2026-04-12T09:26:34.999Z</time></trkpt><trkpt lat="44.26325384604218" lon="11.424031777884109"><ele>629.0</ele><time>2026-04-12T09:26:35.999Z</time></trkpt><trkpt lat="44.26313637100193" lon="11.424063160223907"><ele>629.0</ele><time>2026-04-12T09:26:36.999Z</time></trkpt><trkpt lat="44.263019431578094" lon="11.424098184858805"><ele>630.2</ele><time>2026-04-12T09:26:37.999Z</time></trkpt><trkpt lat="44.26290596872362" lon="11.424137916699884"><ele>631.4</ele><time>2026-04-12T09:26:38.999Z</time></trkpt><trkpt lat="44.26280422134352" lon="11.424196940801536"><ele>632.6</ele><time>2026-04-12T09:26:39.999Z</time></trkpt><trkpt lat="44.26270680227999" lon="11.424216458075"><ele>633.8</ele><time>2026-04-12T09:26:40.999Z</time></trkpt><trkpt lat="44.26262907470835" lon="11.424225578360394"><ele>635.0</ele><time>2026-04-12T09:26:41.999Z</time></trkpt><trkpt lat="44.262546740922396" lon="11.424237557398225"><ele>635.0</ele><time>2026-04-12T09:26:42.999Z</time></trkpt><trkpt lat="44.26246878845962" lon="11.424237133024006"><ele>635.0</ele><time>2026-04-12T09:26:43.999Z</time></trkpt><trkpt lat="44.262400508796546" lon="11.424201895235075"><ele>635.0</ele><time>2026-04-12T09:26:44.999Z</time></trkpt><trkpt lat="44.26233400658237" lon="11.42416120412029"><ele>635.0</ele><time>2026-04-12T09:26:45.999Z</time></trkpt><trkpt lat="44.26226841328399" lon="11.424108972866248"><ele>635.0</ele><time>2026-04-12T09:26:46.999Z</time></trkpt><trkpt lat="44.262163185973556" lon="11.424009046736218"><ele>635.0</ele><time>2026-04-12T09:26:48.999Z</time></trkpt><trkpt lat="44.26209422603327" lon="11.423941924807117"><ele>636.1666666666666</ele><time>2026-04-12T09:26:49.999Z</time></trkpt><trkpt lat="44.26201327837238" lon="11.423863134665345"><ele>637.3333333333333</ele><time>2026-04-12T09:26:50.999Z</time></trkpt><trkpt lat="44.26193386736832" lon="11.42378961064915"><ele>638.5</ele><time>2026-04-12T09:26:51.999Z</time></trkpt><trkpt lat="44.2618521731023" lon="11.423715649725228"><ele>639.6666666666666</ele><time>2026-04-12T09:26:52.999Z</time></trkpt><trkpt lat="44.26178317058607" lon="11.423656112688219"><ele>640.8333333333334</ele><time>2026-04-12T09:26:53.999Z</time></trkpt><trkpt lat="44.261723746153535" lon="11.42360483989113"><ele>642.0</ele><time>2026-04-12T09:26:54.999Z</time></trkpt><trkpt lat="44.2616629448142" lon="11.423552379024395"><ele>642.2</ele><time>2026-04-12T09:26:55.999Z</time></trkpt><trkpt lat="44.26159431254035" lon="11.42349389537575"><ele>642.4000000000001</ele><time>2026-04-12T09:26:56.999Z</time></trkpt><trkpt lat="44.26149617989278" lon="11.423437366742649"><ele>642.5999999999999</ele><time>2026-04-12T09:26:57.999Z</time></trkpt><trkpt lat="44.261422027056305" lon="11.423348233150426"><ele>642.8</ele><time>2026-04-12T09:26:58.999Z</time></trkpt><trkpt lat="44.26132583074834" lon="11.42326652932261"><ele>643.0</ele><time>2026-04-12T09:26:59.998Z</time></trkpt><trkpt lat="44.26124526648457" lon="11.423196558437011"><ele>645.0</ele><time>2026-04-12T09:27:00.998Z</time></trkpt><trkpt lat="44.26117309875322" lon="11.42315856277505"><ele>647.0</ele><time>2026-04-12T09:27:01.998Z</time></trkpt><trkpt lat="44.26110089558236" lon="11.42309349506944"><ele>649.0</ele><time>2026-04-12T09:27:02.998Z</time></trkpt><trkpt lat="44.261023111437034" lon="11.422999261727307"><ele>651.0</ele><time>2026-04-12T09:27:03.998Z</time></trkpt><trkpt lat="44.260937985209324" lon="11.422948511899133"><ele>653.0</ele><time>2026-04-12T09:27:05Z</time></trkpt><trkpt lat="44.260861394669824" lon="11.422878378275293"><ele>653.0</ele><time>2026-04-12T09:27:06Z</time></trkpt><trkpt lat="44.26077672819993" lon="11.42283797870721"><ele>653.0</ele><time>2026-04-12T09:27:07Z</time></trkpt><trkpt lat="44.260693868097974" lon="11.422808523978473"><ele>653.0</ele><time>2026-04-12T09:27:08Z</time></trkpt><trkpt lat="44.26059671417639" lon="11.422814638843759"><ele>653.0</ele><time>2026-04-12T09:27:09Z</time></trkpt><trkpt lat="44.26047925629778" lon="11.42282517439683"><ele>653.0</ele><time>2026-04-12T09:27:10Z</time></trkpt><trkpt lat="44.26038483494306" lon="11.422829582619615"><ele>654.1666666666666</ele><time>2026-04-12T09:27:11Z</time></trkpt><trkpt lat="44.26030198631635" lon="11.42283325324132"><ele>655.3333333333333</ele><time>2026-04-12T09:27:12Z</time></trkpt><trkpt lat="44.26020105918135" lon="11.422842480429372"><ele>656.5</ele><time>2026-04-12T09:27:13Z</time></trkpt><trkpt lat="44.26011853114444" lon="11.422839305755426"><ele>657.6666666666666</ele><time>2026-04-12T09:27:14Z</time></trkpt><trkpt lat="44.26005323298226" lon="11.422841865187193"><ele>658.8333333333334</ele><time>2026-04-12T09:27:15Z</time></trkpt><trkpt lat="44.25998593825057" lon="11.422844133504649"><ele>660.0</ele><time>2026-04-12T09:27:16Z</time></trkpt><trkpt lat="44.25991465042862" lon="11.422842532184246"><ele>660.0</ele><time>2026-04-12T09:27:17Z</time></trkpt><trkpt lat="44.25979183167952" lon="11.422841960374596"><ele>660.0</ele><time>2026-04-12T09:27:19Z</time></trkpt><trkpt lat="44.25970848451708" lon="11.42284493025416"><ele>660.0</ele><time>2026-04-12T09:27:20Z</time></trkpt><trkpt lat="44.259634153551616" lon="11.422848502328819"><ele>660.0</ele><time>2026-04-12T09:27:21Z</time></trkpt><trkpt lat="44.25950246075438" lon="11.422828613274277"><ele>660.0</ele><time>2026-04-12T09:27:23Z</time></trkpt><trkpt lat="44.25940074824826" lon="11.422849817243687"><ele>661.6</ele><time>2026-04-12T09:27:24Z</time></trkpt><trkpt lat="44.2593050552114" lon="11.42284999989179"><ele>663.2</ele><time>2026-04-12T09:27:25Z</time></trkpt><trkpt lat="44.2591990335588" lon="11.422848807089952"><ele>664.8</ele><time>2026-04-12T09:27:26Z</time></trkpt><trkpt lat="44.25911198970411" lon="11.422846496304178"><ele>666.4</ele><time>2026-04-12T09:27:27Z</time></trkpt><trkpt lat="44.2590305573041" lon="11.42285245234111"><ele>668.0</ele><time>2026-04-12T09:27:28Z</time></trkpt><trkpt lat="44.25894262046221" lon="11.422848207993358"><ele>669.1666666666666</ele><time>2026-04-12T09:27:29Z</time></trkpt><trkpt lat="44.258864965000846" lon="11.422847042764811"><ele>670.3333333333333</ele><time>2026-04-12T09:27:30Z</time></trkpt><trkpt lat="44.258784656128626" lon="11.422856006005597"><ele>671.5</ele><time>2026-04-12T09:27:31Z</time></trkpt><trkpt lat="44.25870901124661" lon="11.422835089996607"><ele>672.6666666666666</ele><time>2026-04-12T09:27:32Z</time></trkpt><trkpt lat="44.25863616400999" lon="11.422836081618202"><ele>673.8333333333334</ele><time>2026-04-12T09:27:33Z</time></trkpt><trkpt lat="44.258563492097835" lon="11.42283683499818"><ele>675.0</ele><time>2026-04-12T09:27:34Z</time></trkpt><trkpt lat="44.25849182703315" lon="11.42285714646548"><ele>675.0</ele><time>2026-04-12T09:27:35Z</time></trkpt><trkpt lat="44.25842401419892" lon="11.422834446295084"><ele>675.0</ele><time>2026-04-12T09:27:36Z</time></trkpt><trkpt lat="44.25829367651735" lon="11.42285371158617"><ele>675.0</ele><time>2026-04-12T09:27:38Z</time></trkpt><trkpt lat="44.25820170582203" lon="11.42283028648106"><ele>675.0</ele><time>2026-04-12T09:27:39Z</time></trkpt><trkpt lat="44.25812494324105" lon="11.422852996613873"><ele>675.0</ele><time>2026-04-12T09:27:40Z</time></trkpt><trkpt lat="44.258036459144904" lon="11.422861041717765"><ele>676.2</ele><time>2026-04-12T09:27:41Z</time></trkpt><trkpt lat="44.257960976239744" lon="11.422868804469964"><ele>677.4</ele><time>2026-04-12T09:27:42Z</time></trkpt><trkpt lat="44.25786446152394" lon="11.422878724140558"><ele>678.5999999999999</ele><time>2026-04-12T09:27:44Z</time></trkpt><trkpt lat="44.25770746161723" lon="11.422870664202536"><ele>679.8</ele><time>2026-04-12T09:27:46Z</time></trkpt><trkpt lat="44.25759503656981" lon="11.42286581641958"><ele>681.0</ele><time>2026-04-12T09:27:47Z</time></trkpt><trkpt lat="44.2575039636162" lon="11.4228348605704"><ele>681.0</ele><time>2026-04-12T09:27:48Z</time></trkpt><trkpt lat="44.25739566439826" lon="11.422810747701854"><ele>681.0</ele><time>2026-04-12T09:27:49Z</time></trkpt><trkpt lat="44.25729278757363" lon="11.422780243930161"><ele>681.0</ele><time>2026-04-12T09:27:50Z</time></trkpt><trkpt lat="44.25719576673828" lon="11.42276975623964"><ele>681.0</ele><time>2026-04-12T09:27:51Z</time></trkpt><trkpt lat="44.257100857990615" lon="11.422725711447029"><ele>681.0</ele><time>2026-04-12T09:27:52Z</time></trkpt><trkpt lat="44.25702401593869" lon="11.42270896772517"><ele>681.1666666666666</ele><time>2026-04-12T09:27:53Z</time></trkpt><trkpt lat="44.25696082723033" lon="11.42265988891357"><ele>681.3333333333334</ele><time>2026-04-12T09:27:54Z</time></trkpt><trkpt lat="44.25688447482305" lon="11.422629557103557"><ele>681.5</ele><time>2026-04-12T09:27:55Z</time></trkpt><trkpt lat="44.25680100910321" lon="11.422606325812028"><ele>681.6666666666667</ele><time>2026-04-12T09:27:56Z</time></trkpt><trkpt lat="44.25672195940132" lon="11.422603396775793"><ele>681.8333333333334</ele><time>2026-04-12T09:27:57Z</time></trkpt><trkpt lat="44.25662972040319" lon="11.422601406558822"><ele>682.0</ele><time>2026-04-12T09:27:58Z</time></trkpt><trkpt lat="44.25653853240895" lon="11.422627503174128"><ele>682.0</ele><time>2026-04-12T09:27:59Z</time></trkpt><trkpt lat="44.25646206069517" lon="11.422660544445492"><ele>682.0</ele><time>2026-04-12T09:28:00Z</time></trkpt><trkpt lat="44.25640149444176" lon="11.422701463232096"><ele>682.0</ele><time>2026-04-12T09:28:01Z</time></trkpt><trkpt lat="44.25633707668658" lon="11.422730125998454"><ele>682.0</ele><time>2026-04-12T09:28:02Z</time></trkpt><trkpt lat="44.25627122918837" lon="11.422799064629066"><ele>682.0</ele><time>2026-04-12T09:28:03Z</time></trkpt><trkpt lat="44.25620729228853" lon="11.422952590298346"><ele>682.0</ele><time>2026-04-12T09:28:04Z</time></trkpt><trkpt lat="44.2561160765558" lon="11.423041846189989"><ele>682.8</ele><time>2026-04-12T09:28:05Z</time></trkpt><trkpt lat="44.25604560382756" lon="11.42312087454452"><ele>683.6</ele><time>2026-04-12T09:28:06Z</time></trkpt><trkpt lat="44.25596301369821" lon="11.42320710164738"><ele>684.4</ele><time>2026-04-12T09:28:07Z</time></trkpt><trkpt lat="44.25588374100697" lon="11.423283495861137"><ele>685.1999999999999</ele><time>2026-04-12T09:28:08Z</time></trkpt><trkpt lat="44.25582223926123" lon="11.42332942436757"><ele>686.0</ele><time>2026-04-12T09:28:09Z</time></trkpt><trkpt lat="44.25571114301626" lon="11.423360571897684"><ele>686.0</ele><time>2026-04-12T09:28:10.999Z</time></trkpt><trkpt lat="44.255646256546406" lon="11.423360630207096"><ele>686.0</ele><time>2026-04-12T09:28:11.999Z</time></trkpt><trkpt lat="44.255556677821666" lon="11.423373717870763"><ele>686.0</ele><time>2026-04-12T09:28:12.999Z</time></trkpt><trkpt lat="44.2554442439944" lon="11.423351979338236"><ele>686.0</ele><time>2026-04-12T09:28:13.999Z</time></trkpt><trkpt lat="44.255351520602225" lon="11.423335610694322"><ele>686.0</ele><time>2026-04-12T09:28:14.999Z</time></trkpt><trkpt lat="44.25527822611646" lon="11.423338551166392"><ele>686.0</ele><time>2026-04-12T09:28:15.999Z</time></trkpt><trkpt lat="44.25516481792749" lon="11.423359112997977"><ele>686.5</ele><time>2026-04-12T09:28:17.999Z</time></trkpt><trkpt lat="44.255106311326266" lon="11.423397420285248"><ele>687.0</ele><time>2026-04-12T09:28:18.999Z</time></trkpt><trkpt lat="44.255049415426626" lon="11.423449072233874"><ele>687.5</ele><time>2026-04-12T09:28:19.999Z</time></trkpt><trkpt lat="44.25499483394629" lon="11.423522348695116"><ele>688.0</ele><time>2026-04-12T09:28:20.999Z</time></trkpt><trkpt lat="44.2549293555207" lon="11.42361636081637"><ele>688.5</ele><time>2026-04-12T09:28:21.999Z</time></trkpt><trkpt lat="44.25486281429788" lon="11.42370760940416"><ele>689.0</ele><time>2026-04-12T09:28:22.999Z</time></trkpt><trkpt lat="44.25481033205133" lon="11.423778482684838"><ele>690.4285714285714</ele><time>2026-04-12T09:28:23.999Z</time></trkpt><trkpt lat="44.254747661145906" lon="11.423828284523765"><ele>691.8571428571429</ele><time>2026-04-12T09:28:24.999Z</time></trkpt><trkpt lat="44.254685818292224" lon="11.423905963343453"><ele>693.2857142857142</ele><time>2026-04-12T09:28:25.999Z</time></trkpt><trkpt lat="44.25464292075553" lon="11.423974650115207"><ele>694.7142857142858</ele><time>2026-04-12T09:28:26.999Z</time></trkpt><trkpt lat="44.25459550177072" lon="11.424046112333158"><ele>696.1428571428572</ele><time>2026-04-12T09:28:27.999Z</time></trkpt><trkpt lat="44.254546692794385" lon="11.424102599003797"><ele>697.5714285714286</ele><time>2026-04-12T09:28:28.999Z</time></trkpt><trkpt lat="44.25449233687794" lon="11.424164165377329"><ele>699.0</ele><time>2026-04-12T09:28:29.999Z</time></trkpt><trkpt lat="44.25441160376292" lon="11.424245131085438"><ele>699.0</ele><time>2026-04-12T09:28:30.999Z</time></trkpt><trkpt lat="44.254323473806544" lon="11.424350230620503"><ele>699.0</ele><time>2026-04-12T09:28:31.999Z</time></trkpt><trkpt lat="44.25423929135563" lon="11.424454266321446"><ele>699.0</ele><time>2026-04-12T09:28:32.999Z</time></trkpt><trkpt lat="44.25416735589527" lon="11.424544667616324"><ele>699.0</ele><time>2026-04-12T09:28:33.999Z</time></trkpt><trkpt lat="44.25410625261603" lon="11.424613985478002"><ele>699.0</ele><time>2026-04-12T09:28:34.999Z</time></trkpt><trkpt lat="44.254056406019636" lon="11.424676447631928"><ele>700.5</ele><time>2026-04-12T09:28:35.999Z</time></trkpt><trkpt lat="44.2539963473667" lon="11.4247441888218"><ele>702.0</ele><time>2026-04-12T09:28:36.999Z</time></trkpt><trkpt lat="44.25392648110765" lon="11.424840264263036"><ele>703.5</ele><time>2026-04-12T09:28:37.999Z</time></trkpt><trkpt lat="44.25386220516086" lon="11.424913036345977"><ele>705.0</ele><time>2026-04-12T09:28:38.999Z</time></trkpt><trkpt lat="44.253788564480274" lon="11.424969773512577"><ele>706.5</ele><time>2026-04-12T09:28:39.999Z</time></trkpt><trkpt lat="44.25371190712161" lon="11.425049844961215"><ele>708.0</ele><time>2026-04-12T09:28:40.999Z</time></trkpt><trkpt lat="44.253649445115116" lon="11.425106849469387"><ele>708.0</ele><time>2026-04-12T09:28:41.999Z</time></trkpt><trkpt lat="44.253573535280594" lon="11.425163478300854"><ele>708.0</ele><time>2026-04-12T09:28:42.999Z</time></trkpt><trkpt lat="44.25351531109644" lon="11.425200796537565"><ele>708.0</ele><time>2026-04-12T09:28:43.999Z</time></trkpt><trkpt lat="44.25345656149321" lon="11.425235546591445"><ele>708.0</ele><time>2026-04-12T09:28:44.999Z</time></trkpt><trkpt lat="44.25338881216092" lon="11.425267878896808"><ele>708.0</ele><time>2026-04-12T09:28:45.999Z</time></trkpt><trkpt lat="44.25328476749304" lon="11.425317436150838"><ele>708.0</ele><time>2026-04-12T09:28:47.999Z</time></trkpt><trkpt lat="44.2531837488827" lon="11.42535930675288"><ele>708.5</ele><time>2026-04-12T09:28:49.999Z</time></trkpt><trkpt lat="44.25311757812743" lon="11.425385981023659"><ele>709.0</ele><time>2026-04-12T09:28:50.999Z</time></trkpt><trkpt lat="44.25302322310308" lon="11.425446223672008"><ele>709.5</ele><time>2026-04-12T09:28:51.999Z</time></trkpt><trkpt lat="44.25291772792258" lon="11.425478908901981"><ele>710.0</ele><time>2026-04-12T09:28:52.999Z</time></trkpt><trkpt lat="44.25284037638621" lon="11.425500994596089"><ele>710.5</ele><time>2026-04-12T09:28:53.999Z</time></trkpt><trkpt lat="44.25277286084725" lon="11.425529018790293"><ele>711.0</ele><time>2026-04-12T09:28:54.999Z</time></trkpt><trkpt lat="44.25270751857625" lon="11.425555671028242"><ele>713.1999999999999</ele><time>2026-04-12T09:28:55.999Z</time></trkpt><trkpt lat="44.252624214818916" lon="11.425589072278107"><ele>715.4</ele><time>2026-04-12T09:28:56.999Z</time></trkpt><trkpt lat="44.25251362590683" lon="11.425628086302693"><ele>717.6</ele><time>2026-04-12T09:28:57.999Z</time></trkpt><trkpt lat="44.25241087602312" lon="11.425659032892474"><ele>719.8</ele><time>2026-04-12T09:28:58.999Z</time></trkpt><trkpt lat="44.25231766915451" lon="11.425711491557497"><ele>722.0</ele><time>2026-04-12T09:28:59.999Z</time></trkpt><trkpt lat="44.25223889402179" lon="11.425736524569341"><ele>722.0</ele><time>2026-04-12T09:29:00.999Z</time></trkpt><trkpt lat="44.252169525255155" lon="11.425763975306491"><ele>722.0</ele><time>2026-04-12T09:29:01.999Z</time></trkpt><trkpt lat="44.2520979809237" lon="11.425800125456666"><ele>722.0</ele><time>2026-04-12T09:29:02.999Z</time></trkpt><trkpt lat="44.25200841226801" lon="11.42586616259298"><ele>722.0</ele><time>2026-04-12T09:29:03.999Z</time></trkpt><trkpt lat="44.251903527865274" lon="11.425941851720983"><ele>722.0</ele><time>2026-04-12T09:29:04.999Z</time></trkpt><trkpt lat="44.25180018197685" lon="11.426035253106658"><ele>722.0</ele><time>2026-04-12T09:29:05.999Z</time></trkpt><trkpt lat="44.251709712553655" lon="11.426120196262056"><ele>722.0</ele><time>2026-04-12T09:29:06.998Z</time></trkpt><trkpt lat="44.25161689572766" lon="11.426219371587559"><ele>722.0</ele><time>2026-04-12T09:29:07.998Z</time></trkpt><trkpt lat="44.251519202848584" lon="11.426319652321409"><ele>722.0</ele><time>2026-04-12T09:29:08.998Z</time></trkpt><trkpt lat="44.25144680977259" lon="11.426410711568838"><ele>722.0</ele><time>2026-04-12T09:29:09.998Z</time></trkpt><trkpt lat="44.25138514268076" lon="11.426487740568055"><ele>723.6</ele><time>2026-04-12T09:29:11Z</time></trkpt><trkpt lat="44.251331350197795" lon="11.426547613979062"><ele>725.2</ele><time>2026-04-12T09:29:12Z</time></trkpt><trkpt lat="44.25122910356527" lon="11.426648703511292"><ele>726.8</ele><time>2026-04-12T09:29:14Z</time></trkpt><trkpt lat="44.251143532142244" lon="11.426739290373645"><ele>728.4</ele><time>2026-04-12T09:29:15Z</time></trkpt><trkpt lat="44.25106718704518" lon="11.42682882413028"><ele>730.0</ele><time>2026-04-12T09:29:16Z</time></trkpt><trkpt lat="44.25101079049222" lon="11.426896598866115"><ele>730.0</ele><time>2026-04-12T09:29:17Z</time></trkpt><trkpt lat="44.2509556920022" lon="11.426963612958584"><ele>730.0</ele><time>2026-04-12T09:29:18Z</time></trkpt><trkpt lat="44.250898234688634" lon="11.427035865249838"><ele>730.0</ele><time>2026-04-12T09:29:19Z</time></trkpt><trkpt lat="44.250849222585856" lon="11.427100223491944"><ele>730.0</ele><time>2026-04-12T09:29:20Z</time></trkpt><trkpt lat="44.25080097330173" lon="11.427190282050466"><ele>730.0</ele><time>2026-04-12T09:29:21Z</time></trkpt><trkpt lat="44.250754347623" lon="11.42728111084474"><ele>730.0</ele><time>2026-04-12T09:29:22Z</time></trkpt><trkpt lat="44.2507095366442" lon="11.427381768573591"><ele>730.2</ele><time>2026-04-12T09:29:23Z</time></trkpt><trkpt lat="44.25067724662939" lon="11.427494085544323"><ele>730.4</ele><time>2026-04-12T09:29:24Z</time></trkpt><trkpt lat="44.25065117823227" lon="11.427622490079164"><ele>730.5999999999999</ele><time>2026-04-12T09:29:25Z</time></trkpt><trkpt lat="44.25063520747429" lon="11.427719708837387"><ele>730.8</ele><time>2026-04-12T09:29:26Z</time></trkpt><trkpt lat="44.25059277382263" lon="11.427844841158377"><ele>731.0</ele><time>2026-04-12T09:29:28Z</time></trkpt><trkpt lat="44.25050685984708" lon="11.427717517539019"><ele>732.8</ele><time>2026-04-12T09:29:32Z</time></trkpt><trkpt lat="44.25043462872377" lon="11.427712760455002"><ele>734.5999999999999</ele><time>2026-04-12T09:29:33Z</time></trkpt><trkpt lat="44.25037027862336" lon="11.427706990188582"><ele>736.4</ele><time>2026-04-12T09:29:34Z</time></trkpt><trkpt lat="44.250271257597134" lon="11.427714416427868"><ele>738.2</ele><time>2026-04-12T09:29:35Z</time></trkpt><trkpt lat="44.250129269599746" lon="11.427728432042272"><ele>740.0</ele><time>2026-04-12T09:29:36Z</time></trkpt><trkpt lat="44.24999204391226" lon="11.427714002777074"><ele>740.0</ele><time>2026-04-12T09:29:37Z</time></trkpt><trkpt lat="44.24988707952716" lon="11.427718237634663"><ele>740.0</ele><time>2026-04-12T09:29:38Z</time></trkpt><trkpt lat="44.24979831045232" lon="11.427723457051856"><ele>740.0</ele><time>2026-04-12T09:29:39Z</time></trkpt><trkpt lat="44.249727584976405" lon="11.427729328897176"><ele>740.0</ele><time>2026-04-12T09:29:40Z</time></trkpt><trkpt lat="44.249666359390424" lon="11.427754136841461"><ele>740.0</ele><time>2026-04-12T09:29:41Z</time></trkpt><trkpt lat="44.24956244937378" lon="11.427749755436222"><ele>740.0</ele><time>2026-04-12T09:29:43Z</time></trkpt><trkpt lat="44.24947934727675" lon="11.42776115228454"><ele>740.2</ele><time>2026-04-12T09:29:45Z</time></trkpt><trkpt lat="44.249377937183596" lon="11.427775060057215"><ele>740.4</ele><time>2026-04-12T09:29:47Z</time></trkpt><trkpt lat="44.24926041069759" lon="11.427784745957123"><ele>740.5999999999999</ele><time>2026-04-12T09:29:49Z</time></trkpt><trkpt lat="44.24914820653385" lon="11.427797191531274"><ele>740.8</ele><time>2026-04-12T09:29:51Z</time></trkpt><trkpt lat="44.24905453777194" lon="11.427828059591343"><ele>741.0</ele><time>2026-04-12T09:29:53Z</time></trkpt><trkpt lat="44.24898963967355" lon="11.427806460291778"><ele>739.6666666666666</ele><time>2026-04-12T09:29:55Z</time></trkpt><trkpt lat="44.24890721826134" lon="11.427878624614095"><ele>738.3333333333334</ele><time>2026-04-12T09:38:08Z</time></trkpt><trkpt lat="44.24885469626984" lon="11.427931324448995"><ele>737.0</ele><time>2026-04-12T09:38:10Z</time></trkpt><trkpt lat="44.248747721651306" lon="11.42795238809044"><ele>735.6666666666667</ele><time>2026-04-12T09:38:13Z</time></trkpt><trkpt lat="44.248664981075166" lon="11.427960407788428"><ele>734.3333333333334</ele><time>2026-04-12T09:38:15Z</time></trkpt><trkpt lat="44.24858887028232" lon="11.427971056559073"><ele>733.0</ele><time>2026-04-12T09:38:17Z</time></trkpt><trkpt lat="44.2485046643578" lon="11.427967717503167"><ele>733.0</ele><time>2026-04-12T09:38:19Z</time></trkpt><trkpt lat="44.248437540532784" lon="11.427915574690896"><ele>733.0</ele><time>2026-04-12T09:38:21Z</time></trkpt><trkpt lat="44.24836931178648" lon="11.427904659604142"><ele>733.0</ele><time>2026-04-12T09:38:23Z</time></trkpt><trkpt lat="44.24831175183322" lon="11.427837754501601"><ele>733.0</ele><time>2026-04-12T09:38:25Z</time></trkpt><trkpt lat="44.248254803287075" lon="11.427774903349283"><ele>733.0</ele><time>2026-04-12T09:38:27Z</time></trkpt><trkpt lat="44.248195951729166" lon="11.42768977705334"><ele>733.0</ele><time>2026-04-12T09:38:29Z</time></trkpt><trkpt lat="44.24814591184271" lon="11.427557587836555"><ele>733.3333333333334</ele><time>2026-04-12T09:38:31Z</time></trkpt><trkpt lat="44.24811580734828" lon="11.427462964329704"><ele>733.6666666666667</ele><time>2026-04-12T09:38:32Z</time></trkpt><trkpt lat="44.24808908568638" lon="11.427377629847797"><ele>734.0</ele><time>2026-04-12T09:38:32.999Z</time></trkpt><trkpt lat="44.24804848249665" lon="11.427242227953728"><ele>734.3333333333334</ele><time>2026-04-12T09:38:34.999Z</time></trkpt><trkpt lat="44.24800967408315" lon="11.427102186788913"><ele>734.6666666666666</ele><time>2026-04-12T09:38:36.999Z</time></trkpt><trkpt lat="44.24796177080113" lon="11.42700721975524"><ele>735.0</ele><time>2026-04-12T09:38:38.999Z</time></trkpt><trkpt lat="44.247933813503124" lon="11.426915652771111"><ele>735.0</ele><time>2026-04-12T09:38:40.999Z</time></trkpt><trkpt lat="44.24789568532185" lon="11.4268397863348"><ele>735.0</ele><time>2026-04-12T09:38:43.999Z</time></trkpt><trkpt lat="44.24784228986018" lon="11.426747461606187"><ele>735.0</ele><time>2026-04-12T09:39:29.998Z</time></trkpt><trkpt lat="44.24773854760571" lon="11.426666424502935"><ele>735.0</ele><time>2026-04-12T09:39:31.998Z</time></trkpt><trkpt lat="44.24766956249044" lon="11.426635660379016"><ele>735.0</ele><time>2026-04-12T09:39:32.998Z</time></trkpt><trkpt lat="44.24759367565407" lon="11.426608890314897"><ele>735.0</ele><time>2026-04-12T09:39:33.998Z</time></trkpt><trkpt lat="44.24751477497278" lon="11.426585163735492"><ele>735.0</ele><time>2026-04-12T09:39:34.998Z</time></trkpt><trkpt lat="44.24743979459037" lon="11.426569357957902"><ele>735.0</ele><time>2026-04-12T09:39:35.998Z</time></trkpt><trkpt lat="44.24736235868826" lon="11.426587320793995"><ele>735.0</ele><time>2026-04-12T09:39:36.998Z</time></trkpt><trkpt lat="44.247293436380154" lon="11.426541126523556"><ele>735.0</ele><time>2026-04-12T09:39:37.998Z</time></trkpt><trkpt lat="44.24723510369971" lon="11.426507952697737"><ele>735.0</ele><time>2026-04-12T09:39:38.998Z</time></trkpt><trkpt lat="44.247152698020415" lon="11.426452039495121"><ele>735.0</ele><time>2026-04-12T09:39:40Z</time></trkpt><trkpt lat="44.24703264501705" lon="11.426378073315758"><ele>735.1666666666666</ele><time>2026-04-12T09:39:41Z</time></trkpt><trkpt lat="44.24692412904843" lon="11.426315946392945"><ele>735.3333333333334</ele><time>2026-04-12T09:39:42Z</time></trkpt><trkpt lat="44.24682914188223" lon="11.42626538115705"><ele>735.5</ele><time>2026-04-12T09:39:43Z</time></trkpt><trkpt lat="44.2467475001752" lon="11.426227338925024"><ele>735.6666666666667</ele><time>2026-04-12T09:39:44Z</time></trkpt><trkpt lat="44.24668223351432" lon="11.426201078308825"><ele>735.8333333333334</ele><time>2026-04-12T09:39:45Z</time></trkpt><trkpt lat="44.246614012152556" lon="11.42617824586582"><ele>736.0</ele><time>2026-04-12T09:39:46Z</time></trkpt><trkpt lat="44.24654594745113" lon="11.426183573389778"><ele>736.0</ele><time>2026-04-12T09:39:47Z</time></trkpt><trkpt lat="44.24647791183469" lon="11.426157117462656"><ele>736.0</ele><time>2026-04-12T09:39:48Z</time></trkpt><trkpt lat="44.24639681148508" lon="11.426136531872945"><ele>736.0</ele><time>2026-04-12T09:39:49Z</time></trkpt><trkpt lat="44.24631907475111" lon="11.426119611794139"><ele>736.0</ele><time>2026-04-12T09:39:50Z</time></trkpt><trkpt lat="44.246227139076886" lon="11.42610672065858"><ele>736.0</ele><time>2026-04-12T09:39:51Z</time></trkpt><trkpt lat="44.246137629691496" lon="11.42609230793303"><ele>736.0</ele><time>2026-04-12T09:39:52Z</time></trkpt><trkpt lat="44.24603660132815" lon="11.42606191669627"><ele>736.5</ele><time>2026-04-12T09:39:53Z</time></trkpt><trkpt lat="44.245946307540194" lon="11.42605386600361"><ele>737.0</ele><time>2026-04-12T09:39:54Z</time></trkpt><trkpt lat="44.24587160944774" lon="11.426066048952826"><ele>737.5</ele><time>2026-04-12T09:39:55Z</time></trkpt><trkpt lat="44.24578283719342" lon="11.426056886686638"><ele>738.0</ele><time>2026-04-12T09:39:56Z</time></trkpt><trkpt lat="44.24570110670498" lon="11.426050880957115"><ele>738.5</ele><time>2026-04-12T09:39:57Z</time></trkpt><trkpt lat="44.245624729637356" lon="11.426056475479855"><ele>739.0</ele><time>2026-04-12T09:39:58Z</time></trkpt><trkpt lat="44.24554060735559" lon="11.42606229345368"><ele>739.2</ele><time>2026-04-12T09:39:59Z</time></trkpt><trkpt lat="44.24546271779884" lon="11.42606991456604"><ele>739.4000000000001</ele><time>2026-04-12T09:40:00Z</time></trkpt><trkpt lat="44.24538924953215" lon="11.426055050280468"><ele>739.6</ele><time>2026-04-12T09:40:01Z</time></trkpt><trkpt lat="44.24530131997555" lon="11.426075088269316"><ele>739.8</ele><time>2026-04-12T09:40:02Z</time></trkpt><trkpt lat="44.24519387262341" lon="11.426058158772658"><ele>740.0</ele><time>2026-04-12T09:40:03Z</time></trkpt><trkpt lat="44.24509003424767" lon="11.426046366906082"><ele>740.0</ele><time>2026-04-12T09:40:04Z</time></trkpt><trkpt lat="44.24499621802383" lon="11.426047178548796"><ele>740.0</ele><time>2026-04-12T09:40:05Z</time></trkpt><trkpt lat="44.24491437071503" lon="11.42605442007307"><ele>740.0</ele><time>2026-04-12T09:40:06Z</time></trkpt><trkpt lat="44.24483945684278" lon="11.426054914507391"><ele>740.0</ele><time>2026-04-12T09:40:07Z</time></trkpt><trkpt lat="44.24475818698788" lon="11.426051355284919"><ele>740.0</ele><time>2026-04-12T09:40:08Z</time></trkpt><trkpt lat="44.244666258636435" lon="11.426036576858662"><ele>740.0</ele><time>2026-04-12T09:40:09Z</time></trkpt><trkpt lat="44.244564917084105" lon="11.426009367986435"><ele>739.5</ele><time>2026-04-12T09:40:10Z</time></trkpt><trkpt lat="44.24446584162758" lon="11.425988745869502"><ele>739.0</ele><time>2026-04-12T09:40:11Z</time></trkpt><trkpt lat="44.2443849860582" lon="11.425957690724301"><ele>738.5</ele><time>2026-04-12T09:40:12Z</time></trkpt><trkpt lat="44.24431985699777" lon="11.425933939026566"><ele>738.0</ele><time>2026-04-12T09:40:13Z</time></trkpt><trkpt lat="44.244257639684534" lon="11.425887270980562"><ele>737.5</ele><time>2026-04-12T09:40:14Z</time></trkpt><trkpt lat="44.2441822719247" lon="11.425872578381885"><ele>737.0</ele><time>2026-04-12T09:40:15Z</time></trkpt><trkpt lat="44.2441100228946" lon="11.425838948704829"><ele>737.0</ele><time>2026-04-12T09:40:16Z</time></trkpt><trkpt lat="44.244039187661066" lon="11.425802806848266"><ele>737.0</ele><time>2026-04-12T09:40:17Z</time></trkpt><trkpt lat="44.24397569773651" lon="11.42577936765914"><ele>737.0</ele><time>2026-04-12T09:40:18Z</time></trkpt><trkpt lat="44.24387286217903" lon="11.425744024691923"><ele>737.0</ele><time>2026-04-12T09:40:20Z</time></trkpt><trkpt lat="44.24378302155366" lon="11.425722326130218"><ele>737.0</ele><time>2026-04-12T09:40:22Z</time></trkpt><trkpt lat="44.243681398278845" lon="11.42568945195238"><ele>737.0</ele><time>2026-04-12T09:40:24Z</time></trkpt><trkpt lat="44.24356711357001" lon="11.425668280796009"><ele>736.5</ele><time>2026-04-12T09:40:26Z</time></trkpt><trkpt lat="44.24349582444534" lon="11.42564432345958"><ele>736.0</ele><time>2026-04-12T09:40:27Z</time></trkpt><trkpt lat="44.24341351879712" lon="11.425624847632339"><ele>735.5</ele><time>2026-04-12T09:40:28Z</time></trkpt><trkpt lat="44.24332362904089" lon="11.425576257817568"><ele>735.0</ele><time>2026-04-12T09:40:29Z</time></trkpt><trkpt lat="44.243240369353146" lon="11.42554759130608"><ele>734.5</ele><time>2026-04-12T09:40:30Z</time></trkpt><trkpt lat="44.243145645248916" lon="11.425533672439396"><ele>734.0</ele><time>2026-04-12T09:40:31Z</time></trkpt><trkpt lat="44.243044924444554" lon="11.425496765719698"><ele>733.8333333333333</ele><time>2026-04-12T09:40:32Z</time></trkpt><trkpt lat="44.24295078656906" lon="11.425474835277681"><ele>733.6666666666666</ele><time>2026-04-12T09:40:33Z</time></trkpt><trkpt lat="44.24287133152432" lon="11.425448687919284"><ele>733.5</ele><time>2026-04-12T09:40:34Z</time></trkpt><trkpt lat="44.242783753218895" lon="11.425416225880177"><ele>733.3333333333334</ele><time>2026-04-12T09:40:35Z</time></trkpt><trkpt lat="44.2427089749066" lon="11.425371500862541"><ele>733.1666666666667</ele><time>2026-04-12T09:40:36Z</time></trkpt><trkpt lat="44.242634596408976" lon="11.425318825992422"><ele>733.0</ele><time>2026-04-12T09:40:37Z</time></trkpt><trkpt lat="44.24255754826735" lon="11.42524914585005"><ele>733.0</ele><time>2026-04-12T09:40:38Z</time></trkpt><trkpt lat="44.242489090570935" lon="11.425130929604713"><ele>733.0</ele><time>2026-04-12T09:40:39Z</time></trkpt><trkpt lat="44.242423286929636" lon="11.425026758383334"><ele>733.0</ele><time>2026-04-12T09:40:40Z</time></trkpt><trkpt lat="44.2423489429304" lon="11.424884720413472"><ele>733.0</ele><time>2026-04-12T09:40:40.999Z</time></trkpt><trkpt lat="44.24227403341756" lon="11.424744635717872"><ele>733.0</ele><time>2026-04-12T09:40:41.999Z</time></trkpt><trkpt lat="44.24218997423942" lon="11.424650184635555"><ele>733.0</ele><time>2026-04-12T09:40:42.999Z</time></trkpt><trkpt lat="44.24211971990982" lon="11.424565015903672"><ele>733.0</ele><time>2026-04-12T09:40:43.999Z</time></trkpt><trkpt lat="44.24205221058023" lon="11.424503195760494"><ele>733.0</ele><time>2026-04-12T09:40:44.999Z</time></trkpt><trkpt lat="44.241998910659014" lon="11.424439338304422"><ele>733.0</ele><time>2026-04-12T09:40:45.999Z</time></trkpt><trkpt lat="44.24193410856467" lon="11.424414783280975"><ele>733.0</ele><time>2026-04-12T09:40:46.999Z</time></trkpt><trkpt lat="44.24183891240214" lon="11.424334180204383"><ele>733.0</ele><time>2026-04-12T09:40:48.999Z</time></trkpt><trkpt lat="44.241756878191225" lon="11.424275826121658"><ele>733.0</ele><time>2026-04-12T09:40:50.999Z</time></trkpt><trkpt lat="44.241676947100885" lon="11.424218092727616"><ele>733.0</ele><time>2026-04-12T09:40:52.999Z</time></trkpt><trkpt lat="44.241575078764804" lon="11.424115438593178"><ele>733.0</ele><time>2026-04-12T09:40:54.999Z</time></trkpt><trkpt lat="44.24150892791332" lon="11.42406348594768"><ele>733.0</ele><time>2026-04-12T09:40:55.999Z</time></trkpt><trkpt lat="44.24142770943517" lon="11.423999699718518"><ele>732.6666666666667</ele><time>2026-04-12T09:40:56.999Z</time></trkpt><trkpt lat="44.24135304853528" lon="11.42396531008222"><ele>732.3333333333334</ele><time>2026-04-12T09:40:57.999Z</time></trkpt><trkpt lat="44.24129604434637" lon="11.423919210168645"><ele>732.0</ele><time>2026-04-12T09:40:58.999Z</time></trkpt><trkpt lat="44.2412392065713" lon="11.423875992464144"><ele>731.6666666666666</ele><time>2026-04-12T09:40:59.999Z</time></trkpt><trkpt lat="44.24118234760269" lon="11.423829324925396"><ele>731.3333333333333</ele><time>2026-04-12T09:41:00.999Z</time></trkpt><trkpt lat="44.24109048193057" lon="11.42374617719297"><ele>731.0</ele><time>2026-04-12T09:41:02.999Z</time></trkpt><trkpt lat="44.241163378370025" lon="11.42376040003094"><ele>731.0</ele><time>2026-04-12T09:41:10.999Z</time></trkpt><trkpt lat="44.24142064872763" lon="11.423818146983294"><ele>731.0</ele><time>2026-04-12T09:41:11.999Z</time></trkpt><trkpt lat="44.24129168878217" lon="11.423785196403026"><ele>731.0</ele><time>2026-04-12T09:41:13.999Z</time></trkpt><trkpt lat="44.24133313686263" lon="11.423871619813422"><ele>731.0</ele><time>2026-04-12T09:41:16.999Z</time></trkpt><trkpt lat="44.24138422499154" lon="11.42394634003804"><ele>731.0</ele><time>2026-04-12T09:41:19.999Z</time></trkpt><trkpt lat="44.24127233855388" lon="11.423925595048825"><ele>731.0</ele><time>2026-04-12T09:44:02Z</time></trkpt><trkpt lat="44.24119734407872" lon="11.423865325702746"><ele>731.0</ele><time>2026-04-12T09:44:03Z</time></trkpt><trkpt lat="44.2411018642819" lon="11.42378679138682"><ele>731.0</ele><time>2026-04-12T09:44:04Z</time></trkpt><trkpt lat="44.24100993126523" lon="11.423680166901026"><ele>731.0</ele><time>2026-04-12T09:44:05Z</time></trkpt><trkpt lat="44.24091615345452" lon="11.423613198758995"><ele>731.0</ele><time>2026-04-12T09:44:06Z</time></trkpt><trkpt lat="44.24080644407342" lon="11.423527554262561"><ele>731.0</ele><time>2026-04-12T09:44:07Z</time></trkpt><trkpt lat="44.240706408381826" lon="11.423436908095978"><ele>731.0</ele><time>2026-04-12T09:44:08Z</time></trkpt><trkpt lat="44.240625611627536" lon="11.423353632274942"><ele>731.4</ele><time>2026-04-12T09:44:09Z</time></trkpt><trkpt lat="44.24054629900764" lon="11.423263384627393"><ele>731.8</ele><time>2026-04-12T09:44:10Z</time></trkpt><trkpt lat="44.24047896424308" lon="11.423178141703707"><ele>732.1999999999999</ele><time>2026-04-12T09:44:11Z</time></trkpt><trkpt lat="44.24041318815421" lon="11.423087652704396"><ele>732.5999999999999</ele><time>2026-04-12T09:44:12Z</time></trkpt><trkpt lat="44.240343961601205" lon="11.422968775751094"><ele>733.0</ele><time>2026-04-12T09:44:13Z</time></trkpt><trkpt lat="44.24029319130621" lon="11.422860525453766"><ele>733.0</ele><time>2026-04-12T09:44:14Z</time></trkpt><trkpt lat="44.24025512487066" lon="11.422774195475547"><ele>733.0</ele><time>2026-04-12T09:44:15Z</time></trkpt><trkpt lat="44.24021102540661" lon="11.422660968326639"><ele>733.0</ele><time>2026-04-12T09:44:16Z</time></trkpt><trkpt lat="44.24016008069042" lon="11.422529722942517"><ele>733.0</ele><time>2026-04-12T09:44:17Z</time></trkpt><trkpt lat="44.24011202302126" lon="11.422414800290301"><ele>733.0</ele><time>2026-04-12T09:44:18Z</time></trkpt><trkpt lat="44.240051243401034" lon="11.422280093760714"><ele>732.25</ele><time>2026-04-12T09:44:19Z</time></trkpt><trkpt lat="44.23998438384227" lon="11.422143517612884"><ele>731.5</ele><time>2026-04-12T09:44:20Z</time></trkpt><trkpt lat="44.23990566036606" lon="11.422006102443016"><ele>730.75</ele><time>2026-04-12T09:44:21Z</time></trkpt><trkpt lat="44.23982967335374" lon="11.421893781158518"><ele>730.0</ele><time>2026-04-12T09:44:22Z</time></trkpt><trkpt lat="44.23976206184548" lon="11.42179469974377"><ele>730.0</ele><time>2026-04-12T09:44:23Z</time></trkpt><trkpt lat="44.23971537573399" lon="11.421706992141424"><ele>730.0</ele><time>2026-04-12T09:44:24Z</time></trkpt><trkpt lat="44.23962201604817" lon="11.421629075049854"><ele>730.0</ele><time>2026-04-12T09:44:25Z</time></trkpt><trkpt lat="44.23952570247344" lon="11.421551865344478"><ele>730.0</ele><time>2026-04-12T09:44:26Z</time></trkpt><trkpt lat="44.23944791580491" lon="11.421492538697205"><ele>730.0</ele><time>2026-04-12T09:44:27Z</time></trkpt><trkpt lat="44.23938038035025" lon="11.421447377802652"><ele>730.0</ele><time>2026-04-12T09:44:28Z</time></trkpt><trkpt lat="44.23930812751388" lon="11.421433499595816"><ele>730.0</ele><time>2026-04-12T09:44:29Z</time></trkpt><trkpt lat="44.23924856755197" lon="11.421392645991418"><ele>730.0</ele><time>2026-04-12T09:44:30Z</time></trkpt><trkpt lat="44.23912644024007" lon="11.421358473859659"><ele>730.0</ele><time>2026-04-12T09:44:32Z</time></trkpt><trkpt lat="44.239054086999836" lon="11.421342362505301"><ele>730.0</ele><time>2026-04-12T09:44:33Z</time></trkpt><trkpt lat="44.23897742640777" lon="11.421330597428133"><ele>730.0</ele><time>2026-04-12T09:44:34Z</time></trkpt><trkpt lat="44.23887392649962" lon="11.421330984906117"><ele>730.2</ele><time>2026-04-12T09:44:35Z</time></trkpt><trkpt lat="44.23875323717296" lon="11.421343266540573"><ele>730.4</ele><time>2026-04-12T09:44:36Z</time></trkpt><trkpt lat="44.23865344603283" lon="11.4213827937569"><ele>730.5999999999999</ele><time>2026-04-12T09:44:37Z</time></trkpt><trkpt lat="44.23854833396274" lon="11.421381702770733"><ele>730.8</ele><time>2026-04-12T09:44:38Z</time></trkpt><trkpt lat="44.23842958683632" lon="11.42138073806932"><ele>731.0</ele><time>2026-04-12T09:44:39Z</time></trkpt><trkpt lat="44.23832123441423" lon="11.421365189282708"><ele>731.0</ele><time>2026-04-12T09:44:39.999Z</time></trkpt><trkpt lat="44.23821830581287" lon="11.421355755969397"><ele>731.0</ele><time>2026-04-12T09:44:40.999Z</time></trkpt><trkpt lat="44.238132589941095" lon="11.421380486991445"><ele>731.0</ele><time>2026-04-12T09:44:41.999Z</time></trkpt><trkpt lat="44.238047918086046" lon="11.421402863709298"><ele>731.0</ele><time>2026-04-12T09:44:42.999Z</time></trkpt><trkpt lat="44.23794581566265" lon="11.421442581906991"><ele>731.0</ele><time>2026-04-12T09:44:43.999Z</time></trkpt><trkpt lat="44.237853051506484" lon="11.421423142780752"><ele>731.1999999999999</ele><time>2026-04-12T09:44:44.999Z</time></trkpt><trkpt lat="44.23778000275986" lon="11.4214061689099"><ele>731.4</ele><time>2026-04-12T09:44:45.999Z</time></trkpt><trkpt lat="44.237674881246406" lon="11.42135498144792"><ele>731.6</ele><time>2026-04-12T09:44:47.999Z</time></trkpt><trkpt lat="44.237619398340264" lon="11.421310891688208"><ele>731.8</ele><time>2026-04-12T09:44:49.999Z</time></trkpt><trkpt lat="44.23752128505233" lon="11.421206457875494"><ele>732.0</ele><time>2026-04-12T09:44:51.999Z</time></trkpt><trkpt lat="44.237462413686835" lon="11.421134792939991"><ele>732.6666666666666</ele><time>2026-04-12T09:44:52.999Z</time></trkpt><trkpt lat="44.237398578883216" lon="11.421049907678634"><ele>733.3333333333334</ele><time>2026-04-12T09:44:53.999Z</time></trkpt><trkpt lat="44.23733589787917" lon="11.421012258553574"><ele>734.0</ele><time>2026-04-12T09:44:54.999Z</time></trkpt><trkpt lat="44.23726953091345" lon="11.420937632963478"><ele>734.6666666666667</ele><time>2026-04-12T09:44:56.999Z</time></trkpt><trkpt lat="44.23720986487643" lon="11.42089006728547"><ele>735.3333333333334</ele><time>2026-04-12T09:44:58.999Z</time></trkpt><trkpt lat="44.23713066466704" lon="11.420830814348943"><ele>736.0</ele><time>2026-04-12T09:45:00.999Z</time></trkpt><trkpt lat="44.2370461963918" lon="11.420826717014966"><ele>738.25</ele><time>2026-04-12T09:45:02.999Z</time></trkpt><trkpt lat="44.23690964219456" lon="11.420852329177853"><ele>740.5</ele><time>2026-04-12T09:45:04.999Z</time></trkpt><trkpt lat="44.23678068664681" lon="11.420928149305388"><ele>742.75</ele><time>2026-04-12T09:45:05.999Z</time></trkpt><trkpt lat="44.23667810898891" lon="11.420973867436953"><ele>745.0</ele><time>2026-04-12T09:45:06.999Z</time></trkpt><trkpt lat="44.23660432273824" lon="11.421015940254657"><ele>745.0</ele><time>2026-04-12T09:45:07.999Z</time></trkpt><trkpt lat="44.236539937422904" lon="11.421057228028218"><ele>745.0</ele><time>2026-04-12T09:45:08.999Z</time></trkpt><trkpt lat="44.23646867598109" lon="11.421091105589257"><ele>745.0</ele><time>2026-04-12T09:45:09.999Z</time></trkpt><trkpt lat="44.23637566471062" lon="11.421155981896243"><ele>745.0</ele><time>2026-04-12T09:45:11.999Z</time></trkpt><trkpt lat="44.23629510749796" lon="11.421191743221517"><ele>745.0</ele><time>2026-04-12T09:45:13.999Z</time></trkpt><trkpt lat="44.23619392722924" lon="11.421218894303603"><ele>745.0</ele><time>2026-04-12T09:45:15.999Z</time></trkpt><trkpt lat="44.23609798517654" lon="11.421213400159571"><ele>746.3333333333334</ele><time>2026-04-12T09:45:17.999Z</time></trkpt><trkpt lat="44.23600105793058" lon="11.421201862458792"><ele>747.6666666666667</ele><time>2026-04-12T09:45:20.999Z</time></trkpt><trkpt lat="44.23593889615953" lon="11.421165732751634"><ele>749.0</ele><time>2026-04-12T09:45:22.999Z</time></trkpt><trkpt lat="44.23584992376122" lon="11.421163646478936"><ele>750.3333333333334</ele><time>2026-04-12T09:45:24.999Z</time></trkpt><trkpt lat="44.235758699768525" lon="11.421154216069755"><ele>751.6666666666666</ele><time>2026-04-12T09:45:26.999Z</time></trkpt><trkpt lat="44.23566833855856" lon="11.421160782366606"><ele>753.0</ele><time>2026-04-12T09:45:28.999Z</time></trkpt><trkpt lat="44.23556436835315" lon="11.421211271945781"><ele>752.2</ele><time>2026-04-12T09:45:30.999Z</time></trkpt><trkpt lat="44.235456621059924" lon="11.421282010119386"><ele>751.4</ele><time>2026-04-12T09:45:32.999Z</time></trkpt><trkpt lat="44.23538311632571" lon="11.421337481372884"><ele>750.6</ele><time>2026-04-12T09:45:34.999Z</time></trkpt><trkpt lat="44.235310037415495" lon="11.421403610681967"><ele>749.8000000000001</ele><time>2026-04-12T09:45:36.998Z</time></trkpt><trkpt lat="44.2352350303353" lon="11.421488189852573"><ele>749.0</ele><time>2026-04-12T09:45:38.998Z</time></trkpt><trkpt lat="44.23516442551823" lon="11.421560499720007"><ele>749.0</ele><time>2026-04-12T09:45:40.998Z</time></trkpt><trkpt lat="44.23508618672302" lon="11.421622410725199"><ele>749.0</ele><time>2026-04-12T09:45:42.998Z</time></trkpt><trkpt lat="44.23499762366748" lon="11.421693617372666"><ele>749.0</ele><time>2026-04-12T09:45:44.998Z</time></trkpt><trkpt lat="44.23490196493808" lon="11.421758406928182"><ele>749.0</ele><time>2026-04-12T09:45:46.998Z</time></trkpt><trkpt lat="44.23482761365445" lon="11.421834335260668"><ele>749.0</ele><time>2026-04-12T09:45:48.998Z</time></trkpt><trkpt lat="44.23474709391928" lon="11.421927619519838"><ele>748.2</ele><time>2026-04-12T09:45:50.998Z</time></trkpt><trkpt lat="44.234652299072266" lon="11.421998529118806"><ele>747.4000000000001</ele><time>2026-04-12T09:45:52.998Z</time></trkpt><trkpt lat="44.23456538677913" lon="11.42208981853077"><ele>746.6</ele><time>2026-04-12T09:45:54.998Z</time></trkpt><trkpt lat="44.23447613152251" lon="11.42213899226793"><ele>745.8</ele><time>2026-04-12T09:45:56.998Z</time></trkpt><trkpt lat="44.23440357718893" lon="11.422210309768795"><ele>745.0</ele><time>2026-04-12T09:45:59Z</time></trkpt><trkpt lat="44.234335875784616" lon="11.42231254230239"><ele>743.8333333333334</ele><time>2026-04-12T09:46:01Z</time></trkpt><trkpt lat="44.23427776253765" lon="11.422393615170392"><ele>742.6666666666667</ele><time>2026-04-12T09:46:03Z</time></trkpt><trkpt lat="44.2342171494171" lon="11.422478515719652"><ele>741.5</ele><time>2026-04-12T09:46:05Z</time></trkpt><trkpt lat="44.23414310806511" lon="11.422534671184017"><ele>740.3333333333334</ele><time>2026-04-12T09:46:07Z</time></trkpt><trkpt lat="44.23407955045749" lon="11.422569918468799"><ele>739.1666666666666</ele><time>2026-04-12T09:46:09Z</time></trkpt><trkpt lat="44.23401781083991" lon="11.422536019302996"><ele>738.0</ele><time>2026-04-12T09:46:11Z</time></trkpt><trkpt lat="44.23397443053748" lon="11.422444594463256"><ele>738.0</ele><time>2026-04-12T09:46:13Z</time></trkpt><trkpt lat="44.23397607144608" lon="11.4223255561153"><ele>738.0</ele><time>2026-04-12T09:46:15Z</time></trkpt><trkpt lat="44.233981867189904" lon="11.422207129428925"><ele>738.0</ele><time>2026-04-12T09:46:17Z</time></trkpt><trkpt lat="44.23397503733224" lon="11.422073675001974"><ele>738.0</ele><time>2026-04-12T09:46:19Z</time></trkpt><trkpt lat="44.23396456003823" lon="11.421951199862939"><ele>738.0</ele><time>2026-04-12T09:46:21Z</time></trkpt><trkpt lat="44.233947492070314" lon="11.421814858103573"><ele>736.0</ele><time>2026-04-12T09:46:23Z</time></trkpt><trkpt lat="44.233891761886234" lon="11.421694510930154"><ele>734.0</ele><time>2026-04-12T09:46:25Z</time></trkpt><trkpt lat="44.23386563945791" lon="11.421544845894916"><ele>732.0</ele><time>2026-04-12T09:46:27Z</time></trkpt><trkpt lat="44.23384482761764" lon="11.421389613594064"><ele>730.0</ele><time>2026-04-12T09:46:29Z</time></trkpt><trkpt lat="44.23381474403526" lon="11.421258474039933"><ele>728.0</ele><time>2026-04-12T09:46:31Z</time></trkpt><trkpt lat="44.233781265645014" lon="11.421125424712203"><ele>728.0</ele><time>2026-04-12T09:46:33Z</time></trkpt><trkpt lat="44.23369599111262" lon="11.421058566789714"><ele>728.0</ele><time>2026-04-12T09:46:35Z</time></trkpt><trkpt lat="44.23362216363969" lon="11.42096622073615"><ele>728.0</ele><time>2026-04-12T09:46:37Z</time></trkpt><trkpt lat="44.23356018097521" lon="11.42089204539164"><ele>728.0</ele><time>2026-04-12T09:46:39Z</time></trkpt><trkpt lat="44.233506313836806" lon="11.420797063397034"><ele>728.0</ele><time>2026-04-12T09:46:41Z</time></trkpt><trkpt lat="44.23347832266172" lon="11.420681398168918"><ele>728.0</ele><time>2026-04-12T09:46:43Z</time></trkpt><trkpt lat="44.233456851661714" lon="11.420564234245619"><ele>728.0</ele><time>2026-04-12T09:46:45Z</time></trkpt><trkpt lat="44.23344714721267" lon="11.42043219597864"><ele>728.0</ele><time>2026-04-12T09:46:47Z</time></trkpt><trkpt lat="44.23346111696982" lon="11.420319627998072"><ele>728.0</ele><time>2026-04-12T09:46:48.999Z</time></trkpt><trkpt lat="44.2335158393074" lon="11.420213158053881"><ele>728.0</ele><time>2026-04-12T09:46:50.999Z</time></trkpt><trkpt lat="44.23357355477222" lon="11.420094785375577"><ele>727.5</ele><time>2026-04-12T09:46:52.999Z</time></trkpt><trkpt lat="44.233610440526135" lon="11.420002750636419"><ele>727.0</ele><time>2026-04-12T09:46:53.999Z</time></trkpt><trkpt lat="44.23363493153932" lon="11.41991946655735"><ele>726.5</ele><time>2026-04-12T09:46:54.999Z</time></trkpt><trkpt lat="44.23366423518927" lon="11.419770052442713"><ele>726.0</ele><time>2026-04-12T09:46:56.999Z</time></trkpt><trkpt lat="44.23368765351247" lon="11.419635125559548"><ele>725.5</ele><time>2026-04-12T09:46:58.999Z</time></trkpt><trkpt lat="44.233686462202776" lon="11.419502984237504"><ele>725.0</ele><time>2026-04-12T09:47:00.999Z</time></trkpt><trkpt lat="44.23365945485313" lon="11.4193492254694"><ele>725.0</ele><time>2026-04-12T09:47:02.999Z</time></trkpt><trkpt lat="44.233632722832574" lon="11.41919814355115"><ele>725.0</ele><time>2026-04-12T09:47:04.999Z</time></trkpt><trkpt lat="44.23357510616055" lon="11.419100177645673"><ele>725.0</ele><time>2026-04-12T09:47:06.999Z</time></trkpt><trkpt lat="44.2335270678957" lon="11.418997246248777"><ele>725.0</ele><time>2026-04-12T09:47:08.999Z</time></trkpt><trkpt lat="44.23346812797524" lon="11.418919251760581"><ele>725.0</ele><time>2026-04-12T09:47:10.999Z</time></trkpt><trkpt lat="44.233404666958904" lon="11.418867872173758"><ele>725.0</ele><time>2026-04-12T09:47:19.999Z</time></trkpt><trkpt lat="44.23332844954859" lon="11.418819307761881"><ele>724.6666666666666</ele><time>2026-04-12T09:47:22.999Z</time></trkpt><trkpt lat="44.23326094504453" lon="11.418784764950223"><ele>724.3333333333333</ele><time>2026-04-12T09:47:24.999Z</time></trkpt><trkpt lat="44.2331830849196" lon="11.418748895403303"><ele>724.0</ele><time>2026-04-12T09:47:26.999Z</time></trkpt><trkpt lat="44.23309361623465" lon="11.418727484869894"><ele>723.6666666666666</ele><time>2026-04-12T09:47:28.999Z</time></trkpt><trkpt lat="44.233012355600316" lon="11.41867222131192"><ele>723.3333333333334</ele><time>2026-04-12T09:47:30.999Z</time></trkpt><trkpt lat="44.23291034887671" lon="11.418614705504346"><ele>723.0</ele><time>2026-04-12T09:47:32.999Z</time></trkpt><trkpt lat="44.23283417014824" lon="11.418560268350742"><ele>723.0</ele><time>2026-04-12T09:47:34.999Z</time></trkpt><trkpt lat="44.23271262551356" lon="11.41851260977475"><ele>723.0</ele><time>2026-04-12T09:47:36.999Z</time></trkpt><trkpt lat="44.23265107028062" lon="11.418487516851014"><ele>723.0</ele><time>2026-04-12T09:47:37.999Z</time></trkpt><trkpt lat="44.23255545977911" lon="11.418430899411698"><ele>723.0</ele><time>2026-04-12T09:47:39.999Z</time></trkpt><trkpt lat="44.23246302005491" lon="11.41841893199698"><ele>723.0</ele><time>2026-04-12T09:47:41.999Z</time></trkpt><trkpt lat="44.23235238094981" lon="11.418336855980916"><ele>720.5714285714287</ele><time>2026-04-12T09:47:43.999Z</time></trkpt><trkpt lat="44.23229640733001" lon="11.418291844997649"><ele>718.1428571428571</ele><time>2026-04-12T09:47:44.998Z</time></trkpt><trkpt lat="44.23222228454601" lon="11.418232887551657"><ele>715.7142857142858</ele><time>2026-04-12T09:47:45.998Z</time></trkpt><trkpt lat="44.23215856472243" lon="11.418166217000975"><ele>713.2857142857143</ele><time>2026-04-12T09:47:46.998Z</time></trkpt><trkpt lat="44.23209507649665" lon="11.418129227799643"><ele>710.8571428571429</ele><time>2026-04-12T09:47:47.998Z</time></trkpt><trkpt lat="44.23203577658801" lon="11.418090350396715"><ele>708.4285714285714</ele><time>2026-04-12T09:47:48.998Z</time></trkpt><trkpt lat="44.23197414627228" lon="11.418054965160065"><ele>706.0</ele><time>2026-04-12T09:47:49.998Z</time></trkpt><trkpt lat="44.2319266335563" lon="11.41799617709846"><ele>707.8</ele><time>2026-04-12T09:47:50.998Z</time></trkpt><trkpt lat="44.231842060553056" lon="11.417917277843188"><ele>709.5999999999999</ele><time>2026-04-12T09:47:52.998Z</time></trkpt><trkpt lat="44.23177085772452" lon="11.417839088524127"><ele>711.4</ele><time>2026-04-12T09:47:54.998Z</time></trkpt><trkpt lat="44.23167910139684" lon="11.417736473036863"><ele>713.2</ele><time>2026-04-12T09:47:56.998Z</time></trkpt><trkpt lat="44.23160560947384" lon="11.417632255641383"><ele>715.0</ele><time>2026-04-12T09:47:58.998Z</time></trkpt><trkpt lat="44.231558047280394" lon="11.417514206364308"><ele>715.0</ele><time>2026-04-12T09:48:00.998Z</time></trkpt><trkpt lat="44.23152189036861" lon="11.417374731812231"><ele>715.0</ele><time>2026-04-12T09:48:02.998Z</time></trkpt><trkpt lat="44.23150438122411" lon="11.417241654088158"><ele>715.0</ele><time>2026-04-12T09:48:05Z</time></trkpt><trkpt lat="44.23143854633666" lon="11.417114265192719"><ele>715.0</ele><time>2026-04-12T09:48:07Z</time></trkpt><trkpt lat="44.231330459556226" lon="11.417047549707911"><ele>715.0</ele><time>2026-04-12T09:48:09Z</time></trkpt><trkpt lat="44.231260433081346" lon="11.417041498945828"><ele>714.2</ele><time>2026-04-12T09:48:10Z</time></trkpt><trkpt lat="44.23117734198563" lon="11.41704790329116"><ele>713.4</ele><time>2026-04-12T09:48:11Z</time></trkpt><trkpt lat="44.23108756400002" lon="11.417061822595842"><ele>712.5999999999999</ele><time>2026-04-12T09:48:12Z</time></trkpt><trkpt lat="44.23100021217683" lon="11.41706101319003"><ele>711.8</ele><time>2026-04-12T09:48:13Z</time></trkpt><trkpt lat="44.230886962178495" lon="11.417061453003546"><ele>711.0</ele><time>2026-04-12T09:48:15Z</time></trkpt><trkpt lat="44.23078489567773" lon="11.417031607534174"><ele>711.0</ele><time>2026-04-12T09:48:17Z</time></trkpt><trkpt lat="44.23069946324446" lon="11.41699405973393"><ele>711.0</ele><time>2026-04-12T09:48:19Z</time></trkpt><trkpt lat="44.23060665382298" lon="11.416951949871313"><ele>711.0</ele><time>2026-04-12T09:48:21Z</time></trkpt><trkpt lat="44.23050876129665" lon="11.416898393501729"><ele>711.0</ele><time>2026-04-12T09:48:23Z</time></trkpt><trkpt lat="44.23041678487338" lon="11.416806204081217"><ele>711.0</ele><time>2026-04-12T09:48:25Z</time></trkpt><trkpt lat="44.230358933840506" lon="11.416769777490947"><ele>709.1666666666666</ele><time>2026-04-12T09:48:26Z</time></trkpt><trkpt lat="44.230288461645245" lon="11.416706260386942"><ele>707.3333333333334</ele><time>2026-04-12T09:48:28Z</time></trkpt><trkpt lat="44.2302091454594" lon="11.416676916184619"><ele>705.5</ele><time>2026-04-12T09:48:30Z</time></trkpt><trkpt lat="44.23012353532878" lon="11.416635870946045"><ele>703.6666666666667</ele><time>2026-04-12T09:48:32Z</time></trkpt><trkpt lat="44.230043085469035" lon="11.416627049538528"><ele>701.8333333333334</ele><time>2026-04-12T09:48:34Z</time></trkpt><trkpt lat="44.229953894488055" lon="11.41659790715837"><ele>700.0</ele><time>2026-04-12T09:48:36Z</time></trkpt><trkpt lat="44.2298705751496" lon="11.416568664817106"><ele>698.0</ele><time>2026-04-12T09:48:38Z</time></trkpt><trkpt lat="44.22977893213111" lon="11.416541128533613"><ele>696.0</ele><time>2026-04-12T09:48:40Z</time></trkpt><trkpt lat="44.229682121610196" lon="11.416524988212272"><ele>694.0</ele><time>2026-04-12T09:48:42Z</time></trkpt><trkpt lat="44.229553860855084" lon="11.416477745033582"><ele>692.0</ele><time>2026-04-12T09:48:44Z</time></trkpt><trkpt lat="44.2294836174404" lon="11.416446126542105"><ele>690.0</ele><time>2026-04-12T09:48:45Z</time></trkpt><trkpt lat="44.229415895919566" lon="11.416413723424276"><ele>690.0</ele><time>2026-04-12T09:48:46Z</time></trkpt><trkpt lat="44.22934707767133" lon="11.4163978192719"><ele>690.0</ele><time>2026-04-12T09:48:47Z</time></trkpt><trkpt lat="44.22924610295413" lon="11.41635968874029"><ele>690.0</ele><time>2026-04-12T09:48:49Z</time></trkpt><trkpt lat="44.229163528484364" lon="11.416361652885467"><ele>690.0</ele><time>2026-04-12T09:48:51Z</time></trkpt><trkpt lat="44.22909770734772" lon="11.416358156772109"><ele>690.0</ele><time>2026-04-12T09:48:54Z</time></trkpt><trkpt lat="44.22910305713506" lon="11.416490551052698"><ele>690.0</ele><time>2026-04-12T09:48:54.999Z</time></trkpt><trkpt lat="44.22917296848811" lon="11.416574521642396"><ele>690.0</ele><time>2026-04-12T09:48:56.999Z</time></trkpt><trkpt lat="44.22925523235316" lon="11.416625678006643"><ele>690.0</ele><time>2026-04-12T09:48:57.999Z</time></trkpt><trkpt lat="44.229345264607836" lon="11.416693070850613"><ele>690.0</ele><time>2026-04-12T09:48:58.999Z</time></trkpt><trkpt lat="44.22940556853235" lon="11.4167523867604"><ele>690.0</ele><time>2026-04-12T09:48:59.999Z</time></trkpt><trkpt lat="44.22945949726299" lon="11.416814497868083"><ele>690.0</ele><time>2026-04-12T09:49:00.999Z</time></trkpt><trkpt lat="44.22950778238324" lon="11.41688135461545"><ele>690.0</ele><time>2026-04-12T09:49:01.999Z</time></trkpt><trkpt lat="44.2295490639107" lon="11.416956674467816"><ele>690.0</ele><time>2026-04-12T09:49:02.999Z</time></trkpt><trkpt lat="44.229588006283656" lon="11.417032806777208"><ele>690.0</ele><time>2026-04-12T09:49:03.999Z</time></trkpt><trkpt lat="44.229664467754624" lon="11.41715891142831"><ele>690.0</ele><time>2026-04-12T09:49:05.999Z</time></trkpt><trkpt lat="44.22974577749654" lon="11.41726483935249"><ele>690.0</ele><time>2026-04-12T09:49:07.999Z</time></trkpt><trkpt lat="44.229829392626485" lon="11.417355389466415"><ele>690.0</ele><time>2026-04-12T09:49:09.999Z</time></trkpt><trkpt lat="44.22991915786875" lon="11.417426159049864"><ele>689.0</ele><time>2026-04-12T09:49:11.999Z</time></trkpt><trkpt lat="44.229991100479076" lon="11.417560672529966"><ele>688.0</ele><time>2026-04-12T09:49:13.999Z</time></trkpt><trkpt lat="44.230053932627364" lon="11.417648933051572"><ele>687.0</ele><time>2026-04-12T09:49:14.999Z</time></trkpt><trkpt lat="44.23010001898165" lon="11.41775841261929"><ele>686.0</ele><time>2026-04-12T09:49:15.999Z</time></trkpt><trkpt lat="44.23013862737668" lon="11.41785082430879"><ele>685.0</ele><time>2026-04-12T09:49:16.999Z</time></trkpt><trkpt lat="44.23017528218278" lon="11.417931903212297"><ele>684.0</ele><time>2026-04-12T09:49:17.999Z</time></trkpt><trkpt lat="44.2302122044102" lon="11.418010778804625"><ele>681.5</ele><time>2026-04-12T09:49:18.999Z</time></trkpt><trkpt lat="44.23025926339715" lon="11.418078858918644"><ele>679.0</ele><time>2026-04-12T09:49:19.999Z</time></trkpt><trkpt lat="44.23031156264797" lon="11.418148952558953"><ele>676.5</ele><time>2026-04-12T09:49:20.999Z</time></trkpt><trkpt lat="44.23036944884508" lon="11.418220043895808"><ele>674.0</ele><time>2026-04-12T09:49:21.999Z</time></trkpt><trkpt lat="44.23043125812448" lon="11.41828781967774"><ele>671.5</ele><time>2026-04-12T09:49:22.999Z</time></trkpt><trkpt lat="44.23049195223377" lon="11.418346830031973"><ele>669.0</ele><time>2026-04-12T09:49:23.999Z</time></trkpt><trkpt lat="44.23055832167254" lon="11.41841379515816"><ele>669.0</ele><time>2026-04-12T09:49:24.999Z</time></trkpt><trkpt lat="44.2306242037515" lon="11.418482576406433"><ele>669.0</ele><time>2026-04-12T09:49:25.999Z</time></trkpt><trkpt lat="44.2306762134772" lon="11.418560608385635"><ele>669.0</ele><time>2026-04-12T09:49:26.999Z</time></trkpt><trkpt lat="44.230705762876696" lon="11.418640459600244"><ele>669.0</ele><time>2026-04-12T09:49:27.999Z</time></trkpt><trkpt lat="44.23074483833932" lon="11.418752686942623"><ele>669.0</ele><time>2026-04-12T09:49:28.999Z</time></trkpt><trkpt lat="44.2307821544633" lon="11.418878452129452"><ele>669.0</ele><time>2026-04-12T09:49:29.999Z</time></trkpt><trkpt lat="44.23081479486243" lon="11.418979352630428"><ele>669.4285714285714</ele><time>2026-04-12T09:49:30.999Z</time></trkpt><trkpt lat="44.23083638936377" lon="11.419081710668488"><ele>669.8571428571429</ele><time>2026-04-12T09:49:31.999Z</time></trkpt><trkpt lat="44.23085769283031" lon="11.419169032495244"><ele>670.2857142857142</ele><time>2026-04-12T09:49:32.999Z</time></trkpt><trkpt lat="44.230888975062385" lon="11.419246700599153"><ele>670.7142857142858</ele><time>2026-04-12T09:49:33.999Z</time></trkpt><trkpt lat="44.23092989224881" lon="11.41932796717209"><ele>671.1428571428571</ele><time>2026-04-12T09:49:34.999Z</time></trkpt><trkpt lat="44.23097377161108" lon="11.419407403063557"><ele>671.5714285714286</ele><time>2026-04-12T09:49:35.999Z</time></trkpt><trkpt lat="44.231026969882834" lon="11.419493385605128"><ele>672.0</ele><time>2026-04-12T09:49:36.999Z</time></trkpt><trkpt lat="44.23108465779819" lon="11.419577138928478"><ele>669.4000000000001</ele><time>2026-04-12T09:49:37.999Z</time></trkpt><trkpt lat="44.231183520149564" lon="11.419680943310777"><ele>666.8000000000001</ele><time>2026-04-12T09:49:39.999Z</time></trkpt><trkpt lat="44.2312722354336" lon="11.419764509378862"><ele>664.2</ele><time>2026-04-12T09:49:41.999Z</time></trkpt><trkpt lat="44.231332079573995" lon="11.419840775435908"><ele>661.6</ele><time>2026-04-12T09:49:43.999Z</time></trkpt><trkpt lat="44.23140355729205" lon="11.419924837851708"><ele>659.0</ele><time>2026-04-12T09:49:45.999Z</time></trkpt><trkpt lat="44.23147143544675" lon="11.420041907363643"><ele>659.0</ele><time>2026-04-12T09:49:47.999Z</time></trkpt><trkpt lat="44.23147168962656" lon="11.420196024197745"><ele>659.0</ele><time>2026-04-12T09:49:49.998Z</time></trkpt><trkpt lat="44.23148936910444" lon="11.420287231610644"><ele>659.0</ele><time>2026-04-12T09:49:50.998Z</time></trkpt><trkpt lat="44.23148372631677" lon="11.420444652742972"><ele>659.0</ele><time>2026-04-12T09:49:52.998Z</time></trkpt><trkpt lat="44.23145634492762" lon="11.420615224327955"><ele>659.0</ele><time>2026-04-12T09:49:54.998Z</time></trkpt><trkpt lat="44.23142868612693" lon="11.420697550771619"><ele>657.5</ele><time>2026-04-12T09:49:55.998Z</time></trkpt><trkpt lat="44.23136739184714" lon="11.420799733178793"><ele>656.0</ele><time>2026-04-12T09:49:56.998Z</time></trkpt><trkpt lat="44.231326171204785" lon="11.420916168720538"><ele>654.5</ele><time>2026-04-12T09:49:57.998Z</time></trkpt><trkpt lat="44.23127861807455" lon="11.420995837778236"><ele>653.0</ele><time>2026-04-12T09:49:58.998Z</time></trkpt><trkpt lat="44.23124311507115" lon="11.421075826735748"><ele>651.5</ele><time>2026-04-12T09:49:59.998Z</time></trkpt><trkpt lat="44.23121313409989" lon="11.421154696689294"><ele>650.0</ele><time>2026-04-12T09:50:00.998Z</time></trkpt><trkpt lat="44.231188306656534" lon="11.4212373309806"><ele>651.4</ele><time>2026-04-12T09:50:01.998Z</time></trkpt><trkpt lat="44.2311381343216" lon="11.421388951324627"><ele>652.8</ele><time>2026-04-12T09:50:03.998Z</time></trkpt><trkpt lat="44.231094659989665" lon="11.421471551479252"><ele>654.2</ele><time>2026-04-12T09:50:04.998Z</time></trkpt><trkpt lat="44.23102567753249" lon="11.421557542006205"><ele>655.6</ele><time>2026-04-12T09:50:05.998Z</time></trkpt><trkpt lat="44.23095258014545" lon="11.421643072774183"><ele>657.0</ele><time>2026-04-12T09:50:06.998Z</time></trkpt><trkpt lat="44.23089353534837" lon="11.421700566799402"><ele>657.0</ele><time>2026-04-12T09:50:07.998Z</time></trkpt><trkpt lat="44.23083777701236" lon="11.42174343852198"><ele>657.0</ele><time>2026-04-12T09:50:08.998Z</time></trkpt><trkpt lat="44.23073655716102" lon="11.421807196578191"><ele>657.0</ele><time>2026-04-12T09:50:11Z</time></trkpt><trkpt lat="44.23064334969451" lon="11.421872493103843"><ele>657.0</ele><time>2026-04-12T09:50:13Z</time></trkpt><trkpt lat="44.23054333087502" lon="11.421967385818977"><ele>657.0</ele><time>2026-04-12T09:50:15Z</time></trkpt><trkpt lat="44.23048841214876" lon="11.422046596236"><ele>654.2</ele><time>2026-04-12T09:50:16Z</time></trkpt><trkpt lat="44.23045213233059" lon="11.42212658999753"><ele>651.4000000000001</ele><time>2026-04-12T09:50:17Z</time></trkpt><trkpt lat="44.23040673945534" lon="11.422279349520034"><ele>648.5999999999999</ele><time>2026-04-12T09:50:19Z</time></trkpt><trkpt lat="44.23040234444963" lon="11.422456203369112"><ele>645.8</ele><time>2026-04-12T09:50:21Z</time></trkpt><trkpt lat="44.23041156241288" lon="11.422569445311307"><ele>643.0</ele><time>2026-04-12T09:50:22Z</time></trkpt><trkpt lat="44.23041990548426" lon="11.422716609656943"><ele>643.0</ele><time>2026-04-12T09:50:23Z</time></trkpt><trkpt lat="44.230434800072246" lon="11.422834117957496"><ele>643.0</ele><time>2026-04-12T09:50:24Z</time></trkpt><trkpt lat="44.230451184787164" lon="11.422939042654361"><ele>643.0</ele><time>2026-04-12T09:50:25Z</time></trkpt><trkpt lat="44.23045662970658" lon="11.423036023584544"><ele>643.0</ele><time>2026-04-12T09:50:26Z</time></trkpt><trkpt lat="44.230463582607044" lon="11.423124661044149"><ele>643.0</ele><time>2026-04-12T09:50:27Z</time></trkpt><trkpt lat="44.23047046383491" lon="11.423216546003857"><ele>643.0</ele><time>2026-04-12T09:50:28Z</time></trkpt><trkpt lat="44.230473599663085" lon="11.423307098233202"><ele>643.0</ele><time>2026-04-12T09:50:29Z</time></trkpt><trkpt lat="44.23045436321741" lon="11.423467989815647"><ele>643.0</ele><time>2026-04-12T09:50:31Z</time></trkpt><trkpt lat="44.2304383393198" lon="11.423555261239622"><ele>643.0</ele><time>2026-04-12T09:50:32Z</time></trkpt><trkpt lat="44.230404291512365" lon="11.423648855118653"><ele>643.0</ele><time>2026-04-12T09:50:33Z</time></trkpt><trkpt lat="44.23034371770306" lon="11.42372342864461"><ele>643.0</ele><time>2026-04-12T09:50:34Z</time></trkpt><trkpt lat="44.23030217727667" lon="11.423791653228783"><ele>643.0</ele><time>2026-04-12T09:50:35Z</time></trkpt><trkpt lat="44.23024197251413" lon="11.423852575044776"><ele>643.0</ele><time>2026-04-12T09:50:36Z</time></trkpt><trkpt lat="44.2301761975612" lon="11.423912758229575"><ele>643.0</ele><time>2026-04-12T09:50:37Z</time></trkpt><trkpt lat="44.23012739892006" lon="11.42397447211533"><ele>644.5</ele><time>2026-04-12T09:50:38Z</time></trkpt><trkpt lat="44.23002557263031" lon="11.424068418045703"><ele>646.0</ele><time>2026-04-12T09:50:40Z</time></trkpt><trkpt lat="44.22992617355235" lon="11.424168554009812"><ele>647.5</ele><time>2026-04-12T09:50:42Z</time></trkpt><trkpt lat="44.22987573198777" lon="11.424224163010253"><ele>649.0</ele><time>2026-04-12T09:50:43Z</time></trkpt><trkpt lat="44.22982706348372" lon="11.424283209303798"><ele>650.5</ele><time>2026-04-12T09:50:44Z</time></trkpt><trkpt lat="44.22978140298897" lon="11.424360911886358"><ele>652.0</ele><time>2026-04-12T09:50:45Z</time></trkpt><trkpt lat="44.22974386575424" lon="11.42444915015668"><ele>649.2857142857143</ele><time>2026-04-12T09:50:46Z</time></trkpt><trkpt lat="44.22972078358729" lon="11.42454265988328"><ele>646.5714285714286</ele><time>2026-04-12T09:50:47Z</time></trkpt><trkpt lat="44.22969989048806" lon="11.424633154921167"><ele>643.8571428571429</ele><time>2026-04-12T09:50:48Z</time></trkpt><trkpt lat="44.22968358961721" lon="11.424726685079317"><ele>641.1428571428571</ele><time>2026-04-12T09:50:49Z</time></trkpt><trkpt lat="44.22967001747224" lon="11.424826030653934"><ele>638.4285714285714</ele><time>2026-04-12T09:50:50Z</time></trkpt><trkpt lat="44.229656837602924" lon="11.424928839976804"><ele>635.7142857142857</ele><time>2026-04-12T09:50:51Z</time></trkpt><trkpt lat="44.22963636735168" lon="11.42502588648686"><ele>633.0</ele><time>2026-04-12T09:50:52Z</time></trkpt><trkpt lat="44.229608690201076" lon="11.425111296519194"><ele>633.0</ele><time>2026-04-12T09:50:53Z</time></trkpt><trkpt lat="44.22958143472139" lon="11.42520281350174"><ele>633.0</ele><time>2026-04-12T09:50:54Z</time></trkpt><trkpt lat="44.22955057195116" lon="11.42532454335373"><ele>633.0</ele><time>2026-04-12T09:50:55Z</time></trkpt><trkpt lat="44.22951822264581" lon="11.425454521837654"><ele>633.0</ele><time>2026-04-12T09:50:56Z</time></trkpt><trkpt lat="44.22948906202081" lon="11.425572665642385"><ele>633.0</ele><time>2026-04-12T09:50:56.999Z</time></trkpt><trkpt lat="44.22946541589397" lon="11.425673247153556"><ele>633.0</ele><time>2026-04-12T09:50:57.999Z</time></trkpt><trkpt lat="44.229446685060495" lon="11.425765749014039"><ele>633.0</ele><time>2026-04-12T09:50:58.999Z</time></trkpt><trkpt lat="44.22942851701228" lon="11.425852082523868"><ele>633.0</ele><time>2026-04-12T09:50:59.999Z</time></trkpt><trkpt lat="44.22938484508783" lon="11.42604769791259"><ele>633.0</ele><time>2026-04-12T09:51:01.999Z</time></trkpt><trkpt lat="44.2293535991744" lon="11.426188353801315"><ele>633.0</ele><time>2026-04-12T09:51:02.999Z</time></trkpt><trkpt lat="44.22933172091307" lon="11.426300760046006"><ele>633.0</ele><time>2026-04-12T09:51:03.999Z</time></trkpt><trkpt lat="44.229306512251775" lon="11.426400083098319"><ele>633.1999999999999</ele><time>2026-04-12T09:51:04.999Z</time></trkpt><trkpt lat="44.229282935490886" lon="11.426492296800689"><ele>633.4</ele><time>2026-04-12T09:51:05.999Z</time></trkpt><trkpt lat="44.22925514237297" lon="11.42657121717133"><ele>633.5999999999999</ele><time>2026-04-12T09:51:06.999Z</time></trkpt><trkpt lat="44.229188971284096" lon="11.426696342603625"><ele>633.8</ele><time>2026-04-12T09:51:08.999Z</time></trkpt><trkpt lat="44.22914410501806" lon="11.426813729926888"><ele>634.0</ele><time>2026-04-12T09:51:10.999Z</time></trkpt><trkpt lat="44.22908125905251" lon="11.42694096492961"><ele>634.0</ele><time>2026-04-12T09:51:12.999Z</time></trkpt><trkpt lat="44.22904862055766" lon="11.427035332852439"><ele>634.0</ele><time>2026-04-12T09:51:13.999Z</time></trkpt><trkpt lat="44.2289602677348" lon="11.42709243308658"><ele>634.0</ele><time>2026-04-12T09:51:14.999Z</time></trkpt><trkpt lat="44.228872982201025" lon="11.427132415458065"><ele>634.0</ele><time>2026-04-12T09:51:15.999Z</time></trkpt><trkpt lat="44.2287782342397" lon="11.427185038013466"><ele>634.0</ele><time>2026-04-12T09:51:16.999Z</time></trkpt><trkpt lat="44.228696244508235" lon="11.427229002478773"><ele>632.8333333333334</ele><time>2026-04-12T09:51:17.999Z</time></trkpt><trkpt lat="44.228625552595446" lon="11.427259899054242"><ele>631.6666666666667</ele><time>2026-04-12T09:51:18.999Z</time></trkpt><trkpt lat="44.228557948712954" lon="11.42728189080962"><ele>630.5</ele><time>2026-04-12T09:51:19.999Z</time></trkpt><trkpt lat="44.22849279948576" lon="11.427291506093436"><ele>629.3333333333334</ele><time>2026-04-12T09:51:20.999Z</time></trkpt><trkpt lat="44.22837770246888" lon="11.42731311814977"><ele>628.1666666666666</ele><time>2026-04-12T09:51:22.999Z</time></trkpt><trkpt lat="44.22828374056081" lon="11.427392117445342"><ele>627.0</ele><time>2026-04-12T09:51:24.999Z</time></trkpt><trkpt lat="44.228190469255104" lon="11.42746836404885"><ele>624.2</ele><time>2026-04-12T09:51:26.999Z</time></trkpt><trkpt lat="44.228089423422205" lon="11.42753610726621"><ele>621.4000000000001</ele><time>2026-04-12T09:51:28.999Z</time></trkpt><trkpt lat="44.22801623373823" lon="11.427640491298208"><ele>618.5999999999999</ele><time>2026-04-12T09:51:30.999Z</time></trkpt><trkpt lat="44.227936933835345" lon="11.4277226003771"><ele>615.8</ele><time>2026-04-12T09:51:32.999Z</time></trkpt><trkpt lat="44.227855743777475" lon="11.427809279741622"><ele>613.0</ele><time>2026-04-12T09:51:34.999Z</time></trkpt><trkpt lat="44.227801024286094" lon="11.427866427018978"><ele>613.0</ele><time>2026-04-12T09:51:35.999Z</time></trkpt><trkpt lat="44.22774158586212" lon="11.427924735126668"><ele>613.0</ele><time>2026-04-12T09:51:36.999Z</time></trkpt><trkpt lat="44.22768527516141" lon="11.42798271950703"><ele>613.0</ele><time>2026-04-12T09:51:37.999Z</time></trkpt><trkpt lat="44.22762965502782" lon="11.428041549151827"><ele>613.0</ele><time>2026-04-12T09:51:38.999Z</time></trkpt><trkpt lat="44.22757136078003" lon="11.428094127041241"><ele>613.0</ele><time>2026-04-12T09:51:39.999Z</time></trkpt><trkpt lat="44.22752067088995" lon="11.428161259360579"><ele>613.0</ele><time>2026-04-12T09:51:40.999Z</time></trkpt><trkpt lat="44.22748203283831" lon="11.428234510722879"><ele>613.0</ele><time>2026-04-12T09:51:41.999Z</time></trkpt><trkpt lat="44.22740924942198" lon="11.428367561574932"><ele>613.8</ele><time>2026-04-12T09:51:43.999Z</time></trkpt><trkpt lat="44.22734192841083" lon="11.428503618971076"><ele>614.5999999999999</ele><time>2026-04-12T09:51:45.999Z</time></trkpt><trkpt lat="44.227298527757526" lon="11.428650873599528"><ele>615.4000000000001</ele><time>2026-04-12T09:51:47.999Z</time></trkpt><trkpt lat="44.22727311615383" lon="11.428825734164334"><ele>616.2</ele><time>2026-04-12T09:51:49.999Z</time></trkpt><trkpt lat="44.227262211846046" lon="11.428932637781179"><ele>617.0</ele><time>2026-04-12T09:51:50.999Z</time></trkpt><trkpt lat="44.22725300541432" lon="11.429051492771583"><ele>614.1666666666666</ele><time>2026-04-12T09:51:51.998Z</time></trkpt><trkpt lat="44.227240370742976" lon="11.429149905232995"><ele>611.3333333333333</ele><time>2026-04-12T09:51:52.998Z</time></trkpt><trkpt lat="44.227216312714205" lon="11.429271594353304"><ele>608.5</ele><time>2026-04-12T09:51:53.998Z</time></trkpt><trkpt lat="44.22718593583877" lon="11.42939558851105"><ele>605.6666666666666</ele><time>2026-04-12T09:51:54.998Z</time></trkpt><trkpt lat="44.227150077699704" lon="11.429515892741504"><ele>602.8333333333334</ele><time>2026-04-12T09:51:55.998Z</time></trkpt><trkpt lat="44.22711622546054" lon="11.429619098066631"><ele>600.0</ele><time>2026-04-12T09:51:56.998Z</time></trkpt><trkpt lat="44.22708403864489" lon="11.429717930890316"><ele>600.0</ele><time>2026-04-12T09:51:57.998Z</time></trkpt><trkpt lat="44.22704883416226" lon="11.42981875112503"><ele>600.0</ele><time>2026-04-12T09:51:58.998Z</time></trkpt><trkpt lat="44.226999174461106" lon="11.429887930407734"><ele>600.0</ele><time>2026-04-12T09:51:59.998Z</time></trkpt><trkpt lat="44.226963649524166" lon="11.429963373009292"><ele>600.0</ele><time>2026-04-12T09:52:00.998Z</time></trkpt><trkpt lat="44.22692414442497" lon="11.430039445768427"><ele>600.0</ele><time>2026-04-12T09:52:01.998Z</time></trkpt><trkpt lat="44.22686806721142" lon="11.430148523031372"><ele>600.0</ele><time>2026-04-12T09:52:02.998Z</time></trkpt><trkpt lat="44.226819694109615" lon="11.430270781377114"><ele>600.0</ele><time>2026-04-12T09:52:03.998Z</time></trkpt><trkpt lat="44.226765001902116" lon="11.430366031183851"><ele>600.0</ele><time>2026-04-12T09:52:04.998Z</time></trkpt><trkpt lat="44.226713004059356" lon="11.43045314733165"><ele>600.0</ele><time>2026-04-12T09:52:05.998Z</time></trkpt><trkpt lat="44.22666623162907" lon="11.43053356196273"><ele>600.0</ele><time>2026-04-12T09:52:06.998Z</time></trkpt><trkpt lat="44.22661386497997" lon="11.430610374471149"><ele>600.0</ele><time>2026-04-12T09:52:07.998Z</time></trkpt><trkpt lat="44.226561719975855" lon="11.430677005706809"><ele>600.0</ele><time>2026-04-12T09:52:08.998Z</time></trkpt><trkpt lat="44.226508714541076" lon="11.430735297848525"><ele>597.8333333333334</ele><time>2026-04-12T09:52:09.998Z</time></trkpt><trkpt lat="44.22645347945856" lon="11.430817791947566"><ele>595.6666666666666</ele><time>2026-04-12T09:52:10.998Z</time></trkpt><trkpt lat="44.226384675462256" lon="11.43092083877737"><ele>593.5</ele><time>2026-04-12T09:52:11.998Z</time></trkpt><trkpt lat="44.22632257243438" lon="11.431015615053914"><ele>591.3333333333333</ele><time>2026-04-12T09:52:12.998Z</time></trkpt><trkpt lat="44.22625831487659" lon="11.431102407349902"><ele>589.1666666666666</ele><time>2026-04-12T09:52:13.998Z</time></trkpt><trkpt lat="44.22620469733093" lon="11.431190509301379"><ele>587.0</ele><time>2026-04-12T09:52:14.998Z</time></trkpt><trkpt lat="44.22615992589626" lon="11.431272772563448"><ele>587.5</ele><time>2026-04-12T09:52:16Z</time></trkpt><trkpt lat="44.22608797697283" lon="11.431407814126475"><ele>588.0</ele><time>2026-04-12T09:52:18Z</time></trkpt><trkpt lat="44.225987815378964" lon="11.431492841114359"><ele>588.5</ele><time>2026-04-12T09:52:20Z</time></trkpt><trkpt lat="44.225904210924796" lon="11.431576407645132"><ele>589.0</ele><time>2026-04-12T09:52:22Z</time></trkpt><trkpt lat="44.22578808268913" lon="11.431690957223012"><ele>589.0</ele><time>2026-04-12T09:52:24Z</time></trkpt><trkpt lat="44.22569567426412" lon="11.431777087807792"><ele>589.0</ele><time>2026-04-12T09:52:25Z</time></trkpt><trkpt lat="44.225591467179186" lon="11.431856530723564"><ele>589.0</ele><time>2026-04-12T09:52:26Z</time></trkpt><trkpt lat="44.22549579534215" lon="11.431907948023861"><ele>589.0</ele><time>2026-04-12T09:52:27Z</time></trkpt><trkpt lat="44.22540103175567" lon="11.431950592726666"><ele>589.0</ele><time>2026-04-12T09:52:28Z</time></trkpt><trkpt lat="44.225323622925416" lon="11.432016634411902"><ele>588.4</ele><time>2026-04-12T09:52:29Z</time></trkpt><trkpt lat="44.22524110600179" lon="11.432061726534668"><ele>587.8</ele><time>2026-04-12T09:52:30Z</time></trkpt><trkpt lat="44.2251438965976" lon="11.432148290900447"><ele>587.2</ele><time>2026-04-12T09:52:31Z</time></trkpt><trkpt lat="44.22504636687032" lon="11.432250952108555"><ele>586.6</ele><time>2026-04-12T09:52:32Z</time></trkpt><trkpt lat="44.22496919029921" lon="11.43232586874256"><ele>586.0</ele><time>2026-04-12T09:52:33Z</time></trkpt><trkpt lat="44.22489605134803" lon="11.432392154714698"><ele>586.0</ele><time>2026-04-12T09:52:34Z</time></trkpt><trkpt lat="44.2248372548362" lon="11.43244251364629"><ele>586.0</ele><time>2026-04-12T09:52:35Z</time></trkpt><trkpt lat="44.224782025469736" lon="11.432497027403784"><ele>586.0</ele><time>2026-04-12T09:52:36Z</time></trkpt><trkpt lat="44.22469413056538" lon="11.432622440579467"><ele>586.0</ele><time>2026-04-12T09:52:38Z</time></trkpt><trkpt lat="44.224656850168024" lon="11.432705518384788"><ele>586.0</ele><time>2026-04-12T09:52:39Z</time></trkpt><trkpt lat="44.22462752068178" lon="11.432793091617283"><ele>586.0</ele><time>2026-04-12T09:52:40Z</time></trkpt><trkpt lat="44.2246006607966" lon="11.432889534322955"><ele>584.6</ele><time>2026-04-12T09:52:41Z</time></trkpt><trkpt lat="44.22457951611626" lon="11.43298143782287"><ele>583.2</ele><time>2026-04-12T09:52:42Z</time></trkpt><trkpt lat="44.22456199414724" lon="11.433068617499124"><ele>581.8</ele><time>2026-04-12T09:52:43Z</time></trkpt><trkpt lat="44.22455760593684" lon="11.433232220841722"><ele>580.4</ele><time>2026-04-12T09:52:45Z</time></trkpt><trkpt lat="44.224581265146874" lon="11.433380216111518"><ele>579.0</ele><time>2026-04-12T09:52:47Z</time></trkpt><trkpt lat="44.22457465237047" lon="11.433527978594533"><ele>579.0</ele><time>2026-04-12T09:52:49Z</time></trkpt><trkpt lat="44.22454233447775" lon="11.433645620171285"><ele>579.0</ele><time>2026-04-12T09:52:51Z</time></trkpt><trkpt lat="44.22444616899828" lon="11.433682664275763"><ele>579.0</ele><time>2026-04-12T09:52:53Z</time></trkpt><trkpt lat="44.22436221345219" lon="11.4336585416701"><ele>579.0</ele><time>2026-04-12T09:52:55Z</time></trkpt><trkpt lat="44.224283349413156" lon="11.43359429134817"><ele>579.0</ele><time>2026-04-12T09:52:57Z</time></trkpt><trkpt lat="44.22418744349981" lon="11.433589030792229"><ele>579.0</ele><time>2026-04-12T09:52:59Z</time></trkpt><trkpt lat="44.22409608322895" lon="11.433669509361838"><ele>579.0</ele><time>2026-04-12T09:53:01Z</time></trkpt><trkpt lat="44.22400203026087" lon="11.433695721752056"><ele>579.0</ele><time>2026-04-12T09:53:02.999Z</time></trkpt><trkpt lat="44.22393629419318" lon="11.433621451310618"><ele>579.0</ele><time>2026-04-12T09:53:04.999Z</time></trkpt><trkpt lat="44.22394826370581" lon="11.433498590484527"><ele>579.0</ele><time>2026-04-12T09:53:06.999Z</time></trkpt><trkpt lat="44.22398433527466" lon="11.433378679484212"><ele>579.0</ele><time>2026-04-12T09:53:08.999Z</time></trkpt><trkpt lat="44.22401197197703" lon="11.43322391806369"><ele>579.0</ele><time>2026-04-12T09:53:10.999Z</time></trkpt><trkpt lat="44.22402623825388" lon="11.433134699396383"><ele>579.0</ele><time>2026-04-12T09:53:11.999Z</time></trkpt><trkpt lat="44.224031537512815" lon="11.432982758244359"><ele>579.0</ele><time>2026-04-12T09:53:13.999Z</time></trkpt><trkpt lat="44.224016824993896" lon="11.432823407946218"><ele>579.0</ele><time>2026-04-12T09:53:15.999Z</time></trkpt><trkpt lat="44.22398990069443" lon="11.432667393946634"><ele>574.6666666666666</ele><time>2026-04-12T09:53:17.999Z</time></trkpt><trkpt lat="44.22393661439354" lon="11.43252364671086"><ele>570.3333333333334</ele><time>2026-04-12T09:53:19.999Z</time></trkpt><trkpt lat="44.22389157012426" lon="11.432368395040871"><ele>566.0</ele><time>2026-04-12T09:53:21.999Z</time></trkpt><trkpt lat="44.22389753985702" lon="11.432278762345778"><ele>561.6666666666667</ele><time>2026-04-12T09:53:22.999Z</time></trkpt><trkpt lat="44.2238920456262" lon="11.432187061020828"><ele>557.3333333333334</ele><time>2026-04-12T09:53:23.999Z</time></trkpt><trkpt lat="44.22388579316941" lon="11.432088908901028"><ele>553.0</ele><time>2026-04-12T09:53:24.999Z</time></trkpt><trkpt lat="44.2238709064369" lon="11.43199612513841"><ele>552.3333333333334</ele><time>2026-04-12T09:53:25.999Z</time></trkpt><trkpt lat="44.22386498203059" lon="11.431899270717151"><ele>551.6666666666667</ele><time>2026-04-12T09:53:26.999Z</time></trkpt><trkpt lat="44.223859858505534" lon="11.431806389684398"><ele>551.0</ele><time>2026-04-12T09:53:27.999Z</time></trkpt><trkpt lat="44.22387522395756" lon="11.431718119692704"><ele>550.3333333333334</ele><time>2026-04-12T09:53:28.999Z</time></trkpt><trkpt lat="44.22385840825572" lon="11.431628452194216"><ele>549.6666666666666</ele><time>2026-04-12T09:53:29.999Z</time></trkpt><trkpt lat="44.2238589144831" lon="11.431466239658334"><ele>549.0</ele><time>2026-04-12T09:53:31.999Z</time></trkpt><trkpt lat="44.223857205053996" lon="11.431313797919977"><ele>547.8</ele><time>2026-04-12T09:53:33.999Z</time></trkpt><trkpt lat="44.22384825321378" lon="11.431165744660216"><ele>546.5999999999999</ele><time>2026-04-12T09:53:35.999Z</time></trkpt><trkpt lat="44.22383666216769" lon="11.431032421620076"><ele>545.4</ele><time>2026-04-12T09:53:37.999Z</time></trkpt><trkpt lat="44.2238160263584" lon="11.430876414935621"><ele>544.1999999999999</ele><time>2026-04-12T09:53:39.999Z</time></trkpt><trkpt lat="44.223802355150106" lon="11.430784151037672"><ele>543.0</ele><time>2026-04-12T09:53:40.999Z</time></trkpt><trkpt lat="44.223776289206484" lon="11.430612661910006"><ele>541.5</ele><time>2026-04-12T09:53:42.999Z</time></trkpt><trkpt lat="44.22375959965561" lon="11.430441627213092"><ele>540.0</ele><time>2026-04-12T09:53:44.999Z</time></trkpt><trkpt lat="44.2237270013945" lon="11.430271608322125"><ele>538.5</ele><time>2026-04-12T09:53:46.999Z</time></trkpt><trkpt lat="44.223696855532964" lon="11.43011893359142"><ele>537.0</ele><time>2026-04-12T09:53:48.999Z</time></trkpt><trkpt lat="44.223687730314424" lon="11.42997259077252"><ele>537.0</ele><time>2026-04-12T09:53:50.999Z</time></trkpt><trkpt lat="44.22367211316749" lon="11.429818726812302"><ele>537.0</ele><time>2026-04-12T09:53:52.999Z</time></trkpt><trkpt lat="44.22365344604868" lon="11.429656617431707"><ele>537.0</ele><time>2026-04-12T09:53:54.999Z</time></trkpt><trkpt lat="44.2236411587674" lon="11.429566801014944"><ele>537.0</ele><time>2026-04-12T09:53:55.999Z</time></trkpt><trkpt lat="44.223595659059065" lon="11.429408484846354"><ele>537.0</ele><time>2026-04-12T09:53:57.998Z</time></trkpt><trkpt lat="44.22355486479963" lon="11.42926380718063"><ele>535.8000000000001</ele><time>2026-04-12T09:53:59.998Z</time></trkpt><trkpt lat="44.22353578227283" lon="11.429123701350646"><ele>534.6</ele><time>2026-04-12T09:54:01.998Z</time></trkpt><trkpt lat="44.22354909544051" lon="11.428967083940098"><ele>533.4000000000001</ele><time>2026-04-12T09:54:03.998Z</time></trkpt><trkpt lat="44.22358559881527" lon="11.428806713310713"><ele>532.2</ele><time>2026-04-12T09:54:05.998Z</time></trkpt><trkpt lat="44.223598692572196" lon="11.428714622090068"><ele>531.0</ele><time>2026-04-12T09:54:06.998Z</time></trkpt><trkpt lat="44.223593630942595" lon="11.428539768887617"><ele>529.4</ele><time>2026-04-12T09:54:08.998Z</time></trkpt><trkpt lat="44.22359919615087" lon="11.428366154214142"><ele>527.8</ele><time>2026-04-12T09:54:10.998Z</time></trkpt><trkpt lat="44.22364018890911" lon="11.428290298566571"><ele>526.1999999999999</ele><time>2026-04-12T09:54:11.998Z</time></trkpt><trkpt lat="44.22368552920715" lon="11.428131495320109"><ele>524.6</ele><time>2026-04-12T09:54:13.998Z</time></trkpt><trkpt lat="44.22375258807928" lon="11.427998027008682"><ele>523.0</ele><time>2026-04-12T09:54:15.998Z</time></trkpt><trkpt lat="44.22378276664957" lon="11.427910672118903"><ele>521.4</ele><time>2026-04-12T09:54:16.998Z</time></trkpt><trkpt lat="44.22384759953799" lon="11.4277734549583"><ele>519.8</ele><time>2026-04-12T09:54:18.998Z</time></trkpt><trkpt lat="44.223900124555975" lon="11.427628988203985"><ele>518.2</ele><time>2026-04-12T09:54:20.998Z</time></trkpt><trkpt lat="44.22395158997756" lon="11.42751951014997"><ele>516.6</ele><time>2026-04-12T09:54:23Z</time></trkpt><trkpt lat="44.22394769137453" lon="11.427396364583041"><ele>515.0</ele><time>2026-04-12T09:54:25Z</time></trkpt><trkpt lat="44.223921261471425" lon="11.427214287617035"><ele>514.1428571428571</ele><time>2026-04-12T09:54:27Z</time></trkpt><trkpt lat="44.223897256624014" lon="11.427108569015852"><ele>513.2857142857142</ele><time>2026-04-12T09:54:28Z</time></trkpt><trkpt lat="44.22386590023231" lon="11.427011711812762"><ele>512.4285714285713</ele><time>2026-04-12T09:54:29Z</time></trkpt><trkpt lat="44.22382780506274" lon="11.426909381435939"><ele>511.57142857142856</ele><time>2026-04-12T09:54:30Z</time></trkpt><trkpt lat="44.22379632325771" lon="11.426823370416018"><ele>510.71428571428567</ele><time>2026-04-12T09:54:31Z</time></trkpt><trkpt lat="44.22376822467836" lon="11.42673165174552"><ele>509.8571428571428</ele><time>2026-04-12T09:54:32Z</time></trkpt><trkpt lat="44.223729165085516" lon="11.42666045721633"><ele>508.99999999999994</ele><time>2026-04-12T09:54:33Z</time></trkpt><trkpt lat="44.22369259051356" lon="11.426497624486684"><ele>509.0</ele><time>2026-04-12T09:54:35Z</time></trkpt><trkpt lat="44.22368345294066" lon="11.426339044675247"><ele>509.0</ele><time>2026-04-12T09:54:37Z</time></trkpt><trkpt lat="44.22372266610714" lon="11.426266221420418"><ele>509.0</ele><time>2026-04-12T09:54:38Z</time></trkpt><trkpt lat="44.223759432444425" lon="11.426081670261466"><ele>509.0</ele><time>2026-04-12T09:54:40Z</time></trkpt><trkpt lat="44.223784321772506" lon="11.425998177399038"><ele>509.0</ele><time>2026-04-12T09:54:41Z</time></trkpt><trkpt lat="44.223784575472756" lon="11.425843745174696"><ele>509.4</ele><time>2026-04-12T09:54:43Z</time></trkpt><trkpt lat="44.22375295380712" lon="11.425720452868578"><ele>509.79999999999995</ele><time>2026-04-12T09:54:45Z</time></trkpt><trkpt lat="44.22367602687597" lon="11.42560402803982"><ele>510.20000000000005</ele><time>2026-04-12T09:54:47Z</time></trkpt><trkpt lat="44.22360443730302" lon="11.425572209725997"><ele>510.6</ele><time>2026-04-12T09:54:48Z</time></trkpt><trkpt lat="44.223519366182" lon="11.425590024591829"><ele>511.0</ele><time>2026-04-12T09:54:49Z</time></trkpt><trkpt lat="44.223429339458484" lon="11.425611123829272"><ele>511.0</ele><time>2026-04-12T09:54:50Z</time></trkpt><trkpt lat="44.22333146895516" lon="11.425666507551112"><ele>511.0</ele><time>2026-04-12T09:54:51Z</time></trkpt><trkpt lat="44.22324602711471" lon="11.425694826397244"><ele>511.0</ele><time>2026-04-12T09:54:52Z</time></trkpt><trkpt lat="44.223168235806845" lon="11.425715781991244"><ele>511.0</ele><time>2026-04-12T09:54:53Z</time></trkpt><trkpt lat="44.22309087045736" lon="11.425703038333848"><ele>511.0</ele><time>2026-04-12T09:54:54Z</time></trkpt><trkpt lat="44.22298566164623" lon="11.425684726471014"><ele>510.0</ele><time>2026-04-12T09:54:55Z</time></trkpt><trkpt lat="44.222869393630546" lon="11.42562460845153"><ele>509.0</ele><time>2026-04-12T09:54:56Z</time></trkpt><trkpt lat="44.22275479493745" lon="11.42556338056715"><ele>508.0</ele><time>2026-04-12T09:54:57Z</time></trkpt><trkpt lat="44.22264860354009" lon="11.42550217940695"><ele>507.0</ele><time>2026-04-12T09:54:58Z</time></trkpt><trkpt lat="44.222553290304134" lon="11.425443498180414"><ele>507.0</ele><time>2026-04-12T09:54:59Z</time></trkpt><trkpt lat="44.22246688629058" lon="11.425394276318723"><ele>507.0</ele><time>2026-04-12T09:55:00Z</time></trkpt><trkpt lat="44.22239706418252" lon="11.425360009110998"><ele>507.0</ele><time>2026-04-12T09:55:01Z</time></trkpt><trkpt lat="44.222286224508004" lon="11.425379465874485"><ele>507.0</ele><time>2026-04-12T09:55:03Z</time></trkpt><trkpt lat="44.222215052727435" lon="11.425454993250755"><ele>507.0</ele><time>2026-04-12T09:55:04.999Z</time></trkpt><trkpt lat="44.22217061253789" lon="11.425522135877976"><ele>507.0</ele><time>2026-04-12T09:55:05.999Z</time></trkpt><trkpt lat="44.222132610936455" lon="11.425602407817768"><ele>507.0</ele><time>2026-04-12T09:55:06.999Z</time></trkpt><trkpt lat="44.22209815228807" lon="11.425689282483035"><ele>507.0</ele><time>2026-04-12T09:55:07.999Z</time></trkpt><trkpt lat="44.22206124205456" lon="11.425785399024672"><ele>507.0</ele><time>2026-04-12T09:55:08.999Z</time></trkpt><trkpt lat="44.22202170071437" lon="11.425879430534458"><ele>507.0</ele><time>2026-04-12T09:55:09.999Z</time></trkpt><trkpt lat="44.22198799999237" lon="11.425966559324321"><ele>507.0</ele><time>2026-04-12T09:55:10.999Z</time></trkpt><trkpt lat="44.22195422218899" lon="11.426046305208"><ele>507.0</ele><time>2026-04-12T09:55:11.999Z</time></trkpt><trkpt lat="44.22192416900136" lon="11.426125847998785"><ele>507.0</ele><time>2026-04-12T09:55:12.999Z</time></trkpt><trkpt lat="44.221890267136345" lon="11.426204659299298"><ele>505.20000000000005</ele><time>2026-04-12T09:55:13.999Z</time></trkpt><trkpt lat="44.22183480382678" lon="11.426353939198297"><ele>503.40000000000003</ele><time>2026-04-12T09:55:15.999Z</time></trkpt><trkpt lat="44.22179344016253" lon="11.426502213575581"><ele>501.59999999999997</ele><time>2026-04-12T09:55:17.999Z</time></trkpt><trkpt lat="44.2217492814567" lon="11.426633671740003"><ele>499.79999999999995</ele><time>2026-04-12T09:55:19.999Z</time></trkpt><trkpt lat="44.221675043782334" lon="11.426728170105717"><ele>498.0</ele><time>2026-04-12T09:55:21.999Z</time></trkpt><trkpt lat="44.22157958784209" lon="11.42678340542111"><ele>497.6666666666667</ele><time>2026-04-12T09:55:23.999Z</time></trkpt><trkpt lat="44.221456362317454" lon="11.42676004899477"><ele>497.33333333333337</ele><time>2026-04-12T09:55:25.999Z</time></trkpt><trkpt lat="44.22139185279829" lon="11.426747355588075"><ele>497.0</ele><time>2026-04-12T09:55:26.999Z</time></trkpt><trkpt lat="44.2213276052308" lon="11.426731514443889"><ele>496.6666666666667</ele><time>2026-04-12T09:55:27.999Z</time></trkpt><trkpt lat="44.22124094993179" lon="11.426727708011827"><ele>496.33333333333337</ele><time>2026-04-12T09:55:28.999Z</time></trkpt><trkpt lat="44.22115370429282" lon="11.426681364803363"><ele>496.0</ele><time>2026-04-12T09:55:29.999Z</time></trkpt><trkpt lat="44.22107063223185" lon="11.426672313467185"><ele>496.00000000000006</ele><time>2026-04-12T09:55:30.999Z</time></trkpt><trkpt lat="44.22100206045114" lon="11.426648237948728"><ele>496.0</ele><time>2026-04-12T09:55:31.999Z</time></trkpt><trkpt lat="44.220935212619466" lon="11.42664059527699"><ele>496.0</ele><time>2026-04-12T09:55:32.999Z</time></trkpt><trkpt lat="44.22087234735208" lon="11.426649186062383"><ele>496.0</ele><time>2026-04-12T09:55:33.999Z</time></trkpt><trkpt lat="44.220773423853714" lon="11.426726474230426"><ele>496.00000000000006</ele><time>2026-04-12T09:55:35.999Z</time></trkpt><trkpt lat="44.22071926520504" lon="11.426870225742642"><ele>496.0</ele><time>2026-04-12T09:55:37.999Z</time></trkpt><trkpt lat="44.22071335978863" lon="11.426973477586365"><ele>496.0</ele><time>2026-04-12T09:55:38.999Z</time></trkpt><trkpt lat="44.220717711225376" lon="11.427081324341568"><ele>496.0</ele><time>2026-04-12T09:55:39.999Z</time></trkpt><trkpt lat="44.22073317273001" lon="11.427243231538482"><ele>496.0</ele><time>2026-04-12T09:55:41.999Z</time></trkpt><trkpt lat="44.220773087265734" lon="11.427330144595812"><ele>496.0</ele><time>2026-04-12T09:55:42.999Z</time></trkpt><trkpt lat="44.2208452873894" lon="11.427463012735567"><ele>496.0</ele><time>2026-04-12T09:55:43.999Z</time></trkpt><trkpt lat="44.220932626846" lon="11.427631534889231"><ele>494.4</ele><time>2026-04-12T09:55:44.999Z</time></trkpt><trkpt lat="44.22100167819252" lon="11.427764972214826"><ele>492.8</ele><time>2026-04-12T09:55:45.999Z</time></trkpt><trkpt lat="44.2210523725856" lon="11.42786266707191"><ele>491.19999999999993</ele><time>2026-04-12T09:55:46.999Z</time></trkpt><trkpt lat="44.221095724288816" lon="11.42795711137808"><ele>489.59999999999997</ele><time>2026-04-12T09:55:47.999Z</time></trkpt><trkpt lat="44.221125531551074" lon="11.428046248238221"><ele>488.0</ele><time>2026-04-12T09:55:48.999Z</time></trkpt><trkpt lat="44.221091527476084" lon="11.428192854471083"><ele>487.0</ele><time>2026-04-12T09:55:50.999Z</time></trkpt><trkpt lat="44.22099887469006" lon="11.428375757310352"><ele>486.0</ele><time>2026-04-12T09:55:52.999Z</time></trkpt><trkpt lat="44.22091986128477" lon="11.428518824191055"><ele>485.0</ele><time>2026-04-12T09:55:53.999Z</time></trkpt><trkpt lat="44.22085738252519" lon="11.428631043316242"><ele>484.0</ele><time>2026-04-12T09:55:54.999Z</time></trkpt><trkpt lat="44.22080645555931" lon="11.42873264751361"><ele>484.00000000000006</ele><time>2026-04-12T09:55:55.999Z</time></trkpt><trkpt lat="44.220739172273646" lon="11.428793870449624"><ele>484.0</ele><time>2026-04-12T09:55:56.999Z</time></trkpt><trkpt lat="44.22067711567817" lon="11.428841838218643"><ele>484.0</ele><time>2026-04-12T09:55:57.999Z</time></trkpt><trkpt lat="44.220614182560226" lon="11.428891055688327"><ele>484.0</ele><time>2026-04-12T09:55:58.998Z</time></trkpt><trkpt lat="44.22054468515412" lon="11.428867922702443"><ele>484.00000000000006</ele><time>2026-04-12T09:55:59.998Z</time></trkpt><trkpt lat="44.22046589645382" lon="11.428849789119278"><ele>484.0</ele><time>2026-04-12T09:56:00.998Z</time></trkpt><trkpt lat="44.22035884778484" lon="11.428826520036395"><ele>483.6</ele><time>2026-04-12T09:56:01.998Z</time></trkpt><trkpt lat="44.22022942274327" lon="11.428793870969512"><ele>483.2</ele><time>2026-04-12T09:56:02.998Z</time></trkpt><trkpt lat="44.22012182937027" lon="11.428762831529825"><ele>482.80000000000007</ele><time>2026-04-12T09:56:03.998Z</time></trkpt><trkpt lat="44.220027529014025" lon="11.428769129256809"><ele>482.40000000000003</ele><time>2026-04-12T09:56:04.998Z</time></trkpt><trkpt lat="44.21995159684132" lon="11.428754559382483"><ele>482.0</ele><time>2026-04-12T09:56:05.998Z</time></trkpt><trkpt lat="44.21988209115887" lon="11.428765627159747"><ele>480.20000000000005</ele><time>2026-04-12T09:56:06.998Z</time></trkpt><trkpt lat="44.21979176022277" lon="11.428812161674454"><ele>478.40000000000003</ele><time>2026-04-12T09:56:07.998Z</time></trkpt><trkpt lat="44.21967005536215" lon="11.428863490572086"><ele>476.59999999999997</ele><time>2026-04-12T09:56:08.998Z</time></trkpt><trkpt lat="44.219572319669396" lon="11.4289440712665"><ele>474.79999999999995</ele><time>2026-04-12T09:56:09.998Z</time></trkpt><trkpt lat="44.21948008553119" lon="11.428980415794879"><ele>473.0</ele><time>2026-04-12T09:56:10.998Z</time></trkpt><trkpt lat="44.21940257925126" lon="11.429022110695598"><ele>473.0</ele><time>2026-04-12T09:56:11.998Z</time></trkpt><trkpt lat="44.219321486188164" lon="11.429080182792912"><ele>472.99999999999994</ele><time>2026-04-12T09:56:12.998Z</time></trkpt><trkpt lat="44.21925072744902" lon="11.429160773556381"><ele>472.99999999999994</ele><time>2026-04-12T09:56:13.998Z</time></trkpt><trkpt lat="44.21917958333189" lon="11.429270909890022"><ele>473.0</ele><time>2026-04-12T09:56:14.998Z</time></trkpt><trkpt lat="44.219114159265075" lon="11.429386326763522"><ele>473.0</ele><time>2026-04-12T09:56:15.998Z</time></trkpt><trkpt lat="44.21905629114571" lon="11.429487262511318"><ele>472.99999999999994</ele><time>2026-04-12T09:56:16.998Z</time></trkpt><trkpt lat="44.21899692858155" lon="11.429578498706512"><ele>473.0</ele><time>2026-04-12T09:56:17.998Z</time></trkpt><trkpt lat="44.21894230041536" lon="11.429649559222424"><ele>473.0</ele><time>2026-04-12T09:56:18.998Z</time></trkpt><trkpt lat="44.218869375908085" lon="11.429685581182625"><ele>473.0</ele><time>2026-04-12T09:56:19.998Z</time></trkpt><trkpt lat="44.218818798815725" lon="11.429744295428819"><ele>472.99999999999994</ele><time>2026-04-12T09:56:20.998Z</time></trkpt><trkpt lat="44.21875057663615" lon="11.42975393412783"><ele>473.0</ele><time>2026-04-12T09:56:21.998Z</time></trkpt><trkpt lat="44.21864428582326" lon="11.429779086609551"><ele>471.8333333333333</ele><time>2026-04-12T09:56:23.998Z</time></trkpt><trkpt lat="44.2185395567071" lon="11.429809834042045"><ele>470.66666666666663</ele><time>2026-04-12T09:56:25.998Z</time></trkpt><trkpt lat="44.21847176131051" lon="11.429807223614297"><ele>469.5</ele><time>2026-04-12T09:56:26.998Z</time></trkpt><trkpt lat="44.21839870058294" lon="11.429803498082789"><ele>468.33333333333337</ele><time>2026-04-12T09:56:28Z</time></trkpt><trkpt lat="44.218324992902176" lon="11.429801345278609"><ele>467.1666666666667</ele><time>2026-04-12T09:56:29Z</time></trkpt><trkpt lat="44.218236899376734" lon="11.429794435988473"><ele>466.0</ele><time>2026-04-12T09:56:30Z</time></trkpt><trkpt lat="44.21814756205717" lon="11.429779911518406"><ele>465.50000000000006</ele><time>2026-04-12T09:56:31Z</time></trkpt><trkpt lat="44.21805828683104" lon="11.429761504274104"><ele>465.0</ele><time>2026-04-12T09:56:32Z</time></trkpt><trkpt lat="44.21797586727898" lon="11.42974921458949"><ele>464.5</ele><time>2026-04-12T09:56:33Z</time></trkpt><trkpt lat="44.21789880915315" lon="11.429741485117777"><ele>464.0</ele><time>2026-04-12T09:56:34Z</time></trkpt><trkpt lat="44.217825720807916" lon="11.429744423526316"><ele>463.50000000000006</ele><time>2026-04-12T09:56:35Z</time></trkpt><trkpt lat="44.21775814638086" lon="11.42975846649589"><ele>463.0</ele><time>2026-04-12T09:56:36Z</time></trkpt><trkpt lat="44.21768952520378" lon="11.429756484410811"><ele>463.0</ele><time>2026-04-12T09:56:37Z</time></trkpt><trkpt lat="44.21762634095805" lon="11.429777525782304"><ele>462.99999999999994</ele><time>2026-04-12T09:56:38Z</time></trkpt><trkpt lat="44.21756007190889" lon="11.429805513494768"><ele>463.0</ele><time>2026-04-12T09:56:39Z</time></trkpt><trkpt lat="44.21749809783604" lon="11.429844962702289"><ele>463.0</ele><time>2026-04-12T09:56:40Z</time></trkpt><trkpt lat="44.21744864257923" lon="11.429919222722672"><ele>462.99999999999994</ele><time>2026-04-12T09:56:41Z</time></trkpt><trkpt lat="44.21738745359564" lon="11.42997620537067"><ele>463.0</ele><time>2026-04-12T09:56:42Z</time></trkpt><trkpt lat="44.217335053610626" lon="11.430032136804392"><ele>463.0</ele><time>2026-04-12T09:56:43Z</time></trkpt><trkpt lat="44.21728248845501" lon="11.430084143851722"><ele>463.83333333333337</ele><time>2026-04-12T09:56:44Z</time></trkpt><trkpt lat="44.2172233778178" lon="11.430116124185215"><ele>464.6666666666667</ele><time>2026-04-12T09:56:45Z</time></trkpt><trkpt lat="44.217191305612204" lon="11.430196013233715"><ele>465.5</ele><time>2026-04-12T09:56:46Z</time></trkpt><trkpt lat="44.21713297234168" lon="11.430341889392992"><ele>466.33333333333337</ele><time>2026-04-12T09:56:48Z</time></trkpt><trkpt lat="44.217066084470055" lon="11.430474277257018"><ele>467.1666666666667</ele><time>2026-04-12T09:56:50Z</time></trkpt><trkpt lat="44.21700583635847" lon="11.43053311362841"><ele>468.0</ele><time>2026-04-12T09:56:51Z</time></trkpt><trkpt lat="44.21691976965281" lon="11.430589085392779"><ele>468.0</ele><time>2026-04-12T09:56:52Z</time></trkpt><trkpt lat="44.21686958303698" lon="11.430694056404326"><ele>467.99999999999994</ele><time>2026-04-12T09:56:53Z</time></trkpt><trkpt lat="44.216811459341166" lon="11.430796013300712"><ele>467.99999999999994</ele><time>2026-04-12T09:56:54Z</time></trkpt><trkpt lat="44.21675712442968" lon="11.430905582119287"><ele>468.0</ele><time>2026-04-12T09:56:55Z</time></trkpt><trkpt lat="44.21669871680456" lon="11.43102657955719"><ele>468.0</ele><time>2026-04-12T09:56:56Z</time></trkpt><trkpt lat="44.21663535621624" lon="11.43116569997155"><ele>468.0</ele><time>2026-04-12T09:56:57Z</time></trkpt><trkpt lat="44.21656673642438" lon="11.431306083410583"><ele>468.0</ele><time>2026-04-12T09:56:58Z</time></trkpt><trkpt lat="44.216511273754286" lon="11.431424944895912"><ele>468.0</ele><time>2026-04-12T09:56:59Z</time></trkpt><trkpt lat="44.21644400253796" lon="11.431535649611641"><ele>468.0</ele><time>2026-04-12T09:57:00Z</time></trkpt><trkpt lat="44.21634665308221" lon="11.431649259659748"><ele>474.0</ele><time>2026-04-12T09:57:01Z</time></trkpt><trkpt lat="44.216221436625624" lon="11.431765039182944"><ele>480.0</ele><time>2026-04-12T09:57:02Z</time></trkpt><trkpt lat="44.21605971109873" lon="11.431906499536032"><ele>486.0</ele><time>2026-04-12T09:57:03Z</time></trkpt><trkpt lat="44.21594209439994" lon="11.432062794886205"><ele>485.20000000000005</ele><time>2026-04-12T09:57:04Z</time></trkpt><trkpt lat="44.21586042483339" lon="11.432209272464247"><ele>484.40000000000003</ele><time>2026-04-12T09:57:05Z</time></trkpt><trkpt lat="44.21577348535782" lon="11.432319339978426"><ele>483.6</ele><time>2026-04-12T09:57:06Z</time></trkpt><trkpt lat="44.21568287308428" lon="11.432385777060814"><ele>482.8</ele><time>2026-04-12T09:57:07Z</time></trkpt><trkpt lat="44.21561365969243" lon="11.43245064470135"><ele>482.0</ele><time>2026-04-12T09:57:08Z</time></trkpt><trkpt lat="44.215542795819616" lon="11.432516251348732"><ele>485.40000000000003</ele><time>2026-04-12T09:57:08.999Z</time></trkpt><trkpt lat="44.2154592643142" lon="11.432593710500202"><ele>488.80000000000007</ele><time>2026-04-12T09:57:09.999Z</time></trkpt><trkpt lat="44.215369129674144" lon="11.432660260317835"><ele>492.2</ele><time>2026-04-12T09:57:10.999Z</time></trkpt><trkpt lat="44.21527991291957" lon="11.432686977714004"><ele>495.6</ele><time>2026-04-12T09:57:11.999Z</time></trkpt><trkpt lat="44.21518437454859" lon="11.43268508902135"><ele>499.0</ele><time>2026-04-12T09:57:12.999Z</time></trkpt><trkpt lat="44.21508344791167" lon="11.432644001817046"><ele>499.0</ele><time>2026-04-12T09:57:13.999Z</time></trkpt><trkpt lat="44.214994762907544" lon="11.432580645877032"><ele>499.0</ele><time>2026-04-12T09:57:14.999Z</time></trkpt><trkpt lat="44.2148914861564" lon="11.432499831908228"><ele>499.0</ele><time>2026-04-12T09:57:15.999Z</time></trkpt><trkpt lat="44.21478156066472" lon="11.432415194948957"><ele>499.0</ele><time>2026-04-12T09:57:16.999Z</time></trkpt><trkpt lat="44.214701504603234" lon="11.432356459940591"><ele>499.0</ele><time>2026-04-12T09:57:17.999Z</time></trkpt><trkpt lat="44.214643185139174" lon="11.432314720109805"><ele>501.4</ele><time>2026-04-12T09:57:18.999Z</time></trkpt><trkpt lat="44.2145592924223" lon="11.432298767599828"><ele>503.79999999999995</ele><time>2026-04-12T09:57:19.999Z</time></trkpt><trkpt lat="44.21445701113805" lon="11.432396676006764"><ele>506.20000000000005</ele><time>2026-04-12T09:57:20.999Z</time></trkpt><trkpt lat="44.21437054934065" lon="11.432437100484359"><ele>508.6</ele><time>2026-04-12T09:57:21.999Z</time></trkpt><trkpt lat="44.21428493831611" lon="11.432443534586955"><ele>511.0</ele><time>2026-04-12T09:57:22.999Z</time></trkpt><trkpt lat="44.214207159444626" lon="11.43244165278667"><ele>511.0</ele><time>2026-04-12T09:57:23.999Z</time></trkpt><trkpt lat="44.214129625048166" lon="11.432421997905502"><ele>511.0</ele><time>2026-04-12T09:57:24.999Z</time></trkpt><trkpt lat="44.2140603881978" lon="11.43240708834744"><ele>511.0</ele><time>2026-04-12T09:57:25.999Z</time></trkpt><trkpt lat="44.21399110160358" lon="11.4323920771602"><ele>511.0</ele><time>2026-04-12T09:57:28.999Z</time></trkpt><trkpt lat="44.21389863123421" lon="11.432566809423124"><ele>511.0</ele><time>2026-04-12T09:57:31.999Z</time></trkpt><trkpt lat="44.213795564406894" lon="11.432629693002582"><ele>515.6666666666667</ele><time>2026-04-12T09:57:33.999Z</time></trkpt><trkpt lat="44.21372601131666" lon="11.432627943505667"><ele>520.3333333333334</ele><time>2026-04-12T09:57:34.999Z</time></trkpt><trkpt lat="44.213652220242224" lon="11.432612627110922"><ele>525.0</ele><time>2026-04-12T09:57:35.999Z</time></trkpt><trkpt lat="44.213586387699046" lon="11.43255045228014"><ele>529.6666666666666</ele><time>2026-04-12T09:57:36.999Z</time></trkpt><trkpt lat="44.21351888750509" lon="11.432536600987467"><ele>534.3333333333333</ele><time>2026-04-12T09:57:37.999Z</time></trkpt><trkpt lat="44.213412697143795" lon="11.432552967819632"><ele>539.0</ele><time>2026-04-12T09:57:39.999Z</time></trkpt><trkpt lat="44.21332788499612" lon="11.432603572488452"><ele>539.0</ele><time>2026-04-12T09:57:41.999Z</time></trkpt><trkpt lat="44.21328572036534" lon="11.432688864072897"><ele>539.0</ele><time>2026-04-12T09:57:42.999Z</time></trkpt><trkpt lat="44.21329195724543" lon="11.432796372085775"><ele>539.0</ele><time>2026-04-12T09:57:43.999Z</time></trkpt><trkpt lat="44.21334385799481" lon="11.432904616623809"><ele>539.0</ele><time>2026-04-12T09:57:44.999Z</time></trkpt><trkpt lat="44.21341966820833" lon="11.432964077011077"><ele>539.0</ele><time>2026-04-12T09:57:45.999Z</time></trkpt><trkpt lat="44.21347904102188" lon="11.43300784403521"><ele>539.0</ele><time>2026-04-12T09:57:46.999Z</time></trkpt><trkpt lat="44.21359373599125" lon="11.43293126905184"><ele>539.0</ele><time>2026-04-12T09:57:47.999Z</time></trkpt><trkpt lat="44.2136728781729" lon="11.432964850615184"><ele>539.0</ele><time>2026-04-12T09:57:48.999Z</time></trkpt><trkpt lat="44.21375649813802" lon="11.433006128981704"><ele>539.0</ele><time>2026-04-12T09:57:49.999Z</time></trkpt><trkpt lat="44.21383580376866" lon="11.433046790909101"><ele>539.0</ele><time>2026-04-12T09:57:50.999Z</time></trkpt><trkpt lat="44.21391907042161" lon="11.433094588948583"><ele>539.0</ele><time>2026-04-12T09:57:51.999Z</time></trkpt><trkpt lat="44.213984752902235" lon="11.433174198605789"><ele>539.0</ele><time>2026-04-12T09:57:52.999Z</time></trkpt><trkpt lat="44.21405318792052" lon="11.433251251384108"><ele>533.5</ele><time>2026-04-12T09:57:53.999Z</time></trkpt><trkpt lat="44.21412362784566" lon="11.433326360853119"><ele>528.0</ele><time>2026-04-12T09:57:54.999Z</time></trkpt><trkpt lat="44.21418917084621" lon="11.433410194489197"><ele>522.5</ele><time>2026-04-12T09:57:55.999Z</time></trkpt><trkpt lat="44.21425284810729" lon="11.433492995259193"><ele>517.0</ele><time>2026-04-12T09:57:56.999Z</time></trkpt><trkpt lat="44.21430892249314" lon="11.433572173205015"><ele>511.49999999999994</ele><time>2026-04-12T09:57:57.999Z</time></trkpt><trkpt lat="44.21436249796269" lon="11.433654198961609"><ele>506.0</ele><time>2026-04-12T09:57:58.999Z</time></trkpt><trkpt lat="44.214414716499746" lon="11.43373159227058"><ele>507.16666666666663</ele><time>2026-04-12T09:57:59.999Z</time></trkpt><trkpt lat="44.21446105607354" lon="11.433807843072021"><ele>508.3333333333333</ele><time>2026-04-12T09:58:00.999Z</time></trkpt><trkpt lat="44.21450930001651" lon="11.433885821198182"><ele>509.5</ele><time>2026-04-12T09:58:01.999Z</time></trkpt><trkpt lat="44.214535704169904" lon="11.433980462477491"><ele>510.66666666666663</ele><time>2026-04-12T09:58:02.999Z</time></trkpt><trkpt lat="44.214539887134585" lon="11.43408645849322"><ele>511.8333333333333</ele><time>2026-04-12T09:58:03.999Z</time></trkpt><trkpt lat="44.214543761974205" lon="11.43423060057293"><ele>513.0</ele><time>2026-04-12T09:58:04.998Z</time></trkpt><trkpt lat="44.21455779185083" lon="11.434407944673314"><ele>513.0</ele><time>2026-04-12T09:58:05.998Z</time></trkpt><trkpt lat="44.21457866757073" lon="11.434556169330067"><ele>513.0</ele><time>2026-04-12T09:58:06.998Z</time></trkpt><trkpt lat="44.21457771372528" lon="11.434686416850342"><ele>513.0</ele><time>2026-04-12T09:58:07.998Z</time></trkpt><trkpt lat="44.214578652093316" lon="11.43478838293891"><ele>513.0</ele><time>2026-04-12T09:58:08.998Z</time></trkpt><trkpt lat="44.21448723334687" lon="11.434921484146287"><ele>513.0</ele><time>2026-04-12T09:58:10.998Z</time></trkpt><trkpt lat="44.21445189091472" lon="11.435005882597993"><ele>513.0</ele><time>2026-04-12T09:58:11.998Z</time></trkpt><trkpt lat="44.21439840807423" lon="11.435083007349311"><ele>513.0</ele><time>2026-04-12T09:58:12.998Z</time></trkpt><trkpt lat="44.21436305004127" lon="11.435170420554064"><ele>513.0</ele><time>2026-04-12T09:58:13.998Z</time></trkpt><trkpt lat="44.21435473267083" lon="11.435274060919204"><ele>513.0</ele><time>2026-04-12T09:58:14.998Z</time></trkpt><trkpt lat="44.214375222927686" lon="11.435393009151499"><ele>513.0</ele><time>2026-04-12T09:58:15.998Z</time></trkpt><trkpt lat="44.21441971702816" lon="11.435529144608186"><ele>513.0</ele><time>2026-04-12T09:58:16.998Z</time></trkpt><trkpt lat="44.21446039342987" lon="11.435706930124104"><ele>512.75</ele><time>2026-04-12T09:58:17.998Z</time></trkpt><trkpt lat="44.214481116066665" lon="11.435912707164288"><ele>512.5</ele><time>2026-04-12T09:58:18.998Z</time></trkpt><trkpt lat="44.21447070535718" lon="11.436116844409012"><ele>512.25</ele><time>2026-04-12T09:58:19.998Z</time></trkpt><trkpt lat="44.21448389018683" lon="11.436324126364998"><ele>512.0</ele><time>2026-04-12T09:58:20.998Z</time></trkpt><trkpt lat="44.214476801656794" lon="11.436526509555712"><ele>512.0</ele><time>2026-04-12T09:58:21.998Z</time></trkpt><trkpt lat="44.21447377188734" lon="11.436708165822317"><ele>512.0</ele><time>2026-04-12T09:58:22.998Z</time></trkpt><trkpt lat="44.21446891770024" lon="11.436887268804174"><ele>512.0</ele><time>2026-04-12T09:58:23.998Z</time></trkpt><trkpt lat="44.214476902182334" lon="11.437037496426257"><ele>512.0</ele><time>2026-04-12T09:58:24.998Z</time></trkpt><trkpt lat="44.21450131501992" lon="11.437175890936814"><ele>514.25</ele><time>2026-04-12T09:58:25.998Z</time></trkpt><trkpt lat="44.21454377886909" lon="11.437331766658517"><ele>516.5</ele><time>2026-04-12T09:58:26.998Z</time></trkpt><trkpt lat="44.21461317062306" lon="11.4374888722917"><ele>518.75</ele><time>2026-04-12T09:58:27.998Z</time></trkpt><trkpt lat="44.21469505756291" lon="11.43768320548502"><ele>521.0</ele><time>2026-04-12T09:58:28.998Z</time></trkpt><trkpt lat="44.214765594114844" lon="11.437854448543785"><ele>522.0</ele><time>2026-04-12T09:58:29.998Z</time></trkpt><trkpt lat="44.21477632580915" lon="11.438024456510258"><ele>523.0</ele><time>2026-04-12T09:58:30.998Z</time></trkpt><trkpt lat="44.214768676783606" lon="11.438206076454474"><ele>524.0</ele><time>2026-04-12T09:58:31.998Z</time></trkpt><trkpt lat="44.21475140269505" lon="11.4384407569091"><ele>525.0</ele><time>2026-04-12T09:58:32.998Z</time></trkpt><trkpt lat="44.21476198328482" lon="11.43864398178639"><ele>525.75</ele><time>2026-04-12T09:58:34Z</time></trkpt><trkpt lat="44.214771687129776" lon="11.438821682387243"><ele>526.5</ele><time>2026-04-12T09:58:35Z</time></trkpt><trkpt lat="44.214815215115685" lon="11.438995050965936"><ele>527.25</ele><time>2026-04-12T09:58:36Z</time></trkpt><trkpt lat="44.214883213467004" lon="11.439173688499888"><ele>528.0</ele><time>2026-04-12T09:58:37Z</time></trkpt><trkpt lat="44.214942912159216" lon="11.439341498186083"><ele>517.6666666666666</ele><time>2026-04-12T09:58:38Z</time></trkpt><trkpt lat="44.21495255944208" lon="11.439513397384477"><ele>507.3333333333333</ele><time>2026-04-12T09:58:39Z</time></trkpt><trkpt lat="44.21495286937836" lon="11.43974011976142"><ele>497.0</ele><time>2026-04-12T09:58:40Z</time></trkpt><trkpt lat="44.2149595406629" lon="11.439977846047473"><ele>497.0</ele><time>2026-04-12T09:58:41Z</time></trkpt><trkpt lat="44.21495629466208" lon="11.440177193644367"><ele>497.0</ele><time>2026-04-12T09:58:42Z</time></trkpt><trkpt lat="44.21493655858983" lon="11.440359719772365"><ele>497.0</ele><time>2026-04-12T09:58:43Z</time></trkpt><trkpt lat="44.214919359287364" lon="11.440527311193247"><ele>497.0</ele><time>2026-04-12T09:58:44Z</time></trkpt><trkpt lat="44.21487959701256" lon="11.440655589546237"><ele>496.40000000000003</ele><time>2026-04-12T09:58:45Z</time></trkpt><trkpt lat="44.214839088175125" lon="11.440764243542885"><ele>495.80000000000007</ele><time>2026-04-12T09:58:46Z</time></trkpt><trkpt lat="44.21480211235417" lon="11.440895377363908"><ele>495.2</ele><time>2026-04-12T09:58:47Z</time></trkpt><trkpt lat="44.21473660996207" lon="11.441017537284111"><ele>494.6</ele><time>2026-04-12T09:58:48Z</time></trkpt><trkpt lat="44.21469175246449" lon="11.441156571275114"><ele>494.0</ele><time>2026-04-12T09:58:49Z</time></trkpt><trkpt lat="44.21467259423771" lon="11.441299956186114"><ele>500.0</ele><time>2026-04-12T09:58:50Z</time></trkpt><trkpt lat="44.21466373661488" lon="11.441441877991911"><ele>506.0</ele><time>2026-04-12T09:58:51Z</time></trkpt><trkpt lat="44.21469205093442" lon="11.441614833474253"><ele>512.0</ele><time>2026-04-12T09:58:52Z</time></trkpt><trkpt lat="44.21472410474547" lon="11.44182200097024"><ele>518.0</ele><time>2026-04-12T09:58:53Z</time></trkpt><trkpt lat="44.214814004186415" lon="11.44213667523847"><ele>512.3333333333333</ele><time>2026-04-12T09:58:54Z</time></trkpt><trkpt lat="44.214860322315396" lon="11.44236562314818"><ele>506.66666666666663</ele><time>2026-04-12T09:58:55Z</time></trkpt><trkpt lat="44.21489998309704" lon="11.442563840808642"><ele>501.0</ele><time>2026-04-12T09:58:56Z</time></trkpt><trkpt lat="44.21493709275269" lon="11.442740668117048"><ele>501.0</ele><time>2026-04-12T09:58:57Z</time></trkpt><trkpt lat="44.21496893308129" lon="11.442907711755627"><ele>501.0</ele><time>2026-04-12T09:58:58Z</time></trkpt><trkpt lat="44.21500887037279" lon="11.443058055462707"><ele>501.0</ele><time>2026-04-12T09:58:59Z</time></trkpt><trkpt lat="44.21506493862143" lon="11.44318413067759"><ele>501.0</ele><time>2026-04-12T09:59:00Z</time></trkpt><trkpt lat="44.21513286878257" lon="11.443296356986876"><ele>502.4</ele><time>2026-04-12T09:59:01Z</time></trkpt><trkpt lat="44.21521066774763" lon="11.443411929467402"><ele>503.8</ele><time>2026-04-12T09:59:02Z</time></trkpt><trkpt lat="44.215281477247075" lon="11.44351189291971"><ele>505.19999999999993</ele><time>2026-04-12T09:59:03Z</time></trkpt><trkpt lat="44.215329194574345" lon="11.443578654211176"><ele>506.59999999999997</ele><time>2026-04-12T09:59:04Z</time></trkpt><trkpt lat="44.21538528542029" lon="11.443644316305914"><ele>508.0</ele><time>2026-04-12T09:59:06Z</time></trkpt><trkpt lat="44.215491452629806" lon="11.443561998680803"><ele>508.0</ele><time>2026-04-12T09:59:11Z</time></trkpt><trkpt lat="44.215459381196354" lon="11.443446057992515"><ele>508.0</ele><time>2026-04-12T09:59:12.999Z</time></trkpt><trkpt lat="44.21541333328872" lon="11.443378509147458"><ele>508.0</ele><time>2026-04-12T09:59:14.999Z</time></trkpt></trkseg><trkseg><trkpt lat="44.214988647254856" lon="11.442870492398328"><ele>501.0</ele><time>2026-04-12T10:27:45.999Z</time></trkpt><trkpt lat="44.214957471684095" lon="11.442714073836493"><ele>501.0</ele><time>2026-04-12T10:27:47.999Z</time></trkpt><trkpt lat="44.21493831853201" lon="11.442618687386986"><ele>501.0</ele><time>2026-04-12T10:27:48.999Z</time></trkpt><trkpt lat="44.21490211980919" lon="11.442519929143607"><ele>501.0</ele><time>2026-04-12T10:27:49.999Z</time></trkpt><trkpt lat="44.21489259808009" lon="11.442414844801416"><ele>501.0</ele><time>2026-04-12T10:27:50.999Z</time></trkpt><trkpt lat="44.21487004276266" lon="11.442301266414876"><ele>501.0</ele><time>2026-04-12T10:27:51.999Z</time></trkpt><trkpt lat="44.2148457603468" lon="11.442187520037432"><ele>503.8333333333333</ele><time>2026-04-12T10:27:52.999Z</time></trkpt><trkpt lat="44.21482026507936" lon="11.442074479588594"><ele>506.66666666666663</ele><time>2026-04-12T10:27:53.999Z</time></trkpt><trkpt lat="44.21479262543138" lon="11.44195999357244"><ele>509.5</ele><time>2026-04-12T10:27:54.999Z</time></trkpt><trkpt lat="44.21476922274502" lon="11.44185296690673"><ele>512.3333333333333</ele><time>2026-04-12T10:27:55.999Z</time></trkpt><trkpt lat="44.21474881167708" lon="11.441741121006277"><ele>515.1666666666666</ele><time>2026-04-12T10:27:56.999Z</time></trkpt><trkpt lat="44.21472356114331" lon="11.441630261376575"><ele>518.0</ele><time>2026-04-12T10:27:57.999Z</time></trkpt><trkpt lat="44.214714217371025" lon="11.441511255275294"><ele>518.0</ele><time>2026-04-12T10:27:58.999Z</time></trkpt><trkpt lat="44.21470026634457" lon="11.4414068335743"><ele>518.0</ele><time>2026-04-12T10:27:59.999Z</time></trkpt><trkpt lat="44.21468094868073" lon="11.441300593462623"><ele>518.0</ele><time>2026-04-12T10:28:00.999Z</time></trkpt><trkpt lat="44.21471739526897" lon="11.4411744905181"><ele>518.0</ele><time>2026-04-12T10:28:01.999Z</time></trkpt><trkpt lat="44.21476557609639" lon="11.44103764694732"><ele>518.0</ele><time>2026-04-12T10:28:02.999Z</time></trkpt><trkpt lat="44.21482417411911" lon="11.440891719047352"><ele>512.75</ele><time>2026-04-12T10:28:03.999Z</time></trkpt><trkpt lat="44.21486793336694" lon="11.440761600583832"><ele>507.5</ele><time>2026-04-12T10:28:04.999Z</time></trkpt><trkpt lat="44.214914522334574" lon="11.440644245802387"><ele>502.25</ele><time>2026-04-12T10:28:05.999Z</time></trkpt><trkpt lat="44.21495099498179" lon="11.440513007018236"><ele>497.0</ele><time>2026-04-12T10:28:06.999Z</time></trkpt><trkpt lat="44.21496286475476" lon="11.440299260735028"><ele>497.0</ele><time>2026-04-12T10:28:07.999Z</time></trkpt><trkpt lat="44.2149694625014" lon="11.440068225777077"><ele>497.0</ele><time>2026-04-12T10:28:08.999Z</time></trkpt><trkpt lat="44.21496955819827" lon="11.439860639703726"><ele>497.0</ele><time>2026-04-12T10:28:09.999Z</time></trkpt><trkpt lat="44.2149726249569" lon="11.43967372451147"><ele>497.0</ele><time>2026-04-12T10:28:10.999Z</time></trkpt><trkpt lat="44.21497378909238" lon="11.43950101144215"><ele>497.0</ele><time>2026-04-12T10:28:11.999Z</time></trkpt><trkpt lat="44.214979184517965" lon="11.43934275232144"><ele>497.0</ele><time>2026-04-12T10:28:12.999Z</time></trkpt><trkpt lat="44.21493583211714" lon="11.439192784840406"><ele>497.0</ele><time>2026-04-12T10:28:13.999Z</time></trkpt><trkpt lat="44.21487064661733" lon="11.439039134840268"><ele>497.0</ele><time>2026-04-12T10:28:14.999Z</time></trkpt><trkpt lat="44.214819885757926" lon="11.43887911349258"><ele>504.0</ele><time>2026-04-12T10:28:15.999Z</time></trkpt><trkpt lat="44.21478103762911" lon="11.438724221811635"><ele>511.0</ele><time>2026-04-12T10:28:16.999Z</time></trkpt><trkpt lat="44.21477755478592" lon="11.43856525350291"><ele>518.0</ele><time>2026-04-12T10:28:17.999Z</time></trkpt><trkpt lat="44.214788172286006" lon="11.438390225944737"><ele>525.0</ele><time>2026-04-12T10:28:18.999Z</time></trkpt><trkpt lat="44.21480160633116" lon="11.43821473091773"><ele>525.0</ele><time>2026-04-12T10:28:19.999Z</time></trkpt><trkpt lat="44.21480762151785" lon="11.43805308358789"><ele>525.0</ele><time>2026-04-12T10:28:20.999Z</time></trkpt><trkpt lat="44.21478440661176" lon="11.43789841330734"><ele>525.0</ele><time>2026-04-12T10:28:21.999Z</time></trkpt><trkpt lat="44.21476249788198" lon="11.437747833940675"><ele>525.0</ele><time>2026-04-12T10:28:22.999Z</time></trkpt><trkpt lat="44.2147080768439" lon="11.437600121479578"><ele>524.0</ele><time>2026-04-12T10:28:23.999Z</time></trkpt><trkpt lat="44.21464973260859" lon="11.437445233159595"><ele>523.0</ele><time>2026-04-12T10:28:24.999Z</time></trkpt><trkpt lat="44.21458613072078" lon="11.437289652849744"><ele>522.0</ele><time>2026-04-12T10:28:25.998Z</time></trkpt><trkpt lat="44.21453126761595" lon="11.43712865879196"><ele>521.0</ele><time>2026-04-12T10:28:26.998Z</time></trkpt><trkpt lat="44.214504384646624" lon="11.436961140085696"><ele>518.75</ele><time>2026-04-12T10:28:27.998Z</time></trkpt><trkpt lat="44.21450066952399" lon="11.436789229711653"><ele>516.5</ele><time>2026-04-12T10:28:28.998Z</time></trkpt><trkpt lat="44.21448657597191" lon="11.436619193012364"><ele>514.25</ele><time>2026-04-12T10:28:29.998Z</time></trkpt><trkpt lat="44.21448981013823" lon="11.43645380544149"><ele>512.0</ele><time>2026-04-12T10:28:30.998Z</time></trkpt><trkpt lat="44.21448901405139" lon="11.436286473597317"><ele>511.25</ele><time>2026-04-12T10:28:31.998Z</time></trkpt><trkpt lat="44.21448951091834" lon="11.436121003816385"><ele>510.5</ele><time>2026-04-12T10:28:32.998Z</time></trkpt><trkpt lat="44.21448976056787" lon="11.43595486733043"><ele>509.75</ele><time>2026-04-12T10:28:33.998Z</time></trkpt><trkpt lat="44.2144853419682" lon="11.435798606997217"><ele>509.0</ele><time>2026-04-12T10:28:34.998Z</time></trkpt><trkpt lat="44.214463982381474" lon="11.435651892110053"><ele>509.0</ele><time>2026-04-12T10:28:35.998Z</time></trkpt><trkpt lat="44.214438378497654" lon="11.435501999612583"><ele>509.0</ele><time>2026-04-12T10:28:36.998Z</time></trkpt><trkpt lat="44.214380060392244" lon="11.435378776695572"><ele>509.0</ele><time>2026-04-12T10:28:37.998Z</time></trkpt><trkpt lat="44.21435997532362" lon="11.435253033185836"><ele>509.0</ele><time>2026-04-12T10:28:38.998Z</time></trkpt><trkpt lat="44.214381391070866" lon="11.435127785118235"><ele>509.0</ele><time>2026-04-12T10:28:39.998Z</time></trkpt><trkpt lat="44.214438958972806" lon="11.435014767082032"><ele>509.79999999999995</ele><time>2026-04-12T10:28:40.998Z</time></trkpt><trkpt lat="44.21451110394662" lon="11.434927544729103"><ele>510.59999999999997</ele><time>2026-04-12T10:28:41.998Z</time></trkpt><trkpt lat="44.21457260461479" lon="11.434852039268083"><ele>511.4</ele><time>2026-04-12T10:28:42.998Z</time></trkpt><trkpt lat="44.21461525904077" lon="11.434741728945868"><ele>512.1999999999999</ele><time>2026-04-12T10:28:43.998Z</time></trkpt><trkpt lat="44.214605703130616" lon="11.434583903529282"><ele>513.0</ele><time>2026-04-12T10:28:44.998Z</time></trkpt><trkpt lat="44.214581448392366" lon="11.434412514292593"><ele>513.0</ele><time>2026-04-12T10:28:46Z</time></trkpt><trkpt lat="44.21457806550086" lon="11.434202683797064"><ele>513.0</ele><time>2026-04-12T10:28:47Z</time></trkpt><trkpt lat="44.214567981352744" lon="11.434028984310364"><ele>513.0</ele><time>2026-04-12T10:28:48Z</time></trkpt><trkpt lat="44.214540551825706" lon="11.433895763526916"><ele>513.0</ele><time>2026-04-12T10:28:49Z</time></trkpt><trkpt lat="44.214508567134644" lon="11.433784072483475"><ele>511.59999999999997</ele><time>2026-04-12T10:28:50Z</time></trkpt><trkpt lat="44.21443837530609" lon="11.433697265280342"><ele>510.19999999999993</ele><time>2026-04-12T10:28:51Z</time></trkpt><trkpt lat="44.214356990975034" lon="11.433615211783644"><ele>508.8</ele><time>2026-04-12T10:28:52Z</time></trkpt><trkpt lat="44.2142896944948" lon="11.433504165355934"><ele>507.4</ele><time>2026-04-12T10:28:53Z</time></trkpt><trkpt lat="44.214211829005095" lon="11.43339353595403"><ele>506.0</ele><time>2026-04-12T10:28:54Z</time></trkpt><trkpt lat="44.21412921239543" lon="11.433285353517281"><ele>506.0</ele><time>2026-04-12T10:28:55Z</time></trkpt><trkpt lat="44.214038291078445" lon="11.433201719164117"><ele>506.0</ele><time>2026-04-12T10:28:56Z</time></trkpt><trkpt lat="44.21395675112314" lon="11.433116395102038"><ele>506.0</ele><time>2026-04-12T10:28:57Z</time></trkpt><trkpt lat="44.213872383672175" lon="11.433044554428813"><ele>506.0</ele><time>2026-04-12T10:28:58Z</time></trkpt><trkpt lat="44.213783187438665" lon="11.432986027690886"><ele>506.0</ele><time>2026-04-12T10:28:59Z</time></trkpt><trkpt lat="44.21368679070561" lon="11.432939200519755"><ele>512.6</ele><time>2026-04-12T10:29:00Z</time></trkpt><trkpt lat="44.21358829199672" lon="11.432909777189101"><ele>519.2</ele><time>2026-04-12T10:29:01Z</time></trkpt><trkpt lat="44.21349628248196" lon="11.432873389276772"><ele>525.8</ele><time>2026-04-12T10:29:02Z</time></trkpt><trkpt lat="44.213429171711745" lon="11.432805178318642"><ele>532.4</ele><time>2026-04-12T10:29:03Z</time></trkpt><trkpt lat="44.21335229875529" lon="11.43269422338948"><ele>539.0</ele><time>2026-04-12T10:29:05Z</time></trkpt><trkpt lat="44.21337270499099" lon="11.432609135934406"><ele>539.0</ele><time>2026-04-12T10:29:06Z</time></trkpt><trkpt lat="44.21343367598842" lon="11.432559466440988"><ele>539.0</ele><time>2026-04-12T10:29:07Z</time></trkpt><trkpt lat="44.213519498577725" lon="11.432555466351312"><ele>539.0</ele><time>2026-04-12T10:29:08Z</time></trkpt><trkpt lat="44.21361397816008" lon="11.432595038479894"><ele>539.0</ele><time>2026-04-12T10:29:09Z</time></trkpt><trkpt lat="44.21371942282072" lon="11.432636282033029"><ele>539.0</ele><time>2026-04-12T10:29:10Z</time></trkpt><trkpt lat="44.21382139905533" lon="11.432643672114901"><ele>539.0</ele><time>2026-04-12T10:29:11Z</time></trkpt><trkpt lat="44.213902589934534" lon="11.432610841152334"><ele>539.0</ele><time>2026-04-12T10:29:12Z</time></trkpt><trkpt lat="44.21396380004114" lon="11.43255002127905"><ele>539.0</ele><time>2026-04-12T10:29:13Z</time></trkpt><trkpt lat="44.21400903219218" lon="11.432455457552702"><ele>539.0</ele><time>2026-04-12T10:29:14Z</time></trkpt><trkpt lat="44.21401884875653" lon="11.432346256202676"><ele>539.0</ele><time>2026-04-12T10:29:15Z</time></trkpt><trkpt lat="44.21401120617967" lon="11.432234461827724"><ele>539.0</ele><time>2026-04-12T10:29:16Z</time></trkpt><trkpt lat="44.21399272418222" lon="11.432142499011121"><ele>540.6666666666666</ele><time>2026-04-12T10:29:17Z</time></trkpt><trkpt lat="44.213969441228784" lon="11.432057539954085"><ele>542.3333333333333</ele><time>2026-04-12T10:29:18Z</time></trkpt><trkpt lat="44.21394152659702" lon="11.431880134399025"><ele>544.0</ele><time>2026-04-12T10:29:20Z</time></trkpt><trkpt lat="44.21394059057953" lon="11.431772814856531"><ele>545.6666666666666</ele><time>2026-04-12T10:29:21Z</time></trkpt><trkpt lat="44.21390324608921" lon="11.431672138305283"><ele>547.3333333333334</ele><time>2026-04-12T10:29:22Z</time></trkpt><trkpt lat="44.21387511953345" lon="11.431574930001064"><ele>549.0</ele><time>2026-04-12T10:29:23Z</time></trkpt><trkpt lat="44.213851348163026" lon="11.43147629516437"><ele>549.0</ele><time>2026-04-12T10:29:24Z</time></trkpt><trkpt lat="44.21378297178116" lon="11.431424456810399"><ele>549.0</ele><time>2026-04-12T10:29:25Z</time></trkpt><trkpt lat="44.213757582281225" lon="11.431336775369708"><ele>549.0</ele><time>2026-04-12T10:29:26Z</time></trkpt><trkpt lat="44.213722938688456" lon="11.431254619566866"><ele>549.0</ele><time>2026-04-12T10:29:27Z</time></trkpt><trkpt lat="44.213716508881035" lon="11.431151293278303"><ele>549.0</ele><time>2026-04-12T10:29:28Z</time></trkpt><trkpt lat="44.21370621629368" lon="11.431057430106266"><ele>549.0</ele><time>2026-04-12T10:29:29Z</time></trkpt><trkpt lat="44.213690725305305" lon="11.43097040758287"><ele>549.0</ele><time>2026-04-12T10:29:30Z</time></trkpt><trkpt lat="44.21365007041579" lon="11.430833713211994"><ele>548.3333333333334</ele><time>2026-04-12T10:29:32Z</time></trkpt><trkpt lat="44.21362499013453" lon="11.430751068530018"><ele>547.6666666666666</ele><time>2026-04-12T10:29:34Z</time></trkpt><trkpt lat="44.21356813779463" lon="11.43071298341547"><ele>547.0</ele><time>2026-04-12T10:29:50.999Z</time></trkpt><trkpt lat="44.21364729128803" lon="11.430791054045908"><ele>546.3333333333333</ele><time>2026-04-12T10:34:50.998Z</time></trkpt><trkpt lat="44.21369294461677" lon="11.430908789259124"><ele>545.6666666666666</ele><time>2026-04-12T10:34:52.998Z</time></trkpt><trkpt lat="44.21369573551778" lon="11.431023021529809"><ele>545.0</ele><time>2026-04-12T10:34:54.998Z</time></trkpt><trkpt lat="44.21372670109621" lon="11.431111652057497"><ele>545.0</ele><time>2026-04-12T10:34:56.998Z</time></trkpt><trkpt lat="44.213725209255344" lon="11.431214666145301"><ele>545.0</ele><time>2026-04-12T10:34:58.998Z</time></trkpt><trkpt lat="44.213754027023455" lon="11.431303892779747"><ele>545.0</ele><time>2026-04-12T10:35:00.998Z</time></trkpt><trkpt lat="44.213767012704906" lon="11.431410000061453"><ele>545.0</ele><time>2026-04-12T10:35:02.998Z</time></trkpt><trkpt lat="44.21384711865844" lon="11.431494114322534"><ele>545.0</ele><time>2026-04-12T10:35:05Z</time></trkpt><trkpt lat="44.21391528728435" lon="11.431635813839893"><ele>545.0</ele><time>2026-04-12T10:35:07Z</time></trkpt><trkpt lat="44.21392190790096" lon="11.431728550211398"><ele>546.0</ele><time>2026-04-12T10:35:08Z</time></trkpt><trkpt lat="44.213984596181994" lon="11.431857844648723"><ele>547.0</ele><time>2026-04-12T10:35:10Z</time></trkpt><trkpt lat="44.214015302182176" lon="11.431980238181048"><ele>548.0</ele><time>2026-04-12T10:35:12Z</time></trkpt><trkpt lat="44.214059817275405" lon="11.432047758901344"><ele>549.0</ele><time>2026-04-12T10:35:14Z</time></trkpt><trkpt lat="44.214013965988244" lon="11.432317312739753"><ele>541.4</ele><time>2026-04-12T10:35:15Z</time></trkpt><trkpt lat="44.21402119001962" lon="11.432415652335607"><ele>533.8</ele><time>2026-04-12T10:35:19Z</time></trkpt><trkpt lat="44.21410379444318" lon="11.432454461228414"><ele>526.2</ele><time>2026-04-12T10:35:22Z</time></trkpt><trkpt lat="44.21419564447919" lon="11.432470287088835"><ele>518.6</ele><time>2026-04-12T10:35:24Z</time></trkpt><trkpt lat="44.21430496445199" lon="11.432488449531112"><ele>511.0</ele><time>2026-04-12T10:35:26Z</time></trkpt><trkpt lat="44.21442119925204" lon="11.43245747397231"><ele>511.0</ele><time>2026-04-12T10:35:28Z</time></trkpt><trkpt lat="44.214523656078875" lon="11.432392452509921"><ele>511.0</ele><time>2026-04-12T10:35:30Z</time></trkpt><trkpt lat="44.214637162908815" lon="11.432360228729294"><ele>511.0</ele><time>2026-04-12T10:35:32Z</time></trkpt><trkpt lat="44.21470137945859" lon="11.432384446745186"><ele>511.0</ele><time>2026-04-12T10:35:33Z</time></trkpt><trkpt lat="44.214777090059854" lon="11.432453593481089"><ele>511.0</ele><time>2026-04-12T10:35:34Z</time></trkpt><trkpt lat="44.21484750906087" lon="11.432512819808297"><ele>509.00000000000006</ele><time>2026-04-12T10:35:35Z</time></trkpt><trkpt lat="44.214921723065345" lon="11.43257498306098"><ele>507.0</ele><time>2026-04-12T10:35:36Z</time></trkpt><trkpt lat="44.214996705200754" lon="11.432636587518616"><ele>505.0</ele><time>2026-04-12T10:35:37Z</time></trkpt><trkpt lat="44.215079842785926" lon="11.432685952775078"><ele>503.0</ele><time>2026-04-12T10:35:38Z</time></trkpt><trkpt lat="44.215163048551" lon="11.432715842631293"><ele>501.00000000000006</ele><time>2026-04-12T10:35:39Z</time></trkpt><trkpt lat="44.21525420593273" lon="11.432727600327455"><ele>499.0</ele><time>2026-04-12T10:35:40Z</time></trkpt><trkpt lat="44.21534411020083" lon="11.432706289798018"><ele>499.0</ele><time>2026-04-12T10:35:41Z</time></trkpt><trkpt lat="44.21543117713574" lon="11.432655157820438"><ele>499.0</ele><time>2026-04-12T10:35:42Z</time></trkpt><trkpt lat="44.215509010676925" lon="11.43258973000791"><ele>499.0</ele><time>2026-04-12T10:35:43Z</time></trkpt><trkpt lat="44.21558806912273" lon="11.432515688025285"><ele>499.0</ele><time>2026-04-12T10:35:44Z</time></trkpt><trkpt lat="44.21566138348598" lon="11.432440867549879"><ele>499.0</ele><time>2026-04-12T10:35:45Z</time></trkpt><trkpt lat="44.215739692875786" lon="11.432368468925764"><ele>496.4</ele><time>2026-04-12T10:35:46Z</time></trkpt><trkpt lat="44.21581205224721" lon="11.43229029983689"><ele>493.79999999999995</ele><time>2026-04-12T10:35:47Z</time></trkpt><trkpt lat="44.21587968568588" lon="11.432194631107533"><ele>491.20000000000005</ele><time>2026-04-12T10:35:48Z</time></trkpt><trkpt lat="44.215952448062595" lon="11.432116366371696"><ele>488.6</ele><time>2026-04-12T10:35:48.999Z</time></trkpt><trkpt lat="44.21600169730032" lon="11.432007030673294"><ele>486.0</ele><time>2026-04-12T10:35:49.999Z</time></trkpt><trkpt lat="44.21608416707738" lon="11.43193911156988"><ele>486.0</ele><time>2026-04-12T10:35:50.999Z</time></trkpt><trkpt lat="44.21616064403567" lon="11.431869466040027"><ele>486.0</ele><time>2026-04-12T10:35:51.999Z</time></trkpt><trkpt lat="44.21623386363618" lon="11.431785286000153"><ele>486.0</ele><time>2026-04-12T10:35:52.999Z</time></trkpt><trkpt lat="44.21631524962113" lon="11.43172200424183"><ele>486.0</ele><time>2026-04-12T10:35:53.999Z</time></trkpt><trkpt lat="44.21639150959522" lon="11.431648173884202"><ele>486.0</ele><time>2026-04-12T10:35:54.999Z</time></trkpt><trkpt lat="44.216462538941954" lon="11.431557605184574"><ele>482.4</ele><time>2026-04-12T10:35:55.999Z</time></trkpt><trkpt lat="44.2165174770331" lon="11.431460848123995"><ele>478.8</ele><time>2026-04-12T10:35:56.999Z</time></trkpt><trkpt lat="44.21656872365844" lon="11.431348324003341"><ele>475.19999999999993</ele><time>2026-04-12T10:35:57.999Z</time></trkpt><trkpt lat="44.21661667223684" lon="11.431235840677372"><ele>471.59999999999997</ele><time>2026-04-12T10:35:58.999Z</time></trkpt><trkpt lat="44.216665059178325" lon="11.431123368028226"><ele>468.0</ele><time>2026-04-12T10:35:59.999Z</time></trkpt><trkpt lat="44.216713947631554" lon="11.431013213556227"><ele>468.0</ele><time>2026-04-12T10:36:00.999Z</time></trkpt><trkpt lat="44.21676781714051" lon="11.430911616273496"><ele>468.0</ele><time>2026-04-12T10:36:01.999Z</time></trkpt><trkpt lat="44.216818982074265" lon="11.43081423720329"><ele>468.0</ele><time>2026-04-12T10:36:02.999Z</time></trkpt><trkpt lat="44.21687217516167" lon="11.430727073190038"><ele>468.0</ele><time>2026-04-12T10:36:03.999Z</time></trkpt><trkpt lat="44.216919739306974" lon="11.430640851454102"><ele>468.0</ele><time>2026-04-12T10:36:04.999Z</time></trkpt><trkpt lat="44.2169764306781" lon="11.430567477299844"><ele>468.0</ele><time>2026-04-12T10:36:05.999Z</time></trkpt><trkpt lat="44.217048675981964" lon="11.430531272473447"><ele>468.28571428571433</ele><time>2026-04-12T10:36:06.999Z</time></trkpt><trkpt lat="44.21710546856929" lon="11.430458710447423"><ele>468.5714285714286</ele><time>2026-04-12T10:36:07.999Z</time></trkpt><trkpt lat="44.21714444898652" lon="11.430383499867547"><ele>468.8571428571429</ele><time>2026-04-12T10:36:08.999Z</time></trkpt><trkpt lat="44.2171775049439" lon="11.430299263407985"><ele>469.1428571428571</ele><time>2026-04-12T10:36:09.999Z</time></trkpt><trkpt lat="44.2171960890947" lon="11.43021024429002"><ele>469.4285714285714</ele><time>2026-04-12T10:36:10.999Z</time></trkpt><trkpt lat="44.21724152685797" lon="11.430145474922393"><ele>469.71428571428567</ele><time>2026-04-12T10:36:11.999Z</time></trkpt><trkpt lat="44.21729158305926" lon="11.430079123375767"><ele>470.0</ele><time>2026-04-12T10:36:12.999Z</time></trkpt><trkpt lat="44.21735679653759" lon="11.430045080964097"><ele>468.8333333333333</ele><time>2026-04-12T10:36:13.999Z</time></trkpt><trkpt lat="44.2174020694631" lon="11.429971538334136"><ele>467.66666666666663</ele><time>2026-04-12T10:36:14.999Z</time></trkpt><trkpt lat="44.217465704419446" lon="11.42992276734858"><ele>466.5</ele><time>2026-04-12T10:36:15.999Z</time></trkpt><trkpt lat="44.21754054238021" lon="11.429869663891743"><ele>465.33333333333337</ele><time>2026-04-12T10:36:16.999Z</time></trkpt><trkpt lat="44.21761485210503" lon="11.429828714847025"><ele>464.1666666666667</ele><time>2026-04-12T10:36:17.999Z</time></trkpt><trkpt lat="44.217697276142225" lon="11.429792200147675"><ele>463.0</ele><time>2026-04-12T10:36:18.999Z</time></trkpt><trkpt lat="44.21777389989892" lon="11.429767675328803"><ele>463.0</ele><time>2026-04-12T10:36:19.999Z</time></trkpt><trkpt lat="44.2178913025429" lon="11.429755599772147"><ele>462.99999999999994</ele><time>2026-04-12T10:36:21.999Z</time></trkpt><trkpt lat="44.21799012684044" lon="11.429765940396573"><ele>462.99999999999994</ele><time>2026-04-12T10:36:23.999Z</time></trkpt><trkpt lat="44.21808703865955" lon="11.429781797191028"><ele>463.0</ele><time>2026-04-12T10:36:25.999Z</time></trkpt><trkpt lat="44.218186599907526" lon="11.429805791061971"><ele>463.0</ele><time>2026-04-12T10:36:27.999Z</time></trkpt><trkpt lat="44.218274300062546" lon="11.42981931365741"><ele>463.59999999999997</ele><time>2026-04-12T10:36:29.999Z</time></trkpt><trkpt lat="44.2183561832495" lon="11.429824729004766"><ele>464.19999999999993</ele><time>2026-04-12T10:36:31.999Z</time></trkpt><trkpt lat="44.21846569951415" lon="11.429823791244079"><ele>464.8</ele><time>2026-04-12T10:36:33.999Z</time></trkpt><trkpt lat="44.21857713527568" lon="11.42982211083686"><ele>465.4</ele><time>2026-04-12T10:36:35.999Z</time></trkpt><trkpt lat="44.218688544914656" lon="11.429807922647779"><ele>466.0</ele><time>2026-04-12T10:36:37.999Z</time></trkpt><trkpt lat="44.218754106765665" lon="11.429790727018892"><ele>466.0</ele><time>2026-04-12T10:36:38.999Z</time></trkpt><trkpt lat="44.218814901447814" lon="11.429766884865064"><ele>466.0</ele><time>2026-04-12T10:36:39.999Z</time></trkpt><trkpt lat="44.218892897954284" lon="11.42971772946684"><ele>466.0</ele><time>2026-04-12T10:36:40.999Z</time></trkpt><trkpt lat="44.21896410075488" lon="11.429651766775217"><ele>466.0</ele><time>2026-04-12T10:36:41.999Z</time></trkpt><trkpt lat="44.21903447693149" lon="11.429554009072916"><ele>466.0</ele><time>2026-04-12T10:36:42.998Z</time></trkpt><trkpt lat="44.219120981471036" lon="11.429404353260882"><ele>467.4</ele><time>2026-04-12T10:36:43.998Z</time></trkpt><trkpt lat="44.21920644198369" lon="11.429259649903983"><ele>468.8</ele><time>2026-04-12T10:36:44.998Z</time></trkpt><trkpt lat="44.21929052354687" lon="11.429176191885114"><ele>470.19999999999993</ele><time>2026-04-12T10:36:45.998Z</time></trkpt><trkpt lat="44.219359156242454" lon="11.429101701957896"><ele>471.59999999999997</ele><time>2026-04-12T10:36:46.998Z</time></trkpt><trkpt lat="44.219439737050216" lon="11.429033681224436"><ele>473.0</ele><time>2026-04-12T10:36:47.998Z</time></trkpt><trkpt lat="44.21956277465567" lon="11.42897505192404"><ele>473.0</ele><time>2026-04-12T10:36:48.998Z</time></trkpt><trkpt lat="44.219666487933964" lon="11.428896463521815"><ele>472.99999999999994</ele><time>2026-04-12T10:36:49.998Z</time></trkpt><trkpt lat="44.21975222867299" lon="11.428852599808959"><ele>472.99999999999994</ele><time>2026-04-12T10:36:50.998Z</time></trkpt><trkpt lat="44.219829113830855" lon="11.428810149576144"><ele>473.0</ele><time>2026-04-12T10:36:51.998Z</time></trkpt><trkpt lat="44.21990601591919" lon="11.428801055551801"><ele>473.0</ele><time>2026-04-12T10:36:52.998Z</time></trkpt><trkpt lat="44.21998954202304" lon="11.428801042112239"><ele>473.79999999999995</ele><time>2026-04-12T10:36:53.998Z</time></trkpt><trkpt lat="44.22008697832533" lon="11.428783782373197"><ele>474.59999999999997</ele><time>2026-04-12T10:36:54.998Z</time></trkpt><trkpt lat="44.220180554229636" lon="11.428824360422874"><ele>475.40000000000003</ele><time>2026-04-12T10:36:55.998Z</time></trkpt><trkpt lat="44.220287931854806" lon="11.428862227647944"><ele>476.20000000000005</ele><time>2026-04-12T10:36:56.998Z</time></trkpt><trkpt lat="44.22038672615592" lon="11.42888400544034"><ele>477.0</ele><time>2026-04-12T10:36:57.998Z</time></trkpt><trkpt lat="44.22048862716316" lon="11.42891341586276"><ele>477.0</ele><time>2026-04-12T10:36:58.998Z</time></trkpt><trkpt lat="44.22058081479839" lon="11.428925658360185"><ele>477.0</ele><time>2026-04-12T10:36:59.998Z</time></trkpt><trkpt lat="44.22065126937179" lon="11.428909121408775"><ele>477.0</ele><time>2026-04-12T10:37:00.998Z</time></trkpt><trkpt lat="44.22076247638913" lon="11.428825217258563"><ele>477.0</ele><time>2026-04-12T10:37:02.998Z</time></trkpt><trkpt lat="44.22082034066624" lon="11.428746972298137"><ele>477.0</ele><time>2026-04-12T10:37:03.998Z</time></trkpt><trkpt lat="44.2208648354082" lon="11.42865934741756"><ele>477.0</ele><time>2026-04-12T10:37:04.998Z</time></trkpt><trkpt lat="44.220902798185456" lon="11.428569023774074"><ele>478.1666666666667</ele><time>2026-04-12T10:37:05.998Z</time></trkpt><trkpt lat="44.22095983345973" lon="11.428489710674077"><ele>479.33333333333337</ele><time>2026-04-12T10:37:06.998Z</time></trkpt><trkpt lat="44.22100816455005" lon="11.428406619624395"><ele>480.5</ele><time>2026-04-12T10:37:07.998Z</time></trkpt><trkpt lat="44.22105433034558" lon="11.428326269273967"><ele>481.6666666666667</ele><time>2026-04-12T10:37:08.998Z</time></trkpt><trkpt lat="44.2210882902446" lon="11.428249978540498"><ele>482.83333333333337</ele><time>2026-04-12T10:37:10Z</time></trkpt><trkpt lat="44.22113669849247" lon="11.42811899695641"><ele>484.0</ele><time>2026-04-12T10:37:12Z</time></trkpt><trkpt lat="44.221118126558856" lon="11.42796981097271"><ele>484.79999999999995</ele><time>2026-04-12T10:37:14Z</time></trkpt><trkpt lat="44.22104163078345" lon="11.427822523143904"><ele>485.59999999999997</ele><time>2026-04-12T10:37:16Z</time></trkpt><trkpt lat="44.221006141743665" lon="11.427712286003816"><ele>486.4</ele><time>2026-04-12T10:37:17Z</time></trkpt><trkpt lat="44.220949689728265" lon="11.427594874211282"><ele>487.2</ele><time>2026-04-12T10:37:18Z</time></trkpt><trkpt lat="44.220884083533925" lon="11.427463881589532"><ele>488.0</ele><time>2026-04-12T10:37:19Z</time></trkpt><trkpt lat="44.220834359722154" lon="11.427366862098415"><ele>488.0</ele><time>2026-04-12T10:37:20Z</time></trkpt><trkpt lat="44.22076623897749" lon="11.427239940644542"><ele>487.99999999999994</ele><time>2026-04-12T10:37:22Z</time></trkpt><trkpt lat="44.22073677529371" lon="11.427110401269616"><ele>487.99999999999994</ele><time>2026-04-12T10:37:24Z</time></trkpt><trkpt lat="44.2207466869793" lon="11.426932916901443"><ele>488.0</ele><time>2026-04-12T10:37:26Z</time></trkpt><trkpt lat="44.22075902274285" lon="11.42683558319598"><ele>488.0</ele><time>2026-04-12T10:37:27Z</time></trkpt><trkpt lat="44.22080208062894" lon="11.426703674849998"><ele>489.59999999999997</ele><time>2026-04-12T10:37:29Z</time></trkpt><trkpt lat="44.22092613085748" lon="11.426680943166195"><ele>491.19999999999993</ele><time>2026-04-12T10:37:31Z</time></trkpt><trkpt lat="44.22099835952745" lon="11.426685377834993"><ele>492.8</ele><time>2026-04-12T10:37:32Z</time></trkpt><trkpt lat="44.22109807495554" lon="11.426690322840551"><ele>494.4</ele><time>2026-04-12T10:37:33Z</time></trkpt><trkpt lat="44.22120744769563" lon="11.426736935699717"><ele>496.0</ele><time>2026-04-12T10:37:34Z</time></trkpt><trkpt lat="44.221325255551314" lon="11.42678187907133"><ele>496.00000000000006</ele><time>2026-04-12T10:37:35Z</time></trkpt><trkpt lat="44.22142486986237" lon="11.426803544127587"><ele>496.0</ele><time>2026-04-12T10:37:36Z</time></trkpt><trkpt lat="44.221497118175186" lon="11.426808343757692"><ele>496.0</ele><time>2026-04-12T10:37:37Z</time></trkpt><trkpt lat="44.22156455739009" lon="11.42680607321198"><ele>496.0</ele><time>2026-04-12T10:37:38Z</time></trkpt><trkpt lat="44.221635318274174" lon="11.426785194896746"><ele>496.00000000000006</ele><time>2026-04-12T10:37:39Z</time></trkpt><trkpt lat="44.221699594600196" lon="11.426741724510254"><ele>496.0</ele><time>2026-04-12T10:37:40Z</time></trkpt><trkpt lat="44.22174611904853" lon="11.426674043438954"><ele>496.4</ele><time>2026-04-12T10:37:41Z</time></trkpt><trkpt lat="44.22178844749616" lon="11.426578629635882"><ele>496.8</ele><time>2026-04-12T10:37:42Z</time></trkpt><trkpt lat="44.22183011931567" lon="11.426453123175921"><ele>497.19999999999993</ele><time>2026-04-12T10:37:43Z</time></trkpt><trkpt lat="44.22187723343271" lon="11.426282964864829"><ele>497.59999999999997</ele><time>2026-04-12T10:37:44Z</time></trkpt><trkpt lat="44.22193435948897" lon="11.426112999887806"><ele>498.0</ele><time>2026-04-12T10:37:45Z</time></trkpt><trkpt lat="44.22200151563562" lon="11.42595909007978"><ele>499.79999999999995</ele><time>2026-04-12T10:37:46Z</time></trkpt><trkpt lat="44.222054234054376" lon="11.425811980272822"><ele>501.59999999999997</ele><time>2026-04-12T10:37:47Z</time></trkpt><trkpt lat="44.22211856106487" lon="11.425703161172503"><ele>503.40000000000003</ele><time>2026-04-12T10:37:48Z</time></trkpt><trkpt lat="44.2221608603863" lon="11.425604919658214"><ele>505.20000000000005</ele><time>2026-04-12T10:37:49Z</time></trkpt><trkpt lat="44.22220102489823" lon="11.425490597869844"><ele>507.0</ele><time>2026-04-12T10:37:50Z</time></trkpt><trkpt lat="44.22225756191393" lon="11.425413529932031"><ele>507.0</ele><time>2026-04-12T10:37:50.999Z</time></trkpt><trkpt lat="44.222377064589715" lon="11.42538353884624"><ele>507.0</ele><time>2026-04-12T10:37:52.999Z</time></trkpt><trkpt lat="44.22246406935933" lon="11.425418845558081"><ele>507.0</ele><time>2026-04-12T10:37:53.999Z</time></trkpt><trkpt lat="44.2225880286904" lon="11.425515520763664"><ele>507.0</ele><time>2026-04-12T10:37:54.999Z</time></trkpt><trkpt lat="44.2227060912257" lon="11.425568274267134"><ele>507.0</ele><time>2026-04-12T10:37:55.999Z</time></trkpt><trkpt lat="44.222809742150055" lon="11.425626386965304"><ele>507.00000000000006</ele><time>2026-04-12T10:37:56.999Z</time></trkpt><trkpt lat="44.22291943839689" lon="11.425686817807973"><ele>507.00000000000006</ele><time>2026-04-12T10:37:57.999Z</time></trkpt><trkpt lat="44.22301380182641" lon="11.425728328120892"><ele>507.0</ele><time>2026-04-12T10:37:58.999Z</time></trkpt><trkpt lat="44.22310256549291" lon="11.42575285085263"><ele>507.0</ele><time>2026-04-12T10:37:59.999Z</time></trkpt><trkpt lat="44.22318176087183" lon="11.425761283064809"><ele>507.6666666666667</ele><time>2026-04-12T10:38:00.999Z</time></trkpt><trkpt lat="44.22325240531169" lon="11.42573876842606"><ele>508.33333333333337</ele><time>2026-04-12T10:38:01.999Z</time></trkpt><trkpt lat="44.22334239329292" lon="11.425689528354551"><ele>509.0</ele><time>2026-04-12T10:38:02.999Z</time></trkpt><trkpt lat="44.223442995561044" lon="11.425656063160567"><ele>509.6666666666667</ele><time>2026-04-12T10:38:03.999Z</time></trkpt><trkpt lat="44.22353331506914" lon="11.425622842063728"><ele>510.33333333333337</ele><time>2026-04-12T10:38:04.999Z</time></trkpt><trkpt lat="44.2236045271534" lon="11.425597348964398"><ele>511.0</ele><time>2026-04-12T10:38:05.999Z</time></trkpt><trkpt lat="44.223670077542764" lon="11.425625075233837"><ele>511.00000000000006</ele><time>2026-04-12T10:38:06.999Z</time></trkpt><trkpt lat="44.22374489159996" lon="11.425767209588031"><ele>511.0</ele><time>2026-04-12T10:38:08.999Z</time></trkpt><trkpt lat="44.22375607141433" lon="11.425854327176243"><ele>511.0</ele><time>2026-04-12T10:38:09.999Z</time></trkpt><trkpt lat="44.223763773476236" lon="11.425957993689218"><ele>511.0</ele><time>2026-04-12T10:38:10.999Z</time></trkpt><trkpt lat="44.2237496772905" lon="11.426060109076912"><ele>511.00000000000006</ele><time>2026-04-12T10:38:11.999Z</time></trkpt><trkpt lat="44.22371325997712" lon="11.426167417719332"><ele>511.0</ele><time>2026-04-12T10:38:12.999Z</time></trkpt><trkpt lat="44.22368681619641" lon="11.426271656256485"><ele>510.6666666666667</ele><time>2026-04-12T10:38:13.999Z</time></trkpt><trkpt lat="44.223657217531326" lon="11.426379831902894"><ele>510.33333333333337</ele><time>2026-04-12T10:38:14.999Z</time></trkpt><trkpt lat="44.22365362659126" lon="11.426485629845269"><ele>510.0</ele><time>2026-04-12T10:38:15.999Z</time></trkpt><trkpt lat="44.22366974414665" lon="11.42659762253511"><ele>509.66666666666663</ele><time>2026-04-12T10:38:16.999Z</time></trkpt><trkpt lat="44.22371110056949" lon="11.42670259004808"><ele>509.3333333333333</ele><time>2026-04-12T10:38:17.999Z</time></trkpt><trkpt lat="44.22377807307669" lon="11.426812068921917"><ele>509.0</ele><time>2026-04-12T10:38:18.999Z</time></trkpt><trkpt lat="44.223819637384814" lon="11.426953421132087"><ele>508.99999999999994</ele><time>2026-04-12T10:38:19.999Z</time></trkpt><trkpt lat="44.22385646861317" lon="11.427072744501944"><ele>509.0</ele><time>2026-04-12T10:38:20.999Z</time></trkpt><trkpt lat="44.22390481581578" lon="11.427189846255667"><ele>509.0</ele><time>2026-04-12T10:38:21.999Z</time></trkpt><trkpt lat="44.22392016605092" lon="11.427328303572688"><ele>509.0</ele><time>2026-04-12T10:38:22.999Z</time></trkpt><trkpt lat="44.223935426153766" lon="11.427446497999176"><ele>508.99999999999994</ele><time>2026-04-12T10:38:23.999Z</time></trkpt><trkpt lat="44.223919678815136" lon="11.427534440807788"><ele>509.0</ele><time>2026-04-12T10:38:24.999Z</time></trkpt><trkpt lat="44.22385420146355" lon="11.427673732909081"><ele>510.2</ele><time>2026-04-12T10:38:26.999Z</time></trkpt><trkpt lat="44.223816377196535" lon="11.427798003306012"><ele>511.4</ele><time>2026-04-12T10:38:27.999Z</time></trkpt><trkpt lat="44.22375942301207" lon="11.427918091332726"><ele>512.6</ele><time>2026-04-12T10:38:28.999Z</time></trkpt><trkpt lat="44.22370552329329" lon="11.428029409549348"><ele>513.8</ele><time>2026-04-12T10:38:29.999Z</time></trkpt><trkpt lat="44.22367087522492" lon="11.428141822140923"><ele>515.0</ele><time>2026-04-12T10:38:30.999Z</time></trkpt><trkpt lat="44.22362001785485" lon="11.428247494172215"><ele>516.6</ele><time>2026-04-12T10:38:31.999Z</time></trkpt><trkpt lat="44.223582773675744" lon="11.428352086086763"><ele>518.2</ele><time>2026-04-12T10:38:32.999Z</time></trkpt><trkpt lat="44.22356507356719" lon="11.428465748475729"><ele>519.8</ele><time>2026-04-12T10:38:33.999Z</time></trkpt><trkpt lat="44.22356507502694" lon="11.42858483410509"><ele>521.4</ele><time>2026-04-12T10:38:34.999Z</time></trkpt><trkpt lat="44.22357353954678" lon="11.428751031722033"><ele>523.0</ele><time>2026-04-12T10:38:35.999Z</time></trkpt><trkpt lat="44.22353899929063" lon="11.428904148253938"><ele>524.3333333333334</ele><time>2026-04-12T10:38:36.999Z</time></trkpt><trkpt lat="44.22353701081861" lon="11.42902966877568"><ele>525.6666666666667</ele><time>2026-04-12T10:38:37.999Z</time></trkpt><trkpt lat="44.22352253772498" lon="11.429139865724274"><ele>527.0</ele><time>2026-04-12T10:38:38.999Z</time></trkpt><trkpt lat="44.22353242075319" lon="11.429231136120984"><ele>528.3333333333334</ele><time>2026-04-12T10:38:39.999Z</time></trkpt><trkpt lat="44.22355970044586" lon="11.42939342540341"><ele>529.6666666666666</ele><time>2026-04-12T10:38:41.999Z</time></trkpt><trkpt lat="44.223595821250925" lon="11.429484474078512"><ele>531.0</ele><time>2026-04-12T10:38:42.999Z</time></trkpt><trkpt lat="44.22362364491572" lon="11.429583111193685"><ele>532.2</ele><time>2026-04-12T10:38:43.999Z</time></trkpt><trkpt lat="44.223640143089916" lon="11.429677272938791"><ele>533.4000000000001</ele><time>2026-04-12T10:38:44.998Z</time></trkpt><trkpt lat="44.22364716528615" lon="11.42978048405329"><ele>534.6</ele><time>2026-04-12T10:38:45.998Z</time></trkpt><trkpt lat="44.223646789625874" lon="11.429896342171327"><ele>535.8000000000001</ele><time>2026-04-12T10:38:46.998Z</time></trkpt><trkpt lat="44.223662177519074" lon="11.430063022720088"><ele>537.0</ele><time>2026-04-12T10:38:48.998Z</time></trkpt><trkpt lat="44.22369509724957" lon="11.430221992425748"><ele>537.0</ele><time>2026-04-12T10:38:50.998Z</time></trkpt><trkpt lat="44.223730410604766" lon="11.43038359419359"><ele>537.0</ele><time>2026-04-12T10:38:52.998Z</time></trkpt><trkpt lat="44.22374443253734" lon="11.43047300986381"><ele>537.0</ele><time>2026-04-12T10:38:53.998Z</time></trkpt><trkpt lat="44.22376411219931" lon="11.430644173504712"><ele>537.0</ele><time>2026-04-12T10:38:55.998Z</time></trkpt><trkpt lat="44.22377662953719" lon="11.430738690514135"><ele>537.0</ele><time>2026-04-12T10:38:56.998Z</time></trkpt><trkpt lat="44.223797431400904" lon="11.43091340196543"><ele>538.2</ele><time>2026-04-12T10:38:58.998Z</time></trkpt><trkpt lat="44.22381075509273" lon="11.431009141917787"><ele>539.4000000000001</ele><time>2026-04-12T10:38:59.998Z</time></trkpt><trkpt lat="44.223824837396535" lon="11.431102157307297"><ele>540.5999999999999</ele><time>2026-04-12T10:39:00.998Z</time></trkpt><trkpt lat="44.22384014585123" lon="11.431268279621953"><ele>541.8</ele><time>2026-04-12T10:39:02.998Z</time></trkpt><trkpt lat="44.223842737351006" lon="11.431376150681881"><ele>543.0</ele><time>2026-04-12T10:39:03.998Z</time></trkpt><trkpt lat="44.22384671469722" lon="11.431541953960727"><ele>544.1999999999999</ele><time>2026-04-12T10:39:04.998Z</time></trkpt><trkpt lat="44.22385474116683" lon="11.431730414995478"><ele>545.4</ele><time>2026-04-12T10:39:05.998Z</time></trkpt><trkpt lat="44.22385029022177" lon="11.431886095551993"><ele>546.5999999999999</ele><time>2026-04-12T10:39:06.998Z</time></trkpt><trkpt lat="44.22385426507611" lon="11.43202435461138"><ele>547.8</ele><time>2026-04-12T10:39:07.998Z</time></trkpt><trkpt lat="44.22387095797874" lon="11.432146744616617"><ele>549.0</ele><time>2026-04-12T10:39:08.998Z</time></trkpt><trkpt lat="44.22387377768969" lon="11.432281672430111"><ele>549.8</ele><time>2026-04-12T10:39:09.998Z</time></trkpt><trkpt lat="44.2238839723818" lon="11.432425024398649"><ele>550.5999999999999</ele><time>2026-04-12T10:39:10.998Z</time></trkpt><trkpt lat="44.223918255010226" lon="11.432556593226058"><ele>551.4</ele><time>2026-04-12T10:39:11.998Z</time></trkpt><trkpt lat="44.22396500070936" lon="11.432671324697859"><ele>552.1999999999999</ele><time>2026-04-12T10:39:12.998Z</time></trkpt><trkpt lat="44.22400573073956" lon="11.432772906080205"><ele>553.0</ele><time>2026-04-12T10:39:13.998Z</time></trkpt><trkpt lat="44.2240028884865" lon="11.43289754971615"><ele>555.1999999999999</ele><time>2026-04-12T10:39:14.998Z</time></trkpt><trkpt lat="44.22401060017426" lon="11.43303276289562"><ele>557.4</ele><time>2026-04-12T10:39:16Z</time></trkpt><trkpt lat="44.22399839972749" lon="11.433160592164414"><ele>559.5999999999999</ele><time>2026-04-12T10:39:17Z</time></trkpt><trkpt lat="44.22397098728633" lon="11.43329227722961"><ele>561.8</ele><time>2026-04-12T10:39:18Z</time></trkpt><trkpt lat="44.22395417659994" lon="11.433419240128428"><ele>564.0</ele><time>2026-04-12T10:39:19Z</time></trkpt><trkpt lat="44.22392281552149" lon="11.433519620492106"><ele>564.0</ele><time>2026-04-12T10:39:20Z</time></trkpt><trkpt lat="44.223918618635814" lon="11.433654909799344"><ele>564.0</ele><time>2026-04-12T10:39:22Z</time></trkpt><trkpt lat="44.22397676768833" lon="11.433734289174923"><ele>564.0</ele><time>2026-04-12T10:39:24Z</time></trkpt><trkpt lat="44.22408574787569" lon="11.433728762137655"><ele>564.0</ele><time>2026-04-12T10:39:26Z</time></trkpt><trkpt lat="44.22415371415777" lon="11.433679870920058"><ele>564.0</ele><time>2026-04-12T10:39:27Z</time></trkpt><trkpt lat="44.224235016353624" lon="11.433629721146396"><ele>566.5</ele><time>2026-04-12T10:39:28Z</time></trkpt><trkpt lat="44.224300900717076" lon="11.433620408053192"><ele>569.0</ele><time>2026-04-12T10:39:29Z</time></trkpt><trkpt lat="44.22437585315878" lon="11.433672415593959"><ele>571.5</ele><time>2026-04-12T10:39:31Z</time></trkpt><trkpt lat="44.22446178106882" lon="11.43369380917394"><ele>574.0</ele><time>2026-04-12T10:39:33Z</time></trkpt><trkpt lat="44.224564207162445" lon="11.433651451817857"><ele>576.5</ele><time>2026-04-12T10:39:35Z</time></trkpt><trkpt lat="44.2246025882952" lon="11.433550118890043"><ele>579.0</ele><time>2026-04-12T10:39:37Z</time></trkpt><trkpt lat="44.224594871669886" lon="11.433408711987738"><ele>579.0</ele><time>2026-04-12T10:39:39Z</time></trkpt><trkpt lat="44.22457736468431" lon="11.433259766239864"><ele>579.0</ele><time>2026-04-12T10:39:41Z</time></trkpt><trkpt lat="44.22456453900091" lon="11.433119738781794"><ele>579.0</ele><time>2026-04-12T10:39:43Z</time></trkpt><trkpt lat="44.22457743058331" lon="11.433029910802267"><ele>579.0</ele><time>2026-04-12T10:39:44Z</time></trkpt><trkpt lat="44.22462040125457" lon="11.43292567790105"><ele>579.0</ele><time>2026-04-12T10:39:45Z</time></trkpt><trkpt lat="44.224664699853996" lon="11.432791545143"><ele>578.0</ele><time>2026-04-12T10:39:46Z</time></trkpt><trkpt lat="44.224711788924395" lon="11.432674635709239"><ele>577.0</ele><time>2026-04-12T10:39:47Z</time></trkpt><trkpt lat="44.2247701807055" lon="11.43256476687355"><ele>576.0</ele><time>2026-04-12T10:39:48Z</time></trkpt><trkpt lat="44.224824391479515" lon="11.432464242215755"><ele>575.0</ele><time>2026-04-12T10:39:49Z</time></trkpt><trkpt lat="44.22493322455855" lon="11.432394701063481"><ele>574.0</ele><time>2026-04-12T10:39:50Z</time></trkpt><trkpt lat="44.22505863710334" lon="11.432281228339438"><ele>576.0</ele><time>2026-04-12T10:39:51Z</time></trkpt><trkpt lat="44.22516735820082" lon="11.432154645993348"><ele>578.0</ele><time>2026-04-12T10:39:52Z</time></trkpt><trkpt lat="44.225249773626885" lon="11.432078809198975"><ele>580.0</ele><time>2026-04-12T10:39:53Z</time></trkpt><trkpt lat="44.22533158388845" lon="11.432016988350252"><ele>582.0</ele><time>2026-04-12T10:39:54Z</time></trkpt><trkpt lat="44.22542594005749" lon="11.431964362152602"><ele>584.0</ele><time>2026-04-12T10:39:55Z</time></trkpt><trkpt lat="44.225530693977525" lon="11.431923027732527"><ele>584.0</ele><time>2026-04-12T10:39:55.999Z</time></trkpt><trkpt lat="44.22563907767949" lon="11.431883791924319"><ele>584.0</ele><time>2026-04-12T10:39:56.999Z</time></trkpt><trkpt lat="44.22572970573193" lon="11.431825684747713"><ele>584.0</ele><time>2026-04-12T10:39:57.999Z</time></trkpt><trkpt lat="44.225814201491126" lon="11.43174769636415"><ele>584.0</ele><time>2026-04-12T10:39:58.999Z</time></trkpt><trkpt lat="44.22588446258497" lon="11.431669114624505"><ele>584.0</ele><time>2026-04-12T10:39:59.999Z</time></trkpt><trkpt lat="44.225974559758754" lon="11.431569732884483"><ele>584.6</ele><time>2026-04-12T10:40:00.999Z</time></trkpt><trkpt lat="44.22606132568283" lon="11.431478447228326"><ele>585.2</ele><time>2026-04-12T10:40:01.999Z</time></trkpt><trkpt lat="44.22613254718754" lon="11.431390031628979"><ele>585.8000000000001</ele><time>2026-04-12T10:40:02.999Z</time></trkpt><trkpt lat="44.22620019730627" lon="11.431270432969297"><ele>586.4</ele><time>2026-04-12T10:40:03.999Z</time></trkpt><trkpt lat="44.22626649905459" lon="11.431125340137156"><ele>587.0</ele><time>2026-04-12T10:40:04.999Z</time></trkpt><trkpt lat="44.22633923832197" lon="11.431001019975943"><ele>587.0</ele><time>2026-04-12T10:40:05.999Z</time></trkpt><trkpt lat="44.22642242057249" lon="11.430901840874329"><ele>587.0</ele><time>2026-04-12T10:40:06.999Z</time></trkpt><trkpt lat="44.226494798821896" lon="11.430794650912473"><ele>587.0</ele><time>2026-04-12T10:40:07.999Z</time></trkpt><trkpt lat="44.22656364324547" lon="11.430683105633618"><ele>587.0</ele><time>2026-04-12T10:40:08.999Z</time></trkpt><trkpt lat="44.22663185336781" lon="11.430595653234144"><ele>587.0</ele><time>2026-04-12T10:40:09.999Z</time></trkpt><trkpt lat="44.226702617714594" lon="11.430518812438132"><ele>590.25</ele><time>2026-04-12T10:40:10.999Z</time></trkpt><trkpt lat="44.22677093542879" lon="11.430407997048407"><ele>593.5</ele><time>2026-04-12T10:40:11.999Z</time></trkpt><trkpt lat="44.22684011245579" lon="11.430270840377064"><ele>596.75</ele><time>2026-04-12T10:40:12.999Z</time></trkpt><trkpt lat="44.226912135020484" lon="11.430132437232565"><ele>600.0</ele><time>2026-04-12T10:40:13.999Z</time></trkpt><trkpt lat="44.22697757247727" lon="11.430010551289271"><ele>600.0</ele><time>2026-04-12T10:40:14.999Z</time></trkpt><trkpt lat="44.22703912401629" lon="11.429889413155722"><ele>600.0</ele><time>2026-04-12T10:40:15.999Z</time></trkpt><trkpt lat="44.22708976838949" lon="11.429752568251114"><ele>600.0</ele><time>2026-04-12T10:40:16.999Z</time></trkpt><trkpt lat="44.227142234377126" lon="11.429586091717345"><ele>600.0</ele><time>2026-04-12T10:40:17.999Z</time></trkpt><trkpt lat="44.22718694505247" lon="11.429432960778513"><ele>599.2</ele><time>2026-04-12T10:40:18.999Z</time></trkpt><trkpt lat="44.227224698183" lon="11.42929742699164"><ele>598.4</ele><time>2026-04-12T10:40:19.999Z</time></trkpt><trkpt lat="44.22724972516783" lon="11.429172056555188"><ele>597.6</ele><time>2026-04-12T10:40:20.999Z</time></trkpt><trkpt lat="44.22727640051821" lon="11.429035053733454"><ele>596.8</ele><time>2026-04-12T10:40:21.999Z</time></trkpt><trkpt lat="44.22728584164847" lon="11.428884783270796"><ele>596.0</ele><time>2026-04-12T10:40:22.999Z</time></trkpt><trkpt lat="44.2273054350383" lon="11.42873553618297"><ele>600.2</ele><time>2026-04-12T10:40:23.999Z</time></trkpt><trkpt lat="44.22734357936141" lon="11.428593871479901"><ele>604.4000000000001</ele><time>2026-04-12T10:40:24.999Z</time></trkpt><trkpt lat="44.227368616556156" lon="11.428456423900073"><ele>608.6</ele><time>2026-04-12T10:40:25.999Z</time></trkpt><trkpt lat="44.22744797665118" lon="11.428353153342576"><ele>612.8000000000001</ele><time>2026-04-12T10:40:26.999Z</time></trkpt><trkpt lat="44.22752527601769" lon="11.428224006337876"><ele>617.0</ele><time>2026-04-12T10:40:27.999Z</time></trkpt><trkpt lat="44.22760732834458" lon="11.428107815155343"><ele>617.0</ele><time>2026-04-12T10:40:28.999Z</time></trkpt><trkpt lat="44.22769371025775" lon="11.428014048508725"><ele>617.0</ele><time>2026-04-12T10:40:29.999Z</time></trkpt><trkpt lat="44.227783155708885" lon="11.427912324476052"><ele>617.0</ele><time>2026-04-12T10:40:30.999Z</time></trkpt><trkpt lat="44.22789237104489" lon="11.427803518461793"><ele>617.0</ele><time>2026-04-12T10:40:31.999Z</time></trkpt><trkpt lat="44.22799827655815" lon="11.427696709667705"><ele>616.0</ele><time>2026-04-12T10:40:32.999Z</time></trkpt><trkpt lat="44.22808804066351" lon="11.427598426135182"><ele>615.0</ele><time>2026-04-12T10:40:33.999Z</time></trkpt><trkpt lat="44.228189196581134" lon="11.427487914944718"><ele>614.0</ele><time>2026-04-12T10:40:34.999Z</time></trkpt><trkpt lat="44.228291590857765" lon="11.427402291223148"><ele>613.0</ele><time>2026-04-12T10:40:35.999Z</time></trkpt><trkpt lat="44.2283822602" lon="11.427350694934914"><ele>616.5</ele><time>2026-04-12T10:40:36.999Z</time></trkpt><trkpt lat="44.22849197454296" lon="11.42731827223517"><ele>620.0</ele><time>2026-04-12T10:40:37.999Z</time></trkpt><trkpt lat="44.22860110395349" lon="11.427305808899845"><ele>623.5</ele><time>2026-04-12T10:40:38.999Z</time></trkpt><trkpt lat="44.228731324323" lon="11.427274295771825"><ele>627.0</ele><time>2026-04-12T10:40:39.999Z</time></trkpt><trkpt lat="44.22884811555236" lon="11.427207593439483"><ele>627.0</ele><time>2026-04-12T10:40:40.999Z</time></trkpt><trkpt lat="44.22894036152207" lon="11.427146193261912"><ele>627.0</ele><time>2026-04-12T10:40:41.999Z</time></trkpt><trkpt lat="44.22901692440294" lon="11.427089998546354"><ele>627.0</ele><time>2026-04-12T10:40:42.999Z</time></trkpt><trkpt lat="44.229077845694256" lon="11.427025756097686"><ele>627.0</ele><time>2026-04-12T10:40:43.999Z</time></trkpt><trkpt lat="44.229133178954" lon="11.42692327621465"><ele>627.0</ele><time>2026-04-12T10:40:44.999Z</time></trkpt><trkpt lat="44.22918473049877" lon="11.426786062914257"><ele>628.5</ele><time>2026-04-12T10:40:45.999Z</time></trkpt><trkpt lat="44.22924173939406" lon="11.426613570497983"><ele>630.0</ele><time>2026-04-12T10:40:46.999Z</time></trkpt><trkpt lat="44.2293020635114" lon="11.426458133934162"><ele>631.5</ele><time>2026-04-12T10:40:47.999Z</time></trkpt><trkpt lat="44.229346244311216" lon="11.42630817992551"><ele>633.0</ele><time>2026-04-12T10:40:48.999Z</time></trkpt><trkpt lat="44.229391021054695" lon="11.42611025183704"><ele>633.0</ele><time>2026-04-12T10:40:49.998Z</time></trkpt><trkpt lat="44.22942019325994" lon="11.42590927052268"><ele>633.0</ele><time>2026-04-12T10:40:50.998Z</time></trkpt><trkpt lat="44.22946321611005" lon="11.425719705430607"><ele>633.0</ele><time>2026-04-12T10:40:51.998Z</time></trkpt><trkpt lat="44.2295110159561" lon="11.425518666369987"><ele>633.0</ele><time>2026-04-12T10:40:52.998Z</time></trkpt><trkpt lat="44.22957122811182" lon="11.425274645766718"><ele>633.0</ele><time>2026-04-12T10:40:53.998Z</time></trkpt><trkpt lat="44.229635495741235" lon="11.425098102445268"><ele>633.0</ele><time>2026-04-12T10:40:54.998Z</time></trkpt><trkpt lat="44.229664661320975" lon="11.424925590574023"><ele>633.0</ele><time>2026-04-12T10:40:55.998Z</time></trkpt><trkpt lat="44.229692494572106" lon="11.424795043175594"><ele>633.0</ele><time>2026-04-12T10:40:56.998Z</time></trkpt><trkpt lat="44.22971147161157" lon="11.424665721173884"><ele>633.0</ele><time>2026-04-12T10:40:57.998Z</time></trkpt><trkpt lat="44.22974893549635" lon="11.424547180225748"><ele>633.0</ele><time>2026-04-12T10:40:58.998Z</time></trkpt><trkpt lat="44.229776318461504" lon="11.424449509721251"><ele>633.0</ele><time>2026-04-12T10:40:59.998Z</time></trkpt><trkpt lat="44.22981428352664" lon="11.424359794727021"><ele>633.0</ele><time>2026-04-12T10:41:00.998Z</time></trkpt><trkpt lat="44.229855928231004" lon="11.42425847932319"><ele>633.0</ele><time>2026-04-12T10:41:01.998Z</time></trkpt><trkpt lat="44.22994688381951" lon="11.424187275945938"><ele>633.0</ele><time>2026-04-12T10:41:02.998Z</time></trkpt><trkpt lat="44.230043529661714" lon="11.42409226592958"><ele>635.0</ele><time>2026-04-12T10:41:03.998Z</time></trkpt><trkpt lat="44.230156222641654" lon="11.423959469685196"><ele>637.0</ele><time>2026-04-12T10:41:04.998Z</time></trkpt><trkpt lat="44.23025751037562" lon="11.423868399384029"><ele>639.0</ele><time>2026-04-12T10:41:05.998Z</time></trkpt><trkpt lat="44.23033572649931" lon="11.423791738694113"><ele>641.0</ele><time>2026-04-12T10:41:06.998Z</time></trkpt><trkpt lat="44.23039496799731" lon="11.423705724159154"><ele>643.0</ele><time>2026-04-12T10:41:07.998Z</time></trkpt><trkpt lat="44.230432106940754" lon="11.42361112688131"><ele>643.0</ele><time>2026-04-12T10:41:08.998Z</time></trkpt><trkpt lat="44.23046842901532" lon="11.423495001039338"><ele>643.0</ele><time>2026-04-12T10:41:09.998Z</time></trkpt><trkpt lat="44.230491643993936" lon="11.4233683182688"><ele>643.0</ele><time>2026-04-12T10:41:10.998Z</time></trkpt><trkpt lat="44.23048990036223" lon="11.423234162118241"><ele>643.0</ele><time>2026-04-12T10:41:11.998Z</time></trkpt><trkpt lat="44.23047512568024" lon="11.423070269024112"><ele>643.0</ele><time>2026-04-12T10:41:12.998Z</time></trkpt><trkpt lat="44.23045577222764" lon="11.422884363414306"><ele>643.0</ele><time>2026-04-12T10:41:13.998Z</time></trkpt><trkpt lat="44.23043089359432" lon="11.422712937791824"><ele>643.0</ele><time>2026-04-12T10:41:14.998Z</time></trkpt><trkpt lat="44.230422442083075" lon="11.422571934918425"><ele>643.0</ele><time>2026-04-12T10:41:15.998Z</time></trkpt><trkpt lat="44.23043010890288" lon="11.42243888201639"><ele>643.0</ele><time>2026-04-12T10:41:16.998Z</time></trkpt><trkpt lat="44.23042926014252" lon="11.422325063690163"><ele>643.0</ele><time>2026-04-12T10:41:17.998Z</time></trkpt><trkpt lat="44.23042469309208" lon="11.422230474470293"><ele>641.4</ele><time>2026-04-12T10:41:18.998Z</time></trkpt><trkpt lat="44.23046699534692" lon="11.422138827091839"><ele>639.8</ele><time>2026-04-12T10:41:19.998Z</time></trkpt><trkpt lat="44.23052355259734" lon="11.422049768901068"><ele>638.2</ele><time>2026-04-12T10:41:20.998Z</time></trkpt><trkpt lat="44.23058397342574" lon="11.42193065139141"><ele>636.6</ele><time>2026-04-12T10:41:22Z</time></trkpt><trkpt lat="44.23066575923297" lon="11.421882831113212"><ele>635.0</ele><time>2026-04-12T10:41:23Z</time></trkpt><trkpt lat="44.230765885698574" lon="11.421824280708949"><ele>640.5</ele><time>2026-04-12T10:41:24Z</time></trkpt><trkpt lat="44.23087023710244" lon="11.421730867604905"><ele>646.0</ele><time>2026-04-12T10:41:25Z</time></trkpt><trkpt lat="44.23097156430502" lon="11.421647092155458"><ele>651.5</ele><time>2026-04-12T10:41:26Z</time></trkpt><trkpt lat="44.231054963092824" lon="11.421543305709337"><ele>657.0</ele><time>2026-04-12T10:41:27Z</time></trkpt><trkpt lat="44.231142072345406" lon="11.421419729941022"><ele>655.6</ele><time>2026-04-12T10:41:28Z</time></trkpt><trkpt lat="44.23119617542443" lon="11.421302179388917"><ele>654.2</ele><time>2026-04-12T10:41:29Z</time></trkpt><trkpt lat="44.231222377245096" lon="11.4212026290299"><ele>652.8</ele><time>2026-04-12T10:41:30Z</time></trkpt><trkpt lat="44.231249798011504" lon="11.421081561584556"><ele>651.4</ele><time>2026-04-12T10:41:31Z</time></trkpt><trkpt lat="44.231325899386064" lon="11.420956258334716"><ele>650.0</ele><time>2026-04-12T10:41:32Z</time></trkpt><trkpt lat="44.23138664778809" lon="11.42079859024476"><ele>650.0</ele><time>2026-04-12T10:41:33Z</time></trkpt><trkpt lat="44.231447495148124" lon="11.420687429016942"><ele>650.0</ele><time>2026-04-12T10:41:34Z</time></trkpt><trkpt lat="44.23148448794666" lon="11.420571758251153"><ele>650.0</ele><time>2026-04-12T10:41:35Z</time></trkpt><trkpt lat="44.23150590230956" lon="11.420427293533514"><ele>650.0</ele><time>2026-04-12T10:41:36Z</time></trkpt><trkpt lat="44.231508658543575" lon="11.420281396908404"><ele>650.0</ele><time>2026-04-12T10:41:37Z</time></trkpt><trkpt lat="44.23149634346504" lon="11.420161729819718"><ele>651.8</ele><time>2026-04-12T10:41:38Z</time></trkpt><trkpt lat="44.23148344916464" lon="11.420049397138689"><ele>653.6</ele><time>2026-04-12T10:41:39Z</time></trkpt><trkpt lat="44.23145914647457" lon="11.419960048764658"><ele>655.4000000000001</ele><time>2026-04-12T10:41:40Z</time></trkpt><trkpt lat="44.23140237303958" lon="11.41987431918723"><ele>657.2</ele><time>2026-04-12T10:41:41Z</time></trkpt><trkpt lat="44.23132046735783" lon="11.419786999043508"><ele>659.0</ele><time>2026-04-12T10:41:42Z</time></trkpt><trkpt lat="44.231225499485035" lon="11.419697454694461"><ele>661.6</ele><time>2026-04-12T10:41:43Z</time></trkpt><trkpt lat="44.231148595596785" lon="11.419585389750807"><ele>664.2</ele><time>2026-04-12T10:41:44Z</time></trkpt><trkpt lat="44.23107920812847" lon="11.419503286584952"><ele>666.8000000000001</ele><time>2026-04-12T10:41:45Z</time></trkpt><trkpt lat="44.231006433536336" lon="11.419403808113312"><ele>669.4000000000001</ele><time>2026-04-12T10:41:46Z</time></trkpt><trkpt lat="44.230936256424144" lon="11.419273529470617"><ele>672.0</ele><time>2026-04-12T10:41:47Z</time></trkpt><trkpt lat="44.23087824713768" lon="11.419131961484489"><ele>672.0</ele><time>2026-04-12T10:41:48Z</time></trkpt><trkpt lat="44.23084449174566" lon="11.41900471296565"><ele>672.0</ele><time>2026-04-12T10:41:49Z</time></trkpt><trkpt lat="44.23080199925443" lon="11.418853117178985"><ele>672.0</ele><time>2026-04-12T10:41:50Z</time></trkpt><trkpt lat="44.23074241584339" lon="11.418713602640391"><ele>672.0</ele><time>2026-04-12T10:41:51Z</time></trkpt><trkpt lat="44.23069655801495" lon="11.418595096818187"><ele>672.0</ele><time>2026-04-12T10:41:52Z</time></trkpt><trkpt lat="44.23066015971355" lon="11.418477728474066"><ele>671.25</ele><time>2026-04-12T10:41:53Z</time></trkpt><trkpt lat="44.23057399024743" lon="11.41838866140888"><ele>670.5</ele><time>2026-04-12T10:41:54Z</time></trkpt><trkpt lat="44.23046364132017" lon="11.418266877552426"><ele>669.75</ele><time>2026-04-12T10:41:55Z</time></trkpt><trkpt lat="44.230342263347914" lon="11.41814719655585"><ele>669.0</ele><time>2026-04-12T10:41:56Z</time></trkpt><trkpt lat="44.23027114876501" lon="11.418030235892527"><ele>672.75</ele><time>2026-04-12T10:41:57Z</time></trkpt><trkpt lat="44.23020416716671" lon="11.417911691627161"><ele>676.5</ele><time>2026-04-12T10:41:58Z</time></trkpt><trkpt lat="44.230142633258694" lon="11.417766499878436"><ele>680.25</ele><time>2026-04-12T10:41:58.999Z</time></trkpt><trkpt lat="44.230065775197936" lon="11.417618756021463"><ele>684.0</ele><time>2026-04-12T10:41:59.999Z</time></trkpt><trkpt lat="44.23000228416462" lon="11.417505507688146"><ele>684.0</ele><time>2026-04-12T10:42:00.999Z</time></trkpt><trkpt lat="44.229953489505405" lon="11.417415246756468"><ele>684.0</ele><time>2026-04-12T10:42:01.999Z</time></trkpt><trkpt lat="44.22988384433522" lon="11.417345823619431"><ele>684.0</ele><time>2026-04-12T10:42:02.999Z</time></trkpt><trkpt lat="44.22977909104664" lon="11.417275961054063"><ele>684.0</ele><time>2026-04-12T10:42:03.999Z</time></trkpt><trkpt lat="44.229695789530524" lon="11.417153307424678"><ele>684.0</ele><time>2026-04-12T10:42:04.999Z</time></trkpt><trkpt lat="44.22962875337973" lon="11.417042341738787"><ele>685.5</ele><time>2026-04-12T10:42:05.999Z</time></trkpt><trkpt lat="44.22954686761946" lon="11.416904331401817"><ele>687.0</ele><time>2026-04-12T10:42:06.999Z</time></trkpt><trkpt lat="44.2294425366896" lon="11.416760077524883"><ele>688.5</ele><time>2026-04-12T10:42:07.999Z</time></trkpt><trkpt lat="44.22936193042853" lon="11.416672968452787"><ele>690.0</ele><time>2026-04-12T10:42:08.999Z</time></trkpt><trkpt lat="44.22928201363729" lon="11.416606234227794"><ele>690.0</ele><time>2026-04-12T10:42:09.999Z</time></trkpt><trkpt lat="44.22920936759627" lon="11.416560575358657"><ele>690.0</ele><time>2026-04-12T10:42:10.999Z</time></trkpt><trkpt lat="44.229147313689374" lon="11.416507519057248"><ele>690.0</ele><time>2026-04-12T10:42:11.999Z</time></trkpt><trkpt lat="44.2291131253591" lon="11.41641218479663"><ele>690.0</ele><time>2026-04-12T10:42:13.999Z</time></trkpt><trkpt lat="44.22919803665847" lon="11.416395452653902"><ele>690.0</ele><time>2026-04-12T10:42:16.999Z</time></trkpt><trkpt lat="44.22932919887135" lon="11.416399012153915"><ele>690.0</ele><time>2026-04-12T10:42:18.999Z</time></trkpt><trkpt lat="44.229422241892294" lon="11.41645794730268"><ele>690.0</ele><time>2026-04-12T10:42:19.999Z</time></trkpt><trkpt lat="44.22951113191962" lon="11.41651628108989"><ele>690.0</ele><time>2026-04-12T10:42:20.999Z</time></trkpt><trkpt lat="44.22961386327436" lon="11.416564406584147"><ele>690.0</ele><time>2026-04-12T10:42:21.999Z</time></trkpt><trkpt lat="44.22974248697216" lon="11.416600087477065"><ele>690.0</ele><time>2026-04-12T10:42:22.999Z</time></trkpt><trkpt lat="44.22988181603701" lon="11.416621120510682"><ele>692.0</ele><time>2026-04-12T10:42:23.999Z</time></trkpt><trkpt lat="44.23000311793475" lon="11.416645774793228"><ele>694.0</ele><time>2026-04-12T10:42:24.999Z</time></trkpt><trkpt lat="44.23011837564604" lon="11.416687955252211"><ele>696.0</ele><time>2026-04-12T10:42:25.999Z</time></trkpt><trkpt lat="44.23022264562937" lon="11.416708791998548"><ele>698.0</ele><time>2026-04-12T10:42:26.999Z</time></trkpt><trkpt lat="44.230300136416396" lon="11.416749762543104"><ele>700.0</ele><time>2026-04-12T10:42:27.999Z</time></trkpt><trkpt lat="44.2303686807634" lon="11.416794012497649"><ele>700.0</ele><time>2026-04-12T10:42:28.999Z</time></trkpt><trkpt lat="44.230423843210446" lon="11.41684601604255"><ele>700.0</ele><time>2026-04-12T10:42:29.999Z</time></trkpt><trkpt lat="44.23048499992671" lon="11.41693029133588"><ele>700.0</ele><time>2026-04-12T10:42:30.999Z</time></trkpt><trkpt lat="44.230553368013865" lon="11.416998016287232"><ele>700.0</ele><time>2026-04-12T10:42:31.999Z</time></trkpt><trkpt lat="44.23062437512495" lon="11.417021813517678"><ele>700.0</ele><time>2026-04-12T10:42:32.999Z</time></trkpt><trkpt lat="44.23071146698122" lon="11.41704937945088"><ele>700.0</ele><time>2026-04-12T10:42:33.999Z</time></trkpt><trkpt lat="44.230808893874006" lon="11.417085106132014"><ele>702.2</ele><time>2026-04-12T10:42:34.999Z</time></trkpt><trkpt lat="44.23087604741644" lon="11.417116478450462"><ele>704.4</ele><time>2026-04-12T10:42:35.999Z</time></trkpt><trkpt lat="44.23095934629136" lon="11.417131175530777"><ele>706.5999999999999</ele><time>2026-04-12T10:42:36.999Z</time></trkpt><trkpt lat="44.231054935890384" lon="11.417112032734353"><ele>708.8</ele><time>2026-04-12T10:42:37.999Z</time></trkpt><trkpt lat="44.23116796215333" lon="11.41707106017184"><ele>711.0</ele><time>2026-04-12T10:42:38.999Z</time></trkpt><trkpt lat="44.23128911695298" lon="11.41707667716067"><ele>711.0</ele><time>2026-04-12T10:42:39.999Z</time></trkpt><trkpt lat="44.231350286906846" lon="11.417104590562259"><ele>711.0</ele><time>2026-04-12T10:42:40.999Z</time></trkpt><trkpt lat="44.2314139601646" lon="11.417137170383086"><ele>711.0</ele><time>2026-04-12T10:42:41.999Z</time></trkpt><trkpt lat="44.23147249081368" lon="11.417183623063615"><ele>711.0</ele><time>2026-04-12T10:42:42.999Z</time></trkpt><trkpt lat="44.23151446546399" lon="11.417286017985232"><ele>711.0</ele><time>2026-04-12T10:42:43.999Z</time></trkpt><trkpt lat="44.23150687727677" lon="11.417414874306365"><ele>711.0</ele><time>2026-04-12T10:42:44.999Z</time></trkpt><trkpt lat="44.23153724515192" lon="11.417543487641225"><ele>711.8</ele><time>2026-04-12T10:42:45.999Z</time></trkpt><trkpt lat="44.23155859578783" lon="11.417661721376916"><ele>712.5999999999999</ele><time>2026-04-12T10:42:46.999Z</time></trkpt><trkpt lat="44.23161742708663" lon="11.417749285571965"><ele>713.4</ele><time>2026-04-12T10:42:47.999Z</time></trkpt><trkpt lat="44.231698642939335" lon="11.417829945334853"><ele>714.2</ele><time>2026-04-12T10:42:48.999Z</time></trkpt><trkpt lat="44.23180961955457" lon="11.41794172672344"><ele>715.0</ele><time>2026-04-12T10:42:49.999Z</time></trkpt><trkpt lat="44.23189995942045" lon="11.41803360440639"><ele>716.6</ele><time>2026-04-12T10:42:50.999Z</time></trkpt><trkpt lat="44.231990218385384" lon="11.418099551916736"><ele>718.2</ele><time>2026-04-12T10:42:51.998Z</time></trkpt><trkpt lat="44.2321046872708" lon="11.418172871114413"><ele>719.8</ele><time>2026-04-12T10:42:52.998Z</time></trkpt><trkpt lat="44.232189337455075" lon="11.41823372899976"><ele>721.4</ele><time>2026-04-12T10:42:53.998Z</time></trkpt><trkpt lat="44.23226180008207" lon="11.418307584550586"><ele>723.0</ele><time>2026-04-12T10:42:54.998Z</time></trkpt><trkpt lat="44.232343864553755" lon="11.418391691080384"><ele>723.0</ele><time>2026-04-12T10:42:55.998Z</time></trkpt><trkpt lat="44.23245866570511" lon="11.418450847844076"><ele>723.0</ele><time>2026-04-12T10:42:56.998Z</time></trkpt><trkpt lat="44.23261468539808" lon="11.418506036176888"><ele>723.0</ele><time>2026-04-12T10:42:57.998Z</time></trkpt><trkpt lat="44.23274114582095" lon="11.41855120317871"><ele>723.0</ele><time>2026-04-12T10:42:58.998Z</time></trkpt><trkpt lat="44.23283723726952" lon="11.418599902788605"><ele>723.0</ele><time>2026-04-12T10:42:59.998Z</time></trkpt><trkpt lat="44.23291633772672" lon="11.418666234639986"><ele>723.0</ele><time>2026-04-12T10:43:00.998Z</time></trkpt><trkpt lat="44.232975005998746" lon="11.418715055354797"><ele>723.0</ele><time>2026-04-12T10:43:01.998Z</time></trkpt><trkpt lat="44.23307962885582" lon="11.418756475825061"><ele>723.0</ele><time>2026-04-12T10:43:03.998Z</time></trkpt><trkpt lat="44.233175058957194" lon="11.41878686003352"><ele>723.0</ele><time>2026-04-12T10:43:05.998Z</time></trkpt><trkpt lat="44.2332659561908" lon="11.418837950007555"><ele>723.4</ele><time>2026-04-12T10:43:07.998Z</time></trkpt><trkpt lat="44.23335379869603" lon="11.418889088639336"><ele>723.8</ele><time>2026-04-12T10:43:09.998Z</time></trkpt><trkpt lat="44.233452222213465" lon="11.418946488716461"><ele>724.2</ele><time>2026-04-12T10:43:11.998Z</time></trkpt><trkpt lat="44.2335198754163" lon="11.41903583834456"><ele>724.6</ele><time>2026-04-12T10:43:13.998Z</time></trkpt><trkpt lat="44.23358594878864" lon="11.419147939602915"><ele>725.0</ele><time>2026-04-12T10:43:15.998Z</time></trkpt><trkpt lat="44.23363724883033" lon="11.419284316372073"><ele>725.0</ele><time>2026-04-12T10:43:17.998Z</time></trkpt><trkpt lat="44.23366170819548" lon="11.419437443150128"><ele>725.0</ele><time>2026-04-12T10:43:19.998Z</time></trkpt><trkpt lat="44.23368006272277" lon="11.419542081357784"><ele>725.0</ele><time>2026-04-12T10:43:20.998Z</time></trkpt><trkpt lat="44.23366955275549" lon="11.419637786824735"><ele>725.0</ele><time>2026-04-12T10:43:21.998Z</time></trkpt><trkpt lat="44.23363521329391" lon="11.419816112486824"><ele>725.0</ele><time>2026-04-12T10:43:23.998Z</time></trkpt><trkpt lat="44.23362138075579" lon="11.419927543070772"><ele>725.0</ele><time>2026-04-12T10:43:24.998Z</time></trkpt><trkpt lat="44.23358200547421" lon="11.420048819261268"><ele>725.0</ele><time>2026-04-12T10:43:25.998Z</time></trkpt><trkpt lat="44.233523007241644" lon="11.420145342187451"><ele>725.0</ele><time>2026-04-12T10:43:26.998Z</time></trkpt><trkpt lat="44.233479776943504" lon="11.420229449871782"><ele>725.0</ele><time>2026-04-12T10:43:28Z</time></trkpt><trkpt lat="44.23345102425052" lon="11.420320649614574"><ele>725.0</ele><time>2026-04-12T10:43:29Z</time></trkpt><trkpt lat="44.2334215827144" lon="11.420398474084529"><ele>725.0</ele><time>2026-04-12T10:43:30Z</time></trkpt><trkpt lat="44.233414646994994" lon="11.420566832749262"><ele>725.5</ele><time>2026-04-12T10:43:32Z</time></trkpt><trkpt lat="44.233432970068925" lon="11.420671100135005"><ele>726.0</ele><time>2026-04-12T10:43:33Z</time></trkpt><trkpt lat="44.23346632696726" lon="11.420770769067104"><ele>726.5</ele><time>2026-04-12T10:43:34Z</time></trkpt><trkpt lat="44.23350812801862" lon="11.420875678076653"><ele>727.0</ele><time>2026-04-12T10:43:35Z</time></trkpt><trkpt lat="44.233550264898966" lon="11.420966286703484"><ele>727.5</ele><time>2026-04-12T10:43:36Z</time></trkpt><trkpt lat="44.23360605031327" lon="11.421024980538286"><ele>728.0</ele><time>2026-04-12T10:43:37Z</time></trkpt><trkpt lat="44.23369295088579" lon="11.421092529953484"><ele>728.0</ele><time>2026-04-12T10:43:38Z</time></trkpt><trkpt lat="44.23378165980209" lon="11.421178931322064"><ele>728.0</ele><time>2026-04-12T10:43:39Z</time></trkpt><trkpt lat="44.23382729217988" lon="11.421269520856633"><ele>728.0</ele><time>2026-04-12T10:43:40Z</time></trkpt><trkpt lat="44.2338205710254" lon="11.421389630050177"><ele>728.0</ele><time>2026-04-12T10:43:41Z</time></trkpt><trkpt lat="44.233829838895886" lon="11.421530559332835"><ele>728.0</ele><time>2026-04-12T10:43:42Z</time></trkpt><trkpt lat="44.23386133384708" lon="11.421672267646684"><ele>727.4</ele><time>2026-04-12T10:43:43Z</time></trkpt><trkpt lat="44.23389116091628" lon="11.42180301707044"><ele>726.8</ele><time>2026-04-12T10:43:44Z</time></trkpt><trkpt lat="44.23394137311238" lon="11.421927044146416"><ele>726.2</ele><time>2026-04-12T10:43:45Z</time></trkpt><trkpt lat="44.23395336680004" lon="11.422059537257145"><ele>725.6</ele><time>2026-04-12T10:43:46Z</time></trkpt><trkpt lat="44.233957319687505" lon="11.422189651807756"><ele>725.0</ele><time>2026-04-12T10:43:47Z</time></trkpt><trkpt lat="44.23394287174821" lon="11.422329907946063"><ele>724.6</ele><time>2026-04-12T10:43:48Z</time></trkpt><trkpt lat="44.23395050895918" lon="11.42244731987532"><ele>724.2</ele><time>2026-04-12T10:43:49Z</time></trkpt><trkpt lat="44.233960127512255" lon="11.422540301524734"><ele>723.8</ele><time>2026-04-12T10:43:50Z</time></trkpt><trkpt lat="44.23405163345551" lon="11.422624618397306"><ele>723.4</ele><time>2026-04-12T10:43:52Z</time></trkpt><trkpt lat="44.23416317569463" lon="11.422573507396121"><ele>723.0</ele><time>2026-04-12T10:43:54Z</time></trkpt><trkpt lat="44.23422214546076" lon="11.422515128423967"><ele>726.0</ele><time>2026-04-12T10:43:55Z</time></trkpt><trkpt lat="44.234283064643655" lon="11.422433098277633"><ele>729.0</ele><time>2026-04-12T10:43:56Z</time></trkpt><trkpt lat="44.234356115366964" lon="11.422323035122169"><ele>732.0</ele><time>2026-04-12T10:43:57Z</time></trkpt><trkpt lat="44.23444262946678" lon="11.42220626783923"><ele>735.0</ele><time>2026-04-12T10:43:58Z</time></trkpt><trkpt lat="44.23453662593439" lon="11.422119909526163"><ele>738.0</ele><time>2026-04-12T10:43:59Z</time></trkpt><trkpt lat="44.2346353829159" lon="11.42204371079691"><ele>739.75</ele><time>2026-04-12T10:44:00Z</time></trkpt><trkpt lat="44.234750082429485" lon="11.421963334579349"><ele>741.5</ele><time>2026-04-12T10:44:01Z</time></trkpt><trkpt lat="44.23483940167878" lon="11.421860945537357"><ele>743.25</ele><time>2026-04-12T10:44:02Z</time></trkpt><trkpt lat="44.23493212576459" lon="11.421772111361028"><ele>745.0</ele><time>2026-04-12T10:44:02.999Z</time></trkpt><trkpt lat="44.23502334092005" lon="11.42171355323535"><ele>745.8</ele><time>2026-04-12T10:44:03.999Z</time></trkpt><trkpt lat="44.23510029023737" lon="11.421652514459597"><ele>746.6</ele><time>2026-04-12T10:44:04.999Z</time></trkpt><trkpt lat="44.23517226812934" lon="11.421608718259424"><ele>747.4000000000001</ele><time>2026-04-12T10:44:05.999Z</time></trkpt><trkpt lat="44.23523776344012" lon="11.421524504076011"><ele>748.2</ele><time>2026-04-12T10:44:06.999Z</time></trkpt><trkpt lat="44.23532253747514" lon="11.421449147253922"><ele>749.0</ele><time>2026-04-12T10:44:07.999Z</time></trkpt><trkpt lat="44.23539795076778" lon="11.421367766836802"><ele>749.8000000000001</ele><time>2026-04-12T10:44:08.999Z</time></trkpt><trkpt lat="44.23550508625652" lon="11.421261103959555"><ele>750.6</ele><time>2026-04-12T10:44:09.999Z</time></trkpt><trkpt lat="44.23563762642179" lon="11.421211809224351"><ele>751.4</ele><time>2026-04-12T10:44:10.999Z</time></trkpt><trkpt lat="44.235722518791526" lon="11.421182685605308"><ele>752.2</ele><time>2026-04-12T10:44:11.999Z</time></trkpt><trkpt lat="44.235799095103374" lon="11.421155649922175"><ele>753.0</ele><time>2026-04-12T10:44:12.999Z</time></trkpt><trkpt lat="44.23587661968056" lon="11.42119384522194"><ele>753.0</ele><time>2026-04-12T10:44:13.999Z</time></trkpt><trkpt lat="44.23595427561667" lon="11.421216961269284"><ele>753.0</ele><time>2026-04-12T10:44:14.999Z</time></trkpt><trkpt lat="44.23602191525438" lon="11.421231838174476"><ele>753.0</ele><time>2026-04-12T10:44:15.999Z</time></trkpt><trkpt lat="44.23612120268451" lon="11.42127736785481"><ele>753.0</ele><time>2026-04-12T10:44:17.999Z</time></trkpt><trkpt lat="44.23620910777208" lon="11.421247895101382"><ele>753.0</ele><time>2026-04-12T10:44:19.999Z</time></trkpt><trkpt lat="44.23630762271157" lon="11.421217303377862"><ele>753.0</ele><time>2026-04-12T10:44:20.999Z</time></trkpt><trkpt lat="44.23639668356566" lon="11.421173462459405"><ele>751.0</ele><time>2026-04-12T10:44:21.999Z</time></trkpt><trkpt lat="44.236503899835945" lon="11.421101880588628"><ele>749.0</ele><time>2026-04-12T10:44:22.999Z</time></trkpt><trkpt lat="44.23662856471256" lon="11.421011686440746"><ele>747.0</ele><time>2026-04-12T10:44:23.999Z</time></trkpt><trkpt lat="44.23674131865906" lon="11.42095593661575"><ele>745.0</ele><time>2026-04-12T10:44:24.999Z</time></trkpt><trkpt lat="44.23684412887606" lon="11.420916591496717"><ele>745.0</ele><time>2026-04-12T10:44:25.999Z</time></trkpt><trkpt lat="44.23693968724679" lon="11.420882778565813"><ele>745.0</ele><time>2026-04-12T10:44:26.999Z</time></trkpt><trkpt lat="44.23700913920277" lon="11.42086515835426"><ele>745.0</ele><time>2026-04-12T10:44:27.999Z</time></trkpt><trkpt lat="44.237102230757394" lon="11.420858786835147"><ele>745.0</ele><time>2026-04-12T10:44:29.999Z</time></trkpt><trkpt lat="44.23718231648113" lon="11.42090921850004"><ele>745.0</ele><time>2026-04-12T10:44:31.999Z</time></trkpt><trkpt lat="44.23724004339543" lon="11.420964832842223"><ele>745.0</ele><time>2026-04-12T10:44:32.999Z</time></trkpt><trkpt lat="44.23731025266156" lon="11.421026998955599"><ele>743.5</ele><time>2026-04-12T10:44:33.999Z</time></trkpt><trkpt lat="44.2373910604204" lon="11.421093739599488"><ele>742.0</ele><time>2026-04-12T10:44:34.999Z</time></trkpt><trkpt lat="44.237459055801104" lon="11.421173862332195"><ele>740.5</ele><time>2026-04-12T10:44:35.999Z</time></trkpt><trkpt lat="44.237506052780525" lon="11.42125488933691"><ele>739.0</ele><time>2026-04-12T10:44:36.999Z</time></trkpt><trkpt lat="44.23755183686073" lon="11.421322714358583"><ele>737.5</ele><time>2026-04-12T10:44:37.999Z</time></trkpt><trkpt lat="44.23763962080638" lon="11.421415997922507"><ele>736.0</ele><time>2026-04-12T10:44:39.999Z</time></trkpt><trkpt lat="44.237753238751694" lon="11.421459884925719"><ele>735.3333333333334</ele><time>2026-04-12T10:44:41.999Z</time></trkpt><trkpt lat="44.23783017813969" lon="11.421468831679714"><ele>734.6666666666667</ele><time>2026-04-12T10:44:42.999Z</time></trkpt><trkpt lat="44.237919953847374" lon="11.421473170289927"><ele>734.0</ele><time>2026-04-12T10:44:43.999Z</time></trkpt><trkpt lat="44.23800039176914" lon="11.421461883910517"><ele>733.3333333333334</ele><time>2026-04-12T10:44:44.999Z</time></trkpt><trkpt lat="44.238087137605184" lon="11.421430241637673"><ele>732.6666666666666</ele><time>2026-04-12T10:44:45.999Z</time></trkpt><trkpt lat="44.23816322111664" lon="11.421403417071618"><ele>732.0</ele><time>2026-04-12T10:44:46.999Z</time></trkpt><trkpt lat="44.23823759041942" lon="11.421393049033057"><ele>731.8333333333334</ele><time>2026-04-12T10:44:47.999Z</time></trkpt><trkpt lat="44.238310262966756" lon="11.421403115968817"><ele>731.6666666666666</ele><time>2026-04-12T10:44:48.999Z</time></trkpt><trkpt lat="44.23837640814646" lon="11.421426608514368"><ele>731.5</ele><time>2026-04-12T10:44:49.999Z</time></trkpt><trkpt lat="44.238494230182845" lon="11.421447824012056"><ele>731.3333333333333</ele><time>2026-04-12T10:44:51.999Z</time></trkpt><trkpt lat="44.2385705800058" lon="11.421441416291213"><ele>731.1666666666666</ele><time>2026-04-12T10:44:52.999Z</time></trkpt><trkpt lat="44.238638511501215" lon="11.421426195178851"><ele>731.0</ele><time>2026-04-12T10:44:53.999Z</time></trkpt><trkpt lat="44.23874869663712" lon="11.421393675121118"><ele>731.0</ele><time>2026-04-12T10:44:55.999Z</time></trkpt><trkpt lat="44.238871749323394" lon="11.421366933694298"><ele>731.0</ele><time>2026-04-12T10:44:57.998Z</time></trkpt><trkpt lat="44.23899638118174" lon="11.421365316285783"><ele>731.0</ele><time>2026-04-12T10:44:59.998Z</time></trkpt><trkpt lat="44.239063789130526" lon="11.421371272255923"><ele>731.0</ele><time>2026-04-12T10:45:00.998Z</time></trkpt><trkpt lat="44.239146518953895" lon="11.42138909690397"><ele>731.0</ele><time>2026-04-12T10:45:01.998Z</time></trkpt><trkpt lat="44.23925963781166" lon="11.421435399611159"><ele>730.75</ele><time>2026-04-12T10:45:02.998Z</time></trkpt><trkpt lat="44.23937964775495" lon="11.42149431067299"><ele>730.5</ele><time>2026-04-12T10:45:03.998Z</time></trkpt><trkpt lat="44.239502908785404" lon="11.421591938152268"><ele>730.25</ele><time>2026-04-12T10:45:04.998Z</time></trkpt><trkpt lat="44.23963079726186" lon="11.421695040030146"><ele>730.0</ele><time>2026-04-12T10:45:05.998Z</time></trkpt><trkpt lat="44.23973496126466" lon="11.4217866784906"><ele>730.0</ele><time>2026-04-12T10:45:06.998Z</time></trkpt><trkpt lat="44.239799398157196" lon="11.421895136815216"><ele>730.0</ele><time>2026-04-12T10:45:07.998Z</time></trkpt><trkpt lat="44.23984732769954" lon="11.421979989815208"><ele>730.0</ele><time>2026-04-12T10:45:08.998Z</time></trkpt><trkpt lat="44.23989213795044" lon="11.422056278801263"><ele>730.0</ele><time>2026-04-12T10:45:09.998Z</time></trkpt><trkpt lat="44.239946379515004" lon="11.42214758450519"><ele>730.0</ele><time>2026-04-12T10:45:10.998Z</time></trkpt><trkpt lat="44.24000520952985" lon="11.422275217468444"><ele>730.0</ele><time>2026-04-12T10:45:11.998Z</time></trkpt><trkpt lat="44.24007958163294" lon="11.422421845720303"><ele>730.6</ele><time>2026-04-12T10:45:12.998Z</time></trkpt><trkpt lat="44.240134250100624" lon="11.422560299287642"><ele>731.2</ele><time>2026-04-12T10:45:13.998Z</time></trkpt><trkpt lat="44.2401817377993" lon="11.422682995413961"><ele>731.8</ele><time>2026-04-12T10:45:14.998Z</time></trkpt><trkpt lat="44.24023257084406" lon="11.42277834690566"><ele>732.4</ele><time>2026-04-12T10:45:15.998Z</time></trkpt><trkpt lat="44.2402685135327" lon="11.422888444718676"><ele>733.0</ele><time>2026-04-12T10:45:16.998Z</time></trkpt><trkpt lat="44.24030782030706" lon="11.422980531656833"><ele>732.5999999999999</ele><time>2026-04-12T10:45:17.998Z</time></trkpt><trkpt lat="44.240354758754904" lon="11.423073004165934"><ele>732.1999999999999</ele><time>2026-04-12T10:45:18.998Z</time></trkpt><trkpt lat="44.24040809868315" lon="11.42315906170588"><ele>731.8</ele><time>2026-04-12T10:45:19.998Z</time></trkpt><trkpt lat="44.24046552585614" lon="11.42324499610682"><ele>731.4</ele><time>2026-04-12T10:45:20.998Z</time></trkpt><trkpt lat="44.24054282357006" lon="11.423342883077163"><ele>731.0</ele><time>2026-04-12T10:45:21.998Z</time></trkpt><trkpt lat="44.24064977603431" lon="11.423457055423732"><ele>731.0</ele><time>2026-04-12T10:45:22.998Z</time></trkpt><trkpt lat="44.24074824943024" lon="11.42353872684616"><ele>731.0</ele><time>2026-04-12T10:45:23.998Z</time></trkpt><trkpt lat="44.24083934486777" lon="11.423606653611873"><ele>731.0</ele><time>2026-04-12T10:45:24.998Z</time></trkpt><trkpt lat="44.24092138691704" lon="11.423668242833227"><ele>731.0</ele><time>2026-04-12T10:45:25.998Z</time></trkpt><trkpt lat="44.24099700665106" lon="11.423724448041055"><ele>731.0</ele><time>2026-04-12T10:45:26.998Z</time></trkpt><trkpt lat="44.241064529480965" lon="11.423777292578757"><ele>731.0</ele><time>2026-04-12T10:45:27.998Z</time></trkpt><trkpt lat="44.241125261485955" lon="11.42381914707388"><ele>725.0</ele><time>2026-04-12T10:45:28.998Z</time></trkpt><trkpt lat="44.24122201759543" lon="11.4238845051707"><ele>725.0</ele><time>2026-04-12T10:45:30.998Z</time></trkpt><trkpt lat="44.24130975439192" lon="11.423947180280017"><ele>725.0</ele><time>2026-04-12T10:45:32.998Z</time></trkpt><trkpt lat="44.2413633983858" lon="11.424002253209773"><ele>725.0</ele><time>2026-04-12T10:45:35Z</time></trkpt></trkseg><trkseg><trkpt lat="44.24141755437121" lon="11.423910019298381"><ele>725.0</ele><time>2026-04-12T11:03:15.999Z</time></trkpt><trkpt lat="44.24141088613656" lon="11.424017332577364"><ele>725.0</ele><time>2026-04-12T11:03:29.998Z</time></trkpt><trkpt lat="44.24149484696696" lon="11.424117732218573"><ele>725.0</ele><time>2026-04-12T11:03:31.998Z</time></trkpt><trkpt lat="44.241575705494945" lon="11.424171177717183"><ele>725.0</ele><time>2026-04-12T11:03:32.998Z</time></trkpt><trkpt lat="44.241682883498605" lon="11.424244435382771"><ele>725.0</ele><time>2026-04-12T11:03:33.998Z</time></trkpt><trkpt lat="44.24179854865687" lon="11.424328782244606"><ele>725.0</ele><time>2026-04-12T11:03:34.998Z</time></trkpt><trkpt lat="44.24188429750723" lon="11.424392107177514"><ele>725.0</ele><time>2026-04-12T11:03:35.998Z</time></trkpt><trkpt lat="44.24195983734795" lon="11.424445343567994"><ele>725.0</ele><time>2026-04-12T11:03:36.998Z</time></trkpt><trkpt lat="44.2420193160038" lon="11.424491328894856"><ele>725.0</ele><time>2026-04-12T11:03:37.998Z</time></trkpt><trkpt lat="44.24209960962654" lon="11.424569538270612"><ele>725.0</ele><time>2026-04-12T11:03:39.998Z</time></trkpt><trkpt lat="44.24215126260146" lon="11.424626364938542"><ele>725.0</ele><time>2026-04-12T11:03:40.998Z</time></trkpt><trkpt lat="44.242224533125906" lon="11.424721679048384"><ele>725.0</ele><time>2026-04-12T11:03:41.998Z</time></trkpt><trkpt lat="44.24229598412984" lon="11.424830640090018"><ele>725.0</ele><time>2026-04-12T11:03:42.998Z</time></trkpt><trkpt lat="44.2423594411099" lon="11.424962518989702"><ele>725.0</ele><time>2026-04-12T11:03:43.998Z</time></trkpt><trkpt lat="44.24241053150624" lon="11.425064713542755"><ele>725.0</ele><time>2026-04-12T11:03:44.998Z</time></trkpt><trkpt lat="44.24246200526031" lon="11.425147969519692"><ele>725.0</ele><time>2026-04-12T11:03:45.998Z</time></trkpt><trkpt lat="44.24251003131121" lon="11.425223447918102"><ele>725.6</ele><time>2026-04-12T11:03:46.998Z</time></trkpt><trkpt lat="44.242572171054334" lon="11.425308484617597"><ele>726.2</ele><time>2026-04-12T11:03:47.998Z</time></trkpt><trkpt lat="44.242648409883394" lon="11.42537423870918"><ele>726.8</ele><time>2026-04-12T11:03:48.998Z</time></trkpt><trkpt lat="44.24274859730633" lon="11.425437663780361"><ele>727.4</ele><time>2026-04-12T11:03:49.998Z</time></trkpt><trkpt lat="44.242850928529684" lon="11.425486496566176"><ele>728.0</ele><time>2026-04-12T11:03:50.998Z</time></trkpt><trkpt lat="44.24295695888265" lon="11.425513883284795"><ele>728.0</ele><time>2026-04-12T11:03:51.998Z</time></trkpt><trkpt lat="44.24308044000095" lon="11.425547970993373"><ele>728.0</ele><time>2026-04-12T11:03:52.998Z</time></trkpt><trkpt lat="44.24321578035886" lon="11.425589418655605"><ele>728.0</ele><time>2026-04-12T11:03:53.998Z</time></trkpt><trkpt lat="44.243345974486076" lon="11.425631156281366"><ele>728.0</ele><time>2026-04-12T11:03:54.998Z</time></trkpt><trkpt lat="44.243472236185795" lon="11.425667331418058"><ele>729.5</ele><time>2026-04-12T11:03:55.998Z</time></trkpt><trkpt lat="44.243593641456485" lon="11.425697862576202"><ele>731.0</ele><time>2026-04-12T11:03:56.998Z</time></trkpt><trkpt lat="44.243730126272915" lon="11.42572804743822"><ele>732.5</ele><time>2026-04-12T11:03:57.998Z</time></trkpt><trkpt lat="44.24388988826123" lon="11.425768868698228"><ele>734.0</ele><time>2026-04-12T11:03:58.998Z</time></trkpt><trkpt lat="44.24404305919005" lon="11.42581734651146"><ele>735.0</ele><time>2026-04-12T11:03:59.998Z</time></trkpt><trkpt lat="44.24421588719772" lon="11.4258968787499"><ele>736.0</ele><time>2026-04-12T11:04:00.998Z</time></trkpt><trkpt lat="44.2443628117924" lon="11.425959726939942"><ele>737.0</ele><time>2026-04-12T11:04:01.998Z</time></trkpt><trkpt lat="44.24449282329952" lon="11.426012661680232"><ele>737.0</ele><time>2026-04-12T11:04:02.998Z</time></trkpt><trkpt lat="44.244614440967595" lon="11.426053647640822"><ele>737.0</ele><time>2026-04-12T11:04:03.998Z</time></trkpt><trkpt lat="44.24474282177769" lon="11.426083171408678"><ele>737.0</ele><time>2026-04-12T11:04:04.998Z</time></trkpt><trkpt lat="44.244889153389906" lon="11.42608394161027"><ele>737.0</ele><time>2026-04-12T11:04:05.998Z</time></trkpt><trkpt lat="44.24502224859206" lon="11.426090514904981"><ele>737.75</ele><time>2026-04-12T11:04:06.998Z</time></trkpt><trkpt lat="44.24513605695178" lon="11.426082117693658"><ele>738.5</ele><time>2026-04-12T11:04:07.998Z</time></trkpt><trkpt lat="44.24524395113985" lon="11.426086528681344"><ele>739.25</ele><time>2026-04-12T11:04:08.998Z</time></trkpt><trkpt lat="44.24536772638245" lon="11.42609415522654"><ele>740.0</ele><time>2026-04-12T11:04:09.998Z</time></trkpt><trkpt lat="44.24549309562539" lon="11.426102194495964"><ele>740.0</ele><time>2026-04-12T11:04:10.998Z</time></trkpt><trkpt lat="44.24560916916811" lon="11.426095714286369"><ele>740.0</ele><time>2026-04-12T11:04:11.998Z</time></trkpt><trkpt lat="44.24570954953697" lon="11.426084459747376"><ele>740.0</ele><time>2026-04-12T11:04:12.998Z</time></trkpt><trkpt lat="44.24581505066862" lon="11.426081667965637"><ele>740.0</ele><time>2026-04-12T11:04:13.998Z</time></trkpt><trkpt lat="44.245936008446556" lon="11.426084365188853"><ele>740.0</ele><time>2026-04-12T11:04:14.998Z</time></trkpt><trkpt lat="44.246078158637275" lon="11.42610675701946"><ele>739.8</ele><time>2026-04-12T11:04:15.998Z</time></trkpt><trkpt lat="44.246202490473515" lon="11.426130214577697"><ele>739.6</ele><time>2026-04-12T11:04:16.998Z</time></trkpt><trkpt lat="44.24630914068493" lon="11.42614374018934"><ele>739.4000000000001</ele><time>2026-04-12T11:04:17.998Z</time></trkpt><trkpt lat="44.24641150587314" lon="11.42615850256342"><ele>739.2</ele><time>2026-04-12T11:04:18.998Z</time></trkpt><trkpt lat="44.246506559931674" lon="11.426183850660381"><ele>739.0</ele><time>2026-04-12T11:04:19.998Z</time></trkpt><trkpt lat="44.24659607164598" lon="11.426208149430645"><ele>738.5714285714286</ele><time>2026-04-12T11:04:20.998Z</time></trkpt><trkpt lat="44.2466780109384" lon="11.426244032921879"><ele>738.1428571428571</ele><time>2026-04-12T11:04:21.998Z</time></trkpt><trkpt lat="44.24675684219421" lon="11.426278633209956"><ele>737.7142857142858</ele><time>2026-04-12T11:04:22.997Z</time></trkpt><trkpt lat="44.2468260926471" lon="11.426314882361408"><ele>737.2857142857142</ele><time>2026-04-12T11:04:24Z</time></trkpt><trkpt lat="44.24688973497122" lon="11.42635058657301"><ele>736.8571428571428</ele><time>2026-04-12T11:04:25Z</time></trkpt><trkpt lat="44.246948629150474" lon="11.42638640446022"><ele>736.4285714285714</ele><time>2026-04-12T11:04:25.999Z</time></trkpt><trkpt lat="44.24701048872602" lon="11.426423191894143"><ele>736.0</ele><time>2026-04-12T11:04:27Z</time></trkpt><trkpt lat="44.247132975928785" lon="11.426501026383056"><ele>736.0</ele><time>2026-04-12T11:04:28.999Z</time></trkpt><trkpt lat="44.24720772252965" lon="11.426549318786346"><ele>736.0</ele><time>2026-04-12T11:04:30Z</time></trkpt><trkpt lat="44.24728330651573" lon="11.426581585463559"><ele>736.0</ele><time>2026-04-12T11:04:31Z</time></trkpt><trkpt lat="44.24735568125174" lon="11.426606679522969"><ele>736.0</ele><time>2026-04-12T11:04:32Z</time></trkpt><trkpt lat="44.24746160170127" lon="11.426630290674"><ele>736.0</ele><time>2026-04-12T11:04:33Z</time></trkpt><trkpt lat="44.24757601124776" lon="11.426652246091887"><ele>735.8333333333334</ele><time>2026-04-12T11:04:34Z</time></trkpt><trkpt lat="44.24766272291618" lon="11.426679902496687"><ele>735.6666666666667</ele><time>2026-04-12T11:04:35Z</time></trkpt><trkpt lat="44.24774363720471" lon="11.426720434369994"><ele>735.5</ele><time>2026-04-12T11:04:36Z</time></trkpt><trkpt lat="44.24780660044327" lon="11.426780384631536"><ele>735.3333333333334</ele><time>2026-04-12T11:04:37Z</time></trkpt><trkpt lat="44.24786044209247" lon="11.426849459643785"><ele>735.1666666666666</ele><time>2026-04-12T11:04:38Z</time></trkpt><trkpt lat="44.247909239678" lon="11.42692208758814"><ele>735.0</ele><time>2026-04-12T11:04:38.999Z</time></trkpt><trkpt lat="44.24794785731919" lon="11.426992585925523"><ele>735.0</ele><time>2026-04-12T11:04:39.999Z</time></trkpt><trkpt lat="44.24798003549836" lon="11.427083830861527"><ele>735.0</ele><time>2026-04-12T11:04:40.999Z</time></trkpt><trkpt lat="44.24801195673343" lon="11.427216433623485"><ele>735.0</ele><time>2026-04-12T11:04:41.999Z</time></trkpt><trkpt lat="44.24804756304453" lon="11.427384280203436"><ele>735.0</ele><time>2026-04-12T11:04:42.999Z</time></trkpt><trkpt lat="44.24809113245551" lon="11.427542651311157"><ele>735.0</ele><time>2026-04-12T11:04:43.999Z</time></trkpt><trkpt lat="44.24813455191101" lon="11.427656831461121"><ele>734.6666666666666</ele><time>2026-04-12T11:04:44.999Z</time></trkpt><trkpt lat="44.248188663870785" lon="11.42775344825965"><ele>734.3333333333334</ele><time>2026-04-12T11:04:45.999Z</time></trkpt><trkpt lat="44.24824837934336" lon="11.427823801881665"><ele>734.0</ele><time>2026-04-12T11:04:46.999Z</time></trkpt><trkpt lat="44.248321837317455" lon="11.427893639723854"><ele>733.6666666666667</ele><time>2026-04-12T11:04:47.999Z</time></trkpt><trkpt lat="44.248404887332626" lon="11.427939397297"><ele>733.3333333333334</ele><time>2026-04-12T11:04:48.999Z</time></trkpt><trkpt lat="44.24850479128757" lon="11.427978496535816"><ele>733.0</ele><time>2026-04-12T11:04:49.999Z</time></trkpt><trkpt lat="44.24860933008257" lon="11.42798892342321"><ele>733.0</ele><time>2026-04-12T11:04:50.999Z</time></trkpt><trkpt lat="44.248699322014915" lon="11.42798635947623"><ele>733.0</ele><time>2026-04-12T11:04:51.999Z</time></trkpt><trkpt lat="44.248800648732775" lon="11.427959376802141"><ele>733.0</ele><time>2026-04-12T11:04:52.999Z</time></trkpt><trkpt lat="44.24892414240564" lon="11.427914672644654"><ele>733.0</ele><time>2026-04-12T11:04:53.999Z</time></trkpt><trkpt lat="44.24903810499947" lon="11.427870824565487"><ele>733.0</ele><time>2026-04-12T11:04:54.999Z</time></trkpt><trkpt lat="44.24916091228736" lon="11.427843045301424"><ele>734.5999999999999</ele><time>2026-04-12T11:04:55.999Z</time></trkpt><trkpt lat="44.249297124944334" lon="11.427827067036922"><ele>736.1999999999999</ele><time>2026-04-12T11:04:56.999Z</time></trkpt><trkpt lat="44.24941745737093" lon="11.427823703679666"><ele>737.8</ele><time>2026-04-12T11:04:57.999Z</time></trkpt><trkpt lat="44.24951813939078" lon="11.427814977722266"><ele>739.4</ele><time>2026-04-12T11:04:58.999Z</time></trkpt><trkpt lat="44.2496039171846" lon="11.427801888294214"><ele>741.0</ele><time>2026-04-12T11:04:59.999Z</time></trkpt><trkpt lat="44.24967567303262" lon="11.427784083798043"><ele>741.0</ele><time>2026-04-12T11:05:00.999Z</time></trkpt><trkpt lat="44.24974565060293" lon="11.427764665920794"><ele>741.0</ele><time>2026-04-12T11:05:01.999Z</time></trkpt><trkpt lat="44.249816673528606" lon="11.427752948086777"><ele>741.0</ele><time>2026-04-12T11:05:02.999Z</time></trkpt><trkpt lat="44.24989642225486" lon="11.427750684123971"><ele>741.0</ele><time>2026-04-12T11:05:03.999Z</time></trkpt><trkpt lat="44.2499816516085" lon="11.427751917016536"><ele>741.0</ele><time>2026-04-12T11:05:04.999Z</time></trkpt><trkpt lat="44.25005927089916" lon="11.427750869161812"><ele>741.0</ele><time>2026-04-12T11:05:05.999Z</time></trkpt><trkpt lat="44.25014100173459" lon="11.42774238095203"><ele>740.8333333333334</ele><time>2026-04-12T11:05:06.999Z</time></trkpt><trkpt lat="44.250213894781595" lon="11.427735803496649"><ele>740.6666666666666</ele><time>2026-04-12T11:05:07.999Z</time></trkpt><trkpt lat="44.250282152977086" lon="11.427739959194676"><ele>740.5</ele><time>2026-04-12T11:05:08.999Z</time></trkpt><trkpt lat="44.25034784619535" lon="11.427739381029484"><ele>740.3333333333333</ele><time>2026-04-12T11:05:09.999Z</time></trkpt><trkpt lat="44.250466614901136" lon="11.427762950308672"><ele>740.1666666666666</ele><time>2026-04-12T11:05:11.999Z</time></trkpt><trkpt lat="44.250556971664" lon="11.427793027268379"><ele>740.0</ele><time>2026-04-12T11:05:13.999Z</time></trkpt><trkpt lat="44.25063505425684" lon="11.427772332456087"><ele>738.2</ele><time>2026-04-12T11:05:16.999Z</time></trkpt><trkpt lat="44.25066428923475" lon="11.42768994719533"><ele>736.4</ele><time>2026-04-12T11:05:17.999Z</time></trkpt><trkpt lat="44.25071780578689" lon="11.427482457908681"><ele>734.5999999999999</ele><time>2026-04-12T11:05:19.999Z</time></trkpt><trkpt lat="44.25074889235021" lon="11.427357125450747"><ele>732.8</ele><time>2026-04-12T11:05:20.999Z</time></trkpt><trkpt lat="44.2507889885127" lon="11.42724623700007"><ele>731.0</ele><time>2026-04-12T11:05:21.999Z</time></trkpt><trkpt lat="44.25084988697692" lon="11.42713910679554"><ele>730.8333333333333</ele><time>2026-04-12T11:05:22.999Z</time></trkpt><trkpt lat="44.25091485648788" lon="11.427056081410448"><ele>730.6666666666666</ele><time>2026-04-12T11:05:23.999Z</time></trkpt><trkpt lat="44.25097521929436" lon="11.426991147277294"><ele>730.5</ele><time>2026-04-12T11:05:24.999Z</time></trkpt><trkpt lat="44.25103309260065" lon="11.426926990992289"><ele>730.3333333333334</ele><time>2026-04-12T11:05:25.999Z</time></trkpt><trkpt lat="44.25108669935253" lon="11.426857244715734"><ele>730.1666666666667</ele><time>2026-04-12T11:05:26.999Z</time></trkpt><trkpt lat="44.25115039733354" lon="11.426774561178824"><ele>730.0</ele><time>2026-04-12T11:05:27.999Z</time></trkpt><trkpt lat="44.251248931183724" lon="11.426685105738985"><ele>730.0</ele><time>2026-04-12T11:05:28.999Z</time></trkpt><trkpt lat="44.251333890173434" lon="11.426570078987814"><ele>730.0</ele><time>2026-04-12T11:05:29.999Z</time></trkpt><trkpt lat="44.25143474641456" lon="11.426463875058788"><ele>730.0</ele><time>2026-04-12T11:05:30.999Z</time></trkpt><trkpt lat="44.25152804072154" lon="11.426360132168336"><ele>730.0</ele><time>2026-04-12T11:05:31.999Z</time></trkpt><trkpt lat="44.25160847864434" lon="11.426263882809561"><ele>728.6666666666667</ele><time>2026-04-12T11:05:32.998Z</time></trkpt><trkpt lat="44.25168725352032" lon="11.42617232665878"><ele>727.3333333333334</ele><time>2026-04-12T11:05:33.998Z</time></trkpt><trkpt lat="44.25176434492231" lon="11.426099722895676"><ele>726.0</ele><time>2026-04-12T11:05:34.998Z</time></trkpt><trkpt lat="44.25183767050228" lon="11.426034784573147"><ele>724.6666666666666</ele><time>2026-04-12T11:05:35.998Z</time></trkpt><trkpt lat="44.251906816886844" lon="11.425977910639974"><ele>723.3333333333333</ele><time>2026-04-12T11:05:36.998Z</time></trkpt><trkpt lat="44.251973955491934" lon="11.425914692337377"><ele>722.0</ele><time>2026-04-12T11:05:37.998Z</time></trkpt><trkpt lat="44.252044837264926" lon="11.425860106096657"><ele>722.0</ele><time>2026-04-12T11:05:38.998Z</time></trkpt><trkpt lat="44.252141222267866" lon="11.425807081529332"><ele>722.0</ele><time>2026-04-12T11:05:39.998Z</time></trkpt><trkpt lat="44.252248874543035" lon="11.42576238147787"><ele>722.0</ele><time>2026-04-12T11:05:40.998Z</time></trkpt><trkpt lat="44.25237857055638" lon="11.42571401718119"><ele>722.0</ele><time>2026-04-12T11:05:41.998Z</time></trkpt><trkpt lat="44.252505281603504" lon="11.42566662598625"><ele>722.0</ele><time>2026-04-12T11:05:42.998Z</time></trkpt><trkpt lat="44.25262255399082" lon="11.42563360706675"><ele>722.0</ele><time>2026-04-12T11:05:43.998Z</time></trkpt><trkpt lat="44.25272802260002" lon="11.425593562970715"><ele>722.0</ele><time>2026-04-12T11:05:44.998Z</time></trkpt><trkpt lat="44.25282083275955" lon="11.42554925366422"><ele>722.0</ele><time>2026-04-12T11:05:45.998Z</time></trkpt><trkpt lat="44.252911011579435" lon="11.425504897413601"><ele>722.0</ele><time>2026-04-12T11:05:46.998Z</time></trkpt><trkpt lat="44.253002937381225" lon="11.425470638953428"><ele>720.1666666666666</ele><time>2026-04-12T11:05:47.998Z</time></trkpt><trkpt lat="44.25308584933784" lon="11.425438505052867"><ele>718.3333333333333</ele><time>2026-04-12T11:05:48.998Z</time></trkpt><trkpt lat="44.253165082953736" lon="11.425412454205484"><ele>716.5</ele><time>2026-04-12T11:05:49.998Z</time></trkpt><trkpt lat="44.25323974111153" lon="11.425382294072369"><ele>714.6666666666666</ele><time>2026-04-12T11:05:50.998Z</time></trkpt><trkpt lat="44.253312560316786" lon="11.425352096773718"><ele>712.8333333333334</ele><time>2026-04-12T11:05:51.998Z</time></trkpt><trkpt lat="44.25338067894088" lon="11.425321600102674"><ele>711.0</ele><time>2026-04-12T11:05:52.998Z</time></trkpt><trkpt lat="44.25344975673133" lon="11.425285987667184"><ele>710.5</ele><time>2026-04-12T11:05:53.998Z</time></trkpt><trkpt lat="44.25352279696359" lon="11.425243013598887"><ele>710.0</ele><time>2026-04-12T11:05:54.998Z</time></trkpt><trkpt lat="44.25358988670792" lon="11.42519597812694"><ele>709.5</ele><time>2026-04-12T11:05:55.998Z</time></trkpt><trkpt lat="44.25365147104048" lon="11.425149103988224"><ele>709.0</ele><time>2026-04-12T11:05:56.998Z</time></trkpt><trkpt lat="44.253712444053996" lon="11.425094493841828"><ele>708.5</ele><time>2026-04-12T11:05:57.998Z</time></trkpt><trkpt lat="44.253786295427844" lon="11.42501935148205"><ele>708.0</ele><time>2026-04-12T11:05:58.998Z</time></trkpt><trkpt lat="44.25386718145325" lon="11.424935470461817"><ele>709.0</ele><time>2026-04-12T11:05:59.998Z</time></trkpt><trkpt lat="44.25396743321539" lon="11.42481790432286"><ele>710.0</ele><time>2026-04-12T11:06:00.998Z</time></trkpt><trkpt lat="44.25406075342987" lon="11.424702806968352"><ele>711.0</ele><time>2026-04-12T11:06:01.998Z</time></trkpt><trkpt lat="44.25414924504544" lon="11.424594214703022"><ele>712.0</ele><time>2026-04-12T11:06:02.998Z</time></trkpt><trkpt lat="44.25422606065377" lon="11.424498614874022"><ele>709.4000000000001</ele><time>2026-04-12T11:06:03.998Z</time></trkpt><trkpt lat="44.254305346038436" lon="11.42440117196775"><ele>706.8000000000001</ele><time>2026-04-12T11:06:04.998Z</time></trkpt><trkpt lat="44.25438349689709" lon="11.424312684357005"><ele>704.2</ele><time>2026-04-12T11:06:05.998Z</time></trkpt><trkpt lat="44.25445508114444" lon="11.424226610126569"><ele>701.6</ele><time>2026-04-12T11:06:06.998Z</time></trkpt><trkpt lat="44.25452595791738" lon="11.424143597336025"><ele>699.0</ele><time>2026-04-12T11:06:07.998Z</time></trkpt><trkpt lat="44.25459465690074" lon="11.4240640595523"><ele>699.0</ele><time>2026-04-12T11:06:08.998Z</time></trkpt><trkpt lat="44.254688600372816" lon="11.423955968165755"><ele>699.0</ele><time>2026-04-12T11:06:09.998Z</time></trkpt><trkpt lat="44.254776376147085" lon="11.423848773383181"><ele>699.0</ele><time>2026-04-12T11:06:10.998Z</time></trkpt><trkpt lat="44.25485533826966" lon="11.423747420761293"><ele>699.0</ele><time>2026-04-12T11:06:11.998Z</time></trkpt><trkpt lat="44.25492376576397" lon="11.42365454459577"><ele>699.0</ele><time>2026-04-12T11:06:12.998Z</time></trkpt><trkpt lat="44.25498636720712" lon="11.423571218211713"><ele>697.0</ele><time>2026-04-12T11:06:13.998Z</time></trkpt><trkpt lat="44.25504337934934" lon="11.423497952944489"><ele>695.0</ele><time>2026-04-12T11:06:14.998Z</time></trkpt><trkpt lat="44.25512118805184" lon="11.423408213993424"><ele>693.0</ele><time>2026-04-12T11:06:16.998Z</time></trkpt><trkpt lat="44.255226449713014" lon="11.423353899094128"><ele>691.0</ele><time>2026-04-12T11:06:18.998Z</time></trkpt><trkpt lat="44.25530026490999" lon="11.423344873315596"><ele>689.0</ele><time>2026-04-12T11:06:19.998Z</time></trkpt><trkpt lat="44.255389280329176" lon="11.423351194064463"><ele>689.0</ele><time>2026-04-12T11:06:20.998Z</time></trkpt><trkpt lat="44.25548734835919" lon="11.423370242172583"><ele>689.0</ele><time>2026-04-12T11:06:21.998Z</time></trkpt><trkpt lat="44.25557127398551" lon="11.423388451296587"><ele>689.0</ele><time>2026-04-12T11:06:22.998Z</time></trkpt><trkpt lat="44.25564421821959" lon="11.423401102037555"><ele>689.0</ele><time>2026-04-12T11:06:23.998Z</time></trkpt><trkpt lat="44.25577178977414" lon="11.42339983343798"><ele>689.0</ele><time>2026-04-12T11:06:25.998Z</time></trkpt><trkpt lat="44.25590120764976" lon="11.42332597643645"><ele>688.25</ele><time>2026-04-12T11:06:27.997Z</time></trkpt><trkpt lat="44.25598822638704" lon="11.423244408555972"><ele>687.5</ele><time>2026-04-12T11:06:28.997Z</time></trkpt><trkpt lat="44.256092277702976" lon="11.423123179020196"><ele>686.75</ele><time>2026-04-12T11:06:29.999Z</time></trkpt><trkpt lat="44.25618547625362" lon="11.423001398763335"><ele>686.0</ele><time>2026-04-12T11:06:30.999Z</time></trkpt><trkpt lat="44.25626272946903" lon="11.422897842905963"><ele>685.1999999999999</ele><time>2026-04-12T11:06:31.999Z</time></trkpt><trkpt lat="44.2563284053976" lon="11.4228065230098"><ele>684.4</ele><time>2026-04-12T11:06:32.999Z</time></trkpt><trkpt lat="44.256392492455774" lon="11.422728713836968"><ele>683.6</ele><time>2026-04-12T11:06:33.999Z</time></trkpt><trkpt lat="44.25647472362611" lon="11.422689142635708"><ele>682.8</ele><time>2026-04-12T11:06:34.999Z</time></trkpt><trkpt lat="44.256557971337784" lon="11.42265455975377"><ele>682.0</ele><time>2026-04-12T11:06:35.999Z</time></trkpt><trkpt lat="44.256660316306686" lon="11.42261565862956"><ele>682.0</ele><time>2026-04-12T11:06:36.999Z</time></trkpt><trkpt lat="44.25677749625926" lon="11.422624635856309"><ele>682.0</ele><time>2026-04-12T11:06:37.999Z</time></trkpt><trkpt lat="44.256904943040595" lon="11.422674005145698"><ele>682.0</ele><time>2026-04-12T11:06:38.999Z</time></trkpt><trkpt lat="44.25704814787931" lon="11.42272921804406"><ele>682.0</ele><time>2026-04-12T11:06:39.999Z</time></trkpt><trkpt lat="44.25716572328315" lon="11.422771505408754"><ele>682.0</ele><time>2026-04-12T11:06:40.999Z</time></trkpt><trkpt lat="44.25726887531087" lon="11.422808538647137"><ele>682.0</ele><time>2026-04-12T11:06:41.999Z</time></trkpt><trkpt lat="44.25736160547715" lon="11.422847171617232"><ele>682.0</ele><time>2026-04-12T11:06:42.999Z</time></trkpt><trkpt lat="44.25745237098044" lon="11.42287840452941"><ele>682.0</ele><time>2026-04-12T11:06:43.999Z</time></trkpt><trkpt lat="44.257542727710465" lon="11.422892371493397"><ele>682.0</ele><time>2026-04-12T11:06:44.999Z</time></trkpt><trkpt lat="44.257657069215114" lon="11.42290355399049"><ele>681.6666666666667</ele><time>2026-04-12T11:06:45.999Z</time></trkpt><trkpt lat="44.25779652099186" lon="11.4228980318386"><ele>681.3333333333334</ele><time>2026-04-12T11:06:46.999Z</time></trkpt><trkpt lat="44.257968924324096" lon="11.422892880168835"><ele>681.0</ele><time>2026-04-12T11:06:47.999Z</time></trkpt><trkpt lat="44.25811743470176" lon="11.422884212179492"><ele>679.0</ele><time>2026-04-12T11:06:48.999Z</time></trkpt><trkpt lat="44.25826580374476" lon="11.422881030608195"><ele>677.0</ele><time>2026-04-12T11:06:49.999Z</time></trkpt><trkpt lat="44.258445469330844" lon="11.422875422639992"><ele>675.0</ele><time>2026-04-12T11:06:50.999Z</time></trkpt><trkpt lat="44.25861228613647" lon="11.422877587053325"><ele>675.0</ele><time>2026-04-12T11:06:51.999Z</time></trkpt><trkpt lat="44.25875396163281" lon="11.422876878617027"><ele>675.0</ele><time>2026-04-12T11:06:52.999Z</time></trkpt><trkpt lat="44.25889070446946" lon="11.422873182449763"><ele>675.0</ele><time>2026-04-12T11:06:53.999Z</time></trkpt><trkpt lat="44.259023277662976" lon="11.422869788971436"><ele>675.0</ele><time>2026-04-12T11:06:54.999Z</time></trkpt><trkpt lat="44.25914450707751" lon="11.422868530832453"><ele>673.6</ele><time>2026-04-12T11:06:55.999Z</time></trkpt><trkpt lat="44.25926299506246" lon="11.422864009920628"><ele>672.2</ele><time>2026-04-12T11:06:56.999Z</time></trkpt><trkpt lat="44.25937330031386" lon="11.42286039800801"><ele>670.8</ele><time>2026-04-12T11:06:57.999Z</time></trkpt><trkpt lat="44.25947943240361" lon="11.422869733358546"><ele>669.4</ele><time>2026-04-12T11:06:58.999Z</time></trkpt><trkpt lat="44.259580056775114" lon="11.422872848059152"><ele>668.0</ele><time>2026-04-12T11:06:59.999Z</time></trkpt><trkpt lat="44.25967448531127" lon="11.422863532995148"><ele>668.0</ele><time>2026-04-12T11:07:00.999Z</time></trkpt><trkpt lat="44.25978091690139" lon="11.42286435267957"><ele>668.0</ele><time>2026-04-12T11:07:01.999Z</time></trkpt><trkpt lat="44.25988284864225" lon="11.42286302556336"><ele>668.0</ele><time>2026-04-12T11:07:02.999Z</time></trkpt><trkpt lat="44.259980175137784" lon="11.422862178943115"><ele>668.0</ele><time>2026-04-12T11:07:03.999Z</time></trkpt><trkpt lat="44.26007017744867" lon="11.422864390104824"><ele>668.0</ele><time>2026-04-12T11:07:04.999Z</time></trkpt><trkpt lat="44.26015639752815" lon="11.422858290073732"><ele>666.6666666666666</ele><time>2026-04-12T11:07:05.999Z</time></trkpt><trkpt lat="44.26024165408344" lon="11.422854180269281"><ele>665.3333333333333</ele><time>2026-04-12T11:07:06.999Z</time></trkpt><trkpt lat="44.26032826745898" lon="11.422856574244653"><ele>664.0</ele><time>2026-04-12T11:07:07.999Z</time></trkpt><trkpt lat="44.26040400223988" lon="11.422857698533056"><ele>662.6666666666666</ele><time>2026-04-12T11:07:08.999Z</time></trkpt><trkpt lat="44.260487234895116" lon="11.422838447999409"><ele>661.3333333333334</ele><time>2026-04-12T11:07:09.999Z</time></trkpt><trkpt lat="44.2605933742266" lon="11.422853663365686"><ele>660.0</ele><time>2026-04-12T11:07:10.999Z</time></trkpt><trkpt lat="44.26070761983846" lon="11.422858013945785"><ele>659.0</ele><time>2026-04-12T11:07:12.999Z</time></trkpt><trkpt lat="44.260783328161544" lon="11.422851479543642"><ele>658.0</ele><time>2026-04-12T11:07:13.999Z</time></trkpt><trkpt lat="44.26085760221874" lon="11.422914823039529"><ele>657.0</ele><time>2026-04-12T11:07:14.999Z</time></trkpt><trkpt lat="44.26095475015729" lon="11.422987377815014"><ele>656.0</ele><time>2026-04-12T11:07:15.999Z</time></trkpt><trkpt lat="44.261076638469355" lon="11.423082833452657"><ele>655.0</ele><time>2026-04-12T11:07:16.999Z</time></trkpt><trkpt lat="44.261183116226064" lon="11.423176951950307"><ele>655.0</ele><time>2026-04-12T11:07:17.999Z</time></trkpt><trkpt lat="44.26128059132364" lon="11.42326440324746"><ele>655.0</ele><time>2026-04-12T11:07:18.999Z</time></trkpt><trkpt lat="44.26137642944901" lon="11.423351845953608"><ele>655.0</ele><time>2026-04-12T11:07:19.999Z</time></trkpt><trkpt lat="44.26147359772996" lon="11.423435153631619"><ele>655.0</ele><time>2026-04-12T11:07:20.999Z</time></trkpt><trkpt lat="44.26156805923875" lon="11.423513815566631"><ele>652.6</ele><time>2026-04-12T11:07:21.999Z</time></trkpt><trkpt lat="44.26165765186863" lon="11.423599437942972"><ele>650.2</ele><time>2026-04-12T11:07:22.999Z</time></trkpt><trkpt lat="44.26174268472875" lon="11.423668648351175"><ele>647.8</ele><time>2026-04-12T11:07:24Z</time></trkpt><trkpt lat="44.26182323713426" lon="11.423746896203895"><ele>645.4</ele><time>2026-04-12T11:07:25Z</time></trkpt><trkpt lat="44.26190556876105" lon="11.423824479502537"><ele>643.0</ele><time>2026-04-12T11:07:26Z</time></trkpt><trkpt lat="44.26198851096818" lon="11.423890099429808"><ele>642.8333333333334</ele><time>2026-04-12T11:07:27Z</time></trkpt><trkpt lat="44.26207014354371" lon="11.423958681943331"><ele>642.6666666666667</ele><time>2026-04-12T11:07:28Z</time></trkpt><trkpt lat="44.262134229632785" lon="11.424028349401897"><ele>642.5</ele><time>2026-04-12T11:07:29Z</time></trkpt><trkpt lat="44.26220525250752" lon="11.424097346915794"><ele>642.3333333333334</ele><time>2026-04-12T11:07:30Z</time></trkpt><trkpt lat="44.26227416653369" lon="11.42416648720343"><ele>642.1666666666666</ele><time>2026-04-12T11:07:31Z</time></trkpt><trkpt lat="44.26234274953916" lon="11.424230178731422"><ele>642.0</ele><time>2026-04-12T11:07:32Z</time></trkpt><trkpt lat="44.26240472312675" lon="11.424267642215668"><ele>640.6</ele><time>2026-04-12T11:07:33Z</time></trkpt><trkpt lat="44.26247487649504" lon="11.424288140552164"><ele>639.2</ele><time>2026-04-12T11:07:34Z</time></trkpt><trkpt lat="44.262545963805216" lon="11.424283000599665"><ele>637.8</ele><time>2026-04-12T11:07:35Z</time></trkpt><trkpt lat="44.26262800991376" lon="11.42427142129334"><ele>636.4</ele><time>2026-04-12T11:07:36Z</time></trkpt><trkpt lat="44.26272518137982" lon="11.424242544520535"><ele>635.0</ele><time>2026-04-12T11:07:36.999Z</time></trkpt><trkpt lat="44.262861993114306" lon="11.4241957371671"><ele>635.0</ele><time>2026-04-12T11:07:37.999Z</time></trkpt><trkpt lat="44.26302072392304" lon="11.424140244364365"><ele>635.0</ele><time>2026-04-12T11:07:38.999Z</time></trkpt><trkpt lat="44.26314769973601" lon="11.424104303651232"><ele>635.0</ele><time>2026-04-12T11:07:39.999Z</time></trkpt><trkpt lat="44.26325297947072" lon="11.424079554740073"><ele>635.0</ele><time>2026-04-12T11:07:40.999Z</time></trkpt><trkpt lat="44.263348263241504" lon="11.424048280044847"><ele>634.0</ele><time>2026-04-12T11:07:41.999Z</time></trkpt><trkpt lat="44.26343713697399" lon="11.424024307720535"><ele>633.0</ele><time>2026-04-12T11:07:42.999Z</time></trkpt><trkpt lat="44.26352315986288" lon="11.42399579140941"><ele>632.0</ele><time>2026-04-12T11:07:43.999Z</time></trkpt><trkpt lat="44.26360995687903" lon="11.423970364343083"><ele>631.0</ele><time>2026-04-12T11:07:44.999Z</time></trkpt><trkpt lat="44.263682874172545" lon="11.423948074409983"><ele>630.0</ele><time>2026-04-12T11:07:45.999Z</time></trkpt><trkpt lat="44.26376398136769" lon="11.423956352771357"><ele>629.0</ele><time>2026-04-12T11:07:46.999Z</time></trkpt><trkpt lat="44.26383856900556" lon="11.423922040867017"><ele>629.0</ele><time>2026-04-12T11:07:47.999Z</time></trkpt><trkpt lat="44.26392060068087" lon="11.423927585591379"><ele>629.0</ele><time>2026-04-12T11:07:48.999Z</time></trkpt><trkpt lat="44.26399689864638" lon="11.42392615856384"><ele>629.0</ele><time>2026-04-12T11:07:49.999Z</time></trkpt><trkpt lat="44.26406459547797" lon="11.423923778453458"><ele>629.0</ele><time>2026-04-12T11:07:50.999Z</time></trkpt><trkpt lat="44.264185459252445" lon="11.42389807310493"><ele>629.0</ele><time>2026-04-12T11:07:52.999Z</time></trkpt><trkpt lat="44.264287936547795" lon="11.423857229752997"><ele>627.5</ele><time>2026-04-12T11:07:54.999Z</time></trkpt><trkpt lat="44.26438740410549" lon="11.423865201325482"><ele>626.0</ele><time>2026-04-12T11:07:56.999Z</time></trkpt><trkpt lat="44.264499900510415" lon="11.423880624181935"><ele>624.5</ele><time>2026-04-12T11:07:57.999Z</time></trkpt><trkpt lat="44.26462009243108" lon="11.42388630397338"><ele>623.0</ele><time>2026-04-12T11:07:58.999Z</time></trkpt><trkpt lat="44.264763448248765" lon="11.423890084585185"><ele>622.25</ele><time>2026-04-12T11:07:59.999Z</time></trkpt><trkpt lat="44.26489837898914" lon="11.423880308338827"><ele>621.5</ele><time>2026-04-12T11:08:00.999Z</time></trkpt><trkpt lat="44.26502745761985" lon="11.423868227817309"><ele>620.75</ele><time>2026-04-12T11:08:01.999Z</time></trkpt><trkpt lat="44.265152961143315" lon="11.423858970779431"><ele>620.0</ele><time>2026-04-12T11:08:02.999Z</time></trkpt><trkpt lat="44.26527331424996" lon="11.423851188128678"><ele>620.0</ele><time>2026-04-12T11:08:03.999Z</time></trkpt><trkpt lat="44.26539005104714" lon="11.4238476126533"><ele>620.0</ele><time>2026-04-12T11:08:04.999Z</time></trkpt><trkpt lat="44.26550283763013" lon="11.423841896220246"><ele>620.0</ele><time>2026-04-12T11:08:05.999Z</time></trkpt><trkpt lat="44.26561144824986" lon="11.423832161827368"><ele>620.0</ele><time>2026-04-12T11:08:06.999Z</time></trkpt><trkpt lat="44.26571671637123" lon="11.423821051432565"><ele>620.0</ele><time>2026-04-12T11:08:07.999Z</time></trkpt><trkpt lat="44.265819793439825" lon="11.423827458427745"><ele>619.0</ele><time>2026-04-12T11:08:08.999Z</time></trkpt><trkpt lat="44.265919274819296" lon="11.423821022382105"><ele>618.0</ele><time>2026-04-12T11:08:09.999Z</time></trkpt><trkpt lat="44.26602486526177" lon="11.423816375281353"><ele>617.0</ele><time>2026-04-12T11:08:10.999Z</time></trkpt><trkpt lat="44.26613641162655" lon="11.423808949557317"><ele>616.0</ele><time>2026-04-12T11:08:11.999Z</time></trkpt><trkpt lat="44.266261603862226" lon="11.423804136556758"><ele>615.0</ele><time>2026-04-12T11:08:12.999Z</time></trkpt><trkpt lat="44.26637691264044" lon="11.423793946835579"><ele>611.75</ele><time>2026-04-12T11:08:13.999Z</time></trkpt><trkpt lat="44.266490370087084" lon="11.423767439931144"><ele>608.5</ele><time>2026-04-12T11:08:14.999Z</time></trkpt><trkpt lat="44.26661996313944" lon="11.423717940138031"><ele>605.25</ele><time>2026-04-12T11:08:15.999Z</time></trkpt><trkpt lat="44.26675691641553" lon="11.42366402985221"><ele>602.0</ele><time>2026-04-12T11:08:16.999Z</time></trkpt><trkpt lat="44.26688299462092" lon="11.42359908714154"><ele>602.0</ele><time>2026-04-12T11:08:17.999Z</time></trkpt><trkpt lat="44.26700850337736" lon="11.423528892690854"><ele>602.0</ele><time>2026-04-12T11:08:18.999Z</time></trkpt><trkpt lat="44.26711895526397" lon="11.423445165174657"><ele>602.0</ele><time>2026-04-12T11:08:19.999Z</time></trkpt><trkpt lat="44.26720847205745" lon="11.423336803034372"><ele>602.0</ele><time>2026-04-12T11:08:20.999Z</time></trkpt><trkpt lat="44.267292155603414" lon="11.423234841827014"><ele>601.4</ele><time>2026-04-12T11:08:21.999Z</time></trkpt><trkpt lat="44.267380628850525" lon="11.423151232967278"><ele>600.8000000000001</ele><time>2026-04-12T11:08:22.999Z</time></trkpt><trkpt lat="44.26748168867399" lon="11.42310892587163"><ele>600.2</ele><time>2026-04-12T11:08:23.999Z</time></trkpt><trkpt lat="44.267583545390124" lon="11.423068593691617"><ele>599.6</ele><time>2026-04-12T11:08:24.999Z</time></trkpt><trkpt lat="44.267686927412896" lon="11.423043065788768"><ele>599.0</ele><time>2026-04-12T11:08:25.999Z</time></trkpt><trkpt lat="44.267799715204475" lon="11.423004662812499"><ele>599.0</ele><time>2026-04-12T11:08:26.999Z</time></trkpt><trkpt lat="44.26792489460494" lon="11.422992345848213"><ele>599.0</ele><time>2026-04-12T11:08:27.999Z</time></trkpt><trkpt lat="44.268045773228316" lon="11.422983033064215"><ele>599.0</ele><time>2026-04-12T11:08:28.999Z</time></trkpt><trkpt lat="44.26816291070664" lon="11.422973198918502"><ele>599.0</ele><time>2026-04-12T11:08:29.999Z</time></trkpt><trkpt lat="44.26827928145765" lon="11.422957177448874"><ele>600.5</ele><time>2026-04-12T11:08:30.998Z</time></trkpt><trkpt lat="44.26839742954914" lon="11.422942634533678"><ele>602.0</ele><time>2026-04-12T11:08:31.998Z</time></trkpt><trkpt lat="44.2685288527806" lon="11.422928885194473"><ele>603.5</ele><time>2026-04-12T11:08:32.998Z</time></trkpt><trkpt lat="44.26865067435386" lon="11.42293620457182"><ele>605.0</ele><time>2026-04-12T11:08:33.998Z</time></trkpt><trkpt lat="44.268758325374996" lon="11.422940807548063"><ele>605.0</ele><time>2026-04-12T11:08:35Z</time></trkpt><trkpt lat="44.26888410503928" lon="11.42293704862169"><ele>605.0</ele><time>2026-04-12T11:08:36Z</time></trkpt><trkpt lat="44.26899525747668" lon="11.422946979408549"><ele>605.0</ele><time>2026-04-12T11:08:37Z</time></trkpt><trkpt lat="44.26910344957961" lon="11.42296239125188"><ele>605.0</ele><time>2026-04-12T11:08:38Z</time></trkpt><trkpt lat="44.26920166118499" lon="11.422982478312317"><ele>605.0</ele><time>2026-04-12T11:08:39Z</time></trkpt><trkpt lat="44.26929632046491" lon="11.422993298231592"><ele>604.3333333333333</ele><time>2026-04-12T11:08:40Z</time></trkpt><trkpt lat="44.26937699209371" lon="11.423009081713854"><ele>603.6666666666666</ele><time>2026-04-12T11:08:41Z</time></trkpt><trkpt lat="44.26944101486581" lon="11.423019426252742"><ele>603.0</ele><time>2026-04-12T11:08:42Z</time></trkpt><trkpt lat="44.26952843570186" lon="11.423056173875432"><ele>602.3333333333334</ele><time>2026-04-12T11:08:44Z</time></trkpt><trkpt lat="44.26962541944769" lon="11.422999521898564"><ele>601.6666666666667</ele><time>2026-04-12T11:08:46Z</time></trkpt><trkpt lat="44.269675126231405" lon="11.422917475143285"><ele>601.0</ele><time>2026-04-12T11:08:47Z</time></trkpt><trkpt lat="44.26971168166879" lon="11.422761766635896"><ele>600.0</ele><time>2026-04-12T11:08:48Z</time></trkpt><trkpt lat="44.269791103200134" lon="11.42261644627598"><ele>599.0</ele><time>2026-04-12T11:08:49Z</time></trkpt><trkpt lat="44.26989557825944" lon="11.422562680897597"><ele>598.0</ele><time>2026-04-12T11:08:50Z</time></trkpt><trkpt lat="44.270026317397395" lon="11.422511884647166"><ele>597.0</ele><time>2026-04-12T11:08:51Z</time></trkpt><trkpt lat="44.270147541006764" lon="11.422434920413478"><ele>597.0</ele><time>2026-04-12T11:08:52Z</time></trkpt><trkpt lat="44.27025168504564" lon="11.422342082050694"><ele>597.0</ele><time>2026-04-12T11:08:53Z</time></trkpt><trkpt lat="44.270369334704775" lon="11.422271155778045"><ele>597.0</ele><time>2026-04-12T11:08:54Z</time></trkpt><trkpt lat="44.270492111299255" lon="11.422262158648115"><ele>597.0</ele><time>2026-04-12T11:08:55Z</time></trkpt><trkpt lat="44.2706473799721" lon="11.422254323186563"><ele>594.6666666666666</ele><time>2026-04-12T11:08:56Z</time></trkpt><trkpt lat="44.270839735669384" lon="11.422223619329955"><ele>592.3333333333333</ele><time>2026-04-12T11:08:57Z</time></trkpt><trkpt lat="44.271012817968725" lon="11.42223172791686"><ele>590.0</ele><time>2026-04-12T11:08:58Z</time></trkpt><trkpt lat="44.271167891330485" lon="11.422236031692014"><ele>590.0</ele><time>2026-04-12T11:08:59Z</time></trkpt><trkpt lat="44.27130751198892" lon="11.422237623526799"><ele>590.0</ele><time>2026-04-12T11:09:00Z</time></trkpt><trkpt lat="44.27144053436791" lon="11.422237836148163"><ele>590.0</ele><time>2026-04-12T11:09:01Z</time></trkpt><trkpt lat="44.27155726225489" lon="11.422233231463968"><ele>590.0</ele><time>2026-04-12T11:09:02Z</time></trkpt><trkpt lat="44.27165482017002" lon="11.422220647760554"><ele>590.3333333333333</ele><time>2026-04-12T11:09:03Z</time></trkpt><trkpt lat="44.27173203380812" lon="11.42219390009437"><ele>590.6666666666666</ele><time>2026-04-12T11:09:04Z</time></trkpt><trkpt lat="44.27180666396689" lon="11.42216822810681"><ele>591.0</ele><time>2026-04-12T11:09:05Z</time></trkpt><trkpt lat="44.27188005477496" lon="11.422138251249251"><ele>591.3333333333334</ele><time>2026-04-12T11:09:06Z</time></trkpt><trkpt lat="44.271950516994515" lon="11.422114914139712"><ele>591.6666666666667</ele><time>2026-04-12T11:09:07Z</time></trkpt><trkpt lat="44.27204437498092" lon="11.422111111224659"><ele>592.0</ele><time>2026-04-12T11:09:08Z</time></trkpt><trkpt lat="44.27220400457883" lon="11.422067411715476"><ele>589.0</ele><time>2026-04-12T11:09:09Z</time></trkpt><trkpt lat="44.27238759516469" lon="11.422062299036913"><ele>586.0</ele><time>2026-04-12T11:09:10Z</time></trkpt><trkpt lat="44.27253076138176" lon="11.422054925236086"><ele>583.0</ele><time>2026-04-12T11:09:11Z</time></trkpt><trkpt lat="44.27266888571451" lon="11.422054126120635"><ele>583.0</ele><time>2026-04-12T11:09:12Z</time></trkpt><trkpt lat="44.27283978339035" lon="11.422054278474407"><ele>583.0</ele><time>2026-04-12T11:09:13Z</time></trkpt><trkpt lat="44.27302750658723" lon="11.422052250539423"><ele>583.0</ele><time>2026-04-12T11:09:14Z</time></trkpt><trkpt lat="44.27319330705146" lon="11.422051373611474"><ele>583.0</ele><time>2026-04-12T11:09:15Z</time></trkpt><trkpt lat="44.273338248675714" lon="11.422047855573279"><ele>583.0</ele><time>2026-04-12T11:09:16Z</time></trkpt><trkpt lat="44.273468147452284" lon="11.422047154571072"><ele>583.0</ele><time>2026-04-12T11:09:17Z</time></trkpt><trkpt lat="44.27359157822875" lon="11.422071778527807"><ele>583.0</ele><time>2026-04-12T11:09:18Z</time></trkpt><trkpt lat="44.27370631226669" lon="11.42212947808181"><ele>583.0</ele><time>2026-04-12T11:09:19Z</time></trkpt><trkpt lat="44.27380077767101" lon="11.422198586838855"><ele>583.0</ele><time>2026-04-12T11:09:20Z</time></trkpt><trkpt lat="44.27388961144638" lon="11.422234834150839"><ele>583.0</ele><time>2026-04-12T11:09:21Z</time></trkpt><trkpt lat="44.27398227156015" lon="11.42222811760775"><ele>583.0</ele><time>2026-04-12T11:09:22Z</time></trkpt><trkpt lat="44.27411322710971" lon="11.422169025915867"><ele>583.0</ele><time>2026-04-12T11:09:23Z</time></trkpt><trkpt lat="44.274261463488344" lon="11.42208684495082"><ele>583.75</ele><time>2026-04-12T11:09:24Z</time></trkpt><trkpt lat="44.27438704834174" lon="11.42202130944656"><ele>584.5</ele><time>2026-04-12T11:09:25Z</time></trkpt><trkpt lat="44.27448971384696" lon="11.421935194764817"><ele>585.25</ele><time>2026-04-12T11:09:26Z</time></trkpt><trkpt lat="44.27458839662707" lon="11.42185410834257"><ele>586.0</ele><time>2026-04-12T11:09:27Z</time></trkpt><trkpt lat="44.27471346135735" lon="11.421843090540602"><ele>585.75</ele><time>2026-04-12T11:09:28Z</time></trkpt><trkpt lat="44.27487944571403" lon="11.421790899379237"><ele>585.5</ele><time>2026-04-12T11:09:29Z</time></trkpt><trkpt lat="44.27502668677367" lon="11.421765320142411"><ele>585.25</ele><time>2026-04-12T11:09:30Z</time></trkpt><trkpt lat="44.275152562773584" lon="11.421732458914498"><ele>585.0</ele><time>2026-04-12T11:09:31Z</time></trkpt><trkpt lat="44.27526407298194" lon="11.421708380186654"><ele>585.0</ele><time>2026-04-12T11:09:32Z</time></trkpt><trkpt lat="44.27537073320941" lon="11.42170871702853"><ele>585.0</ele><time>2026-04-12T11:09:33Z</time></trkpt><trkpt lat="44.275458990716984" lon="11.42175435730967"><ele>585.0</ele><time>2026-04-12T11:09:34Z</time></trkpt><trkpt lat="44.27553221524383" lon="11.421770713417285"><ele>585.0</ele><time>2026-04-12T11:09:35Z</time></trkpt><trkpt lat="44.275594249446875" lon="11.421843582828682"><ele>585.0</ele><time>2026-04-12T11:09:36Z</time></trkpt><trkpt lat="44.27565494629789" lon="11.421942006776176"><ele>585.0</ele><time>2026-04-12T11:09:37Z</time></trkpt><trkpt lat="44.2757026127006" lon="11.42205539567723"><ele>583.1666666666666</ele><time>2026-04-12T11:09:38Z</time></trkpt><trkpt lat="44.27574379009934" lon="11.422158895057436"><ele>581.3333333333334</ele><time>2026-04-12T11:09:39Z</time></trkpt><trkpt lat="44.27579208727144" lon="11.42223404939556"><ele>579.5</ele><time>2026-04-12T11:09:40Z</time></trkpt><trkpt lat="44.27586286827426" lon="11.42229723554003"><ele>577.6666666666667</ele><time>2026-04-12T11:09:40.999Z</time></trkpt><trkpt lat="44.27594154720521" lon="11.42236454758012"><ele>575.8333333333334</ele><time>2026-04-12T11:09:41.999Z</time></trkpt><trkpt lat="44.27602519076083" lon="11.4224408805964"><ele>574.0</ele><time>2026-04-12T11:09:42.999Z</time></trkpt><trkpt lat="44.27610898906103" lon="11.422504213150566"><ele>574.0</ele><time>2026-04-12T11:09:43.999Z</time></trkpt><trkpt lat="44.27618794849373" lon="11.422560495196432"><ele>574.0</ele><time>2026-04-12T11:09:44.999Z</time></trkpt><trkpt lat="44.27626847739903" lon="11.42261800543972"><ele>574.0</ele><time>2026-04-12T11:09:45.999Z</time></trkpt><trkpt lat="44.276350104617045" lon="11.422686771301194"><ele>574.0</ele><time>2026-04-12T11:09:46.999Z</time></trkpt><trkpt lat="44.27642885331282" lon="11.422756151155186"><ele>574.0</ele><time>2026-04-12T11:09:47.999Z</time></trkpt><trkpt lat="44.27651217048948" lon="11.4228296453346"><ele>573.6666666666667</ele><time>2026-04-12T11:09:48.999Z</time></trkpt><trkpt lat="44.27659107323957" lon="11.422898544195872"><ele>573.3333333333334</ele><time>2026-04-12T11:09:49.999Z</time></trkpt><trkpt lat="44.27666458570862" lon="11.422953145893992"><ele>573.0</ele><time>2026-04-12T11:09:50.999Z</time></trkpt><trkpt lat="44.27673492841305" lon="11.422988841009662"><ele>572.6666666666666</ele><time>2026-04-12T11:09:51.999Z</time></trkpt><trkpt lat="44.27680563016566" lon="11.423007874434418"><ele>572.3333333333333</ele><time>2026-04-12T11:09:52.999Z</time></trkpt><trkpt lat="44.276872364685005" lon="11.423011042641711"><ele>572.0</ele><time>2026-04-12T11:09:53.999Z</time></trkpt><trkpt lat="44.27693731077191" lon="11.423008718489742"><ele>572.0</ele><time>2026-04-12T11:09:54.999Z</time></trkpt><trkpt lat="44.27700074355093" lon="11.423010727016909"><ele>572.0</ele><time>2026-04-12T11:09:55.999Z</time></trkpt><trkpt lat="44.27706697137557" lon="11.423017137183548"><ele>572.0</ele><time>2026-04-12T11:09:56.999Z</time></trkpt><trkpt lat="44.27714669516702" lon="11.423024232539758"><ele>572.0</ele><time>2026-04-12T11:09:57.999Z</time></trkpt><trkpt lat="44.27723271350637" lon="11.42302788760319"><ele>572.0</ele><time>2026-04-12T11:09:58.999Z</time></trkpt><trkpt lat="44.27732420479949" lon="11.423035245895704"><ele>572.0</ele><time>2026-04-12T11:09:59.999Z</time></trkpt><trkpt lat="44.277405269111654" lon="11.423038126218076"><ele>572.6</ele><time>2026-04-12T11:10:00.999Z</time></trkpt><trkpt lat="44.277490379646665" lon="11.423045407646693"><ele>573.2</ele><time>2026-04-12T11:10:01.999Z</time></trkpt><trkpt lat="44.27758686962089" lon="11.423077067906409"><ele>573.8</ele><time>2026-04-12T11:10:02.999Z</time></trkpt><trkpt lat="44.277692219787426" lon="11.423131742001422"><ele>574.4</ele><time>2026-04-12T11:10:03.999Z</time></trkpt><trkpt lat="44.27779746112788" lon="11.423224648970857"><ele>575.0</ele><time>2026-04-12T11:10:04.999Z</time></trkpt><trkpt lat="44.27795443635469" lon="11.423262810623388"><ele>573.75</ele><time>2026-04-12T11:10:05.999Z</time></trkpt><trkpt lat="44.278105389204086" lon="11.423302489307881"><ele>572.5</ele><time>2026-04-12T11:10:06.999Z</time></trkpt><trkpt lat="44.27823771531169" lon="11.423342133277481"><ele>571.25</ele><time>2026-04-12T11:10:07.999Z</time></trkpt><trkpt lat="44.278357190799674" lon="11.42339669412396"><ele>570.0</ele><time>2026-04-12T11:10:08.999Z</time></trkpt><trkpt lat="44.27846643164326" lon="11.423474626351682"><ele>570.0</ele><time>2026-04-12T11:10:09.999Z</time></trkpt><trkpt lat="44.27855620598294" lon="11.423563771870608"><ele>570.0</ele><time>2026-04-12T11:10:10.999Z</time></trkpt><trkpt lat="44.27862482580813" lon="11.423669462861506"><ele>570.0</ele><time>2026-04-12T11:10:11.999Z</time></trkpt><trkpt lat="44.278675641088824" lon="11.423776235125045"><ele>570.0</ele><time>2026-04-12T11:10:12.999Z</time></trkpt><trkpt lat="44.278728438526" lon="11.423870843207363"><ele>570.0</ele><time>2026-04-12T11:10:13.999Z</time></trkpt><trkpt lat="44.2788150670587" lon="11.423958043848932"><ele>569.25</ele><time>2026-04-12T11:10:14.999Z</time></trkpt><trkpt lat="44.278934519970434" lon="11.424039520969897"><ele>568.5</ele><time>2026-04-12T11:10:15.999Z</time></trkpt><trkpt lat="44.27904964469538" lon="11.42409173877203"><ele>567.75</ele><time>2026-04-12T11:10:16.999Z</time></trkpt><trkpt lat="44.27915839160585" lon="11.424109187831833"><ele>567.0</ele><time>2026-04-12T11:10:17.999Z</time></trkpt><trkpt lat="44.27925922504945" lon="11.424094040528738"><ele>567.0</ele><time>2026-04-12T11:10:18.999Z</time></trkpt><trkpt lat="44.27934962042832" lon="11.424081622240559"><ele>567.0</ele><time>2026-04-12T11:10:19.999Z</time></trkpt><trkpt lat="44.27943499456199" lon="11.424084266134487"><ele>567.0</ele><time>2026-04-12T11:10:20.999Z</time></trkpt><trkpt lat="44.2795167265441" lon="11.424104607369877"><ele>567.0</ele><time>2026-04-12T11:10:21.999Z</time></trkpt><trkpt lat="44.27960429659332" lon="11.424153042016899"><ele>567.0</ele><time>2026-04-12T11:10:22.999Z</time></trkpt><trkpt lat="44.27969730653857" lon="11.424233131204574"><ele>566.0</ele><time>2026-04-12T11:10:23.999Z</time></trkpt><trkpt lat="44.27978836670676" lon="11.42431301822594"><ele>565.0</ele><time>2026-04-12T11:10:24.999Z</time></trkpt><trkpt lat="44.27988066051808" lon="11.424365521294147"><ele>564.0</ele><time>2026-04-12T11:10:25.999Z</time></trkpt><trkpt lat="44.279975428910745" lon="11.424377517924103"><ele>563.0</ele><time>2026-04-12T11:10:26.999Z</time></trkpt><trkpt lat="44.28007829869661" lon="11.424357470705345"><ele>562.0</ele><time>2026-04-12T11:10:27.999Z</time></trkpt><trkpt lat="44.28019852654408" lon="11.424298270731045"><ele>562.0</ele><time>2026-04-12T11:10:28.999Z</time></trkpt><trkpt lat="44.280311809982706" lon="11.424218259585052"><ele>562.0</ele><time>2026-04-12T11:10:29.999Z</time></trkpt><trkpt lat="44.280420309745345" lon="11.42414945215749"><ele>562.0</ele><time>2026-04-12T11:10:30.999Z</time></trkpt><trkpt lat="44.28052903525756" lon="11.42410518530523"><ele>562.0</ele><time>2026-04-12T11:10:31.999Z</time></trkpt><trkpt lat="44.280634971788494" lon="11.424087600482329"><ele>561.8000000000001</ele><time>2026-04-12T11:10:32.999Z</time></trkpt><trkpt lat="44.280735005994885" lon="11.424081361969222"><ele>561.6</ele><time>2026-04-12T11:10:33.999Z</time></trkpt><trkpt lat="44.2808279457416" lon="11.424061262363663"><ele>561.4000000000001</ele><time>2026-04-12T11:10:34.998Z</time></trkpt><trkpt lat="44.280914762814916" lon="11.42401739091356"><ele>561.2</ele><time>2026-04-12T11:10:35.998Z</time></trkpt><trkpt lat="44.28099336298123" lon="11.423961983686462"><ele>561.0</ele><time>2026-04-12T11:10:36.998Z</time></trkpt><trkpt lat="44.28106626298311" lon="11.423902686482808"><ele>561.0</ele><time>2026-04-12T11:10:37.998Z</time></trkpt><trkpt lat="44.28113572498225" lon="11.42385625179789"><ele>561.0</ele><time>2026-04-12T11:10:38.998Z</time></trkpt><trkpt lat="44.28121020667014" lon="11.423843582296865"><ele>561.0</ele><time>2026-04-12T11:10:39.998Z</time></trkpt><trkpt lat="44.28128959451186" lon="11.423861967079771"><ele>561.0</ele><time>2026-04-12T11:10:41Z</time></trkpt><trkpt lat="44.28139199093811" lon="11.423919328098634"><ele>561.0</ele><time>2026-04-12T11:10:42Z</time></trkpt><trkpt lat="44.281525592033134" lon="11.424021852920843"><ele>559.25</ele><time>2026-04-12T11:10:43Z</time></trkpt><trkpt lat="44.281636615004956" lon="11.424125339655248"><ele>557.5</ele><time>2026-04-12T11:10:44Z</time></trkpt><trkpt lat="44.28172527726862" lon="11.424233764624818"><ele>555.75</ele><time>2026-04-12T11:10:45Z</time></trkpt><trkpt lat="44.281806086564195" lon="11.42434294563768"><ele>554.0</ele><time>2026-04-12T11:10:46Z</time></trkpt><trkpt lat="44.281891283900094" lon="11.424437048846508"><ele>554.0</ele><time>2026-04-12T11:10:47Z</time></trkpt><trkpt lat="44.281992736963936" lon="11.424509526860426"><ele>554.0</ele><time>2026-04-12T11:10:48Z</time></trkpt><trkpt lat="44.28210174920325" lon="11.42454495489952"><ele>554.0</ele><time>2026-04-12T11:10:49Z</time></trkpt><trkpt lat="44.28221955586853" lon="11.424551788641672"><ele>554.0</ele><time>2026-04-12T11:10:50Z</time></trkpt><trkpt lat="44.28232499180306" lon="11.424535524781597"><ele>554.6</ele><time>2026-04-12T11:10:51Z</time></trkpt><trkpt lat="44.28242355547121" lon="11.424538309800338"><ele>555.2</ele><time>2026-04-12T11:10:52Z</time></trkpt><trkpt lat="44.28251895216358" lon="11.424583605944385"><ele>555.8000000000001</ele><time>2026-04-12T11:10:53Z</time></trkpt><trkpt lat="44.28260574337223" lon="11.424663071913782"><ele>556.4</ele><time>2026-04-12T11:10:54Z</time></trkpt><trkpt lat="44.28267529870012" lon="11.42474804300955"><ele>557.0</ele><time>2026-04-12T11:10:55Z</time></trkpt><trkpt lat="44.28275915111285" lon="11.424796884182623"><ele>557.0</ele><time>2026-04-12T11:10:56Z</time></trkpt><trkpt lat="44.28288874377648" lon="11.424805933660526"><ele>557.0</ele><time>2026-04-12T11:10:57Z</time></trkpt><trkpt lat="44.2830611184394" lon="11.424797161502756"><ele>557.0</ele><time>2026-04-12T11:10:58Z</time></trkpt><trkpt lat="44.28320344234834" lon="11.424799662690276"><ele>557.0</ele><time>2026-04-12T11:10:59Z</time></trkpt><trkpt lat="44.28333348364703" lon="11.42481708858653"><ele>554.6</ele><time>2026-04-12T11:11:00Z</time></trkpt><trkpt lat="44.28342878729263" lon="11.424800570894442"><ele>552.2</ele><time>2026-04-12T11:11:01Z</time></trkpt><trkpt lat="44.283519139946385" lon="11.424796630124284"><ele>549.8</ele><time>2026-04-12T11:11:02Z</time></trkpt><trkpt lat="44.283605765951194" lon="11.424775842830186"><ele>547.4</ele><time>2026-04-12T11:11:03Z</time></trkpt><trkpt lat="44.28369697761589" lon="11.424758892382966"><ele>545.0</ele><time>2026-04-12T11:11:04Z</time></trkpt><trkpt lat="44.28379143074163" lon="11.424738916954768"><ele>545.0</ele><time>2026-04-12T11:11:05Z</time></trkpt><trkpt lat="44.28388596909134" lon="11.424715049031686"><ele>545.0</ele><time>2026-04-12T11:11:06Z</time></trkpt><trkpt lat="44.283978874612906" lon="11.424694232527067"><ele>545.0</ele><time>2026-04-12T11:11:07Z</time></trkpt><trkpt lat="44.284067590777525" lon="11.42467227411835"><ele>545.0</ele><time>2026-04-12T11:11:08Z</time></trkpt><trkpt lat="44.28415313129378" lon="11.424647405804455"><ele>545.0</ele><time>2026-04-12T11:11:09Z</time></trkpt><trkpt lat="44.284238254176" lon="11.424608551358228"><ele>541.4</ele><time>2026-04-12T11:11:10Z</time></trkpt><trkpt lat="44.284323741277625" lon="11.424566747844686"><ele>537.8</ele><time>2026-04-12T11:11:11Z</time></trkpt><trkpt lat="44.284416800948456" lon="11.424530694670636"><ele>534.2</ele><time>2026-04-12T11:11:12Z</time></trkpt><trkpt lat="44.284516642192216" lon="11.424515082512867"><ele>530.6</ele><time>2026-04-12T11:11:13Z</time></trkpt><trkpt lat="44.28461348423082" lon="11.424508446420583"><ele>527.0</ele><time>2026-04-12T11:11:14Z</time></trkpt><trkpt lat="44.284704631789545" lon="11.424503069328061"><ele>527.0</ele><time>2026-04-12T11:11:15Z</time></trkpt><trkpt lat="44.28479300006096" lon="11.42448608371647"><ele>527.0</ele><time>2026-04-12T11:11:16Z</time></trkpt><trkpt lat="44.28487686127758" lon="11.424466582338384"><ele>527.0</ele><time>2026-04-12T11:11:17Z</time></trkpt><trkpt lat="44.28495258535971" lon="11.424452143277309"><ele>527.0</ele><time>2026-04-12T11:11:18Z</time></trkpt><trkpt lat="44.28502616202153" lon="11.424456867748507"><ele>527.0</ele><time>2026-04-12T11:11:19Z</time></trkpt><trkpt lat="44.285090917195674" lon="11.424464658641178"><ele>527.0</ele><time>2026-04-12T11:11:20Z</time></trkpt><trkpt lat="44.28515815680984" lon="11.424466765855572"><ele>527.0</ele><time>2026-04-12T11:11:21Z</time></trkpt><trkpt lat="44.28522319570774" lon="11.424465751365812"><ele>527.0</ele><time>2026-04-12T11:11:22Z</time></trkpt><trkpt lat="44.285348527297174" lon="11.4244715179091"><ele>527.0</ele><time>2026-04-12T11:11:24Z</time></trkpt><trkpt lat="44.28542361460331" lon="11.424476825607632"><ele>527.0</ele><time>2026-04-12T11:11:25Z</time></trkpt><trkpt lat="44.28551416353893" lon="11.424488034608922"><ele>527.0</ele><time>2026-04-12T11:11:26Z</time></trkpt><trkpt lat="44.285625007584635" lon="11.42450703220097"><ele>527.3333333333333</ele><time>2026-04-12T11:11:27Z</time></trkpt><trkpt lat="44.28573172699327" lon="11.424520070268324"><ele>527.6666666666666</ele><time>2026-04-12T11:11:28Z</time></trkpt><trkpt lat="44.28581383689468" lon="11.424524118850416"><ele>528.0</ele><time>2026-04-12T11:11:29Z</time></trkpt><trkpt lat="44.285886863358535" lon="11.424520312167015"><ele>528.3333333333334</ele><time>2026-04-12T11:11:30Z</time></trkpt><trkpt lat="44.28594951481716" lon="11.424498892487094"><ele>528.6666666666667</ele><time>2026-04-12T11:11:31Z</time></trkpt><trkpt lat="44.28600599037223" lon="11.424458203126553"><ele>529.0</ele><time>2026-04-12T11:11:32Z</time></trkpt><trkpt lat="44.28606149915211" lon="11.424412299933925"><ele>529.0</ele><time>2026-04-12T11:11:33Z</time></trkpt><trkpt lat="44.286121989584906" lon="11.424372402720252"><ele>529.0</ele><time>2026-04-12T11:11:34Z</time></trkpt><trkpt lat="44.2861820340486" lon="11.424335255559436"><ele>529.0</ele><time>2026-04-12T11:11:35Z</time></trkpt><trkpt lat="44.28624053621739" lon="11.424298483677141"><ele>529.0</ele><time>2026-04-12T11:11:37Z</time></trkpt><trkpt lat="44.2861843442613" lon="11.424482641409945"><ele>529.0</ele><time>2026-04-12T11:11:51.999Z</time></trkpt><trkpt lat="44.28613873343274" lon="11.424595292992965"><ele>529.0</ele><time>2026-04-12T11:11:53.999Z</time></trkpt><trkpt lat="44.286073999871896" lon="11.424677811374941"><ele>528.6666666666667</ele><time>2026-04-12T11:11:55.999Z</time></trkpt><trkpt lat="44.28597440159583" lon="11.42474606950417"><ele>528.3333333333334</ele><time>2026-04-12T11:11:57.999Z</time></trkpt><trkpt lat="44.28587378618417" lon="11.424835886088893"><ele>528.0</ele><time>2026-04-12T11:11:59.999Z</time></trkpt><trkpt lat="44.285807869720166" lon="11.424854939309462"><ele>527.6666666666666</ele><time>2026-04-12T11:12:00.999Z</time></trkpt><trkpt lat="44.28572861057619" lon="11.42485670181385"><ele>527.3333333333333</ele><time>2026-04-12T11:12:01.999Z</time></trkpt><trkpt lat="44.2856638868779" lon="11.424823105140883"><ele>527.0</ele><time>2026-04-12T11:12:02.999Z</time></trkpt><trkpt lat="44.285600931243856" lon="11.424836219820362"><ele>526.6</ele><time>2026-04-12T11:12:03.999Z</time></trkpt><trkpt lat="44.2854898320132" lon="11.424838985833594"><ele>526.2</ele><time>2026-04-12T11:12:05.999Z</time></trkpt><trkpt lat="44.28536609595222" lon="11.424863122214868"><ele>525.8</ele><time>2026-04-12T11:12:07.999Z</time></trkpt><trkpt lat="44.28529617818885" lon="11.42489902701577"><ele>525.4</ele><time>2026-04-12T11:12:08.999Z</time></trkpt><trkpt lat="44.2852156406718" lon="11.424942864165232"><ele>525.0</ele><time>2026-04-12T11:12:09.999Z</time></trkpt><trkpt lat="44.28514667264491" lon="11.424978151140312"><ele>525.0</ele><time>2026-04-12T11:12:10.999Z</time></trkpt><trkpt lat="44.28508110423734" lon="11.425017284649117"><ele>525.0</ele><time>2026-04-12T11:12:11.999Z</time></trkpt><trkpt lat="44.28501806653286" lon="11.425053665780892"><ele>525.0</ele><time>2026-04-12T11:12:12.999Z</time></trkpt><trkpt lat="44.2849578665995" lon="11.42509872174902"><ele>525.0</ele><time>2026-04-12T11:12:13.999Z</time></trkpt><trkpt lat="44.28490499823472" lon="11.425146547205037"><ele>525.0</ele><time>2026-04-12T11:12:14.999Z</time></trkpt><trkpt lat="44.284861317402026" lon="11.425210628329003"><ele>525.0</ele><time>2026-04-12T11:12:15.999Z</time></trkpt><trkpt lat="44.28482147881572" lon="11.425286217454476"><ele>525.0</ele><time>2026-04-12T11:12:16.999Z</time></trkpt><trkpt lat="44.284774795571245" lon="11.425397890010222"><ele>524.8333333333334</ele><time>2026-04-12T11:12:17.999Z</time></trkpt><trkpt lat="44.28474016263015" lon="11.425490551304271"><ele>524.6666666666666</ele><time>2026-04-12T11:12:18.999Z</time></trkpt><trkpt lat="44.28471082594623" lon="11.425577234156396"><ele>524.5</ele><time>2026-04-12T11:12:19.999Z</time></trkpt><trkpt lat="44.28464626871043" lon="11.425689699874217"><ele>524.3333333333333</ele><time>2026-04-12T11:12:21.999Z</time></trkpt><trkpt lat="44.28459857538823" lon="11.425786767979066"><ele>524.1666666666666</ele><time>2026-04-12T11:12:23.999Z</time></trkpt><trkpt lat="44.2845391081876" lon="11.425850986985058"><ele>524.0</ele><time>2026-04-12T11:12:25.999Z</time></trkpt><trkpt lat="44.28450177352942" lon="11.425951703934029"><ele>524.0</ele><time>2026-04-12T11:12:28.999Z</time></trkpt><trkpt lat="44.284549502782916" lon="11.42607124619951"><ele>524.0</ele><time>2026-04-12T11:12:30.999Z</time></trkpt><trkpt lat="44.284609402821665" lon="11.42617132092865"><ele>524.0</ele><time>2026-04-12T11:12:32.999Z</time></trkpt><trkpt lat="44.28468247684375" lon="11.426250240507999"><ele>524.0</ele><time>2026-04-12T11:12:34.999Z</time></trkpt><trkpt lat="44.28478574406594" lon="11.426302681947803"><ele>524.0</ele><time>2026-04-12T11:12:36.999Z</time></trkpt><trkpt lat="44.284874043973346" lon="11.426300161134126"><ele>522.1666666666666</ele><time>2026-04-12T11:12:38.999Z</time></trkpt><trkpt lat="44.28499417255632" lon="11.426248680047484"><ele>520.3333333333333</ele><time>2026-04-12T11:12:40.998Z</time></trkpt><trkpt lat="44.28505038240418" lon="11.426200259348386"><ele>518.5</ele><time>2026-04-12T11:12:41.998Z</time></trkpt><trkpt lat="44.28509803147653" lon="11.426125893549864"><ele>516.6666666666666</ele><time>2026-04-12T11:12:42.998Z</time></trkpt><trkpt lat="44.28514945790093" lon="11.426021826410057"><ele>514.8333333333334</ele><time>2026-04-12T11:12:43.998Z</time></trkpt><trkpt lat="44.28521870219385" lon="11.425943925415105"><ele>513.0</ele><time>2026-04-12T11:12:44.998Z</time></trkpt><trkpt lat="44.28527986552924" lon="11.425891771874557"><ele>513.0</ele><time>2026-04-12T11:12:45.998Z</time></trkpt><trkpt lat="44.28534660621664" lon="11.425897437647574"><ele>513.0</ele><time>2026-04-12T11:12:47Z</time></trkpt><trkpt lat="44.285440646846965" lon="11.425930574835109"><ele>513.0</ele><time>2026-04-12T11:12:48Z</time></trkpt><trkpt lat="44.28555733170633" lon="11.425967471195015"><ele>513.0</ele><time>2026-04-12T11:12:49Z</time></trkpt><trkpt lat="44.285662117480854" lon="11.426017095004902"><ele>513.0</ele><time>2026-04-12T11:12:50Z</time></trkpt><trkpt lat="44.285786017051635" lon="11.426059400453793"><ele>512.8</ele><time>2026-04-12T11:12:51Z</time></trkpt><trkpt lat="44.28589785864686" lon="11.42609735931551"><ele>512.5999999999999</ele><time>2026-04-12T11:12:52Z</time></trkpt><trkpt lat="44.28600499785651" lon="11.426138035441051"><ele>512.4000000000001</ele><time>2026-04-12T11:12:53Z</time></trkpt><trkpt lat="44.28610097479319" lon="11.426168759826908"><ele>512.2</ele><time>2026-04-12T11:12:54Z</time></trkpt><trkpt lat="44.28619077082089" lon="11.426162562025235"><ele>512.0</ele><time>2026-04-12T11:12:55Z</time></trkpt><trkpt lat="44.2862732461899" lon="11.426148160561716"><ele>511.99999999999994</ele><time>2026-04-12T11:12:56Z</time></trkpt><trkpt lat="44.28635064668386" lon="11.426133300268301"><ele>512.0</ele><time>2026-04-12T11:12:57Z</time></trkpt><trkpt lat="44.28642150767921" lon="11.42613345562814"><ele>512.0</ele><time>2026-04-12T11:12:58Z</time></trkpt><trkpt lat="44.2865076938828" lon="11.426171101318197"><ele>512.0</ele><time>2026-04-12T11:12:59Z</time></trkpt><trkpt lat="44.286583123099525" lon="11.426246635167667"><ele>511.99999999999994</ele><time>2026-04-12T11:13:00Z</time></trkpt><trkpt lat="44.28666231660047" lon="11.426332543697068"><ele>512.0</ele><time>2026-04-12T11:13:01Z</time></trkpt><trkpt lat="44.28674631651653" lon="11.426440771623222"><ele>509.20000000000005</ele><time>2026-04-12T11:13:02Z</time></trkpt><trkpt lat="44.28681545291686" lon="11.426553998601175"><ele>506.40000000000003</ele><time>2026-04-12T11:13:03Z</time></trkpt><trkpt lat="44.28688463583578" lon="11.42663799349689"><ele>503.59999999999997</ele><time>2026-04-12T11:13:04Z</time></trkpt><trkpt lat="44.28694136164736" lon="11.426713058282672"><ele>500.79999999999995</ele><time>2026-04-12T11:13:05Z</time></trkpt><trkpt lat="44.28700689967821" lon="11.42677604116205"><ele>498.0</ele><time>2026-04-12T11:13:06Z</time></trkpt><trkpt lat="44.28709733013328" lon="11.426814925237888"><ele>498.0</ele><time>2026-04-12T11:13:07Z</time></trkpt><trkpt lat="44.28718661857141" lon="11.426842058517401"><ele>497.99999999999994</ele><time>2026-04-12T11:13:08Z</time></trkpt><trkpt lat="44.28727251426451" lon="11.426836847121633"><ele>497.99999999999994</ele><time>2026-04-12T11:13:09Z</time></trkpt><trkpt lat="44.28735811204046" lon="11.426814907505957"><ele>498.0</ele><time>2026-04-12T11:13:10Z</time></trkpt><trkpt lat="44.287448351095996" lon="11.426777993454017"><ele>498.0</ele><time>2026-04-12T11:13:11Z</time></trkpt><trkpt lat="44.2875492011234" lon="11.426706870559299"><ele>499.4</ele><time>2026-04-12T11:13:12Z</time></trkpt><trkpt lat="44.2876520668764" lon="11.426654321925016"><ele>500.79999999999995</ele><time>2026-04-12T11:13:13Z</time></trkpt><trkpt lat="44.28776828137866" lon="11.426674875227645"><ele>502.2</ele><time>2026-04-12T11:13:14Z</time></trkpt><trkpt lat="44.28786395260122" lon="11.426697346760589"><ele>503.6</ele><time>2026-04-12T11:13:15Z</time></trkpt><trkpt lat="44.28797289245411" lon="11.42670738437877"><ele>505.0</ele><time>2026-04-12T11:13:16Z</time></trkpt><trkpt lat="44.28807460061337" lon="11.426734825842345"><ele>504.8</ele><time>2026-04-12T11:13:17Z</time></trkpt><trkpt lat="44.28816292956394" lon="11.426750632212103"><ele>504.6</ele><time>2026-04-12T11:13:18Z</time></trkpt><trkpt lat="44.28824354061688" lon="11.426785245882686"><ele>504.4</ele><time>2026-04-12T11:13:19Z</time></trkpt><trkpt lat="44.28830537487546" lon="11.426838449731033"><ele>504.2</ele><time>2026-04-12T11:13:20Z</time></trkpt><trkpt lat="44.28838453842449" lon="11.426938638680763"><ele>504.0</ele><time>2026-04-12T11:13:21Z</time></trkpt><trkpt lat="44.28848404889533" lon="11.427032281405305"><ele>504.0</ele><time>2026-04-12T11:13:22Z</time></trkpt><trkpt lat="44.288545743057156" lon="11.427118304600908"><ele>504.0</ele><time>2026-04-12T11:13:23Z</time></trkpt><trkpt lat="44.28860972560356" lon="11.427188624078287"><ele>504.0</ele><time>2026-04-12T11:13:24Z</time></trkpt><trkpt lat="44.2886779822471" lon="11.427285853925449"><ele>504.0</ele><time>2026-04-12T11:13:25Z</time></trkpt><trkpt lat="44.288705889344136" lon="11.427413003232576"><ele>504.0</ele><time>2026-04-12T11:13:26Z</time></trkpt><trkpt lat="44.28874187637061" lon="11.427510272511809"><ele>504.0</ele><time>2026-04-12T11:13:27Z</time></trkpt><trkpt lat="44.28875162814093" lon="11.427686596427787"><ele>502.0</ele><time>2026-04-12T11:13:29Z</time></trkpt><trkpt lat="44.288794053921194" lon="11.427837800661035"><ele>500.0</ele><time>2026-04-12T11:13:31Z</time></trkpt><trkpt lat="44.288844048014965" lon="11.427920018386425"><ele>498.0</ele><time>2026-04-12T11:13:33Z</time></trkpt><trkpt lat="44.288915612470674" lon="11.427960253061892"><ele>496.0</ele><time>2026-04-12T11:13:35Z</time></trkpt><trkpt lat="44.28905243758774" lon="11.427992691745775"><ele>494.0</ele><time>2026-04-12T11:13:37Z</time></trkpt><trkpt lat="44.2891383403411" lon="11.4280146332755"><ele>493.99999999999994</ele><time>2026-04-12T11:13:38Z</time></trkpt><trkpt lat="44.28921856476181" lon="11.428060347211684"><ele>494.0</ele><time>2026-04-12T11:13:39Z</time></trkpt><trkpt lat="44.28928942560828" lon="11.428124285788984"><ele>494.0</ele><time>2026-04-12T11:13:40Z</time></trkpt><trkpt lat="44.28935419379009" lon="11.428171279927193"><ele>494.0</ele><time>2026-04-12T11:13:41Z</time></trkpt><trkpt lat="44.28942241150742" lon="11.428188147049102"><ele>493.99999999999994</ele><time>2026-04-12T11:13:42Z</time></trkpt><trkpt lat="44.289487193559694" lon="11.428180046428414"><ele>494.0</ele><time>2026-04-12T11:13:43Z</time></trkpt><trkpt lat="44.289563934023086" lon="11.428147722686854"><ele>493.99999999999994</ele><time>2026-04-12T11:13:44Z</time></trkpt><trkpt lat="44.289655394219906" lon="11.4281037530638"><ele>494.0</ele><time>2026-04-12T11:13:45Z</time></trkpt><trkpt lat="44.28973584511452" lon="11.4280734993668"><ele>494.0</ele><time>2026-04-12T11:13:46Z</time></trkpt><trkpt lat="44.28980754522532" lon="11.428051579497065"><ele>494.0</ele><time>2026-04-12T11:13:47Z</time></trkpt><trkpt lat="44.289876725068126" lon="11.428038231744063"><ele>493.99999999999994</ele><time>2026-04-12T11:13:48Z</time></trkpt><trkpt lat="44.28995645811579" lon="11.428030155649576"><ele>494.0</ele><time>2026-04-12T11:13:49Z</time></trkpt><trkpt lat="44.29002629047568" lon="11.428010745499137"><ele>494.99999999999994</ele><time>2026-04-12T11:13:49.999Z</time></trkpt><trkpt lat="44.290087137211046" lon="11.427964079091247"><ele>496.0</ele><time>2026-04-12T11:13:50.999Z</time></trkpt><trkpt lat="44.29013389228554" lon="11.427884772039087"><ele>497.0</ele><time>2026-04-12T11:13:51.999Z</time></trkpt><trkpt lat="44.29020662188137" lon="11.427758753351599"><ele>498.0</ele><time>2026-04-12T11:13:52.999Z</time></trkpt><trkpt lat="44.29027311747857" lon="11.427653313274352"><ele>498.99999999999994</ele><time>2026-04-12T11:13:53.999Z</time></trkpt><trkpt lat="44.29032963394533" lon="11.427593586103338"><ele>500.0</ele><time>2026-04-12T11:13:54.999Z</time></trkpt><trkpt lat="44.290396615145475" lon="11.427556884377632"><ele>499.99999999999994</ele><time>2026-04-12T11:13:55.999Z</time></trkpt><trkpt lat="44.29047610484828" lon="11.427579396940917"><ele>500.0</ele><time>2026-04-12T11:13:56.999Z</time></trkpt><trkpt lat="44.29056320476749" lon="11.427571436728236"><ele>500.0</ele><time>2026-04-12T11:13:57.999Z</time></trkpt><trkpt lat="44.29063272015444" lon="11.42764652097321"><ele>500.0</ele><time>2026-04-12T11:13:58.999Z</time></trkpt><trkpt lat="44.29070355144706" lon="11.4276793003502"><ele>499.99999999999994</ele><time>2026-04-12T11:13:59.999Z</time></trkpt><trkpt lat="44.29078411270764" lon="11.427761267256596"><ele>500.0</ele><time>2026-04-12T11:14:00.999Z</time></trkpt><trkpt lat="44.290844741082545" lon="11.427812391325244"><ele>498.66666666666663</ele><time>2026-04-12T11:14:01.999Z</time></trkpt><trkpt lat="44.290911505270216" lon="11.427820884879635"><ele>497.3333333333333</ele><time>2026-04-12T11:14:02.999Z</time></trkpt><trkpt lat="44.29098477308033" lon="11.427789645646781"><ele>496.0</ele><time>2026-04-12T11:14:03.999Z</time></trkpt><trkpt lat="44.29105155629717" lon="11.427722573454487"><ele>494.66666666666663</ele><time>2026-04-12T11:14:04.999Z</time></trkpt><trkpt lat="44.29111721500955" lon="11.427621939327267"><ele>493.3333333333333</ele><time>2026-04-12T11:14:05.999Z</time></trkpt><trkpt lat="44.291195710474156" lon="11.42751755846797"><ele>492.0</ele><time>2026-04-12T11:14:06.999Z</time></trkpt><trkpt lat="44.29125457284155" lon="11.427432732859536"><ele>492.0</ele><time>2026-04-12T11:14:07.999Z</time></trkpt><trkpt lat="44.29137137524398" lon="11.427332174402537"><ele>492.00000000000006</ele><time>2026-04-12T11:14:09.999Z</time></trkpt><trkpt lat="44.2914688211134" lon="11.42728810572657"><ele>492.00000000000006</ele><time>2026-04-12T11:14:10.999Z</time></trkpt><trkpt lat="44.29158209574378" lon="11.427267455626799"><ele>492.0</ele><time>2026-04-12T11:14:11.999Z</time></trkpt><trkpt lat="44.29166654523496" lon="11.427279017606539"><ele>492.0</ele><time>2026-04-12T11:14:12.999Z</time></trkpt><trkpt lat="44.291748726239454" lon="11.42731214554193"><ele>491.40000000000003</ele><time>2026-04-12T11:14:13.999Z</time></trkpt><trkpt lat="44.29184987406" lon="11.427391096559052"><ele>490.80000000000007</ele><time>2026-04-12T11:14:14.999Z</time></trkpt><trkpt lat="44.291944459671555" lon="11.427464698056172"><ele>490.2</ele><time>2026-04-12T11:14:15.999Z</time></trkpt><trkpt lat="44.29201860537902" lon="11.42754058777858"><ele>489.6</ele><time>2026-04-12T11:14:16.999Z</time></trkpt><trkpt lat="44.29207263868143" lon="11.427629977669012"><ele>489.0</ele><time>2026-04-12T11:14:17.999Z</time></trkpt><trkpt lat="44.29211321138473" lon="11.427741580382486"><ele>489.0</ele><time>2026-04-12T11:14:18.999Z</time></trkpt><trkpt lat="44.2921795378834" lon="11.4278511500774"><ele>489.0</ele><time>2026-04-12T11:14:19.999Z</time></trkpt><trkpt lat="44.29223917805177" lon="11.4279414303413"><ele>489.0</ele><time>2026-04-12T11:14:20.999Z</time></trkpt><trkpt lat="44.292305021813064" lon="11.427990219409898"><ele>489.0</ele><time>2026-04-12T11:14:21.999Z</time></trkpt><trkpt lat="44.2923999745648" lon="11.428039204456594"><ele>489.0</ele><time>2026-04-12T11:14:22.999Z</time></trkpt><trkpt lat="44.29249019103719" lon="11.428084597494188"><ele>488.2</ele><time>2026-04-12T11:14:23.999Z</time></trkpt><trkpt lat="44.29258052521501" lon="11.428101721569279"><ele>487.4</ele><time>2026-04-12T11:14:24.999Z</time></trkpt><trkpt lat="44.292696917438654" lon="11.428118439297693"><ele>486.6</ele><time>2026-04-12T11:14:25.999Z</time></trkpt><trkpt lat="44.29281109309599" lon="11.428153730682654"><ele>485.8</ele><time>2026-04-12T11:14:26.999Z</time></trkpt><trkpt lat="44.2928857214453" lon="11.428176905652006"><ele>485.0</ele><time>2026-04-12T11:14:27.999Z</time></trkpt><trkpt lat="44.29295849580821" lon="11.428180100519842"><ele>485.0</ele><time>2026-04-12T11:14:28.999Z</time></trkpt><trkpt lat="44.2930315372267" lon="11.428197502210244"><ele>485.0</ele><time>2026-04-12T11:14:29.999Z</time></trkpt><trkpt lat="44.293119392287565" lon="11.428168514764005"><ele>485.0</ele><time>2026-04-12T11:14:30.999Z</time></trkpt><trkpt lat="44.29320198534545" lon="11.428126553961304"><ele>485.0</ele><time>2026-04-12T11:14:31.999Z</time></trkpt><trkpt lat="44.293311496869315" lon="11.42806259896685"><ele>485.0</ele><time>2026-04-12T11:14:32.999Z</time></trkpt><trkpt lat="44.293435509887345" lon="11.427955321190243"><ele>490.0</ele><time>2026-04-12T11:14:33.999Z</time></trkpt><trkpt lat="44.29357873909916" lon="11.427880455202732"><ele>495.0</ele><time>2026-04-12T11:14:34.999Z</time></trkpt><trkpt lat="44.29369346179058" lon="11.427809872573745"><ele>500.0</ele><time>2026-04-12T11:14:35.999Z</time></trkpt><trkpt lat="44.29378812528782" lon="11.427732453648037"><ele>505.0</ele><time>2026-04-12T11:14:36.999Z</time></trkpt><trkpt lat="44.293861663187904" lon="11.427677275049591"><ele>503.83333333333337</ele><time>2026-04-12T11:14:37.999Z</time></trkpt><trkpt lat="44.29393994270213" lon="11.4276177183959"><ele>502.6666666666667</ele><time>2026-04-12T11:14:38.999Z</time></trkpt><trkpt lat="44.29402555958682" lon="11.427572606110118"><ele>501.5</ele><time>2026-04-12T11:14:39.999Z</time></trkpt><trkpt lat="44.29407656519176" lon="11.42749834183473"><ele>500.33333333333337</ele><time>2026-04-12T11:14:40.999Z</time></trkpt><trkpt lat="44.29415961946323" lon="11.427413764802006"><ele>499.1666666666667</ele><time>2026-04-12T11:14:42.999Z</time></trkpt><trkpt lat="44.29420292264853" lon="11.427345637414959"><ele>498.0</ele><time>2026-04-12T11:14:43.998Z</time></trkpt><trkpt lat="44.29423332993698" lon="11.42724855661239"><ele>498.4</ele><time>2026-04-12T11:14:44.998Z</time></trkpt><trkpt lat="44.29425080210081" lon="11.427139998947139"><ele>498.79999999999995</ele><time>2026-04-12T11:14:45.998Z</time></trkpt><trkpt lat="44.29429418870205" lon="11.427013788934541"><ele>499.2</ele><time>2026-04-12T11:14:46.998Z</time></trkpt><trkpt lat="44.29433011864513" lon="11.42686499295018"><ele>499.6</ele><time>2026-04-12T11:14:47.998Z</time></trkpt><trkpt lat="44.29436413219405" lon="11.426749585108432"><ele>500.0</ele><time>2026-04-12T11:14:48.998Z</time></trkpt><trkpt lat="44.294397185980756" lon="11.426629819091733"><ele>499.99999999999994</ele><time>2026-04-12T11:14:49.998Z</time></trkpt><trkpt lat="44.294422219137765" lon="11.42652553755473"><ele>500.0</ele><time>2026-04-12T11:14:50.998Z</time></trkpt><trkpt lat="44.29446496382513" lon="11.426436328056694"><ele>500.0</ele><time>2026-04-12T11:14:51.998Z</time></trkpt><trkpt lat="44.294504541829895" lon="11.426337820498228"><ele>500.0</ele><time>2026-04-12T11:14:53Z</time></trkpt><trkpt lat="44.29458195932891" lon="11.426251826128347"><ele>499.99999999999994</ele><time>2026-04-12T11:14:55Z</time></trkpt><trkpt lat="44.29468398129466" lon="11.42627848681687"><ele>500.0</ele><time>2026-04-12T11:14:57Z</time></trkpt><trkpt lat="44.29483526473421" lon="11.426248390272304"><ele>498.6</ele><time>2026-04-12T11:14:59Z</time></trkpt><trkpt lat="44.29494948800041" lon="11.426193857233095"><ele>497.2</ele><time>2026-04-12T11:15:00Z</time></trkpt><trkpt lat="44.295050445534145" lon="11.426178032968648"><ele>495.79999999999995</ele><time>2026-04-12T11:15:01Z</time></trkpt><trkpt lat="44.2951416170162" lon="11.426190431451786"><ele>494.4</ele><time>2026-04-12T11:15:02Z</time></trkpt><trkpt lat="44.29524116640673" lon="11.42618247345052"><ele>493.0</ele><time>2026-04-12T11:15:03Z</time></trkpt><trkpt lat="44.2953247787805" lon="11.426186540454328"><ele>493.0</ele><time>2026-04-12T11:15:04Z</time></trkpt><trkpt lat="44.29541663061763" lon="11.426171889597601"><ele>492.99999999999994</ele><time>2026-04-12T11:15:05Z</time></trkpt><trkpt lat="44.29551359574784" lon="11.426139398087308"><ele>492.99999999999994</ele><time>2026-04-12T11:15:06Z</time></trkpt><trkpt lat="44.29562846906074" lon="11.42609965813175"><ele>493.0</ele><time>2026-04-12T11:15:07Z</time></trkpt><trkpt lat="44.29574085624152" lon="11.426056263590834"><ele>493.0</ele><time>2026-04-12T11:15:08Z</time></trkpt><trkpt lat="44.2958345899097" lon="11.426030493439876"><ele>491.6666666666667</ele><time>2026-04-12T11:15:09Z</time></trkpt><trkpt lat="44.29591490699289" lon="11.426009370739587"><ele>490.33333333333337</ele><time>2026-04-12T11:15:10Z</time></trkpt><trkpt lat="44.295978906833106" lon="11.42598941142391"><ele>489.0</ele><time>2026-04-12T11:15:11Z</time></trkpt><trkpt lat="44.29605169144547" lon="11.425983993163664"><ele>487.66666666666663</ele><time>2026-04-12T11:15:12Z</time></trkpt><trkpt lat="44.29615711693863" lon="11.42597372872552"><ele>486.3333333333333</ele><time>2026-04-12T11:15:14Z</time></trkpt><trkpt lat="44.29625858560662" lon="11.425983891237928"><ele>485.0</ele><time>2026-04-12T11:15:16Z</time></trkpt><trkpt lat="44.29632375356337" lon="11.42597164120762"><ele>484.99999999999994</ele><time>2026-04-12T11:15:17Z</time></trkpt><trkpt lat="44.296385808973874" lon="11.425956065251961"><ele>485.0</ele><time>2026-04-12T11:15:18Z</time></trkpt><trkpt lat="44.29649837994343" lon="11.425920930941206"><ele>485.0</ele><time>2026-04-12T11:15:20Z</time></trkpt><trkpt lat="44.29659083745779" lon="11.425887941303865"><ele>485.0</ele><time>2026-04-12T11:15:22Z</time></trkpt><trkpt lat="44.29666966528839" lon="11.425858988002147"><ele>484.99999999999994</ele><time>2026-04-12T11:15:24Z</time></trkpt><trkpt lat="44.29674289137224" lon="11.425809291954222"><ele>485.0</ele><time>2026-04-12T11:15:26Z</time></trkpt><trkpt lat="44.296822019160935" lon="11.425780916777825"><ele>484.0</ele><time>2026-04-12T11:15:28Z</time></trkpt><trkpt lat="44.296901610278844" lon="11.425721527840224"><ele>483.0</ele><time>2026-04-12T11:15:30Z</time></trkpt><trkpt lat="44.29697148107994" lon="11.425635034412833"><ele>482.0</ele><time>2026-04-12T11:15:32Z</time></trkpt><trkpt lat="44.29704535097491" lon="11.425555827011111"><ele>481.0</ele><time>2026-04-12T11:15:34Z</time></trkpt><trkpt lat="44.2971004547315" lon="11.42543745017179"><ele>480.0</ele><time>2026-04-12T11:15:36Z</time></trkpt><trkpt lat="44.297111904393724" lon="11.425296248227983"><ele>479.0</ele><time>2026-04-12T11:15:38Z</time></trkpt><trkpt lat="44.29713189709838" lon="11.425186653694784"><ele>478.0</ele><time>2026-04-12T11:15:40Z</time></trkpt><trkpt lat="44.29713627372027" lon="11.425090095255731"><ele>477.0</ele><time>2026-04-12T11:15:41.999Z</time></trkpt><trkpt lat="44.29717876043243" lon="11.424990649216593"><ele>476.0</ele><time>2026-04-12T11:15:44.999Z</time></trkpt><trkpt lat="44.29727086070977" lon="11.424950316327228"><ele>475.0</ele><time>2026-04-12T11:15:47.999Z</time></trkpt><trkpt lat="44.29735067661476" lon="11.424981637092975"><ele>474.0</ele><time>2026-04-12T11:15:49.999Z</time></trkpt><trkpt lat="44.29744103365423" lon="11.425021162144878"><ele>474.0</ele><time>2026-04-12T11:15:51.999Z</time></trkpt><trkpt lat="44.29752853484646" lon="11.425030323075804"><ele>474.0</ele><time>2026-04-12T11:15:53.999Z</time></trkpt><trkpt lat="44.29765688944761" lon="11.424974491431717"><ele>474.0</ele><time>2026-04-12T11:15:55.999Z</time></trkpt><trkpt lat="44.29774007923092" lon="11.424900667233144"><ele>474.0</ele><time>2026-04-12T11:15:56.999Z</time></trkpt><trkpt lat="44.297824521806895" lon="11.424806499156746"><ele>474.0</ele><time>2026-04-12T11:15:57.999Z</time></trkpt><trkpt lat="44.297899795018914" lon="11.424753679903244"><ele>474.0</ele><time>2026-04-12T11:15:58.999Z</time></trkpt><trkpt lat="44.29797148305264" lon="11.424714227492853"><ele>474.0</ele><time>2026-04-12T11:15:59.999Z</time></trkpt><trkpt lat="44.298049746130374" lon="11.424701666632274"><ele>474.0</ele><time>2026-04-12T11:16:00.999Z</time></trkpt><trkpt lat="44.298170279690964" lon="11.424705428607027"><ele>474.0</ele><time>2026-04-12T11:16:01.999Z</time></trkpt><trkpt lat="44.2982970650189" lon="11.424706262370014"><ele>474.0</ele><time>2026-04-12T11:16:02.999Z</time></trkpt><trkpt lat="44.298423146896376" lon="11.42471751767161"><ele>472.0</ele><time>2026-04-12T11:16:03.999Z</time></trkpt><trkpt lat="44.29856216194162" lon="11.424734700049838"><ele>470.0</ele><time>2026-04-12T11:16:04.999Z</time></trkpt><trkpt lat="44.29867039778002" lon="11.424764315274992"><ele>468.0</ele><time>2026-04-12T11:16:05.999Z</time></trkpt><trkpt lat="44.298766824645185" lon="11.424794020441231"><ele>466.0</ele><time>2026-04-12T11:16:06.999Z</time></trkpt><trkpt lat="44.2988601163735" lon="11.424809236274495"><ele>464.0</ele><time>2026-04-12T11:16:07.999Z</time></trkpt><trkpt lat="44.298944263050885" lon="11.424823431961952"><ele>464.0</ele><time>2026-04-12T11:16:08.999Z</time></trkpt><trkpt lat="44.29903959814357" lon="11.424824080041649"><ele>464.0</ele><time>2026-04-12T11:16:09.999Z</time></trkpt><trkpt lat="44.29915342005813" lon="11.424805866583222"><ele>464.0</ele><time>2026-04-12T11:16:10.999Z</time></trkpt><trkpt lat="44.29926206339651" lon="11.424786795734526"><ele>464.0</ele><time>2026-04-12T11:16:11.999Z</time></trkpt><trkpt lat="44.29935545866253" lon="11.4247918087513"><ele>464.0</ele><time>2026-04-12T11:16:12.999Z</time></trkpt><trkpt lat="44.29944515670907" lon="11.424806866122074"><ele>464.0</ele><time>2026-04-12T11:16:13.999Z</time></trkpt><trkpt lat="44.2995459132961" lon="11.42482354655442"><ele>464.0</ele><time>2026-04-12T11:16:14.999Z</time></trkpt><trkpt lat="44.29968472855171" lon="11.424858002706795"><ele>464.0</ele><time>2026-04-12T11:16:15.999Z</time></trkpt><trkpt lat="44.29985149320918" lon="11.424906218607054"><ele>464.0</ele><time>2026-04-12T11:16:16.999Z</time></trkpt><trkpt lat="44.30000109245055" lon="11.424966872683521"><ele>462.0</ele><time>2026-04-12T11:16:17.999Z</time></trkpt><trkpt lat="44.300129098282994" lon="11.425028566209463"><ele>460.0</ele><time>2026-04-12T11:16:18.999Z</time></trkpt><trkpt lat="44.30025656026077" lon="11.425090420983524"><ele>458.0</ele><time>2026-04-12T11:16:19.999Z</time></trkpt><trkpt lat="44.300378314222435" lon="11.425153228436724"><ele>456.0</ele><time>2026-04-12T11:16:20.999Z</time></trkpt><trkpt lat="44.30050501751239" lon="11.425190377986489"><ele>459.25</ele><time>2026-04-12T11:16:21.999Z</time></trkpt><trkpt lat="44.30063208476494" lon="11.42521623222754"><ele>462.5</ele><time>2026-04-12T11:16:22.999Z</time></trkpt><trkpt lat="44.30077299206584" lon="11.425240155452926"><ele>465.75</ele><time>2026-04-12T11:16:23.999Z</time></trkpt><trkpt lat="44.30088602824692" lon="11.425248553823035"><ele>469.0</ele><time>2026-04-12T11:16:24.999Z</time></trkpt><trkpt lat="44.300984953386916" lon="11.42526489669591"><ele>469.00000000000006</ele><time>2026-04-12T11:16:25.999Z</time></trkpt><trkpt lat="44.301067594420104" lon="11.42528440077796"><ele>469.0</ele><time>2026-04-12T11:16:26.999Z</time></trkpt><trkpt lat="44.30115790426119" lon="11.425273561247703"><ele>469.0</ele><time>2026-04-12T11:16:28.999Z</time></trkpt><trkpt lat="44.301218838002306" lon="11.425242025743255"><ele>469.0</ele><time>2026-04-12T11:16:29.999Z</time></trkpt><trkpt lat="44.30130677650187" lon="11.42519023973373"><ele>469.00000000000006</ele><time>2026-04-12T11:16:30.999Z</time></trkpt><trkpt lat="44.301380228946904" lon="11.425146907340887"><ele>469.0</ele><time>2026-04-12T11:16:31.999Z</time></trkpt><trkpt lat="44.30145519375186" lon="11.425147017522864"><ele>473.0</ele><time>2026-04-12T11:16:32.999Z</time></trkpt><trkpt lat="44.30154180735367" lon="11.425138119463515"><ele>477.0</ele><time>2026-04-12T11:16:33.999Z</time></trkpt><trkpt lat="44.30163613477282" lon="11.425159631524076"><ele>481.0</ele><time>2026-04-12T11:16:34.998Z</time></trkpt><trkpt lat="44.301766459898644" lon="11.425200968022626"><ele>485.0</ele><time>2026-04-12T11:16:35.998Z</time></trkpt><trkpt lat="44.30191945901685" lon="11.425223424773117"><ele>485.0</ele><time>2026-04-12T11:16:36.998Z</time></trkpt><trkpt lat="44.30206270710721" lon="11.425257211477904"><ele>485.0</ele><time>2026-04-12T11:16:37.998Z</time></trkpt><trkpt lat="44.30219708438749" lon="11.425321110922056"><ele>485.0</ele><time>2026-04-12T11:16:38.998Z</time></trkpt><trkpt lat="44.30231714106863" lon="11.42536183145367"><ele>485.0</ele><time>2026-04-12T11:16:39.998Z</time></trkpt><trkpt lat="44.30241209865751" lon="11.425395029774831"><ele>485.3333333333333</ele><time>2026-04-12T11:16:40.998Z</time></trkpt><trkpt lat="44.3024894933063" lon="11.425425531734563"><ele>485.66666666666663</ele><time>2026-04-12T11:16:41.998Z</time></trkpt><trkpt lat="44.30255399166242" lon="11.425471060385432"><ele>486.0</ele><time>2026-04-12T11:16:42.998Z</time></trkpt><trkpt lat="44.302627728855555" lon="11.425485439719637"><ele>486.33333333333337</ele><time>2026-04-12T11:16:43.998Z</time></trkpt><trkpt lat="44.30270522030747" lon="11.425541096610557"><ele>486.6666666666667</ele><time>2026-04-12T11:16:44.998Z</time></trkpt><trkpt lat="44.30277834422357" lon="11.4256354098282"><ele>487.0</ele><time>2026-04-12T11:16:45.998Z</time></trkpt><trkpt lat="44.30287878858065" lon="11.425717791361045"><ele>487.0</ele><time>2026-04-12T11:16:46.998Z</time></trkpt><trkpt lat="44.302987615663035" lon="11.42580173490205"><ele>487.00000000000006</ele><time>2026-04-12T11:16:47.998Z</time></trkpt><trkpt lat="44.303061440652" lon="11.425872466668569"><ele>487.00000000000006</ele><time>2026-04-12T11:16:48.998Z</time></trkpt><trkpt lat="44.30311515618512" lon="11.425950125458671"><ele>487.0</ele><time>2026-04-12T11:16:49.998Z</time></trkpt><trkpt lat="44.30318136689689" lon="11.426036312673991"><ele>487.0</ele><time>2026-04-12T11:16:50.998Z</time></trkpt><trkpt lat="44.30324455054106" lon="11.426073520834091"><ele>491.25</ele><time>2026-04-12T11:16:51.998Z</time></trkpt><trkpt lat="44.3033649387016" lon="11.426105522054714"><ele>495.5</ele><time>2026-04-12T11:16:53.998Z</time></trkpt><trkpt lat="44.30346763752367" lon="11.426090219897683"><ele>499.75</ele><time>2026-04-12T11:16:54.998Z</time></trkpt><trkpt lat="44.303579602701994" lon="11.42605978747521"><ele>504.0</ele><time>2026-04-12T11:16:55.998Z</time></trkpt><trkpt lat="44.303694848767925" lon="11.426040198130217"><ele>504.0</ele><time>2026-04-12T11:16:56.998Z</time></trkpt><trkpt lat="44.30378426206505" lon="11.426023956168248"><ele>504.0</ele><time>2026-04-12T11:16:57.998Z</time></trkpt><trkpt lat="44.303855643665756" lon="11.42601753660496"><ele>504.0</ele><time>2026-04-12T11:16:59Z</time></trkpt><trkpt lat="44.303931516831334" lon="11.426055648459302"><ele>504.0</ele><time>2026-04-12T11:17:00Z</time></trkpt><trkpt lat="44.304001183440015" lon="11.42608125732282"><ele>504.0</ele><time>2026-04-12T11:17:01Z</time></trkpt><trkpt lat="44.3040832988426" lon="11.426094839095056"><ele>504.0</ele><time>2026-04-12T11:17:02Z</time></trkpt><trkpt lat="44.30418826095938" lon="11.426143083960913"><ele>506.0</ele><time>2026-04-12T11:17:03Z</time></trkpt><trkpt lat="44.30427982327479" lon="11.426170871520924"><ele>508.0</ele><time>2026-04-12T11:17:04Z</time></trkpt><trkpt lat="44.30434558858505" lon="11.426172843533028"><ele>510.0</ele><time>2026-04-12T11:17:05Z</time></trkpt><trkpt lat="44.30441097780388" lon="11.42616996034708"><ele>512.0</ele><time>2026-04-12T11:17:06Z</time></trkpt><trkpt lat="44.304534458870364" lon="11.426210159974316"><ele>514.0</ele><time>2026-04-12T11:17:08Z</time></trkpt><trkpt lat="44.30460503160096" lon="11.426307871567946"><ele>514.0</ele><time>2026-04-12T11:17:09Z</time></trkpt><trkpt lat="44.30470790367829" lon="11.426401694786177"><ele>514.0</ele><time>2026-04-12T11:17:10Z</time></trkpt><trkpt lat="44.30478810766613" lon="11.426497927233953"><ele>514.0</ele><time>2026-04-12T11:17:11Z</time></trkpt><trkpt lat="44.304873492700864" lon="11.4265686822539"><ele>514.0</ele><time>2026-04-12T11:17:12Z</time></trkpt><trkpt lat="44.30497218243962" lon="11.426605883057126"><ele>514.0</ele><time>2026-04-12T11:17:13Z</time></trkpt><trkpt lat="44.30511143454649" lon="11.4266347916782"><ele>514.0</ele><time>2026-04-12T11:17:14Z</time></trkpt><trkpt lat="44.3052531993732" lon="11.426652914957563"><ele>514.0</ele><time>2026-04-12T11:17:15Z</time></trkpt><trkpt lat="44.305371323635505" lon="11.426660433417108"><ele>514.0</ele><time>2026-04-12T11:17:16Z</time></trkpt><trkpt lat="44.305477582110385" lon="11.426669352855967"><ele>514.0</ele><time>2026-04-12T11:17:17Z</time></trkpt><trkpt lat="44.30557496613009" lon="11.426683063854847"><ele>512.5</ele><time>2026-04-12T11:17:18Z</time></trkpt><trkpt lat="44.30565758588304" lon="11.426698698563673"><ele>511.0</ele><time>2026-04-12T11:17:19Z</time></trkpt><trkpt lat="44.30574039470272" lon="11.426732845599687"><ele>509.5</ele><time>2026-04-12T11:17:20Z</time></trkpt><trkpt lat="44.30582867906367" lon="11.426786876282037"><ele>508.0</ele><time>2026-04-12T11:17:21Z</time></trkpt><trkpt lat="44.30590539230839" lon="11.426850048699412"><ele>506.50000000000006</ele><time>2026-04-12T11:17:22Z</time></trkpt><trkpt lat="44.30596828360878" lon="11.426916999308304"><ele>505.0</ele><time>2026-04-12T11:17:23Z</time></trkpt><trkpt lat="44.306022373260944" lon="11.426991100472346"><ele>505.00000000000006</ele><time>2026-04-12T11:17:24Z</time></trkpt><trkpt lat="44.30607153650197" lon="11.427068156638072"><ele>505.0</ele><time>2026-04-12T11:17:25Z</time></trkpt><trkpt lat="44.306139580774314" lon="11.427143042776672"><ele>505.0</ele><time>2026-04-12T11:17:26Z</time></trkpt><trkpt lat="44.30621790873004" lon="11.427187342924435"><ele>505.0</ele><time>2026-04-12T11:17:27Z</time></trkpt><trkpt lat="44.30630991792192" lon="11.427203397909391"><ele>505.00000000000006</ele><time>2026-04-12T11:17:28Z</time></trkpt><trkpt lat="44.30641094770362" lon="11.427202339945866"><ele>505.0</ele><time>2026-04-12T11:17:29Z</time></trkpt><trkpt lat="44.30651060114782" lon="11.427182338404863"><ele>503.6</ele><time>2026-04-12T11:17:30Z</time></trkpt><trkpt lat="44.306623645751586" lon="11.427151018020785"><ele>502.2</ele><time>2026-04-12T11:17:31Z</time></trkpt><trkpt lat="44.306739036552194" lon="11.427119679189921"><ele>500.79999999999995</ele><time>2026-04-12T11:17:32Z</time></trkpt><trkpt lat="44.306844080373274" lon="11.427095574642152"><ele>499.4</ele><time>2026-04-12T11:17:33Z</time></trkpt><trkpt lat="44.30693753738376" lon="11.427091952396301"><ele>498.0</ele><time>2026-04-12T11:17:34Z</time></trkpt><trkpt lat="44.30702838017955" lon="11.427102836059984"><ele>498.0</ele><time>2026-04-12T11:17:35Z</time></trkpt><trkpt lat="44.307119346596814" lon="11.427121046256092"><ele>498.0</ele><time>2026-04-12T11:17:36Z</time></trkpt><trkpt lat="44.30719732480593" lon="11.427146197603536"><ele>498.0</ele><time>2026-04-12T11:17:37Z</time></trkpt><trkpt lat="44.30727668661279" lon="11.427164764714268"><ele>498.0</ele><time>2026-04-12T11:17:38Z</time></trkpt><trkpt lat="44.30736464244834" lon="11.427162137248102"><ele>498.0</ele><time>2026-04-12T11:17:39Z</time></trkpt><trkpt lat="44.30746893319509" lon="11.427136924294237"><ele>498.0</ele><time>2026-04-12T11:17:40Z</time></trkpt><trkpt lat="44.30757531779407" lon="11.427087618122464"><ele>496.5</ele><time>2026-04-12T11:17:41Z</time></trkpt><trkpt lat="44.307693393036665" lon="11.427013665505733"><ele>495.0</ele><time>2026-04-12T11:17:42Z</time></trkpt><trkpt lat="44.30781073939355" lon="11.426924610848603"><ele>493.5</ele><time>2026-04-12T11:17:43Z</time></trkpt><trkpt lat="44.307910697077915" lon="11.42685491591201"><ele>492.0</ele><time>2026-04-12T11:17:44Z</time></trkpt><trkpt lat="44.30800024559542" lon="11.426791788608893"><ele>492.0</ele><time>2026-04-12T11:17:45Z</time></trkpt><trkpt lat="44.30807312966883" lon="11.426731690332876"><ele>492.00000000000006</ele><time>2026-04-12T11:17:46Z</time></trkpt><trkpt lat="44.308152161221734" lon="11.426652782853296"><ele>492.00000000000006</ele><time>2026-04-12T11:17:47Z</time></trkpt><trkpt lat="44.308261335285394" lon="11.426536278044654"><ele>492.0</ele><time>2026-04-12T11:17:48Z</time></trkpt><trkpt lat="44.30836760290913" lon="11.426443365099777"><ele>492.0</ele><time>2026-04-12T11:17:49Z</time></trkpt><trkpt lat="44.30846045898768" lon="11.42637092188111"><ele>491.8</ele><time>2026-04-12T11:17:50Z</time></trkpt><trkpt lat="44.30855390976614" lon="11.42628923283725"><ele>491.6</ele><time>2026-04-12T11:17:51Z</time></trkpt><trkpt lat="44.30863797334951" lon="11.426195994852606"><ele>491.40000000000003</ele><time>2026-04-12T11:17:52Z</time></trkpt><trkpt lat="44.30871362868445" lon="11.426088244934107"><ele>491.20000000000005</ele><time>2026-04-12T11:17:53Z</time></trkpt><trkpt lat="44.30878657768539" lon="11.425964563547137"><ele>491.0</ele><time>2026-04-12T11:17:54Z</time></trkpt><trkpt lat="44.30886304086191" lon="11.425826592706205"><ele>493.0</ele><time>2026-04-12T11:17:55Z</time></trkpt><trkpt lat="44.308941342549026" lon="11.425669082061539"><ele>495.0</ele><time>2026-04-12T11:17:56Z</time></trkpt><trkpt lat="44.309024093732454" lon="11.425508571079027"><ele>497.0</ele><time>2026-04-12T11:17:57Z</time></trkpt><trkpt lat="44.30909439590674" lon="11.425372734552125"><ele>499.0</ele><time>2026-04-12T11:17:58Z</time></trkpt><trkpt lat="44.30915631154518" lon="11.425263378010612"><ele>500.75</ele><time>2026-04-12T11:17:58.999Z</time></trkpt><trkpt lat="44.3092296864622" lon="11.425146952661736"><ele>502.5</ele><time>2026-04-12T11:17:59.999Z</time></trkpt><trkpt lat="44.30932302655082" lon="11.425010786951207"><ele>504.25</ele><time>2026-04-12T11:18:00.999Z</time></trkpt><trkpt lat="44.30940786080077" lon="11.42488201519733"><ele>506.0</ele><time>2026-04-12T11:18:01.999Z</time></trkpt><trkpt lat="44.30946465410495" lon="11.424785168124261"><ele>506.0</ele><time>2026-04-12T11:18:02.999Z</time></trkpt><trkpt lat="44.309510628272655" lon="11.424700248868882"><ele>506.0</ele><time>2026-04-12T11:18:03.999Z</time></trkpt><trkpt lat="44.309554758286204" lon="11.42461054081168"><ele>506.0</ele><time>2026-04-12T11:18:04.999Z</time></trkpt><trkpt lat="44.309604950508536" lon="11.424486827552672"><ele>506.0</ele><time>2026-04-12T11:18:06.999Z</time></trkpt><trkpt lat="44.3097209447772" lon="11.424446380191961"><ele>506.0</ele><time>2026-04-12T11:18:08.999Z</time></trkpt><trkpt lat="44.309850151002856" lon="11.424519176708063"><ele>508.25</ele><time>2026-04-12T11:18:10.999Z</time></trkpt><trkpt lat="44.30995847651521" lon="11.42460573431965"><ele>510.5</ele><time>2026-04-12T11:18:11.999Z</time></trkpt><trkpt lat="44.31008280210547" lon="11.42474880733711"><ele>512.75</ele><time>2026-04-12T11:18:12.999Z</time></trkpt><trkpt lat="44.310206409136036" lon="11.424879202611343"><ele>515.0</ele><time>2026-04-12T11:18:13.999Z</time></trkpt><trkpt lat="44.31031141331964" lon="11.425004186065442"><ele>515.0</ele><time>2026-04-12T11:18:14.999Z</time></trkpt><trkpt lat="44.31041918056649" lon="11.425116968751247"><ele>515.0</ele><time>2026-04-12T11:18:15.999Z</time></trkpt><trkpt lat="44.31050786173629" lon="11.425245605137782"><ele>515.0</ele><time>2026-04-12T11:18:16.999Z</time></trkpt><trkpt lat="44.31058903508979" lon="11.425370306221428"><ele>515.0</ele><time>2026-04-12T11:18:17.999Z</time></trkpt><trkpt lat="44.310645891505615" lon="11.425514170328983"><ele>514.6</ele><time>2026-04-12T11:18:18.999Z</time></trkpt><trkpt lat="44.310721573443786" lon="11.425623219334316"><ele>514.2</ele><time>2026-04-12T11:18:19.999Z</time></trkpt><trkpt lat="44.3107762023992" lon="11.425734786555187"><ele>513.8</ele><time>2026-04-12T11:18:20.999Z</time></trkpt><trkpt lat="44.31085109872237" lon="11.425844695330039"><ele>513.4</ele><time>2026-04-12T11:18:21.999Z</time></trkpt><trkpt lat="44.310925997661165" lon="11.42593240801678"><ele>513.0</ele><time>2026-04-12T11:18:22.999Z</time></trkpt><trkpt lat="44.31095435391526" lon="11.426059882177935"><ele>513.0</ele><time>2026-04-12T11:18:23.999Z</time></trkpt><trkpt lat="44.310976890105884" lon="11.426173040727894"><ele>513.0</ele><time>2026-04-12T11:18:24.999Z</time></trkpt><trkpt lat="44.31098683241393" lon="11.426296802575356"><ele>513.0</ele><time>2026-04-12T11:18:25.999Z</time></trkpt><trkpt lat="44.3110036870239" lon="11.426415306229305"><ele>513.0</ele><time>2026-04-12T11:18:26.999Z</time></trkpt><trkpt lat="44.31100272188353" lon="11.426537135316352"><ele>513.0</ele><time>2026-04-12T11:18:27.999Z</time></trkpt><trkpt lat="44.31100566169264" lon="11.426661393024563"><ele>513.0</ele><time>2026-04-12T11:18:28.999Z</time></trkpt><trkpt lat="44.311015301112015" lon="11.426780432097217"><ele>510.5</ele><time>2026-04-12T11:18:29.999Z</time></trkpt><trkpt lat="44.311030601838" lon="11.426895332715247"><ele>508.0</ele><time>2026-04-12T11:18:30.999Z</time></trkpt><trkpt lat="44.31105593883171" lon="11.427011413792734"><ele>505.5</ele><time>2026-04-12T11:18:31.999Z</time></trkpt><trkpt lat="44.31108982361697" lon="11.427108421907958"><ele>503.0</ele><time>2026-04-12T11:18:32.999Z</time></trkpt><trkpt lat="44.31113154126463" lon="11.42718105112827"><ele>500.5</ele><time>2026-04-12T11:18:33.999Z</time></trkpt><trkpt lat="44.31118750028451" lon="11.427235242247859"><ele>498.0</ele><time>2026-04-12T11:18:34.999Z</time></trkpt><trkpt lat="44.31127737193846" lon="11.427306258971116"><ele>500.0</ele><time>2026-04-12T11:18:35.999Z</time></trkpt><trkpt lat="44.31139306008965" lon="11.42739449580179"><ele>502.0</ele><time>2026-04-12T11:18:36.999Z</time></trkpt><trkpt lat="44.31151912567114" lon="11.4274685240817"><ele>504.0</ele><time>2026-04-12T11:18:37.999Z</time></trkpt><trkpt lat="44.311641232252086" lon="11.427537435690251"><ele>506.0</ele><time>2026-04-12T11:18:38.999Z</time></trkpt><trkpt lat="44.31174477465987" lon="11.427592129811439"><ele>506.0</ele><time>2026-04-12T11:18:39.999Z</time></trkpt><trkpt lat="44.31182559828605" lon="11.427635486978382"><ele>506.0</ele><time>2026-04-12T11:18:40.999Z</time></trkpt><trkpt lat="44.3119247970938" lon="11.427673675483568"><ele>506.0</ele><time>2026-04-12T11:18:41.999Z</time></trkpt><trkpt lat="44.31205107582174" lon="11.427698983892162"><ele>506.0</ele><time>2026-04-12T11:18:42.999Z</time></trkpt><trkpt lat="44.312156348952506" lon="11.42771713278302"><ele>506.0</ele><time>2026-04-12T11:18:43.999Z</time></trkpt><trkpt lat="44.312221974783014" lon="11.427726359394544"><ele>506.8</ele><time>2026-04-12T11:18:44.999Z</time></trkpt><trkpt lat="44.31229660864128" lon="11.427711907708552"><ele>507.6</ele><time>2026-04-12T11:18:46.999Z</time></trkpt><trkpt lat="44.312390253754465" lon="11.427601947051306"><ele>508.4</ele><time>2026-04-12T11:18:48.999Z</time></trkpt><trkpt lat="44.31241893171041" lon="11.427504853348635"><ele>509.2</ele><time>2026-04-12T11:18:49.999Z</time></trkpt><trkpt lat="44.31245587902305" lon="11.427391890645922"><ele>510.0</ele><time>2026-04-12T11:18:50.999Z</time></trkpt><trkpt lat="44.31252321389004" lon="11.427265527118719"><ele>510.0</ele><time>2026-04-12T11:18:51.999Z</time></trkpt><trkpt lat="44.3125894205913" lon="11.427217656160675"><ele>510.0</ele><time>2026-04-12T11:18:52.998Z</time></trkpt><trkpt lat="44.31267640408351" lon="11.427148190825523"><ele>510.0</ele><time>2026-04-12T11:18:53.998Z</time></trkpt><trkpt lat="44.312777219466206" lon="11.427088277875509"><ele>510.0</ele><time>2026-04-12T11:18:54.998Z</time></trkpt><trkpt lat="44.31288543108901" lon="11.427056338271292"><ele>510.0</ele><time>2026-04-12T11:18:55.998Z</time></trkpt><trkpt lat="44.31301233307476" lon="11.42702220024406"><ele>515.5</ele><time>2026-04-12T11:18:56.998Z</time></trkpt><trkpt lat="44.31316754098201" lon="11.427022611989063"><ele>521.0</ele><time>2026-04-12T11:18:57.998Z</time></trkpt><trkpt lat="44.31331369372283" lon="11.427026750163954"><ele>526.5</ele><time>2026-04-12T11:18:58.998Z</time></trkpt><trkpt lat="44.313402943973365" lon="11.42699971647784"><ele>532.0</ele><time>2026-04-12T11:18:59.998Z</time></trkpt><trkpt lat="44.31346549958144" lon="11.426935094962785"><ele>532.0</ele><time>2026-04-12T11:19:00.998Z</time></trkpt><trkpt lat="44.31354992365177" lon="11.42687533957144"><ele>532.0</ele><time>2026-04-12T11:19:01.998Z</time></trkpt><trkpt lat="44.313666473281536" lon="11.426832754507235"><ele>532.0</ele><time>2026-04-12T11:19:02.998Z</time></trkpt><trkpt lat="44.31375676088195" lon="11.42682441361379"><ele>532.0</ele><time>2026-04-12T11:19:04Z</time></trkpt><trkpt lat="44.31381794113492" lon="11.426801073828138"><ele>532.0</ele><time>2026-04-12T11:19:05Z</time></trkpt><trkpt lat="44.31395255875926" lon="11.42668233503957"><ele>530.6</ele><time>2026-04-12T11:19:07Z</time></trkpt><trkpt lat="44.3140370008426" lon="11.426635075436707"><ele>529.2</ele><time>2026-04-12T11:19:08Z</time></trkpt><trkpt lat="44.314117801333836" lon="11.426635911907129"><ele>527.8</ele><time>2026-04-12T11:19:09Z</time></trkpt><trkpt lat="44.31421611618699" lon="11.426649043051402"><ele>526.4</ele><time>2026-04-12T11:19:10Z</time></trkpt><trkpt lat="44.314304247926" lon="11.42661915861014"><ele>525.0</ele><time>2026-04-12T11:19:11Z</time></trkpt><trkpt lat="44.31439869639767" lon="11.426542334559779"><ele>525.0</ele><time>2026-04-12T11:19:12Z</time></trkpt><trkpt lat="44.3145044560127" lon="11.426429540029261"><ele>525.0</ele><time>2026-04-12T11:19:13Z</time></trkpt><trkpt lat="44.314607925609096" lon="11.426337189355273"><ele>525.0</ele><time>2026-04-12T11:19:14Z</time></trkpt><trkpt lat="44.31468766722578" lon="11.426279462093433"><ele>525.0</ele><time>2026-04-12T11:19:15Z</time></trkpt><trkpt lat="44.31478440331396" lon="11.426268178645952"><ele>525.0</ele><time>2026-04-12T11:19:16Z</time></trkpt><trkpt lat="44.31490138805792" lon="11.426285847305316"><ele>529.0</ele><time>2026-04-12T11:19:17Z</time></trkpt><trkpt lat="44.315042348239665" lon="11.426310304564973"><ele>533.0</ele><time>2026-04-12T11:19:18Z</time></trkpt><trkpt lat="44.315169096932564" lon="11.426303192241159"><ele>537.0</ele><time>2026-04-12T11:19:19Z</time></trkpt><trkpt lat="44.315274327900525" lon="11.426258983620974"><ele>541.0</ele><time>2026-04-12T11:19:20Z</time></trkpt><trkpt lat="44.31538767365665" lon="11.42628022084372"><ele>541.0</ele><time>2026-04-12T11:19:21Z</time></trkpt><trkpt lat="44.31549535232811" lon="11.426304650852316"><ele>541.0</ele><time>2026-04-12T11:19:22Z</time></trkpt><trkpt lat="44.31556334302864" lon="11.42635652297019"><ele>541.0</ele><time>2026-04-12T11:19:23Z</time></trkpt><trkpt lat="44.3156289144308" lon="11.42640505201217"><ele>541.0</ele><time>2026-04-12T11:19:24Z</time></trkpt><trkpt lat="44.31571461841896" lon="11.426474867388427"><ele>541.0</ele><time>2026-04-12T11:19:25Z</time></trkpt><trkpt lat="44.31582096977994" lon="11.42656069428845"><ele>537.75</ele><time>2026-04-12T11:19:26Z</time></trkpt><trkpt lat="44.31590811444318" lon="11.42662436913152"><ele>534.5</ele><time>2026-04-12T11:19:27Z</time></trkpt><trkpt lat="44.31599178688546" lon="11.426694195021645"><ele>531.25</ele><time>2026-04-12T11:19:28Z</time></trkpt><trkpt lat="44.31609962849994" lon="11.426787366510833"><ele>528.0</ele><time>2026-04-12T11:19:29Z</time></trkpt><trkpt lat="44.31621701815503" lon="11.426920200860462"><ele>528.0</ele><time>2026-04-12T11:19:30Z</time></trkpt><trkpt lat="44.31636874095091" lon="11.427058965349818"><ele>528.0</ele><time>2026-04-12T11:19:31Z</time></trkpt><trkpt lat="44.316478209580566" lon="11.427170251732262"><ele>528.0</ele><time>2026-04-12T11:19:32Z</time></trkpt><trkpt lat="44.31656639251317" lon="11.427288418247178"><ele>528.0</ele><time>2026-04-12T11:19:33Z</time></trkpt><trkpt lat="44.316651876160286" lon="11.427382357810462"><ele>527.6666666666666</ele><time>2026-04-12T11:19:34Z</time></trkpt><trkpt lat="44.31673093039454" lon="11.42745219697948"><ele>527.3333333333334</ele><time>2026-04-12T11:19:35Z</time></trkpt><trkpt lat="44.31680496186562" lon="11.427512052443266"><ele>527.0</ele><time>2026-04-12T11:19:36Z</time></trkpt><trkpt lat="44.316874471353955" lon="11.427577654832541"><ele>526.6666666666667</ele><time>2026-04-12T11:19:37Z</time></trkpt><trkpt lat="44.31693457635187" lon="11.427658818085257"><ele>526.3333333333334</ele><time>2026-04-12T11:19:38Z</time></trkpt><trkpt lat="44.316994515191304" lon="11.427752958618251"><ele>526.0</ele><time>2026-04-12T11:19:39Z</time></trkpt><trkpt lat="44.31705757752104" lon="11.427851478348844"><ele>526.0</ele><time>2026-04-12T11:19:40Z</time></trkpt><trkpt lat="44.317128709547326" lon="11.427938239724046"><ele>526.0</ele><time>2026-04-12T11:19:41Z</time></trkpt><trkpt lat="44.31722014108594" lon="11.428028734565162"><ele>526.0</ele><time>2026-04-12T11:19:42Z</time></trkpt><trkpt lat="44.31731781453557" lon="11.428105837121748"><ele>526.0</ele><time>2026-04-12T11:19:43Z</time></trkpt><trkpt lat="44.31742301669584" lon="11.428170492072546"><ele>526.0</ele><time>2026-04-12T11:19:44Z</time></trkpt><trkpt lat="44.31755196580649" lon="11.428250563854078"><ele>526.0</ele><time>2026-04-12T11:19:45Z</time></trkpt><trkpt lat="44.31770281347973" lon="11.42833540770443"><ele>526.0</ele><time>2026-04-12T11:19:46Z</time></trkpt><trkpt lat="44.317807275014275" lon="11.428415640598521"><ele>526.0</ele><time>2026-04-12T11:19:47Z</time></trkpt><trkpt lat="44.317894319265605" lon="11.428474442566136"><ele>526.0</ele><time>2026-04-12T11:19:48Z</time></trkpt><trkpt lat="44.31797009145579" lon="11.428528222752114"><ele>526.0</ele><time>2026-04-12T11:19:49Z</time></trkpt><trkpt lat="44.31804848969337" lon="11.428615415863312"><ele>526.0</ele><time>2026-04-12T11:19:50Z</time></trkpt><trkpt lat="44.318136908536175" lon="11.428736365972194"><ele>526.0</ele><time>2026-04-12T11:19:51Z</time></trkpt><trkpt lat="44.31823772464578" lon="11.42887156756526"><ele>526.0</ele><time>2026-04-12T11:19:52Z</time></trkpt><trkpt lat="44.31832304143416" lon="11.428983342225274"><ele>528.2</ele><time>2026-04-12T11:19:53Z</time></trkpt><trkpt lat="44.31840105116556" lon="11.4290775565904"><ele>530.4000000000001</ele><time>2026-04-12T11:19:54Z</time></trkpt><trkpt lat="44.31847527788701" lon="11.429157489280573"><ele>532.6</ele><time>2026-04-12T11:19:55Z</time></trkpt><trkpt lat="44.31853565727797" lon="11.429226942142101"><ele>534.8000000000001</ele><time>2026-04-12T11:19:56Z</time></trkpt><trkpt lat="44.31858806414458" lon="11.429330171107043"><ele>537.0</ele><time>2026-04-12T11:19:57Z</time></trkpt><trkpt lat="44.318615767838196" lon="11.429453868540385"><ele>537.0</ele><time>2026-04-12T11:19:58Z</time></trkpt><trkpt lat="44.31860426015881" lon="11.429608308532606"><ele>537.0</ele><time>2026-04-12T11:19:59Z</time></trkpt><trkpt lat="44.31861134233155" lon="11.429784968191715"><ele>537.0</ele><time>2026-04-12T11:20:00Z</time></trkpt><trkpt lat="44.31859560588756" lon="11.429997327006461"><ele>537.0</ele><time>2026-04-12T11:20:01Z</time></trkpt><trkpt lat="44.31858221869746" lon="11.430256715875656"><ele>539.75</ele><time>2026-04-12T11:20:02Z</time></trkpt><trkpt lat="44.31857982796019" lon="11.430495986581628"><ele>542.5</ele><time>2026-04-12T11:20:02.999Z</time></trkpt><trkpt lat="44.318586322906114" lon="11.43066501407131"><ele>545.25</ele><time>2026-04-12T11:20:03.999Z</time></trkpt><trkpt lat="44.318609160437916" lon="11.430791182011642"><ele>548.0</ele><time>2026-04-12T11:20:04.999Z</time></trkpt><trkpt lat="44.318637024191794" lon="11.430892612881076"><ele>548.0</ele><time>2026-04-12T11:20:05.999Z</time></trkpt><trkpt lat="44.318671653316336" lon="11.43103208332403"><ele>548.0</ele><time>2026-04-12T11:20:07.999Z</time></trkpt><trkpt lat="44.31874646365991" lon="11.431130467505737"><ele>548.0</ele><time>2026-04-12T11:20:09.999Z</time></trkpt><trkpt lat="44.31882210059317" lon="11.43120223247454"><ele>548.0</ele><time>2026-04-12T11:20:11.999Z</time></trkpt><trkpt lat="44.318915962079025" lon="11.431235306470498"><ele>548.0</ele><time>2026-04-12T11:20:13.999Z</time></trkpt><trkpt lat="44.31905699452326" lon="11.431291313584094"><ele>548.0</ele><time>2026-04-12T11:20:15.999Z</time></trkpt><trkpt lat="44.31914373638789" lon="11.431345984493825"><ele>548.0</ele><time>2026-04-12T11:20:16.999Z</time></trkpt><trkpt lat="44.31921540023177" lon="11.43139223493087"><ele>548.0</ele><time>2026-04-12T11:20:17.999Z</time></trkpt><trkpt lat="44.31929636179181" lon="11.431445537312602"><ele>548.0</ele><time>2026-04-12T11:20:18.999Z</time></trkpt><trkpt lat="44.31938114177901" lon="11.431500338725693"><ele>548.0</ele><time>2026-04-12T11:20:19.999Z</time></trkpt><trkpt lat="44.319455777019975" lon="11.43154246714507"><ele>548.0</ele><time>2026-04-12T11:20:20.999Z</time></trkpt><trkpt lat="44.31952483644972" lon="11.431578637077836"><ele>548.0</ele><time>2026-04-12T11:20:21.999Z</time></trkpt><trkpt lat="44.319597939105186" lon="11.431618884658283"><ele>548.0</ele><time>2026-04-12T11:20:22.999Z</time></trkpt><trkpt lat="44.319704275244945" lon="11.431660810026466"><ele>548.0</ele><time>2026-04-12T11:20:24.999Z</time></trkpt><trkpt lat="44.319785691942094" lon="11.431697667712774"><ele>548.0</ele><time>2026-04-12T11:20:26.999Z</time></trkpt><trkpt lat="44.31987593578101" lon="11.431714258005185"><ele>548.0</ele><time>2026-04-12T11:20:28.999Z</time></trkpt><trkpt lat="44.31994593175725" lon="11.431724387494265"><ele>548.0</ele><time>2026-04-12T11:20:32.999Z</time></trkpt><trkpt lat="44.3200056626424" lon="11.431973904379747"><ele>548.1999999999999</ele><time>2026-04-12T11:20:42.999Z</time></trkpt><trkpt lat="44.320004528983695" lon="11.432083265781307"><ele>548.4</ele><time>2026-04-12T11:20:43.999Z</time></trkpt><trkpt lat="44.31999758015838" lon="11.4322105882387"><ele>548.5999999999999</ele><time>2026-04-12T11:20:44.999Z</time></trkpt><trkpt lat="44.31998504476958" lon="11.432376257845055"><ele>548.8</ele><time>2026-04-12T11:20:45.999Z</time></trkpt><trkpt lat="44.319987467835396" lon="11.432528610981253"><ele>549.0</ele><time>2026-04-12T11:20:46.999Z</time></trkpt><trkpt lat="44.31998813073552" lon="11.432720404229753"><ele>545.6666666666666</ele><time>2026-04-12T11:20:47.999Z</time></trkpt><trkpt lat="44.320018955646226" lon="11.43293218021097"><ele>542.3333333333333</ele><time>2026-04-12T11:20:48.999Z</time></trkpt><trkpt lat="44.32008025261552" lon="11.43314572067557"><ele>539.0</ele><time>2026-04-12T11:20:49.999Z</time></trkpt><trkpt lat="44.32013364559981" lon="11.433343306502888"><ele>537.5</ele><time>2026-04-12T11:20:50.999Z</time></trkpt><trkpt lat="44.32018461590333" lon="11.433524610653148"><ele>536.0</ele><time>2026-04-12T11:20:51.999Z</time></trkpt><trkpt lat="44.320224922186625" lon="11.43370271338975"><ele>534.5</ele><time>2026-04-12T11:20:52.999Z</time></trkpt><trkpt lat="44.32024791280336" lon="11.433885574702645"><ele>533.0</ele><time>2026-04-12T11:20:53.999Z</time></trkpt><trkpt lat="44.320216709192195" lon="11.434067129552695"><ele>532.25</ele><time>2026-04-12T11:20:54.999Z</time></trkpt><trkpt lat="44.32021169836602" lon="11.434267808343368"><ele>531.5</ele><time>2026-04-12T11:20:55.998Z</time></trkpt><trkpt lat="44.320190604059725" lon="11.43445357364032"><ele>530.75</ele><time>2026-04-12T11:20:56.998Z</time></trkpt><trkpt lat="44.32018766166775" lon="11.434616437893173"><ele>530.0</ele><time>2026-04-12T11:20:57.998Z</time></trkpt><trkpt lat="44.32019292976551" lon="11.434771035438528"><ele>529.75</ele><time>2026-04-12T11:20:58.998Z</time></trkpt><trkpt lat="44.32019995216002" lon="11.434935777919511"><ele>529.5</ele><time>2026-04-12T11:20:59.998Z</time></trkpt><trkpt lat="44.32022046746817" lon="11.435092958060936"><ele>529.25</ele><time>2026-04-12T11:21:00.998Z</time></trkpt><trkpt lat="44.32023437633659" lon="11.43525346878915"><ele>529.0</ele><time>2026-04-12T11:21:01.998Z</time></trkpt><trkpt lat="44.320252782233766" lon="11.435403553510286"><ele>528.6</ele><time>2026-04-12T11:21:02.998Z</time></trkpt><trkpt lat="44.32027488550293" lon="11.43555327597834"><ele>528.2</ele><time>2026-04-12T11:21:03.998Z</time></trkpt><trkpt lat="44.32030269279794" lon="11.435691236346925"><ele>527.8000000000001</ele><time>2026-04-12T11:21:04.998Z</time></trkpt><trkpt lat="44.32033708980289" lon="11.435813736062505"><ele>527.4</ele><time>2026-04-12T11:21:05.998Z</time></trkpt><trkpt lat="44.32038210638123" lon="11.435931045750966"><ele>527.0</ele><time>2026-04-12T11:21:06.998Z</time></trkpt><trkpt lat="44.32044673260815" lon="11.43605880459433"><ele>527.0</ele><time>2026-04-12T11:21:07.998Z</time></trkpt><trkpt lat="44.32053262185316" lon="11.436213286504675"><ele>527.0</ele><time>2026-04-12T11:21:08.998Z</time></trkpt><trkpt lat="44.32064076544567" lon="11.43641131873812"><ele>527.0</ele><time>2026-04-12T11:21:10Z</time></trkpt><trkpt lat="44.320741477454646" lon="11.436602454895018"><ele>526.75</ele><time>2026-04-12T11:21:11Z</time></trkpt><trkpt lat="44.32082298890435" lon="11.43677793828894"><ele>526.5</ele><time>2026-04-12T11:21:12Z</time></trkpt><trkpt lat="44.320896160619256" lon="11.436946985416462"><ele>526.25</ele><time>2026-04-12T11:21:13Z</time></trkpt><trkpt lat="44.3209561585792" lon="11.437108670804138"><ele>526.0</ele><time>2026-04-12T11:21:14Z</time></trkpt><trkpt lat="44.32100528151381" lon="11.437270966520604"><ele>526.0</ele><time>2026-04-12T11:21:15Z</time></trkpt><trkpt lat="44.32103558958853" lon="11.437434328364873"><ele>526.0</ele><time>2026-04-12T11:21:16Z</time></trkpt><trkpt lat="44.32105759839939" lon="11.437599036888967"><ele>526.0</ele><time>2026-04-12T11:21:17Z</time></trkpt><trkpt lat="44.321078968169395" lon="11.437764710639154"><ele>526.0</ele><time>2026-04-12T11:21:18Z</time></trkpt><trkpt lat="44.32110857562464" lon="11.437910848249182"><ele>525.2</ele><time>2026-04-12T11:21:19Z</time></trkpt><trkpt lat="44.321134650787684" lon="11.438052029403439"><ele>524.4000000000001</ele><time>2026-04-12T11:21:20Z</time></trkpt><trkpt lat="44.321165963626555" lon="11.438186878937799"><ele>523.6</ele><time>2026-04-12T11:21:21Z</time></trkpt><trkpt lat="44.32119385124437" lon="11.438313240164483"><ele>522.8000000000001</ele><time>2026-04-12T11:21:22Z</time></trkpt><trkpt lat="44.32121935198827" lon="11.438441882882083"><ele>522.0</ele><time>2026-04-12T11:21:23Z</time></trkpt><trkpt lat="44.32124598971963" lon="11.438564016685804"><ele>522.0</ele><time>2026-04-12T11:21:24Z</time></trkpt><trkpt lat="44.32128059147351" lon="11.438670789223904"><ele>522.0</ele><time>2026-04-12T11:21:25Z</time></trkpt><trkpt lat="44.32134155965169" lon="11.438737135558798"><ele>522.0</ele><time>2026-04-12T11:21:26Z</time></trkpt><trkpt lat="44.32141915552506" lon="11.438780432076005"><ele>522.0</ele><time>2026-04-12T11:21:27Z</time></trkpt><trkpt lat="44.321504613215744" lon="11.438812404626598"><ele>522.0</ele><time>2026-04-12T11:21:28Z</time></trkpt><trkpt lat="44.32159186931191" lon="11.438843643329689"><ele>522.0</ele><time>2026-04-12T11:21:29Z</time></trkpt><trkpt lat="44.3216793739594" lon="11.438906098218661"><ele>521.8000000000001</ele><time>2026-04-12T11:21:30Z</time></trkpt><trkpt lat="44.32178223650242" lon="11.43893926823293"><ele>521.6</ele><time>2026-04-12T11:21:31Z</time></trkpt><trkpt lat="44.32187411206811" lon="11.439007934221532"><ele>521.4000000000001</ele><time>2026-04-12T11:21:32Z</time></trkpt><trkpt lat="44.321957550165216" lon="11.439091066539785"><ele>521.2</ele><time>2026-04-12T11:21:33Z</time></trkpt><trkpt lat="44.322031218143486" lon="11.439188335225891"><ele>521.0</ele><time>2026-04-12T11:21:34Z</time></trkpt><trkpt lat="44.322095123404495" lon="11.439298129246474"><ele>521.0</ele><time>2026-04-12T11:21:35Z</time></trkpt><trkpt lat="44.3221519779636" lon="11.439416011933266"><ele>521.0</ele><time>2026-04-12T11:21:36Z</time></trkpt><trkpt lat="44.322202397018046" lon="11.439534072704422"><ele>521.0</ele><time>2026-04-12T11:21:37Z</time></trkpt><trkpt lat="44.32224994823818" lon="11.439654983905578"><ele>521.0</ele><time>2026-04-12T11:21:38Z</time></trkpt><trkpt lat="44.32229317938735" lon="11.43977493313757"><ele>521.0</ele><time>2026-04-12T11:21:39Z</time></trkpt><trkpt lat="44.32233440194253" lon="11.439869892250353"><ele>518.2</ele><time>2026-04-12T11:21:40Z</time></trkpt><trkpt lat="44.32244008739591" lon="11.439963702985704"><ele>515.4000000000001</ele><time>2026-04-12T11:21:42Z</time></trkpt><trkpt lat="44.32251703557078" lon="11.439967216053562"><ele>512.6</ele><time>2026-04-12T11:21:43Z</time></trkpt><trkpt lat="44.32259763858894" lon="11.43995585794588"><ele>509.8</ele><time>2026-04-12T11:21:44Z</time></trkpt><trkpt lat="44.32268446984948" lon="11.439934049314576"><ele>507.0</ele><time>2026-04-12T11:21:45Z</time></trkpt><trkpt lat="44.322773920861486" lon="11.439924619302444"><ele>507.0</ele><time>2026-04-12T11:21:46Z</time></trkpt><trkpt lat="44.322870134212685" lon="11.43993425283824"><ele>507.00000000000006</ele><time>2026-04-12T11:21:47Z</time></trkpt><trkpt lat="44.32297024548532" lon="11.439954606427653"><ele>507.00000000000006</ele><time>2026-04-12T11:21:48Z</time></trkpt><trkpt lat="44.323067384857616" lon="11.439978549786636"><ele>507.0</ele><time>2026-04-12T11:21:49Z</time></trkpt><trkpt lat="44.323159938051674" lon="11.439999523025486"><ele>507.0</ele><time>2026-04-12T11:21:50Z</time></trkpt><trkpt lat="44.32325082802515" lon="11.440019436583942"><ele>506.0</ele><time>2026-04-12T11:21:51Z</time></trkpt><trkpt lat="44.32333986172179" lon="11.440030191778671"><ele>505.0</ele><time>2026-04-12T11:21:52Z</time></trkpt><trkpt lat="44.32342634441126" lon="11.440044873629073"><ele>504.0</ele><time>2026-04-12T11:21:53Z</time></trkpt><trkpt lat="44.32351139739586" lon="11.440066686343338"><ele>503.0</ele><time>2026-04-12T11:21:54Z</time></trkpt><trkpt lat="44.32359289862159" lon="11.440057451540401"><ele>502.0</ele><time>2026-04-12T11:21:55Z</time></trkpt><trkpt lat="44.32366908643567" lon="11.440084980759032"><ele>501.0</ele><time>2026-04-12T11:21:56Z</time></trkpt><trkpt lat="44.32374450314354" lon="11.440123887251312"><ele>501.0</ele><time>2026-04-12T11:21:57Z</time></trkpt><trkpt lat="44.32382044635617" lon="11.440175459362225"><ele>501.0</ele><time>2026-04-12T11:21:58Z</time></trkpt><trkpt lat="44.32388876709901" lon="11.440241628381838"><ele>501.0</ele><time>2026-04-12T11:21:59Z</time></trkpt><trkpt lat="44.32395233239841" lon="11.440319994030913"><ele>501.0</ele><time>2026-04-12T11:22:00Z</time></trkpt><trkpt lat="44.32401193277359" lon="11.44041207039217"><ele>501.0</ele><time>2026-04-12T11:22:01Z</time></trkpt><trkpt lat="44.3240654373399" lon="11.440507094406772"><ele>501.0</ele><time>2026-04-12T11:22:02Z</time></trkpt><trkpt lat="44.3241220157697" lon="11.440617787633155"><ele>500.1666666666667</ele><time>2026-04-12T11:22:03Z</time></trkpt><trkpt lat="44.32417467662359" lon="11.440728278134614"><ele>499.33333333333337</ele><time>2026-04-12T11:22:04Z</time></trkpt><trkpt lat="44.32422314564197" lon="11.440833809588037"><ele>498.5</ele><time>2026-04-12T11:22:05Z</time></trkpt><trkpt lat="44.32427240534811" lon="11.44093656435983"><ele>497.6666666666667</ele><time>2026-04-12T11:22:05.999Z</time></trkpt><trkpt lat="44.324309831812016" lon="11.44104500702399"><ele>496.83333333333337</ele><time>2026-04-12T11:22:06.999Z</time></trkpt><trkpt lat="44.324373233142026" lon="11.441126472553742"><ele>496.0</ele><time>2026-04-12T11:22:07.999Z</time></trkpt><trkpt lat="44.324425532119925" lon="11.441216822946476"><ele>495.1666666666667</ele><time>2026-04-12T11:22:08.999Z</time></trkpt><trkpt lat="44.32447561859317" lon="11.441304025186161"><ele>494.33333333333337</ele><time>2026-04-12T11:22:09.999Z</time></trkpt><trkpt lat="44.32453189086874" lon="11.441394116662192"><ele>493.5</ele><time>2026-04-12T11:22:10.999Z</time></trkpt><trkpt lat="44.32458926893499" lon="11.441472404353378"><ele>492.66666666666663</ele><time>2026-04-12T11:22:11.999Z</time></trkpt><trkpt lat="44.324652848074905" lon="11.441546213239302"><ele>491.8333333333333</ele><time>2026-04-12T11:22:12.999Z</time></trkpt><trkpt lat="44.324707004912426" lon="11.441633604042265"><ele>491.0</ele><time>2026-04-12T11:22:13.999Z</time></trkpt><trkpt lat="44.32477718203746" lon="11.441702853491675"><ele>491.0</ele><time>2026-04-12T11:22:14.999Z</time></trkpt><trkpt lat="44.32484888941492" lon="11.441767009585625"><ele>491.0</ele><time>2026-04-12T11:22:15.999Z</time></trkpt><trkpt lat="44.32493497734442" lon="11.441811047945835"><ele>491.0</ele><time>2026-04-12T11:22:16.999Z</time></trkpt><trkpt lat="44.32501262762449" lon="11.441877041791916"><ele>491.0</ele><time>2026-04-12T11:22:17.999Z</time></trkpt><trkpt lat="44.325093772721516" lon="11.441935836388245"><ele>491.0</ele><time>2026-04-12T11:22:18.999Z</time></trkpt><trkpt lat="44.32517405575272" lon="11.441999438742286"><ele>490.99999999999994</ele><time>2026-04-12T11:22:19.999Z</time></trkpt><trkpt lat="44.32524745240012" lon="11.442056230914533"><ele>491.0</ele><time>2026-04-12T11:22:20.999Z</time></trkpt><trkpt lat="44.325324565609115" lon="11.442111258862656"><ele>491.0</ele><time>2026-04-12T11:22:21.999Z</time></trkpt><trkpt lat="44.32539732547089" lon="11.44216215357085"><ele>491.0</ele><time>2026-04-12T11:22:22.999Z</time></trkpt><trkpt lat="44.32547118176916" lon="11.442216271425679"><ele>490.99999999999994</ele><time>2026-04-12T11:22:23.999Z</time></trkpt><trkpt lat="44.325543857156404" lon="11.44227683204529"><ele>491.0</ele><time>2026-04-12T11:22:24.999Z</time></trkpt><trkpt lat="44.325614032232195" lon="11.442339529269752"><ele>489.20000000000005</ele><time>2026-04-12T11:22:25.999Z</time></trkpt><trkpt lat="44.32568853543682" lon="11.442406201884136"><ele>487.40000000000003</ele><time>2026-04-12T11:22:26.999Z</time></trkpt><trkpt lat="44.325765989401795" lon="11.44247408638031"><ele>485.6</ele><time>2026-04-12T11:22:27.999Z</time></trkpt><trkpt lat="44.325846501165344" lon="11.442553098226997"><ele>483.8</ele><time>2026-04-12T11:22:28.999Z</time></trkpt><trkpt lat="44.32592173355294" lon="11.442640984825216"><ele>482.0</ele><time>2026-04-12T11:22:29.999Z</time></trkpt><trkpt lat="44.32598971770092" lon="11.442751060140006"><ele>482.0</ele><time>2026-04-12T11:22:30.999Z</time></trkpt><trkpt lat="44.3260425513821" lon="11.442874296619497"><ele>482.00000000000006</ele><time>2026-04-12T11:22:31.999Z</time></trkpt><trkpt lat="44.32608627263842" lon="11.44300040688926"><ele>482.00000000000006</ele><time>2026-04-12T11:22:32.999Z</time></trkpt><trkpt lat="44.326124177223484" lon="11.443131727255057"><ele>482.0</ele><time>2026-04-12T11:22:33.999Z</time></trkpt><trkpt lat="44.32615889730304" lon="11.44326121442177"><ele>482.0</ele><time>2026-04-12T11:22:34.999Z</time></trkpt><trkpt lat="44.32619558811765" lon="11.443394675538952"><ele>479.40000000000003</ele><time>2026-04-12T11:22:35.999Z</time></trkpt><trkpt lat="44.32621555011991" lon="11.443539579249027"><ele>476.80000000000007</ele><time>2026-04-12T11:22:36.999Z</time></trkpt><trkpt lat="44.32624727212479" lon="11.443680791327113"><ele>474.2</ele><time>2026-04-12T11:22:37.999Z</time></trkpt><trkpt lat="44.326292736016185" lon="11.443827389995691"><ele>471.6</ele><time>2026-04-12T11:22:38.999Z</time></trkpt><trkpt lat="44.32632218478519" lon="11.443979452975622"><ele>469.0</ele><time>2026-04-12T11:22:39.999Z</time></trkpt><trkpt lat="44.326343264826875" lon="11.44412181448539"><ele>469.00000000000006</ele><time>2026-04-12T11:22:40.999Z</time></trkpt><trkpt lat="44.32636406045942" lon="11.444256422213268"><ele>469.0</ele><time>2026-04-12T11:22:41.999Z</time></trkpt><trkpt lat="44.326389690581465" lon="11.444376829685845"><ele>469.0</ele><time>2026-04-12T11:22:42.999Z</time></trkpt><trkpt lat="44.32642705312577" lon="11.444484261118054"><ele>469.0</ele><time>2026-04-12T11:22:43.999Z</time></trkpt><trkpt lat="44.32647300702742" lon="11.44457344992379"><ele>469.00000000000006</ele><time>2026-04-12T11:22:44.999Z</time></trkpt><trkpt lat="44.32652937539318" lon="11.444671800983611"><ele>469.0</ele><time>2026-04-12T11:22:45.999Z</time></trkpt><trkpt lat="44.32661214280826" lon="11.444738574310648"><ele>466.6</ele><time>2026-04-12T11:22:46.999Z</time></trkpt><trkpt lat="44.326683838704504" lon="11.44483612369247"><ele>464.2</ele><time>2026-04-12T11:22:47.999Z</time></trkpt><trkpt lat="44.326751184180964" lon="11.444947528042093"><ele>461.80000000000007</ele><time>2026-04-12T11:22:48.999Z</time></trkpt><trkpt lat="44.326804764168614" lon="11.445071691517155"><ele>459.40000000000003</ele><time>2026-04-12T11:22:49.999Z</time></trkpt><trkpt lat="44.32684541901274" lon="11.44520401684398"><ele>457.0</ele><time>2026-04-12T11:22:50.999Z</time></trkpt><trkpt lat="44.32688157198001" lon="11.445332112030401"><ele>457.0</ele><time>2026-04-12T11:22:51.999Z</time></trkpt><trkpt lat="44.326931104570974" lon="11.445447570369542"><ele>457.00000000000006</ele><time>2026-04-12T11:22:52.999Z</time></trkpt><trkpt lat="44.32699835185948" lon="11.445545615435307"><ele>457.00000000000006</ele><time>2026-04-12T11:22:53.999Z</time></trkpt><trkpt lat="44.32707928064019" lon="11.445633469004596"><ele>457.0</ele><time>2026-04-12T11:22:54.999Z</time></trkpt><trkpt lat="44.32717360037972" lon="11.445703718287255"><ele>457.0</ele><time>2026-04-12T11:22:55.999Z</time></trkpt><trkpt lat="44.32727064538258" lon="11.445776028486382"><ele>453.75</ele><time>2026-04-12T11:22:56.999Z</time></trkpt><trkpt lat="44.327357182701704" lon="11.445860214230244"><ele>450.5</ele><time>2026-04-12T11:22:57.999Z</time></trkpt><trkpt lat="44.327433685519864" lon="11.445974533195454"><ele>447.25</ele><time>2026-04-12T11:22:58.998Z</time></trkpt><trkpt lat="44.32749435485079" lon="11.446115927970409"><ele>444.0</ele><time>2026-04-12T11:22:59.998Z</time></trkpt><trkpt lat="44.32754222304625" lon="11.446270953567156"><ele>440.79999999999995</ele><time>2026-04-12T11:23:00.998Z</time></trkpt><trkpt lat="44.32758418072895" lon="11.446418722047195"><ele>437.59999999999997</ele><time>2026-04-12T11:23:01.998Z</time></trkpt><trkpt lat="44.32763666363748" lon="11.446561584992596"><ele>434.4</ele><time>2026-04-12T11:23:02.998Z</time></trkpt><trkpt lat="44.32769411963776" lon="11.446694728250113"><ele>431.2</ele><time>2026-04-12T11:23:03.998Z</time></trkpt><trkpt lat="44.32775534420862" lon="11.446818319596629"><ele>428.0</ele><time>2026-04-12T11:23:04.998Z</time></trkpt><trkpt lat="44.32781382747397" lon="11.446935617958944"><ele>428.0</ele><time>2026-04-12T11:23:05.998Z</time></trkpt><trkpt lat="44.32786496089631" lon="11.447046729201114"><ele>427.99999999999994</ele><time>2026-04-12T11:23:06.998Z</time></trkpt><trkpt lat="44.32790603465542" lon="11.44716086426571"><ele>427.99999999999994</ele><time>2026-04-12T11:23:07.998Z</time></trkpt><trkpt lat="44.32793578800841" lon="11.447282533694295"><ele>428.0</ele><time>2026-04-12T11:23:08.998Z</time></trkpt><trkpt lat="44.327955253735645" lon="11.447408614136027"><ele>428.0</ele><time>2026-04-12T11:23:09.998Z</time></trkpt><trkpt lat="44.3279670787688" lon="11.447538579643233"><ele>424.59999999999997</ele><time>2026-04-12T11:23:10.998Z</time></trkpt><trkpt lat="44.32798078823106" lon="11.447671228326682"><ele>421.19999999999993</ele><time>2026-04-12T11:23:11.998Z</time></trkpt><trkpt lat="44.32799969036151" lon="11.447805403578192"><ele>417.8</ele><time>2026-04-12T11:23:12.998Z</time></trkpt><trkpt lat="44.328002269954844" lon="11.447942321932002"><ele>414.4</ele><time>2026-04-12T11:23:13.998Z</time></trkpt><trkpt lat="44.32803402206322" lon="11.448071808805029"><ele>411.0</ele><time>2026-04-12T11:23:14.998Z</time></trkpt><trkpt lat="44.3280464385289" lon="11.448209581273254"><ele>410.0</ele><time>2026-04-12T11:23:16Z</time></trkpt><trkpt lat="44.32806222776674" lon="11.448347367615327"><ele>409.0</ele><time>2026-04-12T11:23:17Z</time></trkpt><trkpt lat="44.32807676575772" lon="11.448485834063709"><ele>408.0</ele><time>2026-04-12T11:23:18Z</time></trkpt><trkpt lat="44.328088445824015" lon="11.448623475792328"><ele>407.0</ele><time>2026-04-12T11:23:19Z</time></trkpt><trkpt lat="44.32809606309295" lon="11.448747100886063"><ele>406.0</ele><time>2026-04-12T11:23:20Z</time></trkpt><trkpt lat="44.32809961487805" lon="11.448859842847481"><ele>404.50000000000006</ele><time>2026-04-12T11:23:21Z</time></trkpt><trkpt lat="44.32811005853419" lon="11.448956230384308"><ele>403.0</ele><time>2026-04-12T11:23:22Z</time></trkpt><trkpt lat="44.328139658714406" lon="11.449042322293028"><ele>401.5</ele><time>2026-04-12T11:23:23Z</time></trkpt><trkpt lat="44.32817389903575" lon="11.449135384017518"><ele>400.0</ele><time>2026-04-12T11:23:24Z</time></trkpt><trkpt lat="44.32825737616147" lon="11.449165450907056"><ele>398.50000000000006</ele><time>2026-04-12T11:23:25Z</time></trkpt><trkpt lat="44.32833346976397" lon="11.449207054892831"><ele>397.0</ele><time>2026-04-12T11:23:26Z</time></trkpt><trkpt lat="44.328409787693715" lon="11.449247029284628"><ele>397.00000000000006</ele><time>2026-04-12T11:23:27Z</time></trkpt><trkpt lat="44.328480633734095" lon="11.449314241052448"><ele>397.0</ele><time>2026-04-12T11:23:28Z</time></trkpt><trkpt lat="44.32853694218524" lon="11.449409127834157"><ele>397.0</ele><time>2026-04-12T11:23:29Z</time></trkpt><trkpt lat="44.32858207528725" lon="11.449512249934875"><ele>397.0</ele><time>2026-04-12T11:23:30Z</time></trkpt><trkpt lat="44.32862213199436" lon="11.449629023120584"><ele>397.00000000000006</ele><time>2026-04-12T11:23:31Z</time></trkpt><trkpt lat="44.32865990111861" lon="11.449747138166307"><ele>397.0</ele><time>2026-04-12T11:23:32Z</time></trkpt><trkpt lat="44.3286973055577" lon="11.449873005642152"><ele>394.20000000000005</ele><time>2026-04-12T11:23:33Z</time></trkpt><trkpt lat="44.328733601094896" lon="11.449999955532629"><ele>391.4</ele><time>2026-04-12T11:23:34Z</time></trkpt><trkpt lat="44.32877332728125" lon="11.45012867871421"><ele>388.6</ele><time>2026-04-12T11:23:35Z</time></trkpt><trkpt lat="44.328813754903244" lon="11.4502633740517"><ele>385.79999999999995</ele><time>2026-04-12T11:23:36Z</time></trkpt><trkpt lat="44.3288516249459" lon="11.450402177818072"><ele>383.0</ele><time>2026-04-12T11:23:37Z</time></trkpt><trkpt lat="44.328885748927625" lon="11.450541944591132"><ele>382.0</ele><time>2026-04-12T11:23:38Z</time></trkpt><trkpt lat="44.32891888249171" lon="11.450680709179862"><ele>381.0</ele><time>2026-04-12T11:23:39Z</time></trkpt><trkpt lat="44.32895247898747" lon="11.450816769214656"><ele>380.0</ele><time>2026-04-12T11:23:40Z</time></trkpt><trkpt lat="44.32898466587878" lon="11.450945314930081"><ele>379.0</ele><time>2026-04-12T11:23:41Z</time></trkpt><trkpt lat="44.32901638045409" lon="11.45107254655971"><ele>378.0</ele><time>2026-04-12T11:23:42Z</time></trkpt><trkpt lat="44.32904952836842" lon="11.451194811122757"><ele>377.0</ele><time>2026-04-12T11:23:43Z</time></trkpt><trkpt lat="44.32908318467027" lon="11.4513110699923"><ele>376.0</ele><time>2026-04-12T11:23:44Z</time></trkpt><trkpt lat="44.329113793679156" lon="11.451429073797597"><ele>375.0</ele><time>2026-04-12T11:23:45Z</time></trkpt><trkpt lat="44.32913405850165" lon="11.451557011774167"><ele>374.0</ele><time>2026-04-12T11:23:46Z</time></trkpt><trkpt lat="44.32913717493906" lon="11.451681992059996"><ele>373.0</ele><time>2026-04-12T11:23:47Z</time></trkpt><trkpt lat="44.329120604966455" lon="11.451812603612058"><ele>373.0</ele><time>2026-04-12T11:23:48Z</time></trkpt><trkpt lat="44.32906284754775" lon="11.451917891595937"><ele>373.0</ele><time>2026-04-12T11:23:49Z</time></trkpt><trkpt lat="44.32901991364751" lon="11.452042576090166"><ele>373.0</ele><time>2026-04-12T11:23:50Z</time></trkpt><trkpt lat="44.32899996561016" lon="11.452175374268876"><ele>373.0</ele><time>2026-04-12T11:23:51Z</time></trkpt><trkpt lat="44.328970230464215" lon="11.45230375313748"><ele>373.0</ele><time>2026-04-12T11:23:52Z</time></trkpt><trkpt lat="44.3289548254854" lon="11.452434160319674"><ele>372.2</ele><time>2026-04-12T11:23:53Z</time></trkpt><trkpt lat="44.32895825914299" lon="11.452561972442219"><ele>371.4</ele><time>2026-04-12T11:23:54Z</time></trkpt><trkpt lat="44.32898878046452" lon="11.452679939790636"><ele>370.59999999999997</ele><time>2026-04-12T11:23:55Z</time></trkpt><trkpt lat="44.3290336436727" lon="11.452793491785414"><ele>369.79999999999995</ele><time>2026-04-12T11:23:56Z</time></trkpt><trkpt lat="44.329080530727154" lon="11.452905630640448"><ele>369.0</ele><time>2026-04-12T11:23:57Z</time></trkpt><trkpt lat="44.329126826647304" lon="11.453016848440175"><ele>368.0</ele><time>2026-04-12T11:23:58Z</time></trkpt><trkpt lat="44.32917638169233" lon="11.453127899737522"><ele>367.0</ele><time>2026-04-12T11:23:59Z</time></trkpt><trkpt lat="44.32922404118835" lon="11.453237483479946"><ele>366.0</ele><time>2026-04-12T11:24:00Z</time></trkpt><trkpt lat="44.32927558452299" lon="11.453346720298613"><ele>365.0</ele><time>2026-04-12T11:24:01Z</time></trkpt><trkpt lat="44.329324062534795" lon="11.45346194027026"><ele>364.0</ele><time>2026-04-12T11:24:02Z</time></trkpt><trkpt lat="44.3293761092757" lon="11.453579038979274"><ele>364.0</ele><time>2026-04-12T11:24:03Z</time></trkpt><trkpt lat="44.32943339239482" lon="11.453696724723041"><ele>364.0</ele><time>2026-04-12T11:24:04Z</time></trkpt><trkpt lat="44.32949219847478" lon="11.453822594706029"><ele>364.0</ele><time>2026-04-12T11:24:05Z</time></trkpt><trkpt lat="44.32955217123796" lon="11.453952566581885"><ele>364.0</ele><time>2026-04-12T11:24:06Z</time></trkpt><trkpt lat="44.329616033202605" lon="11.454087919958047"><ele>364.0</ele><time>2026-04-12T11:24:07Z</time></trkpt><trkpt lat="44.32967795608189" lon="11.454226990446669"><ele>360.2</ele><time>2026-04-12T11:24:08Z</time></trkpt><trkpt lat="44.329736035178" lon="11.454365006851601"><ele>356.4</ele><time>2026-04-12T11:24:08.999Z</time></trkpt><trkpt lat="44.32979204672289" lon="11.454493620047312"><ele>352.6</ele><time>2026-04-12T11:24:09.999Z</time></trkpt><trkpt lat="44.32984677079206" lon="11.454619420022173"><ele>348.8</ele><time>2026-04-12T11:24:10.999Z</time></trkpt><trkpt lat="44.32989493816729" lon="11.454739941692013"><ele>345.0</ele><time>2026-04-12T11:24:11.999Z</time></trkpt><trkpt lat="44.329948982234484" lon="11.454854598323756"><ele>343.6666666666667</ele><time>2026-04-12T11:24:12.999Z</time></trkpt><trkpt lat="44.32997095961337" lon="11.454983942742128"><ele>342.3333333333333</ele><time>2026-04-12T11:24:13.999Z</time></trkpt><trkpt lat="44.33000374246857" lon="11.455099964170966"><ele>341.0</ele><time>2026-04-12T11:24:14.999Z</time></trkpt><trkpt lat="44.33004246870633" lon="11.455193542061725"><ele>339.66666666666663</ele><time>2026-04-12T11:24:15.999Z</time></trkpt><trkpt lat="44.33006331098619" lon="11.455289646989728"><ele>338.3333333333333</ele><time>2026-04-12T11:24:16.999Z</time></trkpt><trkpt lat="44.33008311697112" lon="11.455379163636396"><ele>337.0</ele><time>2026-04-12T11:24:17.999Z</time></trkpt><trkpt lat="44.330106081249724" lon="11.455471241367736"><ele>329.0</ele><time>2026-04-12T11:24:18.999Z</time></trkpt><trkpt lat="44.33014697176098" lon="11.455630458971653"><ele>329.0</ele><time>2026-04-12T11:24:20.999Z</time></trkpt><trkpt lat="44.330207266577276" lon="11.455767516130596"><ele>329.0</ele><time>2026-04-12T11:24:22.999Z</time></trkpt><trkpt lat="44.33026342869399" lon="11.455826286533764"><ele>329.0</ele><time>2026-04-12T11:24:25.999Z</time></trkpt></trkseg><trkseg><trkpt lat="44.330347757333314" lon="11.45580324362711"><ele>329.0</ele><time>2026-04-12T11:34:40.999Z</time></trkpt><trkpt lat="44.33043654360325" lon="11.455774760901585"><ele>329.0</ele><time>2026-04-12T11:34:42.999Z</time></trkpt><trkpt lat="44.3304985196448" lon="11.455686265972334"><ele>329.0</ele><time>2026-04-12T11:34:44.999Z</time></trkpt><trkpt lat="44.33056668844219" lon="11.45561682047138"><ele>329.0</ele><time>2026-04-12T11:34:46.999Z</time></trkpt><trkpt lat="44.330639978385555" lon="11.455534286122187"><ele>329.0</ele><time>2026-04-12T11:34:48.999Z</time></trkpt><trkpt lat="44.33074135293912" lon="11.455419414034695"><ele>328.2857142857143</ele><time>2026-04-12T11:34:50.999Z</time></trkpt><trkpt lat="44.330794390799355" lon="11.455356393326046"><ele>327.57142857142856</ele><time>2026-04-12T11:34:51.999Z</time></trkpt><trkpt lat="44.33084504079367" lon="11.455290917301369"><ele>326.8571428571429</ele><time>2026-04-12T11:34:52.999Z</time></trkpt><trkpt lat="44.33089482589947" lon="11.455226993423008"><ele>326.1428571428571</ele><time>2026-04-12T11:34:53.999Z</time></trkpt><trkpt lat="44.33094697835497" lon="11.455159338786386"><ele>325.42857142857144</ele><time>2026-04-12T11:34:54.999Z</time></trkpt><trkpt lat="44.33101290091468" lon="11.455106394991324"><ele>324.7142857142857</ele><time>2026-04-12T11:34:55.999Z</time></trkpt><trkpt lat="44.33105880892436" lon="11.45502405749952"><ele>324.0</ele><time>2026-04-12T11:34:56.999Z</time></trkpt><trkpt lat="44.331115463791015" lon="11.454947741869328"><ele>324.0</ele><time>2026-04-12T11:34:57.999Z</time></trkpt><trkpt lat="44.331171119398135" lon="11.454878554720874"><ele>324.0</ele><time>2026-04-12T11:34:58.999Z</time></trkpt><trkpt lat="44.331261227868424" lon="11.454778836490721"><ele>324.0</ele><time>2026-04-12T11:35:00.999Z</time></trkpt><trkpt lat="44.33133781822692" lon="11.454703088734831"><ele>324.0</ele><time>2026-04-12T11:35:02.999Z</time></trkpt><trkpt lat="44.331452436907774" lon="11.454633883397111"><ele>324.0</ele><time>2026-04-12T11:35:04.999Z</time></trkpt><trkpt lat="44.33157559572015" lon="11.454591126371692"><ele>321.59999999999997</ele><time>2026-04-12T11:35:06.999Z</time></trkpt><trkpt lat="44.331695758252714" lon="11.454569530734098"><ele>319.2</ele><time>2026-04-12T11:35:08.999Z</time></trkpt><trkpt lat="44.33181753210558" lon="11.454589179633457"><ele>316.79999999999995</ele><time>2026-04-12T11:35:10.999Z</time></trkpt><trkpt lat="44.33193782643462" lon="11.454648563391297"><ele>314.4</ele><time>2026-04-12T11:35:12.999Z</time></trkpt><trkpt lat="44.33199943716324" lon="11.454691942620006"><ele>312.0</ele><time>2026-04-12T11:35:13.999Z</time></trkpt><trkpt lat="44.33206535287685" lon="11.454740519396719"><ele>311.1666666666667</ele><time>2026-04-12T11:35:14.999Z</time></trkpt><trkpt lat="44.33212884542772" lon="11.454785154021403"><ele>310.3333333333333</ele><time>2026-04-12T11:35:15.999Z</time></trkpt><trkpt lat="44.33219470910204" lon="11.454829745021588"><ele>309.5</ele><time>2026-04-12T11:35:16.999Z</time></trkpt><trkpt lat="44.33225964343205" lon="11.45487056454481"><ele>308.66666666666663</ele><time>2026-04-12T11:35:17.999Z</time></trkpt><trkpt lat="44.33232121484632" lon="11.454904072142115"><ele>307.8333333333333</ele><time>2026-04-12T11:35:18.999Z</time></trkpt><trkpt lat="44.33242774443407" lon="11.454944035046525"><ele>307.0</ele><time>2026-04-12T11:35:20.998Z</time></trkpt><trkpt lat="44.33251506259428" lon="11.454915724076487"><ele>304.5</ele><time>2026-04-12T11:35:22.998Z</time></trkpt><trkpt lat="44.332579650773674" lon="11.454792317471563"><ele>302.0</ele><time>2026-04-12T11:35:24.998Z</time></trkpt><trkpt lat="44.332594391312576" lon="11.454622016526105"><ele>299.5</ele><time>2026-04-12T11:35:26.998Z</time></trkpt><trkpt lat="44.33259983624169" lon="11.454532275310662"><ele>297.0</ele><time>2026-04-12T11:35:27.998Z</time></trkpt><trkpt lat="44.33262253678277" lon="11.45443602531004"><ele>294.5</ele><time>2026-04-12T11:35:28.998Z</time></trkpt><trkpt lat="44.33263101844383" lon="11.454336912919752"><ele>292.0</ele><time>2026-04-12T11:35:29.998Z</time></trkpt><trkpt lat="44.33262866944109" lon="11.454230965210801"><ele>291.8333333333333</ele><time>2026-04-12T11:35:30.998Z</time></trkpt><trkpt lat="44.33264368402205" lon="11.454144184515282"><ele>291.66666666666663</ele><time>2026-04-12T11:35:31.998Z</time></trkpt><trkpt lat="44.33270272816467" lon="11.454012816305255"><ele>291.5</ele><time>2026-04-12T11:35:33.998Z</time></trkpt><trkpt lat="44.33279867742763" lon="11.453980900268089"><ele>291.3333333333333</ele><time>2026-04-12T11:35:35.998Z</time></trkpt><trkpt lat="44.33289148237124" lon="11.454068562421178"><ele>291.1666666666667</ele><time>2026-04-12T11:35:37.998Z</time></trkpt><trkpt lat="44.33291893533751" lon="11.454148018078621"><ele>291.0</ele><time>2026-04-12T11:35:38.998Z</time></trkpt><trkpt lat="44.33294339404645" lon="11.454231341845277"><ele>291.0</ele><time>2026-04-12T11:35:39.998Z</time></trkpt><trkpt lat="44.33294989941638" lon="11.454330014567423"><ele>291.0</ele><time>2026-04-12T11:35:40.998Z</time></trkpt><trkpt lat="44.332971969880965" lon="11.454421410772888"><ele>291.0</ele><time>2026-04-12T11:35:41.998Z</time></trkpt><trkpt lat="44.33299559519872" lon="11.454514003857964"><ele>291.0</ele><time>2026-04-12T11:35:42.998Z</time></trkpt><trkpt lat="44.333021332662874" lon="11.45460990488169"><ele>291.0</ele><time>2026-04-12T11:35:43.998Z</time></trkpt><trkpt lat="44.333064334840245" lon="11.454691264585232"><ele>291.0</ele><time>2026-04-12T11:35:44.998Z</time></trkpt><trkpt lat="44.33312671130025" lon="11.454828186392"><ele>287.0</ele><time>2026-04-12T11:35:46.998Z</time></trkpt><trkpt lat="44.33323430797035" lon="11.454878113845519"><ele>283.0</ele><time>2026-04-12T11:35:48.998Z</time></trkpt><trkpt lat="44.333298816870645" lon="11.454885109085527"><ele>279.0</ele><time>2026-04-12T11:35:49.998Z</time></trkpt><trkpt lat="44.33335829378766" lon="11.454812476113727"><ele>275.0</ele><time>2026-04-12T11:35:50.998Z</time></trkpt><trkpt lat="44.33342202221163" lon="11.45476076178186"><ele>271.0</ele><time>2026-04-12T11:35:51.998Z</time></trkpt><trkpt lat="44.3334890183895" lon="11.454705933939634"><ele>267.0</ele><time>2026-04-12T11:35:52.998Z</time></trkpt><trkpt lat="44.3335617944403" lon="11.454655279154355"><ele>266.8333333333333</ele><time>2026-04-12T11:35:53.998Z</time></trkpt><trkpt lat="44.33363965824284" lon="11.454607620914"><ele>266.6666666666667</ele><time>2026-04-12T11:35:54.998Z</time></trkpt><trkpt lat="44.33372729426686" lon="11.454592716629923"><ele>266.5</ele><time>2026-04-12T11:35:55.998Z</time></trkpt><trkpt lat="44.33381246750493" lon="11.454537007950927"><ele>266.33333333333337</ele><time>2026-04-12T11:35:56.998Z</time></trkpt><trkpt lat="44.33389715534056" lon="11.454509918980271"><ele>266.1666666666667</ele><time>2026-04-12T11:35:57.998Z</time></trkpt><trkpt lat="44.33397426760923" lon="11.454487746024647"><ele>266.0</ele><time>2026-04-12T11:35:58.998Z</time></trkpt><trkpt lat="44.33404694905121" lon="11.454478638662744"><ele>264.6666666666667</ele><time>2026-04-12T11:35:59.998Z</time></trkpt><trkpt lat="44.334112948050134" lon="11.454488703392634"><ele>263.33333333333337</ele><time>2026-04-12T11:36:00.998Z</time></trkpt><trkpt lat="44.33417494054609" lon="11.45451825234039"><ele>262.0</ele><time>2026-04-12T11:36:01.998Z</time></trkpt><trkpt lat="44.33420631825127" lon="11.454597542960437"><ele>260.6666666666667</ele><time>2026-04-12T11:36:03Z</time></trkpt><trkpt lat="44.334202665057255" lon="11.454712693215415"><ele>259.3333333333333</ele><time>2026-04-12T11:36:04Z</time></trkpt><trkpt lat="44.334246060174124" lon="11.454843660606716"><ele>258.0</ele><time>2026-04-12T11:36:05Z</time></trkpt><trkpt lat="44.33427714768336" lon="11.455080666755826"><ele>256.3333333333333</ele><time>2026-04-12T11:36:06Z</time></trkpt><trkpt lat="44.33433222215544" lon="11.455343051516953"><ele>254.66666666666666</ele><time>2026-04-12T11:36:07Z</time></trkpt><trkpt lat="44.33437588791449" lon="11.45555053496672"><ele>253.0</ele><time>2026-04-12T11:36:08Z</time></trkpt><trkpt lat="44.3344130597869" lon="11.455732184331852"><ele>250.75</ele><time>2026-04-12T11:36:09Z</time></trkpt><trkpt lat="44.334456887684205" lon="11.45591154686696"><ele>248.5</ele><time>2026-04-12T11:36:10Z</time></trkpt><trkpt lat="44.334474265810876" lon="11.456085348273385"><ele>246.25</ele><time>2026-04-12T11:36:11Z</time></trkpt><trkpt lat="44.3344919033668" lon="11.456228782401293"><ele>244.0</ele><time>2026-04-12T11:36:12Z</time></trkpt><trkpt lat="44.3345154789817" lon="11.456360421533953"><ele>243.83333333333331</ele><time>2026-04-12T11:36:13Z</time></trkpt><trkpt lat="44.33450661215501" lon="11.456490444841936"><ele>243.66666666666666</ele><time>2026-04-12T11:36:14Z</time></trkpt><trkpt lat="44.33448480747748" lon="11.456609111788515"><ele>243.5</ele><time>2026-04-12T11:36:15Z</time></trkpt><trkpt lat="44.33443159712314" lon="11.456695923949992"><ele>243.33333333333331</ele><time>2026-04-12T11:36:16Z</time></trkpt><trkpt lat="44.33439194585353" lon="11.456776332999121"><ele>243.16666666666666</ele><time>2026-04-12T11:36:17Z</time></trkpt><trkpt lat="44.33435519660397" lon="11.456856595346565"><ele>243.0</ele><time>2026-04-12T11:36:18Z</time></trkpt><trkpt lat="44.33431536955436" lon="11.45693681068705"><ele>243.0</ele><time>2026-04-12T11:36:19Z</time></trkpt><trkpt lat="44.33428915901392" lon="11.457048161817523"><ele>243.0</ele><time>2026-04-12T11:36:20Z</time></trkpt><trkpt lat="44.33424504679391" lon="11.457176187419051"><ele>243.0</ele><time>2026-04-12T11:36:21Z</time></trkpt><trkpt lat="44.33420377979686" lon="11.457332061311169"><ele>243.0</ele><time>2026-04-12T11:36:22Z</time></trkpt><trkpt lat="44.33413113471688" lon="11.457487978725398"><ele>243.0</ele><time>2026-04-12T11:36:23Z</time></trkpt><trkpt lat="44.33405898194267" lon="11.457658246970501"><ele>243.0</ele><time>2026-04-12T11:36:24Z</time></trkpt><trkpt lat="44.33397288568385" lon="11.45781969384244"><ele>243.0</ele><time>2026-04-12T11:36:25Z</time></trkpt><trkpt lat="44.33389767511673" lon="11.457966932109924"><ele>243.0</ele><time>2026-04-12T11:36:26Z</time></trkpt><trkpt lat="44.333817685369574" lon="11.45808325948789"><ele>243.0</ele><time>2026-04-12T11:36:27Z</time></trkpt><trkpt lat="44.3337733779623" lon="11.458196444105093"><ele>243.0</ele><time>2026-04-12T11:36:28Z</time></trkpt><trkpt lat="44.33375673960871" lon="11.458324788116093"><ele>243.0</ele><time>2026-04-12T11:36:29Z</time></trkpt><trkpt lat="44.3337540108751" lon="11.45847272985565"><ele>243.0</ele><time>2026-04-12T11:36:30Z</time></trkpt><trkpt lat="44.33375125138216" lon="11.458634395365328"><ele>243.0</ele><time>2026-04-12T11:36:31Z</time></trkpt><trkpt lat="44.33373931888602" lon="11.45878121099732"><ele>243.0</ele><time>2026-04-12T11:36:32Z</time></trkpt><trkpt lat="44.333696897482746" lon="11.458922823805933"><ele>242.0</ele><time>2026-04-12T11:36:32.999Z</time></trkpt><trkpt lat="44.3336596069703" lon="11.459070994904087"><ele>241.0</ele><time>2026-04-12T11:36:33.999Z</time></trkpt><trkpt lat="44.333616010933376" lon="11.459209626940135"><ele>240.0</ele><time>2026-04-12T11:36:34.999Z</time></trkpt><trkpt lat="44.33356621004173" lon="11.459330796423036"><ele>239.0</ele><time>2026-04-12T11:36:35.999Z</time></trkpt><trkpt lat="44.333511495188425" lon="11.459440778746345"><ele>238.0</ele><time>2026-04-12T11:36:36.999Z</time></trkpt><trkpt lat="44.33346230905275" lon="11.459569893197243"><ele>237.4</ele><time>2026-04-12T11:36:37.999Z</time></trkpt><trkpt lat="44.333398433596315" lon="11.459679303518017"><ele>236.8</ele><time>2026-04-12T11:36:38.999Z</time></trkpt><trkpt lat="44.33332798756389" lon="11.459775910376532"><ele>236.2</ele><time>2026-04-12T11:36:39.999Z</time></trkpt><trkpt lat="44.333259872978566" lon="11.45986919621379"><ele>235.6</ele><time>2026-04-12T11:36:40.999Z</time></trkpt><trkpt lat="44.33319726326644" lon="11.459956384595088"><ele>235.0</ele><time>2026-04-12T11:36:41.999Z</time></trkpt><trkpt lat="44.333133629402376" lon="11.460037414768108"><ele>234.99999999999997</ele><time>2026-04-12T11:36:42.999Z</time></trkpt><trkpt lat="44.33306945108479" lon="11.460105163504783"><ele>235.0</ele><time>2026-04-12T11:36:43.999Z</time></trkpt><trkpt lat="44.33299287346088" lon="11.460118403089014"><ele>235.0</ele><time>2026-04-12T11:36:44.999Z</time></trkpt><trkpt lat="44.33292437281466" lon="11.46014494445374"><ele>235.0</ele><time>2026-04-12T11:36:45.999Z</time></trkpt><trkpt lat="44.33282806392587" lon="11.460158104526986"><ele>234.99999999999997</ele><time>2026-04-12T11:36:46.999Z</time></trkpt><trkpt lat="44.3327120447779" lon="11.460181515139212"><ele>235.0</ele><time>2026-04-12T11:36:47.999Z</time></trkpt><trkpt lat="44.33257396160964" lon="11.460229342297467"><ele>234.5</ele><time>2026-04-12T11:36:48.999Z</time></trkpt><trkpt lat="44.332427240982796" lon="11.460248549078832"><ele>234.0</ele><time>2026-04-12T11:36:49.999Z</time></trkpt><trkpt lat="44.33227490683085" lon="11.460276655770729"><ele>233.5</ele><time>2026-04-12T11:36:50.999Z</time></trkpt><trkpt lat="44.332132358835594" lon="11.460294548127619"><ele>233.0</ele><time>2026-04-12T11:36:51.999Z</time></trkpt><trkpt lat="44.33200352248349" lon="11.460310998875814"><ele>232.60000000000002</ele><time>2026-04-12T11:36:52.999Z</time></trkpt><trkpt lat="44.33188313518861" lon="11.4603274920205"><ele>232.20000000000002</ele><time>2026-04-12T11:36:53.999Z</time></trkpt><trkpt lat="44.33177121204278" lon="11.460348217154486"><ele>231.8</ele><time>2026-04-12T11:36:54.999Z</time></trkpt><trkpt lat="44.33167253510743" lon="11.460373640800062"><ele>231.4</ele><time>2026-04-12T11:36:55.999Z</time></trkpt><trkpt lat="44.33157120013064" lon="11.460389936249486"><ele>231.0</ele><time>2026-04-12T11:36:56.999Z</time></trkpt><trkpt lat="44.33147325993446" lon="11.460408444803726"><ele>231.20000000000002</ele><time>2026-04-12T11:36:57.999Z</time></trkpt><trkpt lat="44.33137444560048" lon="11.460423515099926"><ele>231.40000000000003</ele><time>2026-04-12T11:36:58.999Z</time></trkpt><trkpt lat="44.331268755074134" lon="11.460411693412953"><ele>231.6</ele><time>2026-04-12T11:36:59.999Z</time></trkpt><trkpt lat="44.3311581336324" lon="11.460392947271336"><ele>231.8</ele><time>2026-04-12T11:37:00.999Z</time></trkpt><trkpt lat="44.33106019077638" lon="11.460385415064648"><ele>232.0</ele><time>2026-04-12T11:37:01.999Z</time></trkpt><trkpt lat="44.33095454016394" lon="11.460381131718949"><ele>228.66666666666666</ele><time>2026-04-12T11:37:02.999Z</time></trkpt><trkpt lat="44.330826829205385" lon="11.460480986293957"><ele>225.33333333333331</ele><time>2026-04-12T11:37:03.999Z</time></trkpt><trkpt lat="44.3306771879367" lon="11.46058403460259"><ele>222.0</ele><time>2026-04-12T11:37:04.999Z</time></trkpt><trkpt lat="44.33054801704779" lon="11.460673199765948"><ele>222.0</ele><time>2026-04-12T11:37:05.999Z</time></trkpt><trkpt lat="44.33041764699152" lon="11.460748394741094"><ele>222.0</ele><time>2026-04-12T11:37:06.999Z</time></trkpt><trkpt lat="44.330298155202186" lon="11.460819271405853"><ele>222.0</ele><time>2026-04-12T11:37:07.999Z</time></trkpt><trkpt lat="44.330191621427026" lon="11.46088380219027"><ele>222.0</ele><time>2026-04-12T11:37:08.999Z</time></trkpt><trkpt lat="44.33009443162704" lon="11.460975618252263"><ele>222.0</ele><time>2026-04-12T11:37:09.999Z</time></trkpt><trkpt lat="44.33001423023723" lon="11.461082184669255"><ele>222.0</ele><time>2026-04-12T11:37:10.999Z</time></trkpt><trkpt lat="44.32992339002951" lon="11.461214530959692"><ele>222.0</ele><time>2026-04-12T11:37:11.999Z</time></trkpt><trkpt lat="44.32982207329188" lon="11.461337213571843"><ele>222.0</ele><time>2026-04-12T11:37:12.999Z</time></trkpt><trkpt lat="44.32972470494403" lon="11.461466385449096"><ele>222.0</ele><time>2026-04-12T11:37:13.999Z</time></trkpt><trkpt lat="44.32960800211591" lon="11.461569736459214"><ele>222.0</ele><time>2026-04-12T11:37:14.999Z</time></trkpt><trkpt lat="44.32948933130578" lon="11.461666847584679"><ele>222.0</ele><time>2026-04-12T11:37:15.999Z</time></trkpt><trkpt lat="44.329362580461" lon="11.461746848199622"><ele>222.0</ele><time>2026-04-12T11:37:16.999Z</time></trkpt><trkpt lat="44.32922978754056" lon="11.461796043243789"><ele>222.0</ele><time>2026-04-12T11:37:17.999Z</time></trkpt><trkpt lat="44.32907788188561" lon="11.461837285630649"><ele>222.0</ele><time>2026-04-12T11:37:18.999Z</time></trkpt><trkpt lat="44.328932415764186" lon="11.461883627411149"><ele>222.0</ele><time>2026-04-12T11:37:19.999Z</time></trkpt><trkpt lat="44.32880044207397" lon="11.461922669117588"><ele>222.0</ele><time>2026-04-12T11:37:20.999Z</time></trkpt><trkpt lat="44.328680722416614" lon="11.461974638591903"><ele>221.8</ele><time>2026-04-12T11:37:21.999Z</time></trkpt><trkpt lat="44.32856701753182" lon="11.462010076298393"><ele>221.6</ele><time>2026-04-12T11:37:22.999Z</time></trkpt><trkpt lat="44.32845953351112" lon="11.462035844573343"><ele>221.40000000000003</ele><time>2026-04-12T11:37:23.999Z</time></trkpt><trkpt lat="44.3283558156634" lon="11.462066688662773"><ele>221.20000000000002</ele><time>2026-04-12T11:37:24.999Z</time></trkpt><trkpt lat="44.32826884959174" lon="11.461992343676458"><ele>221.0</ele><time>2026-04-12T11:37:25.999Z</time></trkpt><trkpt lat="44.32814508938017" lon="11.461933936596592"><ele>219.66666666666669</ele><time>2026-04-12T11:37:26.999Z</time></trkpt><trkpt lat="44.32798549567655" lon="11.461861899983296"><ele>218.33333333333331</ele><time>2026-04-12T11:37:27.999Z</time></trkpt><trkpt lat="44.32783573698014" lon="11.461798152275069"><ele>217.0</ele><time>2026-04-12T11:37:28.999Z</time></trkpt><trkpt lat="44.32769157200393" lon="11.461761007309729"><ele>217.0</ele><time>2026-04-12T11:37:29.999Z</time></trkpt><trkpt lat="44.327566093918556" lon="11.46172350113237"><ele>217.0</ele><time>2026-04-12T11:37:30.999Z</time></trkpt><trkpt lat="44.32744091005298" lon="11.46170917350855"><ele>217.0</ele><time>2026-04-12T11:37:31.999Z</time></trkpt><trkpt lat="44.32730898824345" lon="11.461705726591648"><ele>217.0</ele><time>2026-04-12T11:37:32.998Z</time></trkpt><trkpt lat="44.32717258852383" lon="11.461724810264096"><ele>218.5</ele><time>2026-04-12T11:37:33.998Z</time></trkpt><trkpt lat="44.32702537597564" lon="11.461734065506686"><ele>220.0</ele><time>2026-04-12T11:37:34.998Z</time></trkpt><trkpt lat="44.32688750552251" lon="11.46178962863131"><ele>221.5</ele><time>2026-04-12T11:37:35.998Z</time></trkpt><trkpt lat="44.326768109476475" lon="11.461818452971452"><ele>223.0</ele><time>2026-04-12T11:37:36.998Z</time></trkpt><trkpt lat="44.32665688565388" lon="11.4618410057478"><ele>223.0</ele><time>2026-04-12T11:37:37.998Z</time></trkpt><trkpt lat="44.32654549130402" lon="11.461858136974756"><ele>223.0</ele><time>2026-04-12T11:37:38.998Z</time></trkpt><trkpt lat="44.32643037246248" lon="11.461878353193018"><ele>223.0</ele><time>2026-04-12T11:37:39.998Z</time></trkpt><trkpt lat="44.3263206462126" lon="11.46191559419869"><ele>223.0</ele><time>2026-04-12T11:37:40.998Z</time></trkpt><trkpt lat="44.32621100730136" lon="11.461983112586726"><ele>223.66666666666666</ele><time>2026-04-12T11:37:41.998Z</time></trkpt><trkpt lat="44.32610248644586" lon="11.462082555812152"><ele>224.33333333333331</ele><time>2026-04-12T11:37:42.998Z</time></trkpt><trkpt lat="44.325967009534935" lon="11.462218658724998"><ele>225.0</ele><time>2026-04-12T11:37:43.998Z</time></trkpt><trkpt lat="44.325829973411295" lon="11.462349423331288"><ele>222.75</ele><time>2026-04-12T11:37:44.998Z</time></trkpt><trkpt lat="44.325711288398445" lon="11.46246855689968"><ele>220.5</ele><time>2026-04-12T11:37:45.998Z</time></trkpt><trkpt lat="44.325608422246894" lon="11.462591846031334"><ele>218.25</ele><time>2026-04-12T11:37:46.998Z</time></trkpt><trkpt lat="44.32552518018932" lon="11.462730556246054"><ele>216.0</ele><time>2026-04-12T11:37:47.998Z</time></trkpt><trkpt lat="44.32545385653376" lon="11.462870389212707"><ele>214.8</ele><time>2026-04-12T11:37:48.998Z</time></trkpt><trkpt lat="44.32537770408565" lon="11.462988464254934"><ele>213.60000000000002</ele><time>2026-04-12T11:37:49.998Z</time></trkpt><trkpt lat="44.32532179129075" lon="11.463125205044603"><ele>212.4</ele><time>2026-04-12T11:37:50.998Z</time></trkpt><trkpt lat="44.325243696844005" lon="11.463234377438104"><ele>211.2</ele><time>2026-04-12T11:37:51.998Z</time></trkpt><trkpt lat="44.32515793154432" lon="11.463320084645378"><ele>210.0</ele><time>2026-04-12T11:37:52.998Z</time></trkpt><trkpt lat="44.3250632233573" lon="11.46337803690517"><ele>210.0</ele><time>2026-04-12T11:37:53.998Z</time></trkpt><trkpt lat="44.32495124194359" lon="11.463370341027227"><ele>210.0</ele><time>2026-04-12T11:37:54.998Z</time></trkpt><trkpt lat="44.324807509070894" lon="11.463379580924279"><ele>210.0</ele><time>2026-04-12T11:37:55.998Z</time></trkpt><trkpt lat="44.3246630785874" lon="11.463362206579728"><ele>210.0</ele><time>2026-04-12T11:37:56.998Z</time></trkpt><trkpt lat="44.32453433250146" lon="11.463352999675962"><ele>209.25</ele><time>2026-04-12T11:37:57.998Z</time></trkpt><trkpt lat="44.324412782704925" lon="11.463353399583653"><ele>208.5</ele><time>2026-04-12T11:37:58.998Z</time></trkpt><trkpt lat="44.324275970075774" lon="11.463378106658524"><ele>207.75</ele><time>2026-04-12T11:37:59.998Z</time></trkpt><trkpt lat="44.32411653437923" lon="11.463438469026858"><ele>207.0</ele><time>2026-04-12T11:38:00.998Z</time></trkpt><trkpt lat="44.323941356084426" lon="11.463521351112682"><ele>207.0</ele><time>2026-04-12T11:38:01.998Z</time></trkpt><trkpt lat="44.323757654906586" lon="11.463604892190268"><ele>207.0</ele><time>2026-04-12T11:38:02.998Z</time></trkpt><trkpt lat="44.32356128006044" lon="11.463695564078975"><ele>207.0</ele><time>2026-04-12T11:38:03.998Z</time></trkpt><trkpt lat="44.32336783111427" lon="11.463784393175777"><ele>207.0</ele><time>2026-04-12T11:38:04.998Z</time></trkpt><trkpt lat="44.3231690211882" lon="11.463847138547486"><ele>207.0</ele><time>2026-04-12T11:38:05.998Z</time></trkpt><trkpt lat="44.323008562100455" lon="11.463938452852327"><ele>207.0</ele><time>2026-04-12T11:38:06.998Z</time></trkpt><trkpt lat="44.3228439481818" lon="11.464002715206593"><ele>205.5</ele><time>2026-04-12T11:38:08Z</time></trkpt><trkpt lat="44.322695574253544" lon="11.46406894943375"><ele>204.0</ele><time>2026-04-12T11:38:09Z</time></trkpt><trkpt lat="44.322554864413675" lon="11.464134172963185"><ele>202.5</ele><time>2026-04-12T11:38:10Z</time></trkpt><trkpt lat="44.32241649300673" lon="11.464193571608648"><ele>201.0</ele><time>2026-04-12T11:38:11Z</time></trkpt><trkpt lat="44.322290096448405" lon="11.46424856720404"><ele>201.75</ele><time>2026-04-12T11:38:12Z</time></trkpt><trkpt lat="44.32216657640851" lon="11.464302101099213"><ele>202.5</ele><time>2026-04-12T11:38:13Z</time></trkpt><trkpt lat="44.32203938293998" lon="11.464353588873882"><ele>203.25</ele><time>2026-04-12T11:38:14Z</time></trkpt><trkpt lat="44.321915180328766" lon="11.46440466468004"><ele>204.0</ele><time>2026-04-12T11:38:15Z</time></trkpt><trkpt lat="44.321792515632325" lon="11.46445645694288"><ele>204.0</ele><time>2026-04-12T11:38:16Z</time></trkpt><trkpt lat="44.321678086284365" lon="11.464503425593236"><ele>204.0</ele><time>2026-04-12T11:38:17Z</time></trkpt><trkpt lat="44.32156422283187" lon="11.46455165400858"><ele>204.0</ele><time>2026-04-12T11:38:18Z</time></trkpt><trkpt lat="44.321448272539875" lon="11.464599418935107"><ele>204.0</ele><time>2026-04-12T11:38:19Z</time></trkpt><trkpt lat="44.321336984075884" lon="11.464650369643493"><ele>202.5</ele><time>2026-04-12T11:38:20Z</time></trkpt><trkpt lat="44.3212238888119" lon="11.464699956283809"><ele>201.0</ele><time>2026-04-12T11:38:21Z</time></trkpt><trkpt lat="44.32110747430702" lon="11.464749623401687"><ele>199.5</ele><time>2026-04-12T11:38:22Z</time></trkpt><trkpt lat="44.32099316353751" lon="11.464801085244957"><ele>198.0</ele><time>2026-04-12T11:38:23Z</time></trkpt><trkpt lat="44.32088031658132" lon="11.464853580696962"><ele>198.0</ele><time>2026-04-12T11:38:24Z</time></trkpt><trkpt lat="44.320763022352914" lon="11.464901740055682"><ele>198.0</ele><time>2026-04-12T11:38:25Z</time></trkpt><trkpt lat="44.3206451103416" lon="11.464952057652626"><ele>198.0</ele><time>2026-04-12T11:38:26Z</time></trkpt><trkpt lat="44.32052544082077" lon="11.46500248265538"><ele>198.0</ele><time>2026-04-12T11:38:27Z</time></trkpt><trkpt lat="44.32040119892121" lon="11.465045266014782"><ele>197.5</ele><time>2026-04-12T11:38:28Z</time></trkpt><trkpt lat="44.32027312743696" lon="11.465077422380634"><ele>197.0</ele><time>2026-04-12T11:38:29Z</time></trkpt><trkpt lat="44.32013541212829" lon="11.46510605142284"><ele>196.5</ele><time>2026-04-12T11:38:30Z</time></trkpt><trkpt lat="44.31999755309306" lon="11.46513510322425"><ele>196.0</ele><time>2026-04-12T11:38:31Z</time></trkpt><trkpt lat="44.319857995573884" lon="11.465165110422037"><ele>195.75</ele><time>2026-04-12T11:38:32Z</time></trkpt><trkpt lat="44.31971958705191" lon="11.465194765572496"><ele>195.5</ele><time>2026-04-12T11:38:33Z</time></trkpt><trkpt lat="44.319581829586866" lon="11.465219179862817"><ele>195.25</ele><time>2026-04-12T11:38:34Z</time></trkpt><trkpt lat="44.31944747822704" lon="11.465253730305012"><ele>195.0</ele><time>2026-04-12T11:38:35Z</time></trkpt><trkpt lat="44.3193044611463" lon="11.465280760024791"><ele>195.0</ele><time>2026-04-12T11:38:36Z</time></trkpt><trkpt lat="44.31916359128008" lon="11.465314053595083"><ele>195.0</ele><time>2026-04-12T11:38:37Z</time></trkpt><trkpt lat="44.31901344092976" lon="11.465346573603584"><ele>195.0</ele><time>2026-04-12T11:38:38Z</time></trkpt><trkpt lat="44.31886673183734" lon="11.465378526337545"><ele>195.0</ele><time>2026-04-12T11:38:39Z</time></trkpt><trkpt lat="44.318720541219946" lon="11.465411926541064"><ele>195.0</ele><time>2026-04-12T11:38:40Z</time></trkpt><trkpt lat="44.318590955520754" lon="11.465443280389382"><ele>195.0</ele><time>2026-04-12T11:38:41Z</time></trkpt><trkpt lat="44.31846378006835" lon="11.465472932524914"><ele>195.0</ele><time>2026-04-12T11:38:42Z</time></trkpt><trkpt lat="44.31833338057999" lon="11.46550149951933"><ele>195.0</ele><time>2026-04-12T11:38:42.999Z</time></trkpt><trkpt lat="44.31820669602826" lon="11.465530941684616"><ele>195.75</ele><time>2026-04-12T11:38:43.999Z</time></trkpt><trkpt lat="44.31808068836783" lon="11.465562159455017"><ele>196.5</ele><time>2026-04-12T11:38:44.999Z</time></trkpt><trkpt lat="44.317958614577734" lon="11.465596859123444"><ele>197.25</ele><time>2026-04-12T11:38:45.999Z</time></trkpt><trkpt lat="44.31784265021232" lon="11.465614449869387"><ele>198.0</ele><time>2026-04-12T11:38:46.999Z</time></trkpt><trkpt lat="44.31771541639929" lon="11.46559606048169"><ele>196.25</ele><time>2026-04-12T11:38:47.999Z</time></trkpt><trkpt lat="44.31757989758015" lon="11.465501770876191"><ele>194.5</ele><time>2026-04-12T11:38:48.999Z</time></trkpt><trkpt lat="44.31744505434728" lon="11.465422972803918"><ele>192.75</ele><time>2026-04-12T11:38:49.999Z</time></trkpt><trkpt lat="44.317326081208996" lon="11.465377180796857"><ele>191.0</ele><time>2026-04-12T11:38:50.999Z</time></trkpt><trkpt lat="44.31722380735502" lon="11.465343539865861"><ele>190.4</ele><time>2026-04-12T11:38:51.999Z</time></trkpt><trkpt lat="44.31712503434483" lon="11.465344880231731"><ele>189.8</ele><time>2026-04-12T11:38:52.999Z</time></trkpt><trkpt lat="44.317031415108445" lon="11.465371415493845"><ele>189.20000000000002</ele><time>2026-04-12T11:38:53.999Z</time></trkpt><trkpt lat="44.31695154782549" lon="11.465435402258723"><ele>188.60000000000002</ele><time>2026-04-12T11:38:54.999Z</time></trkpt><trkpt lat="44.31688948147833" lon="11.46553150584662"><ele>188.0</ele><time>2026-04-12T11:38:55.999Z</time></trkpt><trkpt lat="44.31683343061441" lon="11.465686396169948"><ele>187.66666666666666</ele><time>2026-04-12T11:38:56.999Z</time></trkpt><trkpt lat="44.3167758107784" lon="11.465909477882843"><ele>187.33333333333334</ele><time>2026-04-12T11:38:57.999Z</time></trkpt><trkpt lat="44.31668975412107" lon="11.466155241361843"><ele>187.0</ele><time>2026-04-12T11:38:58.999Z</time></trkpt><trkpt lat="44.31660531082634" lon="11.466438798472648"><ele>187.0</ele><time>2026-04-12T11:38:59.999Z</time></trkpt><trkpt lat="44.31651909226005" lon="11.46673310707154"><ele>187.0</ele><time>2026-04-12T11:39:00.999Z</time></trkpt><trkpt lat="44.31644347056553" lon="11.466979616399346"><ele>187.0</ele><time>2026-04-12T11:39:01.999Z</time></trkpt><trkpt lat="44.31636853508083" lon="11.467172514647629"><ele>186.75</ele><time>2026-04-12T11:39:02.999Z</time></trkpt><trkpt lat="44.31627805279276" lon="11.46732077788677"><ele>186.5</ele><time>2026-04-12T11:39:03.999Z</time></trkpt><trkpt lat="44.31617680458393" lon="11.467465347259447"><ele>186.25</ele><time>2026-04-12T11:39:04.999Z</time></trkpt><trkpt lat="44.31608565458065" lon="11.46761816911933"><ele>186.0</ele><time>2026-04-12T11:39:05.999Z</time></trkpt><trkpt lat="44.31599876322318" lon="11.467724733975714"><ele>186.0</ele><time>2026-04-12T11:39:06.999Z</time></trkpt><trkpt lat="44.31592000659102" lon="11.467786922509152"><ele>186.0</ele><time>2026-04-12T11:39:07.999Z</time></trkpt><trkpt lat="44.315873743270174" lon="11.467865386080419"><ele>186.0</ele><time>2026-04-12T11:39:08.999Z</time></trkpt><trkpt lat="44.315778714533266" lon="11.46793123752457"><ele>186.0</ele><time>2026-04-12T11:39:10.999Z</time></trkpt><trkpt lat="44.31570342299822" lon="11.467958041097457"><ele>186.0</ele><time>2026-04-12T11:39:13.999Z</time></trkpt><trkpt lat="44.315636077730375" lon="11.468103109487371"><ele>185.4</ele><time>2026-04-12T11:39:16.999Z</time></trkpt><trkpt lat="44.3156186340732" lon="11.46819781459835"><ele>184.8</ele><time>2026-04-12T11:39:17.999Z</time></trkpt><trkpt lat="44.31558880337776" lon="11.468307521139748"><ele>184.20000000000002</ele><time>2026-04-12T11:39:18.999Z</time></trkpt><trkpt lat="44.31555347011661" lon="11.468426604567073"><ele>183.60000000000002</ele><time>2026-04-12T11:39:19.999Z</time></trkpt><trkpt lat="44.31551103014715" lon="11.46857284370135"><ele>183.0</ele><time>2026-04-12T11:39:20.999Z</time></trkpt><trkpt lat="44.315466607006556" lon="11.468721647050435"><ele>183.0</ele><time>2026-04-12T11:39:21.999Z</time></trkpt><trkpt lat="44.31542359320531" lon="11.468861923455668"><ele>183.0</ele><time>2026-04-12T11:39:22.999Z</time></trkpt><trkpt lat="44.31537161183284" lon="11.469020686124901"><ele>183.0</ele><time>2026-04-12T11:39:23.999Z</time></trkpt><trkpt lat="44.31530563621344" lon="11.46918492249994"><ele>183.0</ele><time>2026-04-12T11:39:24.999Z</time></trkpt><trkpt lat="44.31525332775689" lon="11.469367747283533"><ele>183.0</ele><time>2026-04-12T11:39:25.999Z</time></trkpt><trkpt lat="44.31520392533516" lon="11.469559081815907"><ele>183.0</ele><time>2026-04-12T11:39:26.999Z</time></trkpt><trkpt lat="44.315175266979466" lon="11.469739761340337"><ele>183.0</ele><time>2026-04-12T11:39:27.999Z</time></trkpt><trkpt lat="44.315133289572984" lon="11.46991441551288"><ele>183.0</ele><time>2026-04-12T11:39:28.999Z</time></trkpt><trkpt lat="44.31508700568676" lon="11.470087790042125"><ele>183.75</ele><time>2026-04-12T11:39:29.999Z</time></trkpt><trkpt lat="44.315045113052186" lon="11.470262842552103"><ele>184.5</ele><time>2026-04-12T11:39:30.999Z</time></trkpt><trkpt lat="44.314991398120654" lon="11.470425362612506"><ele>185.25</ele><time>2026-04-12T11:39:31.999Z</time></trkpt><trkpt lat="44.314950624594914" lon="11.470591245474084"><ele>186.0</ele><time>2026-04-12T11:39:32.999Z</time></trkpt><trkpt lat="44.314910280415376" lon="11.470755381577591"><ele>186.75</ele><time>2026-04-12T11:39:33.999Z</time></trkpt><trkpt lat="44.314870406006094" lon="11.47091760647138"><ele>187.5</ele><time>2026-04-12T11:39:34.999Z</time></trkpt><trkpt lat="44.31484535056286" lon="11.471087428301733"><ele>188.25</ele><time>2026-04-12T11:39:35.999Z</time></trkpt><trkpt lat="44.314803782516826" lon="11.471246582098146"><ele>189.0</ele><time>2026-04-12T11:39:36.999Z</time></trkpt><trkpt lat="44.31476445894005" lon="11.471410368188874"><ele>185.75</ele><time>2026-04-12T11:39:37.999Z</time></trkpt><trkpt lat="44.31472732668322" lon="11.471573220099085"><ele>182.5</ele><time>2026-04-12T11:39:38.999Z</time></trkpt><trkpt lat="44.31469237772435" lon="11.471741043334452"><ele>179.25</ele><time>2026-04-12T11:39:39.999Z</time></trkpt><trkpt lat="44.314667550356695" lon="11.471910769792705"><ele>176.0</ele><time>2026-04-12T11:39:40.998Z</time></trkpt><trkpt lat="44.31465787990148" lon="11.472068687758629"><ele>176.0</ele><time>2026-04-12T11:39:41.998Z</time></trkpt><trkpt lat="44.314647649977395" lon="11.472234680681067"><ele>176.0</ele><time>2026-04-12T11:39:42.998Z</time></trkpt><trkpt lat="44.31470586374817" lon="11.472400273253669"><ele>176.0</ele><time>2026-04-12T11:39:43.998Z</time></trkpt><trkpt lat="44.3147672182914" lon="11.472567325756922"><ele>176.0</ele><time>2026-04-12T11:39:44.998Z</time></trkpt><trkpt lat="44.31482325739701" lon="11.472737694445637"><ele>178.75</ele><time>2026-04-12T11:39:45.998Z</time></trkpt><trkpt lat="44.314882979716735" lon="11.472911673711232"><ele>181.5</ele><time>2026-04-12T11:39:46.998Z</time></trkpt><trkpt lat="44.31491679321197" lon="11.473095135080147"><ele>184.25</ele><time>2026-04-12T11:39:47.998Z</time></trkpt><trkpt lat="44.31493865727042" lon="11.473273974587421"><ele>187.0</ele><time>2026-04-12T11:39:48.998Z</time></trkpt><trkpt lat="44.31495790205786" lon="11.473477367299012"><ele>187.0</ele><time>2026-04-12T11:39:49.998Z</time></trkpt><trkpt lat="44.31498720311371" lon="11.47367406041567"><ele>187.0</ele><time>2026-04-12T11:39:50.998Z</time></trkpt><trkpt lat="44.3150052117008" lon="11.473864795959104"><ele>187.0</ele><time>2026-04-12T11:39:51.998Z</time></trkpt><trkpt lat="44.315027489556726" lon="11.474049764719258"><ele>187.0</ele><time>2026-04-12T11:39:52.998Z</time></trkpt><trkpt lat="44.315053644789685" lon="11.474229120769595"><ele>186.0</ele><time>2026-04-12T11:39:53.998Z</time></trkpt><trkpt lat="44.31508948678805" lon="11.474400750579646"><ele>185.0</ele><time>2026-04-12T11:39:54.998Z</time></trkpt><trkpt lat="44.315133496082105" lon="11.47457194051614"><ele>184.0</ele><time>2026-04-12T11:39:55.998Z</time></trkpt><trkpt lat="44.315174249884656" lon="11.474738059716302"><ele>183.0</ele><time>2026-04-12T11:39:56.998Z</time></trkpt><trkpt lat="44.31521571387077" lon="11.474903854033009"><ele>181.5</ele><time>2026-04-12T11:39:57.998Z</time></trkpt><trkpt lat="44.31526186196511" lon="11.475075300559554"><ele>180.0</ele><time>2026-04-12T11:39:58.998Z</time></trkpt><trkpt lat="44.315309756203774" lon="11.475237565417904"><ele>178.5</ele><time>2026-04-12T11:39:59.998Z</time></trkpt><trkpt lat="44.31536159225113" lon="11.475407819807595"><ele>177.0</ele><time>2026-04-12T11:40:00.998Z</time></trkpt><trkpt lat="44.31541813134326" lon="11.475573784867027"><ele>176.0</ele><time>2026-04-12T11:40:01.998Z</time></trkpt><trkpt lat="44.315478409211146" lon="11.475734812526415"><ele>175.0</ele><time>2026-04-12T11:40:02.998Z</time></trkpt><trkpt lat="44.31554396730753" lon="11.475899429776115"><ele>174.0</ele><time>2026-04-12T11:40:03.998Z</time></trkpt><trkpt lat="44.315605747994475" lon="11.476063771033083"><ele>173.0</ele><time>2026-04-12T11:40:04.998Z</time></trkpt><trkpt lat="44.31566557353299" lon="11.476224848370524"><ele>174.75</ele><time>2026-04-12T11:40:05.998Z</time></trkpt><trkpt lat="44.31572591503493" lon="11.476381115796856"><ele>176.5</ele><time>2026-04-12T11:40:06.998Z</time></trkpt><trkpt lat="44.31578418740477" lon="11.476532136707807"><ele>178.25</ele><time>2026-04-12T11:40:07.998Z</time></trkpt><trkpt lat="44.31584299328981" lon="11.476681037540319"><ele>180.0</ele><time>2026-04-12T11:40:08.998Z</time></trkpt><trkpt lat="44.31589958863673" lon="11.476827939263103"><ele>180.0</ele><time>2026-04-12T11:40:09.998Z</time></trkpt><trkpt lat="44.31595591100177" lon="11.47693694199715"><ele>180.0</ele><time>2026-04-12T11:40:10.998Z</time></trkpt><trkpt lat="44.31604336023408" lon="11.477050925771975"><ele>180.0</ele><time>2026-04-12T11:40:11.998Z</time></trkpt><trkpt lat="44.31614424720055" lon="11.477163564104542"><ele>180.0</ele><time>2026-04-12T11:40:12.998Z</time></trkpt><trkpt lat="44.31626270029871" lon="11.477252623453078"><ele>180.25</ele><time>2026-04-12T11:40:14Z</time></trkpt><trkpt lat="44.31638211760809" lon="11.477337582426415"><ele>180.5</ele><time>2026-04-12T11:40:15Z</time></trkpt><trkpt lat="44.31649032313898" lon="11.477421257587933"><ele>180.75</ele><time>2026-04-12T11:40:16Z</time></trkpt><trkpt lat="44.316584860557036" lon="11.477522933897088"><ele>181.0</ele><time>2026-04-12T11:40:17Z</time></trkpt><trkpt lat="44.31666979365129" lon="11.47763921119258"><ele>181.0</ele><time>2026-04-12T11:40:18Z</time></trkpt><trkpt lat="44.31673984592752" lon="11.477773721905688"><ele>181.0</ele><time>2026-04-12T11:40:19Z</time></trkpt><trkpt lat="44.316795186098524" lon="11.477923301765568"><ele>181.0</ele><time>2026-04-12T11:40:20Z</time></trkpt><trkpt lat="44.31684359591983" lon="11.478080800139386"><ele>181.0</ele><time>2026-04-12T11:40:21Z</time></trkpt><trkpt lat="44.31690057858167" lon="11.478227431086049"><ele>179.75</ele><time>2026-04-12T11:40:22Z</time></trkpt><trkpt lat="44.31696928345298" lon="11.478364624744108"><ele>178.5</ele><time>2026-04-12T11:40:23Z</time></trkpt><trkpt lat="44.317048480190685" lon="11.47849314588486"><ele>177.25</ele><time>2026-04-12T11:40:24Z</time></trkpt><trkpt lat="44.317135002792874" lon="11.478606887977442"><ele>176.0</ele><time>2026-04-12T11:40:25Z</time></trkpt><trkpt lat="44.31722865964417" lon="11.478704558736432"><ele>175.75</ele><time>2026-04-12T11:40:26Z</time></trkpt><trkpt lat="44.317326437203675" lon="11.478795818598247"><ele>175.5</ele><time>2026-04-12T11:40:27Z</time></trkpt><trkpt lat="44.31742245569111" lon="11.478888302662288"><ele>175.25</ele><time>2026-04-12T11:40:28Z</time></trkpt><trkpt lat="44.31752154699631" lon="11.478983514835624"><ele>175.0</ele><time>2026-04-12T11:40:29Z</time></trkpt><trkpt lat="44.31761646505492" lon="11.47908272120038"><ele>175.0</ele><time>2026-04-12T11:40:30Z</time></trkpt><trkpt lat="44.31770509935642" lon="11.479192389371576"><ele>175.0</ele><time>2026-04-12T11:40:31Z</time></trkpt><trkpt lat="44.31778310568481" lon="11.479322255541307"><ele>175.0</ele><time>2026-04-12T11:40:32Z</time></trkpt><trkpt lat="44.317849296890614" lon="11.479465208158423"><ele>175.0</ele><time>2026-04-12T11:40:33Z</time></trkpt><trkpt lat="44.3179065216426" lon="11.479610239797017"><ele>174.5</ele><time>2026-04-12T11:40:34Z</time></trkpt><trkpt lat="44.317965216710924" lon="11.479746943926411"><ele>174.0</ele><time>2026-04-12T11:40:35Z</time></trkpt><trkpt lat="44.31804059773044" lon="11.479861524626362"><ele>173.5</ele><time>2026-04-12T11:40:36Z</time></trkpt><trkpt lat="44.31813486243155" lon="11.479959576203019"><ele>173.0</ele><time>2026-04-12T11:40:37Z</time></trkpt><trkpt lat="44.31824280339242" lon="11.480035568630045"><ele>174.75</ele><time>2026-04-12T11:40:38Z</time></trkpt><trkpt lat="44.318350016426926" lon="11.480112407621863"><ele>176.5</ele><time>2026-04-12T11:40:39Z</time></trkpt><trkpt lat="44.31845069816847" lon="11.480194524239938"><ele>178.25</ele><time>2026-04-12T11:40:40Z</time></trkpt><trkpt lat="44.31854975819966" lon="11.480285354954669"><ele>180.0</ele><time>2026-04-12T11:40:41Z</time></trkpt><trkpt lat="44.31864477746236" lon="11.480384287032383"><ele>180.0</ele><time>2026-04-12T11:40:42Z</time></trkpt><trkpt lat="44.318731654494506" lon="11.480495005811594"><ele>180.0</ele><time>2026-04-12T11:40:43Z</time></trkpt><trkpt lat="44.318816021813305" lon="11.480623726435368"><ele>180.0</ele><time>2026-04-12T11:40:44Z</time></trkpt><trkpt lat="44.31890081256064" lon="11.480760599324887"><ele>180.0</ele><time>2026-04-12T11:40:45Z</time></trkpt><trkpt lat="44.31899010603689" lon="11.480906011760746"><ele>180.0</ele><time>2026-04-12T11:40:46Z</time></trkpt><trkpt lat="44.319078764575856" lon="11.48106422349887"><ele>180.0</ele><time>2026-04-12T11:40:47Z</time></trkpt><trkpt lat="44.31916734119859" lon="11.481229208558426"><ele>180.0</ele><time>2026-04-12T11:40:48Z</time></trkpt><trkpt lat="44.319252481265934" lon="11.481396753311806"><ele>180.0</ele><time>2026-04-12T11:40:48.999Z</time></trkpt><trkpt lat="44.31933168217411" lon="11.481553811828386"><ele>178.75</ele><time>2026-04-12T11:40:49.999Z</time></trkpt><trkpt lat="44.31939849936396" lon="11.48170715610776"><ele>177.5</ele><time>2026-04-12T11:40:50.999Z</time></trkpt><trkpt lat="44.31947688447488" lon="11.481858608322044"><ele>176.25</ele><time>2026-04-12T11:40:51.999Z</time></trkpt><trkpt lat="44.31955137614564" lon="11.48201793133359"><ele>175.0</ele><time>2026-04-12T11:40:52.999Z</time></trkpt><trkpt lat="44.319624123092446" lon="11.482176464774225"><ele>174.25</ele><time>2026-04-12T11:40:53.999Z</time></trkpt><trkpt lat="44.31969634133316" lon="11.482339857655838"><ele>173.5</ele><time>2026-04-12T11:40:54.999Z</time></trkpt><trkpt lat="44.31977495241144" lon="11.482479349966695"><ele>172.75</ele><time>2026-04-12T11:40:55.999Z</time></trkpt><trkpt lat="44.31984370987554" lon="11.482633075641068"><ele>172.0</ele><time>2026-04-12T11:40:56.999Z</time></trkpt><trkpt lat="44.319909963806246" lon="11.482787103578955"><ele>173.0</ele><time>2026-04-12T11:40:57.999Z</time></trkpt><trkpt lat="44.319972058531974" lon="11.48293909036132"><ele>174.0</ele><time>2026-04-12T11:40:58.999Z</time></trkpt><trkpt lat="44.32002813128284" lon="11.483086670070117"><ele>175.0</ele><time>2026-04-12T11:40:59.999Z</time></trkpt><trkpt lat="44.32007440231589" lon="11.48322497194739"><ele>176.0</ele><time>2026-04-12T11:41:00.999Z</time></trkpt><trkpt lat="44.32011332165605" lon="11.483360964496002"><ele>176.0</ele><time>2026-04-12T11:41:01.999Z</time></trkpt><trkpt lat="44.320149575277185" lon="11.483493766162784"><ele>176.0</ele><time>2026-04-12T11:41:02.999Z</time></trkpt><trkpt lat="44.32017665215375" lon="11.483619377431834"><ele>176.0</ele><time>2026-04-12T11:41:03.999Z</time></trkpt><trkpt lat="44.32019436647392" lon="11.483734709519782"><ele>176.0</ele><time>2026-04-12T11:41:04.999Z</time></trkpt><trkpt lat="44.32020596295614" lon="11.483846558995893"><ele>176.0</ele><time>2026-04-12T11:41:05.999Z</time></trkpt><trkpt lat="44.32020961464734" lon="11.48395574397621"><ele>176.0</ele><time>2026-04-12T11:41:06.999Z</time></trkpt><trkpt lat="44.320209432095595" lon="11.484060765177176"><ele>175.57142857142858</ele><time>2026-04-12T11:41:07.999Z</time></trkpt><trkpt lat="44.32020949086099" lon="11.484161775648868"><ele>175.14285714285714</ele><time>2026-04-12T11:41:08.999Z</time></trkpt><trkpt lat="44.32021122105666" lon="11.484252876023787"><ele>174.71428571428572</ele><time>2026-04-12T11:41:09.999Z</time></trkpt><trkpt lat="44.32021424889536" lon="11.48435116029585"><ele>174.28571428571428</ele><time>2026-04-12T11:41:10.999Z</time></trkpt><trkpt lat="44.320215004947286" lon="11.484449397514666"><ele>173.85714285714286</ele><time>2026-04-12T11:41:11.999Z</time></trkpt><trkpt lat="44.32021464080856" lon="11.484554813263035"><ele>173.42857142857142</ele><time>2026-04-12T11:41:12.999Z</time></trkpt><trkpt lat="44.3202169029661" lon="11.484656057782466"><ele>173.0</ele><time>2026-04-12T11:41:13.999Z</time></trkpt><trkpt lat="44.320221148103734" lon="11.484750045821178"><ele>173.0</ele><time>2026-04-12T11:41:14.999Z</time></trkpt><trkpt lat="44.32022533977567" lon="11.484908690134175"><ele>173.0</ele><time>2026-04-12T11:41:16.999Z</time></trkpt><trkpt lat="44.320207088544684" lon="11.485004057718738"><ele>173.0</ele><time>2026-04-12T11:41:18.999Z</time></trkpt><trkpt lat="44.320306743927354" lon="11.48502048744542"><ele>173.0</ele><time>2026-04-12T11:41:20.999Z</time></trkpt><trkpt lat="44.32042948713263" lon="11.485029652749018"><ele>173.0</ele><time>2026-04-12T11:41:22.999Z</time></trkpt><trkpt lat="44.32049439488948" lon="11.48505598939343"><ele>173.0</ele><time>2026-04-12T11:41:23.999Z</time></trkpt><trkpt lat="44.32054342660944" lon="11.485116263389472"><ele>173.0</ele><time>2026-04-12T11:41:24.999Z</time></trkpt><trkpt lat="44.320640620450945" lon="11.485186741660055"><ele>173.0</ele><time>2026-04-12T11:41:26.999Z</time></trkpt><trkpt lat="44.32071914304505" lon="11.485323328059224"><ele>173.0</ele><time>2026-04-12T11:41:28.999Z</time></trkpt><trkpt lat="44.3207946134859" lon="11.485415103739186"><ele>173.0</ele><time>2026-04-12T11:41:30.999Z</time></trkpt><trkpt lat="44.320868865452354" lon="11.485434894340552"><ele>173.33333333333331</ele><time>2026-04-12T11:41:31.999Z</time></trkpt><trkpt lat="44.32095421362431" lon="11.485437511238626"><ele>173.66666666666666</ele><time>2026-04-12T11:41:32.999Z</time></trkpt><trkpt lat="44.3210495660936" lon="11.485432692137332"><ele>174.0</ele><time>2026-04-12T11:41:33.999Z</time></trkpt><trkpt lat="44.32114138734322" lon="11.485404307568562"><ele>174.33333333333334</ele><time>2026-04-12T11:41:34.999Z</time></trkpt><trkpt lat="44.32121956788347" lon="11.485391521264338"><ele>174.66666666666669</ele><time>2026-04-12T11:41:35.999Z</time></trkpt><trkpt lat="44.32129050938649" lon="11.48536076893511"><ele>175.0</ele><time>2026-04-12T11:41:36.999Z</time></trkpt><trkpt lat="44.32135445176118" lon="11.485313240908884"><ele>175.71428571428572</ele><time>2026-04-12T11:41:37.999Z</time></trkpt><trkpt lat="44.3214111313915" lon="11.485256508432236"><ele>176.42857142857144</ele><time>2026-04-12T11:41:38.999Z</time></trkpt><trkpt lat="44.321468564507875" lon="11.48519214530002"><ele>177.14285714285714</ele><time>2026-04-12T11:41:39.999Z</time></trkpt><trkpt lat="44.321527794417186" lon="11.485128357260226"><ele>177.85714285714286</ele><time>2026-04-12T11:41:40.999Z</time></trkpt><trkpt lat="44.32158304552878" lon="11.485061591466055"><ele>178.57142857142858</ele><time>2026-04-12T11:41:41.999Z</time></trkpt><trkpt lat="44.32163716617917" lon="11.48500585697674"><ele>179.28571428571428</ele><time>2026-04-12T11:41:42.999Z</time></trkpt><trkpt lat="44.321697607981534" lon="11.484973458376345"><ele>180.0</ele><time>2026-04-12T11:41:43.999Z</time></trkpt><trkpt lat="44.32180044854942" lon="11.484864405222968"><ele>180.0</ele><time>2026-04-12T11:41:45.998Z</time></trkpt><trkpt lat="44.32186380623696" lon="11.484810163126626"><ele>180.0</ele><time>2026-04-12T11:41:46.998Z</time></trkpt><trkpt lat="44.32193587610029" lon="11.484741247042647"><ele>180.0</ele><time>2026-04-12T11:41:47.998Z</time></trkpt><trkpt lat="44.32202202994255" lon="11.484650874427418"><ele>180.0</ele><time>2026-04-12T11:41:48.998Z</time></trkpt><trkpt lat="44.32208994861826" lon="11.484568703303742"><ele>180.0</ele><time>2026-04-12T11:41:49.998Z</time></trkpt><trkpt lat="44.32215359767144" lon="11.484484495838068"><ele>180.0</ele><time>2026-04-12T11:41:50.998Z</time></trkpt><trkpt lat="44.32220606534249" lon="11.484393391316713"><ele>180.4</ele><time>2026-04-12T11:41:51.998Z</time></trkpt><trkpt lat="44.322247615231106" lon="11.484286989694004"><ele>180.8</ele><time>2026-04-12T11:41:52.998Z</time></trkpt><trkpt lat="44.32229359757188" lon="11.484147311827346"><ele>181.2</ele><time>2026-04-12T11:41:53.998Z</time></trkpt><trkpt lat="44.32233315282551" lon="11.484009362605484"><ele>181.6</ele><time>2026-04-12T11:41:54.998Z</time></trkpt><trkpt lat="44.32236728909307" lon="11.483900702885892"><ele>182.0</ele><time>2026-04-12T11:41:55.998Z</time></trkpt><trkpt lat="44.322400046698505" lon="11.48381974548835"><ele>182.66666666666666</ele><time>2026-04-12T11:41:56.998Z</time></trkpt><trkpt lat="44.32245177161194" lon="11.483748135469632"><ele>183.33333333333331</ele><time>2026-04-12T11:41:57.998Z</time></trkpt><trkpt lat="44.32252138853322" lon="11.483694383246883"><ele>184.0</ele><time>2026-04-12T11:41:58.998Z</time></trkpt><trkpt lat="44.32258538977726" lon="11.483703824284344"><ele>184.66666666666666</ele><time>2026-04-12T11:41:59.998Z</time></trkpt><trkpt lat="44.32265603170642" lon="11.483678065924586"><ele>185.33333333333334</ele><time>2026-04-12T11:42:01.998Z</time></trkpt><trkpt lat="44.32274329103912" lon="11.483646830291745"><ele>186.0</ele><time>2026-04-12T11:42:03.998Z</time></trkpt><trkpt lat="44.32283166015792" lon="11.48361591756314"><ele>186.0</ele><time>2026-04-12T11:42:05.998Z</time></trkpt><trkpt lat="44.322931957367985" lon="11.483565988409214"><ele>186.0</ele><time>2026-04-12T11:42:07.998Z</time></trkpt><trkpt lat="44.32304902048487" lon="11.483539045389099"><ele>186.0</ele><time>2026-04-12T11:42:09.998Z</time></trkpt><trkpt lat="44.323186631826104" lon="11.483522884581845"><ele>186.0</ele><time>2026-04-12T11:42:11.998Z</time></trkpt><trkpt lat="44.323287982660226" lon="11.483553767734243"><ele>186.0</ele><time>2026-04-12T11:42:12.998Z</time></trkpt><trkpt lat="44.32338998163539" lon="11.483577932225407"><ele>186.0</ele><time>2026-04-12T11:42:13.998Z</time></trkpt><trkpt lat="44.3234964046741" lon="11.48360218152947"><ele>186.0</ele><time>2026-04-12T11:42:14.998Z</time></trkpt><trkpt lat="44.32361055239585" lon="11.483617269468942"><ele>186.0</ele><time>2026-04-12T11:42:15.998Z</time></trkpt><trkpt lat="44.32372698475892" lon="11.483623926275204"><ele>186.0</ele><time>2026-04-12T11:42:16.998Z</time></trkpt><trkpt lat="44.32384478346617" lon="11.483624683452843"><ele>186.4</ele><time>2026-04-12T11:42:17.998Z</time></trkpt><trkpt lat="44.32395534039041" lon="11.48362762121677"><ele>186.8</ele><time>2026-04-12T11:42:19Z</time></trkpt><trkpt lat="44.32405835754929" lon="11.48363416129728"><ele>187.20000000000002</ele><time>2026-04-12T11:42:20Z</time></trkpt><trkpt lat="44.324154822750835" lon="11.48364510603996"><ele>187.60000000000002</ele><time>2026-04-12T11:42:21Z</time></trkpt><trkpt lat="44.3242413471191" lon="11.48366162161438"><ele>188.0</ele><time>2026-04-12T11:42:22Z</time></trkpt><trkpt lat="44.32432668037129" lon="11.483677964555767"><ele>188.0</ele><time>2026-04-12T11:42:23Z</time></trkpt><trkpt lat="44.32441419033442" lon="11.483686773133243"><ele>188.0</ele><time>2026-04-12T11:42:24Z</time></trkpt><trkpt lat="44.32449343674021" lon="11.483687410107482"><ele>188.0</ele><time>2026-04-12T11:42:25Z</time></trkpt><trkpt lat="44.324567244643205" lon="11.4836739990386"><ele>188.0</ele><time>2026-04-12T11:42:26Z</time></trkpt><trkpt lat="44.32464527779087" lon="11.48363756290054"><ele>188.0</ele><time>2026-04-12T11:42:27Z</time></trkpt><trkpt lat="44.32473815234211" lon="11.483559702016414"><ele>188.0</ele><time>2026-04-12T11:42:28Z</time></trkpt><trkpt lat="44.32485161543679" lon="11.48347116564705"><ele>188.25</ele><time>2026-04-12T11:42:29Z</time></trkpt><trkpt lat="44.32496773282285" lon="11.483417070722686"><ele>188.5</ele><time>2026-04-12T11:42:30Z</time></trkpt><trkpt lat="44.32507674220423" lon="11.483379897209405"><ele>188.75</ele><time>2026-04-12T11:42:31Z</time></trkpt><trkpt lat="44.32518809843242" lon="11.483360267406288"><ele>189.0</ele><time>2026-04-12T11:42:32Z</time></trkpt><trkpt lat="44.32530093383079" lon="11.483354726850507"><ele>189.0</ele><time>2026-04-12T11:42:33Z</time></trkpt><trkpt lat="44.325394377741794" lon="11.483364846266134"><ele>189.0</ele><time>2026-04-12T11:42:34Z</time></trkpt><trkpt lat="44.32548656357166" lon="11.4833576404459"><ele>189.0</ele><time>2026-04-12T11:42:35Z</time></trkpt><trkpt lat="44.32559017666191" lon="11.483316973001424"><ele>189.0</ele><time>2026-04-12T11:42:36Z</time></trkpt><trkpt lat="44.325694221302406" lon="11.483249299106728"><ele>189.0</ele><time>2026-04-12T11:42:37Z</time></trkpt><trkpt lat="44.325771638420775" lon="11.483193575827274"><ele>189.79999999999998</ele><time>2026-04-12T11:42:38Z</time></trkpt><trkpt lat="44.32584994899026" lon="11.48315774857018"><ele>190.6</ele><time>2026-04-12T11:42:39Z</time></trkpt><trkpt lat="44.32594079667054" lon="11.483161592667141"><ele>191.4</ele><time>2026-04-12T11:42:40Z</time></trkpt><trkpt lat="44.32602983439834" lon="11.483162799882168"><ele>192.2</ele><time>2026-04-12T11:42:41Z</time></trkpt><trkpt lat="44.32613465808037" lon="11.483185562102985"><ele>193.0</ele><time>2026-04-12T11:42:42Z</time></trkpt><trkpt lat="44.32621866458195" lon="11.483223784422057"><ele>192.99999999999997</ele><time>2026-04-12T11:42:43Z</time></trkpt><trkpt lat="44.32630977172373" lon="11.483255851049528"><ele>193.0</ele><time>2026-04-12T11:42:44Z</time></trkpt><trkpt lat="44.32639299486914" lon="11.483310782927306"><ele>193.0</ele><time>2026-04-12T11:42:45Z</time></trkpt><trkpt lat="44.32645886601785" lon="11.483386877716583"><ele>193.0</ele><time>2026-04-12T11:42:46Z</time></trkpt><trkpt lat="44.326528520752674" lon="11.483419485076652"><ele>192.99999999999997</ele><time>2026-04-12T11:42:47Z</time></trkpt><trkpt lat="44.32658005523614" lon="11.483480908025731"><ele>193.0</ele><time>2026-04-12T11:42:48Z</time></trkpt><trkpt lat="44.32666899126547" lon="11.483533028761366"><ele>193.16666666666666</ele><time>2026-04-12T11:42:49.999Z</time></trkpt><trkpt lat="44.32677690416423" lon="11.483602942549352"><ele>193.33333333333331</ele><time>2026-04-12T11:42:51.999Z</time></trkpt><trkpt lat="44.32683667256151" lon="11.483644980061221"><ele>193.5</ele><time>2026-04-12T11:42:52.999Z</time></trkpt><trkpt lat="44.326901708063694" lon="11.48367695662157"><ele>193.66666666666669</ele><time>2026-04-12T11:42:53.999Z</time></trkpt><trkpt lat="44.326974142637525" lon="11.483687043565894"><ele>193.83333333333334</ele><time>2026-04-12T11:42:54.999Z</time></trkpt><trkpt lat="44.32707552887696" lon="11.483668362190464"><ele>194.0</ele><time>2026-04-12T11:42:55.999Z</time></trkpt><trkpt lat="44.327206424736396" lon="11.483631583617159"><ele>194.5</ele><time>2026-04-12T11:42:56.999Z</time></trkpt><trkpt lat="44.32734092685995" lon="11.483602539758706"><ele>195.0</ele><time>2026-04-12T11:42:57.999Z</time></trkpt><trkpt lat="44.32746882874674" lon="11.483556682697548"><ele>195.5</ele><time>2026-04-12T11:42:58.999Z</time></trkpt><trkpt lat="44.327591927192366" lon="11.483487442482662"><ele>196.0</ele><time>2026-04-12T11:42:59.999Z</time></trkpt><trkpt lat="44.32769554237277" lon="11.4834157065407"><ele>195.99999999999997</ele><time>2026-04-12T11:43:00.999Z</time></trkpt><trkpt lat="44.32778076022025" lon="11.483375530695046"><ele>196.0</ele><time>2026-04-12T11:43:01.999Z</time></trkpt><trkpt lat="44.32787708638848" lon="11.483374741744798"><ele>196.0</ele><time>2026-04-12T11:43:02.999Z</time></trkpt><trkpt lat="44.327967909914165" lon="11.483379669972527"><ele>196.0</ele><time>2026-04-12T11:43:03.999Z</time></trkpt><trkpt lat="44.32805542112214" lon="11.483369854128844"><ele>195.99999999999997</ele><time>2026-04-12T11:43:04.999Z</time></trkpt><trkpt lat="44.32812988834379" lon="11.483380772482862"><ele>196.0</ele><time>2026-04-12T11:43:05.999Z</time></trkpt><trkpt lat="44.32819476015337" lon="11.48337508403121"><ele>196.75</ele><time>2026-04-12T11:43:06.999Z</time></trkpt><trkpt lat="44.32828265292907" lon="11.483354620426647"><ele>197.5</ele><time>2026-04-12T11:43:07.999Z</time></trkpt><trkpt lat="44.328400090603" lon="11.48330005432608"><ele>198.25</ele><time>2026-04-12T11:43:08.999Z</time></trkpt><trkpt lat="44.328530751918244" lon="11.483214227294457"><ele>199.0</ele><time>2026-04-12T11:43:09.999Z</time></trkpt><trkpt lat="44.32863354786921" lon="11.483124594241284"><ele>199.0</ele><time>2026-04-12T11:43:10.999Z</time></trkpt><trkpt lat="44.3287310698122" lon="11.483023399959011"><ele>199.0</ele><time>2026-04-12T11:43:11.999Z</time></trkpt><trkpt lat="44.32881674486803" lon="11.48291327092781"><ele>199.0</ele><time>2026-04-12T11:43:12.999Z</time></trkpt><trkpt lat="44.32891046148949" lon="11.482782190522276"><ele>199.0</ele><time>2026-04-12T11:43:13.999Z</time></trkpt><trkpt lat="44.32899060469058" lon="11.48266089915595"><ele>200.6</ele><time>2026-04-12T11:43:14.999Z</time></trkpt><trkpt lat="44.329058215279844" lon="11.4825828411771"><ele>202.2</ele><time>2026-04-12T11:43:15.999Z</time></trkpt><trkpt lat="44.32913114985055" lon="11.482529330297266"><ele>203.79999999999998</ele><time>2026-04-12T11:43:16.999Z</time></trkpt><trkpt lat="44.32921007053981" lon="11.482485001835979"><ele>205.39999999999998</ele><time>2026-04-12T11:43:17.999Z</time></trkpt><trkpt lat="44.32931220381132" lon="11.482476462970276"><ele>207.0</ele><time>2026-04-12T11:43:18.999Z</time></trkpt><trkpt lat="44.32943264712338" lon="11.482459398949965"><ele>207.0</ele><time>2026-04-12T11:43:19.999Z</time></trkpt><trkpt lat="44.329553331265735" lon="11.482451504689124"><ele>207.0</ele><time>2026-04-12T11:43:20.999Z</time></trkpt><trkpt lat="44.32967014231536" lon="11.482440447223611"><ele>207.0</ele><time>2026-04-12T11:43:21.999Z</time></trkpt><trkpt lat="44.32979212750321" lon="11.482519638841737"><ele>207.0</ele><time>2026-04-12T11:43:22.999Z</time></trkpt><trkpt lat="44.329913619071654" lon="11.48258341150516"><ele>206.75</ele><time>2026-04-12T11:43:23.999Z</time></trkpt><trkpt lat="44.3300336771205" lon="11.482610747448387"><ele>206.5</ele><time>2026-04-12T11:43:24.999Z</time></trkpt><trkpt lat="44.3301666717852" lon="11.482638370552447"><ele>206.25</ele><time>2026-04-12T11:43:25.999Z</time></trkpt><trkpt lat="44.33031515310473" lon="11.482646516136812"><ele>206.0</ele><time>2026-04-12T11:43:26.999Z</time></trkpt><trkpt lat="44.33048599448403" lon="11.482642658672226"><ele>207.0</ele><time>2026-04-12T11:43:27.999Z</time></trkpt><trkpt lat="44.330661694507185" lon="11.48264113781973"><ele>208.0</ele><time>2026-04-12T11:43:28.999Z</time></trkpt><trkpt lat="44.33080097448018" lon="11.482677020967479"><ele>209.0</ele><time>2026-04-12T11:43:29.999Z</time></trkpt><trkpt lat="44.33091766163043" lon="11.48270454586785"><ele>210.0</ele><time>2026-04-12T11:43:30.999Z</time></trkpt><trkpt lat="44.331033033114394" lon="11.48273221243305"><ele>210.0</ele><time>2026-04-12T11:43:31.999Z</time></trkpt><trkpt lat="44.33113475366454" lon="11.482793605000472"><ele>210.0</ele><time>2026-04-12T11:43:32.999Z</time></trkpt><trkpt lat="44.33122111581455" lon="11.482856110082082"><ele>210.0</ele><time>2026-04-12T11:43:33.999Z</time></trkpt><trkpt lat="44.331312847535976" lon="11.482904712392155"><ele>210.0</ele><time>2026-04-12T11:43:34.999Z</time></trkpt><trkpt lat="44.33141490154841" lon="11.482925079265755"><ele>210.0</ele><time>2026-04-12T11:43:35.999Z</time></trkpt><trkpt lat="44.331537479696635" lon="11.482983924148957"><ele>211.33333333333331</ele><time>2026-04-12T11:43:36.999Z</time></trkpt><trkpt lat="44.33169649343485" lon="11.483045628455596"><ele>212.66666666666666</ele><time>2026-04-12T11:43:37.999Z</time></trkpt><trkpt lat="44.331892886713774" lon="11.482968927103014"><ele>214.0</ele><time>2026-04-12T11:43:38.999Z</time></trkpt><trkpt lat="44.332051902599765" lon="11.482997390022485"><ele>214.0</ele><time>2026-04-12T11:43:39.999Z</time></trkpt><trkpt lat="44.3322009890117" lon="11.483019616376698"><ele>214.0</ele><time>2026-04-12T11:43:40.999Z</time></trkpt><trkpt lat="44.33236330350193" lon="11.483041826389885"><ele>214.0</ele><time>2026-04-12T11:43:41.999Z</time></trkpt><trkpt lat="44.33253052877643" lon="11.483080779724164"><ele>214.0</ele><time>2026-04-12T11:43:42.999Z</time></trkpt><trkpt lat="44.33268618709453" lon="11.48312726482801"><ele>213.99999999999997</ele><time>2026-04-12T11:43:43.999Z</time></trkpt><trkpt lat="44.332811033323274" lon="11.483168349901696"><ele>213.99999999999997</ele><time>2026-04-12T11:43:44.998Z</time></trkpt><trkpt lat="44.33290399245978" lon="11.483198068559789"><ele>214.0</ele><time>2026-04-12T11:43:45.998Z</time></trkpt><trkpt lat="44.33296686814955" lon="11.483226869963573"><ele>214.0</ele><time>2026-04-12T11:43:46.998Z</time></trkpt><trkpt lat="44.3330616389749" lon="11.483244432715345"><ele>215.6</ele><time>2026-04-12T11:43:48.998Z</time></trkpt><trkpt lat="44.33316605598606" lon="11.483149633087635"><ele>217.2</ele><time>2026-04-12T11:43:50.998Z</time></trkpt><trkpt lat="44.33322064779548" lon="11.483042751412805"><ele>218.79999999999998</ele><time>2026-04-12T11:43:51.998Z</time></trkpt><trkpt lat="44.333272142042645" lon="11.482926869080103"><ele>220.39999999999998</ele><time>2026-04-12T11:43:52.998Z</time></trkpt><trkpt lat="44.33332700185571" lon="11.482822355406077"><ele>222.0</ele><time>2026-04-12T11:43:53.998Z</time></trkpt><trkpt lat="44.333409450148594" lon="11.4826748286675"><ele>223.25</ele><time>2026-04-12T11:43:54.998Z</time></trkpt><trkpt lat="44.333480299530635" lon="11.482519246979503"><ele>224.5</ele><time>2026-04-12T11:43:55.998Z</time></trkpt><trkpt lat="44.33351721192245" lon="11.482386663913035"><ele>225.75</ele><time>2026-04-12T11:43:56.998Z</time></trkpt><trkpt lat="44.333569022153654" lon="11.482218257559326"><ele>227.0</ele><time>2026-04-12T11:43:57.998Z</time></trkpt><trkpt lat="44.33362522788718" lon="11.482065524981246"><ele>227.5</ele><time>2026-04-12T11:43:58.998Z</time></trkpt><trkpt lat="44.33370175689529" lon="11.481945712180094"><ele>228.0</ele><time>2026-04-12T11:43:59.998Z</time></trkpt><trkpt lat="44.33379854595265" lon="11.481836177957971"><ele>228.5</ele><time>2026-04-12T11:44:00.998Z</time></trkpt><trkpt lat="44.333916577282544" lon="11.481737754785929"><ele>229.0</ele><time>2026-04-12T11:44:01.998Z</time></trkpt><trkpt lat="44.334065325536486" lon="11.481622680877525"><ele>229.0</ele><time>2026-04-12T11:44:02.998Z</time></trkpt><trkpt lat="44.33423461217115" lon="11.481502164456028"><ele>229.0</ele><time>2026-04-12T11:44:03.998Z</time></trkpt><trkpt lat="44.33439391556488" lon="11.481381981167797"><ele>229.0</ele><time>2026-04-12T11:44:04.998Z</time></trkpt><trkpt lat="44.334516683297636" lon="11.481275052843907"><ele>229.0</ele><time>2026-04-12T11:44:05.998Z</time></trkpt><trkpt lat="44.33463426197713" lon="11.48116319507313"><ele>229.0</ele><time>2026-04-12T11:44:06.998Z</time></trkpt><trkpt lat="44.33475497743577" lon="11.481061070637784"><ele>229.0</ele><time>2026-04-12T11:44:07.998Z</time></trkpt><trkpt lat="44.334882222684854" lon="11.480946933448962"><ele>229.0</ele><time>2026-04-12T11:44:08.998Z</time></trkpt><trkpt lat="44.33500737091297" lon="11.480845446373666"><ele>229.0</ele><time>2026-04-12T11:44:09.998Z</time></trkpt><trkpt lat="44.335176655484766" lon="11.48070394960045"><ele>229.0</ele><time>2026-04-12T11:44:10.998Z</time></trkpt><trkpt lat="44.33532225679422" lon="11.480581413979735"><ele>229.0</ele><time>2026-04-12T11:44:11.998Z</time></trkpt><trkpt lat="44.33544283588372" lon="11.480487569078436"><ele>231.25</ele><time>2026-04-12T11:44:12.998Z</time></trkpt><trkpt lat="44.33555846023587" lon="11.480407758214263"><ele>233.5</ele><time>2026-04-12T11:44:13.998Z</time></trkpt><trkpt lat="44.335655377032325" lon="11.480336744942091"><ele>235.75</ele><time>2026-04-12T11:44:14.998Z</time></trkpt><trkpt lat="44.335742086674784" lon="11.480254861852977"><ele>238.0</ele><time>2026-04-12T11:44:15.998Z</time></trkpt><trkpt lat="44.335825726306396" lon="11.480153031704385"><ele>238.0</ele><time>2026-04-12T11:44:16.998Z</time></trkpt><trkpt lat="44.335914724392325" lon="11.480053058905842"><ele>238.0</ele><time>2026-04-12T11:44:17.998Z</time></trkpt><trkpt lat="44.335996860872754" lon="11.479979753855622"><ele>238.0</ele><time>2026-04-12T11:44:18.998Z</time></trkpt><trkpt lat="44.33609988711333" lon="11.479910848256711"><ele>238.0</ele><time>2026-04-12T11:44:19.998Z</time></trkpt><trkpt lat="44.33620215299962" lon="11.479849643396685"><ele>238.0</ele><time>2026-04-12T11:44:20.998Z</time></trkpt><trkpt lat="44.33629356288918" lon="11.479806215353554"><ele>238.0</ele><time>2026-04-12T11:44:21.998Z</time></trkpt><trkpt lat="44.33637590146267" lon="11.47975087694154"><ele>238.0</ele><time>2026-04-12T11:44:22.998Z</time></trkpt><trkpt lat="44.33645639332112" lon="11.47970481660178"><ele>238.0</ele><time>2026-04-12T11:44:24Z</time></trkpt><trkpt lat="44.33654761566366" lon="11.479675397045888"><ele>238.0</ele><time>2026-04-12T11:44:25Z</time></trkpt><trkpt lat="44.336640039032076" lon="11.479666177319627"><ele>238.0</ele><time>2026-04-12T11:44:26Z</time></trkpt><trkpt lat="44.336735782110026" lon="11.479659867335958"><ele>238.4</ele><time>2026-04-12T11:44:27Z</time></trkpt><trkpt lat="44.33683672179498" lon="11.479642226521026"><ele>238.8</ele><time>2026-04-12T11:44:28Z</time></trkpt><trkpt lat="44.33692873853388" lon="11.479620089481983"><ele>239.2</ele><time>2026-04-12T11:44:29Z</time></trkpt><trkpt lat="44.33702535761657" lon="11.479591033758956"><ele>239.6</ele><time>2026-04-12T11:44:30Z</time></trkpt><trkpt lat="44.33712965371408" lon="11.47955273032418"><ele>240.0</ele><time>2026-04-12T11:44:31Z</time></trkpt><trkpt lat="44.33724603331045" lon="11.479500516395525"><ele>242.0</ele><time>2026-04-12T11:44:32Z</time></trkpt><trkpt lat="44.337345966443046" lon="11.479446543460709"><ele>244.0</ele><time>2026-04-12T11:44:33Z</time></trkpt><trkpt lat="44.3374351780613" lon="11.479391610625994"><ele>246.0</ele><time>2026-04-12T11:44:34Z</time></trkpt><trkpt lat="44.3375197091369" lon="11.479347387883502"><ele>248.0</ele><time>2026-04-12T11:44:35Z</time></trkpt><trkpt lat="44.337598540410966" lon="11.479324809534251"><ele>250.0</ele><time>2026-04-12T11:44:36Z</time></trkpt><trkpt lat="44.33768314920379" lon="11.479317387821455"><ele>250.0</ele><time>2026-04-12T11:44:37Z</time></trkpt><trkpt lat="44.33776478197998" lon="11.479335956124512"><ele>250.0</ele><time>2026-04-12T11:44:38Z</time></trkpt><trkpt lat="44.3378572878822" lon="11.479376827643726"><ele>250.0</ele><time>2026-04-12T11:44:39Z</time></trkpt><trkpt lat="44.337949181295826" lon="11.479446155365473"><ele>250.0</ele><time>2026-04-12T11:44:40Z</time></trkpt><trkpt lat="44.338060787789985" lon="11.479550728580746"><ele>250.0</ele><time>2026-04-12T11:44:41Z</time></trkpt><trkpt lat="44.33815899731093" lon="11.479621713836616"><ele>252.25</ele><time>2026-04-12T11:44:42Z</time></trkpt><trkpt lat="44.33824593870209" lon="11.47967521669937"><ele>254.5</ele><time>2026-04-12T11:44:43Z</time></trkpt><trkpt lat="44.33834281314228" lon="11.479723737994656"><ele>256.75</ele><time>2026-04-12T11:44:44Z</time></trkpt><trkpt lat="44.33847805309983" lon="11.479782423668194"><ele>259.0</ele><time>2026-04-12T11:44:45Z</time></trkpt><trkpt lat="44.33859441136035" lon="11.479841646888021"><ele>259.0</ele><time>2026-04-12T11:44:46Z</time></trkpt><trkpt lat="44.33868692470099" lon="11.479891418515274"><ele>259.0</ele><time>2026-04-12T11:44:47Z</time></trkpt><trkpt lat="44.338761576183785" lon="11.47994992177841"><ele>259.0</ele><time>2026-04-12T11:44:48Z</time></trkpt><trkpt lat="44.33883552643287" lon="11.480001457188934"><ele>259.0</ele><time>2026-04-12T11:44:49Z</time></trkpt><trkpt lat="44.33891456595471" lon="11.480038283629534"><ele>259.0</ele><time>2026-04-12T11:44:50Z</time></trkpt><trkpt lat="44.338997902766316" lon="11.480051164244147"><ele>259.0</ele><time>2026-04-12T11:44:51Z</time></trkpt><trkpt lat="44.33908570409391" lon="11.480040188318602"><ele>261.2</ele><time>2026-04-12T11:44:51.999Z</time></trkpt><trkpt lat="44.33919532446342" lon="11.480019177419786"><ele>263.4</ele><time>2026-04-12T11:44:52.999Z</time></trkpt><trkpt lat="44.33929504726727" lon="11.479983512368161"><ele>265.6</ele><time>2026-04-12T11:44:53.999Z</time></trkpt><trkpt lat="44.339392927053545" lon="11.479935167732943"><ele>267.8</ele><time>2026-04-12T11:44:54.999Z</time></trkpt><trkpt lat="44.3394689698587" lon="11.47988787174478"><ele>270.0</ele><time>2026-04-12T11:44:55.999Z</time></trkpt><trkpt lat="44.33953423016214" lon="11.47981756238943"><ele>270.0</ele><time>2026-04-12T11:44:56.999Z</time></trkpt><trkpt lat="44.33959926189835" lon="11.479731476391482"><ele>270.0</ele><time>2026-04-12T11:44:57.999Z</time></trkpt><trkpt lat="44.33967460743272" lon="11.479633043303005"><ele>270.0</ele><time>2026-04-12T11:44:58.999Z</time></trkpt><trkpt lat="44.33977560388826" lon="11.479544033095252"><ele>270.0</ele><time>2026-04-12T11:44:59.999Z</time></trkpt><trkpt lat="44.33989485623125" lon="11.4794817303858"><ele>270.0</ele><time>2026-04-12T11:45:00.999Z</time></trkpt><trkpt lat="44.339990034839516" lon="11.479445310128243"><ele>271.6</ele><time>2026-04-12T11:45:01.999Z</time></trkpt><trkpt lat="44.34006339233583" lon="11.47941014944095"><ele>273.2</ele><time>2026-04-12T11:45:02.999Z</time></trkpt><trkpt lat="44.34014373552766" lon="11.479289671704922"><ele>274.8</ele><time>2026-04-12T11:45:04.999Z</time></trkpt><trkpt lat="44.340160330630496" lon="11.479177246120228"><ele>276.4</ele><time>2026-04-12T11:45:05.999Z</time></trkpt><trkpt lat="44.34017079602317" lon="11.479030310609504"><ele>278.0</ele><time>2026-04-12T11:45:06.999Z</time></trkpt><trkpt lat="44.34020728124442" lon="11.478888418823775"><ele>278.0</ele><time>2026-04-12T11:45:07.999Z</time></trkpt><trkpt lat="44.34025756010287" lon="11.478782588463275"><ele>278.0</ele><time>2026-04-12T11:45:08.999Z</time></trkpt><trkpt lat="44.340339325852284" lon="11.478696725621834"><ele>278.0</ele><time>2026-04-12T11:45:09.999Z</time></trkpt><trkpt lat="44.34042866245928" lon="11.478628927999694"><ele>278.0</ele><time>2026-04-12T11:45:10.999Z</time></trkpt><trkpt lat="44.340530102153444" lon="11.478609625204099"><ele>278.0</ele><time>2026-04-12T11:45:11.999Z</time></trkpt><trkpt lat="44.34062307274851" lon="11.47861299839351"><ele>281.0</ele><time>2026-04-12T11:45:12.999Z</time></trkpt><trkpt lat="44.34070824139216" lon="11.478635764966235"><ele>284.0</ele><time>2026-04-12T11:45:13.999Z</time></trkpt><trkpt lat="44.34078905365401" lon="11.478698267155213"><ele>287.0</ele><time>2026-04-12T11:45:14.999Z</time></trkpt><trkpt lat="44.34086864046815" lon="11.478772697736987"><ele>290.0</ele><time>2026-04-12T11:45:15.999Z</time></trkpt><trkpt lat="44.34092601111444" lon="11.478867613736417"><ele>293.0</ele><time>2026-04-12T11:45:16.999Z</time></trkpt><trkpt lat="44.34098121936157" lon="11.479018819911872"><ele>293.0</ele><time>2026-04-12T11:45:17.999Z</time></trkpt><trkpt lat="44.34104547792821" lon="11.47918693880902"><ele>293.0</ele><time>2026-04-12T11:45:18.999Z</time></trkpt><trkpt lat="44.34109672964509" lon="11.479332713102268"><ele>293.0</ele><time>2026-04-12T11:45:19.999Z</time></trkpt><trkpt lat="44.34114326361511" lon="11.479434932816785"><ele>293.0</ele><time>2026-04-12T11:45:20.999Z</time></trkpt><trkpt lat="44.341195948123925" lon="11.479514141797079"><ele>293.0</ele><time>2026-04-12T11:45:21.999Z</time></trkpt><trkpt lat="44.34126784013462" lon="11.479577396842041"><ele>292.5</ele><time>2026-04-12T11:45:22.999Z</time></trkpt><trkpt lat="44.341350825624765" lon="11.479612689280213"><ele>292.0</ele><time>2026-04-12T11:45:23.999Z</time></trkpt><trkpt lat="44.34145402779063" lon="11.479609052843282"><ele>291.5</ele><time>2026-04-12T11:45:24.999Z</time></trkpt><trkpt lat="44.34160057973504" lon="11.47959838188616"><ele>291.0</ele><time>2026-04-12T11:45:25.999Z</time></trkpt><trkpt lat="44.341715977496676" lon="11.479573624208257"><ele>292.75</ele><time>2026-04-12T11:45:26.999Z</time></trkpt><trkpt lat="44.34182098224847" lon="11.479552951201367"><ele>294.5</ele><time>2026-04-12T11:45:27.999Z</time></trkpt><trkpt lat="44.3419147868343" lon="11.479582242694985"><ele>296.25</ele><time>2026-04-12T11:45:28.999Z</time></trkpt><trkpt lat="44.34202356951121" lon="11.479671124125101"><ele>298.0</ele><time>2026-04-12T11:45:29.999Z</time></trkpt><trkpt lat="44.34214145603167" lon="11.47980168507105"><ele>301.0</ele><time>2026-04-12T11:45:30.999Z</time></trkpt><trkpt lat="44.34226008229109" lon="11.479907605068217"><ele>304.0</ele><time>2026-04-12T11:45:31.999Z</time></trkpt><trkpt lat="44.34239401103374" lon="11.479983113544721"><ele>307.0</ele><time>2026-04-12T11:45:32.999Z</time></trkpt><trkpt lat="44.34253379363389" lon="11.480049142851946"><ele>310.0</ele><time>2026-04-12T11:45:33.999Z</time></trkpt><trkpt lat="44.34262956284339" lon="11.480115182719214"><ele>310.0</ele><time>2026-04-12T11:45:34.999Z</time></trkpt><trkpt lat="44.3427161196511" lon="11.480194571488303"><ele>310.0</ele><time>2026-04-12T11:45:35.999Z</time></trkpt><trkpt lat="44.34278523941916" lon="11.480313863635375"><ele>310.0</ele><time>2026-04-12T11:45:36.999Z</time></trkpt><trkpt lat="44.34285042228691" lon="11.480449671627955"><ele>310.0</ele><time>2026-04-12T11:45:37.999Z</time></trkpt><trkpt lat="44.34291365442888" lon="11.48056183663425"><ele>310.0</ele><time>2026-04-12T11:45:38.999Z</time></trkpt><trkpt lat="44.34298091597766" lon="11.480668010065541"><ele>314.0</ele><time>2026-04-12T11:45:39.999Z</time></trkpt><trkpt lat="44.34309707173137" lon="11.480756406037974"><ele>318.0</ele><time>2026-04-12T11:45:40.999Z</time></trkpt><trkpt lat="44.34321650428884" lon="11.48085997688489"><ele>322.0</ele><time>2026-04-12T11:45:41.999Z</time></trkpt><trkpt lat="44.34330846856865" lon="11.480967725620594"><ele>326.0</ele><time>2026-04-12T11:45:42.999Z</time></trkpt><trkpt lat="44.34339227730424" lon="11.481122699798759"><ele>326.0</ele><time>2026-04-12T11:45:43.999Z</time></trkpt><trkpt lat="44.3434562769033" lon="11.481261794810067"><ele>326.0</ele><time>2026-04-12T11:45:44.999Z</time></trkpt><trkpt lat="44.34351024984517" lon="11.481366883187901"><ele>326.0</ele><time>2026-04-12T11:45:45.999Z</time></trkpt><trkpt lat="44.34356389539744" lon="11.481425632888634"><ele>326.0</ele><time>2026-04-12T11:45:46.998Z</time></trkpt><trkpt lat="44.343633878577975" lon="11.481482791577372"><ele>326.0</ele><time>2026-04-12T11:45:47.998Z</time></trkpt><trkpt lat="44.34373298955665" lon="11.481524129279368"><ele>326.25</ele><time>2026-04-12T11:45:48.998Z</time></trkpt><trkpt lat="44.343864631666996" lon="11.481558708971296"><ele>326.5</ele><time>2026-04-12T11:45:49.998Z</time></trkpt><trkpt lat="44.34398401120327" lon="11.481595888897903"><ele>326.75</ele><time>2026-04-12T11:45:50.998Z</time></trkpt><trkpt lat="44.344075781585715" lon="11.481662155513137"><ele>327.0</ele><time>2026-04-12T11:45:51.998Z</time></trkpt><trkpt lat="44.344189223645465" lon="11.481723996512939"><ele>329.0</ele><time>2026-04-12T11:45:52.998Z</time></trkpt><trkpt lat="44.34428838102695" lon="11.481763750764008"><ele>331.0</ele><time>2026-04-12T11:45:53.998Z</time></trkpt><trkpt lat="44.34434686693825" lon="11.481858413962401"><ele>333.0</ele><time>2026-04-12T11:45:54.998Z</time></trkpt><trkpt lat="44.3444141835759" lon="11.48193443099475"><ele>335.0</ele><time>2026-04-12T11:45:55.998Z</time></trkpt><trkpt lat="44.344491389338344" lon="11.48203634679325"><ele>337.0</ele><time>2026-04-12T11:45:56.998Z</time></trkpt><trkpt lat="44.34457255239194" lon="11.482118121635345"><ele>337.0</ele><time>2026-04-12T11:45:57.998Z</time></trkpt><trkpt lat="44.34463371534925" lon="11.482176439821261"><ele>337.0</ele><time>2026-04-12T11:45:58.998Z</time></trkpt><trkpt lat="44.34470175259551" lon="11.482205889905165"><ele>337.0</ele><time>2026-04-12T11:45:59.998Z</time></trkpt><trkpt lat="44.34476468637371" lon="11.482268935243887"><ele>337.0</ele><time>2026-04-12T11:46:00.998Z</time></trkpt><trkpt lat="44.34483607371858" lon="11.482312063905137"><ele>337.0</ele><time>2026-04-12T11:46:01.998Z</time></trkpt><trkpt lat="44.34490838826337" lon="11.482328700986205"><ele>337.0</ele><time>2026-04-12T11:46:02.998Z</time></trkpt><trkpt lat="44.34497943017429" lon="11.482372913755418"><ele>339.16666666666663</ele><time>2026-04-12T11:46:03.998Z</time></trkpt><trkpt lat="44.34511590437697" lon="11.482399630263627"><ele>341.3333333333333</ele><time>2026-04-12T11:46:05.998Z</time></trkpt><trkpt lat="44.34519566698449" lon="11.482412894866657"><ele>343.5</ele><time>2026-04-12T11:46:06.998Z</time></trkpt><trkpt lat="44.3452602879999" lon="11.48241777151929"><ele>345.6666666666667</ele><time>2026-04-12T11:46:07.998Z</time></trkpt><trkpt lat="44.34532135540539" lon="11.48239014354315"><ele>347.83333333333337</ele><time>2026-04-12T11:46:08.998Z</time></trkpt><trkpt lat="44.34537464935411" lon="11.482319097252049"><ele>350.0</ele><time>2026-04-12T11:46:09.998Z</time></trkpt><trkpt lat="44.34539532419161" lon="11.48213458144125"><ele>351.6666666666667</ele><time>2026-04-12T11:46:11.998Z</time></trkpt><trkpt lat="44.34536916159125" lon="11.482036379493636"><ele>353.33333333333337</ele><time>2026-04-12T11:46:12.998Z</time></trkpt><trkpt lat="44.34533124901006" lon="11.481958068128588"><ele>355.0</ele><time>2026-04-12T11:46:13.998Z</time></trkpt><trkpt lat="44.345263707191" lon="11.481891289433666"><ele>356.6666666666667</ele><time>2026-04-12T11:46:14.998Z</time></trkpt><trkpt lat="44.34518589282522" lon="11.481820630089604"><ele>358.3333333333333</ele><time>2026-04-12T11:46:15.998Z</time></trkpt><trkpt lat="44.345110579598256" lon="11.481776385829193"><ele>360.0</ele><time>2026-04-12T11:46:16.998Z</time></trkpt><trkpt lat="44.34505390457831" lon="11.481727011043972"><ele>360.0</ele><time>2026-04-12T11:46:17.998Z</time></trkpt><trkpt lat="44.34497681948005" lon="11.481608128744693"><ele>360.0</ele><time>2026-04-12T11:46:19.998Z</time></trkpt><trkpt lat="44.34494849740238" lon="11.481509888096637"><ele>360.0</ele><time>2026-04-12T11:46:20.998Z</time></trkpt><trkpt lat="44.34494237837459" lon="11.481419583502209"><ele>360.0</ele><time>2026-04-12T11:46:21.998Z</time></trkpt><trkpt lat="44.34495306877652" lon="11.481328123550288"><ele>360.0</ele><time>2026-04-12T11:46:22.998Z</time></trkpt><trkpt lat="44.34497988692718" lon="11.481246123440798"><ele>360.0</ele><time>2026-04-12T11:46:23.998Z</time></trkpt><trkpt lat="44.34502874776173" lon="11.48116586091715"><ele>362.25</ele><time>2026-04-12T11:46:24.998Z</time></trkpt><trkpt lat="44.345092899323774" lon="11.48104302684378"><ele>364.5</ele><time>2026-04-12T11:46:25.998Z</time></trkpt><trkpt lat="44.34514265605975" lon="11.480890223766469"><ele>366.75</ele><time>2026-04-12T11:46:26.998Z</time></trkpt><trkpt lat="44.345212478836906" lon="11.480707395395651"><ele>369.0</ele><time>2026-04-12T11:46:27.998Z</time></trkpt><trkpt lat="44.3453121167398" lon="11.48055087985463"><ele>368.6</ele><time>2026-04-12T11:46:28.998Z</time></trkpt><trkpt lat="44.34536755850206" lon="11.480378864558649"><ele>368.2</ele><time>2026-04-12T11:46:30Z</time></trkpt><trkpt lat="44.34542775887951" lon="11.480255203581544"><ele>367.8</ele><time>2026-04-12T11:46:31Z</time></trkpt><trkpt lat="44.345478829297186" lon="11.480141412126684"><ele>367.40000000000003</ele><time>2026-04-12T11:46:32Z</time></trkpt><trkpt lat="44.34552920012306" lon="11.480023752844799"><ele>367.0</ele><time>2026-04-12T11:46:33Z</time></trkpt><trkpt lat="44.34556216062943" lon="11.479932440922896"><ele>371.6</ele><time>2026-04-12T11:46:34Z</time></trkpt><trkpt lat="44.34568819474734" lon="11.479840576433535"><ele>376.20000000000005</ele><time>2026-04-12T11:46:36Z</time></trkpt><trkpt lat="44.34577925084979" lon="11.479817220719987"><ele>380.8</ele><time>2026-04-12T11:46:37Z</time></trkpt><trkpt lat="44.345885171933254" lon="11.479801087631126"><ele>385.4</ele><time>2026-04-12T11:46:38Z</time></trkpt><trkpt lat="44.34599038108441" lon="11.47980156868841"><ele>390.0</ele><time>2026-04-12T11:46:39Z</time></trkpt><trkpt lat="44.34606926378098" lon="11.479820375704898"><ele>390.0</ele><time>2026-04-12T11:46:40Z</time></trkpt><trkpt lat="44.34615582036279" lon="11.479867755581218"><ele>390.0</ele><time>2026-04-12T11:46:41Z</time></trkpt><trkpt lat="44.34627964971486" lon="11.479949359295539"><ele>390.0</ele><time>2026-04-12T11:46:42Z</time></trkpt><trkpt lat="44.34640340142735" lon="11.480049109741834"><ele>390.0</ele><time>2026-04-12T11:46:43Z</time></trkpt><trkpt lat="44.34649251378796" lon="11.480127664188371"><ele>389.8</ele><time>2026-04-12T11:46:44Z</time></trkpt><trkpt lat="44.34657672335451" lon="11.480198367069482"><ele>389.6</ele><time>2026-04-12T11:46:45Z</time></trkpt><trkpt lat="44.346690109587044" lon="11.480260307758803"><ele>389.4</ele><time>2026-04-12T11:46:47Z</time></trkpt><trkpt lat="44.346769241343196" lon="11.48026908245835"><ele>389.2</ele><time>2026-04-12T11:46:48Z</time></trkpt><trkpt lat="44.34685219946892" lon="11.480246863572845"><ele>389.0</ele><time>2026-04-12T11:46:49Z</time></trkpt><trkpt lat="44.346932372143264" lon="11.4801420769115"><ele>389.0</ele><time>2026-04-12T11:46:50Z</time></trkpt><trkpt lat="44.34702096943186" lon="11.48003211251696"><ele>389.0</ele><time>2026-04-12T11:46:51Z</time></trkpt><trkpt lat="44.34709981531593" lon="11.479897810556059"><ele>389.0</ele><time>2026-04-12T11:46:52Z</time></trkpt><trkpt lat="44.34716821873797" lon="11.479746787104023"><ele>389.0</ele><time>2026-04-12T11:46:53Z</time></trkpt><trkpt lat="44.347212123960915" lon="11.479610261375662"><ele>391.6</ele><time>2026-04-12T11:46:54Z</time></trkpt><trkpt lat="44.34726417057211" lon="11.479509159184621"><ele>394.2</ele><time>2026-04-12T11:46:54.999Z</time></trkpt><trkpt lat="44.34729951857393" lon="11.479398218453316"><ele>396.8</ele><time>2026-04-12T11:46:55.999Z</time></trkpt><trkpt lat="44.34737950732203" lon="11.479247847426524"><ele>399.40000000000003</ele><time>2026-04-12T11:46:57.999Z</time></trkpt><trkpt lat="44.347453511863826" lon="11.479151103562769"><ele>402.0</ele><time>2026-04-12T11:46:58.999Z</time></trkpt><trkpt lat="44.34755381761782" lon="11.47902198070841"><ele>402.0</ele><time>2026-04-12T11:46:59.999Z</time></trkpt><trkpt lat="44.34764659663233" lon="11.478910282778367"><ele>402.0</ele><time>2026-04-12T11:47:00.999Z</time></trkpt><trkpt lat="44.347722198777625" lon="11.478807948598739"><ele>402.0</ele><time>2026-04-12T11:47:01.999Z</time></trkpt><trkpt lat="44.347786471374434" lon="11.478727253311325"><ele>402.0</ele><time>2026-04-12T11:47:02.999Z</time></trkpt><trkpt lat="44.34783224088505" lon="11.478651088382756"><ele>402.0</ele><time>2026-04-12T11:47:03.999Z</time></trkpt><trkpt lat="44.34786250892194" lon="11.478556552004678"><ele>402.20000000000005</ele><time>2026-04-12T11:47:04.999Z</time></trkpt><trkpt lat="44.34788700914255" lon="11.478404757150392"><ele>402.4</ele><time>2026-04-12T11:47:05.999Z</time></trkpt><trkpt lat="44.34788948216403" lon="11.478274287721158"><ele>402.6</ele><time>2026-04-12T11:47:06.999Z</time></trkpt><trkpt lat="44.34787007410804" lon="11.478150002580229"><ele>402.79999999999995</ele><time>2026-04-12T11:47:07.999Z</time></trkpt><trkpt lat="44.34782453423875" lon="11.478004871997857"><ele>403.0</ele><time>2026-04-12T11:47:08.999Z</time></trkpt><trkpt lat="44.34779357451542" lon="11.477856398912339"><ele>404.00000000000006</ele><time>2026-04-12T11:47:09.999Z</time></trkpt><trkpt lat="44.34776363766164" lon="11.477754287170622"><ele>405.0</ele><time>2026-04-12T11:47:10.999Z</time></trkpt><trkpt lat="44.34773362698601" lon="11.477621276182855"><ele>406.0</ele><time>2026-04-12T11:47:12.999Z</time></trkpt><trkpt lat="44.347753801949786" lon="11.477512501791029"><ele>407.0</ele><time>2026-04-12T11:47:14.999Z</time></trkpt><trkpt lat="44.34785928237557" lon="11.477483476044826"><ele>408.00000000000006</ele><time>2026-04-12T11:47:16.999Z</time></trkpt><trkpt lat="44.34790432313732" lon="11.477569692716354"><ele>409.0</ele><time>2026-04-12T11:47:17.999Z</time></trkpt><trkpt lat="44.347911759409634" lon="11.47769434144096"><ele>409.0</ele><time>2026-04-12T11:47:18.999Z</time></trkpt><trkpt lat="44.34795418477927" lon="11.47778179623767"><ele>409.0</ele><time>2026-04-12T11:47:19.999Z</time></trkpt><trkpt lat="44.34801008092072" lon="11.47791430543563"><ele>409.0</ele><time>2026-04-12T11:47:21.999Z</time></trkpt><trkpt lat="44.34807845781117" lon="11.477952289906364"><ele>409.0</ele><time>2026-04-12T11:47:22.999Z</time></trkpt><trkpt lat="44.348163593702076" lon="11.477980714689311"><ele>409.0</ele><time>2026-04-12T11:47:23.999Z</time></trkpt><trkpt lat="44.348286975434235" lon="11.47799538209231"><ele>411.79999999999995</ele><time>2026-04-12T11:47:24.999Z</time></trkpt><trkpt lat="44.3484093721332" lon="11.4779952240368"><ele>414.59999999999997</ele><time>2026-04-12T11:47:25.999Z</time></trkpt><trkpt lat="44.34850610814263" lon="11.477990162858717"><ele>417.4</ele><time>2026-04-12T11:47:26.999Z</time></trkpt><trkpt lat="44.348591441446416" lon="11.478035051759678"><ele>420.2</ele><time>2026-04-12T11:47:28.999Z</time></trkpt><trkpt lat="44.34864753865823" lon="11.47810232982211"><ele>423.0</ele><time>2026-04-12T11:47:31.999Z</time></trkpt><trkpt lat="44.34860272371727" lon="11.478211913267113"><ele>423.0</ele><time>2026-04-12T11:47:33.999Z</time></trkpt><trkpt lat="44.34857010766334" lon="11.4783164894044"><ele>423.0</ele><time>2026-04-12T11:47:34.999Z</time></trkpt><trkpt lat="44.34853699442719" lon="11.478441131051525"><ele>423.0</ele><time>2026-04-12T11:47:35.999Z</time></trkpt><trkpt lat="44.348503695481014" lon="11.478581933588972"><ele>423.0</ele><time>2026-04-12T11:47:36.999Z</time></trkpt><trkpt lat="44.348486734910715" lon="11.478766631674105"><ele>423.0</ele><time>2026-04-12T11:47:37.999Z</time></trkpt><trkpt lat="44.34846385484437" lon="11.478965489197224"><ele>423.66666666666663</ele><time>2026-04-12T11:47:38.999Z</time></trkpt><trkpt lat="44.348459086565576" lon="11.479202090568972"><ele>424.3333333333333</ele><time>2026-04-12T11:47:39.999Z</time></trkpt><trkpt lat="44.348414466700376" lon="11.479422392943654"><ele>425.0</ele><time>2026-04-12T11:47:40.999Z</time></trkpt><trkpt lat="44.34837396073922" lon="11.479660083537214"><ele>427.66666666666663</ele><time>2026-04-12T11:47:41.999Z</time></trkpt><trkpt lat="44.348354199568234" lon="11.479892496012836"><ele>430.33333333333337</ele><time>2026-04-12T11:47:42.999Z</time></trkpt><trkpt lat="44.34836399547751" lon="11.480156375220623"><ele>433.0</ele><time>2026-04-12T11:47:43.999Z</time></trkpt><trkpt lat="44.348372499443045" lon="11.48045984980665"><ele>434.75</ele><time>2026-04-12T11:47:44.999Z</time></trkpt><trkpt lat="44.348355679885884" lon="11.480695154234809"><ele>436.5</ele><time>2026-04-12T11:47:45.999Z</time></trkpt><trkpt lat="44.34832701628499" lon="11.48088924871982"><ele>438.25</ele><time>2026-04-12T11:47:46.999Z</time></trkpt><trkpt lat="44.34830418142486" lon="11.481049874043965"><ele>440.0</ele><time>2026-04-12T11:47:47.999Z</time></trkpt><trkpt lat="44.34829413932291" lon="11.481192814553149"><ele>444.0</ele><time>2026-04-12T11:47:48.999Z</time></trkpt><trkpt lat="44.34830920022806" lon="11.481316947134536"><ele>448.0</ele><time>2026-04-12T11:47:49.998Z</time></trkpt><trkpt lat="44.34835102433466" lon="11.481439808575937"><ele>452.0</ele><time>2026-04-12T11:47:50.998Z</time></trkpt><trkpt lat="44.348438097623195" lon="11.481565328186942"><ele>456.0</ele><time>2026-04-12T11:47:51.998Z</time></trkpt><trkpt lat="44.34854126169401" lon="11.481710005708287"><ele>456.0</ele><time>2026-04-12T11:47:52.998Z</time></trkpt><trkpt lat="44.34866822500524" lon="11.481896248413314"><ele>456.0</ele><time>2026-04-12T11:47:53.998Z</time></trkpt><trkpt lat="44.34877264742028" lon="11.482067277435332"><ele>456.0</ele><time>2026-04-12T11:47:54.998Z</time></trkpt><trkpt lat="44.34884678010056" lon="11.4822054829586"><ele>461.0</ele><time>2026-04-12T11:47:55.998Z</time></trkpt><trkpt lat="44.34891309098772" lon="11.482329752173456"><ele>466.0</ele><time>2026-04-12T11:47:56.998Z</time></trkpt><trkpt lat="44.34898199377009" lon="11.482444854602932"><ele>471.0</ele><time>2026-04-12T11:47:57.998Z</time></trkpt><trkpt lat="44.34905947533175" lon="11.482541324099275"><ele>476.0</ele><time>2026-04-12T11:47:58.998Z</time></trkpt><trkpt lat="44.34912554580985" lon="11.482624375590666"><ele>481.0</ele><time>2026-04-12T11:47:59.998Z</time></trkpt><trkpt lat="44.34916088173532" lon="11.482700279632658"><ele>481.0</ele><time>2026-04-12T11:48:00.998Z</time></trkpt><trkpt lat="44.349165380727214" lon="11.482795577174631"><ele>481.0</ele><time>2026-04-12T11:48:01.998Z</time></trkpt><trkpt lat="44.349107606865154" lon="11.482882289377052"><ele>481.0</ele><time>2026-04-12T11:48:02.998Z</time></trkpt><trkpt lat="44.34900191150756" lon="11.482929189717327"><ele>481.0</ele><time>2026-04-12T11:48:03.998Z</time></trkpt><trkpt lat="44.34887647223417" lon="11.483006610115599"><ele>481.0</ele><time>2026-04-12T11:48:04.998Z</time></trkpt><trkpt lat="44.34870912190026" lon="11.483106259620307"><ele>479.4</ele><time>2026-04-12T11:48:05.998Z</time></trkpt><trkpt lat="44.34857484038593" lon="11.483198178800864"><ele>477.8</ele><time>2026-04-12T11:48:06.998Z</time></trkpt><trkpt lat="44.34847889819961" lon="11.48325893951881"><ele>476.19999999999993</ele><time>2026-04-12T11:48:07.998Z</time></trkpt><trkpt lat="44.348424525540196" lon="11.4833035686316"><ele>474.59999999999997</ele><time>2026-04-12T11:48:08.998Z</time></trkpt><trkpt lat="44.34841570989261" lon="11.48344959129449"><ele>473.0</ele><time>2026-04-12T11:48:10.998Z</time></trkpt><trkpt lat="44.348512794942955" lon="11.48353702123787"><ele>473.0</ele><time>2026-04-12T11:48:12.998Z</time></trkpt><trkpt lat="44.34860191973466" lon="11.483563604104853"><ele>473.0</ele><time>2026-04-12T11:48:13.998Z</time></trkpt><trkpt lat="44.348743506100824" lon="11.483588600676393"><ele>473.0</ele><time>2026-04-12T11:48:14.998Z</time></trkpt><trkpt lat="44.348920437286345" lon="11.483634329012935"><ele>473.0</ele><time>2026-04-12T11:48:15.998Z</time></trkpt><trkpt lat="44.34904866661602" lon="11.483664671407393"><ele>477.2</ele><time>2026-04-12T11:48:16.998Z</time></trkpt><trkpt lat="44.349133776835046" lon="11.483665512989647"><ele>481.4</ele><time>2026-04-12T11:48:17.998Z</time></trkpt><trkpt lat="44.34922768102919" lon="11.483611325680199"><ele>485.59999999999997</ele><time>2026-04-12T11:48:18.998Z</time></trkpt><trkpt lat="44.34932673414611" lon="11.48351266406413"><ele>489.79999999999995</ele><time>2026-04-12T11:48:19.998Z</time></trkpt><trkpt lat="44.34941089553458" lon="11.483365576955944"><ele>494.0</ele><time>2026-04-12T11:48:20.998Z</time></trkpt><trkpt lat="44.34949893035493" lon="11.483174489468462"><ele>494.0</ele><time>2026-04-12T11:48:21.998Z</time></trkpt><trkpt lat="44.34959022876687" lon="11.48294476333713"><ele>494.0</ele><time>2026-04-12T11:48:22.998Z</time></trkpt><trkpt lat="44.34966089075754" lon="11.482766792238058"><ele>494.0</ele><time>2026-04-12T11:48:23.998Z</time></trkpt><trkpt lat="44.34971251791012" lon="11.482641957764884"><ele>494.0</ele><time>2026-04-12T11:48:24.998Z</time></trkpt><trkpt lat="44.349737545721084" lon="11.482506705388605"><ele>495.66666666666663</ele><time>2026-04-12T11:48:25.998Z</time></trkpt><trkpt lat="44.349736518381775" lon="11.482281520007223"><ele>497.33333333333337</ele><time>2026-04-12T11:48:26.998Z</time></trkpt><trkpt lat="44.349719341400345" lon="11.482034339847702"><ele>499.0</ele><time>2026-04-12T11:48:27.998Z</time></trkpt><trkpt lat="44.34972427039763" lon="11.481856337658913"><ele>499.0</ele><time>2026-04-12T11:48:28.998Z</time></trkpt><trkpt lat="44.34978555990214" lon="11.481760448506357"><ele>499.0</ele><time>2026-04-12T11:48:29.998Z</time></trkpt><trkpt lat="44.349847429842235" lon="11.481649187748632"><ele>499.0</ele><time>2026-04-12T11:48:30.998Z</time></trkpt><trkpt lat="44.34996727928739" lon="11.481517287508488"><ele>499.0</ele><time>2026-04-12T11:48:31.998Z</time></trkpt><trkpt lat="44.35009926910921" lon="11.481448403157966"><ele>499.0</ele><time>2026-04-12T11:48:32.998Z</time></trkpt><trkpt lat="44.350207783065" lon="11.481406909928156"><ele>499.0</ele><time>2026-04-12T11:48:33.998Z</time></trkpt><trkpt lat="44.3503282874441" lon="11.481398700098158"><ele>499.0</ele><time>2026-04-12T11:48:35Z</time></trkpt><trkpt lat="44.350493106334724" lon="11.481412100095561"><ele>499.0</ele><time>2026-04-12T11:48:36Z</time></trkpt><trkpt lat="44.350654849269155" lon="11.481390801299693"><ele>503.5</ele><time>2026-04-12T11:48:37Z</time></trkpt><trkpt lat="44.350789978185155" lon="11.481382593930388"><ele>508.0</ele><time>2026-04-12T11:48:38Z</time></trkpt><trkpt lat="44.350905820187016" lon="11.481371502515708"><ele>512.5</ele><time>2026-04-12T11:48:39Z</time></trkpt><trkpt lat="44.35101834044262" lon="11.481428710313677"><ele>517.0</ele><time>2026-04-12T11:48:40Z</time></trkpt><trkpt lat="44.35118281476839" lon="11.48147345519714"><ele>517.0</ele><time>2026-04-12T11:48:41Z</time></trkpt><trkpt lat="44.351348013857084" lon="11.481518521903462"><ele>517.0</ele><time>2026-04-12T11:48:42Z</time></trkpt><trkpt lat="44.35148818097126" lon="11.48152216468828"><ele>517.0</ele><time>2026-04-12T11:48:43Z</time></trkpt><trkpt lat="44.35160721825727" lon="11.48149872074007"><ele>517.0</ele><time>2026-04-12T11:48:44Z</time></trkpt><trkpt lat="44.351712283064195" lon="11.481483890027615"><ele>517.8000000000001</ele><time>2026-04-12T11:48:45Z</time></trkpt><trkpt lat="44.351806333280344" lon="11.481490200951239"><ele>518.6</ele><time>2026-04-12T11:48:46Z</time></trkpt><trkpt lat="44.3518927637492" lon="11.481542412833464"><ele>519.4000000000001</ele><time>2026-04-12T11:48:47Z</time></trkpt><trkpt lat="44.35197199358004" lon="11.481639626935428"><ele>520.2</ele><time>2026-04-12T11:48:48Z</time></trkpt><trkpt lat="44.35202540920423" lon="11.48177872197666"><ele>521.0</ele><time>2026-04-12T11:48:49Z</time></trkpt><trkpt lat="44.352032870762336" lon="11.481954125772273"><ele>528.6666666666666</ele><time>2026-04-12T11:48:50Z</time></trkpt><trkpt lat="44.352042253333614" lon="11.48215364594742"><ele>536.3333333333334</ele><time>2026-04-12T11:48:51Z</time></trkpt><trkpt lat="44.352020279640115" lon="11.482396903395319"><ele>544.0</ele><time>2026-04-12T11:48:52Z</time></trkpt><trkpt lat="44.35197946323619" lon="11.482704065074582"><ele>546.0</ele><time>2026-04-12T11:48:53Z</time></trkpt><trkpt lat="44.35194253631272" lon="11.482978922404357"><ele>548.0</ele><time>2026-04-12T11:48:54Z</time></trkpt><trkpt lat="44.351908237212804" lon="11.483192537620635"><ele>550.0</ele><time>2026-04-12T11:48:55Z</time></trkpt><trkpt lat="44.35187279867987" lon="11.483388470201055"><ele>550.0</ele><time>2026-04-12T11:48:56Z</time></trkpt><trkpt lat="44.351853064682714" lon="11.483573085663865"><ele>550.0</ele><time>2026-04-12T11:48:57Z</time></trkpt><trkpt lat="44.35182414597951" lon="11.483737432567212"><ele>550.0</ele><time>2026-04-12T11:48:57.999Z</time></trkpt><trkpt lat="44.35180138912136" lon="11.48388660349976"><ele>550.0</ele><time>2026-04-12T11:48:58.999Z</time></trkpt><trkpt lat="44.35178720507544" lon="11.48403453199705"><ele>549.6666666666667</ele><time>2026-04-12T11:48:59.999Z</time></trkpt><trkpt lat="44.35178152625026" lon="11.48416321117654"><ele>549.3333333333334</ele><time>2026-04-12T11:49:00.999Z</time></trkpt><trkpt lat="44.351772680676056" lon="11.484284575503162"><ele>549.0</ele><time>2026-04-12T11:49:01.999Z</time></trkpt><trkpt lat="44.35180000553118" lon="11.484413058212539"><ele>548.6666666666666</ele><time>2026-04-12T11:49:02.999Z</time></trkpt><trkpt lat="44.35180467838118" lon="11.484533062883067"><ele>548.3333333333333</ele><time>2026-04-12T11:49:03.999Z</time></trkpt><trkpt lat="44.35184128611907" lon="11.484614758133675"><ele>548.0</ele><time>2026-04-12T11:49:04.999Z</time></trkpt><trkpt lat="44.35193482618631" lon="11.484724322985386"><ele>547.75</ele><time>2026-04-12T11:49:06.999Z</time></trkpt><trkpt lat="44.3520240072555" lon="11.484725855987625"><ele>547.5</ele><time>2026-04-12T11:49:07.999Z</time></trkpt><trkpt lat="44.35218430403891" lon="11.484674871022417"><ele>547.25</ele><time>2026-04-12T11:49:08.999Z</time></trkpt><trkpt lat="44.352367722050126" lon="11.484610722762957"><ele>547.0</ele><time>2026-04-12T11:49:09.999Z</time></trkpt><trkpt lat="44.35251745978022" lon="11.484559845137149"><ele>542.25</ele><time>2026-04-12T11:49:10.999Z</time></trkpt><trkpt lat="44.352644987610994" lon="11.484483300970695"><ele>537.5</ele><time>2026-04-12T11:49:11.999Z</time></trkpt><trkpt lat="44.35277370158773" lon="11.484367361177764"><ele>532.75</ele><time>2026-04-12T11:49:12.999Z</time></trkpt><trkpt lat="44.35288245811816" lon="11.484248030751827"><ele>528.0</ele><time>2026-04-12T11:49:13.999Z</time></trkpt><trkpt lat="44.352992426635545" lon="11.484178326352213"><ele>529.8</ele><time>2026-04-12T11:49:14.999Z</time></trkpt><trkpt lat="44.35308721880937" lon="11.484107232163263"><ele>531.5999999999999</ele><time>2026-04-12T11:49:15.999Z</time></trkpt><trkpt lat="44.353172574932444" lon="11.484044392033647"><ele>533.4000000000001</ele><time>2026-04-12T11:49:16.999Z</time></trkpt><trkpt lat="44.353266131440066" lon="11.484030598726614"><ele>535.2</ele><time>2026-04-12T11:49:17.999Z</time></trkpt><trkpt lat="44.353384791280696" lon="11.484065347515651"><ele>537.0</ele><time>2026-04-12T11:49:18.999Z</time></trkpt><trkpt lat="44.35353695815159" lon="11.4841225523397"><ele>537.0</ele><time>2026-04-12T11:49:19.999Z</time></trkpt><trkpt lat="44.35366571587021" lon="11.48418457027321"><ele>537.0</ele><time>2026-04-12T11:49:20.999Z</time></trkpt><trkpt lat="44.353772882133725" lon="11.484224204504038"><ele>537.0</ele><time>2026-04-12T11:49:21.999Z</time></trkpt><trkpt lat="44.3538506166361" lon="11.484279012015074"><ele>537.0</ele><time>2026-04-12T11:49:22.999Z</time></trkpt><trkpt lat="44.35394319728132" lon="11.484364867233653"><ele>537.0</ele><time>2026-04-12T11:49:24.999Z</time></trkpt><trkpt lat="44.35404372855728" lon="11.484431785648486"><ele>537.0</ele><time>2026-04-12T11:49:26.999Z</time></trkpt><trkpt lat="44.35415637864314" lon="11.484504218254214"><ele>537.0</ele><time>2026-04-12T11:49:28.999Z</time></trkpt><trkpt lat="44.35420582793701" lon="11.484563175991552"><ele>537.0</ele><time>2026-04-12T11:49:29.999Z</time></trkpt><trkpt lat="44.354248900115884" lon="11.484628855463484"><ele>537.0</ele><time>2026-04-12T11:49:30.999Z</time></trkpt><trkpt lat="44.35430142248096" lon="11.484702720592017"><ele>537.0</ele><time>2026-04-12T11:49:31.999Z</time></trkpt><trkpt lat="44.35435261220019" lon="11.484788514569768"><ele>537.0</ele><time>2026-04-12T11:49:32.999Z</time></trkpt><trkpt lat="44.354402236926774" lon="11.484873631635331"><ele>538.3333333333334</ele><time>2026-04-12T11:49:33.999Z</time></trkpt><trkpt lat="44.35445350324924" lon="11.484969354581393"><ele>539.6666666666666</ele><time>2026-04-12T11:49:34.999Z</time></trkpt><trkpt lat="44.35450561336519" lon="11.485054324016904"><ele>541.0</ele><time>2026-04-12T11:49:35.999Z</time></trkpt><trkpt lat="44.35455399319417" lon="11.485136319875998"><ele>542.3333333333333</ele><time>2026-04-12T11:49:36.999Z</time></trkpt><trkpt lat="44.354608133217866" lon="11.485217262556779"><ele>543.6666666666666</ele><time>2026-04-12T11:49:37.999Z</time></trkpt><trkpt lat="44.35466090083858" lon="11.485287897387916"><ele>545.0</ele><time>2026-04-12T11:49:38.999Z</time></trkpt><trkpt lat="44.354717760165464" lon="11.485351329482706"><ele>542.3333333333333</ele><time>2026-04-12T11:49:39.999Z</time></trkpt><trkpt lat="44.35477498484023" lon="11.485409826394392"><ele>539.6666666666666</ele><time>2026-04-12T11:49:40.999Z</time></trkpt><trkpt lat="44.354833330024576" lon="11.485467085127299"><ele>537.0</ele><time>2026-04-12T11:49:41.999Z</time></trkpt><trkpt lat="44.35488665009497" lon="11.485519082497655"><ele>534.3333333333334</ele><time>2026-04-12T11:49:42.999Z</time></trkpt><trkpt lat="44.35494119357879" lon="11.48556948436503"><ele>531.6666666666667</ele><time>2026-04-12T11:49:43.999Z</time></trkpt><trkpt lat="44.35503594422484" lon="11.48567805015459"><ele>529.0</ele><time>2026-04-12T11:49:45.999Z</time></trkpt><trkpt lat="44.355124534493804" lon="11.485800559308684"><ele>529.0</ele><time>2026-04-12T11:49:47.999Z</time></trkpt><trkpt lat="44.355206020138006" lon="11.485933668424602"><ele>529.0</ele><time>2026-04-12T11:49:49.999Z</time></trkpt><trkpt lat="44.355285103178566" lon="11.486059621412904"><ele>529.0</ele><time>2026-04-12T11:49:51.998Z</time></trkpt><trkpt lat="44.35537989643243" lon="11.48616855748086"><ele>529.0</ele><time>2026-04-12T11:49:53.998Z</time></trkpt><trkpt lat="44.35548695069616" lon="11.486244912184263"><ele>526.1666666666667</ele><time>2026-04-12T11:49:55.998Z</time></trkpt><trkpt lat="44.35561210903542" lon="11.486255418791764"><ele>523.3333333333334</ele><time>2026-04-12T11:49:57.998Z</time></trkpt><trkpt lat="44.35569349040523" lon="11.486223925902353"><ele>520.5</ele><time>2026-04-12T11:49:58.998Z</time></trkpt><trkpt lat="44.35576751777046" lon="11.486181162077843"><ele>517.6666666666666</ele><time>2026-04-12T11:49:59.998Z</time></trkpt><trkpt lat="44.35584118304918" lon="11.486141948007473"><ele>514.8333333333333</ele><time>2026-04-12T11:50:00.998Z</time></trkpt><trkpt lat="44.35591419270313" lon="11.48610978245582"><ele>512.0</ele><time>2026-04-12T11:50:01.998Z</time></trkpt><trkpt lat="44.35598148031376" lon="11.486076305650068"><ele>511.99999999999994</ele><time>2026-04-12T11:50:02.998Z</time></trkpt><trkpt lat="44.35605606523235" lon="11.48604485115093"><ele>512.0</ele><time>2026-04-12T11:50:03.998Z</time></trkpt><trkpt lat="44.35612463068129" lon="11.486008555262627"><ele>512.0</ele><time>2026-04-12T11:50:04.998Z</time></trkpt><trkpt lat="44.35618798355373" lon="11.485974877697434"><ele>512.0</ele><time>2026-04-12T11:50:05.998Z</time></trkpt><trkpt lat="44.35625027644092" lon="11.485947362180852"><ele>511.99999999999994</ele><time>2026-04-12T11:50:06.998Z</time></trkpt><trkpt lat="44.356310923925236" lon="11.485922901859308"><ele>512.0</ele><time>2026-04-12T11:50:07.998Z</time></trkpt><trkpt lat="44.35643030862458" lon="11.485913054515631"><ele>512.3333333333333</ele><time>2026-04-12T11:50:09.998Z</time></trkpt><trkpt lat="44.356495949719644" lon="11.48591419546197"><ele>512.6666666666666</ele><time>2026-04-12T11:50:10.998Z</time></trkpt><trkpt lat="44.35656902659688" lon="11.485920124253218"><ele>513.0</ele><time>2026-04-12T11:50:11.998Z</time></trkpt><trkpt lat="44.35664108272057" lon="11.485911859438385"><ele>513.3333333333334</ele><time>2026-04-12T11:50:12.998Z</time></trkpt><trkpt lat="44.35671650614342" lon="11.485931628734262"><ele>513.6666666666667</ele><time>2026-04-12T11:50:13.998Z</time></trkpt><trkpt lat="44.35680170034839" lon="11.485947084677525"><ele>514.0</ele><time>2026-04-12T11:50:14.998Z</time></trkpt><trkpt lat="44.35688437164015" lon="11.48597477560903"><ele>514.0</ele><time>2026-04-12T11:50:15.998Z</time></trkpt><trkpt lat="44.35695600543611" lon="11.486006098187781"><ele>514.0</ele><time>2026-04-12T11:50:16.998Z</time></trkpt><trkpt lat="44.3570217269663" lon="11.486044307504562"><ele>514.0</ele><time>2026-04-12T11:50:17.998Z</time></trkpt><trkpt lat="44.35712486445464" lon="11.48611138454929"><ele>514.0</ele><time>2026-04-12T11:50:19.998Z</time></trkpt><trkpt lat="44.35721816871636" lon="11.486180272377533"><ele>514.0</ele><time>2026-04-12T11:50:21.998Z</time></trkpt><trkpt lat="44.35730337275526" lon="11.486233042170841"><ele>513.4</ele><time>2026-04-12T11:50:23.998Z</time></trkpt><trkpt lat="44.35739545441728" lon="11.486291743770908"><ele>512.8</ele><time>2026-04-12T11:50:25.998Z</time></trkpt><trkpt lat="44.35749881613249" lon="11.48635764410603"><ele>512.2</ele><time>2026-04-12T11:50:27.998Z</time></trkpt><trkpt lat="44.35760830597278" lon="11.486425335812466"><ele>511.6</ele><time>2026-04-12T11:50:29.998Z</time></trkpt><trkpt lat="44.35766576474832" lon="11.486461858211793"><ele>511.0</ele><time>2026-04-12T11:50:30.998Z</time></trkpt><trkpt lat="44.35772331172681" lon="11.486498413958167"><ele>511.0</ele><time>2026-04-12T11:50:31.998Z</time></trkpt><trkpt lat="44.35778269152027" lon="11.486536716998415"><ele>511.0</ele><time>2026-04-12T11:50:32.998Z</time></trkpt><trkpt lat="44.35784161666688" lon="11.48657365110232"><ele>511.0</ele><time>2026-04-12T11:50:33.998Z</time></trkpt><trkpt lat="44.357906218732325" lon="11.486608953087266"><ele>511.0</ele><time>2026-04-12T11:50:34.998Z</time></trkpt><trkpt lat="44.35797040885344" lon="11.48664755429308"><ele>511.0</ele><time>2026-04-12T11:50:35.998Z</time></trkpt><trkpt lat="44.3580321831688" lon="11.486684082270225"><ele>511.0</ele><time>2026-04-12T11:50:36.998Z</time></trkpt><trkpt lat="44.358102434422285" lon="11.486718773451482"><ele>511.0</ele><time>2026-04-12T11:50:37.998Z</time></trkpt><trkpt lat="44.35817565004773" lon="11.4867495646027"><ele>511.33333333333337</ele><time>2026-04-12T11:50:38.998Z</time></trkpt><trkpt lat="44.35824839186025" lon="11.486780509943108"><ele>511.6666666666667</ele><time>2026-04-12T11:50:40Z</time></trkpt><trkpt lat="44.35831633102858" lon="11.48680794252155"><ele>512.0</ele><time>2026-04-12T11:50:41Z</time></trkpt><trkpt lat="44.358397470589715" lon="11.486810109019348"><ele>512.3333333333334</ele><time>2026-04-12T11:50:42Z</time></trkpt><trkpt lat="44.3584803008899" lon="11.48679112494756"><ele>512.6666666666666</ele><time>2026-04-12T11:50:43Z</time></trkpt><trkpt lat="44.3585609622736" lon="11.486763887755279"><ele>513.0</ele><time>2026-04-12T11:50:44Z</time></trkpt><trkpt lat="44.35863455015149" lon="11.48673818898364"><ele>513.0</ele><time>2026-04-12T11:50:45Z</time></trkpt><trkpt lat="44.358709348139286" lon="11.486727019417842"><ele>513.0</ele><time>2026-04-12T11:50:46Z</time></trkpt><trkpt lat="44.35878665375615" lon="11.48673332427599"><ele>513.0</ele><time>2026-04-12T11:50:47Z</time></trkpt><trkpt lat="44.358861868084276" lon="11.486759119081725"><ele>513.0</ele><time>2026-04-12T11:50:48Z</time></trkpt><trkpt lat="44.35893932655943" lon="11.486814718702513"><ele>513.0</ele><time>2026-04-12T11:50:49Z</time></trkpt><trkpt lat="44.3589991807421" lon="11.486908389683357"><ele>513.0</ele><time>2026-04-12T11:50:50Z</time></trkpt><trkpt lat="44.35907476341782" lon="11.486989235123486"><ele>511.6666666666667</ele><time>2026-04-12T11:50:51Z</time></trkpt><trkpt lat="44.35913343096032" lon="11.487078693651428"><ele>510.33333333333337</ele><time>2026-04-12T11:50:52Z</time></trkpt><trkpt lat="44.35919641809299" lon="11.48716285013493"><ele>509.0</ele><time>2026-04-12T11:50:53Z</time></trkpt><trkpt lat="44.35925494277176" lon="11.487235121826929"><ele>507.6666666666667</ele><time>2026-04-12T11:50:54Z</time></trkpt><trkpt lat="44.35932011513784" lon="11.487311640371113"><ele>506.33333333333337</ele><time>2026-04-12T11:50:55Z</time></trkpt><trkpt lat="44.35937882835082" lon="11.487381428938086"><ele>505.0</ele><time>2026-04-12T11:50:56Z</time></trkpt><trkpt lat="44.35944385421813" lon="11.487447948748603"><ele>505.00000000000006</ele><time>2026-04-12T11:50:57Z</time></trkpt><trkpt lat="44.35951078302544" lon="11.487515559698354"><ele>505.0</ele><time>2026-04-12T11:50:58Z</time></trkpt><trkpt lat="44.35957803619016" lon="11.487582322156426"><ele>505.0</ele><time>2026-04-12T11:50:59Z</time></trkpt><trkpt lat="44.35964244629395" lon="11.487655437023669"><ele>505.0</ele><time>2026-04-12T11:51:00Z</time></trkpt><trkpt lat="44.35970176284136" lon="11.487729760697238"><ele>505.00000000000006</ele><time>2026-04-12T11:51:00.999Z</time></trkpt><trkpt lat="44.35975983810622" lon="11.48780412591391"><ele>505.0</ele><time>2026-04-12T11:51:01.999Z</time></trkpt><trkpt lat="44.35981864316004" lon="11.487869643820728"><ele>504.1666666666667</ele><time>2026-04-12T11:51:02.999Z</time></trkpt><trkpt lat="44.359882555586616" lon="11.487919368059853"><ele>503.33333333333337</ele><time>2026-04-12T11:51:03.999Z</time></trkpt><trkpt lat="44.35996224987365" lon="11.487965877942713"><ele>502.5</ele><time>2026-04-12T11:51:04.999Z</time></trkpt><trkpt lat="44.360045936758574" lon="11.488002393235295"><ele>501.66666666666663</ele><time>2026-04-12T11:51:05.999Z</time></trkpt><trkpt lat="44.36014235632234" lon="11.488035365636943"><ele>500.8333333333333</ele><time>2026-04-12T11:51:06.999Z</time></trkpt><trkpt lat="44.360239212006725" lon="11.48806145120885"><ele>500.0</ele><time>2026-04-12T11:51:07.999Z</time></trkpt><trkpt lat="44.360340980051674" lon="11.488085481233211"><ele>500.0</ele><time>2026-04-12T11:51:08.999Z</time></trkpt><trkpt lat="44.360445348422786" lon="11.488113666120872"><ele>500.0</ele><time>2026-04-12T11:51:09.999Z</time></trkpt><trkpt lat="44.36054795817225" lon="11.488142084809104"><ele>500.0</ele><time>2026-04-12T11:51:10.999Z</time></trkpt><trkpt lat="44.3606492572747" lon="11.48816350506286"><ele>500.0</ele><time>2026-04-12T11:51:11.999Z</time></trkpt><trkpt lat="44.36074843366313" lon="11.488183127162177"><ele>500.0</ele><time>2026-04-12T11:51:12.999Z</time></trkpt><trkpt lat="44.36084274933687" lon="11.488210482447956"><ele>500.6</ele><time>2026-04-12T11:51:13.999Z</time></trkpt><trkpt lat="44.36092898258958" lon="11.488257757201598"><ele>501.2</ele><time>2026-04-12T11:51:14.999Z</time></trkpt><trkpt lat="44.36101421363371" lon="11.48832206269079"><ele>501.79999999999995</ele><time>2026-04-12T11:51:15.999Z</time></trkpt><trkpt lat="44.361093777980265" lon="11.488395078398668"><ele>502.4</ele><time>2026-04-12T11:51:16.999Z</time></trkpt><trkpt lat="44.361170934085195" lon="11.48846280369105"><ele>503.0</ele><time>2026-04-12T11:51:17.999Z</time></trkpt><trkpt lat="44.36124649992575" lon="11.488532298687264"><ele>502.99999999999994</ele><time>2026-04-12T11:51:18.999Z</time></trkpt><trkpt lat="44.36131998844048" lon="11.488601145324242"><ele>503.0</ele><time>2026-04-12T11:51:19.999Z</time></trkpt><trkpt lat="44.36139513976023" lon="11.488658602834347"><ele>503.0</ele><time>2026-04-12T11:51:20.999Z</time></trkpt><trkpt lat="44.36147548729311" lon="11.488713231566617"><ele>503.0</ele><time>2026-04-12T11:51:21.999Z</time></trkpt><trkpt lat="44.36155893659035" lon="11.488755209851611"><ele>502.99999999999994</ele><time>2026-04-12T11:51:22.999Z</time></trkpt><trkpt lat="44.361642679509444" lon="11.488790316063673"><ele>503.0</ele><time>2026-04-12T11:51:23.999Z</time></trkpt><trkpt lat="44.36172626083856" lon="11.488840464766357"><ele>501.14285714285717</ele><time>2026-04-12T11:51:24.999Z</time></trkpt><trkpt lat="44.361804745992266" lon="11.488896986666802"><ele>499.28571428571433</ele><time>2026-04-12T11:51:25.999Z</time></trkpt><trkpt lat="44.36185163005917" lon="11.48898234470764"><ele>497.42857142857144</ele><time>2026-04-12T11:51:26.999Z</time></trkpt><trkpt lat="44.3619055917222" lon="11.489050564843529"><ele>495.57142857142856</ele><time>2026-04-12T11:51:27.999Z</time></trkpt><trkpt lat="44.36195298348308" lon="11.489114282496281"><ele>493.7142857142857</ele><time>2026-04-12T11:51:28.999Z</time></trkpt><trkpt lat="44.3620035255897" lon="11.489182236377523"><ele>491.8571428571429</ele><time>2026-04-12T11:51:31.999Z</time></trkpt><trkpt lat="44.36203101265927" lon="11.489264951125067"><ele>490.0</ele><time>2026-04-12T11:51:35.999Z</time></trkpt><trkpt lat="44.362186325127034" lon="11.489209060391888"><ele>489.83333333333337</ele><time>2026-04-12T11:51:37.999Z</time></trkpt><trkpt lat="44.36224639600379" lon="11.489237718715295"><ele>489.6666666666667</ele><time>2026-04-12T11:51:38.999Z</time></trkpt><trkpt lat="44.36231488256385" lon="11.489273937867033"><ele>489.5</ele><time>2026-04-12T11:51:39.999Z</time></trkpt><trkpt lat="44.362389348155745" lon="11.489317195220607"><ele>489.33333333333337</ele><time>2026-04-12T11:51:40.999Z</time></trkpt><trkpt lat="44.36246724555341" lon="11.489349717919694"><ele>489.1666666666667</ele><time>2026-04-12T11:51:41.999Z</time></trkpt><trkpt lat="44.36255912359049" lon="11.489385444909272"><ele>489.0</ele><time>2026-04-12T11:51:42.999Z</time></trkpt><trkpt lat="44.36266173486821" lon="11.489425228063723"><ele>489.0</ele><time>2026-04-12T11:51:43.999Z</time></trkpt><trkpt lat="44.36276901639547" lon="11.489464815528315"><ele>489.0</ele><time>2026-04-12T11:51:44.999Z</time></trkpt><trkpt lat="44.36287843674206" lon="11.489497453295076"><ele>489.0</ele><time>2026-04-12T11:51:45.999Z</time></trkpt><trkpt lat="44.36298890367477" lon="11.489519754711319"><ele>489.0</ele><time>2026-04-12T11:51:46.999Z</time></trkpt><trkpt lat="44.363100303386126" lon="11.48953559561373"><ele>489.0</ele><time>2026-04-12T11:51:47.999Z</time></trkpt><trkpt lat="44.36321289319211" lon="11.48954835730648"><ele>487.4</ele><time>2026-04-12T11:51:48.999Z</time></trkpt><trkpt lat="44.36332448525393" lon="11.489562316627023"><ele>485.79999999999995</ele><time>2026-04-12T11:51:49.999Z</time></trkpt><trkpt lat="44.36343292416104" lon="11.489573356629476"><ele>484.20000000000005</ele><time>2026-04-12T11:51:50.999Z</time></trkpt><trkpt lat="44.36354311699903" lon="11.489583956599818"><ele>482.6</ele><time>2026-04-12T11:51:51.999Z</time></trkpt><trkpt lat="44.363645462473045" lon="11.489619545729104"><ele>481.0</ele><time>2026-04-12T11:51:52.999Z</time></trkpt><trkpt lat="44.363747944683155" lon="11.489633602103945"><ele>481.0</ele><time>2026-04-12T11:51:53.999Z</time></trkpt><trkpt lat="44.36384220156425" lon="11.489642060683163"><ele>481.0</ele><time>2026-04-12T11:51:54.998Z</time></trkpt><trkpt lat="44.36395770549104" lon="11.489634975962034"><ele>481.0</ele><time>2026-04-12T11:51:55.998Z</time></trkpt><trkpt lat="44.36407932352362" lon="11.48958370213793"><ele>481.0</ele><time>2026-04-12T11:51:56.998Z</time></trkpt><trkpt lat="44.364213054381075" lon="11.489566570419159"><ele>479.0</ele><time>2026-04-12T11:51:57.998Z</time></trkpt><trkpt lat="44.36434794159154" lon="11.48951156981776"><ele>477.0</ele><time>2026-04-12T11:51:58.998Z</time></trkpt><trkpt lat="44.3644853921617" lon="11.489452336218639"><ele>475.0</ele><time>2026-04-12T11:51:59.998Z</time></trkpt><trkpt lat="44.36462220438546" lon="11.48939429052202"><ele>473.0</ele><time>2026-04-12T11:52:00.998Z</time></trkpt><trkpt lat="44.36475053962557" lon="11.489343663341655"><ele>473.0</ele><time>2026-04-12T11:52:01.998Z</time></trkpt><trkpt lat="44.364868442391305" lon="11.489280291885912"><ele>473.0</ele><time>2026-04-12T11:52:02.998Z</time></trkpt><trkpt lat="44.36498503038312" lon="11.489240828790626"><ele>473.0</ele><time>2026-04-12T11:52:03.998Z</time></trkpt><trkpt lat="44.36510180780774" lon="11.489197726845871"><ele>473.0</ele><time>2026-04-12T11:52:04.998Z</time></trkpt><trkpt lat="44.365223834539464" lon="11.489162200089096"><ele>473.0</ele><time>2026-04-12T11:52:05.998Z</time></trkpt><trkpt lat="44.36532982508837" lon="11.489062437020573"><ele>473.0</ele><time>2026-04-12T11:52:06.998Z</time></trkpt><trkpt lat="44.3654315653195" lon="11.488977675175175"><ele>473.0</ele><time>2026-04-12T11:52:07.998Z</time></trkpt><trkpt lat="44.36554074835696" lon="11.488914275599681"><ele>473.0</ele><time>2026-04-12T11:52:08.998Z</time></trkpt><trkpt lat="44.36563113187575" lon="11.488816309801004"><ele>474.25</ele><time>2026-04-12T11:52:09.998Z</time></trkpt><trkpt lat="44.36573972507112" lon="11.488765147568497"><ele>475.5</ele><time>2026-04-12T11:52:10.998Z</time></trkpt><trkpt lat="44.36585883914" lon="11.488739518218882"><ele>476.75</ele><time>2026-04-12T11:52:11.998Z</time></trkpt><trkpt lat="44.36597645183339" lon="11.488737100043297"><ele>478.0</ele><time>2026-04-12T11:52:12.998Z</time></trkpt><trkpt lat="44.366091241417" lon="11.488743893778281"><ele>474.75</ele><time>2026-04-12T11:52:13.998Z</time></trkpt><trkpt lat="44.36620153629473" lon="11.4887329014476"><ele>471.5</ele><time>2026-04-12T11:52:14.998Z</time></trkpt><trkpt lat="44.366304448474466" lon="11.488686693836266"><ele>468.25</ele><time>2026-04-12T11:52:15.998Z</time></trkpt><trkpt lat="44.36639642297923" lon="11.488600155932867"><ele>465.0</ele><time>2026-04-12T11:52:16.998Z</time></trkpt><trkpt lat="44.36648477973533" lon="11.488482537151556"><ele>465.0</ele><time>2026-04-12T11:52:17.998Z</time></trkpt><trkpt lat="44.366590697247624" lon="11.488344978073851"><ele>465.0</ele><time>2026-04-12T11:52:18.998Z</time></trkpt><trkpt lat="44.366674902520515" lon="11.488182446658215"><ele>465.0</ele><time>2026-04-12T11:52:19.998Z</time></trkpt><trkpt lat="44.36673780938953" lon="11.488019096685386"><ele>465.0</ele><time>2026-04-12T11:52:20.998Z</time></trkpt><trkpt lat="44.366822651168306" lon="11.48788015166573"><ele>462.0</ele><time>2026-04-12T11:52:21.998Z</time></trkpt><trkpt lat="44.366915156809185" lon="11.487760301533353"><ele>459.0</ele><time>2026-04-12T11:52:22.998Z</time></trkpt><trkpt lat="44.367017378831015" lon="11.48765905868559"><ele>456.0</ele><time>2026-04-12T11:52:23.998Z</time></trkpt><trkpt lat="44.36712147267618" lon="11.487572242541429"><ele>453.0</ele><time>2026-04-12T11:52:24.998Z</time></trkpt><trkpt lat="44.367224052130624" lon="11.487503129389491"><ele>453.0</ele><time>2026-04-12T11:52:25.998Z</time></trkpt><trkpt lat="44.36733462504689" lon="11.487465004863846"><ele>453.0</ele><time>2026-04-12T11:52:26.998Z</time></trkpt><trkpt lat="44.36745121690058" lon="11.487472272081135"><ele>453.0</ele><time>2026-04-12T11:52:27.998Z</time></trkpt><trkpt lat="44.36756411562402" lon="11.487503803850595"><ele>453.0</ele><time>2026-04-12T11:52:28.998Z</time></trkpt><trkpt lat="44.36766586292458" lon="11.487566035527362"><ele>453.0</ele><time>2026-04-12T11:52:29.998Z</time></trkpt><trkpt lat="44.36776299443548" lon="11.487623316592108"><ele>452.99999999999994</ele><time>2026-04-12T11:52:30.998Z</time></trkpt><trkpt lat="44.36785373613228" lon="11.487685701570129"><ele>452.99999999999994</ele><time>2026-04-12T11:52:31.998Z</time></trkpt><trkpt lat="44.367928195551244" lon="11.487763837487698"><ele>453.0</ele><time>2026-04-12T11:52:32.998Z</time></trkpt><trkpt lat="44.367993416772556" lon="11.487867206140017"><ele>453.0</ele><time>2026-04-12T11:52:33.998Z</time></trkpt><trkpt lat="44.36804765457665" lon="11.487991253237746"><ele>451.5</ele><time>2026-04-12T11:52:34.998Z</time></trkpt><trkpt lat="44.368104952370786" lon="11.488130154409388"><ele>450.0</ele><time>2026-04-12T11:52:35.998Z</time></trkpt><trkpt lat="44.368166826824904" lon="11.488268699534357"><ele>448.5</ele><time>2026-04-12T11:52:36.998Z</time></trkpt><trkpt lat="44.368230946560786" lon="11.488410088731053"><ele>447.0</ele><time>2026-04-12T11:52:37.998Z</time></trkpt><trkpt lat="44.36829547470872" lon="11.488551379719306"><ele>447.0</ele><time>2026-04-12T11:52:38.998Z</time></trkpt><trkpt lat="44.36836082093963" lon="11.488689913021812"><ele>447.00000000000006</ele><time>2026-04-12T11:52:39.998Z</time></trkpt><trkpt lat="44.368425661034365" lon="11.48881892455979"><ele>447.00000000000006</ele><time>2026-04-12T11:52:40.998Z</time></trkpt><trkpt lat="44.368488564587" lon="11.488940131134104"><ele>447.0</ele><time>2026-04-12T11:52:41.998Z</time></trkpt><trkpt lat="44.36854392107506" lon="11.489041805555363"><ele>447.0</ele><time>2026-04-12T11:52:42.998Z</time></trkpt><trkpt lat="44.3685903606404" lon="11.48914419930027"><ele>447.3333333333333</ele><time>2026-04-12T11:52:43.998Z</time></trkpt><trkpt lat="44.36862264684955" lon="11.489253316741088"><ele>447.66666666666663</ele><time>2026-04-12T11:52:44.998Z</time></trkpt><trkpt lat="44.36863896341621" lon="11.489363295254577"><ele>448.0</ele><time>2026-04-12T11:52:46Z</time></trkpt><trkpt lat="44.36864930152514" lon="11.489468746514303"><ele>448.3333333333333</ele><time>2026-04-12T11:52:47Z</time></trkpt><trkpt lat="44.36866115908416" lon="11.489572568145666"><ele>448.66666666666663</ele><time>2026-04-12T11:52:48Z</time></trkpt><trkpt lat="44.3686863723811" lon="11.489668193204801"><ele>449.0</ele><time>2026-04-12T11:52:49Z</time></trkpt><trkpt lat="44.36873536085378" lon="11.489739138710876"><ele>447.71428571428567</ele><time>2026-04-12T11:52:50Z</time></trkpt><trkpt lat="44.36879834476491" lon="11.489787463494695"><ele>446.4285714285714</ele><time>2026-04-12T11:52:51Z</time></trkpt><trkpt lat="44.36886544134756" lon="11.489816305104421"><ele>445.1428571428571</ele><time>2026-04-12T11:52:52Z</time></trkpt><trkpt lat="44.36893554408984" lon="11.489823036842672"><ele>443.85714285714283</ele><time>2026-04-12T11:52:53Z</time></trkpt><trkpt lat="44.36900602308265" lon="11.489800843120483"><ele>442.57142857142856</ele><time>2026-04-12T11:52:54Z</time></trkpt><trkpt lat="44.369075550401334" lon="11.489757802813124"><ele>441.2857142857142</ele><time>2026-04-12T11:52:55Z</time></trkpt><trkpt lat="44.369140800421995" lon="11.489697639612906"><ele>440.0</ele><time>2026-04-12T11:52:56Z</time></trkpt><trkpt lat="44.36920043332464" lon="11.489625583663454"><ele>439.8333333333333</ele><time>2026-04-12T11:52:57Z</time></trkpt><trkpt lat="44.36925975332548" lon="11.489545849648119"><ele>439.66666666666663</ele><time>2026-04-12T11:52:58Z</time></trkpt><trkpt lat="44.36931849292052" lon="11.489464175702274"><ele>439.5</ele><time>2026-04-12T11:52:59Z</time></trkpt><trkpt lat="44.36938129046349" lon="11.489385204939452"><ele>439.33333333333337</ele><time>2026-04-12T11:53:00Z</time></trkpt><trkpt lat="44.36946015612589" lon="11.489341528039386"><ele>439.1666666666667</ele><time>2026-04-12T11:53:01Z</time></trkpt><trkpt lat="44.36953513356916" lon="11.489282632399627"><ele>439.0</ele><time>2026-04-12T11:53:02Z</time></trkpt><trkpt lat="44.36961836437523" lon="11.489263869753984"><ele>438.1666666666667</ele><time>2026-04-12T11:53:03Z</time></trkpt><trkpt lat="44.36970492377442" lon="11.489259394125888"><ele>437.33333333333337</ele><time>2026-04-12T11:53:04Z</time></trkpt><trkpt lat="44.369792365885445" lon="11.489254519567398"><ele>436.5</ele><time>2026-04-12T11:53:04.999Z</time></trkpt><trkpt lat="44.36988235869825" lon="11.489248361196887"><ele>435.66666666666663</ele><time>2026-04-12T11:53:05.999Z</time></trkpt><trkpt lat="44.369973306225674" lon="11.489244842715769"><ele>434.8333333333333</ele><time>2026-04-12T11:53:06.999Z</time></trkpt><trkpt lat="44.370067426902104" lon="11.489243825191384"><ele>434.0</ele><time>2026-04-12T11:53:07.999Z</time></trkpt><trkpt lat="44.370162124380876" lon="11.489242002121905"><ele>434.0</ele><time>2026-04-12T11:53:08.999Z</time></trkpt><trkpt lat="44.370264908696356" lon="11.489242415724128"><ele>434.0</ele><time>2026-04-12T11:53:09.999Z</time></trkpt><trkpt lat="44.370379879296536" lon="11.489243818529015"><ele>434.0</ele><time>2026-04-12T11:53:10.999Z</time></trkpt><trkpt lat="44.37049347730006" lon="11.48924194566383"><ele>434.0</ele><time>2026-04-12T11:53:11.999Z</time></trkpt><trkpt lat="44.37061024852816" lon="11.489241100606089"><ele>434.0</ele><time>2026-04-12T11:53:12.999Z</time></trkpt><trkpt lat="44.370729917205935" lon="11.48923949413173"><ele>432.5</ele><time>2026-04-12T11:53:13.999Z</time></trkpt><trkpt lat="44.37085426228801" lon="11.489235462958481"><ele>431.0</ele><time>2026-04-12T11:53:14.999Z</time></trkpt><trkpt lat="44.37097949430676" lon="11.48923507521448"><ele>429.5</ele><time>2026-04-12T11:53:15.999Z</time></trkpt><trkpt lat="44.371101538221474" lon="11.489243939295521"><ele>428.0</ele><time>2026-04-12T11:53:16.999Z</time></trkpt><trkpt lat="44.371218668930574" lon="11.489266553348969"><ele>428.0</ele><time>2026-04-12T11:53:17.999Z</time></trkpt><trkpt lat="44.371325215901784" lon="11.489293099883247"><ele>427.99999999999994</ele><time>2026-04-12T11:53:18.999Z</time></trkpt><trkpt lat="44.37142756549144" lon="11.489308771613546"><ele>427.99999999999994</ele><time>2026-04-12T11:53:19.999Z</time></trkpt><trkpt lat="44.37152442033623" lon="11.489300881637684"><ele>428.0</ele><time>2026-04-12T11:53:20.999Z</time></trkpt><trkpt lat="44.37161325371035" lon="11.48926222004514"><ele>428.0</ele><time>2026-04-12T11:53:21.999Z</time></trkpt><trkpt lat="44.37169928699405" lon="11.489186800004044"><ele>425.2</ele><time>2026-04-12T11:53:22.999Z</time></trkpt><trkpt lat="44.3717758875152" lon="11.4890849179303"><ele>422.4</ele><time>2026-04-12T11:53:23.999Z</time></trkpt><trkpt lat="44.37184446847398" lon="11.488969972384783"><ele>419.59999999999997</ele><time>2026-04-12T11:53:24.999Z</time></trkpt><trkpt lat="44.371920250817205" lon="11.488859068260359"><ele>416.79999999999995</ele><time>2026-04-12T11:53:25.999Z</time></trkpt><trkpt lat="44.37200766413522" lon="11.488748795085465"><ele>414.0</ele><time>2026-04-12T11:53:26.999Z</time></trkpt><trkpt lat="44.37211211280562" lon="11.48862582187213"><ele>414.33333333333337</ele><time>2026-04-12T11:53:27.999Z</time></trkpt><trkpt lat="44.372243817842126" lon="11.488487284947885"><ele>414.6666666666667</ele><time>2026-04-12T11:53:28.999Z</time></trkpt><trkpt lat="44.37239902509165" lon="11.488339030565745"><ele>415.0</ele><time>2026-04-12T11:53:29.999Z</time></trkpt><trkpt lat="44.37254867799311" lon="11.488214305038197"><ele>415.0</ele><time>2026-04-12T11:53:30.999Z</time></trkpt><trkpt lat="44.372689293553755" lon="11.488115553013376"><ele>415.0</ele><time>2026-04-12T11:53:31.999Z</time></trkpt><trkpt lat="44.37281694174258" lon="11.488037892908375"><ele>415.0</ele><time>2026-04-12T11:53:32.999Z</time></trkpt><trkpt lat="44.37294585649973" lon="11.487973922952996"><ele>415.0</ele><time>2026-04-12T11:53:33.999Z</time></trkpt><trkpt lat="44.37309174658131" lon="11.487936334896574"><ele>416.5</ele><time>2026-04-12T11:53:34.999Z</time></trkpt><trkpt lat="44.37322835330313" lon="11.487918335783869"><ele>418.0</ele><time>2026-04-12T11:53:35.999Z</time></trkpt><trkpt lat="44.3733493459593" lon="11.48790077676846"><ele>419.5</ele><time>2026-04-12T11:53:36.999Z</time></trkpt><trkpt lat="44.37346331963387" lon="11.487881418561287"><ele>421.0</ele><time>2026-04-12T11:53:37.999Z</time></trkpt><trkpt lat="44.37357130892989" lon="11.487857761012565"><ele>421.0</ele><time>2026-04-12T11:53:38.999Z</time></trkpt><trkpt lat="44.373676334671515" lon="11.48783434145636"><ele>421.0</ele><time>2026-04-12T11:53:39.999Z</time></trkpt><trkpt lat="44.373782777570895" lon="11.487808825646782"><ele>421.0</ele><time>2026-04-12T11:53:40.999Z</time></trkpt><trkpt lat="44.37389066723835" lon="11.487782325878188"><ele>421.0</ele><time>2026-04-12T11:53:41.999Z</time></trkpt><trkpt lat="44.37399994913297" lon="11.487760116390836"><ele>421.0</ele><time>2026-04-12T11:53:42.999Z</time></trkpt><trkpt lat="44.37411146991966" lon="11.48774437177558"><ele>416.5</ele><time>2026-04-12T11:53:43.999Z</time></trkpt><trkpt lat="44.37422351671759" lon="11.487730326952882"><ele>412.0</ele><time>2026-04-12T11:53:44.999Z</time></trkpt><trkpt lat="44.37434065873979" lon="11.487708863361435"><ele>407.5</ele><time>2026-04-12T11:53:45.999Z</time></trkpt><trkpt lat="44.374460030757916" lon="11.487673564317664"><ele>403.0</ele><time>2026-04-12T11:53:46.999Z</time></trkpt><trkpt lat="44.374577994536175" lon="11.487643896860325"><ele>398.5</ele><time>2026-04-12T11:53:47.999Z</time></trkpt><trkpt lat="44.37469946080963" lon="11.487647847664473"><ele>394.0</ele><time>2026-04-12T11:53:48.999Z</time></trkpt><trkpt lat="44.37482814847347" lon="11.487681348794293"><ele>389.5</ele><time>2026-04-12T11:53:49.999Z</time></trkpt><trkpt lat="44.37496004585951" lon="11.487738415428886"><ele>385.0</ele><time>2026-04-12T11:53:50.999Z</time></trkpt><trkpt lat="44.375093471680785" lon="11.48779662978921"><ele>385.0</ele><time>2026-04-12T11:53:51.999Z</time></trkpt><trkpt lat="44.37522941862615" lon="11.487860617651547"><ele>385.0</ele><time>2026-04-12T11:53:52.999Z</time></trkpt><trkpt lat="44.37535798042004" lon="11.487943301748265"><ele>385.0</ele><time>2026-04-12T11:53:53.999Z</time></trkpt><trkpt lat="44.37547230997362" lon="11.488055116510017"><ele>385.0</ele><time>2026-04-12T11:53:54.999Z</time></trkpt><trkpt lat="44.37558443045685" lon="11.4881572544906"><ele>379.75</ele><time>2026-04-12T11:53:55.999Z</time></trkpt><trkpt lat="44.37570569256397" lon="11.488243032208263"><ele>374.5</ele><time>2026-04-12T11:53:56.999Z</time></trkpt><trkpt lat="44.37583290444422" lon="11.488312556734899"><ele>369.25</ele><time>2026-04-12T11:53:57.999Z</time></trkpt><trkpt lat="44.37596152960874" lon="11.488366308894665"><ele>364.0</ele><time>2026-04-12T11:53:58.998Z</time></trkpt><trkpt lat="44.37608045595021" lon="11.488403313168291"><ele>364.0</ele><time>2026-04-12T11:53:59.998Z</time></trkpt><trkpt lat="44.37619303774378" lon="11.488423705574695"><ele>364.0</ele><time>2026-04-12T11:54:00.998Z</time></trkpt><trkpt lat="44.376299879053065" lon="11.4884330610209"><ele>364.0</ele><time>2026-04-12T11:54:01.998Z</time></trkpt><trkpt lat="44.376418803186574" lon="11.488393276475644"><ele>364.0</ele><time>2026-04-12T11:54:02.998Z</time></trkpt><trkpt lat="44.37651727164269" lon="11.488385968812207"><ele>364.0</ele><time>2026-04-12T11:54:03.998Z</time></trkpt><trkpt lat="44.376606047873885" lon="11.48840642630676"><ele>362.0</ele><time>2026-04-12T11:54:04.998Z</time></trkpt><trkpt lat="44.3766928262334" lon="11.488472834308158"><ele>360.0</ele><time>2026-04-12T11:54:05.998Z</time></trkpt><trkpt lat="44.37675779917943" lon="11.48860064043884"><ele>358.0</ele><time>2026-04-12T11:54:06.998Z</time></trkpt><trkpt lat="44.37682067863115" lon="11.488720740851317"><ele>356.0</ele><time>2026-04-12T11:54:07.998Z</time></trkpt><trkpt lat="44.37687405467422" lon="11.488855772152581"><ele>354.0</ele><time>2026-04-12T11:54:08.998Z</time></trkpt><trkpt lat="44.37691060689141" lon="11.48900219808496"><ele>352.6</ele><time>2026-04-12T11:54:09.998Z</time></trkpt><trkpt lat="44.37694676584414" lon="11.489150184635818"><ele>351.2</ele><time>2026-04-12T11:54:10.998Z</time></trkpt><trkpt lat="44.376996211150136" lon="11.489283496424768"><ele>349.8</ele><time>2026-04-12T11:54:11.998Z</time></trkpt><trkpt lat="44.3770462151693" lon="11.489406144510326"><ele>348.40000000000003</ele><time>2026-04-12T11:54:12.998Z</time></trkpt><trkpt lat="44.377115445599514" lon="11.489509677295914"><ele>347.0</ele><time>2026-04-12T11:54:13.998Z</time></trkpt><trkpt lat="44.37720162419288" lon="11.489581365178147"><ele>343.0</ele><time>2026-04-12T11:54:14.998Z</time></trkpt><trkpt lat="44.37730057747176" lon="11.489625817583715"><ele>339.0</ele><time>2026-04-12T11:54:15.998Z</time></trkpt><trkpt lat="44.37741203892276" lon="11.489640732546892"><ele>335.0</ele><time>2026-04-12T11:54:16.998Z</time></trkpt><trkpt lat="44.377532763153035" lon="11.489631525915572"><ele>331.0</ele><time>2026-04-12T11:54:17.998Z</time></trkpt><trkpt lat="44.37765165887583" lon="11.489609434253753"><ele>331.0</ele><time>2026-04-12T11:54:18.998Z</time></trkpt><trkpt lat="44.377764588156765" lon="11.48960072561797"><ele>331.0</ele><time>2026-04-12T11:54:19.998Z</time></trkpt><trkpt lat="44.37787155052484" lon="11.489625000748102"><ele>331.0</ele><time>2026-04-12T11:54:20.998Z</time></trkpt><trkpt lat="44.37797367436391" lon="11.48972150963481"><ele>331.0</ele><time>2026-04-12T11:54:21.998Z</time></trkpt><trkpt lat="44.378089967556754" lon="11.48979380574704"><ele>330.0</ele><time>2026-04-12T11:54:22.998Z</time></trkpt><trkpt lat="44.378203682157185" lon="11.489855457313366"><ele>329.0</ele><time>2026-04-12T11:54:23.998Z</time></trkpt><trkpt lat="44.37830035515111" lon="11.489949557637159"><ele>328.0</ele><time>2026-04-12T11:54:24.998Z</time></trkpt><trkpt lat="44.37836538004128" lon="11.490098962680765"><ele>327.0</ele><time>2026-04-12T11:54:25.998Z</time></trkpt><trkpt lat="44.37844827701638" lon="11.490230567577841"><ele>327.0</ele><time>2026-04-12T11:54:26.998Z</time></trkpt><trkpt lat="44.37853616905271" lon="11.490358238260862"><ele>327.0</ele><time>2026-04-12T11:54:27.998Z</time></trkpt><trkpt lat="44.37865233395255" lon="11.490470768028729"><ele>327.0</ele><time>2026-04-12T11:54:28.998Z</time></trkpt><trkpt lat="44.37877700267724" lon="11.490580461490064"><ele>327.0</ele><time>2026-04-12T11:54:29.998Z</time></trkpt><trkpt lat="44.37889953669517" lon="11.490709652434955"><ele>327.25</ele><time>2026-04-12T11:54:30.998Z</time></trkpt><trkpt lat="44.37901533650287" lon="11.49085079430024"><ele>327.5</ele><time>2026-04-12T11:54:31.998Z</time></trkpt><trkpt lat="44.37911884653437" lon="11.491002798506758"><ele>327.75</ele><time>2026-04-12T11:54:32.998Z</time></trkpt><trkpt lat="44.37921601608901" lon="11.491154780787529"><ele>328.0</ele><time>2026-04-12T11:54:33.998Z</time></trkpt><trkpt lat="44.37931607781475" lon="11.491292755499929"><ele>328.5</ele><time>2026-04-12T11:54:34.998Z</time></trkpt><trkpt lat="44.37942803167549" lon="11.491414249047104"><ele>329.0</ele><time>2026-04-12T11:54:35.998Z</time></trkpt><trkpt lat="44.37953978003671" lon="11.491518523589857"><ele>329.5</ele><time>2026-04-12T11:54:36.998Z</time></trkpt><trkpt lat="44.37964347061359" lon="11.491615862339259"><ele>330.0</ele><time>2026-04-12T11:54:37.998Z</time></trkpt><trkpt lat="44.37974051894508" lon="11.491702511720502"><ele>330.0</ele><time>2026-04-12T11:54:38.998Z</time></trkpt><trkpt lat="44.37983435324421" lon="11.491781388804123"><ele>330.0</ele><time>2026-04-12T11:54:39.998Z</time></trkpt><trkpt lat="44.37992322528886" lon="11.491839317083157"><ele>330.0</ele><time>2026-04-12T11:54:40.998Z</time></trkpt><trkpt lat="44.3800156504017" lon="11.491875668771502"><ele>330.0</ele><time>2026-04-12T11:54:41.998Z</time></trkpt><trkpt lat="44.38013181707094" lon="11.491881311913454"><ele>330.0</ele><time>2026-04-12T11:54:42.998Z</time></trkpt><trkpt lat="44.380264790962485" lon="11.491842083548905"><ele>330.0</ele><time>2026-04-12T11:54:43.998Z</time></trkpt><trkpt lat="44.380378964992794" lon="11.491782342639327"><ele>330.0</ele><time>2026-04-12T11:54:44.998Z</time></trkpt><trkpt lat="44.38048188083791" lon="11.491726242463187"><ele>330.0</ele><time>2026-04-12T11:54:45.998Z</time></trkpt><trkpt lat="44.38059004924364" lon="11.491686558320598"><ele>330.0</ele><time>2026-04-12T11:54:46.998Z</time></trkpt><trkpt lat="44.38070742580223" lon="11.491674973104061"><ele>328.5</ele><time>2026-04-12T11:54:47.998Z</time></trkpt><trkpt lat="44.38082628747328" lon="11.49173332196817"><ele>327.0</ele><time>2026-04-12T11:54:48.998Z</time></trkpt><trkpt lat="44.38094800243166" lon="11.491794723743022"><ele>325.5</ele><time>2026-04-12T11:54:49.998Z</time></trkpt><trkpt lat="44.381082675863624" lon="11.49187489328988"><ele>324.0</ele><time>2026-04-12T11:54:50.998Z</time></trkpt><trkpt lat="44.38121256848412" lon="11.491965451224216"><ele>324.0</ele><time>2026-04-12T11:54:52Z</time></trkpt><trkpt lat="44.381335498660114" lon="11.492039444886997"><ele>324.0</ele><time>2026-04-12T11:54:53Z</time></trkpt><trkpt lat="44.38145993036893" lon="11.492085852274176"><ele>324.0</ele><time>2026-04-12T11:54:54Z</time></trkpt><trkpt lat="44.38160637862077" lon="11.49207878211021"><ele>324.0</ele><time>2026-04-12T11:54:55Z</time></trkpt><trkpt lat="44.38176829700974" lon="11.492038472194356"><ele>321.0</ele><time>2026-04-12T11:54:56Z</time></trkpt><trkpt lat="44.38191776560078" lon="11.49200936877425"><ele>318.0</ele><time>2026-04-12T11:54:57Z</time></trkpt><trkpt lat="44.38205494352545" lon="11.492031612715685"><ele>315.0</ele><time>2026-04-12T11:54:58Z</time></trkpt><trkpt lat="44.382191542762925" lon="11.492087648294998"><ele>312.0</ele><time>2026-04-12T11:54:59Z</time></trkpt><trkpt lat="44.382333437258694" lon="11.492162882561832"><ele>310.0</ele><time>2026-04-12T11:55:00Z</time></trkpt><trkpt lat="44.38247904713883" lon="11.492244195375218"><ele>308.0</ele><time>2026-04-12T11:55:01Z</time></trkpt><trkpt lat="44.38261976410295" lon="11.492328975683035"><ele>306.0</ele><time>2026-04-12T11:55:02Z</time></trkpt><trkpt lat="44.382755021805664" lon="11.492409927978787"><ele>306.0</ele><time>2026-04-12T11:55:03Z</time></trkpt><trkpt lat="44.38287930252692" lon="11.492481267745216"><ele>306.0</ele><time>2026-04-12T11:55:04Z</time></trkpt><trkpt lat="44.38300039409277" lon="11.492545666752587"><ele>306.0</ele><time>2026-04-12T11:55:05Z</time></trkpt><trkpt lat="44.38312036175003" lon="11.49257664650024"><ele>306.0</ele><time>2026-04-12T11:55:06Z</time></trkpt><trkpt lat="44.38323941562807" lon="11.492554437287637"><ele>307.3333333333333</ele><time>2026-04-12T11:55:07Z</time></trkpt><trkpt lat="44.383381020663734" lon="11.492486506387168"><ele>308.66666666666663</ele><time>2026-04-12T11:55:08Z</time></trkpt><trkpt lat="44.38354339967781" lon="11.49239979042539"><ele>310.0</ele><time>2026-04-12T11:55:08.999Z</time></trkpt><trkpt lat="44.38369863125654" lon="11.492353032498224"><ele>310.0</ele><time>2026-04-12T11:55:09.999Z</time></trkpt><trkpt lat="44.383835338619775" lon="11.492329977527042"><ele>310.0</ele><time>2026-04-12T11:55:10.999Z</time></trkpt><trkpt lat="44.383956842154674" lon="11.49227027190049"><ele>310.0</ele><time>2026-04-12T11:55:11.999Z</time></trkpt><trkpt lat="44.38405847683964" lon="11.49215150409017"><ele>310.0</ele><time>2026-04-12T11:55:12.999Z</time></trkpt><trkpt lat="44.3841662556401" lon="11.492007076225223"><ele>308.0</ele><time>2026-04-12T11:55:13.999Z</time></trkpt><trkpt lat="44.38427891211195" lon="11.491897005512868"><ele>306.0</ele><time>2026-04-12T11:55:14.999Z</time></trkpt><trkpt lat="44.38438820051862" lon="11.491828657868783"><ele>304.0</ele><time>2026-04-12T11:55:15.999Z</time></trkpt><trkpt lat="44.384477207413056" lon="11.491813881392204"><ele>302.0</ele><time>2026-04-12T11:55:16.999Z</time></trkpt><trkpt lat="44.3845664313737" lon="11.49183526731408"><ele>300.0</ele><time>2026-04-12T11:55:17.999Z</time></trkpt><trkpt lat="44.38463001750615" lon="11.49192422025684"><ele>298.6666666666667</ele><time>2026-04-12T11:55:18.999Z</time></trkpt><trkpt lat="44.384680996896286" lon="11.492002995776637"><ele>297.3333333333333</ele><time>2026-04-12T11:55:19.999Z</time></trkpt><trkpt lat="44.38467900347582" lon="11.492116306184561"><ele>296.0</ele><time>2026-04-12T11:55:20.999Z</time></trkpt><trkpt lat="44.384713786225504" lon="11.492209980124853"><ele>294.66666666666663</ele><time>2026-04-12T11:55:21.999Z</time></trkpt><trkpt lat="44.38474347022837" lon="11.49232390552868"><ele>293.3333333333333</ele><time>2026-04-12T11:55:22.999Z</time></trkpt><trkpt lat="44.38480128122912" lon="11.49243257328937"><ele>292.0</ele><time>2026-04-12T11:55:23.999Z</time></trkpt><trkpt lat="44.38488701566209" lon="11.49249714939711"><ele>296.5</ele><time>2026-04-12T11:55:24.999Z</time></trkpt><trkpt lat="44.38499269229007" lon="11.492512084218795"><ele>301.0</ele><time>2026-04-12T11:55:25.999Z</time></trkpt><trkpt lat="44.38512140398812" lon="11.492488713851177"><ele>305.5</ele><time>2026-04-12T11:55:26.999Z</time></trkpt><trkpt lat="44.385252011626626" lon="11.492433471604505"><ele>310.0</ele><time>2026-04-12T11:55:27.999Z</time></trkpt><trkpt lat="44.385360418940785" lon="11.492369795061213"><ele>310.0</ele><time>2026-04-12T11:55:28.999Z</time></trkpt><trkpt lat="44.385449478991525" lon="11.492330126019366"><ele>310.0</ele><time>2026-04-12T11:55:29.999Z</time></trkpt><trkpt lat="44.385539121142415" lon="11.492337565305098"><ele>310.0</ele><time>2026-04-12T11:55:30.999Z</time></trkpt><trkpt lat="44.385630103393" lon="11.49240040750143"><ele>310.0</ele><time>2026-04-12T11:55:31.999Z</time></trkpt><trkpt lat="44.38568585772606" lon="11.492523092525657"><ele>310.0</ele><time>2026-04-12T11:55:32.999Z</time></trkpt><trkpt lat="44.38577627809906" lon="11.492649673400729"><ele>309.2</ele><time>2026-04-12T11:55:33.999Z</time></trkpt><trkpt lat="44.38585374818691" lon="11.492817171088861"><ele>308.4</ele><time>2026-04-12T11:55:34.999Z</time></trkpt><trkpt lat="44.385923708806835" lon="11.49292948534059"><ele>307.6</ele><time>2026-04-12T11:55:35.999Z</time></trkpt><trkpt lat="44.38598668681705" lon="11.492982035298171"><ele>306.8</ele><time>2026-04-12T11:55:36.999Z</time></trkpt><trkpt lat="44.38605693244822" lon="11.492976022402981"><ele>306.0</ele><time>2026-04-12T11:55:37.999Z</time></trkpt><trkpt lat="44.386154580036454" lon="11.49289473839645"><ele>306.0</ele><time>2026-04-12T11:55:38.999Z</time></trkpt><trkpt lat="44.3862886418867" lon="11.492778812415208"><ele>306.0</ele><time>2026-04-12T11:55:39.999Z</time></trkpt><trkpt lat="44.38640984809173" lon="11.492711765461804"><ele>306.0</ele><time>2026-04-12T11:55:40.999Z</time></trkpt><trkpt lat="44.38651615647357" lon="11.49269708268261"><ele>306.0</ele><time>2026-04-12T11:55:41.999Z</time></trkpt><trkpt lat="44.386597074013444" lon="11.49267214995692"><ele>307.5</ele><time>2026-04-12T11:55:42.999Z</time></trkpt><trkpt lat="44.38668665607891" lon="11.492552806011664"><ele>309.0</ele><time>2026-04-12T11:55:43.999Z</time></trkpt><trkpt lat="44.386797446146815" lon="11.492370498440115"><ele>310.5</ele><time>2026-04-12T11:55:44.999Z</time></trkpt><trkpt lat="44.38689216412908" lon="11.49220446715762"><ele>312.0</ele><time>2026-04-12T11:55:45.999Z</time></trkpt><trkpt lat="44.38697812866484" lon="11.492062501991608"><ele>309.4</ele><time>2026-04-12T11:55:46.999Z</time></trkpt><trkpt lat="44.387064497838786" lon="11.491955383000263"><ele>306.79999999999995</ele><time>2026-04-12T11:55:47.999Z</time></trkpt><trkpt lat="44.3871590221855" lon="11.491872435146929"><ele>304.2</ele><time>2026-04-12T11:55:48.999Z</time></trkpt><trkpt lat="44.38726465538637" lon="11.491813926471586"><ele>301.59999999999997</ele><time>2026-04-12T11:55:49.999Z</time></trkpt><trkpt lat="44.387365981609534" lon="11.491768628445254"><ele>299.0</ele><time>2026-04-12T11:55:50.999Z</time></trkpt><trkpt lat="44.387466173850164" lon="11.491717500058657"><ele>299.0</ele><time>2026-04-12T11:55:51.999Z</time></trkpt><trkpt lat="44.387560499819315" lon="11.491662132791559"><ele>299.0</ele><time>2026-04-12T11:55:52.999Z</time></trkpt><trkpt lat="44.3876515127748" lon="11.491600910990316"><ele>299.0</ele><time>2026-04-12T11:55:53.999Z</time></trkpt><trkpt lat="44.38772895594559" lon="11.491551745124825"><ele>299.0</ele><time>2026-04-12T11:55:54.999Z</time></trkpt><trkpt lat="44.38784599677913" lon="11.49152545599694"><ele>299.0</ele><time>2026-04-12T11:55:56.999Z</time></trkpt><trkpt lat="44.38790365744606" lon="11.491561423342734"><ele>299.0</ele><time>2026-04-12T11:55:57.999Z</time></trkpt><trkpt lat="44.387944602288" lon="11.49163605087739"><ele>299.0</ele><time>2026-04-12T11:55:58.999Z</time></trkpt><trkpt lat="44.3879599505521" lon="11.491747028682964"><ele>299.0</ele><time>2026-04-12T11:55:59.999Z</time></trkpt><trkpt lat="44.38797657127673" lon="11.49187970999173"><ele>299.0</ele><time>2026-04-12T11:56:00.999Z</time></trkpt><trkpt lat="44.38799238720477" lon="11.492016859942112"><ele>299.0</ele><time>2026-04-12T11:56:01.999Z</time></trkpt><trkpt lat="44.388008812191" lon="11.492152020385236"><ele>299.0</ele><time>2026-04-12T11:56:02.999Z</time></trkpt><trkpt lat="44.38802982236377" lon="11.492279465406844"><ele>297.33333333333337</ele><time>2026-04-12T11:56:03.999Z</time></trkpt><trkpt lat="44.38805504913739" lon="11.492397899096545"><ele>295.6666666666667</ele><time>2026-04-12T11:56:04.999Z</time></trkpt><trkpt lat="44.38808406558157" lon="11.492509388340723"><ele>294.0</ele><time>2026-04-12T11:56:05.999Z</time></trkpt><trkpt lat="44.388115507460824" lon="11.492614800067106"><ele>292.3333333333333</ele><time>2026-04-12T11:56:06.999Z</time></trkpt><trkpt lat="44.3881464522396" lon="11.492712883292826"><ele>290.66666666666663</ele><time>2026-04-12T11:56:07.999Z</time></trkpt><trkpt lat="44.38818019011689" lon="11.492807011139512"><ele>289.0</ele><time>2026-04-12T11:56:08.999Z</time></trkpt><trkpt lat="44.388219149332365" lon="11.49290161438324"><ele>289.5</ele><time>2026-04-12T11:56:09.999Z</time></trkpt><trkpt lat="44.38827823632308" lon="11.493002477675127"><ele>290.0</ele><time>2026-04-12T11:56:10.999Z</time></trkpt><trkpt lat="44.38838266188806" lon="11.49312271782439"><ele>290.5</ele><time>2026-04-12T11:56:11.999Z</time></trkpt><trkpt lat="44.38851836584461" lon="11.493258604238209"><ele>291.0</ele><time>2026-04-12T11:56:12.999Z</time></trkpt><trkpt lat="44.388665615643966" lon="11.493414028363965"><ele>291.0</ele><time>2026-04-12T11:56:13.999Z</time></trkpt><trkpt lat="44.38881924769337" lon="11.4935801495896"><ele>291.0</ele><time>2026-04-12T11:56:14.999Z</time></trkpt><trkpt lat="44.38898400200924" lon="11.493754237875038"><ele>291.0</ele><time>2026-04-12T11:56:15.999Z</time></trkpt><trkpt lat="44.389150170376766" lon="11.493934480894037"><ele>286.0</ele><time>2026-04-12T11:56:16.999Z</time></trkpt><trkpt lat="44.38930607168865" lon="11.494103175931368"><ele>281.0</ele><time>2026-04-12T11:56:17.999Z</time></trkpt><trkpt lat="44.3894482988909" lon="11.494260300309664"><ele>276.0</ele><time>2026-04-12T11:56:18.999Z</time></trkpt><trkpt lat="44.38958696486773" lon="11.494403605768595"><ele>274.3333333333333</ele><time>2026-04-12T11:56:19.999Z</time></trkpt><trkpt lat="44.38972450745217" lon="11.494535490960526"><ele>272.66666666666663</ele><time>2026-04-12T11:56:20.999Z</time></trkpt><trkpt lat="44.38985640125485" lon="11.494654278851721"><ele>271.0</ele><time>2026-04-12T11:56:21.999Z</time></trkpt><trkpt lat="44.38997727320252" lon="11.494759236649873"><ele>271.0</ele><time>2026-04-12T11:56:22.999Z</time></trkpt><trkpt lat="44.390094384879355" lon="11.494858206992633"><ele>271.0</ele><time>2026-04-12T11:56:23.999Z</time></trkpt><trkpt lat="44.39020784855757" lon="11.494950709376496"><ele>271.0</ele><time>2026-04-12T11:56:24.999Z</time></trkpt><trkpt lat="44.390307190610656" lon="11.495050563721511"><ele>271.0</ele><time>2026-04-12T11:56:25.999Z</time></trkpt><trkpt lat="44.39037345075205" lon="11.495190254269584"><ele>271.0</ele><time>2026-04-12T11:56:26.999Z</time></trkpt><trkpt lat="44.39045218950486" lon="11.495309136559495"><ele>271.0</ele><time>2026-04-12T11:56:27.999Z</time></trkpt><trkpt lat="44.39051532605436" lon="11.495440257348879"><ele>271.0</ele><time>2026-04-12T11:56:28.999Z</time></trkpt><trkpt lat="44.390585551750405" lon="11.495567500467615"><ele>271.0</ele><time>2026-04-12T11:56:29.999Z</time></trkpt><trkpt lat="44.39066589582374" lon="11.495685504326497"><ele>269.5</ele><time>2026-04-12T11:56:30.999Z</time></trkpt><trkpt lat="44.39074705838391" lon="11.49580003403914"><ele>268.0</ele><time>2026-04-12T11:56:31.999Z</time></trkpt><trkpt lat="44.390829044450385" lon="11.49589136186626"><ele>266.5</ele><time>2026-04-12T11:56:32.999Z</time></trkpt><trkpt lat="44.39089684996192" lon="11.495951052607893"><ele>265.0</ele><time>2026-04-12T11:56:33.999Z</time></trkpt><trkpt lat="44.390957233527274" lon="11.49599636774312"><ele>263.5</ele><time>2026-04-12T11:56:34.999Z</time></trkpt><trkpt lat="44.39102461650344" lon="11.496041326698526"><ele>262.0</ele><time>2026-04-12T11:56:35.999Z</time></trkpt><trkpt lat="44.391101900145195" lon="11.496093764598331"><ele>262.0</ele><time>2026-04-12T11:56:36.999Z</time></trkpt><trkpt lat="44.391183931308056" lon="11.496146029756444"><ele>262.0</ele><time>2026-04-12T11:56:37.999Z</time></trkpt><trkpt lat="44.39127404359719" lon="11.496202660594465"><ele>262.0</ele><time>2026-04-12T11:56:38.999Z</time></trkpt><trkpt lat="44.39140649625356" lon="11.496281011562482"><ele>262.0</ele><time>2026-04-12T11:56:39.999Z</time></trkpt><trkpt lat="44.39159363521347" lon="11.496389276515238"><ele>259.0</ele><time>2026-04-12T11:56:40.999Z</time></trkpt><trkpt lat="44.39176813971247" lon="11.496485960410725"><ele>256.0</ele><time>2026-04-12T11:56:41.999Z</time></trkpt><trkpt lat="44.39193466295875" lon="11.496573976336862"><ele>253.0</ele><time>2026-04-12T11:56:42.999Z</time></trkpt><trkpt lat="44.39209615240531" lon="11.496661961889497"><ele>248.66666666666666</ele><time>2026-04-12T11:56:43.999Z</time></trkpt><trkpt lat="44.39225426571498" lon="11.496747587077637"><ele>244.33333333333331</ele><time>2026-04-12T11:56:44.999Z</time></trkpt><trkpt lat="44.39239786087387" lon="11.496827130991617"><ele>240.0</ele><time>2026-04-12T11:56:45.999Z</time></trkpt><trkpt lat="44.39252547596565" lon="11.496905396613874"><ele>240.0</ele><time>2026-04-12T11:56:46.999Z</time></trkpt><trkpt lat="44.39264206072275" lon="11.497006515144232"><ele>240.0</ele><time>2026-04-12T11:56:47.999Z</time></trkpt><trkpt lat="44.39273822394665" lon="11.497147684249379"><ele>240.0</ele><time>2026-04-12T11:56:48.999Z</time></trkpt><trkpt lat="44.3928434493228" lon="11.497340004248542"><ele>240.4</ele><time>2026-04-12T11:56:49.999Z</time></trkpt><trkpt lat="44.39293739396758" lon="11.49751001289282"><ele>240.8</ele><time>2026-04-12T11:56:50.999Z</time></trkpt><trkpt lat="44.39300728751004" lon="11.497642936832563"><ele>241.2</ele><time>2026-04-12T11:56:51.999Z</time></trkpt><trkpt lat="44.393043482627604" lon="11.497751999104498"><ele>241.6</ele><time>2026-04-12T11:56:52.999Z</time></trkpt><trkpt lat="44.39305356897351" lon="11.497861442402977"><ele>242.0</ele><time>2026-04-12T11:56:53.999Z</time></trkpt><trkpt lat="44.393028772122626" lon="11.497968845551094"><ele>240.50000000000003</ele><time>2026-04-12T11:56:54.999Z</time></trkpt><trkpt lat="44.392986694693015" lon="11.498081380157815"><ele>239.0</ele><time>2026-04-12T11:56:55.998Z</time></trkpt><trkpt lat="44.392945484667955" lon="11.49818553092685"><ele>237.5</ele><time>2026-04-12T11:56:57.001Z</time></trkpt><trkpt lat="44.39293060226535" lon="11.498295002886014"><ele>236.0</ele><time>2026-04-12T11:56:58.001Z</time></trkpt><trkpt lat="44.392951504323406" lon="11.49840747604743"><ele>234.50000000000003</ele><time>2026-04-12T11:56:59.001Z</time></trkpt><trkpt lat="44.39299550609312" lon="11.49851166329949"><ele>233.0</ele><time>2026-04-12T11:57:00.001Z</time></trkpt><trkpt lat="44.3930630253005" lon="11.498590927685637"><ele>232.2</ele><time>2026-04-12T11:57:01.001Z</time></trkpt><trkpt lat="44.393133585870935" lon="11.498644337053365"><ele>231.4</ele><time>2026-04-12T11:57:02.001Z</time></trkpt><trkpt lat="44.3932199740752" lon="11.498679393182709"><ele>230.59999999999997</ele><time>2026-04-12T11:57:03.001Z</time></trkpt><trkpt lat="44.393317440926204" lon="11.498679008408208"><ele>229.79999999999998</ele><time>2026-04-12T11:57:04.001Z</time></trkpt><trkpt lat="44.39341640623861" lon="11.498646591740176"><ele>229.0</ele><time>2026-04-12T11:57:05.001Z</time></trkpt><trkpt lat="44.39350073170286" lon="11.498585560239068"><ele>228.99999999999997</ele><time>2026-04-12T11:57:06.001Z</time></trkpt><trkpt lat="44.39355922410792" lon="11.498512830808323"><ele>229.0</ele><time>2026-04-12T11:57:07.001Z</time></trkpt><trkpt lat="44.39359523667021" lon="11.498415268795412"><ele>229.0</ele><time>2026-04-12T11:57:08.001Z</time></trkpt><trkpt lat="44.393607932270164" lon="11.498308042330665"><ele>229.0</ele><time>2026-04-12T11:57:09.001Z</time></trkpt><trkpt lat="44.393603877389594" lon="11.498182482436654"><ele>228.99999999999997</ele><time>2026-04-12T11:57:10.001Z</time></trkpt><trkpt lat="44.39356824889122" lon="11.498038855045376"><ele>229.0</ele><time>2026-04-12T11:57:11.001Z</time></trkpt><trkpt lat="44.39350295620655" lon="11.49784084477957"><ele>228.79999999999998</ele><time>2026-04-12T11:57:12Z</time></trkpt><trkpt lat="44.393444366023836" lon="11.497666581162896"><ele>228.59999999999997</ele><time>2026-04-12T11:57:13Z</time></trkpt><trkpt lat="44.393400598830226" lon="11.497526398526565"><ele>228.4</ele><time>2026-04-12T11:57:14Z</time></trkpt><trkpt lat="44.39338089419359" lon="11.497430966565734"><ele>228.2</ele><time>2026-04-12T11:57:15Z</time></trkpt><trkpt lat="44.393407783956015" lon="11.497318801562361"><ele>228.0</ele><time>2026-04-12T11:57:17Z</time></trkpt><trkpt lat="44.39351476319837" lon="11.497318936584954"><ele>228.0</ele><time>2026-04-12T11:57:19Z</time></trkpt><trkpt lat="44.39354279023423" lon="11.497407284765107"><ele>228.0</ele><time>2026-04-12T11:57:20Z</time></trkpt><trkpt lat="44.393606752923844" lon="11.497492370644197"><ele>228.0</ele><time>2026-04-12T11:57:21Z</time></trkpt><trkpt lat="44.39366291475374" lon="11.497607118683897"><ele>228.0</ele><time>2026-04-12T11:57:22Z</time></trkpt><trkpt lat="44.39372603474985" lon="11.49772442032474"><ele>228.0</ele><time>2026-04-12T11:57:23Z</time></trkpt><trkpt lat="44.39379262876855" lon="11.497848078843196"><ele>224.4</ele><time>2026-04-12T11:57:24Z</time></trkpt><trkpt lat="44.39386171312711" lon="11.49796495846563"><ele>220.8</ele><time>2026-04-12T11:57:25Z</time></trkpt><trkpt lat="44.39392724357046" lon="11.498081351408885"><ele>217.2</ele><time>2026-04-12T11:57:26Z</time></trkpt><trkpt lat="44.393990123233266" lon="11.498192692782924"><ele>213.6</ele><time>2026-04-12T11:57:27Z</time></trkpt><trkpt lat="44.39404310411292" lon="11.498286910764833"><ele>210.0</ele><time>2026-04-12T11:57:28Z</time></trkpt><trkpt lat="44.39409397157132" lon="11.498367211050935"><ele>210.0</ele><time>2026-04-12T11:57:29Z</time></trkpt><trkpt lat="44.3941456763244" lon="11.498434488829819"><ele>210.0</ele><time>2026-04-12T11:57:30Z</time></trkpt><trkpt lat="44.39420760064442" lon="11.498472353003475"><ele>210.0</ele><time>2026-04-12T11:57:31Z</time></trkpt><trkpt lat="44.394326186080015" lon="11.498440703227546"><ele>210.0</ele><time>2026-04-12T11:57:33Z</time></trkpt><trkpt lat="44.39437204296241" lon="11.498359580047335"><ele>210.0</ele><time>2026-04-12T11:57:34Z</time></trkpt><trkpt lat="44.394407649259506" lon="11.49825612567659"><ele>210.0</ele><time>2026-04-12T11:57:35Z</time></trkpt><trkpt lat="44.39445931056425" lon="11.4981382964201"><ele>210.0</ele><time>2026-04-12T11:57:36Z</time></trkpt><trkpt lat="44.39449773100474" lon="11.49802417971967"><ele>210.0</ele><time>2026-04-12T11:57:37Z</time></trkpt><trkpt lat="44.39453971806824" lon="11.497924242054705"><ele>210.0</ele><time>2026-04-12T11:57:38Z</time></trkpt><trkpt lat="44.394578622575175" lon="11.497806832482247"><ele>210.0</ele><time>2026-04-12T11:57:39Z</time></trkpt><trkpt lat="44.39463725488615" lon="11.497716752502667"><ele>210.0</ele><time>2026-04-12T11:57:40Z</time></trkpt><trkpt lat="44.39470133352489" lon="11.49764860943463"><ele>210.0</ele><time>2026-04-12T11:57:41Z</time></trkpt><trkpt lat="44.3947702230786" lon="11.497606260138104"><ele>206.2</ele><time>2026-04-12T11:57:42Z</time></trkpt><trkpt lat="44.39484717010071" lon="11.497600913842511"><ele>202.4</ele><time>2026-04-12T11:57:43Z</time></trkpt><trkpt lat="44.394922588392674" lon="11.497629303042139"><ele>198.60000000000002</ele><time>2026-04-12T11:57:44Z</time></trkpt><trkpt lat="44.394995177058405" lon="11.49768050764134"><ele>194.8</ele><time>2026-04-12T11:57:45Z</time></trkpt><trkpt lat="44.39508171857625" lon="11.497759400144044"><ele>191.0</ele><time>2026-04-12T11:57:46Z</time></trkpt><trkpt lat="44.395171992005686" lon="11.497858669325755"><ele>191.4</ele><time>2026-04-12T11:57:47Z</time></trkpt><trkpt lat="44.39525423408629" lon="11.497962531320114"><ele>191.8</ele><time>2026-04-12T11:57:48Z</time></trkpt><trkpt lat="44.395336410071984" lon="11.498061071261667"><ele>192.20000000000002</ele><time>2026-04-12T11:57:49Z</time></trkpt><trkpt lat="44.3954262396814" lon="11.498142102928744"><ele>192.60000000000002</ele><time>2026-04-12T11:57:50Z</time></trkpt><trkpt lat="44.39553067296762" lon="11.498217995092258"><ele>193.0</ele><time>2026-04-12T11:57:51Z</time></trkpt><trkpt lat="44.395641809086136" lon="11.49829114939217"><ele>189.25</ele><time>2026-04-12T11:57:52Z</time></trkpt><trkpt lat="44.39575726386821" lon="11.498350585484742"><ele>185.5</ele><time>2026-04-12T11:57:53Z</time></trkpt><trkpt lat="44.395872984355755" lon="11.498405119281376"><ele>181.75</ele><time>2026-04-12T11:57:54Z</time></trkpt><trkpt lat="44.3960005991579" lon="11.498477852951405"><ele>178.0</ele><time>2026-04-12T11:57:55Z</time></trkpt><trkpt lat="44.396148007139395" lon="11.498583037617252"><ele>178.0</ele><time>2026-04-12T11:57:56Z</time></trkpt><trkpt lat="44.39630742610829" lon="11.498723830272565"><ele>178.0</ele><time>2026-04-12T11:57:57Z</time></trkpt><trkpt lat="44.39647295038157" lon="11.4988765932309"><ele>178.0</ele><time>2026-04-12T11:57:58Z</time></trkpt><trkpt lat="44.39662005639793" lon="11.499010426673895"><ele>174.33333333333334</ele><time>2026-04-12T11:57:59Z</time></trkpt><trkpt lat="44.39676084807995" lon="11.499138246508213"><ele>170.66666666666666</ele><time>2026-04-12T11:58:00Z</time></trkpt><trkpt lat="44.396930555136656" lon="11.499292285963483"><ele>167.0</ele><time>2026-04-12T11:58:01Z</time></trkpt><trkpt lat="44.39711508424491" lon="11.499456908040314"><ele>166.0</ele><time>2026-04-12T11:58:02Z</time></trkpt><trkpt lat="44.39728362959881" lon="11.499601351156826"><ele>165.0</ele><time>2026-04-12T11:58:03Z</time></trkpt><trkpt lat="44.39743853079157" lon="11.499737606635916"><ele>164.0</ele><time>2026-04-12T11:58:04Z</time></trkpt><trkpt lat="44.397568775625814" lon="11.499893653036496"><ele>164.0</ele><time>2026-04-12T11:58:04.999Z</time></trkpt><trkpt lat="44.39765808323777" lon="11.500060934700544"><ele>164.0</ele><time>2026-04-12T11:58:05.999Z</time></trkpt><trkpt lat="44.397728583955555" lon="11.500249079817879"><ele>164.0</ele><time>2026-04-12T11:58:06.999Z</time></trkpt><trkpt lat="44.397787133573146" lon="11.500436655964418"><ele>164.0</ele><time>2026-04-12T11:58:07.999Z</time></trkpt><trkpt lat="44.39788330498278" lon="11.500593639549615"><ele>163.0</ele><time>2026-04-12T11:58:08.999Z</time></trkpt><trkpt lat="44.397957048137954" lon="11.500737318813629"><ele>162.0</ele><time>2026-04-12T11:58:09.999Z</time></trkpt><trkpt lat="44.39806183644509" lon="11.500865508495226"><ele>161.0</ele><time>2026-04-12T11:58:10.999Z</time></trkpt><trkpt lat="44.398180534334024" lon="11.500971997226378"><ele>160.0</ele><time>2026-04-12T11:58:11.999Z</time></trkpt><trkpt lat="44.39829529047468" lon="11.50105320554834"><ele>160.0</ele><time>2026-04-12T11:58:12.999Z</time></trkpt><trkpt lat="44.39840790431895" lon="11.501110817038215"><ele>160.0</ele><time>2026-04-12T11:58:13.999Z</time></trkpt><trkpt lat="44.39854513605017" lon="11.501134689159395"><ele>160.0</ele><time>2026-04-12T11:58:14.999Z</time></trkpt><trkpt lat="44.39868593267949" lon="11.501142579972528"><ele>160.0</ele><time>2026-04-12T11:58:15.999Z</time></trkpt><trkpt lat="44.39882094883371" lon="11.501162572892632"><ele>159.0</ele><time>2026-04-12T11:58:16.999Z</time></trkpt><trkpt lat="44.39895506800862" lon="11.501189691140489"><ele>158.0</ele><time>2026-04-12T11:58:17.999Z</time></trkpt><trkpt lat="44.39909031081291" lon="11.501220644376746"><ele>157.0</ele><time>2026-04-12T11:58:18.999Z</time></trkpt><trkpt lat="44.3992117482622" lon="11.50129044314593"><ele>156.0</ele><time>2026-04-12T11:58:19.999Z</time></trkpt><trkpt lat="44.399322970206335" lon="11.501370222172627"><ele>155.6</ele><time>2026-04-12T11:58:20.999Z</time></trkpt><trkpt lat="44.39942375359284" lon="11.501447128733087"><ele>155.2</ele><time>2026-04-12T11:58:21.999Z</time></trkpt><trkpt lat="44.39951394832568" lon="11.501529144260852"><ele>154.8</ele><time>2026-04-12T11:58:22.999Z</time></trkpt><trkpt lat="44.39958883467309" lon="11.501579626837213"><ele>154.4</ele><time>2026-04-12T11:58:23.999Z</time></trkpt><trkpt lat="44.399660045870974" lon="11.501595549112904"><ele>154.0</ele><time>2026-04-12T11:58:24.999Z</time></trkpt><trkpt lat="44.399735753019954" lon="11.501558807927394"><ele>152.5</ele><time>2026-04-12T11:58:25.999Z</time></trkpt><trkpt lat="44.399810098906435" lon="11.50147033915004"><ele>151.0</ele><time>2026-04-12T11:58:26.999Z</time></trkpt><trkpt lat="44.399901997833666" lon="11.501347726946129"><ele>149.5</ele><time>2026-04-12T11:58:27.999Z</time></trkpt><trkpt lat="44.40000680206417" lon="11.501197573078942"><ele>148.0</ele><time>2026-04-12T11:58:28.999Z</time></trkpt><trkpt lat="44.400103453526384" lon="11.50108040152448"><ele>148.0</ele><time>2026-04-12T11:58:29.999Z</time></trkpt><trkpt lat="44.40018167535385" lon="11.500962151554667"><ele>148.0</ele><time>2026-04-12T11:58:30.999Z</time></trkpt><trkpt lat="44.40023948476208" lon="11.500834395480892"><ele>148.0</ele><time>2026-04-12T11:58:31.999Z</time></trkpt><trkpt lat="44.40027877289403" lon="11.500721838415167"><ele>148.0</ele><time>2026-04-12T11:58:32.999Z</time></trkpt><trkpt lat="44.40030991354873" lon="11.500620200912987"><ele>148.0</ele><time>2026-04-12T11:58:33.999Z</time></trkpt><trkpt lat="44.40034267661975" lon="11.500539559796387"><ele>148.0</ele><time>2026-04-12T11:58:34.999Z</time></trkpt><trkpt lat="44.40044807978495" lon="11.500454239855049"><ele>148.0</ele><time>2026-04-12T11:58:36.999Z</time></trkpt><trkpt lat="44.4005144909927" lon="11.500515955054889"><ele>148.0</ele><time>2026-04-12T11:58:37.999Z</time></trkpt><trkpt lat="44.40060473901822" lon="11.500575555495182"><ele>148.0</ele><time>2026-04-12T11:58:38.999Z</time></trkpt><trkpt lat="44.400716205606216" lon="11.50067496088174"><ele>148.0</ele><time>2026-04-12T11:58:39.999Z</time></trkpt><trkpt lat="44.40083329971117" lon="11.500762532225531"><ele>144.25</ele><time>2026-04-12T11:58:40.999Z</time></trkpt><trkpt lat="44.40094228127231" lon="11.50084332223485"><ele>140.5</ele><time>2026-04-12T11:58:41.999Z</time></trkpt><trkpt lat="44.40107196104452" lon="11.5009376655403"><ele>136.75</ele><time>2026-04-12T11:58:42.999Z</time></trkpt><trkpt lat="44.40121901992097" lon="11.501043785520803"><ele>133.0</ele><time>2026-04-12T11:58:43.999Z</time></trkpt><trkpt lat="44.40135753689854" lon="11.501143366948051"><ele>130.75</ele><time>2026-04-12T11:58:44.999Z</time></trkpt><trkpt lat="44.40149308553355" lon="11.50123856351842"><ele>128.5</ele><time>2026-04-12T11:58:45.999Z</time></trkpt><trkpt lat="44.40162717524812" lon="11.501326087943267"><ele>126.25</ele><time>2026-04-12T11:58:46.999Z</time></trkpt><trkpt lat="44.40175119569477" lon="11.501420275953675"><ele>124.0</ele><time>2026-04-12T11:58:47.999Z</time></trkpt><trkpt lat="44.401878277586796" lon="11.501510786465458"><ele>122.75</ele><time>2026-04-12T11:58:48.999Z</time></trkpt><trkpt lat="44.40200324060357" lon="11.501597901002757"><ele>121.5</ele><time>2026-04-12T11:58:49.999Z</time></trkpt><trkpt lat="44.40212840210122" lon="11.501680549699573"><ele>120.25</ele><time>2026-04-12T11:58:50.999Z</time></trkpt><trkpt lat="44.40225586164168" lon="11.501763795113284"><ele>119.0</ele><time>2026-04-12T11:58:51.999Z</time></trkpt><trkpt lat="44.402378191336844" lon="11.501860832346521"><ele>118.25</ele><time>2026-04-12T11:58:52.999Z</time></trkpt><trkpt lat="44.4024855074121" lon="11.50198776145325"><ele>117.5</ele><time>2026-04-12T11:58:53.999Z</time></trkpt><trkpt lat="44.402576970768216" lon="11.502138374408345"><ele>116.75</ele><time>2026-04-12T11:58:54.999Z</time></trkpt><trkpt lat="44.402649840974256" lon="11.502303265606175"><ele>116.0</ele><time>2026-04-12T11:58:55.999Z</time></trkpt><trkpt lat="44.40271058444448" lon="11.502457834585577"><ele>115.33333333333333</ele><time>2026-04-12T11:58:56.999Z</time></trkpt><trkpt lat="44.40275883723728" lon="11.502586693656717"><ele>114.66666666666666</ele><time>2026-04-12T11:58:57.998Z</time></trkpt><trkpt lat="44.40280085914538" lon="11.502684163263705"><ele>114.0</ele><time>2026-04-12T11:58:58.998Z</time></trkpt><trkpt lat="44.40284207757824" lon="11.502758393009186"><ele>113.33333333333334</ele><time>2026-04-12T11:58:59.998Z</time></trkpt><trkpt lat="44.402902526636446" lon="11.50281590147488"><ele>112.66666666666667</ele><time>2026-04-12T11:59:00.998Z</time></trkpt><trkpt lat="44.40299952426902" lon="11.50284367696197"><ele>112.0</ele><time>2026-04-12T11:59:01.998Z</time></trkpt><trkpt lat="44.40311991410591" lon="11.502849115505722"><ele>111.0</ele><time>2026-04-12T11:59:03Z</time></trkpt><trkpt lat="44.40326067122036" lon="11.502843526359914"><ele>110.0</ele><time>2026-04-12T11:59:04Z</time></trkpt><trkpt lat="44.40338726956546" lon="11.502840420222741"><ele>109.0</ele><time>2026-04-12T11:59:05Z</time></trkpt><trkpt lat="44.403496343219274" lon="11.50282461495446"><ele>108.0</ele><time>2026-04-12T11:59:06Z</time></trkpt><trkpt lat="44.40360070826356" lon="11.502780232806249"><ele>108.0</ele><time>2026-04-12T11:59:07Z</time></trkpt><trkpt lat="44.40369020737422" lon="11.502724491299125"><ele>108.00000000000001</ele><time>2026-04-12T11:59:08Z</time></trkpt><trkpt lat="44.40377211207119" lon="11.502658802545762"><ele>108.00000000000001</ele><time>2026-04-12T11:59:09Z</time></trkpt><trkpt lat="44.403864485110866" lon="11.50258869594839"><ele>108.0</ele><time>2026-04-12T11:59:10Z</time></trkpt><trkpt lat="44.40395705539494" lon="11.502522261252869"><ele>108.0</ele><time>2026-04-12T11:59:11Z</time></trkpt><trkpt lat="44.404040314350326" lon="11.50247198560014"><ele>107.66666666666667</ele><time>2026-04-12T11:59:12Z</time></trkpt><trkpt lat="44.40411856008197" lon="11.502435845781765"><ele>107.33333333333334</ele><time>2026-04-12T11:59:13Z</time></trkpt><trkpt lat="44.40419320299103" lon="11.502422873526239"><ele>107.0</ele><time>2026-04-12T11:59:14Z</time></trkpt><trkpt lat="44.40425657214359" lon="11.502442200563927"><ele>106.66666666666667</ele><time>2026-04-12T11:59:15Z</time></trkpt><trkpt lat="44.404357641189144" lon="11.502543210638096"><ele>106.33333333333334</ele><time>2026-04-12T11:59:17Z</time></trkpt><trkpt lat="44.4044108116528" lon="11.502599409098076"><ele>106.0</ele><time>2026-04-12T11:59:18Z</time></trkpt><trkpt lat="44.404475377313844" lon="11.502660420582984"><ele>106.00000000000001</ele><time>2026-04-12T11:59:19Z</time></trkpt><trkpt lat="44.40454702164848" lon="11.502719827829246"><ele>106.0</ele><time>2026-04-12T11:59:20Z</time></trkpt><trkpt lat="44.40462752676455" lon="11.502772742323732"><ele>106.0</ele><time>2026-04-12T11:59:21Z</time></trkpt><trkpt lat="44.4047130447824" lon="11.50281162311809"><ele>106.0</ele><time>2026-04-12T11:59:22Z</time></trkpt><trkpt lat="44.40480486753911" lon="11.502826945859795"><ele>106.00000000000001</ele><time>2026-04-12T11:59:23Z</time></trkpt><trkpt lat="44.40489865940402" lon="11.502830720233415"><ele>106.0</ele><time>2026-04-12T11:59:24Z</time></trkpt><trkpt lat="44.4049917404316" lon="11.502813138789664"><ele>105.8</ele><time>2026-04-12T11:59:25Z</time></trkpt><trkpt lat="44.4050815283844" lon="11.502767130545715"><ele>105.6</ele><time>2026-04-12T11:59:26Z</time></trkpt><trkpt lat="44.40516724865289" lon="11.502702545023663"><ele>105.4</ele><time>2026-04-12T11:59:27Z</time></trkpt><trkpt lat="44.40525653138363" lon="11.502655826457627"><ele>105.2</ele><time>2026-04-12T11:59:28Z</time></trkpt><trkpt lat="44.405341522099974" lon="11.502598361530813"><ele>105.0</ele><time>2026-04-12T11:59:29Z</time></trkpt><trkpt lat="44.405422007027575" lon="11.502527833893142"><ele>104.6</ele><time>2026-04-12T11:59:30Z</time></trkpt><trkpt lat="44.40551799061595" lon="11.502506368743585"><ele>104.2</ele><time>2026-04-12T11:59:31Z</time></trkpt><trkpt lat="44.405607101381115" lon="11.50245468292302"><ele>103.80000000000001</ele><time>2026-04-12T11:59:32Z</time></trkpt><trkpt lat="44.40570205332272" lon="11.502455476657868"><ele>103.4</ele><time>2026-04-12T11:59:33Z</time></trkpt><trkpt lat="44.40578678326131" lon="11.50241790958757"><ele>103.0</ele><time>2026-04-12T11:59:34Z</time></trkpt><trkpt lat="44.40587398601624" lon="11.502408291558961"><ele>103.0</ele><time>2026-04-12T11:59:35Z</time></trkpt><trkpt lat="44.40596869267085" lon="11.50239425820368"><ele>103.0</ele><time>2026-04-12T11:59:36Z</time></trkpt><trkpt lat="44.40606170761164" lon="11.502382947952173"><ele>103.0</ele><time>2026-04-12T11:59:37Z</time></trkpt><trkpt lat="44.406153939848664" lon="11.502376477928705"><ele>103.0</ele><time>2026-04-12T11:59:38Z</time></trkpt><trkpt lat="44.40624617402325" lon="11.502380097467272"><ele>103.0</ele><time>2026-04-12T11:59:39Z</time></trkpt><trkpt lat="44.40633592513711" lon="11.502408657096547"><ele>102.60000000000001</ele><time>2026-04-12T11:59:40Z</time></trkpt><trkpt lat="44.406421832872354" lon="11.502454593578745"><ele>102.2</ele><time>2026-04-12T11:59:41Z</time></trkpt><trkpt lat="44.40650327962008" lon="11.502518267614114"><ele>101.8</ele><time>2026-04-12T11:59:42Z</time></trkpt><trkpt lat="44.406578101988856" lon="11.502584592223945"><ele>101.4</ele><time>2026-04-12T11:59:43Z</time></trkpt><trkpt lat="44.406655314356264" lon="11.502648402184569"><ele>101.0</ele><time>2026-04-12T11:59:44Z</time></trkpt><trkpt lat="44.406736168465265" lon="11.502709823269058"><ele>100.99999999999999</ele><time>2026-04-12T11:59:45Z</time></trkpt><trkpt lat="44.4068099764047" lon="11.502771329480083"><ele>101.0</ele><time>2026-04-12T11:59:46Z</time></trkpt><trkpt lat="44.40688698528428" lon="11.50283055008583"><ele>101.0</ele><time>2026-04-12T11:59:47Z</time></trkpt><trkpt lat="44.406956072262034" lon="11.502882431713624"><ele>101.0</ele><time>2026-04-12T11:59:48Z</time></trkpt><trkpt lat="44.40702506850159" lon="11.502930030325356"><ele>100.99999999999999</ele><time>2026-04-12T11:59:49Z</time></trkpt><trkpt lat="44.407091160948966" lon="11.502983929621692"><ele>101.0</ele><time>2026-04-12T11:59:50Z</time></trkpt><trkpt lat="44.40715442686686" lon="11.503028133921328"><ele>100.66666666666666</ele><time>2026-04-12T11:59:51Z</time></trkpt><trkpt lat="44.4072237773618" lon="11.503071565070496"><ele>100.33333333333333</ele><time>2026-04-12T11:59:52Z</time></trkpt><trkpt lat="44.40728684039535" lon="11.50310827303897"><ele>100.0</ele><time>2026-04-12T11:59:53Z</time></trkpt><trkpt lat="44.40735074680475" lon="11.503137770707843"><ele>99.66666666666666</ele><time>2026-04-12T11:59:54Z</time></trkpt><trkpt lat="44.40746535540281" lon="11.503198016772"><ele>99.33333333333333</ele><time>2026-04-12T11:59:56Z</time></trkpt><trkpt lat="44.407569550140295" lon="11.503240455863496"><ele>99.0</ele><time>2026-04-12T11:59:58Z</time></trkpt><trkpt lat="44.40763944095477" lon="11.503278949976755"><ele>99.0</ele><time>2026-04-12T12:00:00Z</time></trkpt><trkpt lat="44.407759421457385" lon="11.503239736041802"><ele>99.0</ele><time>2026-04-12T12:00:08.999Z</time></trkpt><trkpt lat="44.40781896964832" lon="11.503179241495268"><ele>99.0</ele><time>2026-04-12T12:00:09.999Z</time></trkpt><trkpt lat="44.40787068433711" lon="11.503109936051548"><ele>99.0</ele><time>2026-04-12T12:00:10.999Z</time></trkpt><trkpt lat="44.407953646320955" lon="11.50300427419763"><ele>99.0</ele><time>2026-04-12T12:00:12.999Z</time></trkpt><trkpt lat="44.40802153959367" lon="11.50293507451017"><ele>99.16666666666667</ele><time>2026-04-12T12:00:14.999Z</time></trkpt><trkpt lat="44.40808975375808" lon="11.502881293989642"><ele>99.33333333333334</ele><time>2026-04-12T12:00:16.999Z</time></trkpt><trkpt lat="44.40816088087033" lon="11.502895007260335"><ele>99.5</ele><time>2026-04-12T12:00:18.999Z</time></trkpt><trkpt lat="44.4082520797799" lon="11.502994650173672"><ele>99.66666666666667</ele><time>2026-04-12T12:00:20.999Z</time></trkpt><trkpt lat="44.40830974193162" lon="11.50307531754224"><ele>99.83333333333334</ele><time>2026-04-12T12:00:21.999Z</time></trkpt><trkpt lat="44.40838037737803" lon="11.503173540216004"><ele>100.0</ele><time>2026-04-12T12:00:22.999Z</time></trkpt><trkpt lat="44.40845340396147" lon="11.503286973362238"><ele>100.0</ele><time>2026-04-12T12:00:23.999Z</time></trkpt><trkpt lat="44.40852865515158" lon="11.50340527831272"><ele>100.0</ele><time>2026-04-12T12:00:24.999Z</time></trkpt><trkpt lat="44.40860234196332" lon="11.503512467143823"><ele>100.0</ele><time>2026-04-12T12:00:25.999Z</time></trkpt><trkpt lat="44.40868088529472" lon="11.503629879557973"><ele>100.0</ele><time>2026-04-12T12:00:26.999Z</time></trkpt><trkpt lat="44.40876934368461" lon="11.503752136831881"><ele>100.0</ele><time>2026-04-12T12:00:27.999Z</time></trkpt><trkpt lat="44.40885859798652" lon="11.503881602255639"><ele>100.0</ele><time>2026-04-12T12:00:28.999Z</time></trkpt><trkpt lat="44.40895048181059" lon="11.504011462050844"><ele>100.0</ele><time>2026-04-12T12:00:29.999Z</time></trkpt><trkpt lat="44.40904256845275" lon="11.504146348535965"><ele>100.0</ele><time>2026-04-12T12:00:30.999Z</time></trkpt><trkpt lat="44.409129452534614" lon="11.504277796677723"><ele>100.0</ele><time>2026-04-12T12:00:31.999Z</time></trkpt><trkpt lat="44.40921189432441" lon="11.504390429179827"><ele>100.0</ele><time>2026-04-12T12:00:32.999Z</time></trkpt><trkpt lat="44.40928898235045" lon="11.504493548679601"><ele>100.0</ele><time>2026-04-12T12:00:33.999Z</time></trkpt><trkpt lat="44.40936095346383" lon="11.504588973921441"><ele>100.0</ele><time>2026-04-12T12:00:34.999Z</time></trkpt><trkpt lat="44.40943074824437" lon="11.504679105375818"><ele>100.0</ele><time>2026-04-12T12:00:35.999Z</time></trkpt><trkpt lat="44.40950831162306" lon="11.50475688548906"><ele>99.8</ele><time>2026-04-12T12:00:36.999Z</time></trkpt><trkpt lat="44.40958367827802" lon="11.504812937056053"><ele>99.6</ele><time>2026-04-12T12:00:37.999Z</time></trkpt><trkpt lat="44.40964709948886" lon="11.504843825231381"><ele>99.4</ele><time>2026-04-12T12:00:38.999Z</time></trkpt><trkpt lat="44.409734459388716" lon="11.504870093952867"><ele>99.2</ele><time>2026-04-12T12:00:40.999Z</time></trkpt><trkpt lat="44.40979757149321" lon="11.504746249791804"><ele>99.0</ele><time>2026-04-12T12:00:42.999Z</time></trkpt><trkpt lat="44.40986148033285" lon="11.504628854210134"><ele>99.6</ele><time>2026-04-12T12:00:44.999Z</time></trkpt><trkpt lat="44.40991469971605" lon="11.504535939794524"><ele>100.2</ele><time>2026-04-12T12:00:45.999Z</time></trkpt><trkpt lat="44.4099638349388" lon="11.504423890458927"><ele>100.8</ele><time>2026-04-12T12:00:46.999Z</time></trkpt><trkpt lat="44.41002907623596" lon="11.504289500918649"><ele>101.39999999999999</ele><time>2026-04-12T12:00:47.999Z</time></trkpt><trkpt lat="44.41009324886163" lon="11.50412623177861"><ele>102.0</ele><time>2026-04-12T12:00:48.999Z</time></trkpt><trkpt lat="44.41015567590522" lon="11.503966384129013"><ele>102.0</ele><time>2026-04-12T12:00:49.999Z</time></trkpt><trkpt lat="44.410221634191814" lon="11.50380786449555"><ele>102.0</ele><time>2026-04-12T12:00:50.999Z</time></trkpt><trkpt lat="44.41028872697017" lon="11.503634693856009"><ele>102.0</ele><time>2026-04-12T12:00:51.999Z</time></trkpt><trkpt lat="44.41034647448897" lon="11.503497162945964"><ele>102.0</ele><time>2026-04-12T12:00:52.999Z</time></trkpt><trkpt lat="44.41039292386114" lon="11.503371384785082"><ele>103.75</ele><time>2026-04-12T12:00:53.999Z</time></trkpt><trkpt lat="44.410442322304746" lon="11.503246195043525"><ele>105.5</ele><time>2026-04-12T12:00:54.999Z</time></trkpt><trkpt lat="44.41049424245369" lon="11.503115185136103"><ele>107.25</ele><time>2026-04-12T12:00:55.999Z</time></trkpt><trkpt lat="44.410525683188844" lon="11.502959764302316"><ele>109.0</ele><time>2026-04-12T12:00:56.999Z</time></trkpt><trkpt lat="44.41056055193292" lon="11.502766101699173"><ele>111.4</ele><time>2026-04-12T12:00:57.999Z</time></trkpt><trkpt lat="44.410588785372724" lon="11.502601908750238"><ele>113.80000000000001</ele><time>2026-04-12T12:00:58.999Z</time></trkpt><trkpt lat="44.4106091604587" lon="11.502471085585452"><ele>116.19999999999999</ele><time>2026-04-12T12:00:59.999Z</time></trkpt><trkpt lat="44.410622958117365" lon="11.502336635915263"><ele>118.6</ele><time>2026-04-12T12:01:00.999Z</time></trkpt><trkpt lat="44.41064583069082" lon="11.502191108933475"><ele>121.0</ele><time>2026-04-12T12:01:01.998Z</time></trkpt><trkpt lat="44.41065816444724" lon="11.502042329727512"><ele>122.19999999999999</ele><time>2026-04-12T12:01:02.998Z</time></trkpt><trkpt lat="44.41066014812224" lon="11.501901095856967"><ele>123.39999999999999</ele><time>2026-04-12T12:01:03.998Z</time></trkpt><trkpt lat="44.41064230431987" lon="11.501765802336804"><ele>124.6</ele><time>2026-04-12T12:01:04.998Z</time></trkpt><trkpt lat="44.41060931844339" lon="11.501629054632566"><ele>125.8</ele><time>2026-04-12T12:01:05.998Z</time></trkpt><trkpt lat="44.410568641593365" lon="11.501509404035987"><ele>127.0</ele><time>2026-04-12T12:01:06.998Z</time></trkpt><trkpt lat="44.41053060383208" lon="11.501386458927652"><ele>127.0</ele><time>2026-04-12T12:01:08Z</time></trkpt><trkpt lat="44.41051289880893" lon="11.501265559842487"><ele>127.0</ele><time>2026-04-12T12:01:09Z</time></trkpt><trkpt lat="44.41054300321608" lon="11.501141776927911"><ele>127.0</ele><time>2026-04-12T12:01:10Z</time></trkpt><trkpt lat="44.410562273675346" lon="11.500954148172553"><ele>127.0</ele><time>2026-04-12T12:01:11Z</time></trkpt><trkpt lat="44.41058687921806" lon="11.50072171496974"><ele>128.5</ele><time>2026-04-12T12:01:12Z</time></trkpt><trkpt lat="44.41060171915757" lon="11.500503622079025"><ele>130.0</ele><time>2026-04-12T12:01:13Z</time></trkpt><trkpt lat="44.41061996163524" lon="11.50028837673061"><ele>131.5</ele><time>2026-04-12T12:01:14Z</time></trkpt><trkpt lat="44.41063487765249" lon="11.500132089604895"><ele>133.0</ele><time>2026-04-12T12:01:15Z</time></trkpt><trkpt lat="44.41063556560914" lon="11.50002709941152"><ele>133.4</ele><time>2026-04-12T12:01:16Z</time></trkpt><trkpt lat="44.41062813833933" lon="11.499938341325812"><ele>133.8</ele><time>2026-04-12T12:01:17Z</time></trkpt><trkpt lat="44.4105624369818" lon="11.499863660301973"><ele>134.2</ele><time>2026-04-12T12:01:18Z</time></trkpt><trkpt lat="44.410491023133595" lon="11.499764937580604"><ele>134.6</ele><time>2026-04-12T12:01:19Z</time></trkpt><trkpt lat="44.410355506416344" lon="11.499683451667298"><ele>135.0</ele><time>2026-04-12T12:01:20Z</time></trkpt><trkpt lat="44.410222057550705" lon="11.49953553094935"><ele>138.33333333333334</ele><time>2026-04-12T12:01:21Z</time></trkpt><trkpt lat="44.410072826408694" lon="11.49939762326696"><ele>141.66666666666669</ele><time>2026-04-12T12:01:22Z</time></trkpt><trkpt lat="44.40993476168875" lon="11.499271701402538"><ele>145.0</ele><time>2026-04-12T12:01:23Z</time></trkpt><trkpt lat="44.40981597756044" lon="11.499163364467568"><ele>145.0</ele><time>2026-04-12T12:01:24Z</time></trkpt><trkpt lat="44.40971304106221" lon="11.499069296901235"><ele>145.0</ele><time>2026-04-12T12:01:25Z</time></trkpt><trkpt lat="44.40961590763495" lon="11.498978319164012"><ele>145.0</ele><time>2026-04-12T12:01:26Z</time></trkpt><trkpt lat="44.409515789060386" lon="11.498883712602556"><ele>145.0</ele><time>2026-04-12T12:01:27Z</time></trkpt><trkpt lat="44.40941141499934" lon="11.498785084867702"><ele>145.75</ele><time>2026-04-12T12:01:28Z</time></trkpt><trkpt lat="44.40930563342744" lon="11.49868512705029"><ele>146.5</ele><time>2026-04-12T12:01:29Z</time></trkpt><trkpt lat="44.40920031316805" lon="11.498585605209803"><ele>147.25</ele><time>2026-04-12T12:01:30Z</time></trkpt><trkpt lat="44.40908753674715" lon="11.49847903769645"><ele>148.0</ele><time>2026-04-12T12:01:31Z</time></trkpt><trkpt lat="44.40897219400932" lon="11.498372187271643"><ele>148.0</ele><time>2026-04-12T12:01:32Z</time></trkpt><trkpt lat="44.40885834102438" lon="11.498266952672212"><ele>148.0</ele><time>2026-04-12T12:01:33Z</time></trkpt><trkpt lat="44.40874228726211" lon="11.498159683954288"><ele>148.0</ele><time>2026-04-12T12:01:34Z</time></trkpt><trkpt lat="44.408623344735524" lon="11.498049745072272"><ele>148.0</ele><time>2026-04-12T12:01:35Z</time></trkpt><trkpt lat="44.40850280787724" lon="11.497938332609891"><ele>149.5</ele><time>2026-04-12T12:01:36Z</time></trkpt><trkpt lat="44.40838020361821" lon="11.4978250092137"><ele>151.0</ele><time>2026-04-12T12:01:37Z</time></trkpt><trkpt lat="44.40825614588168" lon="11.497710342375472"><ele>152.5</ele><time>2026-04-12T12:01:38Z</time></trkpt><trkpt lat="44.40813675395766" lon="11.497599988101827"><ele>154.0</ele><time>2026-04-12T12:01:39Z</time></trkpt><trkpt lat="44.40801667365812" lon="11.497488997640202"><ele>154.25</ele><time>2026-04-12T12:01:40Z</time></trkpt><trkpt lat="44.40789539071103" lon="11.497376895535048"><ele>154.5</ele><time>2026-04-12T12:01:41Z</time></trkpt><trkpt lat="44.407776367968694" lon="11.497266882537339"><ele>154.75</ele><time>2026-04-12T12:01:42Z</time></trkpt><trkpt lat="44.40764408933907" lon="11.497171840361178"><ele>155.0</ele><time>2026-04-12T12:01:43Z</time></trkpt><trkpt lat="44.40752469433023" lon="11.497059648756455"><ele>155.25</ele><time>2026-04-12T12:01:44Z</time></trkpt><trkpt lat="44.40741773258947" lon="11.496935395033846"><ele>155.5</ele><time>2026-04-12T12:01:45Z</time></trkpt><trkpt lat="44.40730594077944" lon="11.496832065580998"><ele>155.75</ele><time>2026-04-12T12:01:46Z</time></trkpt><trkpt lat="44.40719227649843" lon="11.496727005423095"><ele>156.0</ele><time>2026-04-12T12:01:47Z</time></trkpt><trkpt lat="44.40707639510712" lon="11.496619896059617"><ele>158.0</ele><time>2026-04-12T12:01:48Z</time></trkpt><trkpt lat="44.406952868222646" lon="11.496531791171295"><ele>160.0</ele><time>2026-04-12T12:01:49Z</time></trkpt><trkpt lat="44.40684086084747" lon="11.49642567505388"><ele>162.0</ele><time>2026-04-12T12:01:50Z</time></trkpt><trkpt lat="44.406733312447486" lon="11.496324926309851"><ele>164.0</ele><time>2026-04-12T12:01:51Z</time></trkpt><trkpt lat="44.40663661800863" lon="11.496231870533647"><ele>164.0</ele><time>2026-04-12T12:01:52Z</time></trkpt><trkpt lat="44.40654558113369" lon="11.496128227489084"><ele>164.0</ele><time>2026-04-12T12:01:53Z</time></trkpt><trkpt lat="44.406440809735464" lon="11.496027172419101"><ele>164.0</ele><time>2026-04-12T12:01:54Z</time></trkpt><trkpt lat="44.40632498289944" lon="11.495915264614217"><ele>164.0</ele><time>2026-04-12T12:01:55Z</time></trkpt><trkpt lat="44.40619805331251" lon="11.495792671780679"><ele>165.66666666666666</ele><time>2026-04-12T12:01:56Z</time></trkpt><trkpt lat="44.40605871747377" lon="11.4956545401496"><ele>167.33333333333334</ele><time>2026-04-12T12:01:57Z</time></trkpt><trkpt lat="44.405897847007715" lon="11.495490883315071"><ele>169.0</ele><time>2026-04-12T12:01:58Z</time></trkpt><trkpt lat="44.40577330721075" lon="11.495364186435204"><ele>170.0</ele><time>2026-04-12T12:01:59Z</time></trkpt><trkpt lat="44.40566268128089" lon="11.495251280994943"><ele>171.0</ele><time>2026-04-12T12:02:00Z</time></trkpt><trkpt lat="44.40554641782408" lon="11.49513022420667"><ele>172.0</ele><time>2026-04-12T12:02:01Z</time></trkpt><trkpt lat="44.405444300796745" lon="11.495023671191298"><ele>173.0</ele><time>2026-04-12T12:02:02Z</time></trkpt><trkpt lat="44.40536468031936" lon="11.494929922047895"><ele>173.0</ele><time>2026-04-12T12:02:03Z</time></trkpt><trkpt lat="44.405302375159025" lon="11.494845805731504"><ele>173.0</ele><time>2026-04-12T12:02:04Z</time></trkpt><trkpt lat="44.405256298580596" lon="11.494757335386122"><ele>173.0</ele><time>2026-04-12T12:02:05Z</time></trkpt><trkpt lat="44.40525226707824" lon="11.494645723143186"><ele>173.0</ele><time>2026-04-12T12:02:06Z</time></trkpt><trkpt lat="44.405244938326916" lon="11.494472418850162"><ele>173.0</ele><time>2026-04-12T12:02:07Z</time></trkpt><trkpt lat="44.40524088611278" lon="11.494221214347746"><ele>174.33333333333331</ele><time>2026-04-12T12:02:08Z</time></trkpt><trkpt lat="44.40522984333734" lon="11.493913633948285"><ele>175.66666666666666</ele><time>2026-04-12T12:02:09Z</time></trkpt><trkpt lat="44.40521978744393" lon="11.493652361843628"><ele>177.0</ele><time>2026-04-12T12:02:10Z</time></trkpt><trkpt lat="44.405213818795794" lon="11.493408775555292"><ele>178.66666666666666</ele><time>2026-04-12T12:02:11Z</time></trkpt><trkpt lat="44.40520849306538" lon="11.493124540132353"><ele>180.33333333333331</ele><time>2026-04-12T12:02:11.999Z</time></trkpt><trkpt lat="44.405221047697815" lon="11.492796443975969"><ele>182.0</ele><time>2026-04-12T12:02:12.999Z</time></trkpt><trkpt lat="44.40521450974874" lon="11.492504475139738"><ele>182.33333333333331</ele><time>2026-04-12T12:02:13.999Z</time></trkpt><trkpt lat="44.405208595727274" lon="11.492247782834962"><ele>182.66666666666666</ele><time>2026-04-12T12:02:14.999Z</time></trkpt><trkpt lat="44.405186849152045" lon="11.492011624752832"><ele>183.0</ele><time>2026-04-12T12:02:15.999Z</time></trkpt><trkpt lat="44.40518225772027" lon="11.49176773624773"><ele>184.0</ele><time>2026-04-12T12:02:16.999Z</time></trkpt><trkpt lat="44.405191974643216" lon="11.491525763388063"><ele>185.0</ele><time>2026-04-12T12:02:17.999Z</time></trkpt><trkpt lat="44.40518653492094" lon="11.49128883631204"><ele>186.0</ele><time>2026-04-12T12:02:18.999Z</time></trkpt><trkpt lat="44.405181188972385" lon="11.491055994089756"><ele>186.0</ele><time>2026-04-12T12:02:19.999Z</time></trkpt><trkpt lat="44.405177052497265" lon="11.49084812107318"><ele>186.0</ele><time>2026-04-12T12:02:20.999Z</time></trkpt><trkpt lat="44.40517488297327" lon="11.49066665171951"><ele>186.0</ele><time>2026-04-12T12:02:21.999Z</time></trkpt><trkpt lat="44.40517289439442" lon="11.490500317699329"><ele>186.0</ele><time>2026-04-12T12:02:22.999Z</time></trkpt><trkpt lat="44.40517095365" lon="11.49033798433636"><ele>186.60000000000002</ele><time>2026-04-12T12:02:23.999Z</time></trkpt><trkpt lat="44.40515352584489" lon="11.49018511367349"><ele>187.2</ele><time>2026-04-12T12:02:24.999Z</time></trkpt><trkpt lat="44.40515263979263" lon="11.490036460951872"><ele>187.8</ele><time>2026-04-12T12:02:25.999Z</time></trkpt><trkpt lat="44.40515110984831" lon="11.489895423561356"><ele>188.39999999999998</ele><time>2026-04-12T12:02:26.999Z</time></trkpt><trkpt lat="44.405149570315" lon="11.489751558475799"><ele>189.0</ele><time>2026-04-12T12:02:27.999Z</time></trkpt><trkpt lat="44.40513916487826" lon="11.489609942030285"><ele>190.0</ele><time>2026-04-12T12:02:28.999Z</time></trkpt><trkpt lat="44.40512558353667" lon="11.489461567408018"><ele>191.0</ele><time>2026-04-12T12:02:29.999Z</time></trkpt><trkpt lat="44.40509965826407" lon="11.489307688997314"><ele>192.0</ele><time>2026-04-12T12:02:30.999Z</time></trkpt><trkpt lat="44.405064842121504" lon="11.489143638084464"><ele>193.0</ele><time>2026-04-12T12:02:31.999Z</time></trkpt><trkpt lat="44.40504572233994" lon="11.488969116021469"><ele>193.0</ele><time>2026-04-12T12:02:32.999Z</time></trkpt><trkpt lat="44.40499584300767" lon="11.488802553783364"><ele>193.0</ele><time>2026-04-12T12:02:33.999Z</time></trkpt><trkpt lat="44.40498088796692" lon="11.488629884407901"><ele>193.0</ele><time>2026-04-12T12:02:34.999Z</time></trkpt><trkpt lat="44.40494317659459" lon="11.488450951730298"><ele>193.0</ele><time>2026-04-12T12:02:35.999Z</time></trkpt><trkpt lat="44.404920621211694" lon="11.488267073765643"><ele>193.25</ele><time>2026-04-12T12:02:36.999Z</time></trkpt><trkpt lat="44.404906441905396" lon="11.488089125067827"><ele>193.5</ele><time>2026-04-12T12:02:37.999Z</time></trkpt><trkpt lat="44.404889341748856" lon="11.487918527511503"><ele>193.75</ele><time>2026-04-12T12:02:38.999Z</time></trkpt><trkpt lat="44.40487502750723" lon="11.487757168026635"><ele>194.0</ele><time>2026-04-12T12:02:39.999Z</time></trkpt><trkpt lat="44.40487296120848" lon="11.487600117026286"><ele>194.25</ele><time>2026-04-12T12:02:40.999Z</time></trkpt><trkpt lat="44.4048831445129" lon="11.48743455680944"><ele>194.5</ele><time>2026-04-12T12:02:41.999Z</time></trkpt><trkpt lat="44.40489335460671" lon="11.487273415279365"><ele>194.75</ele><time>2026-04-12T12:02:42.999Z</time></trkpt><trkpt lat="44.404902892440866" lon="11.487116333152033"><ele>195.0</ele><time>2026-04-12T12:02:43.999Z</time></trkpt><trkpt lat="44.40490918217622" lon="11.486957288819166"><ele>194.25</ele><time>2026-04-12T12:02:44.999Z</time></trkpt><trkpt lat="44.404911763492635" lon="11.48678895331463"><ele>193.5</ele><time>2026-04-12T12:02:45.999Z</time></trkpt><trkpt lat="44.404914557407494" lon="11.486614123431764"><ele>192.75</ele><time>2026-04-12T12:02:46.999Z</time></trkpt><trkpt lat="44.40491384571088" lon="11.486429876308048"><ele>192.0</ele><time>2026-04-12T12:02:47.999Z</time></trkpt><trkpt lat="44.40491306265931" lon="11.486241359967432"><ele>190.5</ele><time>2026-04-12T12:02:48.999Z</time></trkpt><trkpt lat="44.40493269896212" lon="11.48604955289586"><ele>189.0</ele><time>2026-04-12T12:02:49.999Z</time></trkpt><trkpt lat="44.40493487022839" lon="11.485858307626447"><ele>187.5</ele><time>2026-04-12T12:02:50.999Z</time></trkpt><trkpt lat="44.40493671305908" lon="11.485674214775422"><ele>186.0</ele><time>2026-04-12T12:02:51.999Z</time></trkpt><trkpt lat="44.40493834968875" lon="11.485498473910837"><ele>184.75</ele><time>2026-04-12T12:02:52.999Z</time></trkpt><trkpt lat="44.40494116394516" lon="11.485317746718913"><ele>183.5</ele><time>2026-04-12T12:02:53.999Z</time></trkpt><trkpt lat="44.404930427704464" lon="11.485151051970748"><ele>182.25</ele><time>2026-04-12T12:02:54.999Z</time></trkpt><trkpt lat="44.40490914683778" lon="11.484972673664856"><ele>181.0</ele><time>2026-04-12T12:02:55.999Z</time></trkpt><trkpt lat="44.40485777294965" lon="11.48478919609566"><ele>181.0</ele><time>2026-04-12T12:02:56.999Z</time></trkpt><trkpt lat="44.4048210672843" lon="11.48460858738877"><ele>181.0</ele><time>2026-04-12T12:02:57.999Z</time></trkpt><trkpt lat="44.40479244598842" lon="11.484425230285941"><ele>181.0</ele><time>2026-04-12T12:02:58.999Z</time></trkpt><trkpt lat="44.40473025356105" lon="11.484246998525718"><ele>181.0</ele><time>2026-04-12T12:02:59.999Z</time></trkpt><trkpt lat="44.40464312742622" lon="11.484019716668374"><ele>182.66666666666669</ele><time>2026-04-12T12:03:00.999Z</time></trkpt><trkpt lat="44.404558378622134" lon="11.483767663759462"><ele>184.33333333333334</ele><time>2026-04-12T12:03:01.999Z</time></trkpt><trkpt lat="44.4044930755798" lon="11.483567773049868"><ele>186.0</ele><time>2026-04-12T12:03:02.999Z</time></trkpt><trkpt lat="44.404440775690624" lon="11.4833943018814"><ele>187.60000000000002</ele><time>2026-04-12T12:03:03.999Z</time></trkpt><trkpt lat="44.40441161507824" lon="11.483229651964466"><ele>189.2</ele><time>2026-04-12T12:03:04.999Z</time></trkpt><trkpt lat="44.40439261120285" lon="11.483083618599748"><ele>190.8</ele><time>2026-04-12T12:03:05.998Z</time></trkpt><trkpt lat="44.404388204897664" lon="11.482947105777198"><ele>192.39999999999998</ele><time>2026-04-12T12:03:06.998Z</time></trkpt><trkpt lat="44.40439654803195" lon="11.48283468813257"><ele>194.0</ele><time>2026-04-12T12:03:07.998Z</time></trkpt><trkpt lat="44.40440876769048" lon="11.482734679854897"><ele>195.66666666666669</ele><time>2026-04-12T12:03:08.998Z</time></trkpt><trkpt lat="44.40442352976788" lon="11.48263668215015"><ele>197.33333333333334</ele><time>2026-04-12T12:03:09.998Z</time></trkpt><trkpt lat="44.404436557350124" lon="11.482550445266204"><ele>199.0</ele><time>2026-04-12T12:03:10.998Z</time></trkpt><trkpt lat="44.40445385966127" lon="11.482435911486526"><ele>200.66666666666669</ele><time>2026-04-12T12:03:11.998Z</time></trkpt><trkpt lat="44.40447343040294" lon="11.482323524870035"><ele>202.33333333333334</ele><time>2026-04-12T12:03:12.998Z</time></trkpt><trkpt lat="44.404489148366785" lon="11.48223398590348"><ele>204.0</ele><time>2026-04-12T12:03:14Z</time></trkpt><trkpt lat="44.40451954277308" lon="11.4820878426257"><ele>205.33333333333334</ele><time>2026-04-12T12:03:16Z</time></trkpt><trkpt lat="44.40455866877198" lon="11.481998589648834"><ele>206.66666666666669</ele><time>2026-04-12T12:03:18Z</time></trkpt><trkpt lat="44.40452681538505" lon="11.481910807042176"><ele>208.0</ele><time>2026-04-12T12:03:19Z</time></trkpt><trkpt lat="44.40449041644116" lon="11.481798987227837"><ele>209.33333333333334</ele><time>2026-04-12T12:03:21Z</time></trkpt><trkpt lat="44.40448360842827" lon="11.48169267696575"><ele>210.66666666666669</ele><time>2026-04-12T12:03:22Z</time></trkpt><trkpt lat="44.40449128807721" lon="11.481573748782719"><ele>212.0</ele><time>2026-04-12T12:03:23Z</time></trkpt><trkpt lat="44.40446562452475" lon="11.481481220135"><ele>212.0</ele><time>2026-04-12T12:03:24Z</time></trkpt><trkpt lat="44.404439070620185" lon="11.481332625676998"><ele>212.0</ele><time>2026-04-12T12:03:25Z</time></trkpt><trkpt lat="44.40441571135277" lon="11.481162013684958"><ele>212.0</ele><time>2026-04-12T12:03:26Z</time></trkpt><trkpt lat="44.404412267002556" lon="11.481000589224019"><ele>212.0</ele><time>2026-04-12T12:03:27Z</time></trkpt><trkpt lat="44.404429479549755" lon="11.480762086450698"><ele>213.5</ele><time>2026-04-12T12:03:28Z</time></trkpt><trkpt lat="44.40442717862342" lon="11.480558159660445"><ele>215.0</ele><time>2026-04-12T12:03:29Z</time></trkpt><trkpt lat="44.40442541245239" lon="11.480387602137405"><ele>216.5</ele><time>2026-04-12T12:03:30Z</time></trkpt><trkpt lat="44.40442249840068" lon="11.480246056563113"><ele>218.0</ele><time>2026-04-12T12:03:31Z</time></trkpt><trkpt lat="44.404425465103856" lon="11.480110221456963"><ele>218.16666666666669</ele><time>2026-04-12T12:03:32Z</time></trkpt><trkpt lat="44.40442344248026" lon="11.479965809746702"><ele>218.33333333333334</ele><time>2026-04-12T12:03:33Z</time></trkpt><trkpt lat="44.40440819893629" lon="11.479853838380077"><ele>218.5</ele><time>2026-04-12T12:03:34Z</time></trkpt><trkpt lat="44.40439366439885" lon="11.479746705600556"><ele>218.66666666666669</ele><time>2026-04-12T12:03:35Z</time></trkpt><trkpt lat="44.40437229366632" lon="11.479660107745696"><ele>218.83333333333334</ele><time>2026-04-12T12:03:36Z</time></trkpt><trkpt lat="44.40429908538967" lon="11.47954172553074"><ele>219.0</ele><time>2026-04-12T12:03:38Z</time></trkpt><trkpt lat="44.404197129562355" lon="11.479465663285431"><ele>219.0</ele><time>2026-04-12T12:03:40Z</time></trkpt><trkpt lat="44.40413297704133" lon="11.479438256378451"><ele>219.0</ele><time>2026-04-12T12:03:41Z</time></trkpt><trkpt lat="44.404066413312194" lon="11.479419277268262"><ele>219.0</ele><time>2026-04-12T12:03:42Z</time></trkpt><trkpt lat="44.40398928060678" lon="11.47937999537064"><ele>219.0</ele><time>2026-04-12T12:03:43Z</time></trkpt><trkpt lat="44.4039207717356" lon="11.479324825115018"><ele>219.0</ele><time>2026-04-12T12:03:44Z</time></trkpt><trkpt lat="44.4038480410899" lon="11.47928098336423"><ele>219.0</ele><time>2026-04-12T12:03:45Z</time></trkpt><trkpt lat="44.403775804976824" lon="11.479246239856606"><ele>219.0</ele><time>2026-04-12T12:03:47Z</time></trkpt><trkpt lat="44.4037632070345" lon="11.47907966293701"><ele>218.99999999999997</ele><time>2026-04-12T12:03:50Z</time></trkpt><trkpt lat="44.40378507818535" lon="11.478971860360032"><ele>218.99999999999997</ele><time>2026-04-12T12:03:51Z</time></trkpt><trkpt lat="44.403820808101386" lon="11.478846313602293"><ele>219.0</ele><time>2026-04-12T12:03:52Z</time></trkpt><trkpt lat="44.403876195441484" lon="11.478699516479509"><ele>219.0</ele><time>2026-04-12T12:03:53Z</time></trkpt><trkpt lat="44.403938925043114" lon="11.47858328533683"><ele>219.0</ele><time>2026-04-12T12:03:54Z</time></trkpt><trkpt lat="44.40401585288857" lon="11.478480365057791"><ele>218.99999999999997</ele><time>2026-04-12T12:03:55Z</time></trkpt><trkpt lat="44.40410125233334" lon="11.478379042260512"><ele>218.99999999999997</ele><time>2026-04-12T12:03:56Z</time></trkpt><trkpt lat="44.4041619045839" lon="11.478284312095422"><ele>219.0</ele><time>2026-04-12T12:03:57Z</time></trkpt><trkpt lat="44.40420559320106" lon="11.478193156254308"><ele>219.0</ele><time>2026-04-12T12:03:58Z</time></trkpt><trkpt lat="44.40425659775977" lon="11.478086216424398"><ele>219.0</ele><time>2026-04-12T12:03:59Z</time></trkpt><trkpt lat="44.40432191755357" lon="11.477952983396875"><ele>218.99999999999997</ele><time>2026-04-12T12:04:00Z</time></trkpt><trkpt lat="44.40438104634676" lon="11.4778326362117"><ele>218.99999999999997</ele><time>2026-04-12T12:04:01Z</time></trkpt><trkpt lat="44.404430240194166" lon="11.477724454149552"><ele>219.0</ele><time>2026-04-12T12:04:02Z</time></trkpt><trkpt lat="44.404488849723684" lon="11.477587640200085"><ele>219.0</ele><time>2026-04-12T12:04:03Z</time></trkpt><trkpt lat="44.404562998149984" lon="11.47741763790528"><ele>218.66666666666669</ele><time>2026-04-12T12:04:04Z</time></trkpt><trkpt lat="44.40464698622154" lon="11.477224478478025"><ele>218.33333333333334</ele><time>2026-04-12T12:04:05Z</time></trkpt><trkpt lat="44.40474432109485" lon="11.47699831587936"><ele>218.0</ele><time>2026-04-12T12:04:06Z</time></trkpt><trkpt lat="44.404839764988736" lon="11.476769922671588"><ele>222.33333333333334</ele><time>2026-04-12T12:04:07Z</time></trkpt><trkpt lat="44.404936250884624" lon="11.476537869159717"><ele>226.66666666666669</ele><time>2026-04-12T12:04:08Z</time></trkpt><trkpt lat="44.40502656066128" lon="11.47633319160409"><ele>231.0</ele><time>2026-04-12T12:04:09Z</time></trkpt><trkpt lat="44.40509834459492" lon="11.476174939366622"><ele>232.20000000000002</ele><time>2026-04-12T12:04:10Z</time></trkpt><trkpt lat="44.40515664622232" lon="11.47603992235785"><ele>233.40000000000003</ele><time>2026-04-12T12:04:11Z</time></trkpt><trkpt lat="44.40520810051339" lon="11.475911450841984"><ele>234.6</ele><time>2026-04-12T12:04:12Z</time></trkpt><trkpt lat="44.405260361737135" lon="11.475784498035546"><ele>235.8</ele><time>2026-04-12T12:04:13Z</time></trkpt><trkpt lat="44.40530900050521" lon="11.475653832668984"><ele>237.0</ele><time>2026-04-12T12:04:14Z</time></trkpt><trkpt lat="44.40534334023205" lon="11.475552588596422"><ele>237.0</ele><time>2026-04-12T12:04:14.999Z</time></trkpt><trkpt lat="44.405366596782855" lon="11.475456558877346"><ele>237.0</ele><time>2026-04-12T12:04:15.999Z</time></trkpt><trkpt lat="44.40539213033648" lon="11.475344273527643"><ele>237.0</ele><time>2026-04-12T12:04:16.999Z</time></trkpt><trkpt lat="44.40541178556267" lon="11.475244409195266"><ele>237.0</ele><time>2026-04-12T12:04:17.999Z</time></trkpt><trkpt lat="44.40541822541217" lon="11.475113176460683"><ele>237.0</ele><time>2026-04-12T12:04:19.999Z</time></trkpt><trkpt lat="44.4054184703936" lon="11.474993450371711"><ele>237.0</ele><time>2026-04-12T12:04:21.999Z</time></trkpt><trkpt lat="44.40543627973138" lon="11.474818412987645"><ele>238.6</ele><time>2026-04-12T12:04:23.999Z</time></trkpt><trkpt lat="44.405482122449094" lon="11.474730600814256"><ele>240.2</ele><time>2026-04-12T12:04:24.999Z</time></trkpt><trkpt lat="44.40551866537994" lon="11.474615206561339"><ele>241.8</ele><time>2026-04-12T12:04:25.999Z</time></trkpt><trkpt lat="44.40557043924873" lon="11.474451017302894"><ele>243.4</ele><time>2026-04-12T12:04:26.999Z</time></trkpt><trkpt lat="44.405636232189266" lon="11.474272015596654"><ele>245.0</ele><time>2026-04-12T12:04:27.999Z</time></trkpt><trkpt lat="44.405705820754505" lon="11.474128614521668"><ele>244.5</ele><time>2026-04-12T12:04:28.999Z</time></trkpt><trkpt lat="44.405768181786655" lon="11.474012140831555"><ele>244.0</ele><time>2026-04-12T12:04:29.999Z</time></trkpt><trkpt lat="44.40583891389972" lon="11.473876543222458"><ele>243.5</ele><time>2026-04-12T12:04:30.999Z</time></trkpt><trkpt lat="44.405915602226834" lon="11.473716934529959"><ele>243.0</ele><time>2026-04-12T12:04:31.999Z</time></trkpt><trkpt lat="44.405985356484116" lon="11.473589858785179"><ele>243.0</ele><time>2026-04-12T12:04:32.999Z</time></trkpt><trkpt lat="44.406037809030096" lon="11.473488871247433"><ele>243.0</ele><time>2026-04-12T12:04:33.999Z</time></trkpt><trkpt lat="44.40607836938806" lon="11.47340577910723"><ele>243.0</ele><time>2026-04-12T12:04:34.999Z</time></trkpt><trkpt lat="44.40613460453051" lon="11.473307310795413"><ele>243.0</ele><time>2026-04-12T12:04:35.999Z</time></trkpt><trkpt lat="44.40620938211441" lon="11.473203358047941"><ele>243.0</ele><time>2026-04-12T12:04:36.999Z</time></trkpt><trkpt lat="44.40628416315121" lon="11.47312508435892"><ele>243.8</ele><time>2026-04-12T12:04:37.999Z</time></trkpt><trkpt lat="44.40635564285032" lon="11.473057172156333"><ele>244.60000000000002</ele><time>2026-04-12T12:04:38.999Z</time></trkpt><trkpt lat="44.406437973294814" lon="11.472972576951102"><ele>245.39999999999998</ele><time>2026-04-12T12:04:39.999Z</time></trkpt><trkpt lat="44.40652284671358" lon="11.47288317048056"><ele>246.2</ele><time>2026-04-12T12:04:40.999Z</time></trkpt><trkpt lat="44.40659197799909" lon="11.472815491364328"><ele>247.0</ele><time>2026-04-12T12:04:41.999Z</time></trkpt><trkpt lat="44.406660234060574" lon="11.47278876289713"><ele>247.5</ele><time>2026-04-12T12:04:42.999Z</time></trkpt><trkpt lat="44.40671855707683" lon="11.472749827676749"><ele>248.0</ele><time>2026-04-12T12:04:43.999Z</time></trkpt><trkpt lat="44.40684165017414" lon="11.472667283198005"><ele>248.5</ele><time>2026-04-12T12:04:45.999Z</time></trkpt><trkpt lat="44.40691834256511" lon="11.472406527244312"><ele>249.0</ele><time>2026-04-12T12:04:46.999Z</time></trkpt><trkpt lat="44.40707056171057" lon="11.472244635456638"><ele>250.25</ele><time>2026-04-12T12:04:47.999Z</time></trkpt><trkpt lat="44.407158555077494" lon="11.472100573735066"><ele>251.5</ele><time>2026-04-12T12:04:48.999Z</time></trkpt><trkpt lat="44.40722634035655" lon="11.471984330802181"><ele>252.75</ele><time>2026-04-12T12:04:49.999Z</time></trkpt><trkpt lat="44.40729843040478" lon="11.471849032628695"><ele>254.0</ele><time>2026-04-12T12:04:50.999Z</time></trkpt><trkpt lat="44.40737081924282" lon="11.47161438519549"><ele>255.0</ele><time>2026-04-12T12:04:51.999Z</time></trkpt><trkpt lat="44.407427781736736" lon="11.47135905728285"><ele>256.0</ele><time>2026-04-12T12:04:52.999Z</time></trkpt><trkpt lat="44.407485111694164" lon="11.471137610347704"><ele>257.0</ele><time>2026-04-12T12:04:53.999Z</time></trkpt><trkpt lat="44.40752586162456" lon="11.47096712059092"><ele>258.6</ele><time>2026-04-12T12:04:54.999Z</time></trkpt><trkpt lat="44.40755421438864" lon="11.47082282029298"><ele>260.2</ele><time>2026-04-12T12:04:55.999Z</time></trkpt><trkpt lat="44.40755118039228" lon="11.470698104167342"><ele>261.8</ele><time>2026-04-12T12:04:56.999Z</time></trkpt><trkpt lat="44.4075243017186" lon="11.470558550390393"><ele>263.4</ele><time>2026-04-12T12:04:57.999Z</time></trkpt><trkpt lat="44.407468022215355" lon="11.470389266698476"><ele>265.0</ele><time>2026-04-12T12:04:58.999Z</time></trkpt><trkpt lat="44.40739511838474" lon="11.470184059676384"><ele>265.0</ele><time>2026-04-12T12:04:59.999Z</time></trkpt><trkpt lat="44.4073606371395" lon="11.469984948678798"><ele>265.0</ele><time>2026-04-12T12:05:00.999Z</time></trkpt><trkpt lat="44.40735751968175" lon="11.469783283604556"><ele>265.0</ele><time>2026-04-12T12:05:01.999Z</time></trkpt><trkpt lat="44.40736924629993" lon="11.469530390784966"><ele>266.3333333333333</ele><time>2026-04-12T12:05:02.999Z</time></trkpt><trkpt lat="44.40739177114296" lon="11.46923982586076"><ele>267.6666666666667</ele><time>2026-04-12T12:05:03.999Z</time></trkpt><trkpt lat="44.40740645403197" lon="11.468982332133164"><ele>269.0</ele><time>2026-04-12T12:05:04.999Z</time></trkpt><trkpt lat="44.407406015022275" lon="11.468750229156191"><ele>269.6666666666667</ele><time>2026-04-12T12:05:05.999Z</time></trkpt><trkpt lat="44.40738729704889" lon="11.468530552055345"><ele>270.3333333333333</ele><time>2026-04-12T12:05:06.999Z</time></trkpt><trkpt lat="44.40734920962065" lon="11.468307924211178"><ele>271.0</ele><time>2026-04-12T12:05:07.999Z</time></trkpt><trkpt lat="44.40729254074162" lon="11.468086623122437"><ele>271.0</ele><time>2026-04-12T12:05:08.998Z</time></trkpt><trkpt lat="44.40722717733231" lon="11.46789042810658"><ele>271.0</ele><time>2026-04-12T12:05:09.998Z</time></trkpt><trkpt lat="44.407152640440394" lon="11.467714305939515"><ele>271.0</ele><time>2026-04-12T12:05:10.998Z</time></trkpt><trkpt lat="44.40705700811838" lon="11.467544748409276"><ele>269.66666666666663</ele><time>2026-04-12T12:05:11.998Z</time></trkpt><trkpt lat="44.4069438402401" lon="11.467368837682937"><ele>268.3333333333333</ele><time>2026-04-12T12:05:12.998Z</time></trkpt><trkpt lat="44.406820853694136" lon="11.467175953672914"><ele>267.0</ele><time>2026-04-12T12:05:13.998Z</time></trkpt><trkpt lat="44.406697211481806" lon="11.466978369715696"><ele>267.0</ele><time>2026-04-12T12:05:14.998Z</time></trkpt><trkpt lat="44.40657639249856" lon="11.466783026130964"><ele>267.0</ele><time>2026-04-12T12:05:15.998Z</time></trkpt><trkpt lat="44.40644858767399" lon="11.466570519316189"><ele>267.0</ele><time>2026-04-12T12:05:16.998Z</time></trkpt><trkpt lat="44.40631540972423" lon="11.466343224307815"><ele>266.6666666666667</ele><time>2026-04-12T12:05:17.998Z</time></trkpt><trkpt lat="44.406198917311876" lon="11.466136677803448"><ele>266.33333333333337</ele><time>2026-04-12T12:05:18.998Z</time></trkpt><trkpt lat="44.40609526376342" lon="11.465946638285441"><ele>266.0</ele><time>2026-04-12T12:05:20Z</time></trkpt><trkpt lat="44.40599110479045" lon="11.46576036963657"><ele>266.0</ele><time>2026-04-12T12:05:21Z</time></trkpt><trkpt lat="44.40588298717639" lon="11.465572012073471"><ele>266.0</ele><time>2026-04-12T12:05:22Z</time></trkpt><trkpt lat="44.40578576702388" lon="11.465398437763026"><ele>266.0</ele><time>2026-04-12T12:05:23Z</time></trkpt><trkpt lat="44.405701678548304" lon="11.465238166240423"><ele>266.5</ele><time>2026-04-12T12:05:24Z</time></trkpt><trkpt lat="44.40562152338491" lon="11.465085177243346"><ele>267.0</ele><time>2026-04-12T12:05:25Z</time></trkpt><trkpt lat="44.40553857332994" lon="11.464946412219415"><ele>267.5</ele><time>2026-04-12T12:05:26Z</time></trkpt><trkpt lat="44.40544554326483" lon="11.464832813520989"><ele>268.0</ele><time>2026-04-12T12:05:27Z</time></trkpt><trkpt lat="44.4053325981342" lon="11.464744313941006"><ele>270.25</ele><time>2026-04-12T12:05:28Z</time></trkpt><trkpt lat="44.40519360194637" lon="11.464680422789845"><ele>272.5</ele><time>2026-04-12T12:05:29Z</time></trkpt><trkpt lat="44.40503740292636" lon="11.464621259772924"><ele>274.75</ele><time>2026-04-12T12:05:30Z</time></trkpt><trkpt lat="44.404920083054435" lon="11.464549582587251"><ele>277.0</ele><time>2026-04-12T12:05:31Z</time></trkpt><trkpt lat="44.40482353586153" lon="11.464508625763965"><ele>278.3333333333333</ele><time>2026-04-12T12:05:32Z</time></trkpt><trkpt lat="44.40476038243079" lon="11.464361459621085"><ele>279.6666666666667</ele><time>2026-04-12T12:05:33Z</time></trkpt><trkpt lat="44.40466168994006" lon="11.464175127736405"><ele>281.0</ele><time>2026-04-12T12:05:34Z</time></trkpt><trkpt lat="44.40452691354232" lon="11.464009916708118"><ele>284.33333333333337</ele><time>2026-04-12T12:05:35Z</time></trkpt><trkpt lat="44.40443974093486" lon="11.463826957490106"><ele>287.6666666666667</ele><time>2026-04-12T12:05:36Z</time></trkpt><trkpt lat="44.404357762749136" lon="11.463639589928023"><ele>291.0</ele><time>2026-04-12T12:05:37Z</time></trkpt><trkpt lat="44.40428927124089" lon="11.46340350387495"><ele>294.3333333333333</ele><time>2026-04-12T12:05:38Z</time></trkpt><trkpt lat="44.404234139201144" lon="11.463155181983247"><ele>297.66666666666663</ele><time>2026-04-12T12:05:39Z</time></trkpt><trkpt lat="44.40419219932315" lon="11.462956990344084"><ele>301.0</ele><time>2026-04-12T12:05:40Z</time></trkpt><trkpt lat="44.40414216839733" lon="11.462794985359098"><ele>302.3333333333333</ele><time>2026-04-12T12:05:41Z</time></trkpt><trkpt lat="44.40410967443766" lon="11.462640470431971"><ele>303.6666666666667</ele><time>2026-04-12T12:05:42Z</time></trkpt><trkpt lat="44.404032153385714" lon="11.462417809964817"><ele>305.0</ele><time>2026-04-12T12:05:43Z</time></trkpt><trkpt lat="44.40392431207321" lon="11.462167031539785"><ele>313.0</ele><time>2026-04-12T12:05:44Z</time></trkpt><trkpt lat="44.403785377085285" lon="11.461905763186076"><ele>321.0</ele><time>2026-04-12T12:05:45Z</time></trkpt><trkpt lat="44.40363523212206" lon="11.46162291322019"><ele>321.0</ele><time>2026-04-12T12:05:46Z</time></trkpt><trkpt lat="44.403518504067726" lon="11.461377249443549"><ele>321.0</ele><time>2026-04-12T12:05:47Z</time></trkpt><trkpt lat="44.40343196592354" lon="11.46116190579923"><ele>321.0</ele><time>2026-04-12T12:05:48Z</time></trkpt><trkpt lat="44.403364947740684" lon="11.460977494528615"><ele>322.25</ele><time>2026-04-12T12:05:49Z</time></trkpt><trkpt lat="44.4032881878253" lon="11.460831457028911"><ele>323.5</ele><time>2026-04-12T12:05:50Z</time></trkpt><trkpt lat="44.40323394955006" lon="11.460712129030464"><ele>324.75</ele><time>2026-04-12T12:05:51Z</time></trkpt><trkpt lat="44.40315909465019" lon="11.460613068351822"><ele>326.0</ele><time>2026-04-12T12:05:52Z</time></trkpt><trkpt lat="44.40305624100719" lon="11.460525671456436"><ele>326.5</ele><time>2026-04-12T12:05:53Z</time></trkpt><trkpt lat="44.402946168724164" lon="11.46043780533154"><ele>327.0</ele><time>2026-04-12T12:05:54Z</time></trkpt><trkpt lat="44.4028306712109" lon="11.460342339899828"><ele>327.5</ele><time>2026-04-12T12:05:55Z</time></trkpt><trkpt lat="44.402706113872746" lon="11.460232005791363"><ele>328.0</ele><time>2026-04-12T12:05:56Z</time></trkpt><trkpt lat="44.40259210722268" lon="11.460104504491309"><ele>328.0</ele><time>2026-04-12T12:05:57Z</time></trkpt><trkpt lat="44.40247570825451" lon="11.459982226492125"><ele>328.0</ele><time>2026-04-12T12:05:58Z</time></trkpt><trkpt lat="44.402340022190955" lon="11.45989357846534"><ele>328.0</ele><time>2026-04-12T12:05:59Z</time></trkpt><trkpt lat="44.40219992113829" lon="11.459769082772825"><ele>327.0</ele><time>2026-04-12T12:06:00Z</time></trkpt><trkpt lat="44.40202446285951" lon="11.459657102227911"><ele>326.0</ele><time>2026-04-12T12:06:01Z</time></trkpt><trkpt lat="44.40184874183031" lon="11.459544082893569"><ele>325.0</ele><time>2026-04-12T12:06:02Z</time></trkpt><trkpt lat="44.40168853743554" lon="11.459438877289625"><ele>326.25</ele><time>2026-04-12T12:06:03Z</time></trkpt><trkpt lat="44.40154338065034" lon="11.459347211957136"><ele>327.5</ele><time>2026-04-12T12:06:04Z</time></trkpt><trkpt lat="44.40141033380579" lon="11.459280651194026"><ele>328.75</ele><time>2026-04-12T12:06:05Z</time></trkpt><trkpt lat="44.401294953104916" lon="11.459241056277214"><ele>330.0</ele><time>2026-04-12T12:06:06Z</time></trkpt><trkpt lat="44.40120696398915" lon="11.459259702754794"><ele>330.0</ele><time>2026-04-12T12:06:07Z</time></trkpt><trkpt lat="44.40109418145846" lon="11.459242256519971"><ele>330.0</ele><time>2026-04-12T12:06:09Z</time></trkpt><trkpt lat="44.40099399330732" lon="11.459243955864533"><ele>330.0</ele><time>2026-04-12T12:06:11Z</time></trkpt><trkpt lat="44.400917550691034" lon="11.459246763840337"><ele>330.0</ele><time>2026-04-12T12:06:13Z</time></trkpt><trkpt lat="44.40083575983745" lon="11.459265498244337"><ele>330.0</ele><time>2026-04-12T12:06:15Z</time></trkpt><trkpt lat="44.400768421351806" lon="11.459252241824247"><ele>330.0</ele><time>2026-04-12T12:06:16Z</time></trkpt><trkpt lat="44.40068908830326" lon="11.459252177195435"><ele>330.0</ele><time>2026-04-12T12:06:17Z</time></trkpt><trkpt lat="44.40060689371082" lon="11.459251838201713"><ele>330.0</ele><time>2026-04-12T12:06:18Z</time></trkpt><trkpt lat="44.400528909283906" lon="11.459250285414676"><ele>330.0</ele><time>2026-04-12T12:06:18.999Z</time></trkpt><trkpt lat="44.40045343892549" lon="11.459248784540701"><ele>330.0</ele><time>2026-04-12T12:06:19.999Z</time></trkpt><trkpt lat="44.400371660804524" lon="11.45924715621587"><ele>330.0</ele><time>2026-04-12T12:06:20.999Z</time></trkpt><trkpt lat="44.40028752931052" lon="11.459245211855638"><ele>330.0</ele><time>2026-04-12T12:06:21.999Z</time></trkpt><trkpt lat="44.40021081522297" lon="11.459243368295082"><ele>330.14285714285717</ele><time>2026-04-12T12:06:22.999Z</time></trkpt><trkpt lat="44.400136820743505" lon="11.459260399308759"><ele>330.2857142857143</ele><time>2026-04-12T12:06:23.999Z</time></trkpt><trkpt lat="44.4000680661116" lon="11.459261175530846"><ele>330.42857142857144</ele><time>2026-04-12T12:06:24.999Z</time></trkpt><trkpt lat="44.399996588334766" lon="11.459243518641063"><ele>330.57142857142856</ele><time>2026-04-12T12:06:25.999Z</time></trkpt><trkpt lat="44.39992182157792" lon="11.45924955976183"><ele>330.7142857142857</ele><time>2026-04-12T12:06:26.999Z</time></trkpt><trkpt lat="44.399848397974495" lon="11.459264038571249"><ele>330.8571428571429</ele><time>2026-04-12T12:06:27.999Z</time></trkpt><trkpt lat="44.39978173509891" lon="11.459314717441194"><ele>331.0</ele><time>2026-04-12T12:06:28.999Z</time></trkpt><trkpt lat="44.39971668675822" lon="11.459322049186119"><ele>331.0</ele><time>2026-04-12T12:06:29.999Z</time></trkpt><trkpt lat="44.39963717383313" lon="11.459375794920103"><ele>331.0</ele><time>2026-04-12T12:06:31.999Z</time></trkpt><trkpt lat="44.39980674598906" lon="11.459321640811622"><ele>331.0</ele><time>2026-04-12T12:06:39.999Z</time></trkpt><trkpt lat="44.3999503897939" lon="11.459297990697783"><ele>331.0</ele><time>2026-04-12T12:06:40.999Z</time></trkpt><trkpt lat="44.40009585105682" lon="11.459293489416797"><ele>331.0</ele><time>2026-04-12T12:06:41.999Z</time></trkpt><trkpt lat="44.4002201568318" lon="11.459295491863717"><ele>331.0</ele><time>2026-04-12T12:06:42.999Z</time></trkpt><trkpt lat="44.40033390357492" lon="11.459297136336488"><ele>331.0</ele><time>2026-04-12T12:06:43.999Z</time></trkpt><trkpt lat="44.400454445941314" lon="11.459300224565691"><ele>331.0</ele><time>2026-04-12T12:06:44.999Z</time></trkpt><trkpt lat="44.400566873291005" lon="11.459297261837706"><ele>330.8</ele><time>2026-04-12T12:06:45.999Z</time></trkpt><trkpt lat="44.40067507492946" lon="11.45930569584718"><ele>330.6</ele><time>2026-04-12T12:06:46.999Z</time></trkpt><trkpt lat="44.400780794538086" lon="11.459331935943204"><ele>330.4</ele><time>2026-04-12T12:06:47.999Z</time></trkpt><trkpt lat="44.40088573170513" lon="11.45936122563252"><ele>330.2</ele><time>2026-04-12T12:06:48.999Z</time></trkpt><trkpt lat="44.400964901008486" lon="11.45930312132455"><ele>330.0</ele><time>2026-04-12T12:06:49.999Z</time></trkpt><trkpt lat="44.401053406393274" lon="11.459302570412367"><ele>330.0</ele><time>2026-04-12T12:06:50.999Z</time></trkpt><trkpt lat="44.40113687005637" lon="11.459298628108552"><ele>330.0</ele><time>2026-04-12T12:06:51.999Z</time></trkpt><trkpt lat="44.40121636613841" lon="11.459299850114345"><ele>330.0</ele><time>2026-04-12T12:06:52.999Z</time></trkpt><trkpt lat="44.40128832736826" lon="11.459301492145105"><ele>330.0</ele><time>2026-04-12T12:06:53.999Z</time></trkpt><trkpt lat="44.40135838408064" lon="11.459275567474053"><ele>330.0</ele><time>2026-04-12T12:06:54.999Z</time></trkpt><trkpt lat="44.401421019289316" lon="11.459210285288842"><ele>330.0</ele><time>2026-04-12T12:06:55.999Z</time></trkpt><trkpt lat="44.40148936661048" lon="11.459113884497077"><ele>330.4</ele><time>2026-04-12T12:06:56.999Z</time></trkpt><trkpt lat="44.40158522093865" lon="11.458983926079366"><ele>330.8</ele><time>2026-04-12T12:06:57.999Z</time></trkpt><trkpt lat="44.401682667986734" lon="11.45887077322711"><ele>331.20000000000005</ele><time>2026-04-12T12:06:58.999Z</time></trkpt><trkpt lat="44.4017647027436" lon="11.458788587054356"><ele>331.6</ele><time>2026-04-12T12:06:59.999Z</time></trkpt><trkpt lat="44.40183168491431" lon="11.458715201146248"><ele>332.0</ele><time>2026-04-12T12:07:00.999Z</time></trkpt><trkpt lat="44.40190446494709" lon="11.458633501485185"><ele>332.0</ele><time>2026-04-12T12:07:01.999Z</time></trkpt><trkpt lat="44.401977746226805" lon="11.45857238123019"><ele>332.0</ele><time>2026-04-12T12:07:02.999Z</time></trkpt><trkpt lat="44.4020507185736" lon="11.458516635549023"><ele>332.0</ele><time>2026-04-12T12:07:03.999Z</time></trkpt><trkpt lat="44.40213705368075" lon="11.458488492109721"><ele>332.0</ele><time>2026-04-12T12:07:04.999Z</time></trkpt><trkpt lat="44.40223510011135" lon="11.458450318594876"><ele>332.0</ele><time>2026-04-12T12:07:05.999Z</time></trkpt><trkpt lat="44.402334947382144" lon="11.45841352914782"><ele>332.1666666666667</ele><time>2026-04-12T12:07:06.999Z</time></trkpt><trkpt lat="44.40243195526072" lon="11.458381086442625"><ele>332.33333333333337</ele><time>2026-04-12T12:07:07.999Z</time></trkpt><trkpt lat="44.40251844095224" lon="11.458342390385475"><ele>332.5</ele><time>2026-04-12T12:07:08.999Z</time></trkpt><trkpt lat="44.40258458980709" lon="11.458276563907948"><ele>332.6666666666667</ele><time>2026-04-12T12:07:09.999Z</time></trkpt><trkpt lat="44.4026564788751" lon="11.458220367067566"><ele>332.8333333333333</ele><time>2026-04-12T12:07:10.999Z</time></trkpt><trkpt lat="44.40273182319434" lon="11.458142722451417"><ele>333.0</ele><time>2026-04-12T12:07:11.998Z</time></trkpt><trkpt lat="44.40279669485685" lon="11.458052482574479"><ele>333.75</ele><time>2026-04-12T12:07:12.998Z</time></trkpt><trkpt lat="44.40285940641907" lon="11.457946128492999"><ele>334.5</ele><time>2026-04-12T12:07:13.998Z</time></trkpt><trkpt lat="44.40292970832051" lon="11.457805994091792"><ele>335.25</ele><time>2026-04-12T12:07:14.998Z</time></trkpt><trkpt lat="44.40302534264388" lon="11.457635477735758"><ele>336.0</ele><time>2026-04-12T12:07:15.998Z</time></trkpt><trkpt lat="44.40310887662587" lon="11.45749777135748"><ele>336.0</ele><time>2026-04-12T12:07:16.998Z</time></trkpt><trkpt lat="44.40317758866288" lon="11.457371231860797"><ele>336.0</ele><time>2026-04-12T12:07:17.998Z</time></trkpt><trkpt lat="44.403238582475794" lon="11.457255433969406"><ele>336.0</ele><time>2026-04-12T12:07:18.998Z</time></trkpt><trkpt lat="44.40329377299052" lon="11.45715090805106"><ele>336.0</ele><time>2026-04-12T12:07:19.998Z</time></trkpt><trkpt lat="44.403345032649106" lon="11.457053828382943"><ele>336.0</ele><time>2026-04-12T12:07:20.998Z</time></trkpt><trkpt lat="44.40340405129091" lon="11.45695243759237"><ele>333.5</ele><time>2026-04-12T12:07:21.998Z</time></trkpt><trkpt lat="44.40347935970566" lon="11.456841286160213"><ele>331.0</ele><time>2026-04-12T12:07:22.998Z</time></trkpt><trkpt lat="44.40359384260449" lon="11.45670781905868"><ele>328.5</ele><time>2026-04-12T12:07:23.998Z</time></trkpt><trkpt lat="44.40371691891807" lon="11.456571494921578"><ele>326.0</ele><time>2026-04-12T12:07:24.998Z</time></trkpt><trkpt lat="44.40382595761184" lon="11.456455142856756"><ele>325.8</ele><time>2026-04-12T12:07:26Z</time></trkpt><trkpt lat="44.403925775114395" lon="11.456350776665353"><ele>325.6</ele><time>2026-04-12T12:07:27Z</time></trkpt><trkpt lat="44.404013902060726" lon="11.456248380631061"><ele>325.4</ele><time>2026-04-12T12:07:28Z</time></trkpt><trkpt lat="44.40409137500235" lon="11.456147869858507"><ele>325.2</ele><time>2026-04-12T12:07:29Z</time></trkpt><trkpt lat="44.404162294815606" lon="11.456055570822272"><ele>325.0</ele><time>2026-04-12T12:07:30Z</time></trkpt><trkpt lat="44.40422514509317" lon="11.455964118750027"><ele>325.0</ele><time>2026-04-12T12:07:31Z</time></trkpt><trkpt lat="44.404275677453455" lon="11.45587166426953"><ele>325.0</ele><time>2026-04-12T12:07:32Z</time></trkpt><trkpt lat="44.40432132658742" lon="11.455780689465136"><ele>325.0</ele><time>2026-04-12T12:07:33Z</time></trkpt><trkpt lat="44.40435873744498" lon="11.455691555062453"><ele>325.0</ele><time>2026-04-12T12:07:34Z</time></trkpt><trkpt lat="44.40438906261054" lon="11.455603548206838"><ele>325.0</ele><time>2026-04-12T12:07:35Z</time></trkpt><trkpt lat="44.404420293406005" lon="11.455514934089763"><ele>325.0</ele><time>2026-04-12T12:07:36Z</time></trkpt><trkpt lat="44.40444804626364" lon="11.455432721932956"><ele>325.0</ele><time>2026-04-12T12:07:37Z</time></trkpt><trkpt lat="44.40451084784671" lon="11.455293802293705"><ele>324.6</ele><time>2026-04-12T12:07:39Z</time></trkpt><trkpt lat="44.40454288771197" lon="11.455151140309512"><ele>324.2</ele><time>2026-04-12T12:07:41Z</time></trkpt><trkpt lat="44.40458667499588" lon="11.45502947327181"><ele>323.79999999999995</ele><time>2026-04-12T12:07:43Z</time></trkpt><trkpt lat="44.404651928840494" lon="11.454929490158703"><ele>323.4</ele><time>2026-04-12T12:07:45Z</time></trkpt><trkpt lat="44.40470932962883" lon="11.454814162448626"><ele>323.0</ele><time>2026-04-12T12:07:47Z</time></trkpt><trkpt lat="44.404801799870576" lon="11.454707952965544"><ele>320.79999999999995</ele><time>2026-04-12T12:07:49Z</time></trkpt><trkpt lat="44.40487421576271" lon="11.454596161219056"><ele>318.59999999999997</ele><time>2026-04-12T12:07:50Z</time></trkpt><trkpt lat="44.40495659674831" lon="11.454472891246184"><ele>316.4</ele><time>2026-04-12T12:07:51Z</time></trkpt><trkpt lat="44.40503407898762" lon="11.454370972624048"><ele>314.2</ele><time>2026-04-12T12:07:52Z</time></trkpt><trkpt lat="44.405096353490705" lon="11.454269906279983"><ele>312.0</ele><time>2026-04-12T12:07:53Z</time></trkpt><trkpt lat="44.40515569038653" lon="11.454178663241356"><ele>312.0</ele><time>2026-04-12T12:07:54Z</time></trkpt><trkpt lat="44.405222525360294" lon="11.45406047893854"><ele>312.0</ele><time>2026-04-12T12:07:55Z</time></trkpt><trkpt lat="44.405289222406495" lon="11.453928595235697"><ele>312.0</ele><time>2026-04-12T12:07:56Z</time></trkpt><trkpt lat="44.40534971613789" lon="11.453776859360957"><ele>312.0</ele><time>2026-04-12T12:07:57Z</time></trkpt><trkpt lat="44.40541043992363" lon="11.453622302318276"><ele>310.75</ele><time>2026-04-12T12:07:58Z</time></trkpt><trkpt lat="44.40547001097954" lon="11.453489586545828"><ele>309.5</ele><time>2026-04-12T12:07:59Z</time></trkpt><trkpt lat="44.40553373145066" lon="11.453366440549361"><ele>308.25</ele><time>2026-04-12T12:08:00Z</time></trkpt><trkpt lat="44.40563267263399" lon="11.453221040281866"><ele>307.0</ele><time>2026-04-12T12:08:01Z</time></trkpt><trkpt lat="44.40573512661665" lon="11.453077856746491"><ele>307.0</ele><time>2026-04-12T12:08:02Z</time></trkpt><trkpt lat="44.40581564332885" lon="11.452986055991643"><ele>307.0</ele><time>2026-04-12T12:08:03Z</time></trkpt><trkpt lat="44.40588769326703" lon="11.452931721807332"><ele>307.0</ele><time>2026-04-12T12:08:04Z</time></trkpt><trkpt lat="44.40597846023453" lon="11.452917911724517"><ele>307.0</ele><time>2026-04-12T12:08:05Z</time></trkpt><trkpt lat="44.406074115504545" lon="11.452859711890584"><ele>307.0</ele><time>2026-04-12T12:08:06Z</time></trkpt><trkpt lat="44.40616523456577" lon="11.4528380081881"><ele>307.4</ele><time>2026-04-12T12:08:07Z</time></trkpt><trkpt lat="44.406241531146044" lon="11.452812699258185"><ele>307.79999999999995</ele><time>2026-04-12T12:08:08Z</time></trkpt><trkpt lat="44.40634544135808" lon="11.45274038263456"><ele>308.2</ele><time>2026-04-12T12:08:10Z</time></trkpt><trkpt lat="44.40643848679874" lon="11.452608599928597"><ele>308.59999999999997</ele><time>2026-04-12T12:08:12Z</time></trkpt><trkpt lat="44.40648054668626" lon="11.452510649818711"><ele>309.0</ele><time>2026-04-12T12:08:13Z</time></trkpt><trkpt lat="44.406512113906224" lon="11.452396117190686"><ele>309.0</ele><time>2026-04-12T12:08:14Z</time></trkpt><trkpt lat="44.40653643085381" lon="11.452253811243802"><ele>309.0</ele><time>2026-04-12T12:08:15Z</time></trkpt><trkpt lat="44.4065507431503" lon="11.452124750921755"><ele>309.0</ele><time>2026-04-12T12:08:16Z</time></trkpt><trkpt lat="44.40655387986824" lon="11.452006985944413"><ele>309.0</ele><time>2026-04-12T12:08:17Z</time></trkpt><trkpt lat="44.406549144604334" lon="11.451864473604827"><ele>309.0</ele><time>2026-04-12T12:08:18Z</time></trkpt><trkpt lat="44.40653486627412" lon="11.451712368479525"><ele>309.3333333333333</ele><time>2026-04-12T12:08:19Z</time></trkpt><trkpt lat="44.4065278602531" lon="11.451572680039067"><ele>309.6666666666667</ele><time>2026-04-12T12:08:20Z</time></trkpt><trkpt lat="44.406534064288586" lon="11.451454155488467"><ele>310.0</ele><time>2026-04-12T12:08:21Z</time></trkpt><trkpt lat="44.40654394844895" lon="11.451340666417087"><ele>310.33333333333337</ele><time>2026-04-12T12:08:21.999Z</time></trkpt><trkpt lat="44.40654944880279" lon="11.451244023285026"><ele>310.6666666666667</ele><time>2026-04-12T12:08:22.999Z</time></trkpt><trkpt lat="44.40655052674764" lon="11.451149271291293"><ele>311.0</ele><time>2026-04-12T12:08:23.999Z</time></trkpt><trkpt lat="44.406553471290515" lon="11.451060181496697"><ele>311.2</ele><time>2026-04-12T12:08:24.999Z</time></trkpt><trkpt lat="44.4065535670142" lon="11.45091452258862"><ele>311.40000000000003</ele><time>2026-04-12T12:08:26.999Z</time></trkpt><trkpt lat="44.406551935755495" lon="11.450736837031169"><ele>311.6</ele><time>2026-04-12T12:08:28.999Z</time></trkpt><trkpt lat="44.40655512027143" lon="11.45064522627089"><ele>311.8</ele><time>2026-04-12T12:08:29.999Z</time></trkpt><trkpt lat="44.406555411344264" lon="11.450478672345506"><ele>312.0</ele><time>2026-04-12T12:08:31.999Z</time></trkpt><trkpt lat="44.40655452500374" lon="11.450306159025832"><ele>312.0</ele><time>2026-04-12T12:08:33.999Z</time></trkpt><trkpt lat="44.4065453377404" lon="11.450123241165612"><ele>312.0</ele><time>2026-04-12T12:08:35.999Z</time></trkpt><trkpt lat="44.40654176689329" lon="11.44999950652157"><ele>312.0</ele><time>2026-04-12T12:08:36.999Z</time></trkpt><trkpt lat="44.40653819054835" lon="11.449832653945323"><ele>312.0</ele><time>2026-04-12T12:08:37.999Z</time></trkpt><trkpt lat="44.40653109359658" lon="11.449662760671462"><ele>312.0</ele><time>2026-04-12T12:08:38.999Z</time></trkpt><trkpt lat="44.406520543484014" lon="11.449537018568483"><ele>312.0</ele><time>2026-04-12T12:08:39.999Z</time></trkpt><trkpt lat="44.406539212044706" lon="11.449431301860548"><ele>312.0</ele><time>2026-04-12T12:08:40.999Z</time></trkpt><trkpt lat="44.40654233370217" lon="11.44930881291497"><ele>312.0</ele><time>2026-04-12T12:08:41.999Z</time></trkpt><trkpt lat="44.40657686734944" lon="11.44916231043806"><ele>312.0</ele><time>2026-04-12T12:08:42.999Z</time></trkpt><trkpt lat="44.40661225668696" lon="11.448988699763781"><ele>312.0</ele><time>2026-04-12T12:08:43.999Z</time></trkpt><trkpt lat="44.40664304948016" lon="11.448794117130591"><ele>312.0</ele><time>2026-04-12T12:08:44.999Z</time></trkpt><trkpt lat="44.40665795736333" lon="11.448603847264202"><ele>312.0</ele><time>2026-04-12T12:08:45.999Z</time></trkpt><trkpt lat="44.40666245264385" lon="11.448421209338031"><ele>312.0</ele><time>2026-04-12T12:08:46.999Z</time></trkpt><trkpt lat="44.406660019598625" lon="11.448237578842415"><ele>313.0</ele><time>2026-04-12T12:08:47.999Z</time></trkpt><trkpt lat="44.406656871759246" lon="11.448084946083263"><ele>314.0</ele><time>2026-04-12T12:08:48.999Z</time></trkpt><trkpt lat="44.40666900405737" lon="11.447958848634523"><ele>315.0</ele><time>2026-04-12T12:08:49.999Z</time></trkpt><trkpt lat="44.4066939474083" lon="11.447817490254263"><ele>316.0</ele><time>2026-04-12T12:08:50.999Z</time></trkpt><trkpt lat="44.406708601063414" lon="11.447655337381313"><ele>317.0</ele><time>2026-04-12T12:08:51.999Z</time></trkpt><trkpt lat="44.406711111046874" lon="11.447519171776841"><ele>319.0</ele><time>2026-04-12T12:08:52.999Z</time></trkpt><trkpt lat="44.40669958304151" lon="11.447386730937849"><ele>321.0</ele><time>2026-04-12T12:08:53.999Z</time></trkpt><trkpt lat="44.4066813134877" lon="11.447253581256748"><ele>323.0</ele><time>2026-04-12T12:08:54.999Z</time></trkpt><trkpt lat="44.40666344389764" lon="11.44710901662538"><ele>325.0</ele><time>2026-04-12T12:08:55.999Z</time></trkpt><trkpt lat="44.40665685776182" lon="11.446959211277951"><ele>327.0</ele><time>2026-04-12T12:08:56.999Z</time></trkpt><trkpt lat="44.406666889506184" lon="11.446826410873808"><ele>326.8</ele><time>2026-04-12T12:08:57.999Z</time></trkpt><trkpt lat="44.40669571907135" lon="11.446672132517097"><ele>326.6</ele><time>2026-04-12T12:08:58.999Z</time></trkpt><trkpt lat="44.40672558653602" lon="11.446530081925575"><ele>326.40000000000003</ele><time>2026-04-12T12:08:59.999Z</time></trkpt><trkpt lat="44.40675846722332" lon="11.446404353423151"><ele>326.20000000000005</ele><time>2026-04-12T12:09:00.999Z</time></trkpt><trkpt lat="44.40679779040713" lon="11.4463069099761"><ele>326.0</ele><time>2026-04-12T12:09:01.999Z</time></trkpt><trkpt lat="44.406840562192016" lon="11.446229584402658"><ele>326.0</ele><time>2026-04-12T12:09:02.999Z</time></trkpt><trkpt lat="44.406915999434204" lon="11.446122718625492"><ele>326.0</ele><time>2026-04-12T12:09:04.999Z</time></trkpt><trkpt lat="44.40699904167358" lon="11.445991067229686"><ele>326.0</ele><time>2026-04-12T12:09:06.999Z</time></trkpt><trkpt lat="44.40704877293492" lon="11.445911354763204"><ele>326.0</ele><time>2026-04-12T12:09:07.999Z</time></trkpt><trkpt lat="44.40709981111413" lon="11.445825728655043"><ele>326.0</ele><time>2026-04-12T12:09:08.999Z</time></trkpt><trkpt lat="44.40715995479463" lon="11.445717288876342"><ele>325.33333333333337</ele><time>2026-04-12T12:09:09.999Z</time></trkpt><trkpt lat="44.407212701590524" lon="11.445609526353026"><ele>324.6666666666667</ele><time>2026-04-12T12:09:10.999Z</time></trkpt><trkpt lat="44.407254399233665" lon="11.44551345737197"><ele>324.0</ele><time>2026-04-12T12:09:11.999Z</time></trkpt><trkpt lat="44.4072853419855" lon="11.44541789074219"><ele>323.3333333333333</ele><time>2026-04-12T12:09:12.999Z</time></trkpt><trkpt lat="44.40730558501534" lon="11.445320746169134"><ele>322.66666666666663</ele><time>2026-04-12T12:09:13.999Z</time></trkpt><trkpt lat="44.40732791405986" lon="11.445185364675169"><ele>322.0</ele><time>2026-04-12T12:09:14.999Z</time></trkpt><trkpt lat="44.40734650725936" lon="11.445016630887077"><ele>325.75</ele><time>2026-04-12T12:09:15.998Z</time></trkpt><trkpt lat="44.40736264756763" lon="11.444807972497978"><ele>329.5</ele><time>2026-04-12T12:09:16.998Z</time></trkpt><trkpt lat="44.407374599658546" lon="11.444600654783954"><ele>333.25</ele><time>2026-04-12T12:09:17.998Z</time></trkpt><trkpt lat="44.407391967944676" lon="11.444430387010765"><ele>337.0</ele><time>2026-04-12T12:09:18.998Z</time></trkpt><trkpt lat="44.407423778944896" lon="11.44429170087543"><ele>337.0</ele><time>2026-04-12T12:09:19.998Z</time></trkpt><trkpt lat="44.407424205332816" lon="11.444165644305867"><ele>337.0</ele><time>2026-04-12T12:09:20.998Z</time></trkpt><trkpt lat="44.407440031369795" lon="11.444057828999501"><ele>337.0</ele><time>2026-04-12T12:09:21.998Z</time></trkpt><trkpt lat="44.40744739041595" lon="11.443962320879358"><ele>337.0</ele><time>2026-04-12T12:09:22.998Z</time></trkpt><trkpt lat="44.40745472943448" lon="11.44387275418303"><ele>337.0</ele><time>2026-04-12T12:09:23.998Z</time></trkpt><trkpt lat="44.40746730802318" lon="11.44370759133474"><ele>337.0</ele><time>2026-04-12T12:09:25.998Z</time></trkpt><trkpt lat="44.40747600980605" lon="11.443619341101266"><ele>337.0</ele><time>2026-04-12T12:09:26.998Z</time></trkpt><trkpt lat="44.40748498014513" lon="11.443466611783967"><ele>337.0</ele><time>2026-04-12T12:09:28.998Z</time></trkpt><trkpt lat="44.407510173116684" lon="11.443356270399368"><ele>337.0</ele><time>2026-04-12T12:09:31Z</time></trkpt><trkpt lat="44.407575945833834" lon="11.443283026688148"><ele>337.0</ele><time>2026-04-12T12:09:33Z</time></trkpt><trkpt lat="44.40764808349235" lon="11.443225047150902"><ele>337.0</ele><time>2026-04-12T12:09:35Z</time></trkpt><trkpt lat="44.40773924577531" lon="11.443331117694367"><ele>337.0</ele><time>2026-04-12T12:09:37Z</time></trkpt><trkpt lat="44.407791344307974" lon="11.443386957288263"><ele>337.0</ele><time>2026-04-12T12:09:38Z</time></trkpt><trkpt lat="44.40784561158561" lon="11.44346119993367"><ele>337.0</ele><time>2026-04-12T12:09:39Z</time></trkpt><trkpt lat="44.407920193195686" lon="11.443554646734317"><ele>337.0</ele><time>2026-04-12T12:09:40Z</time></trkpt><trkpt lat="44.407999813628535" lon="11.443636348236893"><ele>337.0</ele><time>2026-04-12T12:09:41Z</time></trkpt><trkpt lat="44.4080667281151" lon="11.443681008512046"><ele>337.0</ele><time>2026-04-12T12:09:42Z</time></trkpt><trkpt lat="44.408138772519614" lon="11.443709550475411"><ele>337.8333333333333</ele><time>2026-04-12T12:09:43Z</time></trkpt><trkpt lat="44.40821815106921" lon="11.443722789347445"><ele>338.66666666666663</ele><time>2026-04-12T12:09:44Z</time></trkpt><trkpt lat="44.408295164454714" lon="11.443708615076151"><ele>339.5</ele><time>2026-04-12T12:09:45Z</time></trkpt><trkpt lat="44.40836782179228" lon="11.443664377141594"><ele>340.3333333333333</ele><time>2026-04-12T12:09:46Z</time></trkpt><trkpt lat="44.40843608737176" lon="11.443605526873094"><ele>341.1666666666667</ele><time>2026-04-12T12:09:47Z</time></trkpt><trkpt lat="44.40849613226615" lon="11.443538886926941"><ele>342.0</ele><time>2026-04-12T12:09:48Z</time></trkpt><trkpt lat="44.40854093339066" lon="11.44346144830173"><ele>342.0</ele><time>2026-04-12T12:09:49Z</time></trkpt><trkpt lat="44.408601250639705" lon="11.44340517874518"><ele>342.0</ele><time>2026-04-12T12:09:50Z</time></trkpt><trkpt lat="44.40865486522661" lon="11.443325184984914"><ele>342.0</ele><time>2026-04-12T12:09:52Z</time></trkpt><trkpt lat="44.40859858098275" lon="11.443491730020753"><ele>342.0</ele><time>2026-04-12T12:10:03Z</time></trkpt><trkpt lat="44.40860482289282" lon="11.443620827148402"><ele>342.0</ele><time>2026-04-12T12:10:04Z</time></trkpt><trkpt lat="44.408613877580976" lon="11.443714738559633"><ele>342.0</ele><time>2026-04-12T12:10:05Z</time></trkpt><trkpt lat="44.40866016763641" lon="11.443837603374776"><ele>344.0</ele><time>2026-04-12T12:10:07Z</time></trkpt><trkpt lat="44.40868813379691" lon="11.443937046715362"><ele>346.0</ele><time>2026-04-12T12:10:08Z</time></trkpt><trkpt lat="44.40870116586573" lon="11.444069065800381"><ele>348.0</ele><time>2026-04-12T12:10:09Z</time></trkpt><trkpt lat="44.408719191539596" lon="11.444182774368144"><ele>350.0</ele><time>2026-04-12T12:10:10Z</time></trkpt><trkpt lat="44.40874428256838" lon="11.444302566338937"><ele>352.0</ele><time>2026-04-12T12:10:11Z</time></trkpt><trkpt lat="44.408765007779245" lon="11.444426962274774"><ele>354.0</ele><time>2026-04-12T12:10:12Z</time></trkpt><trkpt lat="44.40878003196649" lon="11.444547857568658"><ele>351.5</ele><time>2026-04-12T12:10:13Z</time></trkpt><trkpt lat="44.408815638426795" lon="11.444660961799881"><ele>349.0</ele><time>2026-04-12T12:10:14Z</time></trkpt><trkpt lat="44.40886143281816" lon="11.444762687432256"><ele>346.5</ele><time>2026-04-12T12:10:15Z</time></trkpt><trkpt lat="44.408920320679094" lon="11.444854962671906"><ele>344.0</ele><time>2026-04-12T12:10:16Z</time></trkpt><trkpt lat="44.40897445856046" lon="11.444952996897507"><ele>341.5</ele><time>2026-04-12T12:10:17Z</time></trkpt><trkpt lat="44.40902534618279" lon="11.445055958596623"><ele>339.0</ele><time>2026-04-12T12:10:18Z</time></trkpt><trkpt lat="44.40906930842766" lon="11.445163441122505"><ele>338.6666666666667</ele><time>2026-04-12T12:10:19Z</time></trkpt><trkpt lat="44.409113107536086" lon="11.445280295089407"><ele>338.3333333333333</ele><time>2026-04-12T12:10:20Z</time></trkpt><trkpt lat="44.40914543451804" lon="11.445395887574735"><ele>338.0</ele><time>2026-04-12T12:10:21Z</time></trkpt><trkpt lat="44.409162123678506" lon="11.445497480059794"><ele>337.66666666666663</ele><time>2026-04-12T12:10:22Z</time></trkpt><trkpt lat="44.40918208581195" lon="11.445588673978095"><ele>337.3333333333333</ele><time>2026-04-12T12:10:23Z</time></trkpt><trkpt lat="44.40922206809673" lon="11.445673571852264"><ele>337.0</ele><time>2026-04-12T12:10:24Z</time></trkpt><trkpt lat="44.40928103591254" lon="11.445753261182663"><ele>334.66666666666663</ele><time>2026-04-12T12:10:25Z</time></trkpt><trkpt lat="44.409350030393114" lon="11.445815265969534"><ele>332.3333333333333</ele><time>2026-04-12T12:10:26Z</time></trkpt><trkpt lat="44.40942541270237" lon="11.445872520700503"><ele>330.0</ele><time>2026-04-12T12:10:27Z</time></trkpt><trkpt lat="44.40950186462243" lon="11.44593531403206"><ele>327.6666666666667</ele><time>2026-04-12T12:10:28Z</time></trkpt><trkpt lat="44.409578971191614" lon="11.446001264480676"><ele>325.33333333333337</ele><time>2026-04-12T12:10:28.999Z</time></trkpt><trkpt lat="44.40964659812983" lon="11.446060862136829"><ele>323.0</ele><time>2026-04-12T12:10:29.999Z</time></trkpt><trkpt lat="44.40970986657428" lon="11.4461148768632"><ele>322.00000000000006</ele><time>2026-04-12T12:10:30.999Z</time></trkpt><trkpt lat="44.409766436796545" lon="11.446163138964357"><ele>321.0</ele><time>2026-04-12T12:10:31.999Z</time></trkpt><trkpt lat="44.40982768224852" lon="11.446191235835842"><ele>320.0</ele><time>2026-04-12T12:10:32.999Z</time></trkpt><trkpt lat="44.40989212631996" lon="11.446186997863515"><ele>319.0</ele><time>2026-04-12T12:10:33.999Z</time></trkpt><trkpt lat="44.409956955345145" lon="11.446143327730347"><ele>318.0</ele><time>2026-04-12T12:10:34.999Z</time></trkpt><trkpt lat="44.41000558352063" lon="11.446072280312848"><ele>317.00000000000006</ele><time>2026-04-12T12:10:35.999Z</time></trkpt><trkpt lat="44.410046067479556" lon="11.445988468675315"><ele>316.0</ele><time>2026-04-12T12:10:36.999Z</time></trkpt><trkpt lat="44.41003575493766" lon="11.445886597537402"><ele>316.0</ele><time>2026-04-12T12:10:37.999Z</time></trkpt><trkpt lat="44.410038492743766" lon="11.445725392125626"><ele>316.0</ele><time>2026-04-12T12:10:39.999Z</time></trkpt><trkpt lat="44.410139833272574" lon="11.445642639649302"><ele>316.0</ele><time>2026-04-12T12:10:41.999Z</time></trkpt><trkpt lat="44.410232059776064" lon="11.445671622475619"><ele>316.0</ele><time>2026-04-12T12:10:42.999Z</time></trkpt><trkpt lat="44.410370077442984" lon="11.445634281838679"><ele>313.40000000000003</ele><time>2026-04-12T12:10:43.999Z</time></trkpt><trkpt lat="44.410504026416206" lon="11.445589688391617"><ele>310.8</ele><time>2026-04-12T12:10:44.999Z</time></trkpt><trkpt lat="44.410608813991345" lon="11.445548437301518"><ele>308.20000000000005</ele><time>2026-04-12T12:10:45.999Z</time></trkpt><trkpt lat="44.41069274884547" lon="11.445521775891194"><ele>305.6</ele><time>2026-04-12T12:10:46.999Z</time></trkpt><trkpt lat="44.41077186716041" lon="11.445502065369011"><ele>303.0</ele><time>2026-04-12T12:10:47.999Z</time></trkpt><trkpt lat="44.41084028998954" lon="11.445507207340174"><ele>303.0</ele><time>2026-04-12T12:10:48.999Z</time></trkpt><trkpt lat="44.41092035673508" lon="11.445599195972928"><ele>303.0</ele><time>2026-04-12T12:10:50.999Z</time></trkpt><trkpt lat="44.41095017131551" lon="11.44576228848857"><ele>303.0</ele><time>2026-04-12T12:10:52.999Z</time></trkpt><trkpt lat="44.41093298015201" lon="11.445906505425663"><ele>303.0</ele><time>2026-04-12T12:10:54.999Z</time></trkpt><trkpt lat="44.41098332840919" lon="11.446018360779275"><ele>303.0</ele><time>2026-04-12T12:10:56.999Z</time></trkpt><trkpt lat="44.41110990699471" lon="11.446078986818835"><ele>303.0</ele><time>2026-04-12T12:10:58.999Z</time></trkpt><trkpt lat="44.41120817981021" lon="11.446116775391415"><ele>303.0</ele><time>2026-04-12T12:10:59.999Z</time></trkpt><trkpt lat="44.41128524326306" lon="11.446144991994544"><ele>303.0</ele><time>2026-04-12T12:11:00.999Z</time></trkpt><trkpt lat="44.4113679130616" lon="11.44615305109074"><ele>303.0</ele><time>2026-04-12T12:11:01.999Z</time></trkpt><trkpt lat="44.41145653749156" lon="11.446139343302834"><ele>303.0</ele><time>2026-04-12T12:11:02.999Z</time></trkpt><trkpt lat="44.41156380745562" lon="11.446107169234093"><ele>299.25</ele><time>2026-04-12T12:11:03.999Z</time></trkpt><trkpt lat="44.41167806059939" lon="11.446079993603867"><ele>295.5</ele><time>2026-04-12T12:11:04.999Z</time></trkpt><trkpt lat="44.41178429827517" lon="11.446084757441668"><ele>291.75</ele><time>2026-04-12T12:11:05.999Z</time></trkpt><trkpt lat="44.41190555416057" lon="11.446118609702701"><ele>288.0</ele><time>2026-04-12T12:11:06.999Z</time></trkpt><trkpt lat="44.41204451837735" lon="11.446209518820595"><ele>289.5</ele><time>2026-04-12T12:11:07.999Z</time></trkpt><trkpt lat="44.412180732815095" lon="11.446273579807846"><ele>291.0</ele><time>2026-04-12T12:11:08.999Z</time></trkpt><trkpt lat="44.41228185078999" lon="11.446347300258212"><ele>292.5</ele><time>2026-04-12T12:11:09.999Z</time></trkpt><trkpt lat="44.41237589013481" lon="11.446407487659679"><ele>294.0</ele><time>2026-04-12T12:11:10.999Z</time></trkpt><trkpt lat="44.4124630581108" lon="11.4464561420839"><ele>294.1666666666667</ele><time>2026-04-12T12:11:11.999Z</time></trkpt><trkpt lat="44.41254138020385" lon="11.446508258703485"><ele>294.3333333333333</ele><time>2026-04-12T12:11:12.999Z</time></trkpt><trkpt lat="44.41261510887159" lon="11.44656895004221"><ele>294.5</ele><time>2026-04-12T12:11:13.999Z</time></trkpt><trkpt lat="44.41268065700027" lon="11.446641114717929"><ele>294.66666666666663</ele><time>2026-04-12T12:11:14.999Z</time></trkpt><trkpt lat="44.41273694156422" lon="11.446732376921583"><ele>294.8333333333333</ele><time>2026-04-12T12:11:15.999Z</time></trkpt><trkpt lat="44.412776053818305" lon="11.446846085408072"><ele>295.0</ele><time>2026-04-12T12:11:16.999Z</time></trkpt><trkpt lat="44.41278099007927" lon="11.446980086112665"><ele>295.0</ele><time>2026-04-12T12:11:17.999Z</time></trkpt><trkpt lat="44.41278639820446" lon="11.447109263508812"><ele>295.0</ele><time>2026-04-12T12:11:18.999Z</time></trkpt><trkpt lat="44.41278659360811" lon="11.447244298594539"><ele>295.0</ele><time>2026-04-12T12:11:19.999Z</time></trkpt><trkpt lat="44.41278312968183" lon="11.447381104449036"><ele>295.0</ele><time>2026-04-12T12:11:20.999Z</time></trkpt><trkpt lat="44.41278236731962" lon="11.447516546673409"><ele>295.0</ele><time>2026-04-12T12:11:21.999Z</time></trkpt><trkpt lat="44.41277578813221" lon="11.447638703743124"><ele>294.6</ele><time>2026-04-12T12:11:22.998Z</time></trkpt><trkpt lat="44.412773593525586" lon="11.447755044447337"><ele>294.2</ele><time>2026-04-12T12:11:23.998Z</time></trkpt><trkpt lat="44.412793134368975" lon="11.447870315007814"><ele>293.8</ele><time>2026-04-12T12:11:24.998Z</time></trkpt><trkpt lat="44.412832226572846" lon="11.447975538580604"><ele>293.4</ele><time>2026-04-12T12:11:25.998Z</time></trkpt><trkpt lat="44.41288456105587" lon="11.448089832099093"><ele>293.0</ele><time>2026-04-12T12:11:26.998Z</time></trkpt><trkpt lat="44.41290798380363" lon="11.448229984620308"><ele>289.4</ele><time>2026-04-12T12:11:27.998Z</time></trkpt><trkpt lat="44.412944758988964" lon="11.448380714041205"><ele>285.8</ele><time>2026-04-12T12:11:28.998Z</time></trkpt><trkpt lat="44.41297820263151" lon="11.448532853405565"><ele>282.2</ele><time>2026-04-12T12:11:29.998Z</time></trkpt><trkpt lat="44.4130193284833" lon="11.448663442097738"><ele>278.6</ele><time>2026-04-12T12:11:30.998Z</time></trkpt><trkpt lat="44.41304754948763" lon="11.448770200979652"><ele>275.0</ele><time>2026-04-12T12:11:31.998Z</time></trkpt><trkpt lat="44.413102184245" lon="11.44884690191959"><ele>274.4</ele><time>2026-04-12T12:11:32.998Z</time></trkpt><trkpt lat="44.413166127637425" lon="11.44891085074933"><ele>273.8</ele><time>2026-04-12T12:11:33.998Z</time></trkpt><trkpt lat="44.41323315782582" lon="11.448955509110238"><ele>273.2</ele><time>2026-04-12T12:11:34.998Z</time></trkpt><trkpt lat="44.4133151922863" lon="11.449006058624992"><ele>272.6</ele><time>2026-04-12T12:11:35.998Z</time></trkpt><trkpt lat="44.413406401475335" lon="11.449073459552782"><ele>272.0</ele><time>2026-04-12T12:11:37Z</time></trkpt><trkpt lat="44.41353012894823" lon="11.449143616171384"><ele>272.0</ele><time>2026-04-12T12:11:38Z</time></trkpt><trkpt lat="44.41369134626266" lon="11.449231890480974"><ele>272.0</ele><time>2026-04-12T12:11:39Z</time></trkpt><trkpt lat="44.413809389115556" lon="11.449306805286605"><ele>272.0</ele><time>2026-04-12T12:11:40Z</time></trkpt><trkpt lat="44.413904436452135" lon="11.44938098232711"><ele>272.0</ele><time>2026-04-12T12:11:41Z</time></trkpt><trkpt lat="44.41401241390404" lon="11.449460757555142"><ele>273.5</ele><time>2026-04-12T12:11:42Z</time></trkpt><trkpt lat="44.41410900332076" lon="11.449584128542886"><ele>275.0</ele><time>2026-04-12T12:11:43Z</time></trkpt><trkpt lat="44.41420702783482" lon="11.449688756720928"><ele>276.5</ele><time>2026-04-12T12:11:44Z</time></trkpt><trkpt lat="44.414315143098044" lon="11.449806890720327"><ele>278.0</ele><time>2026-04-12T12:11:45Z</time></trkpt><trkpt lat="44.414427053534965" lon="11.449925706701967"><ele>279.0</ele><time>2026-04-12T12:11:46Z</time></trkpt><trkpt lat="44.41454382026717" lon="11.450032882518471"><ele>280.0</ele><time>2026-04-12T12:11:47Z</time></trkpt><trkpt lat="44.41463927301979" lon="11.450134654499434"><ele>281.0</ele><time>2026-04-12T12:11:48Z</time></trkpt><trkpt lat="44.414720987974185" lon="11.450234704690658"><ele>282.0</ele><time>2026-04-12T12:11:49Z</time></trkpt><trkpt lat="44.41479290507983" lon="11.450323308845496"><ele>282.1666666666667</ele><time>2026-04-12T12:11:50Z</time></trkpt><trkpt lat="44.414861058806316" lon="11.450403714796394"><ele>282.3333333333333</ele><time>2026-04-12T12:11:51Z</time></trkpt><trkpt lat="44.41491958090709" lon="11.450475113491077"><ele>282.5</ele><time>2026-04-12T12:11:52Z</time></trkpt><trkpt lat="44.41497321983659" lon="11.450542412236336"><ele>282.66666666666663</ele><time>2026-04-12T12:11:53Z</time></trkpt><trkpt lat="44.415021157659794" lon="11.450604591609629"><ele>282.8333333333333</ele><time>2026-04-12T12:11:54Z</time></trkpt><trkpt lat="44.41511593361804" lon="11.450710320891623"><ele>283.0</ele><time>2026-04-12T12:11:56Z</time></trkpt><trkpt lat="44.41516605856385" lon="11.450768396600065"><ele>283.0</ele><time>2026-04-12T12:11:57Z</time></trkpt><trkpt lat="44.41521911964567" lon="11.450839282716988"><ele>283.0</ele><time>2026-04-12T12:11:58Z</time></trkpt><trkpt lat="44.415273555342516" lon="11.450932260294623"><ele>283.0</ele><time>2026-04-12T12:11:59Z</time></trkpt><trkpt lat="44.415317787937546" lon="11.451037660550409"><ele>283.0</ele><time>2026-04-12T12:12:00Z</time></trkpt><trkpt lat="44.41535866261221" lon="11.451153244632957"><ele>283.0</ele><time>2026-04-12T12:12:01Z</time></trkpt><trkpt lat="44.41539299666499" lon="11.4512826727946"><ele>283.0</ele><time>2026-04-12T12:12:02Z</time></trkpt><trkpt lat="44.41542325500105" lon="11.451440417112005"><ele>282.0</ele><time>2026-04-12T12:12:03Z</time></trkpt><trkpt lat="44.41545093129141" lon="11.451596188317861"><ele>281.0</ele><time>2026-04-12T12:12:04Z</time></trkpt><trkpt lat="44.415468370360045" lon="11.451755377996097"><ele>280.0</ele><time>2026-04-12T12:12:05Z</time></trkpt><trkpt lat="44.41548210771985" lon="11.451905336852782"><ele>279.0</ele><time>2026-04-12T12:12:06Z</time></trkpt><trkpt lat="44.41549589700764" lon="11.45204933611496"><ele>278.0</ele><time>2026-04-12T12:12:07Z</time></trkpt><trkpt lat="44.41552468501883" lon="11.45218122894627"><ele>277.0</ele><time>2026-04-12T12:12:08Z</time></trkpt><trkpt lat="44.41555166630332" lon="11.452300141001635"><ele>276.0</ele><time>2026-04-12T12:12:09Z</time></trkpt><trkpt lat="44.41558937821743" lon="11.452404242942727"><ele>275.0</ele><time>2026-04-12T12:12:10Z</time></trkpt><trkpt lat="44.41562926593974" lon="11.452503067008905"><ele>274.0</ele><time>2026-04-12T12:12:11Z</time></trkpt><trkpt lat="44.41572039170962" lon="11.452553105640972"><ele>273.0</ele><time>2026-04-12T12:12:12Z</time></trkpt><trkpt lat="44.41581921681864" lon="11.45264367243332"><ele>273.0</ele><time>2026-04-12T12:12:13Z</time></trkpt><trkpt lat="44.415954902418996" lon="11.452738849867742"><ele>273.0</ele><time>2026-04-12T12:12:14Z</time></trkpt><trkpt lat="44.41612059389241" lon="11.452853795014114"><ele>273.0</ele><time>2026-04-12T12:12:15Z</time></trkpt><trkpt lat="44.416279402400775" lon="11.452962049260524"><ele>276.0</ele><time>2026-04-12T12:12:16Z</time></trkpt><trkpt lat="44.41643074267796" lon="11.453071645551603"><ele>279.0</ele><time>2026-04-12T12:12:17Z</time></trkpt><trkpt lat="44.41656807748035" lon="11.453171452002831"><ele>282.0</ele><time>2026-04-12T12:12:18Z</time></trkpt><trkpt lat="44.41669198657488" lon="11.453240688474752"><ele>282.0</ele><time>2026-04-12T12:12:19Z</time></trkpt><trkpt lat="44.41679451879267" lon="11.453291447201078"><ele>282.0</ele><time>2026-04-12T12:12:20Z</time></trkpt><trkpt lat="44.416892811225765" lon="11.453317156011684"><ele>282.0</ele><time>2026-04-12T12:12:21Z</time></trkpt><trkpt lat="44.416993259358065" lon="11.453343814666122"><ele>282.0</ele><time>2026-04-12T12:12:22Z</time></trkpt><trkpt lat="44.41710303428111" lon="11.453379566053858"><ele>282.0</ele><time>2026-04-12T12:12:23Z</time></trkpt><trkpt lat="44.41725011432152" lon="11.453419030831475"><ele>282.5</ele><time>2026-04-12T12:12:24Z</time></trkpt><trkpt lat="44.41739824222805" lon="11.453468914594762"><ele>283.0</ele><time>2026-04-12T12:12:25Z</time></trkpt><trkpt lat="44.41754002111333" lon="11.453518931052658"><ele>283.5</ele><time>2026-04-12T12:12:26Z</time></trkpt><trkpt lat="44.4176710892294" lon="11.453578055629055"><ele>284.0</ele><time>2026-04-12T12:12:27Z</time></trkpt><trkpt lat="44.417787215025555" lon="11.453623510637271"><ele>284.0</ele><time>2026-04-12T12:12:28Z</time></trkpt><trkpt lat="44.41787739501677" lon="11.45369078012089"><ele>284.0</ele><time>2026-04-12T12:12:29Z</time></trkpt><trkpt lat="44.41794001478529" lon="11.453766536744151"><ele>284.0</ele><time>2026-04-12T12:12:30Z</time></trkpt><trkpt lat="44.41798576021661" lon="11.45386020370502"><ele>284.0</ele><time>2026-04-12T12:12:31Z</time></trkpt><trkpt lat="44.41801590952343" lon="11.453969550833415"><ele>284.0</ele><time>2026-04-12T12:12:32Z</time></trkpt><trkpt lat="44.41805974913255" lon="11.454096961939722"><ele>282.8</ele><time>2026-04-12T12:12:32.999Z</time></trkpt><trkpt lat="44.41809815183914" lon="11.454223419687416"><ele>281.59999999999997</ele><time>2026-04-12T12:12:33.999Z</time></trkpt><trkpt lat="44.418138366277574" lon="11.454364032359331"><ele>280.4</ele><time>2026-04-12T12:12:34.999Z</time></trkpt><trkpt lat="44.41817846876379" lon="11.454496870918119"><ele>279.2</ele><time>2026-04-12T12:12:35.999Z</time></trkpt><trkpt lat="44.41823417705282" lon="11.454618958282099"><ele>278.0</ele><time>2026-04-12T12:12:36.999Z</time></trkpt><trkpt lat="44.41826827554126" lon="11.454735009163995"><ele>275.2</ele><time>2026-04-12T12:12:37.999Z</time></trkpt><trkpt lat="44.41830855782099" lon="11.454822573765451"><ele>272.4</ele><time>2026-04-12T12:12:38.999Z</time></trkpt><trkpt lat="44.41838004110355" lon="11.454872257362318"><ele>269.59999999999997</ele><time>2026-04-12T12:12:39.999Z</time></trkpt><trkpt lat="44.418470640462445" lon="11.454928688354629"><ele>266.8</ele><time>2026-04-12T12:12:40.999Z</time></trkpt><trkpt lat="44.418572629182144" lon="11.454982151861383"><ele>264.0</ele><time>2026-04-12T12:12:41.999Z</time></trkpt><trkpt lat="44.418679569396545" lon="11.455053374272701"><ele>264.0</ele><time>2026-04-12T12:12:42.999Z</time></trkpt><trkpt lat="44.418782388670294" lon="11.455120299414148"><ele>264.0</ele><time>2026-04-12T12:12:43.999Z</time></trkpt><trkpt lat="44.4188853923148" lon="11.455167301324026"><ele>264.0</ele><time>2026-04-12T12:12:44.999Z</time></trkpt><trkpt lat="44.41899664343951" lon="11.455203697645413"><ele>264.0</ele><time>2026-04-12T12:12:45.999Z</time></trkpt><trkpt lat="44.41909708622033" lon="11.455262519191422"><ele>264.0</ele><time>2026-04-12T12:12:46.999Z</time></trkpt><trkpt lat="44.41919663901738" lon="11.455333570078917"><ele>265.75</ele><time>2026-04-12T12:12:47.999Z</time></trkpt><trkpt lat="44.41929169243865" lon="11.455421597889966"><ele>267.5</ele><time>2026-04-12T12:12:48.999Z</time></trkpt><trkpt lat="44.41938449147546" lon="11.455517868744233"><ele>269.25</ele><time>2026-04-12T12:12:49.999Z</time></trkpt><trkpt lat="44.41947504995711" lon="11.455625307379101"><ele>271.0</ele><time>2026-04-12T12:12:50.999Z</time></trkpt><trkpt lat="44.419563824200694" lon="11.455734091070276"><ele>267.6</ele><time>2026-04-12T12:12:51.999Z</time></trkpt><trkpt lat="44.41965015589457" lon="11.455832684883438"><ele>264.20000000000005</ele><time>2026-04-12T12:12:52.999Z</time></trkpt><trkpt lat="44.41972716628867" lon="11.455914378631215"><ele>260.79999999999995</ele><time>2026-04-12T12:12:53.999Z</time></trkpt><trkpt lat="44.419803756525916" lon="11.455984952142524"><ele>257.4</ele><time>2026-04-12T12:12:54.999Z</time></trkpt><trkpt lat="44.41989746076887" lon="11.4560288252782"><ele>254.0</ele><time>2026-04-12T12:12:55.999Z</time></trkpt><trkpt lat="44.41999593915757" lon="11.45606830712458"><ele>254.0</ele><time>2026-04-12T12:12:56.999Z</time></trkpt><trkpt lat="44.420090568665195" lon="11.456112145851296"><ele>253.99999999999997</ele><time>2026-04-12T12:12:57.999Z</time></trkpt><trkpt lat="44.42018421410833" lon="11.45615674906434"><ele>253.99999999999997</ele><time>2026-04-12T12:12:58.999Z</time></trkpt><trkpt lat="44.42025746865086" lon="11.456245535845111"><ele>254.0</ele><time>2026-04-12T12:12:59.999Z</time></trkpt><trkpt lat="44.42033102766946" lon="11.456336223040276"><ele>254.0</ele><time>2026-04-12T12:13:00.999Z</time></trkpt><trkpt lat="44.42039805743964" lon="11.456432609119789"><ele>250.83333333333334</ele><time>2026-04-12T12:13:01.999Z</time></trkpt><trkpt lat="44.42044419115792" lon="11.456543656804886"><ele>247.66666666666669</ele><time>2026-04-12T12:13:02.999Z</time></trkpt><trkpt lat="44.420497020212764" lon="11.456632263578829"><ele>244.5</ele><time>2026-04-12T12:13:03.999Z</time></trkpt><trkpt lat="44.42054217097636" lon="11.456707227702081"><ele>241.33333333333331</ele><time>2026-04-12T12:13:04.999Z</time></trkpt><trkpt lat="44.420611919619034" lon="11.456785146791782"><ele>238.16666666666666</ele><time>2026-04-12T12:13:05.999Z</time></trkpt><trkpt lat="44.42069325644278" lon="11.45686424184628"><ele>235.0</ele><time>2026-04-12T12:13:06.999Z</time></trkpt><trkpt lat="44.420791899829965" lon="11.456947774185887"><ele>235.0</ele><time>2026-04-12T12:13:07.999Z</time></trkpt><trkpt lat="44.42089382223347" lon="11.45702665203068"><ele>235.0</ele><time>2026-04-12T12:13:08.999Z</time></trkpt><trkpt lat="44.42097785977255" lon="11.4570893220278"><ele>235.0</ele><time>2026-04-12T12:13:09.999Z</time></trkpt><trkpt lat="44.421057268505436" lon="11.457121773817724"><ele>235.0</ele><time>2026-04-12T12:13:10.999Z</time></trkpt><trkpt lat="44.421139342492296" lon="11.457137913901077"><ele>235.0</ele><time>2026-04-12T12:13:11.999Z</time></trkpt><trkpt lat="44.42123076180969" lon="11.457127127841984"><ele>234.99999999999997</ele><time>2026-04-12T12:13:12.999Z</time></trkpt><trkpt lat="44.421310925031506" lon="11.45710655097292"><ele>235.0</ele><time>2026-04-12T12:13:13.999Z</time></trkpt><trkpt lat="44.42137366638661" lon="11.457063747628128"><ele>235.0</ele><time>2026-04-12T12:13:14.999Z</time></trkpt><trkpt lat="44.421429052733124" lon="11.456992500318785"><ele>235.0</ele><time>2026-04-12T12:13:15.999Z</time></trkpt><trkpt lat="44.421479694973385" lon="11.456899687731756"><ele>234.99999999999997</ele><time>2026-04-12T12:13:16.999Z</time></trkpt><trkpt lat="44.421538195465935" lon="11.456772488331007"><ele>235.0</ele><time>2026-04-12T12:13:17.999Z</time></trkpt><trkpt lat="44.42160353142154" lon="11.456624302358444"><ele>234.5</ele><time>2026-04-12T12:13:18.999Z</time></trkpt><trkpt lat="44.42168706497478" lon="11.456472372457377"><ele>234.0</ele><time>2026-04-12T12:13:19.999Z</time></trkpt><trkpt lat="44.42178366933495" lon="11.45632075157736"><ele>233.5</ele><time>2026-04-12T12:13:20.999Z</time></trkpt><trkpt lat="44.421891763210745" lon="11.456200887169757"><ele>233.0</ele><time>2026-04-12T12:13:21.999Z</time></trkpt><trkpt lat="44.42200958787703" lon="11.456104923976724"><ele>233.0</ele><time>2026-04-12T12:13:22.999Z</time></trkpt><trkpt lat="44.422098241401315" lon="11.456040428530459"><ele>233.0</ele><time>2026-04-12T12:13:23.999Z</time></trkpt><trkpt lat="44.422156443924244" lon="11.455975393619873"><ele>233.0</ele><time>2026-04-12T12:13:24.999Z</time></trkpt><trkpt lat="44.422223649366614" lon="11.455947148814536"><ele>233.0</ele><time>2026-04-12T12:13:26.998Z</time></trkpt><trkpt lat="44.42222505195298" lon="11.456074708544081"><ele>233.0</ele><time>2026-04-12T12:13:29.998Z</time></trkpt><trkpt lat="44.42217485176115" lon="11.456260776408797"><ele>230.0</ele><time>2026-04-12T12:13:31.998Z</time></trkpt><trkpt lat="44.42212847596379" lon="11.456378215417518"><ele>227.0</ele><time>2026-04-12T12:13:32.998Z</time></trkpt><trkpt lat="44.42209091980857" lon="11.456515917760203"><ele>224.0</ele><time>2026-04-12T12:13:33.998Z</time></trkpt><trkpt lat="44.42205772028517" lon="11.456703787386708"><ele>221.0</ele><time>2026-04-12T12:13:34.998Z</time></trkpt><trkpt lat="44.42202098918047" lon="11.456891718445334"><ele>221.0</ele><time>2026-04-12T12:13:35.998Z</time></trkpt><trkpt lat="44.42198249153173" lon="11.457060928400674"><ele>221.0</ele><time>2026-04-12T12:13:36.998Z</time></trkpt><trkpt lat="44.42194166582654" lon="11.457233520917034"><ele>221.0</ele><time>2026-04-12T12:13:37.998Z</time></trkpt><trkpt lat="44.42189657460175" lon="11.457398522169942"><ele>221.0</ele><time>2026-04-12T12:13:38.998Z</time></trkpt><trkpt lat="44.42184195216239" lon="11.457554257170804"><ele>217.8</ele><time>2026-04-12T12:13:39.998Z</time></trkpt><trkpt lat="44.42178284205946" lon="11.45769599576229"><ele>214.60000000000002</ele><time>2026-04-12T12:13:40.998Z</time></trkpt><trkpt lat="44.42173434922115" lon="11.457816554021221"><ele>211.4</ele><time>2026-04-12T12:13:41.998Z</time></trkpt><trkpt lat="44.42169237698021" lon="11.45791760764919"><ele>208.2</ele><time>2026-04-12T12:13:43Z</time></trkpt><trkpt lat="44.421653675655584" lon="11.458068310836309"><ele>205.0</ele><time>2026-04-12T12:13:45Z</time></trkpt><trkpt lat="44.42167372157999" lon="11.458169948188859"><ele>201.6</ele><time>2026-04-12T12:13:46Z</time></trkpt><trkpt lat="44.42174698397535" lon="11.45825422311233"><ele>198.2</ele><time>2026-04-12T12:13:47Z</time></trkpt><trkpt lat="44.42180172355412" lon="11.458332292377852"><ele>194.8</ele><time>2026-04-12T12:13:48Z</time></trkpt><trkpt lat="44.42185886060113" lon="11.45844374126532"><ele>191.4</ele><time>2026-04-12T12:13:50Z</time></trkpt><trkpt lat="44.4219754891082" lon="11.458351272602513"><ele>188.0</ele><time>2026-04-12T12:13:52Z</time></trkpt><trkpt lat="44.42202464302349" lon="11.458282315654493"><ele>188.0</ele><time>2026-04-12T12:13:53Z</time></trkpt><trkpt lat="44.42208732423772" lon="11.458186117943661"><ele>188.0</ele><time>2026-04-12T12:13:54Z</time></trkpt><trkpt lat="44.422155866668305" lon="11.458081259606352"><ele>188.0</ele><time>2026-04-12T12:13:55Z</time></trkpt><trkpt lat="44.42222860174661" lon="11.457979245795055"><ele>188.0</ele><time>2026-04-12T12:13:56Z</time></trkpt><trkpt lat="44.4222992323879" lon="11.457875148309551"><ele>188.0</ele><time>2026-04-12T12:13:57Z</time></trkpt><trkpt lat="44.4223773605023" lon="11.457760988862006"><ele>185.66666666666666</ele><time>2026-04-12T12:13:58Z</time></trkpt><trkpt lat="44.42246834216836" lon="11.457632611374311"><ele>183.33333333333334</ele><time>2026-04-12T12:13:59Z</time></trkpt><trkpt lat="44.42257213527267" lon="11.457475730995151"><ele>181.0</ele><time>2026-04-12T12:14:00Z</time></trkpt><trkpt lat="44.42269143407742" lon="11.457296507345058"><ele>179.33333333333334</ele><time>2026-04-12T12:14:01Z</time></trkpt><trkpt lat="44.422814747996" lon="11.457118413567736"><ele>177.66666666666666</ele><time>2026-04-12T12:14:02Z</time></trkpt><trkpt lat="44.42294269341569" lon="11.456982432249166"><ele>176.0</ele><time>2026-04-12T12:14:03Z</time></trkpt><trkpt lat="44.42304877765428" lon="11.456841930687453"><ele>176.0</ele><time>2026-04-12T12:14:04Z</time></trkpt><trkpt lat="44.42314343721553" lon="11.456697472945532"><ele>176.0</ele><time>2026-04-12T12:14:05Z</time></trkpt><trkpt lat="44.42322709324735" lon="11.456562068639348"><ele>176.0</ele><time>2026-04-12T12:14:06Z</time></trkpt><trkpt lat="44.42330499142265" lon="11.456416156091246"><ele>176.0</ele><time>2026-04-12T12:14:07Z</time></trkpt><trkpt lat="44.423400537388524" lon="11.456273468538695"><ele>180.25</ele><time>2026-04-12T12:14:08Z</time></trkpt><trkpt lat="44.42349841238585" lon="11.456133579890043"><ele>184.5</ele><time>2026-04-12T12:14:09Z</time></trkpt><trkpt lat="44.42358369141923" lon="11.4560131601495"><ele>188.75</ele><time>2026-04-12T12:14:10Z</time></trkpt><trkpt lat="44.42365733645989" lon="11.455907394422242"><ele>193.0</ele><time>2026-04-12T12:14:11Z</time></trkpt><trkpt lat="44.42372657960062" lon="11.455797622092442"><ele>192.99999999999997</ele><time>2026-04-12T12:14:12Z</time></trkpt><trkpt lat="44.42379676685447" lon="11.455674794923866"><ele>193.0</ele><time>2026-04-12T12:14:13Z</time></trkpt><trkpt lat="44.423848485016606" lon="11.455561589313563"><ele>193.0</ele><time>2026-04-12T12:14:14Z</time></trkpt><trkpt lat="44.423882483677886" lon="11.455461862673259"><ele>193.0</ele><time>2026-04-12T12:14:15Z</time></trkpt><trkpt lat="44.423916039403366" lon="11.455356432222683"><ele>192.99999999999997</ele><time>2026-04-12T12:14:16Z</time></trkpt><trkpt lat="44.423945610885546" lon="11.455253999227079"><ele>193.0</ele><time>2026-04-12T12:14:17Z</time></trkpt><trkpt lat="44.42397670241107" lon="11.455157335545678"><ele>190.66666666666666</ele><time>2026-04-12T12:14:18Z</time></trkpt><trkpt lat="44.42401207909345" lon="11.455062971395552"><ele>188.33333333333331</ele><time>2026-04-12T12:14:19Z</time></trkpt><trkpt lat="44.42405880052456" lon="11.454969998812098"><ele>186.0</ele><time>2026-04-12T12:14:20Z</time></trkpt><trkpt lat="44.42410860479936" lon="11.45488023829364"><ele>183.66666666666666</ele><time>2026-04-12T12:14:21Z</time></trkpt><trkpt lat="44.42416602705532" lon="11.45477632644428"><ele>181.33333333333331</ele><time>2026-04-12T12:14:22Z</time></trkpt><trkpt lat="44.42423672442381" lon="11.454671792365232"><ele>179.0</ele><time>2026-04-12T12:14:23Z</time></trkpt><trkpt lat="44.42431279076962" lon="11.45456843367368"><ele>178.6</ele><time>2026-04-12T12:14:24Z</time></trkpt><trkpt lat="44.42439248066287" lon="11.454479803268011"><ele>178.2</ele><time>2026-04-12T12:14:25Z</time></trkpt><trkpt lat="44.424479347194094" lon="11.454435019171575"><ele>177.79999999999998</ele><time>2026-04-12T12:14:26Z</time></trkpt><trkpt lat="44.42455789452096" lon="11.454399768325674"><ele>177.39999999999998</ele><time>2026-04-12T12:14:27Z</time></trkpt><trkpt lat="44.424646568629484" lon="11.454401107488616"><ele>177.0</ele><time>2026-04-12T12:14:28Z</time></trkpt><trkpt lat="44.424739013697575" lon="11.454408495309044"><ele>172.75</ele><time>2026-04-12T12:14:29Z</time></trkpt><trkpt lat="44.424841749302956" lon="11.454397970127285"><ele>168.5</ele><time>2026-04-12T12:14:30Z</time></trkpt><trkpt lat="44.42495447512678" lon="11.45442329124219"><ele>164.25</ele><time>2026-04-12T12:14:31Z</time></trkpt><trkpt lat="44.42509118005227" lon="11.454433209222788"><ele>160.0</ele><time>2026-04-12T12:14:32Z</time></trkpt><trkpt lat="44.425247842781474" lon="11.454427495736306"><ele>160.0</ele><time>2026-04-12T12:14:33Z</time></trkpt><trkpt lat="44.42539440112182" lon="11.454443938844866"><ele>160.0</ele><time>2026-04-12T12:14:33.999Z</time></trkpt><trkpt lat="44.42552947213259" lon="11.454449846518187"><ele>160.0</ele><time>2026-04-12T12:14:34.999Z</time></trkpt><trkpt lat="44.42566364798281" lon="11.454459753663258"><ele>160.0</ele><time>2026-04-12T12:14:35.999Z</time></trkpt><trkpt lat="44.42580203239781" lon="11.454474034028108"><ele>157.75</ele><time>2026-04-12T12:14:36.999Z</time></trkpt><trkpt lat="44.42593087486698" lon="11.454492407952849"><ele>155.5</ele><time>2026-04-12T12:14:37.999Z</time></trkpt><trkpt lat="44.426054243591594" lon="11.45451805127206"><ele>153.25</ele><time>2026-04-12T12:14:38.999Z</time></trkpt><trkpt lat="44.42616863403544" lon="11.454553601212409"><ele>151.0</ele><time>2026-04-12T12:14:39.999Z</time></trkpt><trkpt lat="44.42627503821499" lon="11.454596671552107"><ele>150.5</ele><time>2026-04-12T12:14:40.999Z</time></trkpt><trkpt lat="44.42638212809746" lon="11.454661800761587"><ele>150.0</ele><time>2026-04-12T12:14:41.999Z</time></trkpt><trkpt lat="44.4265024896551" lon="11.454734455870263"><ele>149.5</ele><time>2026-04-12T12:14:42.999Z</time></trkpt><trkpt lat="44.42660174617324" lon="11.454829479556512"><ele>149.0</ele><time>2026-04-12T12:14:43.999Z</time></trkpt><trkpt lat="44.42669028068605" lon="11.454914807944558"><ele>149.0</ele><time>2026-04-12T12:14:44.999Z</time></trkpt><trkpt lat="44.42677569957202" lon="11.454974951754526"><ele>149.0</ele><time>2026-04-12T12:14:45.999Z</time></trkpt><trkpt lat="44.426857988365256" lon="11.455014909015768"><ele>149.0</ele><time>2026-04-12T12:14:46.999Z</time></trkpt><trkpt lat="44.42694613739223" lon="11.455052035030848"><ele>149.0</ele><time>2026-04-12T12:14:47.999Z</time></trkpt><trkpt lat="44.427070250606185" lon="11.455096928735395"><ele>149.0</ele><time>2026-04-12T12:14:48.999Z</time></trkpt><trkpt lat="44.4272422120039" lon="11.455153394284924"><ele>147.5</ele><time>2026-04-12T12:14:49.999Z</time></trkpt><trkpt lat="44.427465392416444" lon="11.455228256861359"><ele>146.0</ele><time>2026-04-12T12:14:50.999Z</time></trkpt><trkpt lat="44.427697481287076" lon="11.45529938124256"><ele>146.0</ele><time>2026-04-12T12:14:51.999Z</time></trkpt><trkpt lat="44.42785008755705" lon="11.455363177699255"><ele>146.0</ele><time>2026-04-12T12:14:52.999Z</time></trkpt><trkpt lat="44.42802638288763" lon="11.455419085519019"><ele>146.0</ele><time>2026-04-12T12:14:53.999Z</time></trkpt><trkpt lat="44.42818570373688" lon="11.455490615875426"><ele>145.0</ele><time>2026-04-12T12:14:54.999Z</time></trkpt><trkpt lat="44.42833381714548" lon="11.45555642975984"><ele>144.0</ele><time>2026-04-12T12:14:55.999Z</time></trkpt><trkpt lat="44.42847365298442" lon="11.455617132053744"><ele>143.0</ele><time>2026-04-12T12:14:56.999Z</time></trkpt><trkpt lat="44.42859830806254" lon="11.455667056273409"><ele>142.0</ele><time>2026-04-12T12:14:57.999Z</time></trkpt><trkpt lat="44.42871270993835" lon="11.455700199661305"><ele>141.6</ele><time>2026-04-12T12:14:58.999Z</time></trkpt><trkpt lat="44.42881899052081" lon="11.455708818564895"><ele>141.2</ele><time>2026-04-12T12:14:59.999Z</time></trkpt><trkpt lat="44.42892562523232" lon="11.455671470513575"><ele>140.8</ele><time>2026-04-12T12:15:00.999Z</time></trkpt><trkpt lat="44.42902821008432" lon="11.455616356378112"><ele>140.4</ele><time>2026-04-12T12:15:01.999Z</time></trkpt><trkpt lat="44.42912820650465" lon="11.455570799676078"><ele>140.0</ele><time>2026-04-12T12:15:02.999Z</time></trkpt><trkpt lat="44.429230820180315" lon="11.455547338874654"><ele>140.0</ele><time>2026-04-12T12:15:03.999Z</time></trkpt><trkpt lat="44.4293362523571" lon="11.455541897002"><ele>140.0</ele><time>2026-04-12T12:15:04.999Z</time></trkpt><trkpt lat="44.429437249176566" lon="11.45559922788281"><ele>140.0</ele><time>2026-04-12T12:15:05.999Z</time></trkpt><trkpt lat="44.42952964215359" lon="11.455683005368329"><ele>140.0</ele><time>2026-04-12T12:15:06.999Z</time></trkpt><trkpt lat="44.429626564269654" lon="11.455773771959832"><ele>140.0</ele><time>2026-04-12T12:15:07.999Z</time></trkpt><trkpt lat="44.42972521180786" lon="11.455849255157844"><ele>137.25</ele><time>2026-04-12T12:15:08.999Z</time></trkpt><trkpt lat="44.42981766182126" lon="11.455944076580096"><ele>134.5</ele><time>2026-04-12T12:15:09.999Z</time></trkpt><trkpt lat="44.42991925193442" lon="11.456039563294693"><ele>131.75</ele><time>2026-04-12T12:15:10.999Z</time></trkpt><trkpt lat="44.43002433003739" lon="11.456136383629149"><ele>129.0</ele><time>2026-04-12T12:15:11.999Z</time></trkpt><trkpt lat="44.43013653246849" lon="11.456240694829917"><ele>129.75</ele><time>2026-04-12T12:15:12.999Z</time></trkpt><trkpt lat="44.43025469948747" lon="11.456354136085888"><ele>130.5</ele><time>2026-04-12T12:15:13.999Z</time></trkpt><trkpt lat="44.430380176110155" lon="11.456472488882548"><ele>131.25</ele><time>2026-04-12T12:15:14.999Z</time></trkpt><trkpt lat="44.430507528727325" lon="11.456583632292713"><ele>132.0</ele><time>2026-04-12T12:15:15.999Z</time></trkpt><trkpt lat="44.43064041459293" lon="11.456692564796649"><ele>128.0</ele><time>2026-04-12T12:15:16.999Z</time></trkpt><trkpt lat="44.430775295755524" lon="11.456798719313886"><ele>124.0</ele><time>2026-04-12T12:15:17.999Z</time></trkpt><trkpt lat="44.43090317748729" lon="11.456904548430314"><ele>120.0</ele><time>2026-04-12T12:15:18.999Z</time></trkpt><trkpt lat="44.4310337995955" lon="11.457014280742195"><ele>119.33333333333334</ele><time>2026-04-12T12:15:19.999Z</time></trkpt><trkpt lat="44.43116594207513" lon="11.457126133728588"><ele>118.66666666666667</ele><time>2026-04-12T12:15:20.999Z</time></trkpt><trkpt lat="44.43129874696705" lon="11.45723695095359"><ele>118.0</ele><time>2026-04-12T12:15:21.999Z</time></trkpt><trkpt lat="44.431429862343" lon="11.457344369996271"><ele>118.0</ele><time>2026-04-12T12:15:22.999Z</time></trkpt><trkpt lat="44.431561390897336" lon="11.457451612837072"><ele>118.0</ele><time>2026-04-12T12:15:23.999Z</time></trkpt><trkpt lat="44.43169130287126" lon="11.457557037400086"><ele>118.0</ele><time>2026-04-12T12:15:24.999Z</time></trkpt><trkpt lat="44.43182101180324" lon="11.457663222231568"><ele>118.0</ele><time>2026-04-12T12:15:25.999Z</time></trkpt><trkpt lat="44.43195119575569" lon="11.457768758357446"><ele>118.0</ele><time>2026-04-12T12:15:26.999Z</time></trkpt><trkpt lat="44.432081696203994" lon="11.457875099410765"><ele>118.0</ele><time>2026-04-12T12:15:27.998Z</time></trkpt><trkpt lat="44.43221064111833" lon="11.457979959912358"><ele>117.25</ele><time>2026-04-12T12:15:28.998Z</time></trkpt><trkpt lat="44.43234008792816" lon="11.458083423641503"><ele>116.5</ele><time>2026-04-12T12:15:29.998Z</time></trkpt><trkpt lat="44.43246988499442" lon="11.458189236488403"><ele>115.75</ele><time>2026-04-12T12:15:30.998Z</time></trkpt><trkpt lat="44.43259664955216" lon="11.458295586231742"><ele>115.0</ele><time>2026-04-12T12:15:31.998Z</time></trkpt><trkpt lat="44.432723967691025" lon="11.458404451142618"><ele>115.0</ele><time>2026-04-12T12:15:32.998Z</time></trkpt><trkpt lat="44.43285301748588" lon="11.458510841982578"><ele>115.0</ele><time>2026-04-12T12:15:33.998Z</time></trkpt><trkpt lat="44.43298684471055" lon="11.458620867622525"><ele>115.0</ele><time>2026-04-12T12:15:34.998Z</time></trkpt><trkpt lat="44.43311518979057" lon="11.458726401228384"><ele>114.25</ele><time>2026-04-12T12:15:35.998Z</time></trkpt><trkpt lat="44.433235210741" lon="11.458824480178514"><ele>113.5</ele><time>2026-04-12T12:15:36.998Z</time></trkpt><trkpt lat="44.43335259823092" lon="11.458917597999985"><ele>112.75</ele><time>2026-04-12T12:15:37.998Z</time></trkpt><trkpt lat="44.43346116345045" lon="11.459013565377917"><ele>112.0</ele><time>2026-04-12T12:15:38.998Z</time></trkpt><trkpt lat="44.4335831612503" lon="11.459104233206398"><ele>112.0</ele><time>2026-04-12T12:15:39.998Z</time></trkpt><trkpt lat="44.43370488228081" lon="11.459201842412089"><ele>112.0</ele><time>2026-04-12T12:15:40.998Z</time></trkpt><trkpt lat="44.433821597595745" lon="11.459297238318968"><ele>112.0</ele><time>2026-04-12T12:15:41.998Z</time></trkpt><trkpt lat="44.4339296369969" lon="11.459391148143004"><ele>112.0</ele><time>2026-04-12T12:15:42.998Z</time></trkpt><trkpt lat="44.43403790422408" lon="11.459481419287613"><ele>111.25</ele><time>2026-04-12T12:15:43.998Z</time></trkpt><trkpt lat="44.43413967356723" lon="11.459574403936731"><ele>110.5</ele><time>2026-04-12T12:15:44.998Z</time></trkpt><trkpt lat="44.43423558300285" lon="11.459672094368873"><ele>109.75</ele><time>2026-04-12T12:15:45.998Z</time></trkpt><trkpt lat="44.434323138872486" lon="11.459779302844499"><ele>109.0</ele><time>2026-04-12T12:15:46.998Z</time></trkpt><trkpt lat="44.43441463639863" lon="11.459906675463994"><ele>108.33333333333334</ele><time>2026-04-12T12:15:47.998Z</time></trkpt><trkpt lat="44.43451657684744" lon="11.46005642628873"><ele>107.66666666666666</ele><time>2026-04-12T12:15:49Z</time></trkpt><trkpt lat="44.43462996050438" lon="11.4602029263246"><ele>107.0</ele><time>2026-04-12T12:15:50Z</time></trkpt><trkpt lat="44.43474303958983" lon="11.460359780233421"><ele>104.5</ele><time>2026-04-12T12:15:51Z</time></trkpt><trkpt lat="44.434849059029936" lon="11.46050961719924"><ele>102.0</ele><time>2026-04-12T12:15:52Z</time></trkpt><trkpt lat="44.43495415219141" lon="11.460656254759547"><ele>99.5</ele><time>2026-04-12T12:15:53Z</time></trkpt><trkpt lat="44.435049918924335" lon="11.46079164588798"><ele>97.0</ele><time>2026-04-12T12:15:54Z</time></trkpt><trkpt lat="44.43512711055073" lon="11.460900685016282"><ele>97.0</ele><time>2026-04-12T12:15:55Z</time></trkpt><trkpt lat="44.43518767633165" lon="11.460987210911272"><ele>97.0</ele><time>2026-04-12T12:15:56Z</time></trkpt><trkpt lat="44.435252202810716" lon="11.461078586313727"><ele>97.0</ele><time>2026-04-12T12:15:57Z</time></trkpt><trkpt lat="44.43531885126288" lon="11.461173217381575"><ele>97.0</ele><time>2026-04-12T12:15:58Z</time></trkpt><trkpt lat="44.4354128878022" lon="11.461279572873144"><ele>97.0</ele><time>2026-04-12T12:15:59Z</time></trkpt><trkpt lat="44.435551439517276" lon="11.461421478417622"><ele>95.0</ele><time>2026-04-12T12:16:00Z</time></trkpt><trkpt lat="44.43568985236293" lon="11.461544288199397"><ele>93.0</ele><time>2026-04-12T12:16:01Z</time></trkpt><trkpt lat="44.4358161178392" lon="11.461669185904048"><ele>91.0</ele><time>2026-04-12T12:16:02Z</time></trkpt><trkpt lat="44.43593748888562" lon="11.461798162894304"><ele>91.0</ele><time>2026-04-12T12:16:03Z</time></trkpt><trkpt lat="44.436037940349685" lon="11.461943421251114"><ele>91.0</ele><time>2026-04-12T12:16:04Z</time></trkpt><trkpt lat="44.43613376595099" lon="11.46210929499251"><ele>91.0</ele><time>2026-04-12T12:16:05Z</time></trkpt><trkpt lat="44.43621917820974" lon="11.462311429525307"><ele>88.33333333333333</ele><time>2026-04-12T12:16:06Z</time></trkpt><trkpt lat="44.43632732000172" lon="11.462490069221285"><ele>85.66666666666667</ele><time>2026-04-12T12:16:07Z</time></trkpt><trkpt lat="44.436416461522306" lon="11.462660626720393"><ele>83.0</ele><time>2026-04-12T12:16:08Z</time></trkpt><trkpt lat="44.436494505093066" lon="11.46281023064068"><ele>83.0</ele><time>2026-04-12T12:16:09Z</time></trkpt><trkpt lat="44.43655276039786" lon="11.462932921834048"><ele>83.0</ele><time>2026-04-12T12:16:10Z</time></trkpt><trkpt lat="44.436611170104165" lon="11.463043132357559"><ele>83.0</ele><time>2026-04-12T12:16:11Z</time></trkpt><trkpt lat="44.43666173974626" lon="11.46313874567925"><ele>83.0</ele><time>2026-04-12T12:16:12Z</time></trkpt><trkpt lat="44.43670777202264" lon="11.463219526067794"><ele>83.0</ele><time>2026-04-12T12:16:13Z</time></trkpt><trkpt lat="44.436771644899196" lon="11.463320527003237"><ele>83.0</ele><time>2026-04-12T12:16:15Z</time></trkpt><trkpt lat="44.43684842611082" lon="11.46329526948131"><ele>83.0</ele><time>2026-04-12T12:16:17Z</time></trkpt><trkpt lat="44.43689867853916" lon="11.463138614388416"><ele>83.0</ele><time>2026-04-12T12:16:19Z</time></trkpt><trkpt lat="44.43691333212862" lon="11.462993481573498"><ele>83.0</ele><time>2026-04-12T12:16:20Z</time></trkpt><trkpt lat="44.43695074484673" lon="11.462823460137136"><ele>83.0</ele><time>2026-04-12T12:16:21Z</time></trkpt><trkpt lat="44.437045146232464" lon="11.462660149052834"><ele>82.0</ele><time>2026-04-12T12:16:22Z</time></trkpt><trkpt lat="44.437143302653396" lon="11.462430973428729"><ele>81.0</ele><time>2026-04-12T12:16:23Z</time></trkpt><trkpt lat="44.43725326608203" lon="11.46222464096062"><ele>80.0</ele><time>2026-04-12T12:16:24Z</time></trkpt><trkpt lat="44.43735192896155" lon="11.462051085511227"><ele>80.0</ele><time>2026-04-12T12:16:25Z</time></trkpt><trkpt lat="44.437446763050495" lon="11.461893368468363"><ele>80.0</ele><time>2026-04-12T12:16:26Z</time></trkpt><trkpt lat="44.437543968719694" lon="11.461759463130717"><ele>80.0</ele><time>2026-04-12T12:16:27Z</time></trkpt><trkpt lat="44.43764689672244" lon="11.46165339715757"><ele>80.0</ele><time>2026-04-12T12:16:28Z</time></trkpt><trkpt lat="44.43775054483633" lon="11.461574126458755"><ele>80.0</ele><time>2026-04-12T12:16:29Z</time></trkpt><trkpt lat="44.43784660016844" lon="11.461505545545016"><ele>80.0</ele><time>2026-04-12T12:16:30Z</time></trkpt><trkpt lat="44.43793083525284" lon="11.461432493074081"><ele>80.0</ele><time>2026-04-12T12:16:31Z</time></trkpt><trkpt lat="44.43801243803743" lon="11.46135399247156"><ele>80.0</ele><time>2026-04-12T12:16:32Z</time></trkpt><trkpt lat="44.43811519036243" lon="11.461252274674447"><ele>80.0</ele><time>2026-04-12T12:16:33Z</time></trkpt><trkpt lat="44.43823233491243" lon="11.461122152709127"><ele>81.0</ele><time>2026-04-12T12:16:34Z</time></trkpt><trkpt lat="44.438346052117396" lon="11.460973132088862"><ele>82.0</ele><time>2026-04-12T12:16:35Z</time></trkpt><trkpt lat="44.438460440949044" lon="11.460813237270063"><ele>83.0</ele><time>2026-04-12T12:16:36Z</time></trkpt><trkpt lat="44.4385729781893" lon="11.460663230612779"><ele>83.0</ele><time>2026-04-12T12:16:37Z</time></trkpt><trkpt lat="44.438663622524366" lon="11.460489976249871"><ele>83.0</ele><time>2026-04-12T12:16:37.999Z</time></trkpt><trkpt lat="44.43874219520524" lon="11.460299588516282"><ele>83.0</ele><time>2026-04-12T12:16:38.999Z</time></trkpt><trkpt lat="44.4388078769889" lon="11.460106948797758"><ele>82.75</ele><time>2026-04-12T12:16:39.999Z</time></trkpt><trkpt lat="44.43886617596008" lon="11.459933325393191"><ele>82.5</ele><time>2026-04-12T12:16:40.999Z</time></trkpt><trkpt lat="44.43892401160254" lon="11.459777848537241"><ele>82.25</ele><time>2026-04-12T12:16:41.999Z</time></trkpt><trkpt lat="44.438986513982755" lon="11.459636931587028"><ele>82.0</ele><time>2026-04-12T12:16:42.999Z</time></trkpt><trkpt lat="44.43905099451707" lon="11.459489374526008"><ele>83.33333333333333</ele><time>2026-04-12T12:16:43.999Z</time></trkpt><trkpt lat="44.439121512607144" lon="11.4593065232142"><ele>84.66666666666667</ele><time>2026-04-12T12:16:44.999Z</time></trkpt><trkpt lat="44.43919091149192" lon="11.459095358948007"><ele>86.0</ele><time>2026-04-12T12:16:45.999Z</time></trkpt><trkpt lat="44.43925335047669" lon="11.458865263054625"><ele>86.0</ele><time>2026-04-12T12:16:46.999Z</time></trkpt><trkpt lat="44.43930968926159" lon="11.458611058649314"><ele>86.0</ele><time>2026-04-12T12:16:47.999Z</time></trkpt><trkpt lat="44.43936673870469" lon="11.458334844637372"><ele>86.0</ele><time>2026-04-12T12:16:48.999Z</time></trkpt><trkpt lat="44.43943217036938" lon="11.458057870805536"><ele>85.0</ele><time>2026-04-12T12:16:49.999Z</time></trkpt><trkpt lat="44.439500476580974" lon="11.457783178555186"><ele>84.0</ele><time>2026-04-12T12:16:50.999Z</time></trkpt><trkpt lat="44.4395647410436" lon="11.457518716988014"><ele>83.0</ele><time>2026-04-12T12:16:51.999Z</time></trkpt><trkpt lat="44.43962435872634" lon="11.457246668869962"><ele>82.5</ele><time>2026-04-12T12:16:52.999Z</time></trkpt><trkpt lat="44.43969356616504" lon="11.456933630830758"><ele>82.0</ele><time>2026-04-12T12:16:53.999Z</time></trkpt><trkpt lat="44.43977275089301" lon="11.456582276742047"><ele>81.5</ele><time>2026-04-12T12:16:54.999Z</time></trkpt><trkpt lat="44.439850730364725" lon="11.45625703777366"><ele>81.0</ele><time>2026-04-12T12:16:55.999Z</time></trkpt><trkpt lat="44.43992458017717" lon="11.455955638346431"><ele>81.0</ele><time>2026-04-12T12:16:56.999Z</time></trkpt><trkpt lat="44.43999254227634" lon="11.455664728773252"><ele>81.0</ele><time>2026-04-12T12:16:57.999Z</time></trkpt><trkpt lat="44.44005777007271" lon="11.455379453155514"><ele>81.0</ele><time>2026-04-12T12:16:58.999Z</time></trkpt><trkpt lat="44.44012079829785" lon="11.45511199877272"><ele>80.66666666666667</ele><time>2026-04-12T12:16:59.999Z</time></trkpt><trkpt lat="44.44018191474964" lon="11.45486621886826"><ele>80.33333333333334</ele><time>2026-04-12T12:17:00.999Z</time></trkpt><trkpt lat="44.440236746113996" lon="11.454641287551883"><ele>80.0</ele><time>2026-04-12T12:17:01.999Z</time></trkpt><trkpt lat="44.44028899914813" lon="11.454429287721956"><ele>79.75</ele><time>2026-04-12T12:17:02.999Z</time></trkpt><trkpt lat="44.44033972855594" lon="11.45423262787501"><ele>79.5</ele><time>2026-04-12T12:17:03.999Z</time></trkpt><trkpt lat="44.440393858924125" lon="11.454050835237767"><ele>79.25</ele><time>2026-04-12T12:17:04.999Z</time></trkpt><trkpt lat="44.44045245372324" lon="11.45386734307086"><ele>79.0</ele><time>2026-04-12T12:17:05.999Z</time></trkpt><trkpt lat="44.44051596839259" lon="11.453679771389908"><ele>79.0</ele><time>2026-04-12T12:17:06.999Z</time></trkpt><trkpt lat="44.44057898666823" lon="11.453487221096783"><ele>79.0</ele><time>2026-04-12T12:17:07.999Z</time></trkpt><trkpt lat="44.44064180164205" lon="11.453294768870695"><ele>79.0</ele><time>2026-04-12T12:17:08.999Z</time></trkpt><trkpt lat="44.44070492429205" lon="11.45310120068928"><ele>78.33333333333333</ele><time>2026-04-12T12:17:09.999Z</time></trkpt><trkpt lat="44.440769610234995" lon="11.452903396253035"><ele>77.66666666666667</ele><time>2026-04-12T12:17:10.999Z</time></trkpt><trkpt lat="44.44083318599665" lon="11.45270703065378"><ele>77.0</ele><time>2026-04-12T12:17:11.999Z</time></trkpt><trkpt lat="44.44089701135114" lon="11.452503754120034"><ele>77.0</ele><time>2026-04-12T12:17:12.999Z</time></trkpt><trkpt lat="44.44095837619328" lon="11.452309828617231"><ele>77.0</ele><time>2026-04-12T12:17:13.999Z</time></trkpt><trkpt lat="44.44101665892645" lon="11.452125259185083"><ele>77.0</ele><time>2026-04-12T12:17:14.999Z</time></trkpt><trkpt lat="44.441070992540034" lon="11.451954497688178"><ele>77.0</ele><time>2026-04-12T12:17:15.999Z</time></trkpt><trkpt lat="44.44112139221819" lon="11.45179905993589"><ele>77.0</ele><time>2026-04-12T12:17:16.999Z</time></trkpt><trkpt lat="44.44117564437397" lon="11.451681244737879"><ele>77.0</ele><time>2026-04-12T12:17:17.999Z</time></trkpt><trkpt lat="44.44124667769984" lon="11.45159928010865"><ele>77.0</ele><time>2026-04-12T12:17:18.999Z</time></trkpt><trkpt lat="44.44134102226905" lon="11.4515832982329"><ele>77.0</ele><time>2026-04-12T12:17:19.999Z</time></trkpt><trkpt lat="44.441436143900845" lon="11.451619471502523"><ele>77.0</ele><time>2026-04-12T12:17:20.999Z</time></trkpt><trkpt lat="44.44153513586839" lon="11.451691158121394"><ele>77.25</ele><time>2026-04-12T12:17:21.999Z</time></trkpt><trkpt lat="44.441639728955536" lon="11.45179563140136"><ele>77.5</ele><time>2026-04-12T12:17:22.999Z</time></trkpt><trkpt lat="44.44175771690004" lon="11.451915927188479"><ele>77.75</ele><time>2026-04-12T12:17:23.999Z</time></trkpt><trkpt lat="44.44189262160399" lon="11.452034147336638"><ele>78.0</ele><time>2026-04-12T12:17:24.999Z</time></trkpt><trkpt lat="44.44203664417201" lon="11.452161026704173"><ele>77.33333333333333</ele><time>2026-04-12T12:17:25.999Z</time></trkpt><trkpt lat="44.442176789721685" lon="11.452288529541391"><ele>76.66666666666666</ele><time>2026-04-12T12:17:26.999Z</time></trkpt><trkpt lat="44.44230124197245" lon="11.45239745212305"><ele>76.0</ele><time>2026-04-12T12:17:27.999Z</time></trkpt><trkpt lat="44.44242686576606" lon="11.452505755383097"><ele>76.0</ele><time>2026-04-12T12:17:28.999Z</time></trkpt><trkpt lat="44.442550075084405" lon="11.452612800177873"><ele>76.0</ele><time>2026-04-12T12:17:29.999Z</time></trkpt><trkpt lat="44.44267810492802" lon="11.452726917906627"><ele>76.0</ele><time>2026-04-12T12:17:30.999Z</time></trkpt><trkpt lat="44.442812961484236" lon="11.452844746729562"><ele>76.33333333333333</ele><time>2026-04-12T12:17:31.998Z</time></trkpt><trkpt lat="44.44294695088257" lon="11.452957463261068"><ele>76.66666666666667</ele><time>2026-04-12T12:17:32.998Z</time></trkpt><trkpt lat="44.4430848190249" lon="11.453074507215954"><ele>77.0</ele><time>2026-04-12T12:17:33.998Z</time></trkpt><trkpt lat="44.44322602445822" lon="11.453193868218912"><ele>77.0</ele><time>2026-04-12T12:17:34.998Z</time></trkpt><trkpt lat="44.44336182824134" lon="11.453311937534853"><ele>77.0</ele><time>2026-04-12T12:17:35.998Z</time></trkpt><trkpt lat="44.44348954540576" lon="11.453420828945955"><ele>77.0</ele><time>2026-04-12T12:17:36.998Z</time></trkpt><trkpt lat="44.44362036869594" lon="11.453531526219797"><ele>77.0</ele><time>2026-04-12T12:17:37.998Z</time></trkpt><trkpt lat="44.44375091011017" lon="11.453644353148446"><ele>77.0</ele><time>2026-04-12T12:17:38.998Z</time></trkpt><trkpt lat="44.44387300318291" lon="11.45374996982889"><ele>77.0</ele><time>2026-04-12T12:17:39.998Z</time></trkpt><trkpt lat="44.44398762608321" lon="11.45384644959281"><ele>77.0</ele><time>2026-04-12T12:17:40.998Z</time></trkpt><trkpt lat="44.44409268517279" lon="11.453937985274553"><ele>76.2</ele><time>2026-04-12T12:17:41.998Z</time></trkpt><trkpt lat="44.44418011372683" lon="11.454022482807831"><ele>75.4</ele><time>2026-04-12T12:17:42.998Z</time></trkpt><trkpt lat="44.444262204551" lon="11.454105555872804"><ele>74.6</ele><time>2026-04-12T12:17:43.998Z</time></trkpt><trkpt lat="44.4443398717543" lon="11.454189441781857"><ele>73.8</ele><time>2026-04-12T12:17:44.998Z</time></trkpt><trkpt lat="44.444415123644795" lon="11.454239780944627"><ele>73.0</ele><time>2026-04-12T12:17:45.998Z</time></trkpt><trkpt lat="44.44450077198182" lon="11.454321533072392"><ele>73.0</ele><time>2026-04-12T12:17:47.998Z</time></trkpt><trkpt lat="44.44445192720519" lon="11.454241118986596"><ele>73.0</ele><time>2026-04-12T12:17:56Z</time></trkpt><trkpt lat="44.444324942502874" lon="11.45412868314871"><ele>73.0</ele><time>2026-04-12T12:17:58Z</time></trkpt><trkpt lat="44.44423329307421" lon="11.454041110337702"><ele>73.0</ele><time>2026-04-12T12:17:59Z</time></trkpt><trkpt lat="44.44415519448328" lon="11.453966066734372"><ele>73.0</ele><time>2026-04-12T12:18:00Z</time></trkpt><trkpt lat="44.44408041956589" lon="11.45389693829095"><ele>73.0</ele><time>2026-04-12T12:18:01Z</time></trkpt><trkpt lat="44.44400161459773" lon="11.45382348169564"><ele>73.0</ele><time>2026-04-12T12:18:02Z</time></trkpt><trkpt lat="44.443864135864565" lon="11.453700065188878"><ele>73.0</ele><time>2026-04-12T12:18:03Z</time></trkpt><trkpt lat="44.44368769287123" lon="11.453541710370693"><ele>74.33333333333333</ele><time>2026-04-12T12:18:04Z</time></trkpt><trkpt lat="44.4435503827476" lon="11.453416954137403"><ele>75.66666666666667</ele><time>2026-04-12T12:18:05Z</time></trkpt><trkpt lat="44.44341792557157" lon="11.453308571402935"><ele>77.0</ele><time>2026-04-12T12:18:06Z</time></trkpt><trkpt lat="44.44329457673904" lon="11.45320758628202"><ele>77.0</ele><time>2026-04-12T12:18:07Z</time></trkpt><trkpt lat="44.44318469012527" lon="11.453120343038952"><ele>77.0</ele><time>2026-04-12T12:18:08Z</time></trkpt><trkpt lat="44.44310426358818" lon="11.45302446472173"><ele>77.0</ele><time>2026-04-12T12:18:09Z</time></trkpt><trkpt lat="44.44302619140192" lon="11.452956804094246"><ele>77.0</ele><time>2026-04-12T12:18:10Z</time></trkpt><trkpt lat="44.442956977600964" lon="11.452919842306658"><ele>77.0</ele><time>2026-04-12T12:18:11Z</time></trkpt><trkpt lat="44.44291892595847" lon="11.452847053686671"><ele>76.75</ele><time>2026-04-12T12:18:12Z</time></trkpt><trkpt lat="44.442940010727554" lon="11.452664812521617"><ele>76.5</ele><time>2026-04-12T12:18:14Z</time></trkpt><trkpt lat="44.442985217547935" lon="11.452560758189433"><ele>76.25</ele><time>2026-04-12T12:18:15Z</time></trkpt><trkpt lat="44.44303884108703" lon="11.452430389135138"><ele>76.0</ele><time>2026-04-12T12:18:16Z</time></trkpt><trkpt lat="44.44310341347733" lon="11.452254188171848"><ele>76.0</ele><time>2026-04-12T12:18:17Z</time></trkpt><trkpt lat="44.44317697823928" lon="11.452032927401"><ele>76.0</ele><time>2026-04-12T12:18:18Z</time></trkpt><trkpt lat="44.44325942981033" lon="11.451790939395488"><ele>76.0</ele><time>2026-04-12T12:18:19Z</time></trkpt><trkpt lat="44.44335369492454" lon="11.45152868399279"><ele>75.33333333333333</ele><time>2026-04-12T12:18:20Z</time></trkpt><trkpt lat="44.44345547154569" lon="11.451252329064175"><ele>74.66666666666667</ele><time>2026-04-12T12:18:21Z</time></trkpt><trkpt lat="44.44354880971402" lon="11.451002215792998"><ele>74.0</ele><time>2026-04-12T12:18:22Z</time></trkpt><trkpt lat="44.44363399128576" lon="11.450773743126378"><ele>74.0</ele><time>2026-04-12T12:18:23Z</time></trkpt><trkpt lat="44.443713531990035" lon="11.450557681065707"><ele>74.0</ele><time>2026-04-12T12:18:24Z</time></trkpt><trkpt lat="44.4437892563171" lon="11.450342856943331"><ele>74.0</ele><time>2026-04-12T12:18:25Z</time></trkpt><trkpt lat="44.443856903339395" lon="11.450146748914838"><ele>73.5</ele><time>2026-04-12T12:18:26Z</time></trkpt><trkpt lat="44.44391942111499" lon="11.449968044742691"><ele>73.0</ele><time>2026-04-12T12:18:27Z</time></trkpt><trkpt lat="44.443979142933635" lon="11.449801380141519"><ele>72.5</ele><time>2026-04-12T12:18:28Z</time></trkpt><trkpt lat="44.444039785679635" lon="11.449646110179497"><ele>72.0</ele><time>2026-04-12T12:18:29Z</time></trkpt><trkpt lat="44.44409559911423" lon="11.449501612591753"><ele>72.0</ele><time>2026-04-12T12:18:30Z</time></trkpt><trkpt lat="44.444144836662105" lon="11.449364914932037"><ele>72.0</ele><time>2026-04-12T12:18:31Z</time></trkpt><trkpt lat="44.44418973653499" lon="11.44923545534012"><ele>72.0</ele><time>2026-04-12T12:18:32Z</time></trkpt><trkpt lat="44.4442300916217" lon="11.449111664143357"><ele>72.0</ele><time>2026-04-12T12:18:33Z</time></trkpt><trkpt lat="44.44426658171578" lon="11.448981008276588"><ele>72.0</ele><time>2026-04-12T12:18:34Z</time></trkpt><trkpt lat="44.44428528179388" lon="11.448839854584044"><ele>72.6</ele><time>2026-04-12T12:18:35Z</time></trkpt><trkpt lat="44.44427687595228" lon="11.448693143118858"><ele>73.2</ele><time>2026-04-12T12:18:36Z</time></trkpt><trkpt lat="44.44425083512427" lon="11.448547145714047"><ele>73.8</ele><time>2026-04-12T12:18:37Z</time></trkpt><trkpt lat="44.44421467058165" lon="11.448393932048795"><ele>74.4</ele><time>2026-04-12T12:18:38Z</time></trkpt><trkpt lat="44.444177350619064" lon="11.448236882853957"><ele>75.0</ele><time>2026-04-12T12:18:39Z</time></trkpt><trkpt lat="44.444143494697" lon="11.448089978314975"><ele>75.0</ele><time>2026-04-12T12:18:40Z</time></trkpt><trkpt lat="44.44410922476363" lon="11.447954597422706"><ele>75.0</ele><time>2026-04-12T12:18:41Z</time></trkpt><trkpt lat="44.44408333139472" lon="11.447824534925516"><ele>75.0</ele><time>2026-04-12T12:18:41.999Z</time></trkpt><trkpt lat="44.44407683206623" lon="11.447694935579355"><ele>75.0</ele><time>2026-04-12T12:18:42.999Z</time></trkpt><trkpt lat="44.44408745541913" lon="11.447568942544295"><ele>75.0</ele><time>2026-04-12T12:18:43.999Z</time></trkpt><trkpt lat="44.44411150121343" lon="11.44745642849394"><ele>75.0</ele><time>2026-04-12T12:18:44.999Z</time></trkpt><trkpt lat="44.44415194924934" lon="11.447369666940016"><ele>75.0</ele><time>2026-04-12T12:18:45.999Z</time></trkpt><trkpt lat="44.44419641597578" lon="11.447226699606194"><ele>75.0</ele><time>2026-04-12T12:18:47.999Z</time></trkpt><trkpt lat="44.444305554316664" lon="11.447221284193898"><ele>75.0</ele><time>2026-04-12T12:18:48.999Z</time></trkpt><trkpt lat="44.444378806914884" lon="11.447182416569568"><ele>75.0</ele><time>2026-04-12T12:18:49.999Z</time></trkpt><trkpt lat="44.444457523235464" lon="11.447127957646883"><ele>74.8</ele><time>2026-04-12T12:18:50.999Z</time></trkpt><trkpt lat="44.44452994228618" lon="11.447060019407257"><ele>74.6</ele><time>2026-04-12T12:18:51.999Z</time></trkpt><trkpt lat="44.444592059459225" lon="11.447000837685817"><ele>74.4</ele><time>2026-04-12T12:18:52.999Z</time></trkpt><trkpt lat="44.44473919267169" lon="11.446961906402546"><ele>74.2</ele><time>2026-04-12T12:18:54.999Z</time></trkpt><trkpt lat="44.44483644993751" lon="11.446992912036556"><ele>74.0</ele><time>2026-04-12T12:18:55.999Z</time></trkpt><trkpt lat="44.44494264344726" lon="11.447044685237701"><ele>73.5</ele><time>2026-04-12T12:18:56.999Z</time></trkpt><trkpt lat="44.44505418313604" lon="11.447098298539279"><ele>73.0</ele><time>2026-04-12T12:18:57.999Z</time></trkpt><trkpt lat="44.44516240061018" lon="11.44714499624184"><ele>72.5</ele><time>2026-04-12T12:18:58.999Z</time></trkpt><trkpt lat="44.44527806256367" lon="11.447188909055575"><ele>72.0</ele><time>2026-04-12T12:18:59.999Z</time></trkpt><trkpt lat="44.44541192621334" lon="11.447256483747788"><ele>72.5</ele><time>2026-04-12T12:19:00.999Z</time></trkpt><trkpt lat="44.4455499172575" lon="11.447320362460227"><ele>73.0</ele><time>2026-04-12T12:19:01.999Z</time></trkpt><trkpt lat="44.445676453656816" lon="11.447373714491256"><ele>73.5</ele><time>2026-04-12T12:19:02.999Z</time></trkpt><trkpt lat="44.44580390505544" lon="11.447416018786479"><ele>74.0</ele><time>2026-04-12T12:19:03.999Z</time></trkpt><trkpt lat="44.44593546263666" lon="11.447437591866345"><ele>74.0</ele><time>2026-04-12T12:19:04.999Z</time></trkpt><trkpt lat="44.44607626518358" lon="11.447435396825982"><ele>74.0</ele><time>2026-04-12T12:19:05.999Z</time></trkpt><trkpt lat="44.446225607145394" lon="11.447412049397249"><ele>74.0</ele><time>2026-04-12T12:19:06.999Z</time></trkpt><trkpt lat="44.446387503718576" lon="11.447380533054217"><ele>73.66666666666667</ele><time>2026-04-12T12:19:07.999Z</time></trkpt><trkpt lat="44.4465601316578" lon="11.447356224914131"><ele>73.33333333333333</ele><time>2026-04-12T12:19:08.999Z</time></trkpt><trkpt lat="44.44674188504544" lon="11.447339177848383"><ele>73.0</ele><time>2026-04-12T12:19:09.999Z</time></trkpt><trkpt lat="44.44692815737555" lon="11.447316575500047"><ele>73.0</ele><time>2026-04-12T12:19:10.999Z</time></trkpt><trkpt lat="44.4471178249895" lon="11.447295661860299"><ele>73.0</ele><time>2026-04-12T12:19:11.999Z</time></trkpt><trkpt lat="44.44729776248152" lon="11.447274774112929"><ele>73.0</ele><time>2026-04-12T12:19:12.999Z</time></trkpt><trkpt lat="44.44747714893633" lon="11.447253578457346"><ele>72.66666666666666</ele><time>2026-04-12T12:19:13.999Z</time></trkpt><trkpt lat="44.447673132080666" lon="11.447233648591215"><ele>72.33333333333333</ele><time>2026-04-12T12:19:14.999Z</time></trkpt><trkpt lat="44.44789921377921" lon="11.447210872630665"><ele>72.0</ele><time>2026-04-12T12:19:15.999Z</time></trkpt><trkpt lat="44.44813818228332" lon="11.447185729667849"><ele>71.66666666666667</ele><time>2026-04-12T12:19:16.999Z</time></trkpt><trkpt lat="44.44834795128101" lon="11.447166495528753"><ele>71.33333333333334</ele><time>2026-04-12T12:19:17.999Z</time></trkpt><trkpt lat="44.44853788171784" lon="11.447151961162913"><ele>71.0</ele><time>2026-04-12T12:19:18.999Z</time></trkpt><trkpt lat="44.44871645170899" lon="11.447138424644344"><ele>70.66666666666667</ele><time>2026-04-12T12:19:19.999Z</time></trkpt><trkpt lat="44.44891355744595" lon="11.447120673460923"><ele>70.33333333333333</ele><time>2026-04-12T12:19:20.999Z</time></trkpt><trkpt lat="44.44911979065485" lon="11.447098276777595"><ele>70.0</ele><time>2026-04-12T12:19:21.999Z</time></trkpt><trkpt lat="44.4493431174623" lon="11.447068635605463"><ele>70.0</ele><time>2026-04-12T12:19:22.999Z</time></trkpt><trkpt lat="44.449568129482806" lon="11.447052411287794"><ele>70.0</ele><time>2026-04-12T12:19:23.999Z</time></trkpt><trkpt lat="44.44977193474177" lon="11.44704390621738"><ele>70.0</ele><time>2026-04-12T12:19:24.999Z</time></trkpt><trkpt lat="44.44995673513234" lon="11.447034352880044"><ele>68.66666666666666</ele><time>2026-04-12T12:19:25.999Z</time></trkpt><trkpt lat="44.45012567183544" lon="11.447024385301267"><ele>67.33333333333333</ele><time>2026-04-12T12:19:26.999Z</time></trkpt><trkpt lat="44.45028530489414" lon="11.447014452143184"><ele>66.0</ele><time>2026-04-12T12:19:27.999Z</time></trkpt><trkpt lat="44.450435420181314" lon="11.447006106783292"><ele>66.0</ele><time>2026-04-12T12:19:28.999Z</time></trkpt><trkpt lat="44.450590856873404" lon="11.446997059093162"><ele>66.0</ele><time>2026-04-12T12:19:29.999Z</time></trkpt><trkpt lat="44.45074430766586" lon="11.446986127388078"><ele>66.0</ele><time>2026-04-12T12:19:30.999Z</time></trkpt><trkpt lat="44.450897012114716" lon="11.44698092481636"><ele>66.0</ele><time>2026-04-12T12:19:31.999Z</time></trkpt><trkpt lat="44.4510428818175" lon="11.446970471399712"><ele>66.0</ele><time>2026-04-12T12:19:32.999Z</time></trkpt><trkpt lat="44.451191717701114" lon="11.446958264944683"><ele>66.0</ele><time>2026-04-12T12:19:33.999Z</time></trkpt><trkpt lat="44.4513459064514" lon="11.446950376562928"><ele>66.0</ele><time>2026-04-12T12:19:34.998Z</time></trkpt><trkpt lat="44.451506602989525" lon="11.446948330297737"><ele>66.66666666666667</ele><time>2026-04-12T12:19:35.998Z</time></trkpt><trkpt lat="44.45167464543942" lon="11.446933527868422"><ele>67.33333333333334</ele><time>2026-04-12T12:19:36.998Z</time></trkpt><trkpt lat="44.451848116507236" lon="11.44691892811382"><ele>68.0</ele><time>2026-04-12T12:19:37.998Z</time></trkpt><trkpt lat="44.452029195167306" lon="11.446918923979425"><ele>68.0</ele><time>2026-04-12T12:19:38.998Z</time></trkpt><trkpt lat="44.45221530114386" lon="11.446942324074888"><ele>68.0</ele><time>2026-04-12T12:19:39.998Z</time></trkpt><trkpt lat="44.45239546574225" lon="11.446993396020662"><ele>68.0</ele><time>2026-04-12T12:19:40.998Z</time></trkpt><trkpt lat="44.452579774820514" lon="11.447074644925287"><ele>68.0</ele><time>2026-04-12T12:19:41.998Z</time></trkpt><trkpt lat="44.4527703545128" lon="11.447182328329413"><ele>68.0</ele><time>2026-04-12T12:19:42.998Z</time></trkpt><trkpt lat="44.45297223431501" lon="11.447314968893625"><ele>68.0</ele><time>2026-04-12T12:19:43.998Z</time></trkpt><trkpt lat="44.45317999946713" lon="11.447465583596651"><ele>68.0</ele><time>2026-04-12T12:19:44.998Z</time></trkpt><trkpt lat="44.45338764773329" lon="11.447617073285167"><ele>68.0</ele><time>2026-04-12T12:19:45.998Z</time></trkpt><trkpt lat="44.45357854696114" lon="11.447752507861232"><ele>68.0</ele><time>2026-04-12T12:19:46.998Z</time></trkpt><trkpt lat="44.4537498098351" lon="11.447873062065524"><ele>67.33333333333334</ele><time>2026-04-12T12:19:47.998Z</time></trkpt><trkpt lat="44.453916775786254" lon="11.447987176351997"><ele>66.66666666666667</ele><time>2026-04-12T12:19:48.998Z</time></trkpt><trkpt lat="44.45407104320064" lon="11.448091954809302"><ele>66.0</ele><time>2026-04-12T12:19:49.998Z</time></trkpt><trkpt lat="44.45421264196639" lon="11.448185933091596"><ele>66.0</ele><time>2026-04-12T12:19:50.998Z</time></trkpt><trkpt lat="44.45434244683333" lon="11.448275735213912"><ele>66.0</ele><time>2026-04-12T12:19:51.998Z</time></trkpt><trkpt lat="44.45446070915723" lon="11.448359754177032"><ele>66.0</ele><time>2026-04-12T12:19:52.998Z</time></trkpt><trkpt lat="44.454571856522" lon="11.448433464997006"><ele>66.0</ele><time>2026-04-12T12:19:53.998Z</time></trkpt><trkpt lat="44.45467751735421" lon="11.448498601672778"><ele>65.6</ele><time>2026-04-12T12:19:54.998Z</time></trkpt><trkpt lat="44.454772388157956" lon="11.448573189620642"><ele>65.19999999999999</ele><time>2026-04-12T12:19:55.998Z</time></trkpt><trkpt lat="44.45485816924513" lon="11.448657085098695"><ele>64.80000000000001</ele><time>2026-04-12T12:19:56.998Z</time></trkpt><trkpt lat="44.45492867381331" lon="11.448744524904617"><ele>64.4</ele><time>2026-04-12T12:19:57.998Z</time></trkpt><trkpt lat="44.45498794439121" lon="11.448840717170997"><ele>64.0</ele><time>2026-04-12T12:19:58.998Z</time></trkpt><trkpt lat="44.45503815756148" lon="11.448964403686059"><ele>63.400000000000006</ele><time>2026-04-12T12:20:00Z</time></trkpt><trkpt lat="44.455089351404595" lon="11.449102914978253"><ele>62.800000000000004</ele><time>2026-04-12T12:20:01Z</time></trkpt><trkpt lat="44.45513936756851" lon="11.44920658945879"><ele>62.199999999999996</ele><time>2026-04-12T12:20:02Z</time></trkpt><trkpt lat="44.455202190642396" lon="11.449294373810426"><ele>61.599999999999994</ele><time>2026-04-12T12:20:03Z</time></trkpt><trkpt lat="44.45527704575355" lon="11.449354893493544"><ele>61.0</ele><time>2026-04-12T12:20:04Z</time></trkpt><trkpt lat="44.4553560223244" lon="11.449381720460023"><ele>60.99999999999999</ele><time>2026-04-12T12:20:05Z</time></trkpt><trkpt lat="44.45544034943023" lon="11.449372593691951"><ele>61.0</ele><time>2026-04-12T12:20:06Z</time></trkpt><trkpt lat="44.45551564515388" lon="11.449319830459812"><ele>61.0</ele><time>2026-04-12T12:20:07Z</time></trkpt><trkpt lat="44.455575997571046" lon="11.44922672849614"><ele>61.0</ele><time>2026-04-12T12:20:08Z</time></trkpt><trkpt lat="44.45561367636575" lon="11.449113352792054"><ele>60.99999999999999</ele><time>2026-04-12T12:20:09Z</time></trkpt><trkpt lat="44.455632465540425" lon="11.44899210820746"><ele>61.0</ele><time>2026-04-12T12:20:10Z</time></trkpt><trkpt lat="44.45562673832828" lon="11.448855730161842"><ele>61.25</ele><time>2026-04-12T12:20:11Z</time></trkpt><trkpt lat="44.45559588524431" lon="11.448724034736477"><ele>61.5</ele><time>2026-04-12T12:20:12Z</time></trkpt><trkpt lat="44.45555028572569" lon="11.448569075919306"><ele>61.75</ele><time>2026-04-12T12:20:13Z</time></trkpt><trkpt lat="44.45551757806548" lon="11.448390989060536"><ele>62.0</ele><time>2026-04-12T12:20:14Z</time></trkpt><trkpt lat="44.45551914073738" lon="11.448192405512284"><ele>62.0</ele><time>2026-04-12T12:20:15Z</time></trkpt><trkpt lat="44.45555370876278" lon="11.447981874420638"><ele>62.0</ele><time>2026-04-12T12:20:16Z</time></trkpt><trkpt lat="44.45560959631578" lon="11.447780070954026"><ele>62.0</ele><time>2026-04-12T12:20:17Z</time></trkpt><trkpt lat="44.45567034046324" lon="11.447604345625615"><ele>62.0</ele><time>2026-04-12T12:20:18Z</time></trkpt><trkpt lat="44.45572714870342" lon="11.447445996384356"><ele>62.6</ele><time>2026-04-12T12:20:19Z</time></trkpt><trkpt lat="44.455781151605734" lon="11.44729854367497"><ele>63.2</ele><time>2026-04-12T12:20:20Z</time></trkpt><trkpt lat="44.455829456087976" lon="11.44716621831285"><ele>63.8</ele><time>2026-04-12T12:20:21Z</time></trkpt><trkpt lat="44.45586469703399" lon="11.447055776768158"><ele>64.4</ele><time>2026-04-12T12:20:22Z</time></trkpt><trkpt lat="44.4558922825499" lon="11.446962927457811"><ele>65.0</ele><time>2026-04-12T12:20:23Z</time></trkpt><trkpt lat="44.45593309384609" lon="11.44683019902023"><ele>65.0</ele><time>2026-04-12T12:20:25Z</time></trkpt><trkpt lat="44.455976251545984" lon="11.446735511757232"><ele>65.0</ele><time>2026-04-12T12:20:27Z</time></trkpt><trkpt lat="44.45600364332649" lon="11.446649773722893"><ele>65.0</ele><time>2026-04-12T12:20:29Z</time></trkpt><trkpt lat="44.45606160566683" lon="11.446470349120682"><ele>65.0</ele><time>2026-04-12T12:20:38Z</time></trkpt><trkpt lat="44.45610075930806" lon="11.446346840725905"><ele>65.0</ele><time>2026-04-12T12:20:39Z</time></trkpt><trkpt lat="44.45614706253402" lon="11.446200916126926"><ele>64.6</ele><time>2026-04-12T12:20:40Z</time></trkpt><trkpt lat="44.45619249557353" lon="11.446056162244709"><ele>64.2</ele><time>2026-04-12T12:20:41Z</time></trkpt><trkpt lat="44.456231954126416" lon="11.445936938908451"><ele>63.8</ele><time>2026-04-12T12:20:42Z</time></trkpt><trkpt lat="44.45627137673317" lon="11.445822100650549"><ele>63.4</ele><time>2026-04-12T12:20:43Z</time></trkpt><trkpt lat="44.45631717037331" lon="11.445690299093517"><ele>63.0</ele><time>2026-04-12T12:20:44Z</time></trkpt><trkpt lat="44.456363723866296" lon="11.445551994790886"><ele>62.4</ele><time>2026-04-12T12:20:44.999Z</time></trkpt><trkpt lat="44.4564083548041" lon="11.445408529481595"><ele>61.8</ele><time>2026-04-12T12:20:45.999Z</time></trkpt><trkpt lat="44.45645484941102" lon="11.44526676512656"><ele>61.2</ele><time>2026-04-12T12:20:46.999Z</time></trkpt><trkpt lat="44.45649974226935" lon="11.445128610787128"><ele>60.6</ele><time>2026-04-12T12:20:47.999Z</time></trkpt><trkpt lat="44.45654835262451" lon="11.444981599446695"><ele>60.0</ele><time>2026-04-12T12:20:48.999Z</time></trkpt><trkpt lat="44.4566010656423" lon="11.444831002382514"><ele>60.0</ele><time>2026-04-12T12:20:49.999Z</time></trkpt><trkpt lat="44.45665016154318" lon="11.444694995239661"><ele>60.0</ele><time>2026-04-12T12:20:50.999Z</time></trkpt><trkpt lat="44.45669320690733" lon="11.444569307893708"><ele>60.0</ele><time>2026-04-12T12:20:51.999Z</time></trkpt><trkpt lat="44.456735476052344" lon="11.444434227986031"><ele>60.0</ele><time>2026-04-12T12:20:52.999Z</time></trkpt><trkpt lat="44.45678042209373" lon="11.444296195136047"><ele>60.0</ele><time>2026-04-12T12:20:53.999Z</time></trkpt><trkpt lat="44.45682680201355" lon="11.444163778769946"><ele>60.4</ele><time>2026-04-12T12:20:54.999Z</time></trkpt><trkpt lat="44.45687415760081" lon="11.444024281921568"><ele>60.8</ele><time>2026-04-12T12:20:55.999Z</time></trkpt><trkpt lat="44.45691599646143" lon="11.443890990734149"><ele>61.2</ele><time>2026-04-12T12:20:56.999Z</time></trkpt><trkpt lat="44.45695434148084" lon="11.443761216234156"><ele>61.6</ele><time>2026-04-12T12:20:57.999Z</time></trkpt><trkpt lat="44.45700096703387" lon="11.443619153269918"><ele>62.0</ele><time>2026-04-12T12:20:58.999Z</time></trkpt><trkpt lat="44.45705204681567" lon="11.443460074800768"><ele>62.0</ele><time>2026-04-12T12:20:59.999Z</time></trkpt><trkpt lat="44.45710687749917" lon="11.443290124377182"><ele>62.0</ele><time>2026-04-12T12:21:00.999Z</time></trkpt><trkpt lat="44.45716099390616" lon="11.44312734229743"><ele>62.0</ele><time>2026-04-12T12:21:01.999Z</time></trkpt><trkpt lat="44.45721159154806" lon="11.442986427070677"><ele>62.0</ele><time>2026-04-12T12:21:02.999Z</time></trkpt><trkpt lat="44.45725983074619" lon="11.442851381891169"><ele>61.2</ele><time>2026-04-12T12:21:03.999Z</time></trkpt><trkpt lat="44.45730789046324" lon="11.442704135196951"><ele>60.400000000000006</ele><time>2026-04-12T12:21:04.999Z</time></trkpt><trkpt lat="44.45735722431963" lon="11.442557578110291"><ele>59.599999999999994</ele><time>2026-04-12T12:21:05.999Z</time></trkpt><trkpt lat="44.45740031200951" lon="11.442422399528516"><ele>58.8</ele><time>2026-04-12T12:21:06.999Z</time></trkpt><trkpt lat="44.45744630623763" lon="11.442287548116141"><ele>58.0</ele><time>2026-04-12T12:21:07.999Z</time></trkpt><trkpt lat="44.457494851626315" lon="11.442139844984766"><ele>57.5</ele><time>2026-04-12T12:21:08.999Z</time></trkpt><trkpt lat="44.45754196130962" lon="11.44199287805123"><ele>57.0</ele><time>2026-04-12T12:21:09.999Z</time></trkpt><trkpt lat="44.457596553420416" lon="11.44183854197545"><ele>56.5</ele><time>2026-04-12T12:21:10.999Z</time></trkpt><trkpt lat="44.45764650441224" lon="11.441690212926472"><ele>56.0</ele><time>2026-04-12T12:21:11.999Z</time></trkpt><trkpt lat="44.4577032834416" lon="11.441517365558939"><ele>56.0</ele><time>2026-04-12T12:21:12.999Z</time></trkpt><trkpt lat="44.45775778527942" lon="11.44135188771608"><ele>56.0</ele><time>2026-04-12T12:21:13.999Z</time></trkpt><trkpt lat="44.45780761284163" lon="11.441204318076949"><ele>56.0</ele><time>2026-04-12T12:21:14.999Z</time></trkpt><trkpt lat="44.457854686040264" lon="11.44106034020906"><ele>56.0</ele><time>2026-04-12T12:21:15.999Z</time></trkpt><trkpt lat="44.4578985108508" lon="11.440926979458236"><ele>55.75</ele><time>2026-04-12T12:21:16.999Z</time></trkpt><trkpt lat="44.45794877282978" lon="11.440787794359075"><ele>55.5</ele><time>2026-04-12T12:21:17.999Z</time></trkpt><trkpt lat="44.4579941028165" lon="11.44063814254013"><ele>55.25</ele><time>2026-04-12T12:21:18.999Z</time></trkpt><trkpt lat="44.45804217346386" lon="11.440489736103896"><ele>55.0</ele><time>2026-04-12T12:21:19.999Z</time></trkpt><trkpt lat="44.45809429307077" lon="11.440337944549734"><ele>55.0</ele><time>2026-04-12T12:21:20.999Z</time></trkpt><trkpt lat="44.458146470395704" lon="11.440187119809853"><ele>55.0</ele><time>2026-04-12T12:21:21.999Z</time></trkpt><trkpt lat="44.458199167983935" lon="11.44003836952034"><ele>55.0</ele><time>2026-04-12T12:21:22.999Z</time></trkpt><trkpt lat="44.45825098124551" lon="11.439893570066552"><ele>55.0</ele><time>2026-04-12T12:21:23.999Z</time></trkpt><trkpt lat="44.458302546554336" lon="11.439749639848356"><ele>55.75</ele><time>2026-04-12T12:21:24.999Z</time></trkpt><trkpt lat="44.45835172020792" lon="11.439604242510308"><ele>56.5</ele><time>2026-04-12T12:21:25.999Z</time></trkpt><trkpt lat="44.45840439467044" lon="11.439462848864707"><ele>57.25</ele><time>2026-04-12T12:21:26.999Z</time></trkpt><trkpt lat="44.45845933135403" lon="11.439324916986301"><ele>58.0</ele><time>2026-04-12T12:21:27.999Z</time></trkpt><trkpt lat="44.45851691844365" lon="11.439182734264753"><ele>58.0</ele><time>2026-04-12T12:21:28.999Z</time></trkpt><trkpt lat="44.458584600494916" lon="11.439038883237364"><ele>58.0</ele><time>2026-04-12T12:21:29.999Z</time></trkpt><trkpt lat="44.458663547160484" lon="11.438894311281311"><ele>58.0</ele><time>2026-04-12T12:21:30.999Z</time></trkpt><trkpt lat="44.4587491281305" lon="11.438744480690845"><ele>58.0</ele><time>2026-04-12T12:21:31.999Z</time></trkpt><trkpt lat="44.458832790628946" lon="11.438601618442505"><ele>58.25</ele><time>2026-04-12T12:21:32.999Z</time></trkpt><trkpt lat="44.45891899831171" lon="11.438459171044022"><ele>58.5</ele><time>2026-04-12T12:21:33.999Z</time></trkpt><trkpt lat="44.45900250672094" lon="11.43832252757607"><ele>58.75</ele><time>2026-04-12T12:21:34.999Z</time></trkpt><trkpt lat="44.45908061963832" lon="11.438191385146299"><ele>59.0</ele><time>2026-04-12T12:21:35.999Z</time></trkpt><trkpt lat="44.45915645532796" lon="11.438064285035408"><ele>59.2</ele><time>2026-04-12T12:21:36.999Z</time></trkpt><trkpt lat="44.459229157255045" lon="11.437942132140167"><ele>59.400000000000006</ele><time>2026-04-12T12:21:37.999Z</time></trkpt><trkpt lat="44.45929799320942" lon="11.437826527295487"><ele>59.6</ele><time>2026-04-12T12:21:38.998Z</time></trkpt><trkpt lat="44.45936600564864" lon="11.437706883189067"><ele>59.8</ele><time>2026-04-12T12:21:39.998Z</time></trkpt><trkpt lat="44.45943534434962" lon="11.43759360579587"><ele>60.0</ele><time>2026-04-12T12:21:40.998Z</time></trkpt><trkpt lat="44.45950576655484" lon="11.437480195091076"><ele>60.0</ele><time>2026-04-12T12:21:41.998Z</time></trkpt><trkpt lat="44.45957748301481" lon="11.437355920669889"><ele>60.0</ele><time>2026-04-12T12:21:42.998Z</time></trkpt><trkpt lat="44.45965131301571" lon="11.43722037388976"><ele>60.0</ele><time>2026-04-12T12:21:43.998Z</time></trkpt><trkpt lat="44.45973152420937" lon="11.43708054790557"><ele>60.0</ele><time>2026-04-12T12:21:44.998Z</time></trkpt><trkpt lat="44.45981390477437" lon="11.436938087130384"><ele>60.75</ele><time>2026-04-12T12:21:45.998Z</time></trkpt><trkpt lat="44.45988874305387" lon="11.43680454720351"><ele>61.5</ele><time>2026-04-12T12:21:46.998Z</time></trkpt><trkpt lat="44.459958811276" lon="11.436665184758228"><ele>62.25</ele><time>2026-04-12T12:21:47.998Z</time></trkpt><trkpt lat="44.46002798392679" lon="11.43651857901862"><ele>63.0</ele><time>2026-04-12T12:21:48.998Z</time></trkpt><trkpt lat="44.46009888235543" lon="11.436367147120981"><ele>63.0</ele><time>2026-04-12T12:21:49.998Z</time></trkpt><trkpt lat="44.46016901340333" lon="11.436215654788757"><ele>63.0</ele><time>2026-04-12T12:21:50.998Z</time></trkpt><trkpt lat="44.4602340400536" lon="11.436063123397934"><ele>63.0</ele><time>2026-04-12T12:21:51.998Z</time></trkpt><trkpt lat="44.46029784395787" lon="11.435904680746537"><ele>63.0</ele><time>2026-04-12T12:21:52.998Z</time></trkpt><trkpt lat="44.46036024322697" lon="11.435743602012078"><ele>63.0</ele><time>2026-04-12T12:21:53.998Z</time></trkpt><trkpt lat="44.46042266348923" lon="11.435587903323698"><ele>63.0</ele><time>2026-04-12T12:21:54.998Z</time></trkpt><trkpt lat="44.460477773642936" lon="11.435443233984337"><ele>63.0</ele><time>2026-04-12T12:21:55.998Z</time></trkpt><trkpt lat="44.46052813481105" lon="11.435305451761142"><ele>63.0</ele><time>2026-04-12T12:21:56.998Z</time></trkpt><trkpt lat="44.460573386467" lon="11.435170620015416"><ele>63.5</ele><time>2026-04-12T12:21:57.998Z</time></trkpt><trkpt lat="44.46062101202543" lon="11.435037070671736"><ele>64.0</ele><time>2026-04-12T12:21:58.998Z</time></trkpt><trkpt lat="44.46067626879919" lon="11.434902382271487"><ele>64.5</ele><time>2026-04-12T12:21:59.998Z</time></trkpt><trkpt lat="44.46072870911577" lon="11.434759244070452"><ele>65.0</ele><time>2026-04-12T12:22:00.998Z</time></trkpt><trkpt lat="44.46077640252443" lon="11.434591881024433"><ele>65.5</ele><time>2026-04-12T12:22:01.998Z</time></trkpt><trkpt lat="44.46082460644378" lon="11.434428498198734"><ele>66.0</ele><time>2026-04-12T12:22:02.998Z</time></trkpt><trkpt lat="44.46087879687669" lon="11.434269440249226"><ele>66.5</ele><time>2026-04-12T12:22:03.998Z</time></trkpt><trkpt lat="44.46092869999292" lon="11.434121763342997"><ele>67.0</ele><time>2026-04-12T12:22:04.998Z</time></trkpt><trkpt lat="44.460972622368296" lon="11.433986803117435"><ele>67.0</ele><time>2026-04-12T12:22:06Z</time></trkpt><trkpt lat="44.461017133177215" lon="11.433859417108003"><ele>67.0</ele><time>2026-04-12T12:22:07Z</time></trkpt><trkpt lat="44.46106570896675" lon="11.43372434512669"><ele>67.0</ele><time>2026-04-12T12:22:08Z</time></trkpt><trkpt lat="44.46111594921438" lon="11.433593110951948"><ele>67.0</ele><time>2026-04-12T12:22:09Z</time></trkpt><trkpt lat="44.46116506184469" lon="11.433453895871969"><ele>67.0</ele><time>2026-04-12T12:22:10Z</time></trkpt><trkpt lat="44.461212346955946" lon="11.433310263972022"><ele>67.0</ele><time>2026-04-12T12:22:11Z</time></trkpt><trkpt lat="44.4612769748705" lon="11.43318018581051"><ele>67.0</ele><time>2026-04-12T12:22:12Z</time></trkpt><trkpt lat="44.4613269127985" lon="11.433044330656212"><ele>67.0</ele><time>2026-04-12T12:22:13Z</time></trkpt><trkpt lat="44.46136421869021" lon="11.432898963383941"><ele>67.0</ele><time>2026-04-12T12:22:14Z</time></trkpt><trkpt lat="44.46141519947362" lon="11.432767323826868"><ele>67.0</ele><time>2026-04-12T12:22:15Z</time></trkpt><trkpt lat="44.461477776236194" lon="11.43263923813689"><ele>67.0</ele><time>2026-04-12T12:22:16Z</time></trkpt><trkpt lat="44.46154735895886" lon="11.43251414713766"><ele>67.0</ele><time>2026-04-12T12:22:17Z</time></trkpt><trkpt lat="44.46162438361959" lon="11.43239189414659"><ele>67.0</ele><time>2026-04-12T12:22:18Z</time></trkpt><trkpt lat="44.461621791130376" lon="11.43226828055939"><ele>67.0</ele><time>2026-04-12T12:22:19Z</time></trkpt><trkpt lat="44.46167873257696" lon="11.43214959482318"><ele>67.0</ele><time>2026-04-12T12:22:20Z</time></trkpt><trkpt lat="44.46173622939646" lon="11.43203849328285"><ele>67.0</ele><time>2026-04-12T12:22:21Z</time></trkpt><trkpt lat="44.461789479573" lon="11.431934651140956"><ele>67.0</ele><time>2026-04-12T12:22:22Z</time></trkpt><trkpt lat="44.46183851877754" lon="11.431842037892451"><ele>67.0</ele><time>2026-04-12T12:22:23Z</time></trkpt><trkpt lat="44.46188140834946" lon="11.4317692196508"><ele>67.0</ele><time>2026-04-12T12:22:24Z</time></trkpt><trkpt lat="44.461925856353325" lon="11.431705249921551"><ele>67.0</ele><time>2026-04-12T12:22:25Z</time></trkpt><trkpt lat="44.462010724267564" lon="11.431604259053248"><ele>67.0</ele><time>2026-04-12T12:22:27Z</time></trkpt><trkpt lat="44.462103883599596" lon="11.431554318876037"><ele>66.6</ele><time>2026-04-12T12:22:29Z</time></trkpt><trkpt lat="44.46217692328057" lon="11.43152059171574"><ele>66.2</ele><time>2026-04-12T12:22:31Z</time></trkpt><trkpt lat="44.462298933288686" lon="11.431459637782444"><ele>65.8</ele><time>2026-04-12T12:22:33Z</time></trkpt><trkpt lat="44.462360172130765" lon="11.431403029489335"><ele>65.4</ele><time>2026-04-12T12:22:34Z</time></trkpt><trkpt lat="44.462395070920714" lon="11.431234717624527"><ele>65.0</ele><time>2026-04-12T12:22:36Z</time></trkpt><trkpt lat="44.46238095310614" lon="11.431136098332273"><ele>65.0</ele><time>2026-04-12T12:22:37Z</time></trkpt><trkpt lat="44.46234356431802" lon="11.431038863409789"><ele>65.0</ele><time>2026-04-12T12:22:38Z</time></trkpt><trkpt lat="44.46228080181196" lon="11.430967646519134"><ele>65.0</ele><time>2026-04-12T12:22:39Z</time></trkpt><trkpt lat="44.462211020631564" lon="11.430941619738013"><ele>65.0</ele><time>2026-04-12T12:22:40Z</time></trkpt><trkpt lat="44.462128560623626" lon="11.430945279593907"><ele>65.0</ele><time>2026-04-12T12:22:41Z</time></trkpt><trkpt lat="44.46199868804606" lon="11.43096297995502"><ele>65.0</ele><time>2026-04-12T12:22:42Z</time></trkpt><trkpt lat="44.461898882304936" lon="11.431025257276975"><ele>65.25</ele><time>2026-04-12T12:22:43Z</time></trkpt><trkpt lat="44.46178384648451" lon="11.430880133931835"><ele>65.5</ele><time>2026-04-12T12:22:44Z</time></trkpt><trkpt lat="44.46166655024328" lon="11.430840260967582"><ele>65.75</ele><time>2026-04-12T12:22:45Z</time></trkpt><trkpt lat="44.46153410799664" lon="11.43075592618754"><ele>66.0</ele><time>2026-04-12T12:22:46Z</time></trkpt><trkpt lat="44.46137254882114" lon="11.430672146718996"><ele>66.0</ele><time>2026-04-12T12:22:47Z</time></trkpt><trkpt lat="44.46119508256205" lon="11.430582026962414"><ele>66.0</ele><time>2026-04-12T12:22:48Z</time></trkpt><trkpt lat="44.46102431253084" lon="11.430495282876691"><ele>66.0</ele><time>2026-04-12T12:22:48.999Z</time></trkpt><trkpt lat="44.46086780199067" lon="11.430410209414994"><ele>66.0</ele><time>2026-04-12T12:22:49.999Z</time></trkpt><trkpt lat="44.46072131026263" lon="11.430320868139844"><ele>66.0</ele><time>2026-04-12T12:22:50.999Z</time></trkpt><trkpt lat="44.460589342968234" lon="11.43022727545772"><ele>66.0</ele><time>2026-04-12T12:22:51.999Z</time></trkpt><trkpt lat="44.46044525434021" lon="11.43012021607248"><ele>66.0</ele><time>2026-04-12T12:22:52.999Z</time></trkpt><trkpt lat="44.46028007640387" lon="11.430007985334239"><ele>66.0</ele><time>2026-04-12T12:22:53.999Z</time></trkpt><trkpt lat="44.460077762384245" lon="11.429879288158535"><ele>66.0</ele><time>2026-04-12T12:22:54.999Z</time></trkpt><trkpt lat="44.459861976812064" lon="11.429735520708034"><ele>66.0</ele><time>2026-04-12T12:22:55.999Z</time></trkpt><trkpt lat="44.45968184568881" lon="11.429607928630537"><ele>66.0</ele><time>2026-04-12T12:22:56.999Z</time></trkpt><trkpt lat="44.45952126463242" lon="11.429492779155028"><ele>66.0</ele><time>2026-04-12T12:22:57.999Z</time></trkpt><trkpt lat="44.45936082683627" lon="11.42936651895467"><ele>66.0</ele><time>2026-04-12T12:22:58.999Z</time></trkpt><trkpt lat="44.459198939270784" lon="11.429226433153136"><ele>66.0</ele><time>2026-04-12T12:22:59.999Z</time></trkpt><trkpt lat="44.45905274253852" lon="11.429080359064274"><ele>66.0</ele><time>2026-04-12T12:23:00.999Z</time></trkpt><trkpt lat="44.45891044514031" lon="11.428926443029166"><ele>66.66666666666667</ele><time>2026-04-12T12:23:01.999Z</time></trkpt><trkpt lat="44.45877702665879" lon="11.428742978412593"><ele>67.33333333333334</ele><time>2026-04-12T12:23:02.999Z</time></trkpt><trkpt lat="44.45864586647819" lon="11.428599721869022"><ele>68.0</ele><time>2026-04-12T12:23:03.999Z</time></trkpt><trkpt lat="44.45853831173981" lon="11.428423417626915"><ele>68.0</ele><time>2026-04-12T12:23:04.999Z</time></trkpt><trkpt lat="44.45844266565778" lon="11.42822204195033"><ele>68.0</ele><time>2026-04-12T12:23:05.999Z</time></trkpt><trkpt lat="44.45835966379306" lon="11.427997524999821"><ele>68.0</ele><time>2026-04-12T12:23:06.999Z</time></trkpt><trkpt lat="44.45828318805809" lon="11.427746402707804"><ele>68.66666666666667</ele><time>2026-04-12T12:23:07.999Z</time></trkpt><trkpt lat="44.45820246127418" lon="11.427473410506575"><ele>69.33333333333333</ele><time>2026-04-12T12:23:08.999Z</time></trkpt><trkpt lat="44.4581265298832" lon="11.427226657092751"><ele>70.0</ele><time>2026-04-12T12:23:09.999Z</time></trkpt><trkpt lat="44.45804554032185" lon="11.426997938338173"><ele>70.33333333333333</ele><time>2026-04-12T12:23:10.999Z</time></trkpt><trkpt lat="44.457948194883976" lon="11.42677773138639"><ele>70.66666666666667</ele><time>2026-04-12T12:23:11.999Z</time></trkpt><trkpt lat="44.457831974687274" lon="11.426554364641254"><ele>71.0</ele><time>2026-04-12T12:23:12.999Z</time></trkpt><trkpt lat="44.45769573116467" lon="11.426330828051137"><ele>73.5</ele><time>2026-04-12T12:23:13.999Z</time></trkpt><trkpt lat="44.45754332325795" lon="11.426106699635698"><ele>76.0</ele><time>2026-04-12T12:23:14.999Z</time></trkpt><trkpt lat="44.457381002518595" lon="11.425880213532322"><ele>76.0</ele><time>2026-04-12T12:23:15.999Z</time></trkpt><trkpt lat="44.45721005043213" lon="11.42564838913347"><ele>76.0</ele><time>2026-04-12T12:23:16.999Z</time></trkpt><trkpt lat="44.45706343780492" lon="11.425410140016723"><ele>75.66666666666666</ele><time>2026-04-12T12:23:17.999Z</time></trkpt><trkpt lat="44.45691785820779" lon="11.425203131571111"><ele>75.33333333333333</ele><time>2026-04-12T12:23:18.999Z</time></trkpt><trkpt lat="44.45677804496186" lon="11.425035829218617"><ele>75.0</ele><time>2026-04-12T12:23:19.999Z</time></trkpt><trkpt lat="44.45665658927301" lon="11.424857039050256"><ele>75.0</ele><time>2026-04-12T12:23:20.999Z</time></trkpt><trkpt lat="44.4565279344452" lon="11.42467234403253"><ele>75.0</ele><time>2026-04-12T12:23:21.999Z</time></trkpt><trkpt lat="44.45639357750956" lon="11.424481935846027"><ele>75.0</ele><time>2026-04-12T12:23:22.999Z</time></trkpt><trkpt lat="44.45626771620502" lon="11.424301039692365"><ele>74.75</ele><time>2026-04-12T12:23:23.999Z</time></trkpt><trkpt lat="44.45615553044113" lon="11.424138417205462"><ele>74.5</ele><time>2026-04-12T12:23:24.999Z</time></trkpt><trkpt lat="44.456050506548436" lon="11.423989305941905"><ele>74.25</ele><time>2026-04-12T12:23:25.999Z</time></trkpt><trkpt lat="44.45595220850646" lon="11.423854267835242"><ele>74.0</ele><time>2026-04-12T12:23:26.999Z</time></trkpt><trkpt lat="44.45585888758328" lon="11.423729692191248"><ele>73.8</ele><time>2026-04-12T12:23:27.999Z</time></trkpt><trkpt lat="44.455781692648586" lon="11.42359404882517"><ele>73.60000000000001</ele><time>2026-04-12T12:23:28.999Z</time></trkpt><trkpt lat="44.45569807004011" lon="11.42347688858556"><ele>73.4</ele><time>2026-04-12T12:23:29.999Z</time></trkpt><trkpt lat="44.45561563988515" lon="11.423376440628385"><ele>73.2</ele><time>2026-04-12T12:23:30.999Z</time></trkpt><trkpt lat="44.45557021173394" lon="11.423262198527508"><ele>73.0</ele><time>2026-04-12T12:23:31.999Z</time></trkpt><trkpt lat="44.45555722602492" lon="11.423141978952197"><ele>73.0</ele><time>2026-04-12T12:23:32.999Z</time></trkpt><trkpt lat="44.4555593945238" lon="11.422991212325202"><ele>73.0</ele><time>2026-04-12T12:23:33.999Z</time></trkpt><trkpt lat="44.45554449470767" lon="11.42284414414466"><ele>73.0</ele><time>2026-04-12T12:23:34.999Z</time></trkpt><trkpt lat="44.45550462000294" lon="11.42272206858562"><ele>73.0</ele><time>2026-04-12T12:23:35.999Z</time></trkpt><trkpt lat="44.45547490948873" lon="11.42261547705446"><ele>73.0</ele><time>2026-04-12T12:23:36.999Z</time></trkpt><trkpt lat="44.45535487583467" lon="11.4225773529356"><ele>72.8</ele><time>2026-04-12T12:23:37.999Z</time></trkpt><trkpt lat="44.45525897722785" lon="11.422568235338522"><ele>72.6</ele><time>2026-04-12T12:23:38.999Z</time></trkpt><trkpt lat="44.45515844221181" lon="11.42263233271398"><ele>72.4</ele><time>2026-04-12T12:23:39.999Z</time></trkpt><trkpt lat="44.45507882982824" lon="11.422730181999993"><ele>72.2</ele><time>2026-04-12T12:23:40.999Z</time></trkpt><trkpt lat="44.45504535062179" lon="11.422905176339928"><ele>72.0</ele><time>2026-04-12T12:23:41.999Z</time></trkpt><trkpt lat="44.45502387585356" lon="11.423092226663298"><ele>71.5</ele><time>2026-04-12T12:23:42.998Z</time></trkpt><trkpt lat="44.455023875853335" lon="11.423260813202656"><ele>71.0</ele><time>2026-04-12T12:23:43.998Z</time></trkpt><trkpt lat="44.454864881173805" lon="11.423340023894673"><ele>70.5</ele><time>2026-04-12T12:23:44.998Z</time></trkpt><trkpt lat="44.45475774080426" lon="11.423439096374688"><ele>70.0</ele><time>2026-04-12T12:23:45.998Z</time></trkpt><trkpt lat="44.454654630559254" lon="11.423545985606278"><ele>70.66666666666666</ele><time>2026-04-12T12:23:46.998Z</time></trkpt><trkpt lat="44.45456108760519" lon="11.423629145937294"><ele>71.33333333333333</ele><time>2026-04-12T12:23:47.998Z</time></trkpt><trkpt lat="44.45448016903922" lon="11.42370819254557"><ele>72.0</ele><time>2026-04-12T12:23:48.998Z</time></trkpt><trkpt lat="44.45440898280583" lon="11.423780728604633"><ele>72.66666666666667</ele><time>2026-04-12T12:23:49.998Z</time></trkpt><trkpt lat="44.45434663808622" lon="11.423842484249882"><ele>73.33333333333334</ele><time>2026-04-12T12:23:50.998Z</time></trkpt><trkpt lat="44.454287884355935" lon="11.423894099385343"><ele>74.0</ele><time>2026-04-12T12:23:51.998Z</time></trkpt><trkpt lat="44.454197115012796" lon="11.42395425543046"><ele>74.25</ele><time>2026-04-12T12:23:53.998Z</time></trkpt><trkpt lat="44.45429110458318" lon="11.424203392333265"><ele>74.5</ele><time>2026-04-12T12:23:55.998Z</time></trkpt><trkpt lat="44.45437133647497" lon="11.424280912261398"><ele>74.75</ele><time>2026-04-12T12:23:57.998Z</time></trkpt><trkpt lat="44.45445425113345" lon="11.424319299532174"><ele>75.0</ele><time>2026-04-12T12:23:59.998Z</time></trkpt><trkpt lat="44.45451059672706" lon="11.424420654687257"><ele>75.0</ele><time>2026-04-12T12:24:02.998Z</time></trkpt><trkpt lat="44.454491389268725" lon="11.42461119305669"><ele>75.0</ele><time>2026-04-12T12:24:05.998Z</time></trkpt><trkpt lat="44.45442330095174" lon="11.424551579662424"><ele>75.0</ele><time>2026-04-12T12:24:07.998Z</time></trkpt></trkseg></trk></gpx>